<?xml version='1.0' encoding='UTF-8'?><gpx version="1.1" creator="JPX - https://github.com/jenetics/jpx" xmlns="http://www.topografix.com/GPX/1/1"><trk><trkseg><trkpt lat="40.8132217" lon="16.54363"><ele>427.00000000000006</ele><time>2026-05-02T12:52:55.702Z</time></trkpt><trkpt lat="40.81329" lon="16.54364"><ele>427.0</ele><time>2026-05-02T12:52:57.701Z</time></trkpt><trkpt lat="40.813355" lon="16.54366"><ele>427.0</ele><time>2026-05-02T12:52:58.701Z</time></trkpt><trkpt lat="40.81344" lon="16.5436833"><ele>427.0</ele><time>2026-05-02T12:52:59.703Z</time></trkpt><trkpt lat="40.813545" lon="16.5437083"><ele>427.00000000000006</ele><time>2026-05-02T12:53:00.702Z</time></trkpt><trkpt lat="40.8136517" lon="16.5437417"><ele>427.0</ele><time>2026-05-02T12:53:01.702Z</time></trkpt><trkpt lat="40.8137417" lon="16.5437733"><ele>428.20000000000005</ele><time>2026-05-02T12:53:02.704Z</time></trkpt><trkpt lat="40.81383" lon="16.543815"><ele>429.40000000000003</ele><time>2026-05-02T12:53:03.704Z</time></trkpt><trkpt lat="40.8139133" lon="16.543855"><ele>430.59999999999997</ele><time>2026-05-02T12:53:04.703Z</time></trkpt><trkpt lat="40.8140033" lon="16.5438833"><ele>431.79999999999995</ele><time>2026-05-02T12:53:05.705Z</time></trkpt><trkpt lat="40.8140983" lon="16.543905"><ele>433.0</ele><time>2026-05-02T12:53:06.706Z</time></trkpt><trkpt lat="40.8141867" lon="16.543925"><ele>433.0</ele><time>2026-05-02T12:53:07.704Z</time></trkpt><trkpt lat="40.8142567" lon="16.5439417"><ele>432.99999999999994</ele><time>2026-05-02T12:53:08.704Z</time></trkpt><trkpt lat="40.814325" lon="16.54394"><ele>432.99999999999994</ele><time>2026-05-02T12:53:09.702Z</time></trkpt><trkpt lat="40.8144133" lon="16.543945"><ele>433.0</ele><time>2026-05-02T12:53:10.703Z</time></trkpt><trkpt lat="40.814525" lon="16.5439717"><ele>433.0</ele><time>2026-05-02T12:53:11.707Z</time></trkpt><trkpt lat="40.8146517" lon="16.5440117"><ele>433.25</ele><time>2026-05-02T12:53:12.704Z</time></trkpt><trkpt lat="40.81477" lon="16.5440533"><ele>433.5</ele><time>2026-05-02T12:53:13.706Z</time></trkpt><trkpt lat="40.81488" lon="16.54409"><ele>433.75</ele><time>2026-05-02T12:53:14.703Z</time></trkpt><trkpt lat="40.8149867" lon="16.5441267"><ele>434.0</ele><time>2026-05-02T12:53:15.701Z</time></trkpt><trkpt lat="40.8150883" lon="16.5441717"><ele>433.2</ele><time>2026-05-02T12:53:16.704Z</time></trkpt><trkpt lat="40.8151817" lon="16.5442267"><ele>432.4</ele><time>2026-05-02T12:53:17.702Z</time></trkpt><trkpt lat="40.8152633" lon="16.5442967"><ele>431.6</ele><time>2026-05-02T12:53:18.701Z</time></trkpt><trkpt lat="40.8153383" lon="16.5443783"><ele>430.8</ele><time>2026-05-02T12:53:19.704Z</time></trkpt><trkpt lat="40.8154017" lon="16.5444633"><ele>430.0</ele><time>2026-05-02T12:53:20.703Z</time></trkpt><trkpt lat="40.81545" lon="16.544535"><ele>430.0</ele><time>2026-05-02T12:53:21.701Z</time></trkpt><trkpt lat="40.815555" lon="16.5446033"><ele>430.0</ele><time>2026-05-02T12:53:23.702Z</time></trkpt><trkpt lat="40.81562" lon="16.5445833"><ele>430.0</ele><time>2026-05-02T12:53:24.702Z</time></trkpt><trkpt lat="40.8156833" lon="16.5445233"><ele>430.0</ele><time>2026-05-02T12:53:25.701Z</time></trkpt><trkpt lat="40.81575" lon="16.5444383"><ele>430.0</ele><time>2026-05-02T12:53:26.702Z</time></trkpt><trkpt lat="40.8158117" lon="16.5443417"><ele>430.0</ele><time>2026-05-02T12:53:27.702Z</time></trkpt><trkpt lat="40.8158667" lon="16.5442283"><ele>430.0</ele><time>2026-05-02T12:53:28.702Z</time></trkpt><trkpt lat="40.8159133" lon="16.544095"><ele>430.0</ele><time>2026-05-02T12:53:29.703Z</time></trkpt><trkpt lat="40.8159633" lon="16.5439433"><ele>430.0</ele><time>2026-05-02T12:53:30.702Z</time></trkpt><trkpt lat="40.8160133" lon="16.5437767"><ele>431.0</ele><time>2026-05-02T12:53:31.701Z</time></trkpt><trkpt lat="40.81607" lon="16.543605"><ele>432.0</ele><time>2026-05-02T12:53:32.702Z</time></trkpt><trkpt lat="40.8161283" lon="16.5434433"><ele>433.0</ele><time>2026-05-02T12:53:33.701Z</time></trkpt><trkpt lat="40.8161833" lon="16.5432833"><ele>434.0</ele><time>2026-05-02T12:53:34.702Z</time></trkpt><trkpt lat="40.8162383" lon="16.5431133"><ele>434.0</ele><time>2026-05-02T12:53:35.702Z</time></trkpt><trkpt lat="40.8162967" lon="16.5429533"><ele>434.0</ele><time>2026-05-02T12:53:36.702Z</time></trkpt><trkpt lat="40.8163533" lon="16.5428083"><ele>434.0</ele><time>2026-05-02T12:53:37.702Z</time></trkpt><trkpt lat="40.8164" lon="16.5426783"><ele>434.0</ele><time>2026-05-02T12:53:38.703Z</time></trkpt><trkpt lat="40.816445" lon="16.5425567"><ele>434.16666666666663</ele><time>2026-05-02T12:53:39.701Z</time></trkpt><trkpt lat="40.8164833" lon="16.5424533"><ele>434.3333333333333</ele><time>2026-05-02T12:53:40.701Z</time></trkpt><trkpt lat="40.8165167" lon="16.54237"><ele>434.5</ele><time>2026-05-02T12:53:41.701Z</time></trkpt><trkpt lat="40.8165767" lon="16.5422733"><ele>434.66666666666663</ele><time>2026-05-02T12:53:43.703Z</time></trkpt><trkpt lat="40.8166783" lon="16.5423017"><ele>434.8333333333333</ele><time>2026-05-02T12:53:45.702Z</time></trkpt><trkpt lat="40.8167533" lon="16.5423583"><ele>435.0</ele><time>2026-05-02T12:53:46.703Z</time></trkpt><trkpt lat="40.816845" lon="16.54242"><ele>435.0</ele><time>2026-05-02T12:53:47.702Z</time></trkpt><trkpt lat="40.816955" lon="16.54249"><ele>435.0</ele><time>2026-05-02T12:53:48.702Z</time></trkpt><trkpt lat="40.8170733" lon="16.542575"><ele>435.0</ele><time>2026-05-02T12:53:49.701Z</time></trkpt><trkpt lat="40.8172133" lon="16.5426733"><ele>435.0</ele><time>2026-05-02T12:53:50.703Z</time></trkpt><trkpt lat="40.817365" lon="16.5427783"><ele>435.0</ele><time>2026-05-02T12:53:51.702Z</time></trkpt><trkpt lat="40.8175133" lon="16.5428767"><ele>435.0</ele><time>2026-05-02T12:53:52.703Z</time></trkpt><trkpt lat="40.817645" lon="16.542965"><ele>435.0</ele><time>2026-05-02T12:53:53.703Z</time></trkpt><trkpt lat="40.8177683" lon="16.543045"><ele>435.75</ele><time>2026-05-02T12:53:54.701Z</time></trkpt><trkpt lat="40.8178867" lon="16.543115"><ele>436.5</ele><time>2026-05-02T12:53:55.703Z</time></trkpt><trkpt lat="40.8179967" lon="16.5431867"><ele>437.25</ele><time>2026-05-02T12:53:56.704Z</time></trkpt><trkpt lat="40.8180983" lon="16.54326"><ele>438.0</ele><time>2026-05-02T12:53:57.702Z</time></trkpt><trkpt lat="40.818185" lon="16.54333"><ele>438.0</ele><time>2026-05-02T12:53:58.702Z</time></trkpt><trkpt lat="40.8182583" lon="16.54339"><ele>438.0</ele><time>2026-05-02T12:53:59.703Z</time></trkpt><trkpt lat="40.8183217" lon="16.5434433"><ele>438.0</ele><time>2026-05-02T12:54:00.701Z</time></trkpt><trkpt lat="40.8183717" lon="16.5435033"><ele>438.0</ele><time>2026-05-02T12:54:01.706Z</time></trkpt><trkpt lat="40.8184417" lon="16.543615"><ele>438.0</ele><time>2026-05-02T12:54:03.702Z</time></trkpt><trkpt lat="40.81852" lon="16.5436867"><ele>438.0</ele><time>2026-05-02T12:54:05.704Z</time></trkpt><trkpt lat="40.8186283" lon="16.54369"><ele>438.3333333333333</ele><time>2026-05-02T12:54:07.704Z</time></trkpt><trkpt lat="40.81872" lon="16.54358"><ele>438.66666666666663</ele><time>2026-05-02T12:54:09.704Z</time></trkpt><trkpt lat="40.818735" lon="16.5434933"><ele>439.0</ele><time>2026-05-02T12:54:10.703Z</time></trkpt><trkpt lat="40.81873" lon="16.5433983"><ele>439.3333333333333</ele><time>2026-05-02T12:54:11.704Z</time></trkpt><trkpt lat="40.8187217" lon="16.5433033"><ele>439.66666666666663</ele><time>2026-05-02T12:54:12.703Z</time></trkpt><trkpt lat="40.8187183" lon="16.5431967"><ele>440.0</ele><time>2026-05-02T12:54:13.703Z</time></trkpt><trkpt lat="40.8187283" lon="16.5430717"><ele>440.0</ele><time>2026-05-02T12:54:14.704Z</time></trkpt><trkpt lat="40.8187567" lon="16.54292"><ele>440.0</ele><time>2026-05-02T12:54:15.703Z</time></trkpt><trkpt lat="40.8188083" lon="16.542735"><ele>440.0</ele><time>2026-05-02T12:54:16.704Z</time></trkpt><trkpt lat="40.8188817" lon="16.5425133"><ele>439.66666666666663</ele><time>2026-05-02T12:54:17.703Z</time></trkpt><trkpt lat="40.818965" lon="16.5422617"><ele>439.33333333333337</ele><time>2026-05-02T12:54:18.702Z</time></trkpt><trkpt lat="40.8190533" lon="16.5419967"><ele>439.0</ele><time>2026-05-02T12:54:19.704Z</time></trkpt><trkpt lat="40.8191433" lon="16.54173"><ele>439.0</ele><time>2026-05-02T12:54:20.703Z</time></trkpt><trkpt lat="40.8192317" lon="16.5414567"><ele>439.0</ele><time>2026-05-02T12:54:21.702Z</time></trkpt><trkpt lat="40.8193217" lon="16.5411817"><ele>439.0</ele><time>2026-05-02T12:54:22.703Z</time></trkpt><trkpt lat="40.81941" lon="16.5409033"><ele>439.0</ele><time>2026-05-02T12:54:23.703Z</time></trkpt><trkpt lat="40.8194983" lon="16.5406267"><ele>438.5</ele><time>2026-05-02T12:54:24.703Z</time></trkpt><trkpt lat="40.819585" lon="16.5403483"><ele>438.0</ele><time>2026-05-02T12:54:25.702Z</time></trkpt><trkpt lat="40.819675" lon="16.5400633"><ele>438.0</ele><time>2026-05-02T12:54:26.704Z</time></trkpt><trkpt lat="40.81977" lon="16.5397617"><ele>438.0</ele><time>2026-05-02T12:54:27.703Z</time></trkpt><trkpt lat="40.8198667" lon="16.539455"><ele>437.5</ele><time>2026-05-02T12:54:28.702Z</time></trkpt><trkpt lat="40.8199617" lon="16.5391517"><ele>437.0</ele><time>2026-05-02T12:54:29.704Z</time></trkpt><trkpt lat="40.8200583" lon="16.5388433"><ele>437.5</ele><time>2026-05-02T12:54:30.702Z</time></trkpt><trkpt lat="40.8201567" lon="16.5385317"><ele>438.0</ele><time>2026-05-02T12:54:31.702Z</time></trkpt><trkpt lat="40.8202583" lon="16.538215"><ele>438.0</ele><time>2026-05-02T12:54:32.702Z</time></trkpt><trkpt lat="40.8203617" lon="16.5378933"><ele>438.0</ele><time>2026-05-02T12:54:33.702Z</time></trkpt><trkpt lat="40.8204667" lon="16.5375667"><ele>438.0</ele><time>2026-05-02T12:54:34.701Z</time></trkpt><trkpt lat="40.82057" lon="16.537235"><ele>438.0</ele><time>2026-05-02T12:54:35.703Z</time></trkpt><trkpt lat="40.820675" lon="16.536905"><ele>438.5</ele><time>2026-05-02T12:54:36.703Z</time></trkpt><trkpt lat="40.8207783" lon="16.5365717"><ele>439.0</ele><time>2026-05-02T12:54:37.702Z</time></trkpt><trkpt lat="40.8208817" lon="16.5362383"><ele>440.5</ele><time>2026-05-02T12:54:38.703Z</time></trkpt><trkpt lat="40.8209883" lon="16.5359017"><ele>442.0</ele><time>2026-05-02T12:54:39.702Z</time></trkpt><trkpt lat="40.821095" lon="16.535565"><ele>442.5</ele><time>2026-05-02T12:54:40.701Z</time></trkpt><trkpt lat="40.8212017" lon="16.5352283"><ele>443.0</ele><time>2026-05-02T12:54:41.702Z</time></trkpt><trkpt lat="40.8213083" lon="16.534895"><ele>443.0</ele><time>2026-05-02T12:54:42.702Z</time></trkpt><trkpt lat="40.8214117" lon="16.5345733"><ele>443.0</ele><time>2026-05-02T12:54:43.703Z</time></trkpt><trkpt lat="40.8215117" lon="16.5342617"><ele>441.5</ele><time>2026-05-02T12:54:44.703Z</time></trkpt><trkpt lat="40.82161" lon="16.5339533"><ele>440.0</ele><time>2026-05-02T12:54:45.702Z</time></trkpt><trkpt lat="40.82171" lon="16.533645"><ele>440.0</ele><time>2026-05-02T12:54:46.702Z</time></trkpt><trkpt lat="40.821805" lon="16.5333417"><ele>440.0</ele><time>2026-05-02T12:54:47.702Z</time></trkpt><trkpt lat="40.8218933" lon="16.53306"><ele>439.66666666666663</ele><time>2026-05-02T12:54:48.701Z</time></trkpt><trkpt lat="40.82198" lon="16.5327967"><ele>439.33333333333337</ele><time>2026-05-02T12:54:49.703Z</time></trkpt><trkpt lat="40.82206" lon="16.5325483"><ele>439.0</ele><time>2026-05-02T12:54:50.702Z</time></trkpt><trkpt lat="40.8221333" lon="16.53232"><ele>439.0</ele><time>2026-05-02T12:54:51.701Z</time></trkpt><trkpt lat="40.8221983" lon="16.5321167"><ele>439.0</ele><time>2026-05-02T12:54:52.703Z</time></trkpt><trkpt lat="40.82225" lon="16.5319317"><ele>439.0</ele><time>2026-05-02T12:54:53.702Z</time></trkpt><trkpt lat="40.82229" lon="16.5317633"><ele>439.0</ele><time>2026-05-02T12:54:54.701Z</time></trkpt><trkpt lat="40.822325" lon="16.5316083"><ele>439.0</ele><time>2026-05-02T12:54:55.702Z</time></trkpt><trkpt lat="40.8223633" lon="16.53147"><ele>439.0</ele><time>2026-05-02T12:54:56.703Z</time></trkpt><trkpt lat="40.8224067" lon="16.5313383"><ele>439.0</ele><time>2026-05-02T12:54:57.703Z</time></trkpt><trkpt lat="40.8224517" lon="16.5312117"><ele>439.0</ele><time>2026-05-02T12:54:58.702Z</time></trkpt><trkpt lat="40.822495" lon="16.5310933"><ele>439.0</ele><time>2026-05-02T12:54:59.703Z</time></trkpt><trkpt lat="40.8225383" lon="16.5309717"><ele>439.0</ele><time>2026-05-02T12:55:00.703Z</time></trkpt><trkpt lat="40.8225833" lon="16.5308317"><ele>439.0</ele><time>2026-05-02T12:55:01.703Z</time></trkpt><trkpt lat="40.82263" lon="16.53066"><ele>439.0</ele><time>2026-05-02T12:55:02.703Z</time></trkpt><trkpt lat="40.822695" lon="16.5304433"><ele>439.33333333333337</ele><time>2026-05-02T12:55:03.703Z</time></trkpt><trkpt lat="40.822775" lon="16.5301967"><ele>439.66666666666663</ele><time>2026-05-02T12:55:04.703Z</time></trkpt><trkpt lat="40.8228617" lon="16.5299267"><ele>440.0</ele><time>2026-05-02T12:55:05.703Z</time></trkpt><trkpt lat="40.8229533" lon="16.5296417"><ele>439.5</ele><time>2026-05-02T12:55:06.703Z</time></trkpt><trkpt lat="40.8230383" lon="16.5293583"><ele>439.0</ele><time>2026-05-02T12:55:07.703Z</time></trkpt><trkpt lat="40.8231283" lon="16.5290717"><ele>439.0</ele><time>2026-05-02T12:55:08.703Z</time></trkpt><trkpt lat="40.823225" lon="16.5287667"><ele>439.0</ele><time>2026-05-02T12:55:09.703Z</time></trkpt><trkpt lat="40.82333" lon="16.5284533"><ele>439.0</ele><time>2026-05-02T12:55:10.702Z</time></trkpt><trkpt lat="40.8234383" lon="16.5281433"><ele>439.0</ele><time>2026-05-02T12:55:11.702Z</time></trkpt><trkpt lat="40.8235433" lon="16.5278417"><ele>439.0</ele><time>2026-05-02T12:55:12.703Z</time></trkpt><trkpt lat="40.82364" lon="16.5275483"><ele>439.0</ele><time>2026-05-02T12:55:13.704Z</time></trkpt><trkpt lat="40.8237317" lon="16.527255"><ele>438.0</ele><time>2026-05-02T12:55:14.703Z</time></trkpt><trkpt lat="40.823825" lon="16.5269617"><ele>437.0</ele><time>2026-05-02T12:55:15.701Z</time></trkpt><trkpt lat="40.82392" lon="16.5266683"><ele>437.0</ele><time>2026-05-02T12:55:16.702Z</time></trkpt><trkpt lat="40.824015" lon="16.5263717"><ele>437.0</ele><time>2026-05-02T12:55:17.703Z</time></trkpt><trkpt lat="40.8241083" lon="16.5260733"><ele>436.5</ele><time>2026-05-02T12:55:18.702Z</time></trkpt><trkpt lat="40.8242" lon="16.5257783"><ele>436.0</ele><time>2026-05-02T12:55:19.702Z</time></trkpt><trkpt lat="40.8242883" lon="16.5254967"><ele>435.6666666666667</ele><time>2026-05-02T12:55:20.704Z</time></trkpt><trkpt lat="40.8243733" lon="16.52523"><ele>435.33333333333337</ele><time>2026-05-02T12:55:21.702Z</time></trkpt><trkpt lat="40.8244567" lon="16.5249683"><ele>435.0</ele><time>2026-05-02T12:55:22.702Z</time></trkpt><trkpt lat="40.8245417" lon="16.5247067"><ele>435.0</ele><time>2026-05-02T12:55:23.702Z</time></trkpt><trkpt lat="40.8246267" lon="16.5244433"><ele>435.0</ele><time>2026-05-02T12:55:24.701Z</time></trkpt><trkpt lat="40.8247117" lon="16.52418"><ele>435.0</ele><time>2026-05-02T12:55:25.702Z</time></trkpt><trkpt lat="40.8247967" lon="16.5239083"><ele>435.0</ele><time>2026-05-02T12:55:26.703Z</time></trkpt><trkpt lat="40.8248883" lon="16.5236217"><ele>435.0</ele><time>2026-05-02T12:55:27.701Z</time></trkpt><trkpt lat="40.8249833" lon="16.5233217"><ele>435.0</ele><time>2026-05-02T12:55:28.702Z</time></trkpt><trkpt lat="40.8250733" lon="16.523035"><ele>435.0</ele><time>2026-05-02T12:55:29.703Z</time></trkpt><trkpt lat="40.8251567" lon="16.52276"><ele>434.33333333333337</ele><time>2026-05-02T12:55:30.702Z</time></trkpt><trkpt lat="40.825235" lon="16.5224867"><ele>433.6666666666667</ele><time>2026-05-02T12:55:31.702Z</time></trkpt><trkpt lat="40.825315" lon="16.522205"><ele>433.0</ele><time>2026-05-02T12:55:32.702Z</time></trkpt><trkpt lat="40.8253983" lon="16.52191"><ele>433.0</ele><time>2026-05-02T12:55:33.703Z</time></trkpt><trkpt lat="40.8254867" lon="16.5216033"><ele>433.0</ele><time>2026-05-02T12:55:34.701Z</time></trkpt><trkpt lat="40.8255767" lon="16.5212867"><ele>433.5</ele><time>2026-05-02T12:55:35.703Z</time></trkpt><trkpt lat="40.8256633" lon="16.5209667"><ele>434.0</ele><time>2026-05-02T12:55:36.701Z</time></trkpt><trkpt lat="40.825745" lon="16.5206533"><ele>434.0</ele><time>2026-05-02T12:55:37.703Z</time></trkpt><trkpt lat="40.8258217" lon="16.5203467"><ele>434.0</ele><time>2026-05-02T12:55:38.709Z</time></trkpt><trkpt lat="40.825895" lon="16.5200433"><ele>434.0</ele><time>2026-05-02T12:55:39.702Z</time></trkpt><trkpt lat="40.825965" lon="16.5197383"><ele>434.0</ele><time>2026-05-02T12:55:40.702Z</time></trkpt><trkpt lat="40.8260333" lon="16.519435"><ele>432.5</ele><time>2026-05-02T12:55:41.702Z</time></trkpt><trkpt lat="40.8261" lon="16.519135"><ele>431.0</ele><time>2026-05-02T12:55:42.702Z</time></trkpt><trkpt lat="40.8261617" lon="16.51883"><ele>430.5</ele><time>2026-05-02T12:55:43.702Z</time></trkpt><trkpt lat="40.8262233" lon="16.5185167"><ele>430.0</ele><time>2026-05-02T12:55:44.703Z</time></trkpt><trkpt lat="40.8262833" lon="16.5181917"><ele>427.5</ele><time>2026-05-02T12:55:45.701Z</time></trkpt><trkpt lat="40.8263433" lon="16.5178533"><ele>425.0</ele><time>2026-05-02T12:55:46.701Z</time></trkpt><trkpt lat="40.8264033" lon="16.5174983"><ele>425.0</ele><time>2026-05-02T12:55:47.703Z</time></trkpt><trkpt lat="40.8264683" lon="16.51712"><ele>425.0</ele><time>2026-05-02T12:55:48.702Z</time></trkpt><trkpt lat="40.826545" lon="16.5167183"><ele>423.0</ele><time>2026-05-02T12:55:49.703Z</time></trkpt><trkpt lat="40.8266267" lon="16.5163217"><ele>421.0</ele><time>2026-05-02T12:55:50.702Z</time></trkpt><trkpt lat="40.82671" lon="16.51594"><ele>417.5</ele><time>2026-05-02T12:55:51.701Z</time></trkpt><trkpt lat="40.8267883" lon="16.5155717"><ele>414.0</ele><time>2026-05-02T12:55:52.703Z</time></trkpt><trkpt lat="40.8268583" lon="16.5152117"><ele>409.5</ele><time>2026-05-02T12:55:53.702Z</time></trkpt><trkpt lat="40.8269233" lon="16.514865"><ele>405.0</ele><time>2026-05-02T12:55:54.702Z</time></trkpt><trkpt lat="40.8269867" lon="16.5145217"><ele>404.5</ele><time>2026-05-02T12:55:55.703Z</time></trkpt><trkpt lat="40.8270517" lon="16.5141783"><ele>404.0</ele><time>2026-05-02T12:55:56.703Z</time></trkpt><trkpt lat="40.827115" lon="16.5138333"><ele>403.0</ele><time>2026-05-02T12:55:57.702Z</time></trkpt><trkpt lat="40.8271783" lon="16.5134917"><ele>402.0</ele><time>2026-05-02T12:55:58.702Z</time></trkpt><trkpt lat="40.8272433" lon="16.5131533"><ele>401.5</ele><time>2026-05-02T12:55:59.703Z</time></trkpt><trkpt lat="40.8273083" lon="16.512815"><ele>401.0</ele><time>2026-05-02T12:56:00.701Z</time></trkpt><trkpt lat="40.8273717" lon="16.5124767"><ele>401.0</ele><time>2026-05-02T12:56:01.703Z</time></trkpt><trkpt lat="40.827435" lon="16.5121383"><ele>401.0</ele><time>2026-05-02T12:56:02.703Z</time></trkpt><trkpt lat="40.8274983" lon="16.5117983"><ele>399.5</ele><time>2026-05-02T12:56:03.701Z</time></trkpt><trkpt lat="40.8275617" lon="16.5114567"><ele>398.0</ele><time>2026-05-02T12:56:04.702Z</time></trkpt><trkpt lat="40.827625" lon="16.511115"><ele>396.0</ele><time>2026-05-02T12:56:05.703Z</time></trkpt><trkpt lat="40.8276883" lon="16.510775"><ele>394.0</ele><time>2026-05-02T12:56:06.701Z</time></trkpt><trkpt lat="40.8277533" lon="16.5104333"><ele>393.5</ele><time>2026-05-02T12:56:07.702Z</time></trkpt><trkpt lat="40.8278167" lon="16.510095"><ele>393.0</ele><time>2026-05-02T12:56:08.702Z</time></trkpt><trkpt lat="40.8278817" lon="16.509755"><ele>392.5</ele><time>2026-05-02T12:56:09.702Z</time></trkpt><trkpt lat="40.827945" lon="16.5094183"><ele>392.0</ele><time>2026-05-02T12:56:10.703Z</time></trkpt><trkpt lat="40.8280017" lon="16.50908"><ele>390.0</ele><time>2026-05-02T12:56:11.702Z</time></trkpt><trkpt lat="40.8280467" lon="16.5087383"><ele>388.0</ele><time>2026-05-02T12:56:12.702Z</time></trkpt><trkpt lat="40.828085" lon="16.508395"><ele>388.0</ele><time>2026-05-02T12:56:13.703Z</time></trkpt><trkpt lat="40.8281133" lon="16.5080617"><ele>388.0</ele><time>2026-05-02T12:56:14.702Z</time></trkpt><trkpt lat="40.828135" lon="16.50774"><ele>388.0</ele><time>2026-05-02T12:56:15.703Z</time></trkpt><trkpt lat="40.8281533" lon="16.5074267"><ele>388.0</ele><time>2026-05-02T12:56:16.703Z</time></trkpt><trkpt lat="40.8281633" lon="16.5071217"><ele>388.33333333333337</ele><time>2026-05-02T12:56:17.701Z</time></trkpt><trkpt lat="40.828165" lon="16.5068217"><ele>388.66666666666663</ele><time>2026-05-02T12:56:18.701Z</time></trkpt><trkpt lat="40.82816" lon="16.5065317"><ele>389.0</ele><time>2026-05-02T12:56:19.703Z</time></trkpt><trkpt lat="40.8281533" lon="16.50625"><ele>389.3333333333333</ele><time>2026-05-02T12:56:20.701Z</time></trkpt><trkpt lat="40.82814" lon="16.5059733"><ele>389.66666666666663</ele><time>2026-05-02T12:56:21.702Z</time></trkpt><trkpt lat="40.828125" lon="16.5057"><ele>390.0</ele><time>2026-05-02T12:56:22.701Z</time></trkpt><trkpt lat="40.8281033" lon="16.5054333"><ele>390.0</ele><time>2026-05-02T12:56:23.703Z</time></trkpt><trkpt lat="40.828075" lon="16.5051717"><ele>390.0</ele><time>2026-05-02T12:56:24.702Z</time></trkpt><trkpt lat="40.8280433" lon="16.504915"><ele>390.0</ele><time>2026-05-02T12:56:25.703Z</time></trkpt><trkpt lat="40.82801" lon="16.50466"><ele>390.33333333333337</ele><time>2026-05-02T12:56:26.702Z</time></trkpt><trkpt lat="40.8279717" lon="16.504405"><ele>390.6666666666667</ele><time>2026-05-02T12:56:27.701Z</time></trkpt><trkpt lat="40.8279283" lon="16.50415"><ele>391.0</ele><time>2026-05-02T12:56:28.702Z</time></trkpt><trkpt lat="40.8278783" lon="16.5038983"><ele>390.6666666666667</ele><time>2026-05-02T12:56:29.702Z</time></trkpt><trkpt lat="40.8278267" lon="16.50365"><ele>390.33333333333337</ele><time>2026-05-02T12:56:30.702Z</time></trkpt><trkpt lat="40.827775" lon="16.5034"><ele>390.0</ele><time>2026-05-02T12:56:31.702Z</time></trkpt><trkpt lat="40.82772" lon="16.5031517"><ele>390.0</ele><time>2026-05-02T12:56:32.701Z</time></trkpt><trkpt lat="40.8276617" lon="16.5029"><ele>390.0</ele><time>2026-05-02T12:56:33.702Z</time></trkpt><trkpt lat="40.8275967" lon="16.5026333"><ele>390.0</ele><time>2026-05-02T12:56:34.702Z</time></trkpt><trkpt lat="40.8275283" lon="16.5023417"><ele>389.5</ele><time>2026-05-02T12:56:35.702Z</time></trkpt><trkpt lat="40.8274617" lon="16.502025"><ele>389.0</ele><time>2026-05-02T12:56:36.703Z</time></trkpt><trkpt lat="40.8273967" lon="16.5016967"><ele>389.0</ele><time>2026-05-02T12:56:37.703Z</time></trkpt><trkpt lat="40.827335" lon="16.501365"><ele>389.0</ele><time>2026-05-02T12:56:38.702Z</time></trkpt><trkpt lat="40.8272717" lon="16.5010367"><ele>389.0</ele><time>2026-05-02T12:56:39.703Z</time></trkpt><trkpt lat="40.8272017" lon="16.500715"><ele>389.0</ele><time>2026-05-02T12:56:40.703Z</time></trkpt><trkpt lat="40.8271267" lon="16.500395"><ele>389.0</ele><time>2026-05-02T12:56:41.703Z</time></trkpt><trkpt lat="40.827055" lon="16.5000733"><ele>389.0</ele><time>2026-05-02T12:56:42.702Z</time></trkpt><trkpt lat="40.8269867" lon="16.49975"><ele>388.0</ele><time>2026-05-02T12:56:43.703Z</time></trkpt><trkpt lat="40.8269217" lon="16.499425"><ele>387.0</ele><time>2026-05-02T12:56:44.703Z</time></trkpt><trkpt lat="40.8268567" lon="16.4990983"><ele>388.0</ele><time>2026-05-02T12:56:45.702Z</time></trkpt><trkpt lat="40.82679" lon="16.498775"><ele>389.0</ele><time>2026-05-02T12:56:46.703Z</time></trkpt><trkpt lat="40.8267217" lon="16.4984517"><ele>389.0</ele><time>2026-05-02T12:56:47.703Z</time></trkpt><trkpt lat="40.8266533" lon="16.4981283"><ele>389.0</ele><time>2026-05-02T12:56:48.703Z</time></trkpt><trkpt lat="40.8265817" lon="16.497805"><ele>389.0</ele><time>2026-05-02T12:56:49.702Z</time></trkpt><trkpt lat="40.8265117" lon="16.4974817"><ele>389.0</ele><time>2026-05-02T12:56:50.702Z</time></trkpt><trkpt lat="40.8264467" lon="16.497155"><ele>389.5</ele><time>2026-05-02T12:56:51.702Z</time></trkpt><trkpt lat="40.826385" lon="16.4968267"><ele>390.0</ele><time>2026-05-02T12:56:52.702Z</time></trkpt><trkpt lat="40.8263267" lon="16.4964967"><ele>390.5</ele><time>2026-05-02T12:56:53.702Z</time></trkpt><trkpt lat="40.8262667" lon="16.4961667"><ele>391.0</ele><time>2026-05-02T12:56:54.703Z</time></trkpt><trkpt lat="40.8262" lon="16.4958417"><ele>391.0</ele><time>2026-05-02T12:56:55.703Z</time></trkpt><trkpt lat="40.82613" lon="16.4955183"><ele>391.0</ele><time>2026-05-02T12:56:56.703Z</time></trkpt><trkpt lat="40.8260633" lon="16.4952033"><ele>391.0</ele><time>2026-05-02T12:56:57.702Z</time></trkpt><trkpt lat="40.8259983" lon="16.4949067"><ele>391.0</ele><time>2026-05-02T12:56:58.702Z</time></trkpt><trkpt lat="40.8259367" lon="16.494625"><ele>391.0</ele><time>2026-05-02T12:56:59.701Z</time></trkpt><trkpt lat="40.8258733" lon="16.4943433"><ele>391.0</ele><time>2026-05-02T12:57:00.703Z</time></trkpt><trkpt lat="40.8258083" lon="16.4940517"><ele>391.0</ele><time>2026-05-02T12:57:01.701Z</time></trkpt><trkpt lat="40.8257383" lon="16.4937467"><ele>391.0</ele><time>2026-05-02T12:57:02.702Z</time></trkpt><trkpt lat="40.82567" lon="16.4934317"><ele>391.0</ele><time>2026-05-02T12:57:03.702Z</time></trkpt><trkpt lat="40.8256" lon="16.4931117"><ele>391.0</ele><time>2026-05-02T12:57:04.702Z</time></trkpt><trkpt lat="40.8255317" lon="16.4927933"><ele>391.0</ele><time>2026-05-02T12:57:05.704Z</time></trkpt><trkpt lat="40.8254617" lon="16.4924633"><ele>391.0</ele><time>2026-05-02T12:57:06.702Z</time></trkpt><trkpt lat="40.825395" lon="16.4921283"><ele>390.5</ele><time>2026-05-02T12:57:07.702Z</time></trkpt><trkpt lat="40.825325" lon="16.49179"><ele>390.0</ele><time>2026-05-02T12:57:08.702Z</time></trkpt><trkpt lat="40.825255" lon="16.491455"><ele>389.5</ele><time>2026-05-02T12:57:09.704Z</time></trkpt><trkpt lat="40.8251833" lon="16.4911167"><ele>389.0</ele><time>2026-05-02T12:57:10.702Z</time></trkpt><trkpt lat="40.825115" lon="16.4907783"><ele>390.0</ele><time>2026-05-02T12:57:11.703Z</time></trkpt><trkpt lat="40.8250467" lon="16.4904383"><ele>391.0</ele><time>2026-05-02T12:57:12.703Z</time></trkpt><trkpt lat="40.8249783" lon="16.4901"><ele>391.0</ele><time>2026-05-02T12:57:13.703Z</time></trkpt><trkpt lat="40.8249083" lon="16.489765"><ele>391.0</ele><time>2026-05-02T12:57:14.703Z</time></trkpt><trkpt lat="40.82484" lon="16.4894283"><ele>390.5</ele><time>2026-05-02T12:57:15.703Z</time></trkpt><trkpt lat="40.8247683" lon="16.4890933"><ele>390.0</ele><time>2026-05-02T12:57:16.702Z</time></trkpt><trkpt lat="40.8246983" lon="16.4887617"><ele>389.0</ele><time>2026-05-02T12:57:17.703Z</time></trkpt><trkpt lat="40.8246283" lon="16.4884283"><ele>388.0</ele><time>2026-05-02T12:57:18.702Z</time></trkpt><trkpt lat="40.82456" lon="16.4880933"><ele>387.0</ele><time>2026-05-02T12:57:19.703Z</time></trkpt><trkpt lat="40.82449" lon="16.48776"><ele>386.0</ele><time>2026-05-02T12:57:20.703Z</time></trkpt><trkpt lat="40.82442" lon="16.4874267"><ele>385.5</ele><time>2026-05-02T12:57:21.702Z</time></trkpt><trkpt lat="40.8243467" lon="16.4870917"><ele>385.0</ele><time>2026-05-02T12:57:22.703Z</time></trkpt><trkpt lat="40.8242767" lon="16.486755"><ele>384.0</ele><time>2026-05-02T12:57:23.702Z</time></trkpt><trkpt lat="40.8242067" lon="16.4864183"><ele>383.0</ele><time>2026-05-02T12:57:24.703Z</time></trkpt><trkpt lat="40.8241383" lon="16.4860817"><ele>383.0</ele><time>2026-05-02T12:57:25.702Z</time></trkpt><trkpt lat="40.8240683" lon="16.485745"><ele>383.0</ele><time>2026-05-02T12:57:26.702Z</time></trkpt><trkpt lat="40.8239983" lon="16.4854083"><ele>384.0</ele><time>2026-05-02T12:57:27.702Z</time></trkpt><trkpt lat="40.8239283" lon="16.48507"><ele>385.0</ele><time>2026-05-02T12:57:28.703Z</time></trkpt><trkpt lat="40.8238567" lon="16.4847283"><ele>386.5</ele><time>2026-05-02T12:57:29.703Z</time></trkpt><trkpt lat="40.823785" lon="16.4843883"><ele>388.0</ele><time>2026-05-02T12:57:30.702Z</time></trkpt><trkpt lat="40.8237117" lon="16.4840467"><ele>390.0</ele><time>2026-05-02T12:57:31.701Z</time></trkpt><trkpt lat="40.82364" lon="16.4837067"><ele>392.0</ele><time>2026-05-02T12:57:32.703Z</time></trkpt><trkpt lat="40.8235683" lon="16.4833733"><ele>392.0</ele><time>2026-05-02T12:57:33.702Z</time></trkpt><trkpt lat="40.8234967" lon="16.4830417"><ele>392.0</ele><time>2026-05-02T12:57:34.703Z</time></trkpt><trkpt lat="40.8234283" lon="16.4827133"><ele>391.5</ele><time>2026-05-02T12:57:35.702Z</time></trkpt><trkpt lat="40.8233583" lon="16.4823817"><ele>391.0</ele><time>2026-05-02T12:57:36.701Z</time></trkpt><trkpt lat="40.82329" lon="16.4820533"><ele>392.0</ele><time>2026-05-02T12:57:37.702Z</time></trkpt><trkpt lat="40.82322" lon="16.4817217"><ele>393.0</ele><time>2026-05-02T12:57:38.703Z</time></trkpt><trkpt lat="40.8231517" lon="16.4813867"><ele>395.5</ele><time>2026-05-02T12:57:39.701Z</time></trkpt><trkpt lat="40.8230817" lon="16.4810517"><ele>398.0</ele><time>2026-05-02T12:57:40.703Z</time></trkpt><trkpt lat="40.8230117" lon="16.480715"><ele>399.0</ele><time>2026-05-02T12:57:41.702Z</time></trkpt><trkpt lat="40.82294" lon="16.4803733"><ele>400.0</ele><time>2026-05-02T12:57:42.702Z</time></trkpt><trkpt lat="40.82287" lon="16.48003"><ele>400.0</ele><time>2026-05-02T12:57:43.703Z</time></trkpt><trkpt lat="40.8227967" lon="16.4796817"><ele>400.0</ele><time>2026-05-02T12:57:44.703Z</time></trkpt><trkpt lat="40.822725" lon="16.4793317"><ele>399.0</ele><time>2026-05-02T12:57:45.702Z</time></trkpt><trkpt lat="40.822655" lon="16.4789783"><ele>398.0</ele><time>2026-05-02T12:57:46.703Z</time></trkpt><trkpt lat="40.8225867" lon="16.478625"><ele>395.5</ele><time>2026-05-02T12:57:47.703Z</time></trkpt><trkpt lat="40.822525" lon="16.4782683"><ele>393.0</ele><time>2026-05-02T12:57:48.702Z</time></trkpt><trkpt lat="40.8224667" lon="16.47791"><ele>392.5</ele><time>2026-05-02T12:57:49.702Z</time></trkpt><trkpt lat="40.8224167" lon="16.4775483"><ele>392.0</ele><time>2026-05-02T12:57:50.702Z</time></trkpt><trkpt lat="40.8223767" lon="16.4771833"><ele>391.0</ele><time>2026-05-02T12:57:51.702Z</time></trkpt><trkpt lat="40.8223417" lon="16.47682"><ele>390.0</ele><time>2026-05-02T12:57:52.701Z</time></trkpt><trkpt lat="40.8223083" lon="16.4764567"><ele>388.5</ele><time>2026-05-02T12:57:53.702Z</time></trkpt><trkpt lat="40.822275" lon="16.476095"><ele>387.0</ele><time>2026-05-02T12:57:54.701Z</time></trkpt><trkpt lat="40.8222433" lon="16.47574"><ele>387.5</ele><time>2026-05-02T12:57:55.702Z</time></trkpt><trkpt lat="40.82221" lon="16.4753933"><ele>388.0</ele><time>2026-05-02T12:57:56.703Z</time></trkpt><trkpt lat="40.8221783" lon="16.4750533"><ele>388.0</ele><time>2026-05-02T12:57:57.702Z</time></trkpt><trkpt lat="40.8221467" lon="16.474715"><ele>388.0</ele><time>2026-05-02T12:57:58.702Z</time></trkpt><trkpt lat="40.822115" lon="16.4743783"><ele>387.5</ele><time>2026-05-02T12:57:59.707Z</time></trkpt><trkpt lat="40.822085" lon="16.474045"><ele>387.0</ele><time>2026-05-02T12:58:00.701Z</time></trkpt><trkpt lat="40.822055" lon="16.4737117"><ele>388.0</ele><time>2026-05-02T12:58:01.702Z</time></trkpt><trkpt lat="40.8220233" lon="16.47338"><ele>389.0</ele><time>2026-05-02T12:58:02.702Z</time></trkpt><trkpt lat="40.8219933" lon="16.4730517"><ele>390.0</ele><time>2026-05-02T12:58:03.701Z</time></trkpt><trkpt lat="40.8219633" lon="16.4727233"><ele>391.0</ele><time>2026-05-02T12:58:04.702Z</time></trkpt><trkpt lat="40.8219333" lon="16.4723967"><ele>390.5</ele><time>2026-05-02T12:58:05.702Z</time></trkpt><trkpt lat="40.8219033" lon="16.472075"><ele>390.0</ele><time>2026-05-02T12:58:06.702Z</time></trkpt><trkpt lat="40.8218733" lon="16.4717533"><ele>390.0</ele><time>2026-05-02T12:58:07.703Z</time></trkpt><trkpt lat="40.8218417" lon="16.4714317"><ele>390.0</ele><time>2026-05-02T12:58:08.702Z</time></trkpt><trkpt lat="40.8218133" lon="16.47111"><ele>389.5</ele><time>2026-05-02T12:58:09.703Z</time></trkpt><trkpt lat="40.8217867" lon="16.4707883"><ele>389.0</ele><time>2026-05-02T12:58:10.702Z</time></trkpt><trkpt lat="40.82176" lon="16.4704733"><ele>389.5</ele><time>2026-05-02T12:58:11.701Z</time></trkpt><trkpt lat="40.8217333" lon="16.470165"><ele>390.0</ele><time>2026-05-02T12:58:12.702Z</time></trkpt><trkpt lat="40.8217067" lon="16.4698633"><ele>390.66666666666663</ele><time>2026-05-02T12:58:13.702Z</time></trkpt><trkpt lat="40.8216817" lon="16.4695717"><ele>391.3333333333333</ele><time>2026-05-02T12:58:14.703Z</time></trkpt><trkpt lat="40.8216567" lon="16.469295"><ele>392.0</ele><time>2026-05-02T12:58:15.703Z</time></trkpt><trkpt lat="40.821635" lon="16.469045"><ele>392.0</ele><time>2026-05-02T12:58:16.703Z</time></trkpt><trkpt lat="40.821615" lon="16.4688317"><ele>392.0</ele><time>2026-05-02T12:58:17.704Z</time></trkpt><trkpt lat="40.8215983" lon="16.4686617"><ele>392.0</ele><time>2026-05-02T12:58:18.702Z</time></trkpt><trkpt lat="40.8215883" lon="16.4685383"><ele>392.0</ele><time>2026-05-02T12:58:19.704Z</time></trkpt><trkpt lat="40.8215817" lon="16.46845"><ele>391.75</ele><time>2026-05-02T12:58:20.702Z</time></trkpt><trkpt lat="40.8215717" lon="16.4682833"><ele>391.5</ele><time>2026-05-02T12:58:22.702Z</time></trkpt><trkpt lat="40.821555" lon="16.468165"><ele>391.25</ele><time>2026-05-02T12:58:23.702Z</time></trkpt><trkpt lat="40.821535" lon="16.4680067"><ele>391.0</ele><time>2026-05-02T12:58:24.702Z</time></trkpt><trkpt lat="40.8215133" lon="16.467805"><ele>390.6666666666667</ele><time>2026-05-02T12:58:25.701Z</time></trkpt><trkpt lat="40.8214883" lon="16.4675533"><ele>390.33333333333337</ele><time>2026-05-02T12:58:26.702Z</time></trkpt><trkpt lat="40.8214617" lon="16.46727"><ele>390.0</ele><time>2026-05-02T12:58:27.701Z</time></trkpt><trkpt lat="40.821435" lon="16.4669783"><ele>389.5</ele><time>2026-05-02T12:58:28.701Z</time></trkpt><trkpt lat="40.8214083" lon="16.4666617"><ele>389.0</ele><time>2026-05-02T12:58:29.701Z</time></trkpt><trkpt lat="40.8213767" lon="16.4663317"><ele>389.5</ele><time>2026-05-02T12:58:30.702Z</time></trkpt><trkpt lat="40.8213467" lon="16.4660017"><ele>390.0</ele><time>2026-05-02T12:58:31.703Z</time></trkpt><trkpt lat="40.8213167" lon="16.4656633"><ele>391.0</ele><time>2026-05-02T12:58:32.701Z</time></trkpt><trkpt lat="40.8212833" lon="16.46532"><ele>392.0</ele><time>2026-05-02T12:58:33.702Z</time></trkpt><trkpt lat="40.8212533" lon="16.4649783"><ele>392.0</ele><time>2026-05-02T12:58:34.701Z</time></trkpt><trkpt lat="40.8212217" lon="16.4646383"><ele>392.0</ele><time>2026-05-02T12:58:35.702Z</time></trkpt><trkpt lat="40.8211883" lon="16.4642967"><ele>392.5</ele><time>2026-05-02T12:58:36.702Z</time></trkpt><trkpt lat="40.821155" lon="16.4639567"><ele>393.0</ele><time>2026-05-02T12:58:37.701Z</time></trkpt><trkpt lat="40.8211217" lon="16.463615"><ele>393.0</ele><time>2026-05-02T12:58:38.702Z</time></trkpt><trkpt lat="40.82109" lon="16.4632733"><ele>393.0</ele><time>2026-05-02T12:58:39.702Z</time></trkpt><trkpt lat="40.82106" lon="16.4629333"><ele>393.5</ele><time>2026-05-02T12:58:40.701Z</time></trkpt><trkpt lat="40.8210283" lon="16.4625933"><ele>394.0</ele><time>2026-05-02T12:58:41.701Z</time></trkpt><trkpt lat="40.8209967" lon="16.4622533"><ele>394.0</ele><time>2026-05-02T12:58:42.701Z</time></trkpt><trkpt lat="40.8209633" lon="16.461915"><ele>394.0</ele><time>2026-05-02T12:58:43.701Z</time></trkpt><trkpt lat="40.8209317" lon="16.461575"><ele>394.0</ele><time>2026-05-02T12:58:44.702Z</time></trkpt><trkpt lat="40.8209" lon="16.4612367"><ele>394.0</ele><time>2026-05-02T12:58:45.702Z</time></trkpt><trkpt lat="40.8208667" lon="16.460895"><ele>394.0</ele><time>2026-05-02T12:58:46.701Z</time></trkpt><trkpt lat="40.8208333" lon="16.460555"><ele>394.0</ele><time>2026-05-02T12:58:47.702Z</time></trkpt><trkpt lat="40.8208" lon="16.4602133"><ele>394.0</ele><time>2026-05-02T12:58:48.703Z</time></trkpt><trkpt lat="40.8207667" lon="16.4598733"><ele>394.0</ele><time>2026-05-02T12:58:49.702Z</time></trkpt><trkpt lat="40.8207333" lon="16.4595333"><ele>395.0</ele><time>2026-05-02T12:58:50.702Z</time></trkpt><trkpt lat="40.8207" lon="16.4591933"><ele>396.0</ele><time>2026-05-02T12:58:51.701Z</time></trkpt><trkpt lat="40.8206633" lon="16.4588583"><ele>396.5</ele><time>2026-05-02T12:58:52.702Z</time></trkpt><trkpt lat="40.82062" lon="16.45853"><ele>397.0</ele><time>2026-05-02T12:58:53.702Z</time></trkpt><trkpt lat="40.8205667" lon="16.4582067"><ele>397.5</ele><time>2026-05-02T12:58:54.702Z</time></trkpt><trkpt lat="40.8204983" lon="16.45789"><ele>398.0</ele><time>2026-05-02T12:58:55.701Z</time></trkpt><trkpt lat="40.82041" lon="16.45758"><ele>398.0</ele><time>2026-05-02T12:58:56.701Z</time></trkpt><trkpt lat="40.8203083" lon="16.4572783"><ele>398.0</ele><time>2026-05-02T12:58:57.702Z</time></trkpt><trkpt lat="40.82019" lon="16.456985"><ele>398.0</ele><time>2026-05-02T12:58:58.701Z</time></trkpt><trkpt lat="40.82006" lon="16.4567"><ele>398.0</ele><time>2026-05-02T12:58:59.702Z</time></trkpt><trkpt lat="40.8199133" lon="16.45643"><ele>398.5</ele><time>2026-05-02T12:59:00.7Z</time></trkpt><trkpt lat="40.8197517" lon="16.456175"><ele>399.0</ele><time>2026-05-02T12:59:01.701Z</time></trkpt><trkpt lat="40.8195733" lon="16.455935"><ele>399.0</ele><time>2026-05-02T12:59:02.702Z</time></trkpt><trkpt lat="40.8193767" lon="16.4557133"><ele>399.0</ele><time>2026-05-02T12:59:03.704Z</time></trkpt><trkpt lat="40.81917" lon="16.4555083"><ele>399.5</ele><time>2026-05-02T12:59:04.702Z</time></trkpt><trkpt lat="40.8189567" lon="16.45532"><ele>400.0</ele><time>2026-05-02T12:59:05.702Z</time></trkpt><trkpt lat="40.8187317" lon="16.455145"><ele>400.0</ele><time>2026-05-02T12:59:06.703Z</time></trkpt><trkpt lat="40.8185033" lon="16.4549767"><ele>400.0</ele><time>2026-05-02T12:59:07.702Z</time></trkpt><trkpt lat="40.81827" lon="16.4548133"><ele>400.5</ele><time>2026-05-02T12:59:08.703Z</time></trkpt><trkpt lat="40.8180367" lon="16.4546483"><ele>401.0</ele><time>2026-05-02T12:59:09.702Z</time></trkpt><trkpt lat="40.8178017" lon="16.454485"><ele>401.5</ele><time>2026-05-02T12:59:10.702Z</time></trkpt><trkpt lat="40.8175683" lon="16.4543217"><ele>402.0</ele><time>2026-05-02T12:59:11.703Z</time></trkpt><trkpt lat="40.8173367" lon="16.45416"><ele>402.0</ele><time>2026-05-02T12:59:12.703Z</time></trkpt><trkpt lat="40.817105" lon="16.4539983"><ele>402.0</ele><time>2026-05-02T12:59:13.701Z</time></trkpt><trkpt lat="40.816875" lon="16.4538383"><ele>403.0</ele><time>2026-05-02T12:59:14.701Z</time></trkpt><trkpt lat="40.8166433" lon="16.4536783"><ele>404.0</ele><time>2026-05-02T12:59:15.702Z</time></trkpt><trkpt lat="40.8164133" lon="16.4535183"><ele>404.0</ele><time>2026-05-02T12:59:16.701Z</time></trkpt><trkpt lat="40.816185" lon="16.4533583"><ele>404.0</ele><time>2026-05-02T12:59:17.702Z</time></trkpt><trkpt lat="40.8159567" lon="16.4532"><ele>404.5</ele><time>2026-05-02T12:59:18.701Z</time></trkpt><trkpt lat="40.8157283" lon="16.4530417"><ele>405.0</ele><time>2026-05-02T12:59:19.701Z</time></trkpt><trkpt lat="40.8154983" lon="16.45288"><ele>406.0</ele><time>2026-05-02T12:59:20.702Z</time></trkpt><trkpt lat="40.815265" lon="16.4527183"><ele>407.0</ele><time>2026-05-02T12:59:21.702Z</time></trkpt><trkpt lat="40.8150383" lon="16.4525617"><ele>408.0</ele><time>2026-05-02T12:59:22.703Z</time></trkpt><trkpt lat="40.8148117" lon="16.4524033"><ele>409.0</ele><time>2026-05-02T12:59:23.702Z</time></trkpt><trkpt lat="40.8145817" lon="16.4522433"><ele>409.0</ele><time>2026-05-02T12:59:24.702Z</time></trkpt><trkpt lat="40.8143467" lon="16.4520767"><ele>409.0</ele><time>2026-05-02T12:59:25.702Z</time></trkpt><trkpt lat="40.814105" lon="16.4519067"><ele>409.5</ele><time>2026-05-02T12:59:26.703Z</time></trkpt><trkpt lat="40.813865" lon="16.451735"><ele>410.0</ele><time>2026-05-02T12:59:27.702Z</time></trkpt><trkpt lat="40.813625" lon="16.4515617"><ele>410.0</ele><time>2026-05-02T12:59:28.701Z</time></trkpt><trkpt lat="40.81339" lon="16.4513867"><ele>410.0</ele><time>2026-05-02T12:59:29.703Z</time></trkpt><trkpt lat="40.81316" lon="16.451215"><ele>410.0</ele><time>2026-05-02T12:59:30.701Z</time></trkpt><trkpt lat="40.8129333" lon="16.4510467"><ele>410.0</ele><time>2026-05-02T12:59:31.7Z</time></trkpt><trkpt lat="40.8127117" lon="16.45088"><ele>412.5</ele><time>2026-05-02T12:59:32.702Z</time></trkpt><trkpt lat="40.8124883" lon="16.4507167"><ele>415.0</ele><time>2026-05-02T12:59:33.701Z</time></trkpt><trkpt lat="40.8122667" lon="16.4505517"><ele>416.0</ele><time>2026-05-02T12:59:34.701Z</time></trkpt><trkpt lat="40.8120433" lon="16.4503833"><ele>417.0</ele><time>2026-05-02T12:59:35.702Z</time></trkpt><trkpt lat="40.81182" lon="16.4502167"><ele>418.5</ele><time>2026-05-02T12:59:36.701Z</time></trkpt><trkpt lat="40.8115967" lon="16.45005"><ele>420.0</ele><time>2026-05-02T12:59:37.702Z</time></trkpt><trkpt lat="40.8113717" lon="16.4498817"><ele>420.0</ele><time>2026-05-02T12:59:38.701Z</time></trkpt><trkpt lat="40.8111417" lon="16.4497117"><ele>420.0</ele><time>2026-05-02T12:59:39.702Z</time></trkpt><trkpt lat="40.8109117" lon="16.4495383"><ele>420.0</ele><time>2026-05-02T12:59:40.702Z</time></trkpt><trkpt lat="40.8106817" lon="16.4493667"><ele>420.0</ele><time>2026-05-02T12:59:41.702Z</time></trkpt><trkpt lat="40.8104517" lon="16.4491967"><ele>420.0</ele><time>2026-05-02T12:59:42.701Z</time></trkpt><trkpt lat="40.810225" lon="16.4490217"><ele>420.0</ele><time>2026-05-02T12:59:43.701Z</time></trkpt><trkpt lat="40.81" lon="16.4488417"><ele>420.5</ele><time>2026-05-02T12:59:44.702Z</time></trkpt><trkpt lat="40.80978" lon="16.4486517"><ele>421.0</ele><time>2026-05-02T12:59:45.701Z</time></trkpt><trkpt lat="40.8095667" lon="16.448445"><ele>421.0</ele><time>2026-05-02T12:59:46.703Z</time></trkpt><trkpt lat="40.80936" lon="16.4482283"><ele>421.0</ele><time>2026-05-02T12:59:47.702Z</time></trkpt><trkpt lat="40.80916" lon="16.4480033"><ele>420.0</ele><time>2026-05-02T12:59:48.703Z</time></trkpt><trkpt lat="40.8089633" lon="16.447765"><ele>419.0</ele><time>2026-05-02T12:59:49.702Z</time></trkpt><trkpt lat="40.8087733" lon="16.447515"><ele>419.0</ele><time>2026-05-02T12:59:50.702Z</time></trkpt><trkpt lat="40.8085883" lon="16.44725"><ele>419.0</ele><time>2026-05-02T12:59:51.703Z</time></trkpt><trkpt lat="40.8084083" lon="16.446975"><ele>419.0</ele><time>2026-05-02T12:59:52.702Z</time></trkpt><trkpt lat="40.8082333" lon="16.4466933"><ele>419.0</ele><time>2026-05-02T12:59:53.702Z</time></trkpt><trkpt lat="40.80807" lon="16.4464067"><ele>420.5</ele><time>2026-05-02T12:59:54.703Z</time></trkpt><trkpt lat="40.8079083" lon="16.44612"><ele>422.0</ele><time>2026-05-02T12:59:55.701Z</time></trkpt><trkpt lat="40.8077467" lon="16.445835"><ele>420.0</ele><time>2026-05-02T12:59:56.703Z</time></trkpt><trkpt lat="40.807585" lon="16.4455533"><ele>418.0</ele><time>2026-05-02T12:59:57.701Z</time></trkpt><trkpt lat="40.8074217" lon="16.44527"><ele>418.0</ele><time>2026-05-02T12:59:58.703Z</time></trkpt><trkpt lat="40.8072633" lon="16.4449933"><ele>418.0</ele><time>2026-05-02T12:59:59.702Z</time></trkpt><trkpt lat="40.8071033" lon="16.4447167"><ele>420.5</ele><time>2026-05-02T13:00:00.702Z</time></trkpt><trkpt lat="40.80695" lon="16.44444"><ele>423.0</ele><time>2026-05-02T13:00:01.701Z</time></trkpt><trkpt lat="40.8067917" lon="16.44416"><ele>423.0</ele><time>2026-05-02T13:00:02.702Z</time></trkpt><trkpt lat="40.8066317" lon="16.4438783"><ele>423.0</ele><time>2026-05-02T13:00:03.7Z</time></trkpt><trkpt lat="40.8064717" lon="16.4435983"><ele>423.5</ele><time>2026-05-02T13:00:04.701Z</time></trkpt><trkpt lat="40.8063133" lon="16.4433167"><ele>424.0</ele><time>2026-05-02T13:00:05.702Z</time></trkpt><trkpt lat="40.8061533" lon="16.4430367"><ele>424.5</ele><time>2026-05-02T13:00:06.702Z</time></trkpt><trkpt lat="40.8059867" lon="16.4427767"><ele>425.0</ele><time>2026-05-02T13:00:07.703Z</time></trkpt><trkpt lat="40.8058233" lon="16.4425367"><ele>425.0</ele><time>2026-05-02T13:00:08.703Z</time></trkpt><trkpt lat="40.805665" lon="16.44228"><ele>425.0</ele><time>2026-05-02T13:00:09.702Z</time></trkpt><trkpt lat="40.8055033" lon="16.4420017"><ele>429.0</ele><time>2026-05-02T13:00:10.702Z</time></trkpt><trkpt lat="40.8050617" lon="16.4411183"><ele>429.0</ele><time>2026-05-02T13:00:13.705Z</time></trkpt><trkpt lat="40.8047867" lon="16.4404817"><ele>392.0</ele><time>2026-05-02T13:00:15.703Z</time></trkpt><trkpt lat="40.803595" lon="16.43732"><ele>394.5</ele><time>2026-05-02T13:00:25.7Z</time></trkpt><trkpt lat="40.8035067" lon="16.4369983"><ele>397.0</ele><time>2026-05-02T13:00:26.702Z</time></trkpt><trkpt lat="40.8034467" lon="16.4366683"><ele>387.5</ele><time>2026-05-02T13:00:27.701Z</time></trkpt><trkpt lat="40.803405" lon="16.43633"><ele>378.0</ele><time>2026-05-02T13:00:28.702Z</time></trkpt><trkpt lat="40.8033733" lon="16.4359833"><ele>376.5</ele><time>2026-05-02T13:00:29.702Z</time></trkpt><trkpt lat="40.8033533" lon="16.4356333"><ele>375.0</ele><time>2026-05-02T13:00:30.701Z</time></trkpt><trkpt lat="40.8033417" lon="16.4352833"><ele>372.5</ele><time>2026-05-02T13:00:31.701Z</time></trkpt><trkpt lat="40.8033433" lon="16.4349367"><ele>370.0</ele><time>2026-05-02T13:00:32.701Z</time></trkpt><trkpt lat="40.8033567" lon="16.4345917"><ele>368.0</ele><time>2026-05-02T13:00:33.705Z</time></trkpt><trkpt lat="40.80338" lon="16.43425"><ele>366.0</ele><time>2026-05-02T13:00:34.701Z</time></trkpt><trkpt lat="40.8034083" lon="16.4339117"><ele>364.5</ele><time>2026-05-02T13:00:35.701Z</time></trkpt><trkpt lat="40.803445" lon="16.4335733"><ele>363.0</ele><time>2026-05-02T13:00:36.7Z</time></trkpt><trkpt lat="40.8034917" lon="16.4332383"><ele>370.0</ele><time>2026-05-02T13:00:37.702Z</time></trkpt><trkpt lat="40.80355" lon="16.432905"><ele>377.0</ele><time>2026-05-02T13:00:38.702Z</time></trkpt><trkpt lat="40.80362" lon="16.4325733"><ele>377.0</ele><time>2026-05-02T13:00:39.701Z</time></trkpt><trkpt lat="40.8037017" lon="16.4322467"><ele>377.0</ele><time>2026-05-02T13:00:40.701Z</time></trkpt><trkpt lat="40.8037917" lon="16.431925"><ele>375.0</ele><time>2026-05-02T13:00:41.703Z</time></trkpt><trkpt lat="40.8038883" lon="16.4316067"><ele>373.0</ele><time>2026-05-02T13:00:42.702Z</time></trkpt><trkpt lat="40.803985" lon="16.4312917"><ele>369.5</ele><time>2026-05-02T13:00:43.701Z</time></trkpt><trkpt lat="40.8040767" lon="16.43097"><ele>366.0</ele><time>2026-05-02T13:00:44.702Z</time></trkpt><trkpt lat="40.8041683" lon="16.43065"><ele>368.5</ele><time>2026-05-02T13:00:45.702Z</time></trkpt><trkpt lat="40.80426" lon="16.4303317"><ele>371.0</ele><time>2026-05-02T13:00:46.701Z</time></trkpt><trkpt lat="40.8043517" lon="16.430015"><ele>371.0</ele><time>2026-05-02T13:00:47.702Z</time></trkpt><trkpt lat="40.8044417" lon="16.4296983"><ele>371.0</ele><time>2026-05-02T13:00:48.702Z</time></trkpt><trkpt lat="40.804535" lon="16.4293817"><ele>366.0</ele><time>2026-05-02T13:00:49.703Z</time></trkpt><trkpt lat="40.8046267" lon="16.4290667"><ele>361.0</ele><time>2026-05-02T13:00:50.702Z</time></trkpt><trkpt lat="40.8047183" lon="16.4287483"><ele>357.5</ele><time>2026-05-02T13:00:51.703Z</time></trkpt><trkpt lat="40.8048083" lon="16.4284317"><ele>354.0</ele><time>2026-05-02T13:00:52.704Z</time></trkpt><trkpt lat="40.8049" lon="16.4281167"><ele>350.0</ele><time>2026-05-02T13:00:53.703Z</time></trkpt><trkpt lat="40.8049917" lon="16.4278033"><ele>346.0</ele><time>2026-05-02T13:00:54.701Z</time></trkpt><trkpt lat="40.8050833" lon="16.42749"><ele>344.0</ele><time>2026-05-02T13:00:55.701Z</time></trkpt><trkpt lat="40.80517" lon="16.427175"><ele>342.0</ele><time>2026-05-02T13:00:56.701Z</time></trkpt><trkpt lat="40.8052483" lon="16.426855"><ele>342.0</ele><time>2026-05-02T13:00:57.702Z</time></trkpt><trkpt lat="40.8053167" lon="16.4265267"><ele>342.0</ele><time>2026-05-02T13:00:58.703Z</time></trkpt><trkpt lat="40.8053767" lon="16.426195"><ele>339.5</ele><time>2026-05-02T13:00:59.701Z</time></trkpt><trkpt lat="40.8054283" lon="16.4258617"><ele>337.0</ele><time>2026-05-02T13:01:00.701Z</time></trkpt><trkpt lat="40.8054733" lon="16.4255267"><ele>335.0</ele><time>2026-05-02T13:01:01.703Z</time></trkpt><trkpt lat="40.8055083" lon="16.42519"><ele>333.0</ele><time>2026-05-02T13:01:02.703Z</time></trkpt><trkpt lat="40.805535" lon="16.4248517"><ele>331.0</ele><time>2026-05-02T13:01:03.702Z</time></trkpt><trkpt lat="40.8055533" lon="16.4245117"><ele>329.0</ele><time>2026-05-02T13:01:04.701Z</time></trkpt><trkpt lat="40.8055633" lon="16.4241717"><ele>329.0</ele><time>2026-05-02T13:01:05.703Z</time></trkpt><trkpt lat="40.8055633" lon="16.4238317"><ele>329.0</ele><time>2026-05-02T13:01:06.701Z</time></trkpt><trkpt lat="40.805555" lon="16.4234933"><ele>326.5</ele><time>2026-05-02T13:01:07.702Z</time></trkpt><trkpt lat="40.8055367" lon="16.4231567"><ele>324.0</ele><time>2026-05-02T13:01:08.703Z</time></trkpt><trkpt lat="40.8055067" lon="16.4228233"><ele>320.5</ele><time>2026-05-02T13:01:09.702Z</time></trkpt><trkpt lat="40.8054683" lon="16.4224917"><ele>317.0</ele><time>2026-05-02T13:01:10.702Z</time></trkpt><trkpt lat="40.8054233" lon="16.42216"><ele>315.0</ele><time>2026-05-02T13:01:11.701Z</time></trkpt><trkpt lat="40.805375" lon="16.421825"><ele>313.0</ele><time>2026-05-02T13:01:12.702Z</time></trkpt><trkpt lat="40.8053183" lon="16.4214883"><ele>310.0</ele><time>2026-05-02T13:01:13.701Z</time></trkpt><trkpt lat="40.8052567" lon="16.42115"><ele>307.0</ele><time>2026-05-02T13:01:14.702Z</time></trkpt><trkpt lat="40.8051967" lon="16.4208133"><ele>303.5</ele><time>2026-05-02T13:01:15.701Z</time></trkpt><trkpt lat="40.8051417" lon="16.4204767"><ele>300.0</ele><time>2026-05-02T13:01:16.701Z</time></trkpt><trkpt lat="40.8050983" lon="16.42014"><ele>300.0</ele><time>2026-05-02T13:01:17.703Z</time></trkpt><trkpt lat="40.8050683" lon="16.4198"><ele>300.0</ele><time>2026-05-02T13:01:18.702Z</time></trkpt><trkpt lat="40.80505" lon="16.4194583"><ele>298.0</ele><time>2026-05-02T13:01:19.703Z</time></trkpt><trkpt lat="40.8050433" lon="16.4191167"><ele>296.0</ele><time>2026-05-02T13:01:20.703Z</time></trkpt><trkpt lat="40.8050467" lon="16.4187733"><ele>294.0</ele><time>2026-05-02T13:01:21.703Z</time></trkpt><trkpt lat="40.805065" lon="16.4184317"><ele>292.0</ele><time>2026-05-02T13:01:22.702Z</time></trkpt><trkpt lat="40.805095" lon="16.4180967"><ele>291.0</ele><time>2026-05-02T13:01:23.702Z</time></trkpt><trkpt lat="40.8051367" lon="16.4177633"><ele>290.0</ele><time>2026-05-02T13:01:24.703Z</time></trkpt><trkpt lat="40.8051933" lon="16.4174333"><ele>287.5</ele><time>2026-05-02T13:01:25.701Z</time></trkpt><trkpt lat="40.8052633" lon="16.4171067"><ele>285.0</ele><time>2026-05-02T13:01:26.701Z</time></trkpt><trkpt lat="40.805345" lon="16.4167817"><ele>285.0</ele><time>2026-05-02T13:01:27.7Z</time></trkpt><trkpt lat="40.8054333" lon="16.41646"><ele>285.0</ele><time>2026-05-02T13:01:28.702Z</time></trkpt><trkpt lat="40.80552" lon="16.4161417"><ele>285.5</ele><time>2026-05-02T13:01:29.702Z</time></trkpt><trkpt lat="40.8056067" lon="16.415825"><ele>286.0</ele><time>2026-05-02T13:01:30.703Z</time></trkpt><trkpt lat="40.8056917" lon="16.4155083"><ele>285.5</ele><time>2026-05-02T13:01:31.701Z</time></trkpt><trkpt lat="40.8057783" lon="16.4151917"><ele>285.0</ele><time>2026-05-02T13:01:32.702Z</time></trkpt><trkpt lat="40.8058633" lon="16.4148783"><ele>285.0</ele><time>2026-05-02T13:01:33.7Z</time></trkpt><trkpt lat="40.8059483" lon="16.4145667"><ele>285.0</ele><time>2026-05-02T13:01:34.703Z</time></trkpt><trkpt lat="40.8060333" lon="16.4142583"><ele>284.5</ele><time>2026-05-02T13:01:35.702Z</time></trkpt><trkpt lat="40.8061167" lon="16.4139533"><ele>284.0</ele><time>2026-05-02T13:01:36.702Z</time></trkpt><trkpt lat="40.8061967" lon="16.4136517"><ele>285.0</ele><time>2026-05-02T13:01:37.702Z</time></trkpt><trkpt lat="40.8062783" lon="16.4133533"><ele>286.0</ele><time>2026-05-02T13:01:38.703Z</time></trkpt><trkpt lat="40.8063583" lon="16.4130517"><ele>287.5</ele><time>2026-05-02T13:01:39.701Z</time></trkpt><trkpt lat="40.80644" lon="16.4127533"><ele>289.0</ele><time>2026-05-02T13:01:40.701Z</time></trkpt><trkpt lat="40.80652" lon="16.412455"><ele>289.0</ele><time>2026-05-02T13:01:41.701Z</time></trkpt><trkpt lat="40.8066" lon="16.4121567"><ele>289.0</ele><time>2026-05-02T13:01:42.701Z</time></trkpt><trkpt lat="40.8066783" lon="16.4118583"><ele>289.5</ele><time>2026-05-02T13:01:43.702Z</time></trkpt><trkpt lat="40.8067587" lon="16.4115626"><ele>290.0</ele><time>2026-05-02T13:01:44.703Z</time></trkpt><trkpt lat="40.8068457" lon="16.4112692"><ele>289.0</ele><time>2026-05-02T13:01:45.701Z</time></trkpt><trkpt lat="40.8069445" lon="16.4109747"><ele>288.0</ele><time>2026-05-02T13:01:46.702Z</time></trkpt><trkpt lat="40.8070581" lon="16.410677"><ele>290.5</ele><time>2026-05-02T13:01:47.701Z</time></trkpt><trkpt lat="40.8071841" lon="16.4103809"><ele>293.0</ele><time>2026-05-02T13:01:48.701Z</time></trkpt><trkpt lat="40.8073234" lon="16.4100984"><ele>293.0</ele><time>2026-05-02T13:01:49.701Z</time></trkpt><trkpt lat="40.8074765" lon="16.4098301"><ele>293.0</ele><time>2026-05-02T13:01:50.702Z</time></trkpt><trkpt lat="40.8076401" lon="16.4095708"><ele>294.0</ele><time>2026-05-02T13:01:51.701Z</time></trkpt><trkpt lat="40.8078143" lon="16.4093218"><ele>295.0</ele><time>2026-05-02T13:01:52.703Z</time></trkpt><trkpt lat="40.8079999" lon="16.4090872"><ele>295.0</ele><time>2026-05-02T13:01:53.701Z</time></trkpt><trkpt lat="40.8081958" lon="16.4088688"><ele>295.0</ele><time>2026-05-02T13:01:54.701Z</time></trkpt><trkpt lat="40.808402" lon="16.4086652"><ele>296.0</ele><time>2026-05-02T13:01:55.701Z</time></trkpt><trkpt lat="40.808616" lon="16.4084737"><ele>297.0</ele><time>2026-05-02T13:01:56.703Z</time></trkpt><trkpt lat="40.8088348" lon="16.4082896"><ele>297.0</ele><time>2026-05-02T13:01:57.701Z</time></trkpt><trkpt lat="40.8090526" lon="16.4081078"><ele>297.0</ele><time>2026-05-02T13:01:58.703Z</time></trkpt><trkpt lat="40.8092663" lon="16.4079241"><ele>299.0</ele><time>2026-05-02T13:01:59.702Z</time></trkpt><trkpt lat="40.8094744" lon="16.4077375"><ele>301.0</ele><time>2026-05-02T13:02:00.703Z</time></trkpt><trkpt lat="40.8096755" lon="16.4075411"><ele>301.0</ele><time>2026-05-02T13:02:01.703Z</time></trkpt><trkpt lat="40.809871" lon="16.4073333"><ele>301.0</ele><time>2026-05-02T13:02:02.703Z</time></trkpt><trkpt lat="40.8100578" lon="16.4071096"><ele>302.0</ele><time>2026-05-02T13:02:03.703Z</time></trkpt><trkpt lat="40.8102376" lon="16.4068725"><ele>303.0</ele><time>2026-05-02T13:02:04.703Z</time></trkpt><trkpt lat="40.8104079" lon="16.4066247"><ele>303.0</ele><time>2026-05-02T13:02:05.702Z</time></trkpt><trkpt lat="40.8105652" lon="16.4063668"><ele>303.0</ele><time>2026-05-02T13:02:06.703Z</time></trkpt><trkpt lat="40.8107108" lon="16.4060985"><ele>308.5</ele><time>2026-05-02T13:02:07.702Z</time></trkpt><trkpt lat="40.8108457" lon="16.4058231"><ele>314.0</ele><time>2026-05-02T13:02:08.702Z</time></trkpt><trkpt lat="40.8109733" lon="16.4055443"><ele>311.5</ele><time>2026-05-02T13:02:09.703Z</time></trkpt><trkpt lat="40.8110908" lon="16.405257"><ele>309.0</ele><time>2026-05-02T13:02:10.703Z</time></trkpt><trkpt lat="40.8111942" lon="16.4049613"><ele>314.0</ele><time>2026-05-02T13:02:11.701Z</time></trkpt><trkpt lat="40.8112868" lon="16.4046559"><ele>319.0</ele><time>2026-05-02T13:02:12.701Z</time></trkpt><trkpt lat="40.8113671" lon="16.4043424"><ele>319.0</ele><time>2026-05-02T13:02:13.703Z</time></trkpt><trkpt lat="40.8114355" lon="16.4040244"><ele>319.0</ele><time>2026-05-02T13:02:14.702Z</time></trkpt><trkpt lat="40.8114918" lon="16.403704"><ele>320.5</ele><time>2026-05-02T13:02:15.702Z</time></trkpt><trkpt lat="40.8115376" lon="16.4033803"><ele>322.0</ele><time>2026-05-02T13:02:16.701Z</time></trkpt><trkpt lat="40.81157" lon="16.4030517"><ele>326.5</ele><time>2026-05-02T13:02:17.701Z</time></trkpt><trkpt lat="40.8115917" lon="16.4027233"><ele>331.0</ele><time>2026-05-02T13:02:18.701Z</time></trkpt><trkpt lat="40.8116" lon="16.402395"><ele>335.0</ele><time>2026-05-02T13:02:19.702Z</time></trkpt><trkpt lat="40.8115933" lon="16.4020717"><ele>339.0</ele><time>2026-05-02T13:02:20.701Z</time></trkpt><trkpt lat="40.8115767" lon="16.4017483"><ele>339.0</ele><time>2026-05-02T13:02:21.702Z</time></trkpt><trkpt lat="40.81155" lon="16.4014217"><ele>339.0</ele><time>2026-05-02T13:02:22.701Z</time></trkpt><trkpt lat="40.81152" lon="16.4010917"><ele>339.5</ele><time>2026-05-02T13:02:23.702Z</time></trkpt><trkpt lat="40.8114867" lon="16.4007567"><ele>340.0</ele><time>2026-05-02T13:02:24.701Z</time></trkpt><trkpt lat="40.8114517" lon="16.4004217"><ele>340.0</ele><time>2026-05-02T13:02:25.701Z</time></trkpt><trkpt lat="40.811415" lon="16.4000733"><ele>340.0</ele><time>2026-05-02T13:02:26.701Z</time></trkpt><trkpt lat="40.811385" lon="16.3997283"><ele>338.5</ele><time>2026-05-02T13:02:27.7Z</time></trkpt><trkpt lat="40.81136" lon="16.399375"><ele>337.0</ele><time>2026-05-02T13:02:28.702Z</time></trkpt><trkpt lat="40.811325" lon="16.3990233"><ele>335.5</ele><time>2026-05-02T13:02:29.701Z</time></trkpt><trkpt lat="40.81129" lon="16.3986683"><ele>334.0</ele><time>2026-05-02T13:02:30.702Z</time></trkpt><trkpt lat="40.8112533" lon="16.3983083"><ele>333.0</ele><time>2026-05-02T13:02:31.702Z</time></trkpt><trkpt lat="40.81122" lon="16.3979433"><ele>332.0</ele><time>2026-05-02T13:02:32.702Z</time></trkpt><trkpt lat="40.8111833" lon="16.3975783"><ele>332.0</ele><time>2026-05-02T13:02:33.702Z</time></trkpt><trkpt lat="40.811145" lon="16.39721"><ele>332.0</ele><time>2026-05-02T13:02:34.702Z</time></trkpt><trkpt lat="40.81111" lon="16.3968433"><ele>331.5</ele><time>2026-05-02T13:02:35.701Z</time></trkpt><trkpt lat="40.811075" lon="16.3964783"><ele>331.0</ele><time>2026-05-02T13:02:36.702Z</time></trkpt><trkpt lat="40.8110383" lon="16.3961183"><ele>330.0</ele><time>2026-05-02T13:02:37.701Z</time></trkpt><trkpt lat="40.811" lon="16.395755"><ele>329.0</ele><time>2026-05-02T13:02:38.702Z</time></trkpt><trkpt lat="40.8109617" lon="16.395395"><ele>326.0</ele><time>2026-05-02T13:02:39.702Z</time></trkpt><trkpt lat="40.8109267" lon="16.3950383"><ele>323.0</ele><time>2026-05-02T13:02:40.701Z</time></trkpt><trkpt lat="40.8108917" lon="16.394685"><ele>321.5</ele><time>2026-05-02T13:02:41.701Z</time></trkpt><trkpt lat="40.81086" lon="16.3943333"><ele>320.0</ele><time>2026-05-02T13:02:42.701Z</time></trkpt><trkpt lat="40.810825" lon="16.3939867"><ele>319.5</ele><time>2026-05-02T13:02:43.7Z</time></trkpt><trkpt lat="40.81079" lon="16.3936417"><ele>319.0</ele><time>2026-05-02T13:02:44.702Z</time></trkpt><trkpt lat="40.8107567" lon="16.3932967"><ele>318.0</ele><time>2026-05-02T13:02:45.702Z</time></trkpt><trkpt lat="40.810725" lon="16.392955"><ele>317.0</ele><time>2026-05-02T13:02:46.702Z</time></trkpt><trkpt lat="40.8106933" lon="16.392615"><ele>317.0</ele><time>2026-05-02T13:02:47.7Z</time></trkpt><trkpt lat="40.8106633" lon="16.392275"><ele>317.0</ele><time>2026-05-02T13:02:48.702Z</time></trkpt><trkpt lat="40.8106317" lon="16.3919367"><ele>317.0</ele><time>2026-05-02T13:02:49.702Z</time></trkpt><trkpt lat="40.8106" lon="16.3915983"><ele>317.0</ele><time>2026-05-02T13:02:50.702Z</time></trkpt><trkpt lat="40.8105667" lon="16.3912633"><ele>317.0</ele><time>2026-05-02T13:02:51.7Z</time></trkpt><trkpt lat="40.8105333" lon="16.39093"><ele>317.0</ele><time>2026-05-02T13:02:52.701Z</time></trkpt><trkpt lat="40.8104983" lon="16.3905967"><ele>317.0</ele><time>2026-05-02T13:02:53.701Z</time></trkpt><trkpt lat="40.810465" lon="16.3902667"><ele>317.0</ele><time>2026-05-02T13:02:54.702Z</time></trkpt><trkpt lat="40.810435" lon="16.3899333"><ele>316.5</ele><time>2026-05-02T13:02:55.701Z</time></trkpt><trkpt lat="40.810405" lon="16.3895983"><ele>316.0</ele><time>2026-05-02T13:02:56.701Z</time></trkpt><trkpt lat="40.8103717" lon="16.38926"><ele>316.0</ele><time>2026-05-02T13:02:57.702Z</time></trkpt><trkpt lat="40.81034" lon="16.3889217"><ele>316.0</ele><time>2026-05-02T13:02:58.701Z</time></trkpt><trkpt lat="40.8103067" lon="16.3885833"><ele>316.0</ele><time>2026-05-02T13:02:59.703Z</time></trkpt><trkpt lat="40.8102717" lon="16.3882417"><ele>316.0</ele><time>2026-05-02T13:03:00.702Z</time></trkpt><trkpt lat="40.8102367" lon="16.3879"><ele>316.0</ele><time>2026-05-02T13:03:01.704Z</time></trkpt><trkpt lat="40.8102033" lon="16.3875567"><ele>316.0</ele><time>2026-05-02T13:03:02.702Z</time></trkpt><trkpt lat="40.8101717" lon="16.387215"><ele>316.0</ele><time>2026-05-02T13:03:03.703Z</time></trkpt><trkpt lat="40.8101383" lon="16.386875"><ele>316.0</ele><time>2026-05-02T13:03:04.702Z</time></trkpt><trkpt lat="40.810105" lon="16.386535"><ele>315.5</ele><time>2026-05-02T13:03:05.703Z</time></trkpt><trkpt lat="40.8100717" lon="16.3861967"><ele>315.0</ele><time>2026-05-02T13:03:06.703Z</time></trkpt><trkpt lat="40.8100383" lon="16.3858583"><ele>315.0</ele><time>2026-05-02T13:03:07.703Z</time></trkpt><trkpt lat="40.810005" lon="16.3855183"><ele>315.0</ele><time>2026-05-02T13:03:08.703Z</time></trkpt><trkpt lat="40.8099733" lon="16.3851767"><ele>315.0</ele><time>2026-05-02T13:03:09.703Z</time></trkpt><trkpt lat="40.80994" lon="16.3848333"><ele>315.0</ele><time>2026-05-02T13:03:10.703Z</time></trkpt><trkpt lat="40.8099067" lon="16.3844917"><ele>315.5</ele><time>2026-05-02T13:03:11.702Z</time></trkpt><trkpt lat="40.8098733" lon="16.3841483"><ele>316.0</ele><time>2026-05-02T13:03:12.701Z</time></trkpt><trkpt lat="40.80984" lon="16.383805"><ele>317.0</ele><time>2026-05-02T13:03:13.702Z</time></trkpt><trkpt lat="40.8098067" lon="16.3834617"><ele>318.0</ele><time>2026-05-02T13:03:14.703Z</time></trkpt><trkpt lat="40.809775" lon="16.38312"><ele>318.0</ele><time>2026-05-02T13:03:15.701Z</time></trkpt><trkpt lat="40.8097433" lon="16.3827767"><ele>318.0</ele><time>2026-05-02T13:03:16.702Z</time></trkpt><trkpt lat="40.809715" lon="16.382435"><ele>318.0</ele><time>2026-05-02T13:03:17.702Z</time></trkpt><trkpt lat="40.8096883" lon="16.3820917"><ele>318.0</ele><time>2026-05-02T13:03:18.701Z</time></trkpt><trkpt lat="40.8096617" lon="16.3817483"><ele>318.0</ele><time>2026-05-02T13:03:19.702Z</time></trkpt><trkpt lat="40.8096367" lon="16.3814067"><ele>318.0</ele><time>2026-05-02T13:03:20.703Z</time></trkpt><trkpt lat="40.8096133" lon="16.381065"><ele>318.5</ele><time>2026-05-02T13:03:21.701Z</time></trkpt><trkpt lat="40.8095917" lon="16.3807233"><ele>319.0</ele><time>2026-05-02T13:03:22.708Z</time></trkpt><trkpt lat="40.8095683" lon="16.38038"><ele>320.0</ele><time>2026-05-02T13:03:23.703Z</time></trkpt><trkpt lat="40.8095467" lon="16.38004"><ele>321.0</ele><time>2026-05-02T13:03:24.701Z</time></trkpt><trkpt lat="40.8095233" lon="16.3796983"><ele>322.0</ele><time>2026-05-02T13:03:25.702Z</time></trkpt><trkpt lat="40.8095017" lon="16.3793567"><ele>323.0</ele><time>2026-05-02T13:03:26.702Z</time></trkpt><trkpt lat="40.8094783" lon="16.379015"><ele>323.0</ele><time>2026-05-02T13:03:27.701Z</time></trkpt><trkpt lat="40.8094567" lon="16.378675"><ele>323.0</ele><time>2026-05-02T13:03:28.701Z</time></trkpt><trkpt lat="40.809435" lon="16.378335"><ele>324.5</ele><time>2026-05-02T13:03:29.702Z</time></trkpt><trkpt lat="40.8094133" lon="16.377995"><ele>326.0</ele><time>2026-05-02T13:03:30.703Z</time></trkpt><trkpt lat="40.8093933" lon="16.3776583"><ele>326.0</ele><time>2026-05-02T13:03:31.701Z</time></trkpt><trkpt lat="40.8093733" lon="16.377325"><ele>326.0</ele><time>2026-05-02T13:03:32.703Z</time></trkpt><trkpt lat="40.8093517" lon="16.3769917"><ele>327.0</ele><time>2026-05-02T13:03:33.702Z</time></trkpt><trkpt lat="40.8093317" lon="16.3766633"><ele>328.0</ele><time>2026-05-02T13:03:34.701Z</time></trkpt><trkpt lat="40.8093117" lon="16.37634"><ele>332.0</ele><time>2026-05-02T13:03:35.701Z</time></trkpt><trkpt lat="40.8092917" lon="16.37602"><ele>336.0</ele><time>2026-05-02T13:03:36.703Z</time></trkpt><trkpt lat="40.8092717" lon="16.3757033"><ele>336.5</ele><time>2026-05-02T13:03:37.702Z</time></trkpt><trkpt lat="40.8092517" lon="16.3753867"><ele>337.0</ele><time>2026-05-02T13:03:38.702Z</time></trkpt><trkpt lat="40.80923" lon="16.37507"><ele>337.0</ele><time>2026-05-02T13:03:39.701Z</time></trkpt><trkpt lat="40.8092083" lon="16.3747417"><ele>337.0</ele><time>2026-05-02T13:03:40.701Z</time></trkpt><trkpt lat="40.8091867" lon="16.3744"><ele>337.5</ele><time>2026-05-02T13:03:41.7Z</time></trkpt><trkpt lat="40.8091633" lon="16.3740533"><ele>338.0</ele><time>2026-05-02T13:03:42.702Z</time></trkpt><trkpt lat="40.8091417" lon="16.37371"><ele>338.0</ele><time>2026-05-02T13:03:43.702Z</time></trkpt><trkpt lat="40.8091217" lon="16.37337"><ele>338.0</ele><time>2026-05-02T13:03:44.702Z</time></trkpt><trkpt lat="40.8090983" lon="16.3730283"><ele>339.0</ele><time>2026-05-02T13:03:45.702Z</time></trkpt><trkpt lat="40.809075" lon="16.3726867"><ele>340.0</ele><time>2026-05-02T13:03:46.703Z</time></trkpt><trkpt lat="40.8090517" lon="16.3723483"><ele>341.5</ele><time>2026-05-02T13:03:47.701Z</time></trkpt><trkpt lat="40.80903" lon="16.3720083"><ele>343.0</ele><time>2026-05-02T13:03:48.701Z</time></trkpt><trkpt lat="40.8090083" lon="16.3716717"><ele>343.5</ele><time>2026-05-02T13:03:49.701Z</time></trkpt><trkpt lat="40.8089867" lon="16.3713333"><ele>344.0</ele><time>2026-05-02T13:03:50.703Z</time></trkpt><trkpt lat="40.8089667" lon="16.370995"><ele>344.0</ele><time>2026-05-02T13:03:51.701Z</time></trkpt><trkpt lat="40.8089467" lon="16.3706583"><ele>344.0</ele><time>2026-05-02T13:03:52.702Z</time></trkpt><trkpt lat="40.80893" lon="16.37032"><ele>344.5</ele><time>2026-05-02T13:03:53.702Z</time></trkpt><trkpt lat="40.8089167" lon="16.3699883"><ele>345.0</ele><time>2026-05-02T13:03:54.702Z</time></trkpt><trkpt lat="40.8089033" lon="16.3696733"><ele>346.0</ele><time>2026-05-02T13:03:55.702Z</time></trkpt><trkpt lat="40.8088933" lon="16.369375"><ele>347.0</ele><time>2026-05-02T13:03:56.702Z</time></trkpt><trkpt lat="40.8088867" lon="16.3690767"><ele>347.0</ele><time>2026-05-02T13:03:57.702Z</time></trkpt><trkpt lat="40.80888" lon="16.3687633"><ele>347.0</ele><time>2026-05-02T13:03:58.703Z</time></trkpt><trkpt lat="40.808875" lon="16.3684367"><ele>347.0</ele><time>2026-05-02T13:03:59.702Z</time></trkpt><trkpt lat="40.8088817" lon="16.3680983"><ele>347.0</ele><time>2026-05-02T13:04:00.708Z</time></trkpt><trkpt lat="40.8088983" lon="16.3677567"><ele>348.0</ele><time>2026-05-02T13:04:01.703Z</time></trkpt><trkpt lat="40.80892" lon="16.3674117"><ele>349.0</ele><time>2026-05-02T13:04:02.701Z</time></trkpt><trkpt lat="40.8089383" lon="16.3670683"><ele>349.5</ele><time>2026-05-02T13:04:03.703Z</time></trkpt><trkpt lat="40.8089533" lon="16.3667217"><ele>350.0</ele><time>2026-05-02T13:04:04.701Z</time></trkpt><trkpt lat="40.808965" lon="16.3663783"><ele>351.0</ele><time>2026-05-02T13:04:05.703Z</time></trkpt><trkpt lat="40.8089733" lon="16.366035"><ele>352.0</ele><time>2026-05-02T13:04:06.702Z</time></trkpt><trkpt lat="40.808975" lon="16.3656933"><ele>352.5</ele><time>2026-05-02T13:04:07.704Z</time></trkpt><trkpt lat="40.80897" lon="16.3653533"><ele>353.0</ele><time>2026-05-02T13:04:08.702Z</time></trkpt><trkpt lat="40.8089567" lon="16.3650133"><ele>352.5</ele><time>2026-05-02T13:04:09.701Z</time></trkpt><trkpt lat="40.8089367" lon="16.3646733"><ele>352.0</ele><time>2026-05-02T13:04:10.701Z</time></trkpt><trkpt lat="40.80891" lon="16.3643317"><ele>352.0</ele><time>2026-05-02T13:04:11.701Z</time></trkpt><trkpt lat="40.808875" lon="16.3639933"><ele>352.0</ele><time>2026-05-02T13:04:12.702Z</time></trkpt><trkpt lat="40.80883" lon="16.3636617"><ele>352.0</ele><time>2026-05-02T13:04:13.701Z</time></trkpt><trkpt lat="40.8087783" lon="16.36333"><ele>352.0</ele><time>2026-05-02T13:04:14.702Z</time></trkpt><trkpt lat="40.8087183" lon="16.363"><ele>352.5</ele><time>2026-05-02T13:04:15.701Z</time></trkpt><trkpt lat="40.8086533" lon="16.3626717"><ele>353.0</ele><time>2026-05-02T13:04:16.701Z</time></trkpt><trkpt lat="40.8085833" lon="16.3623467"><ele>352.5</ele><time>2026-05-02T13:04:17.701Z</time></trkpt><trkpt lat="40.8085117" lon="16.3620183"><ele>352.0</ele><time>2026-05-02T13:04:18.7Z</time></trkpt><trkpt lat="40.8084417" lon="16.3616917"><ele>354.0</ele><time>2026-05-02T13:04:19.702Z</time></trkpt><trkpt lat="40.8083717" lon="16.3613633"><ele>356.0</ele><time>2026-05-02T13:04:20.701Z</time></trkpt><trkpt lat="40.8083033" lon="16.3610383"><ele>356.0</ele><time>2026-05-02T13:04:21.7Z</time></trkpt><trkpt lat="40.8082383" lon="16.3607167"><ele>356.0</ele><time>2026-05-02T13:04:22.7Z</time></trkpt><trkpt lat="40.80818" lon="16.3603883"><ele>356.0</ele><time>2026-05-02T13:04:23.702Z</time></trkpt><trkpt lat="40.8081283" lon="16.360065"><ele>356.0</ele><time>2026-05-02T13:04:24.703Z</time></trkpt><trkpt lat="40.8080867" lon="16.3597367"><ele>357.5</ele><time>2026-05-02T13:04:25.701Z</time></trkpt><trkpt lat="40.8080533" lon="16.3594033"><ele>359.0</ele><time>2026-05-02T13:04:26.703Z</time></trkpt><trkpt lat="40.8080267" lon="16.3590683"><ele>361.0</ele><time>2026-05-02T13:04:27.702Z</time></trkpt><trkpt lat="40.808015" lon="16.3587217"><ele>363.0</ele><time>2026-05-02T13:04:28.703Z</time></trkpt><trkpt lat="40.8080133" lon="16.35836"><ele>361.0</ele><time>2026-05-02T13:04:29.701Z</time></trkpt><trkpt lat="40.8080233" lon="16.3579983"><ele>359.0</ele><time>2026-05-02T13:04:30.701Z</time></trkpt><trkpt lat="40.8080333" lon="16.3576417"><ele>359.0</ele><time>2026-05-02T13:04:31.702Z</time></trkpt><trkpt lat="40.808015" lon="16.3573167"><ele>359.0</ele><time>2026-05-02T13:04:32.703Z</time></trkpt><trkpt lat="40.808015" lon="16.3569717"><ele>355.5</ele><time>2026-05-02T13:04:33.701Z</time></trkpt><trkpt lat="40.8080417" lon="16.3566133"><ele>352.0</ele><time>2026-05-02T13:04:34.701Z</time></trkpt><trkpt lat="40.8080783" lon="16.3562583"><ele>348.0</ele><time>2026-05-02T13:04:35.702Z</time></trkpt><trkpt lat="40.8081217" lon="16.3559083"><ele>344.0</ele><time>2026-05-02T13:04:36.701Z</time></trkpt><trkpt lat="40.8081667" lon="16.3555633"><ele>339.0</ele><time>2026-05-02T13:04:37.702Z</time></trkpt><trkpt lat="40.8082067" lon="16.35522"><ele>334.0</ele><time>2026-05-02T13:04:38.702Z</time></trkpt><trkpt lat="40.8082467" lon="16.35488"><ele>329.0</ele><time>2026-05-02T13:04:39.702Z</time></trkpt><trkpt lat="40.8082883" lon="16.354535"><ele>324.0</ele><time>2026-05-02T13:04:40.702Z</time></trkpt><trkpt lat="40.80833" lon="16.354195"><ele>321.5</ele><time>2026-05-02T13:04:41.704Z</time></trkpt><trkpt lat="40.8083683" lon="16.353855"><ele>319.0</ele><time>2026-05-02T13:04:42.702Z</time></trkpt><trkpt lat="40.8083983" lon="16.3535117"><ele>319.0</ele><time>2026-05-02T13:04:43.701Z</time></trkpt><trkpt lat="40.8084167" lon="16.353165"><ele>319.0</ele><time>2026-05-02T13:04:44.702Z</time></trkpt><trkpt lat="40.8084267" lon="16.3528133"><ele>316.0</ele><time>2026-05-02T13:04:45.701Z</time></trkpt><trkpt lat="40.8084283" lon="16.3524583"><ele>313.0</ele><time>2026-05-02T13:04:46.701Z</time></trkpt><trkpt lat="40.8084217" lon="16.3521017"><ele>313.0</ele><time>2026-05-02T13:04:47.702Z</time></trkpt><trkpt lat="40.8084083" lon="16.351745"><ele>313.0</ele><time>2026-05-02T13:04:48.703Z</time></trkpt><trkpt lat="40.8083867" lon="16.3513883"><ele>312.5</ele><time>2026-05-02T13:04:49.702Z</time></trkpt><trkpt lat="40.8083567" lon="16.35103"><ele>312.0</ele><time>2026-05-02T13:04:50.702Z</time></trkpt><trkpt lat="40.8083183" lon="16.350675"><ele>313.0</ele><time>2026-05-02T13:04:51.701Z</time></trkpt><trkpt lat="40.80827" lon="16.350325"><ele>314.0</ele><time>2026-05-02T13:04:52.708Z</time></trkpt><trkpt lat="40.8082133" lon="16.3499783"><ele>315.5</ele><time>2026-05-02T13:04:53.702Z</time></trkpt><trkpt lat="40.8081467" lon="16.3496317"><ele>317.0</ele><time>2026-05-02T13:04:54.702Z</time></trkpt><trkpt lat="40.8080733" lon="16.349285"><ele>317.0</ele><time>2026-05-02T13:04:55.701Z</time></trkpt><trkpt lat="40.8079917" lon="16.34894"><ele>317.0</ele><time>2026-05-02T13:04:56.703Z</time></trkpt><trkpt lat="40.807905" lon="16.3485983"><ele>316.0</ele><time>2026-05-02T13:04:57.701Z</time></trkpt><trkpt lat="40.8078117" lon="16.348265"><ele>315.0</ele><time>2026-05-02T13:04:58.702Z</time></trkpt><trkpt lat="40.8077133" lon="16.3479383"><ele>305.5</ele><time>2026-05-02T13:04:59.701Z</time></trkpt><trkpt lat="40.807605" lon="16.3476167"><ele>296.0</ele><time>2026-05-02T13:05:00.703Z</time></trkpt><trkpt lat="40.8074867" lon="16.3473017"><ele>295.0</ele><time>2026-05-02T13:05:01.701Z</time></trkpt><trkpt lat="40.807365" lon="16.3469883"><ele>294.0</ele><time>2026-05-02T13:05:02.701Z</time></trkpt><trkpt lat="40.80724" lon="16.3466817"><ele>294.0</ele><time>2026-05-02T13:05:03.701Z</time></trkpt><trkpt lat="40.8071067" lon="16.3463833"><ele>294.0</ele><time>2026-05-02T13:05:04.702Z</time></trkpt><trkpt lat="40.8069583" lon="16.346085"><ele>292.5</ele><time>2026-05-02T13:05:05.7Z</time></trkpt><trkpt lat="40.8068017" lon="16.3457883"><ele>291.0</ele><time>2026-05-02T13:05:06.701Z</time></trkpt><trkpt lat="40.8066417" lon="16.3454983"><ele>291.0</ele><time>2026-05-02T13:05:07.701Z</time></trkpt><trkpt lat="40.8064767" lon="16.34521"><ele>291.0</ele><time>2026-05-02T13:05:08.702Z</time></trkpt><trkpt lat="40.806305" lon="16.3449267"><ele>294.5</ele><time>2026-05-02T13:05:09.702Z</time></trkpt><trkpt lat="40.8061267" lon="16.3446517"><ele>298.0</ele><time>2026-05-02T13:05:10.702Z</time></trkpt><trkpt lat="40.80594" lon="16.344385"><ele>293.0</ele><time>2026-05-02T13:05:11.701Z</time></trkpt><trkpt lat="40.8057483" lon="16.3441283"><ele>288.0</ele><time>2026-05-02T13:05:12.7Z</time></trkpt><trkpt lat="40.8055483" lon="16.3438783"><ele>288.0</ele><time>2026-05-02T13:05:13.7Z</time></trkpt><trkpt lat="40.8053467" lon="16.3436367"><ele>288.0</ele><time>2026-05-02T13:05:14.703Z</time></trkpt><trkpt lat="40.8051383" lon="16.3434017"><ele>290.0</ele><time>2026-05-02T13:05:15.701Z</time></trkpt><trkpt lat="40.8049233" lon="16.3431783"><ele>292.0</ele><time>2026-05-02T13:05:16.701Z</time></trkpt><trkpt lat="40.8047033" lon="16.34296"><ele>292.0</ele><time>2026-05-02T13:05:17.702Z</time></trkpt><trkpt lat="40.80448" lon="16.3427417"><ele>292.0</ele><time>2026-05-02T13:05:18.702Z</time></trkpt><trkpt lat="40.8042533" lon="16.3425217"><ele>293.5</ele><time>2026-05-02T13:05:19.703Z</time></trkpt><trkpt lat="40.8040317" lon="16.3423"><ele>295.0</ele><time>2026-05-02T13:05:20.702Z</time></trkpt><trkpt lat="40.8038117" lon="16.3420767"><ele>295.0</ele><time>2026-05-02T13:05:21.703Z</time></trkpt><trkpt lat="40.8036" lon="16.34185"><ele>295.0</ele><time>2026-05-02T13:05:22.702Z</time></trkpt><trkpt lat="40.8034" lon="16.3416167"><ele>290.5</ele><time>2026-05-02T13:05:23.702Z</time></trkpt><trkpt lat="40.80321" lon="16.3413767"><ele>286.0</ele><time>2026-05-02T13:05:24.702Z</time></trkpt><trkpt lat="40.8030283" lon="16.34113"><ele>286.0</ele><time>2026-05-02T13:05:25.702Z</time></trkpt><trkpt lat="40.8028583" lon="16.3408733"><ele>286.0</ele><time>2026-05-02T13:05:26.702Z</time></trkpt><trkpt lat="40.8026983" lon="16.3406117"><ele>284.0</ele><time>2026-05-02T13:05:27.701Z</time></trkpt><trkpt lat="40.8025467" lon="16.3403433"><ele>282.0</ele><time>2026-05-02T13:05:28.701Z</time></trkpt><trkpt lat="40.8023967" lon="16.340065"><ele>282.0</ele><time>2026-05-02T13:05:29.7Z</time></trkpt><trkpt lat="40.8022483" lon="16.3397783"><ele>282.0</ele><time>2026-05-02T13:05:30.701Z</time></trkpt><trkpt lat="40.8021" lon="16.3394883"><ele>284.5</ele><time>2026-05-02T13:05:31.7Z</time></trkpt><trkpt lat="40.8019483" lon="16.3392"><ele>287.0</ele><time>2026-05-02T13:05:32.703Z</time></trkpt><trkpt lat="40.80179" lon="16.3389167"><ele>280.0</ele><time>2026-05-02T13:05:33.702Z</time></trkpt><trkpt lat="40.8016317" lon="16.33864"><ele>273.0</ele><time>2026-05-02T13:05:34.701Z</time></trkpt><trkpt lat="40.8014667" lon="16.338365"><ele>273.0</ele><time>2026-05-02T13:05:35.703Z</time></trkpt><trkpt lat="40.8012983" lon="16.3380983"><ele>273.0</ele><time>2026-05-02T13:05:36.701Z</time></trkpt><trkpt lat="40.80112" lon="16.33784"><ele>269.5</ele><time>2026-05-02T13:05:37.701Z</time></trkpt><trkpt lat="40.8009333" lon="16.3375917"><ele>266.0</ele><time>2026-05-02T13:05:38.703Z</time></trkpt><trkpt lat="40.8007433" lon="16.33735"><ele>269.0</ele><time>2026-05-02T13:05:39.701Z</time></trkpt><trkpt lat="40.80055" lon="16.337115"><ele>272.0</ele><time>2026-05-02T13:05:40.702Z</time></trkpt><trkpt lat="40.8003483" lon="16.3368867"><ele>269.0</ele><time>2026-05-02T13:05:41.701Z</time></trkpt><trkpt lat="40.8001433" lon="16.336665"><ele>266.0</ele><time>2026-05-02T13:05:42.703Z</time></trkpt><trkpt lat="40.79993" lon="16.3364483"><ele>269.5</ele><time>2026-05-02T13:05:43.703Z</time></trkpt><trkpt lat="40.7997117" lon="16.3362417"><ele>273.0</ele><time>2026-05-02T13:05:44.701Z</time></trkpt><trkpt lat="40.7994933" lon="16.3360433"><ele>267.5</ele><time>2026-05-02T13:05:45.702Z</time></trkpt><trkpt lat="40.7992667" lon="16.3358517"><ele>262.0</ele><time>2026-05-02T13:05:46.701Z</time></trkpt><trkpt lat="40.799035" lon="16.33567"><ele>265.0</ele><time>2026-05-02T13:05:47.703Z</time></trkpt><trkpt lat="40.7988" lon="16.335495"><ele>268.0</ele><time>2026-05-02T13:05:48.701Z</time></trkpt><trkpt lat="40.7985617" lon="16.33533"><ele>263.5</ele><time>2026-05-02T13:05:49.703Z</time></trkpt><trkpt lat="40.7983167" lon="16.335175"><ele>259.0</ele><time>2026-05-02T13:05:50.703Z</time></trkpt><trkpt lat="40.7980683" lon="16.33503"><ele>259.0</ele><time>2026-05-02T13:05:51.703Z</time></trkpt><trkpt lat="40.79782" lon="16.3348967"><ele>259.0</ele><time>2026-05-02T13:05:52.703Z</time></trkpt><trkpt lat="40.79757" lon="16.3347717"><ele>260.5</ele><time>2026-05-02T13:05:53.703Z</time></trkpt><trkpt lat="40.7973183" lon="16.334655"><ele>262.0</ele><time>2026-05-02T13:05:54.702Z</time></trkpt><trkpt lat="40.797065" lon="16.33454"><ele>260.0</ele><time>2026-05-02T13:05:55.7Z</time></trkpt><trkpt lat="40.796815" lon="16.33442"><ele>258.0</ele><time>2026-05-02T13:05:56.702Z</time></trkpt><trkpt lat="40.7965667" lon="16.334295"><ele>258.0</ele><time>2026-05-02T13:05:57.702Z</time></trkpt><trkpt lat="40.7963217" lon="16.3341633"><ele>258.0</ele><time>2026-05-02T13:05:58.701Z</time></trkpt><trkpt lat="40.796085" lon="16.33402"><ele>259.0</ele><time>2026-05-02T13:05:59.701Z</time></trkpt><trkpt lat="40.7958533" lon="16.3338567"><ele>260.0</ele><time>2026-05-02T13:06:00.7Z</time></trkpt><trkpt lat="40.795625" lon="16.333675"><ele>260.0</ele><time>2026-05-02T13:06:01.703Z</time></trkpt><trkpt lat="40.7954033" lon="16.333475"><ele>260.0</ele><time>2026-05-02T13:06:02.703Z</time></trkpt><trkpt lat="40.7951883" lon="16.3332617"><ele>255.0</ele><time>2026-05-02T13:06:03.701Z</time></trkpt><trkpt lat="40.794985" lon="16.3330317"><ele>250.0</ele><time>2026-05-02T13:06:04.703Z</time></trkpt><trkpt lat="40.7947883" lon="16.3327917"><ele>250.0</ele><time>2026-05-02T13:06:05.702Z</time></trkpt><trkpt lat="40.7945933" lon="16.332545"><ele>250.0</ele><time>2026-05-02T13:06:06.701Z</time></trkpt><trkpt lat="40.7943933" lon="16.3323"><ele>246.5</ele><time>2026-05-02T13:06:07.701Z</time></trkpt><trkpt lat="40.794195" lon="16.3320583"><ele>243.0</ele><time>2026-05-02T13:06:08.708Z</time></trkpt><trkpt lat="40.793995" lon="16.331825"><ele>243.0</ele><time>2026-05-02T13:06:09.701Z</time></trkpt><trkpt lat="40.7937867" lon="16.331605"><ele>243.0</ele><time>2026-05-02T13:06:10.702Z</time></trkpt><trkpt lat="40.7935717" lon="16.3313967"><ele>242.0</ele><time>2026-05-02T13:06:11.702Z</time></trkpt><trkpt lat="40.7933517" lon="16.3312017"><ele>241.0</ele><time>2026-05-02T13:06:12.702Z</time></trkpt><trkpt lat="40.7931267" lon="16.3310167"><ele>241.0</ele><time>2026-05-02T13:06:13.7Z</time></trkpt><trkpt lat="40.7928933" lon="16.330845"><ele>241.0</ele><time>2026-05-02T13:06:14.702Z</time></trkpt><trkpt lat="40.792655" lon="16.330685"><ele>243.5</ele><time>2026-05-02T13:06:15.702Z</time></trkpt><trkpt lat="40.7924167" lon="16.33053"><ele>246.0</ele><time>2026-05-02T13:06:16.701Z</time></trkpt><trkpt lat="40.792175" lon="16.3303783"><ele>246.0</ele><time>2026-05-02T13:06:17.702Z</time></trkpt><trkpt lat="40.791935" lon="16.3302267"><ele>246.0</ele><time>2026-05-02T13:06:18.703Z</time></trkpt><trkpt lat="40.7916967" lon="16.330075"><ele>244.0</ele><time>2026-05-02T13:06:19.702Z</time></trkpt><trkpt lat="40.7914583" lon="16.3299217"><ele>242.0</ele><time>2026-05-02T13:06:20.702Z</time></trkpt><trkpt lat="40.79122" lon="16.3297633"><ele>242.0</ele><time>2026-05-02T13:06:21.701Z</time></trkpt><trkpt lat="40.7909883" lon="16.3295933"><ele>242.0</ele><time>2026-05-02T13:06:22.701Z</time></trkpt><trkpt lat="40.7907583" lon="16.3294117"><ele>242.0</ele><time>2026-05-02T13:06:23.701Z</time></trkpt><trkpt lat="40.7905383" lon="16.3292167"><ele>242.0</ele><time>2026-05-02T13:06:24.701Z</time></trkpt><trkpt lat="40.790325" lon="16.32901"><ele>238.5</ele><time>2026-05-02T13:06:25.703Z</time></trkpt><trkpt lat="40.7901167" lon="16.3287933"><ele>235.0</ele><time>2026-05-02T13:06:26.701Z</time></trkpt><trkpt lat="40.7899167" lon="16.328565"><ele>235.0</ele><time>2026-05-02T13:06:27.704Z</time></trkpt><trkpt lat="40.789725" lon="16.3283283"><ele>235.0</ele><time>2026-05-02T13:06:28.701Z</time></trkpt><trkpt lat="40.78954" lon="16.3280833"><ele>233.5</ele><time>2026-05-02T13:06:29.701Z</time></trkpt><trkpt lat="40.789365" lon="16.32783"><ele>232.0</ele><time>2026-05-02T13:06:30.701Z</time></trkpt><trkpt lat="40.7891983" lon="16.32757"><ele>232.0</ele><time>2026-05-02T13:06:31.7Z</time></trkpt><trkpt lat="40.78904" lon="16.3273033"><ele>232.0</ele><time>2026-05-02T13:06:32.703Z</time></trkpt><trkpt lat="40.7888917" lon="16.3270283"><ele>234.5</ele><time>2026-05-02T13:06:33.701Z</time></trkpt><trkpt lat="40.7887517" lon="16.32675"><ele>237.0</ele><time>2026-05-02T13:06:34.703Z</time></trkpt><trkpt lat="40.78862" lon="16.3264667"><ele>238.5</ele><time>2026-05-02T13:06:35.702Z</time></trkpt><trkpt lat="40.7884983" lon="16.32618"><ele>240.0</ele><time>2026-05-02T13:06:36.702Z</time></trkpt><trkpt lat="40.7883817" lon="16.32589"><ele>240.0</ele><time>2026-05-02T13:06:37.704Z</time></trkpt><trkpt lat="40.78827" lon="16.3256017"><ele>240.0</ele><time>2026-05-02T13:06:38.703Z</time></trkpt><trkpt lat="40.7881567" lon="16.3253133"><ele>240.5</ele><time>2026-05-02T13:06:39.703Z</time></trkpt><trkpt lat="40.788045" lon="16.3250267"><ele>241.0</ele><time>2026-05-02T13:06:40.703Z</time></trkpt><trkpt lat="40.7879333" lon="16.32474"><ele>242.5</ele><time>2026-05-02T13:06:41.701Z</time></trkpt><trkpt lat="40.7878167" lon="16.3244583"><ele>244.0</ele><time>2026-05-02T13:06:42.701Z</time></trkpt><trkpt lat="40.7876917" lon="16.3241883"><ele>242.0</ele><time>2026-05-02T13:06:43.701Z</time></trkpt><trkpt lat="40.7875517" lon="16.3239283"><ele>240.0</ele><time>2026-05-02T13:06:44.701Z</time></trkpt><trkpt lat="40.7873983" lon="16.323675"><ele>240.0</ele><time>2026-05-02T13:06:45.701Z</time></trkpt><trkpt lat="40.7872317" lon="16.3234333"><ele>240.0</ele><time>2026-05-02T13:06:46.702Z</time></trkpt><trkpt lat="40.787055" lon="16.323205"><ele>240.5</ele><time>2026-05-02T13:06:47.701Z</time></trkpt><trkpt lat="40.786865" lon="16.3229883"><ele>241.0</ele><time>2026-05-02T13:06:48.702Z</time></trkpt><trkpt lat="40.7866673" lon="16.3227821"><ele>241.0</ele><time>2026-05-02T13:06:49.701Z</time></trkpt><trkpt lat="40.786461" lon="16.3225922"><ele>241.0</ele><time>2026-05-02T13:06:50.703Z</time></trkpt><trkpt lat="40.7862463" lon="16.3224135"><ele>241.0</ele><time>2026-05-02T13:06:51.701Z</time></trkpt><trkpt lat="40.7860241" lon="16.3222381"><ele>241.0</ele><time>2026-05-02T13:06:52.702Z</time></trkpt><trkpt lat="40.7858027" lon="16.3220729"><ele>241.0</ele><time>2026-05-02T13:06:53.702Z</time></trkpt><trkpt lat="40.785591" lon="16.3219247"><ele>241.0</ele><time>2026-05-02T13:06:54.701Z</time></trkpt><trkpt lat="40.7853873" lon="16.3217807"><ele>241.0</ele><time>2026-05-02T13:06:55.702Z</time></trkpt><trkpt lat="40.7851939" lon="16.3216282"><ele>241.0</ele><time>2026-05-02T13:06:56.701Z</time></trkpt><trkpt lat="40.7850127" lon="16.3214586"><ele>241.0</ele><time>2026-05-02T13:06:57.702Z</time></trkpt><trkpt lat="40.7848439" lon="16.3212669"><ele>239.0</ele><time>2026-05-02T13:06:58.703Z</time></trkpt><trkpt lat="40.7846861" lon="16.3210551"><ele>237.0</ele><time>2026-05-02T13:06:59.702Z</time></trkpt><trkpt lat="40.7845475" lon="16.3208274"><ele>235.0</ele><time>2026-05-02T13:07:00.7Z</time></trkpt><trkpt lat="40.7844314" lon="16.3205889"><ele>233.33333333333331</ele><time>2026-05-02T13:07:01.701Z</time></trkpt><trkpt lat="40.7843298" lon="16.3203377"><ele>231.66666666666669</ele><time>2026-05-02T13:07:02.702Z</time></trkpt><trkpt lat="40.7842423" lon="16.3200729"><ele>230.0</ele><time>2026-05-02T13:07:03.701Z</time></trkpt><trkpt lat="40.7841677" lon="16.3197948"><ele>230.5</ele><time>2026-05-02T13:07:04.702Z</time></trkpt><trkpt lat="40.7841098" lon="16.319506"><ele>231.0</ele><time>2026-05-02T13:07:05.703Z</time></trkpt><trkpt lat="40.7840699" lon="16.3192096"><ele>231.0</ele><time>2026-05-02T13:07:06.7Z</time></trkpt><trkpt lat="40.7840509" lon="16.3189102"><ele>231.0</ele><time>2026-05-02T13:07:07.702Z</time></trkpt><trkpt lat="40.7840522" lon="16.3186091"><ele>228.5</ele><time>2026-05-02T13:07:08.702Z</time></trkpt><trkpt lat="40.7840714" lon="16.3183061"><ele>226.0</ele><time>2026-05-02T13:07:09.701Z</time></trkpt><trkpt lat="40.7841054" lon="16.3180033"><ele>223.5</ele><time>2026-05-02T13:07:10.702Z</time></trkpt><trkpt lat="40.7841557" lon="16.3177009"><ele>221.0</ele><time>2026-05-02T13:07:11.701Z</time></trkpt><trkpt lat="40.7842257" lon="16.3174004"><ele>219.5</ele><time>2026-05-02T13:07:12.702Z</time></trkpt><trkpt lat="40.7843046" lon="16.3170974"><ele>218.0</ele><time>2026-05-02T13:07:13.702Z</time></trkpt><trkpt lat="40.7843822" lon="16.3167914"><ele>215.0</ele><time>2026-05-02T13:07:14.701Z</time></trkpt><trkpt lat="40.784456" lon="16.3164789"><ele>212.0</ele><time>2026-05-02T13:07:15.701Z</time></trkpt><trkpt lat="40.7845307" lon="16.316165"><ele>211.5</ele><time>2026-05-02T13:07:16.701Z</time></trkpt><trkpt lat="40.7846057" lon="16.3158538"><ele>211.0</ele><time>2026-05-02T13:07:17.701Z</time></trkpt><trkpt lat="40.7846793" lon="16.3155439"><ele>209.0</ele><time>2026-05-02T13:07:18.702Z</time></trkpt><trkpt lat="40.784754" lon="16.3152314"><ele>207.0</ele><time>2026-05-02T13:07:19.701Z</time></trkpt><trkpt lat="40.7848292" lon="16.3149134"><ele>204.5</ele><time>2026-05-02T13:07:20.702Z</time></trkpt><trkpt lat="40.7849045" lon="16.3145931"><ele>202.0</ele><time>2026-05-02T13:07:21.701Z</time></trkpt><trkpt lat="40.784981" lon="16.3142726"><ele>202.0</ele><time>2026-05-02T13:07:22.702Z</time></trkpt><trkpt lat="40.7850576" lon="16.3139513"><ele>202.0</ele><time>2026-05-02T13:07:23.7Z</time></trkpt><trkpt lat="40.785133" lon="16.3136309"><ele>202.0</ele><time>2026-05-02T13:07:24.702Z</time></trkpt><trkpt lat="40.7852079" lon="16.3133112"><ele>202.0</ele><time>2026-05-02T13:07:25.702Z</time></trkpt><trkpt lat="40.7852794" lon="16.3129909"><ele>202.0</ele><time>2026-05-02T13:07:26.703Z</time></trkpt><trkpt lat="40.7853449" lon="16.3126706"><ele>202.0</ele><time>2026-05-02T13:07:27.702Z</time></trkpt><trkpt lat="40.7854017" lon="16.3123477"><ele>202.0</ele><time>2026-05-02T13:07:28.701Z</time></trkpt><trkpt lat="40.7854487" lon="16.3120229"><ele>202.0</ele><time>2026-05-02T13:07:29.701Z</time></trkpt><trkpt lat="40.7854884" lon="16.3116964"><ele>200.5</ele><time>2026-05-02T13:07:30.702Z</time></trkpt><trkpt lat="40.7855233" lon="16.3113683"><ele>199.0</ele><time>2026-05-02T13:07:31.702Z</time></trkpt><trkpt lat="40.7855534" lon="16.3110396"><ele>199.0</ele><time>2026-05-02T13:07:32.705Z</time></trkpt><trkpt lat="40.7855762" lon="16.3107105"><ele>199.0</ele><time>2026-05-02T13:07:33.701Z</time></trkpt><trkpt lat="40.7855899" lon="16.3103771"><ele>199.5</ele><time>2026-05-02T13:07:34.701Z</time></trkpt><trkpt lat="40.785595" lon="16.3100405"><ele>200.0</ele><time>2026-05-02T13:07:35.701Z</time></trkpt><trkpt lat="40.7855938" lon="16.3097008"><ele>199.0</ele><time>2026-05-02T13:07:36.702Z</time></trkpt><trkpt lat="40.7855913" lon="16.3093604"><ele>198.0</ele><time>2026-05-02T13:07:37.702Z</time></trkpt><trkpt lat="40.7855914" lon="16.3090188"><ele>199.0</ele><time>2026-05-02T13:07:38.702Z</time></trkpt><trkpt lat="40.7855905" lon="16.3086785"><ele>200.0</ele><time>2026-05-02T13:07:39.702Z</time></trkpt><trkpt lat="40.7855912" lon="16.3083396"><ele>199.5</ele><time>2026-05-02T13:07:40.702Z</time></trkpt><trkpt lat="40.7855892" lon="16.3080041"><ele>199.0</ele><time>2026-05-02T13:07:41.701Z</time></trkpt><trkpt lat="40.7855898" lon="16.3076711"><ele>199.0</ele><time>2026-05-02T13:07:42.701Z</time></trkpt><trkpt lat="40.7855899" lon="16.307341"><ele>199.0</ele><time>2026-05-02T13:07:43.701Z</time></trkpt><trkpt lat="40.7855888" lon="16.3070084"><ele>199.5</ele><time>2026-05-02T13:07:44.702Z</time></trkpt><trkpt lat="40.7855884" lon="16.3066748"><ele>200.0</ele><time>2026-05-02T13:07:45.701Z</time></trkpt><trkpt lat="40.7855883" lon="16.3063381"><ele>200.0</ele><time>2026-05-02T13:07:46.701Z</time></trkpt><trkpt lat="40.7855884" lon="16.3060003"><ele>200.0</ele><time>2026-05-02T13:07:47.701Z</time></trkpt><trkpt lat="40.7855895" lon="16.3056619"><ele>200.0</ele><time>2026-05-02T13:07:48.701Z</time></trkpt><trkpt lat="40.7855898" lon="16.3053248"><ele>200.0</ele><time>2026-05-02T13:07:49.702Z</time></trkpt><trkpt lat="40.7855886" lon="16.304988"><ele>200.0</ele><time>2026-05-02T13:07:50.701Z</time></trkpt><trkpt lat="40.7855861" lon="16.3046515"><ele>200.0</ele><time>2026-05-02T13:07:51.702Z</time></trkpt><trkpt lat="40.7855828" lon="16.3043164"><ele>200.0</ele><time>2026-05-02T13:07:52.701Z</time></trkpt><trkpt lat="40.7855796" lon="16.3039828"><ele>200.0</ele><time>2026-05-02T13:07:53.701Z</time></trkpt><trkpt lat="40.7855786" lon="16.3036523"><ele>200.0</ele><time>2026-05-02T13:07:54.702Z</time></trkpt><trkpt lat="40.7855772" lon="16.3033257"><ele>200.0</ele><time>2026-05-02T13:07:55.701Z</time></trkpt><trkpt lat="40.7855767" lon="16.303005"><ele>200.0</ele><time>2026-05-02T13:07:56.703Z</time></trkpt><trkpt lat="40.7855767" lon="16.3026867"><ele>200.0</ele><time>2026-05-02T13:07:57.702Z</time></trkpt><trkpt lat="40.7855783" lon="16.3023717"><ele>200.0</ele><time>2026-05-02T13:07:58.702Z</time></trkpt><trkpt lat="40.7855767" lon="16.3020583"><ele>200.0</ele><time>2026-05-02T13:07:59.701Z</time></trkpt><trkpt lat="40.785575" lon="16.301745"><ele>200.0</ele><time>2026-05-02T13:08:00.702Z</time></trkpt><trkpt lat="40.785575" lon="16.301425"><ele>200.0</ele><time>2026-05-02T13:08:01.701Z</time></trkpt><trkpt lat="40.7855733" lon="16.3010917"><ele>200.5</ele><time>2026-05-02T13:08:02.702Z</time></trkpt><trkpt lat="40.7855767" lon="16.30075"><ele>201.0</ele><time>2026-05-02T13:08:03.703Z</time></trkpt><trkpt lat="40.785585" lon="16.30041"><ele>202.0</ele><time>2026-05-02T13:08:04.702Z</time></trkpt><trkpt lat="40.7856017" lon="16.3000717"><ele>203.0</ele><time>2026-05-02T13:08:05.701Z</time></trkpt><trkpt lat="40.7856333" lon="16.2997417"><ele>204.0</ele><time>2026-05-02T13:08:06.702Z</time></trkpt><trkpt lat="40.785685" lon="16.2994167"><ele>205.0</ele><time>2026-05-02T13:08:07.703Z</time></trkpt><trkpt lat="40.7857533" lon="16.299095"><ele>206.0</ele><time>2026-05-02T13:08:08.701Z</time></trkpt><trkpt lat="40.78584" lon="16.29878"><ele>207.0</ele><time>2026-05-02T13:08:09.701Z</time></trkpt><trkpt lat="40.7859433" lon="16.2984733"><ele>204.5</ele><time>2026-05-02T13:08:10.701Z</time></trkpt><trkpt lat="40.786065" lon="16.2981767"><ele>202.0</ele><time>2026-05-02T13:08:11.7Z</time></trkpt><trkpt lat="40.7855892" lon="16.3080041"><ele>200.5</ele><time>2026-05-02T13:07:41.701Z</time></trkpt><trkpt lat="40.7855898" lon="16.3076711"><ele>199.0</ele><time>2026-05-02T13:07:42.701Z</time></trkpt><trkpt lat="40.7855899" lon="16.307341"><ele>199.5</ele><time>2026-05-02T13:07:43.701Z</time></trkpt><trkpt lat="40.7855888" lon="16.3070084"><ele>200.0</ele><time>2026-05-02T13:07:44.702Z</time></trkpt><trkpt lat="40.7855884" lon="16.3066748"><ele>200.0</ele><time>2026-05-02T13:07:45.701Z</time></trkpt><trkpt lat="40.7855883" lon="16.3063381"><ele>200.0</ele><time>2026-05-02T13:07:46.701Z</time></trkpt><trkpt lat="40.7855884" lon="16.3060003"><ele>200.0</ele><time>2026-05-02T13:07:47.701Z</time></trkpt><trkpt lat="40.7855895" lon="16.3056619"><ele>200.0</ele><time>2026-05-02T13:07:48.701Z</time></trkpt><trkpt lat="40.7855898" lon="16.3053248"><ele>200.0</ele><time>2026-05-02T13:07:49.702Z</time></trkpt><trkpt lat="40.7855886" lon="16.304988"><ele>200.0</ele><time>2026-05-02T13:07:50.701Z</time></trkpt><trkpt lat="40.7855861" lon="16.3046515"><ele>200.0</ele><time>2026-05-02T13:07:51.702Z</time></trkpt><trkpt lat="40.7855828" lon="16.3043164"><ele>200.0</ele><time>2026-05-02T13:07:52.701Z</time></trkpt><trkpt lat="40.7855796" lon="16.3039828"><ele>200.0</ele><time>2026-05-02T13:07:53.701Z</time></trkpt><trkpt lat="40.7855786" lon="16.3036523"><ele>200.0</ele><time>2026-05-02T13:07:54.702Z</time></trkpt><trkpt lat="40.7855772" lon="16.3033257"><ele>200.0</ele><time>2026-05-02T13:07:55.701Z</time></trkpt><trkpt lat="40.7855767" lon="16.303005"><ele>200.0</ele><time>2026-05-02T13:07:56.703Z</time></trkpt><trkpt lat="40.7855767" lon="16.3026867"><ele>200.0</ele><time>2026-05-02T13:07:57.702Z</time></trkpt><trkpt lat="40.7855783" lon="16.3023717"><ele>200.0</ele><time>2026-05-02T13:07:58.702Z</time></trkpt><trkpt lat="40.7855767" lon="16.3020583"><ele>200.0</ele><time>2026-05-02T13:07:59.701Z</time></trkpt><trkpt lat="40.785575" lon="16.301745"><ele>200.0</ele><time>2026-05-02T13:08:00.702Z</time></trkpt><trkpt lat="40.785575" lon="16.301425"><ele>200.5</ele><time>2026-05-02T13:08:01.701Z</time></trkpt><trkpt lat="40.7855733" lon="16.3010917"><ele>201.0</ele><time>2026-05-02T13:08:02.702Z</time></trkpt><trkpt lat="40.7855767" lon="16.30075"><ele>202.0</ele><time>2026-05-02T13:08:03.703Z</time></trkpt><trkpt lat="40.785585" lon="16.30041"><ele>203.0</ele><time>2026-05-02T13:08:04.702Z</time></trkpt><trkpt lat="40.7856017" lon="16.3000717"><ele>204.0</ele><time>2026-05-02T13:08:05.701Z</time></trkpt><trkpt lat="40.7856333" lon="16.2997417"><ele>205.0</ele><time>2026-05-02T13:08:06.702Z</time></trkpt><trkpt lat="40.785685" lon="16.2994167"><ele>205.0</ele><time>2026-05-02T13:08:07.703Z</time></trkpt><trkpt lat="40.7857533" lon="16.299095"><ele>205.0</ele><time>2026-05-02T13:08:08.701Z</time></trkpt><trkpt lat="40.78584" lon="16.29878"><ele>206.0</ele><time>2026-05-02T13:08:09.701Z</time></trkpt><trkpt lat="40.7859433" lon="16.2984733"><ele>207.0</ele><time>2026-05-02T13:08:10.701Z</time></trkpt><trkpt lat="40.786065" lon="16.2981767"><ele>205.5</ele><time>2026-05-02T13:08:11.7Z</time></trkpt><trkpt lat="40.7861983" lon="16.29789"><ele>204.0</ele><time>2026-05-02T13:08:12.702Z</time></trkpt><trkpt lat="40.78635" lon="16.2976217"><ele>204.0</ele><time>2026-05-02T13:08:13.701Z</time></trkpt><trkpt lat="40.7865067" lon="16.2973567"><ele>204.0</ele><time>2026-05-02T13:08:14.702Z</time></trkpt><trkpt lat="40.7866633" lon="16.2970917"><ele>203.5</ele><time>2026-05-02T13:08:15.701Z</time></trkpt><trkpt lat="40.7868133" lon="16.2968217"><ele>203.0</ele><time>2026-05-02T13:08:16.701Z</time></trkpt><trkpt lat="40.7869517" lon="16.2965433"><ele>204.5</ele><time>2026-05-02T13:08:17.701Z</time></trkpt><trkpt lat="40.7870783" lon="16.2962583"><ele>206.0</ele><time>2026-05-02T13:08:18.701Z</time></trkpt><trkpt lat="40.7871933" lon="16.2959667"><ele>206.0</ele><time>2026-05-02T13:08:19.701Z</time></trkpt><trkpt lat="40.7872983" lon="16.2956667"><ele>206.0</ele><time>2026-05-02T13:08:20.702Z</time></trkpt><trkpt lat="40.7873933" lon="16.29536"><ele>206.5</ele><time>2026-05-02T13:08:21.702Z</time></trkpt><trkpt lat="40.78748" lon="16.2950483"><ele>207.0</ele><time>2026-05-02T13:08:22.703Z</time></trkpt><trkpt lat="40.7875617" lon="16.29473"><ele>207.0</ele><time>2026-05-02T13:08:23.701Z</time></trkpt><trkpt lat="40.7876433" lon="16.2944133"><ele>207.0</ele><time>2026-05-02T13:08:24.7Z</time></trkpt><trkpt lat="40.7877267" lon="16.2940967"><ele>207.5</ele><time>2026-05-02T13:08:25.701Z</time></trkpt><trkpt lat="40.78781" lon="16.29378"><ele>208.0</ele><time>2026-05-02T13:08:26.701Z</time></trkpt><trkpt lat="40.7878917" lon="16.2934617"><ele>208.0</ele><time>2026-05-02T13:08:27.701Z</time></trkpt><trkpt lat="40.7879783" lon="16.293125"><ele>208.0</ele><time>2026-05-02T13:08:28.701Z</time></trkpt><trkpt lat="40.7880667" lon="16.29279"><ele>209.0</ele><time>2026-05-02T13:08:29.702Z</time></trkpt><trkpt lat="40.7881517" lon="16.2924767"><ele>210.0</ele><time>2026-05-02T13:08:30.701Z</time></trkpt><trkpt lat="40.7882267" lon="16.2921867"><ele>210.0</ele><time>2026-05-02T13:08:31.701Z</time></trkpt><trkpt lat="40.7883" lon="16.2919067"><ele>210.0</ele><time>2026-05-02T13:08:32.702Z</time></trkpt><trkpt lat="40.78837" lon="16.29164"><ele>210.0</ele><time>2026-05-02T13:08:33.701Z</time></trkpt><trkpt lat="40.7884333" lon="16.2913867"><ele>210.0</ele><time>2026-05-02T13:08:34.701Z</time></trkpt><trkpt lat="40.7884967" lon="16.2911483"><ele>210.0</ele><time>2026-05-02T13:08:35.701Z</time></trkpt><trkpt lat="40.788555" lon="16.2909267"><ele>210.0</ele><time>2026-05-02T13:08:36.701Z</time></trkpt><trkpt lat="40.78861" lon="16.2907167"><ele>209.5</ele><time>2026-05-02T13:08:37.702Z</time></trkpt><trkpt lat="40.7886583" lon="16.290525"><ele>209.0</ele><time>2026-05-02T13:08:38.701Z</time></trkpt><trkpt lat="40.7887067" lon="16.2903483"><ele>208.5</ele><time>2026-05-02T13:08:39.7Z</time></trkpt><trkpt lat="40.78875" lon="16.2901933"><ele>208.0</ele><time>2026-05-02T13:08:40.702Z</time></trkpt><trkpt lat="40.7887883" lon="16.2900633"><ele>207.99999999999997</ele><time>2026-05-02T13:08:41.701Z</time></trkpt><trkpt lat="40.7888117" lon="16.2899617"><ele>208.0</ele><time>2026-05-02T13:08:42.702Z</time></trkpt><trkpt lat="40.78882" lon="16.2898783"><ele>208.0</ele><time>2026-05-02T13:08:43.702Z</time></trkpt><trkpt lat="40.78877" lon="16.2898067"><ele>208.0</ele><time>2026-05-02T13:08:45.701Z</time></trkpt><trkpt lat="40.7887167" lon="16.2898917"><ele>207.99999999999997</ele><time>2026-05-02T13:08:47.702Z</time></trkpt><trkpt lat="40.7886883" lon="16.2899833"><ele>208.0</ele><time>2026-05-02T13:08:48.701Z</time></trkpt><trkpt lat="40.7886467" lon="16.2901033"><ele>208.0</ele><time>2026-05-02T13:08:49.701Z</time></trkpt><trkpt lat="40.78859" lon="16.290255"><ele>208.0</ele><time>2026-05-02T13:08:50.702Z</time></trkpt><trkpt lat="40.7885267" lon="16.2904183"><ele>208.0</ele><time>2026-05-02T13:08:51.701Z</time></trkpt><trkpt lat="40.7884633" lon="16.2905683"><ele>208.0</ele><time>2026-05-02T13:08:52.701Z</time></trkpt><trkpt lat="40.7883883" lon="16.29069"><ele>208.4</ele><time>2026-05-02T13:08:53.703Z</time></trkpt><trkpt lat="40.7883067" lon="16.290775"><ele>208.8</ele><time>2026-05-02T13:08:54.701Z</time></trkpt><trkpt lat="40.7882167" lon="16.290815"><ele>209.2</ele><time>2026-05-02T13:08:55.701Z</time></trkpt><trkpt lat="40.7881283" lon="16.290815"><ele>209.6</ele><time>2026-05-02T13:08:56.701Z</time></trkpt><trkpt lat="40.7880467" lon="16.2907767"><ele>210.0</ele><time>2026-05-02T13:08:57.701Z</time></trkpt><trkpt lat="40.78798" lon="16.2907117"><ele>210.25</ele><time>2026-05-02T13:08:58.7Z</time></trkpt><trkpt lat="40.7879383" lon="16.290585"><ele>210.5</ele><time>2026-05-02T13:08:59.701Z</time></trkpt><trkpt lat="40.7879217" lon="16.2904367"><ele>210.75</ele><time>2026-05-02T13:09:00.702Z</time></trkpt><trkpt lat="40.7879367" lon="16.29027"><ele>211.0</ele><time>2026-05-02T13:09:01.702Z</time></trkpt><trkpt lat="40.78797" lon="16.2900967"><ele>211.0</ele><time>2026-05-02T13:09:02.703Z</time></trkpt><trkpt lat="40.788015" lon="16.28993"><ele>211.0</ele><time>2026-05-02T13:09:03.702Z</time></trkpt><trkpt lat="40.788055" lon="16.2897883"><ele>211.0</ele><time>2026-05-02T13:09:04.702Z</time></trkpt><trkpt lat="40.7880867" lon="16.28966"><ele>211.0</ele><time>2026-05-02T13:09:05.703Z</time></trkpt><trkpt lat="40.7881167" lon="16.2895283"><ele>211.33333333333331</ele><time>2026-05-02T13:09:06.702Z</time></trkpt><trkpt lat="40.788155" lon="16.289365"><ele>211.66666666666669</ele><time>2026-05-02T13:09:07.702Z</time></trkpt><trkpt lat="40.7882083" lon="16.2891617"><ele>212.0</ele><time>2026-05-02T13:09:08.707Z</time></trkpt><trkpt lat="40.788285" lon="16.2889217"><ele>212.0</ele><time>2026-05-02T13:09:09.701Z</time></trkpt><trkpt lat="40.78838" lon="16.28866"><ele>212.0</ele><time>2026-05-02T13:09:10.703Z</time></trkpt><trkpt lat="40.7884867" lon="16.2883767"><ele>211.5</ele><time>2026-05-02T13:09:11.702Z</time></trkpt><trkpt lat="40.7886017" lon="16.288075"><ele>211.0</ele><time>2026-05-02T13:09:12.702Z</time></trkpt><trkpt lat="40.78872" lon="16.2877717"><ele>211.0</ele><time>2026-05-02T13:09:13.702Z</time></trkpt><trkpt lat="40.7888417" lon="16.28747"><ele>211.0</ele><time>2026-05-02T13:09:14.701Z</time></trkpt><trkpt lat="40.7889683" lon="16.2871717"><ele>211.5</ele><time>2026-05-02T13:09:15.702Z</time></trkpt><trkpt lat="40.7891033" lon="16.2868783"><ele>212.0</ele><time>2026-05-02T13:09:16.701Z</time></trkpt><trkpt lat="40.78925" lon="16.2865967"><ele>211.5</ele><time>2026-05-02T13:09:17.702Z</time></trkpt><trkpt lat="40.789405" lon="16.2863183"><ele>211.0</ele><time>2026-05-02T13:09:18.702Z</time></trkpt><trkpt lat="40.7895617" lon="16.28604"><ele>211.0</ele><time>2026-05-02T13:09:19.701Z</time></trkpt><trkpt lat="40.7897167" lon="16.2857683"><ele>211.0</ele><time>2026-05-02T13:09:20.701Z</time></trkpt><trkpt lat="40.7898667" lon="16.2855"><ele>212.0</ele><time>2026-05-02T13:09:21.701Z</time></trkpt><trkpt lat="40.7900133" lon="16.2852367"><ele>213.0</ele><time>2026-05-02T13:09:22.701Z</time></trkpt><trkpt lat="40.79016" lon="16.2849733"><ele>212.5</ele><time>2026-05-02T13:09:23.701Z</time></trkpt><trkpt lat="40.790305" lon="16.2847117"><ele>212.0</ele><time>2026-05-02T13:09:24.701Z</time></trkpt><trkpt lat="40.7904517" lon="16.2844483"><ele>212.0</ele><time>2026-05-02T13:09:25.701Z</time></trkpt><trkpt lat="40.7905967" lon="16.2841833"><ele>212.0</ele><time>2026-05-02T13:09:26.702Z</time></trkpt><trkpt lat="40.7907433" lon="16.2839217"><ele>212.5</ele><time>2026-05-02T13:09:27.701Z</time></trkpt><trkpt lat="40.7908917" lon="16.28366"><ele>213.0</ele><time>2026-05-02T13:09:28.702Z</time></trkpt><trkpt lat="40.7910383" lon="16.2834"><ele>212.5</ele><time>2026-05-02T13:09:29.702Z</time></trkpt><trkpt lat="40.7911817" lon="16.283145"><ele>212.0</ele><time>2026-05-02T13:09:30.702Z</time></trkpt><trkpt lat="40.791325" lon="16.2828883"><ele>212.0</ele><time>2026-05-02T13:09:31.702Z</time></trkpt><trkpt lat="40.79147" lon="16.2826267"><ele>212.0</ele><time>2026-05-02T13:09:32.701Z</time></trkpt><trkpt lat="40.791615" lon="16.2823567"><ele>212.0</ele><time>2026-05-02T13:09:33.701Z</time></trkpt><trkpt lat="40.791765" lon="16.2820817"><ele>212.0</ele><time>2026-05-02T13:09:34.7Z</time></trkpt><trkpt lat="40.7919167" lon="16.2818033"><ele>212.0</ele><time>2026-05-02T13:09:35.702Z</time></trkpt><trkpt lat="40.7920733" lon="16.28152"><ele>212.0</ele><time>2026-05-02T13:09:36.701Z</time></trkpt><trkpt lat="40.79223" lon="16.2812317"><ele>212.0</ele><time>2026-05-02T13:09:37.701Z</time></trkpt><trkpt lat="40.7923867" lon="16.2809417"><ele>212.0</ele><time>2026-05-02T13:09:38.702Z</time></trkpt><trkpt lat="40.7925433" lon="16.28065"><ele>212.0</ele><time>2026-05-02T13:09:39.702Z</time></trkpt><trkpt lat="40.7927" lon="16.2803583"><ele>212.0</ele><time>2026-05-02T13:09:40.7Z</time></trkpt><trkpt lat="40.792855" lon="16.2800717"><ele>212.0</ele><time>2026-05-02T13:09:41.7Z</time></trkpt><trkpt lat="40.7930117" lon="16.2797883"><ele>212.0</ele><time>2026-05-02T13:09:42.701Z</time></trkpt><trkpt lat="40.7931683" lon="16.279505"><ele>212.5</ele><time>2026-05-02T13:09:43.701Z</time></trkpt><trkpt lat="40.793325" lon="16.2792233"><ele>213.0</ele><time>2026-05-02T13:09:44.702Z</time></trkpt><trkpt lat="40.79348" lon="16.2789433"><ele>213.5</ele><time>2026-05-02T13:09:45.7Z</time></trkpt><trkpt lat="40.793635" lon="16.2786667"><ele>214.0</ele><time>2026-05-02T13:09:46.702Z</time></trkpt><trkpt lat="40.7937933" lon="16.278395"><ele>214.0</ele><time>2026-05-02T13:09:47.702Z</time></trkpt><trkpt lat="40.793955" lon="16.2781283"><ele>214.0</ele><time>2026-05-02T13:09:48.702Z</time></trkpt><trkpt lat="40.7941217" lon="16.2778717"><ele>214.5</ele><time>2026-05-02T13:09:49.702Z</time></trkpt><trkpt lat="40.7942967" lon="16.27762"><ele>215.0</ele><time>2026-05-02T13:09:50.703Z</time></trkpt><trkpt lat="40.7944767" lon="16.27738"><ele>215.0</ele><time>2026-05-02T13:09:51.702Z</time></trkpt><trkpt lat="40.7946617" lon="16.27715"><ele>215.0</ele><time>2026-05-02T13:09:52.702Z</time></trkpt><trkpt lat="40.794855" lon="16.27693"><ele>215.0</ele><time>2026-05-02T13:09:53.7Z</time></trkpt><trkpt lat="40.7950567" lon="16.27672"><ele>215.0</ele><time>2026-05-02T13:09:54.701Z</time></trkpt><trkpt lat="40.7952683" lon="16.2765233"><ele>214.0</ele><time>2026-05-02T13:09:55.701Z</time></trkpt><trkpt lat="40.7954883" lon="16.2763333"><ele>213.0</ele><time>2026-05-02T13:09:56.702Z</time></trkpt><trkpt lat="40.7957117" lon="16.276155"><ele>213.0</ele><time>2026-05-02T13:09:57.7Z</time></trkpt><trkpt lat="40.79594" lon="16.2759917"><ele>213.0</ele><time>2026-05-02T13:09:58.701Z</time></trkpt><trkpt lat="40.7961733" lon="16.27584"><ele>213.0</ele><time>2026-05-02T13:09:59.7Z</time></trkpt><trkpt lat="40.79641" lon="16.2757033"><ele>213.0</ele><time>2026-05-02T13:10:00.702Z</time></trkpt><trkpt lat="40.7966517" lon="16.2755817"><ele>214.0</ele><time>2026-05-02T13:10:01.7Z</time></trkpt><trkpt lat="40.796895" lon="16.2754733"><ele>215.0</ele><time>2026-05-02T13:10:02.702Z</time></trkpt><trkpt lat="40.7971383" lon="16.2753767"><ele>215.0</ele><time>2026-05-02T13:10:03.701Z</time></trkpt><trkpt lat="40.7973833" lon="16.2752917"><ele>215.0</ele><time>2026-05-02T13:10:04.702Z</time></trkpt><trkpt lat="40.7976367" lon="16.2752167"><ele>215.5</ele><time>2026-05-02T13:10:05.702Z</time></trkpt><trkpt lat="40.7978917" lon="16.2751467"><ele>216.0</ele><time>2026-05-02T13:10:06.701Z</time></trkpt><trkpt lat="40.7981483" lon="16.2750817"><ele>216.0</ele><time>2026-05-02T13:10:07.701Z</time></trkpt><trkpt lat="40.7984017" lon="16.2750217"><ele>216.0</ele><time>2026-05-02T13:10:08.702Z</time></trkpt><trkpt lat="40.7986533" lon="16.274965"><ele>216.5</ele><time>2026-05-02T13:10:09.701Z</time></trkpt><trkpt lat="40.7989" lon="16.27491"><ele>217.0</ele><time>2026-05-02T13:10:10.702Z</time></trkpt><trkpt lat="40.7991433" lon="16.2748567"><ele>216.5</ele><time>2026-05-02T13:10:11.702Z</time></trkpt><trkpt lat="40.7993833" lon="16.2748017"><ele>216.0</ele><time>2026-05-02T13:10:12.702Z</time></trkpt><trkpt lat="40.7996267" lon="16.2747483"><ele>216.0</ele><time>2026-05-02T13:10:13.701Z</time></trkpt><trkpt lat="40.7998683" lon="16.2746933"><ele>216.0</ele><time>2026-05-02T13:10:14.702Z</time></trkpt><trkpt lat="40.8001117" lon="16.2746383"><ele>217.0</ele><time>2026-05-02T13:10:15.701Z</time></trkpt><trkpt lat="40.800355" lon="16.274585"><ele>218.0</ele><time>2026-05-02T13:10:16.702Z</time></trkpt><trkpt lat="40.8005983" lon="16.2745333"><ele>218.0</ele><time>2026-05-02T13:10:17.7Z</time></trkpt><trkpt lat="40.8008417" lon="16.27448"><ele>218.0</ele><time>2026-05-02T13:10:18.702Z</time></trkpt><trkpt lat="40.801085" lon="16.2744233"><ele>218.0</ele><time>2026-05-02T13:10:19.701Z</time></trkpt><trkpt lat="40.80133" lon="16.2743667"><ele>218.0</ele><time>2026-05-02T13:10:20.701Z</time></trkpt><trkpt lat="40.801575" lon="16.2743117"><ele>218.0</ele><time>2026-05-02T13:10:21.701Z</time></trkpt><trkpt lat="40.8018233" lon="16.274255"><ele>218.0</ele><time>2026-05-02T13:10:22.702Z</time></trkpt><trkpt lat="40.802075" lon="16.2741983"><ele>219.0</ele><time>2026-05-02T13:10:23.702Z</time></trkpt><trkpt lat="40.8023267" lon="16.2741417"><ele>220.0</ele><time>2026-05-02T13:10:24.701Z</time></trkpt><trkpt lat="40.8025833" lon="16.274085"><ele>220.5</ele><time>2026-05-02T13:10:25.7Z</time></trkpt><trkpt lat="40.80284" lon="16.2740283"><ele>221.0</ele><time>2026-05-02T13:10:26.702Z</time></trkpt><trkpt lat="40.8030917" lon="16.27397"><ele>220.0</ele><time>2026-05-02T13:10:27.701Z</time></trkpt><trkpt lat="40.8033383" lon="16.2739083"><ele>219.0</ele><time>2026-05-02T13:10:28.7Z</time></trkpt><trkpt lat="40.8035817" lon="16.2738483"><ele>219.0</ele><time>2026-05-02T13:10:29.7Z</time></trkpt><trkpt lat="40.80382" lon="16.2737867"><ele>219.0</ele><time>2026-05-02T13:10:30.702Z</time></trkpt><trkpt lat="40.80406" lon="16.27372"><ele>219.0</ele><time>2026-05-02T13:10:31.701Z</time></trkpt><trkpt lat="40.8042933" lon="16.2736533"><ele>219.0</ele><time>2026-05-02T13:10:32.703Z</time></trkpt><trkpt lat="40.8045167" lon="16.2735883"><ele>220.0</ele><time>2026-05-02T13:10:33.7Z</time></trkpt><trkpt lat="40.80473" lon="16.273525"><ele>221.0</ele><time>2026-05-02T13:10:34.7Z</time></trkpt><trkpt lat="40.8049283" lon="16.27346"><ele>222.0</ele><time>2026-05-02T13:10:35.701Z</time></trkpt><trkpt lat="40.8051167" lon="16.273395"><ele>222.66666666666669</ele><time>2026-05-02T13:10:36.701Z</time></trkpt><trkpt lat="40.8053017" lon="16.2733283"><ele>223.33333333333334</ele><time>2026-05-02T13:10:37.701Z</time></trkpt><trkpt lat="40.8054883" lon="16.2732583"><ele>224.0</ele><time>2026-05-02T13:10:38.701Z</time></trkpt><trkpt lat="40.8056717" lon="16.273185"><ele>224.0</ele><time>2026-05-02T13:10:39.701Z</time></trkpt><trkpt lat="40.8058533" lon="16.2731083"><ele>224.0</ele><time>2026-05-02T13:10:40.702Z</time></trkpt><trkpt lat="40.80603" lon="16.27303"><ele>224.0</ele><time>2026-05-02T13:10:41.702Z</time></trkpt><trkpt lat="40.8062" lon="16.2729533"><ele>224.66666666666669</ele><time>2026-05-02T13:10:42.701Z</time></trkpt><trkpt lat="40.80636" lon="16.272875"><ele>225.33333333333331</ele><time>2026-05-02T13:10:43.7Z</time></trkpt><trkpt lat="40.8065117" lon="16.2727967"><ele>226.0</ele><time>2026-05-02T13:10:44.702Z</time></trkpt><trkpt lat="40.806655" lon="16.27272"><ele>226.0</ele><time>2026-05-02T13:10:45.702Z</time></trkpt><trkpt lat="40.8067983" lon="16.272645"><ele>226.0</ele><time>2026-05-02T13:10:46.702Z</time></trkpt><trkpt lat="40.80694" lon="16.2725667"><ele>226.0</ele><time>2026-05-02T13:10:47.702Z</time></trkpt><trkpt lat="40.8070867" lon="16.2724833"><ele>226.0</ele><time>2026-05-02T13:10:48.701Z</time></trkpt><trkpt lat="40.8072417" lon="16.272395"><ele>226.0</ele><time>2026-05-02T13:10:49.701Z</time></trkpt><trkpt lat="40.8074083" lon="16.2722933"><ele>226.0</ele><time>2026-05-02T13:10:50.703Z</time></trkpt><trkpt lat="40.8075867" lon="16.27218"><ele>226.33333333333331</ele><time>2026-05-02T13:10:51.702Z</time></trkpt><trkpt lat="40.8077767" lon="16.272055"><ele>226.66666666666669</ele><time>2026-05-02T13:10:52.701Z</time></trkpt><trkpt lat="40.807975" lon="16.2719183"><ele>227.0</ele><time>2026-05-02T13:10:53.702Z</time></trkpt><trkpt lat="40.80818" lon="16.271775"><ele>227.0</ele><time>2026-05-02T13:10:54.702Z</time></trkpt><trkpt lat="40.8083917" lon="16.27162"><ele>227.0</ele><time>2026-05-02T13:10:55.701Z</time></trkpt><trkpt lat="40.8086083" lon="16.271455"><ele>226.5</ele><time>2026-05-02T13:10:56.707Z</time></trkpt><trkpt lat="40.8088267" lon="16.2712817"><ele>226.0</ele><time>2026-05-02T13:10:57.701Z</time></trkpt><trkpt lat="40.8090417" lon="16.2711"><ele>226.0</ele><time>2026-05-02T13:10:58.701Z</time></trkpt><trkpt lat="40.809255" lon="16.2709117"><ele>226.0</ele><time>2026-05-02T13:10:59.702Z</time></trkpt><trkpt lat="40.8094683" lon="16.2707167"><ele>227.0</ele><time>2026-05-02T13:11:00.7Z</time></trkpt><trkpt lat="40.8096817" lon="16.2705167"><ele>228.0</ele><time>2026-05-02T13:11:01.7Z</time></trkpt><trkpt lat="40.8098883" lon="16.2703133"><ele>228.0</ele><time>2026-05-02T13:11:02.701Z</time></trkpt><trkpt lat="40.81009" lon="16.2701067"><ele>228.0</ele><time>2026-05-02T13:11:03.701Z</time></trkpt><trkpt lat="40.810285" lon="16.2698967"><ele>229.0</ele><time>2026-05-02T13:11:04.702Z</time></trkpt><trkpt lat="40.8104783" lon="16.269685"><ele>230.0</ele><time>2026-05-02T13:11:05.701Z</time></trkpt><trkpt lat="40.8106667" lon="16.2694717"><ele>230.0</ele><time>2026-05-02T13:11:06.702Z</time></trkpt><trkpt lat="40.8108533" lon="16.2692517"><ele>230.0</ele><time>2026-05-02T13:11:07.701Z</time></trkpt><trkpt lat="40.8110333" lon="16.2690267"><ele>230.5</ele><time>2026-05-02T13:11:08.702Z</time></trkpt><trkpt lat="40.81121" lon="16.2687967"><ele>231.0</ele><time>2026-05-02T13:11:09.701Z</time></trkpt><trkpt lat="40.811385" lon="16.268565"><ele>231.0</ele><time>2026-05-02T13:11:10.701Z</time></trkpt><trkpt lat="40.8115567" lon="16.2683283"><ele>231.0</ele><time>2026-05-02T13:11:11.7Z</time></trkpt><trkpt lat="40.8117267" lon="16.2680883"><ele>233.5</ele><time>2026-05-02T13:11:12.702Z</time></trkpt><trkpt lat="40.8118933" lon="16.267845"><ele>236.0</ele><time>2026-05-02T13:11:13.7Z</time></trkpt><trkpt lat="40.81206" lon="16.2675983"><ele>236.0</ele><time>2026-05-02T13:11:14.702Z</time></trkpt><trkpt lat="40.812225" lon="16.26735"><ele>236.0</ele><time>2026-05-02T13:11:15.702Z</time></trkpt><trkpt lat="40.8123867" lon="16.2670983"><ele>234.0</ele><time>2026-05-02T13:11:16.701Z</time></trkpt><trkpt lat="40.8125483" lon="16.2668483"><ele>232.0</ele><time>2026-05-02T13:11:17.702Z</time></trkpt><trkpt lat="40.812705" lon="16.2665933"><ele>234.0</ele><time>2026-05-02T13:11:18.702Z</time></trkpt><trkpt lat="40.812865" lon="16.2663383"><ele>236.0</ele><time>2026-05-02T13:11:19.703Z</time></trkpt><trkpt lat="40.813025" lon="16.2660783"><ele>236.0</ele><time>2026-05-02T13:11:20.703Z</time></trkpt><trkpt lat="40.8131817" lon="16.2658167"><ele>236.0</ele><time>2026-05-02T13:11:21.702Z</time></trkpt><trkpt lat="40.8133383" lon="16.2655533"><ele>238.0</ele><time>2026-05-02T13:11:22.702Z</time></trkpt><trkpt lat="40.8134967" lon="16.2652883"><ele>240.0</ele><time>2026-05-02T13:11:23.703Z</time></trkpt><trkpt lat="40.8136567" lon="16.2650233"><ele>239.0</ele><time>2026-05-02T13:11:24.702Z</time></trkpt><trkpt lat="40.8138167" lon="16.2647583"><ele>238.0</ele><time>2026-05-02T13:11:25.701Z</time></trkpt><trkpt lat="40.813975" lon="16.264495"><ele>238.0</ele><time>2026-05-02T13:11:26.703Z</time></trkpt><trkpt lat="40.814135" lon="16.2642267"><ele>238.0</ele><time>2026-05-02T13:11:27.702Z</time></trkpt><trkpt lat="40.814295" lon="16.26396"><ele>241.5</ele><time>2026-05-02T13:11:28.702Z</time></trkpt><trkpt lat="40.814455" lon="16.2636883"><ele>245.0</ele><time>2026-05-02T13:11:29.701Z</time></trkpt><trkpt lat="40.8146183" lon="16.263415"><ele>245.0</ele><time>2026-05-02T13:11:30.701Z</time></trkpt><trkpt lat="40.8147817" lon="16.2631433"><ele>245.0</ele><time>2026-05-02T13:11:31.702Z</time></trkpt><trkpt lat="40.8149433" lon="16.26287"><ele>241.0</ele><time>2026-05-02T13:11:32.704Z</time></trkpt><trkpt lat="40.8151067" lon="16.2625967"><ele>237.0</ele><time>2026-05-02T13:11:33.7Z</time></trkpt><trkpt lat="40.8152683" lon="16.26232"><ele>234.5</ele><time>2026-05-02T13:11:34.702Z</time></trkpt><trkpt lat="40.8154317" lon="16.2620433"><ele>232.0</ele><time>2026-05-02T13:11:35.702Z</time></trkpt><trkpt lat="40.815595" lon="16.261765"><ele>232.0</ele><time>2026-05-02T13:11:36.7Z</time></trkpt><trkpt lat="40.8157567" lon="16.26149"><ele>232.0</ele><time>2026-05-02T13:11:37.703Z</time></trkpt><trkpt lat="40.81592" lon="16.261215"><ele>232.5</ele><time>2026-05-02T13:11:38.703Z</time></trkpt><trkpt lat="40.8160833" lon="16.2609417"><ele>233.0</ele><time>2026-05-02T13:11:39.702Z</time></trkpt><trkpt lat="40.8162467" lon="16.2606683"><ele>233.0</ele><time>2026-05-02T13:11:40.702Z</time></trkpt><trkpt lat="40.8164083" lon="16.2603933"><ele>233.0</ele><time>2026-05-02T13:11:41.702Z</time></trkpt><trkpt lat="40.8165733" lon="16.2601167"><ele>233.0</ele><time>2026-05-02T13:11:42.703Z</time></trkpt><trkpt lat="40.8167383" lon="16.25984"><ele>233.0</ele><time>2026-05-02T13:11:43.701Z</time></trkpt><trkpt lat="40.8169033" lon="16.259565"><ele>237.5</ele><time>2026-05-02T13:11:44.702Z</time></trkpt><trkpt lat="40.8170683" lon="16.2592883"><ele>242.0</ele><time>2026-05-02T13:11:45.702Z</time></trkpt><trkpt lat="40.8172317" lon="16.2590117"><ele>240.5</ele><time>2026-05-02T13:11:46.7Z</time></trkpt><trkpt lat="40.8173983" lon="16.2587333"><ele>239.0</ele><time>2026-05-02T13:11:47.702Z</time></trkpt><trkpt lat="40.817565" lon="16.2584533"><ele>239.0</ele><time>2026-05-02T13:11:48.7Z</time></trkpt><trkpt lat="40.8177317" lon="16.258175"><ele>239.0</ele><time>2026-05-02T13:11:49.702Z</time></trkpt><trkpt lat="40.817895" lon="16.2578983"><ele>239.0</ele><time>2026-05-02T13:11:50.704Z</time></trkpt><trkpt lat="40.8180583" lon="16.2576233"><ele>239.0</ele><time>2026-05-02T13:11:51.701Z</time></trkpt><trkpt lat="40.81822" lon="16.2573483"><ele>240.0</ele><time>2026-05-02T13:11:52.701Z</time></trkpt><trkpt lat="40.8183817" lon="16.2570767"><ele>241.0</ele><time>2026-05-02T13:11:53.701Z</time></trkpt><trkpt lat="40.8185433" lon="16.2568067"><ele>241.0</ele><time>2026-05-02T13:11:54.701Z</time></trkpt><trkpt lat="40.8187067" lon="16.2565333"><ele>241.0</ele><time>2026-05-02T13:11:55.701Z</time></trkpt><trkpt lat="40.8188717" lon="16.2562583"><ele>239.5</ele><time>2026-05-02T13:11:56.702Z</time></trkpt><trkpt lat="40.8190367" lon="16.2559833"><ele>238.0</ele><time>2026-05-02T13:11:57.7Z</time></trkpt><trkpt lat="40.8192" lon="16.2557083"><ele>238.0</ele><time>2026-05-02T13:11:58.702Z</time></trkpt><trkpt lat="40.8193617" lon="16.2554317"><ele>238.0</ele><time>2026-05-02T13:11:59.701Z</time></trkpt><trkpt lat="40.819525" lon="16.255155"><ele>238.0</ele><time>2026-05-02T13:12:00.7Z</time></trkpt><trkpt lat="40.8196883" lon="16.2548833"><ele>238.0</ele><time>2026-05-02T13:12:01.701Z</time></trkpt><trkpt lat="40.819855" lon="16.2546133"><ele>237.5</ele><time>2026-05-02T13:12:02.702Z</time></trkpt><trkpt lat="40.8200167" lon="16.2543433"><ele>237.0</ele><time>2026-05-02T13:12:03.701Z</time></trkpt><trkpt lat="40.8201767" lon="16.25407"><ele>236.5</ele><time>2026-05-02T13:12:04.7Z</time></trkpt><trkpt lat="40.82034" lon="16.2537967"><ele>236.0</ele><time>2026-05-02T13:12:05.701Z</time></trkpt><trkpt lat="40.8205017" lon="16.2535217"><ele>236.0</ele><time>2026-05-02T13:12:06.7Z</time></trkpt><trkpt lat="40.8206633" lon="16.253245"><ele>236.0</ele><time>2026-05-02T13:12:07.701Z</time></trkpt><trkpt lat="40.8208267" lon="16.2529667"><ele>235.0</ele><time>2026-05-02T13:12:08.701Z</time></trkpt><trkpt lat="40.82099" lon="16.2526883"><ele>234.0</ele><time>2026-05-02T13:12:09.702Z</time></trkpt><trkpt lat="40.8211567" lon="16.25241"><ele>235.0</ele><time>2026-05-02T13:12:10.702Z</time></trkpt><trkpt lat="40.821325" lon="16.25213"><ele>236.0</ele><time>2026-05-02T13:12:11.702Z</time></trkpt><trkpt lat="40.821495" lon="16.2518533"><ele>236.0</ele><time>2026-05-02T13:12:12.701Z</time></trkpt><trkpt lat="40.8216667" lon="16.25158"><ele>236.0</ele><time>2026-05-02T13:12:13.702Z</time></trkpt><trkpt lat="40.821845" lon="16.2513117"><ele>236.5</ele><time>2026-05-02T13:12:14.702Z</time></trkpt><trkpt lat="40.82203" lon="16.2510467"><ele>237.0</ele><time>2026-05-02T13:12:15.702Z</time></trkpt><trkpt lat="40.8222233" lon="16.2507867"><ele>237.0</ele><time>2026-05-02T13:12:16.701Z</time></trkpt><trkpt lat="40.8224183" lon="16.2505317"><ele>237.0</ele><time>2026-05-02T13:12:17.701Z</time></trkpt><trkpt lat="40.8226167" lon="16.2502783"><ele>237.0</ele><time>2026-05-02T13:12:18.701Z</time></trkpt><trkpt lat="40.8228167" lon="16.2500283"><ele>237.0</ele><time>2026-05-02T13:12:19.702Z</time></trkpt><trkpt lat="40.8230183" lon="16.2497883"><ele>237.5</ele><time>2026-05-02T13:12:20.7Z</time></trkpt><trkpt lat="40.8232233" lon="16.2495567"><ele>238.0</ele><time>2026-05-02T13:12:21.701Z</time></trkpt><trkpt lat="40.8234267" lon="16.249335"><ele>238.5</ele><time>2026-05-02T13:12:22.7Z</time></trkpt><trkpt lat="40.823635" lon="16.24912"><ele>239.0</ele><time>2026-05-02T13:12:23.701Z</time></trkpt><trkpt lat="40.8238433" lon="16.248915"><ele>238.0</ele><time>2026-05-02T13:12:24.702Z</time></trkpt><trkpt lat="40.8240517" lon="16.2487167"><ele>237.0</ele><time>2026-05-02T13:12:25.702Z</time></trkpt><trkpt lat="40.82426" lon="16.2485233"><ele>236.0</ele><time>2026-05-02T13:12:26.701Z</time></trkpt><trkpt lat="40.8244717" lon="16.2483367"><ele>235.0</ele><time>2026-05-02T13:12:27.7Z</time></trkpt><trkpt lat="40.8246867" lon="16.248155"><ele>234.5</ele><time>2026-05-02T13:12:28.701Z</time></trkpt><trkpt lat="40.8249017" lon="16.24798"><ele>234.0</ele><time>2026-05-02T13:12:29.701Z</time></trkpt><trkpt lat="40.8251183" lon="16.247805"><ele>236.5</ele><time>2026-05-02T13:12:30.701Z</time></trkpt><trkpt lat="40.8253333" lon="16.2476317"><ele>239.0</ele><time>2026-05-02T13:12:31.7Z</time></trkpt><trkpt lat="40.82555" lon="16.2474583"><ele>239.5</ele><time>2026-05-02T13:12:32.702Z</time></trkpt><trkpt lat="40.82577" lon="16.2472817"><ele>240.0</ele><time>2026-05-02T13:12:33.7Z</time></trkpt><trkpt lat="40.8259917" lon="16.2471017"><ele>241.5</ele><time>2026-05-02T13:12:34.702Z</time></trkpt><trkpt lat="40.8262133" lon="16.24692"><ele>243.0</ele><time>2026-05-02T13:12:35.701Z</time></trkpt><trkpt lat="40.8264317" lon="16.2467367"><ele>243.0</ele><time>2026-05-02T13:12:36.701Z</time></trkpt><trkpt lat="40.82665" lon="16.24655"><ele>243.0</ele><time>2026-05-02T13:12:37.701Z</time></trkpt><trkpt lat="40.826865" lon="16.2463617"><ele>242.5</ele><time>2026-05-02T13:12:38.701Z</time></trkpt><trkpt lat="40.8270817" lon="16.2461717"><ele>242.0</ele><time>2026-05-02T13:12:39.703Z</time></trkpt><trkpt lat="40.827295" lon="16.2459783"><ele>242.0</ele><time>2026-05-02T13:12:40.701Z</time></trkpt><trkpt lat="40.8275083" lon="16.24578"><ele>242.0</ele><time>2026-05-02T13:12:41.701Z</time></trkpt><trkpt lat="40.82772" lon="16.2455767"><ele>242.5</ele><time>2026-05-02T13:12:42.701Z</time></trkpt><trkpt lat="40.82793" lon="16.2453683"><ele>243.0</ele><time>2026-05-02T13:12:43.702Z</time></trkpt><trkpt lat="40.8281417" lon="16.2451617"><ele>243.0</ele><time>2026-05-02T13:12:44.704Z</time></trkpt><trkpt lat="40.8283517" lon="16.2449567"><ele>243.0</ele><time>2026-05-02T13:12:45.7Z</time></trkpt><trkpt lat="40.8285617" lon="16.2447517"><ele>245.5</ele><time>2026-05-02T13:12:46.702Z</time></trkpt><trkpt lat="40.8287717" lon="16.2445483"><ele>248.0</ele><time>2026-05-02T13:12:47.701Z</time></trkpt><trkpt lat="40.8289817" lon="16.2443467"><ele>248.0</ele><time>2026-05-02T13:12:48.7Z</time></trkpt><trkpt lat="40.82919" lon="16.244145"><ele>248.0</ele><time>2026-05-02T13:12:49.703Z</time></trkpt><trkpt lat="40.8293967" lon="16.2439433"><ele>247.0</ele><time>2026-05-02T13:12:50.702Z</time></trkpt><trkpt lat="40.8296033" lon="16.2437417"><ele>246.0</ele><time>2026-05-02T13:12:51.701Z</time></trkpt><trkpt lat="40.8298117" lon="16.24354"><ele>246.0</ele><time>2026-05-02T13:12:52.7Z</time></trkpt><trkpt lat="40.83002" lon="16.2433383"><ele>246.0</ele><time>2026-05-02T13:12:53.703Z</time></trkpt><trkpt lat="40.8302283" lon="16.2431383"><ele>247.0</ele><time>2026-05-02T13:12:54.702Z</time></trkpt><trkpt lat="40.8304383" lon="16.2429433"><ele>248.0</ele><time>2026-05-02T13:12:55.7Z</time></trkpt><trkpt lat="40.8306517" lon="16.24275"><ele>248.0</ele><time>2026-05-02T13:12:56.702Z</time></trkpt><trkpt lat="40.8308667" lon="16.2425583"><ele>248.0</ele><time>2026-05-02T13:12:57.7Z</time></trkpt><trkpt lat="40.8310817" lon="16.2423683"><ele>250.5</ele><time>2026-05-02T13:12:58.701Z</time></trkpt><trkpt lat="40.8313" lon="16.24218"><ele>253.0</ele><time>2026-05-02T13:12:59.7Z</time></trkpt><trkpt lat="40.8315183" lon="16.24199"><ele>253.0</ele><time>2026-05-02T13:13:00.7Z</time></trkpt><trkpt lat="40.8317383" lon="16.2418"><ele>253.0</ele><time>2026-05-02T13:13:01.701Z</time></trkpt><trkpt lat="40.83196" lon="16.2416083"><ele>254.5</ele><time>2026-05-02T13:13:02.702Z</time></trkpt><trkpt lat="40.8321833" lon="16.2414167"><ele>256.0</ele><time>2026-05-02T13:13:03.701Z</time></trkpt><trkpt lat="40.8324083" lon="16.241225"><ele>256.0</ele><time>2026-05-02T13:13:04.701Z</time></trkpt><trkpt lat="40.8326333" lon="16.24103"><ele>256.0</ele><time>2026-05-02T13:13:05.702Z</time></trkpt><trkpt lat="40.8328583" lon="16.2408367"><ele>256.5</ele><time>2026-05-02T13:13:06.701Z</time></trkpt><trkpt lat="40.833085" lon="16.2406433"><ele>257.0</ele><time>2026-05-02T13:13:07.702Z</time></trkpt><trkpt lat="40.8333117" lon="16.2404483"><ele>256.5</ele><time>2026-05-02T13:13:08.702Z</time></trkpt><trkpt lat="40.8335383" lon="16.240255"><ele>256.0</ele><time>2026-05-02T13:13:09.701Z</time></trkpt><trkpt lat="40.8337617" lon="16.2400633"><ele>256.0</ele><time>2026-05-02T13:13:10.702Z</time></trkpt><trkpt lat="40.8339833" lon="16.2398733"><ele>256.0</ele><time>2026-05-02T13:13:11.703Z</time></trkpt><trkpt lat="40.8342017" lon="16.2396867"><ele>255.5</ele><time>2026-05-02T13:13:12.702Z</time></trkpt><trkpt lat="40.83442" lon="16.2394983"><ele>255.0</ele><time>2026-05-02T13:13:13.702Z</time></trkpt><trkpt lat="40.8346383" lon="16.23931"><ele>255.0</ele><time>2026-05-02T13:13:14.704Z</time></trkpt><trkpt lat="40.8348583" lon="16.2391217"><ele>255.0</ele><time>2026-05-02T13:13:15.701Z</time></trkpt><trkpt lat="40.83508" lon="16.2389333"><ele>259.0</ele><time>2026-05-02T13:13:16.701Z</time></trkpt><trkpt lat="40.8353033" lon="16.2387433"><ele>263.0</ele><time>2026-05-02T13:13:17.701Z</time></trkpt><trkpt lat="40.8355267" lon="16.2385517"><ele>263.0</ele><time>2026-05-02T13:13:18.702Z</time></trkpt><trkpt lat="40.83575" lon="16.2383583"><ele>263.0</ele><time>2026-05-02T13:13:19.702Z</time></trkpt><trkpt lat="40.8359733" lon="16.2381667"><ele>265.5</ele><time>2026-05-02T13:13:20.702Z</time></trkpt><trkpt lat="40.8361967" lon="16.2379767"><ele>268.0</ele><time>2026-05-02T13:13:21.702Z</time></trkpt><trkpt lat="40.83642" lon="16.237785"><ele>268.0</ele><time>2026-05-02T13:13:22.702Z</time></trkpt><trkpt lat="40.8366417" lon="16.237595"><ele>268.0</ele><time>2026-05-02T13:13:23.702Z</time></trkpt><trkpt lat="40.8368617" lon="16.2374083"><ele>270.5</ele><time>2026-05-02T13:13:24.704Z</time></trkpt><trkpt lat="40.837075" lon="16.2372233"><ele>273.0</ele><time>2026-05-02T13:13:25.701Z</time></trkpt><trkpt lat="40.83728" lon="16.237045"><ele>273.0</ele><time>2026-05-02T13:13:26.702Z</time></trkpt><trkpt lat="40.8374767" lon="16.236875"><ele>273.0</ele><time>2026-05-02T13:13:27.704Z</time></trkpt><trkpt lat="40.837675" lon="16.2366983"><ele>272.5</ele><time>2026-05-02T13:13:28.702Z</time></trkpt><trkpt lat="40.83788" lon="16.23651"><ele>272.0</ele><time>2026-05-02T13:13:29.702Z</time></trkpt><trkpt lat="40.8380917" lon="16.23631"><ele>272.0</ele><time>2026-05-02T13:13:30.702Z</time></trkpt><trkpt lat="40.8383133" lon="16.2361117"><ele>272.0</ele><time>2026-05-02T13:13:31.702Z</time></trkpt><trkpt lat="40.8385417" lon="16.2359217"><ele>271.5</ele><time>2026-05-02T13:13:32.702Z</time></trkpt><trkpt lat="40.8387733" lon="16.2357317"><ele>271.0</ele><time>2026-05-02T13:13:33.701Z</time></trkpt><trkpt lat="40.839" lon="16.2355367"><ele>272.0</ele><time>2026-05-02T13:13:34.702Z</time></trkpt><trkpt lat="40.83922" lon="16.2353383"><ele>273.0</ele><time>2026-05-02T13:13:35.701Z</time></trkpt><trkpt lat="40.8394283" lon="16.2351317"><ele>273.0</ele><time>2026-05-02T13:13:36.702Z</time></trkpt><trkpt lat="40.83963" lon="16.2349133"><ele>273.0</ele><time>2026-05-02T13:13:37.701Z</time></trkpt><trkpt lat="40.8398233" lon="16.2346833"><ele>275.0</ele><time>2026-05-02T13:13:38.701Z</time></trkpt><trkpt lat="40.8400067" lon="16.2344433"><ele>277.0</ele><time>2026-05-02T13:13:39.701Z</time></trkpt><trkpt lat="40.840185" lon="16.234195"><ele>280.5</ele><time>2026-05-02T13:13:40.701Z</time></trkpt><trkpt lat="40.840355" lon="16.2339367"><ele>284.0</ele><time>2026-05-02T13:13:41.7Z</time></trkpt><trkpt lat="40.840515" lon="16.233675"><ele>284.0</ele><time>2026-05-02T13:13:42.7Z</time></trkpt><trkpt lat="40.8406633" lon="16.2334033"><ele>284.0</ele><time>2026-05-02T13:13:43.702Z</time></trkpt><trkpt lat="40.8408033" lon="16.233125"><ele>284.5</ele><time>2026-05-02T13:13:44.701Z</time></trkpt><trkpt lat="40.8409367" lon="16.2328417"><ele>285.0</ele><time>2026-05-02T13:13:45.702Z</time></trkpt><trkpt lat="40.8410633" lon="16.2325517"><ele>282.5</ele><time>2026-05-02T13:13:46.701Z</time></trkpt><trkpt lat="40.8411833" lon="16.232255"><ele>280.0</ele><time>2026-05-02T13:13:47.701Z</time></trkpt><trkpt lat="40.8412983" lon="16.2319483"><ele>280.0</ele><time>2026-05-02T13:13:48.7Z</time></trkpt><trkpt lat="40.8414117" lon="16.2316333"><ele>280.0</ele><time>2026-05-02T13:13:49.702Z</time></trkpt><trkpt lat="40.8415233" lon="16.23131"><ele>282.0</ele><time>2026-05-02T13:13:50.701Z</time></trkpt><trkpt lat="40.8416317" lon="16.23098"><ele>284.0</ele><time>2026-05-02T13:13:51.702Z</time></trkpt><trkpt lat="40.8417417" lon="16.230645"><ele>284.5</ele><time>2026-05-02T13:13:52.702Z</time></trkpt><trkpt lat="40.8418533" lon="16.2303083"><ele>285.0</ele><time>2026-05-02T13:13:53.7Z</time></trkpt><trkpt lat="40.841965" lon="16.2299733"><ele>285.5</ele><time>2026-05-02T13:13:54.701Z</time></trkpt><trkpt lat="40.8420783" lon="16.2296417"><ele>286.0</ele><time>2026-05-02T13:13:55.702Z</time></trkpt><trkpt lat="40.84219" lon="16.2293133"><ele>286.0</ele><time>2026-05-02T13:13:56.702Z</time></trkpt><trkpt lat="40.8422983" lon="16.22899"><ele>286.0</ele><time>2026-05-02T13:13:57.701Z</time></trkpt><trkpt lat="40.842405" lon="16.2286683"><ele>286.5</ele><time>2026-05-02T13:13:58.702Z</time></trkpt><trkpt lat="40.8425117" lon="16.2283483"><ele>287.0</ele><time>2026-05-02T13:13:59.701Z</time></trkpt><trkpt lat="40.8426183" lon="16.22803"><ele>284.5</ele><time>2026-05-02T13:14:00.701Z</time></trkpt><trkpt lat="40.8427233" lon="16.22771"><ele>282.0</ele><time>2026-05-02T13:14:01.7Z</time></trkpt><trkpt lat="40.84283" lon="16.2273917"><ele>281.5</ele><time>2026-05-02T13:14:02.703Z</time></trkpt><trkpt lat="40.842935" lon="16.22707"><ele>281.0</ele><time>2026-05-02T13:14:03.701Z</time></trkpt><trkpt lat="40.8430417" lon="16.2267483"><ele>282.5</ele><time>2026-05-02T13:14:04.702Z</time></trkpt><trkpt lat="40.8431483" lon="16.2264267"><ele>284.0</ele><time>2026-05-02T13:14:05.702Z</time></trkpt><trkpt lat="40.8432583" lon="16.2261033"><ele>284.0</ele><time>2026-05-02T13:14:06.701Z</time></trkpt><trkpt lat="40.8433683" lon="16.2257783"><ele>284.0</ele><time>2026-05-02T13:14:07.703Z</time></trkpt><trkpt lat="40.8434767" lon="16.2254517"><ele>281.5</ele><time>2026-05-02T13:14:08.702Z</time></trkpt><trkpt lat="40.8435867" lon="16.225125"><ele>279.0</ele><time>2026-05-02T13:14:09.701Z</time></trkpt><trkpt lat="40.843695" lon="16.2247983"><ele>279.0</ele><time>2026-05-02T13:14:10.703Z</time></trkpt><trkpt lat="40.8438067" lon="16.22447"><ele>279.0</ele><time>2026-05-02T13:14:11.701Z</time></trkpt><trkpt lat="40.8439183" lon="16.2241433"><ele>279.0</ele><time>2026-05-02T13:14:12.701Z</time></trkpt><trkpt lat="40.84403" lon="16.2238133"><ele>279.0</ele><time>2026-05-02T13:14:13.701Z</time></trkpt><trkpt lat="40.84414" lon="16.2234817"><ele>279.0</ele><time>2026-05-02T13:14:14.701Z</time></trkpt><trkpt lat="40.8442483" lon="16.2231517"><ele>279.0</ele><time>2026-05-02T13:14:15.702Z</time></trkpt><trkpt lat="40.8443583" lon="16.222825"><ele>279.5</ele><time>2026-05-02T13:14:16.7Z</time></trkpt><trkpt lat="40.8444667" lon="16.2225"><ele>280.0</ele><time>2026-05-02T13:14:17.703Z</time></trkpt><trkpt lat="40.8445733" lon="16.2221767"><ele>281.0</ele><time>2026-05-02T13:14:18.701Z</time></trkpt><trkpt lat="40.8446817" lon="16.221855"><ele>282.0</ele><time>2026-05-02T13:14:19.702Z</time></trkpt><trkpt lat="40.8447883" lon="16.221535"><ele>284.5</ele><time>2026-05-02T13:14:20.701Z</time></trkpt><trkpt lat="40.8448983" lon="16.2212167"><ele>287.0</ele><time>2026-05-02T13:14:21.701Z</time></trkpt><trkpt lat="40.84501" lon="16.2209017"><ele>289.0</ele><time>2026-05-02T13:14:22.702Z</time></trkpt><trkpt lat="40.8451283" lon="16.2205933"><ele>291.0</ele><time>2026-05-02T13:14:23.702Z</time></trkpt><trkpt lat="40.84525" lon="16.220285"><ele>287.5</ele><time>2026-05-02T13:14:24.701Z</time></trkpt><trkpt lat="40.845375" lon="16.21998"><ele>284.0</ele><time>2026-05-02T13:14:25.703Z</time></trkpt><trkpt lat="40.845505" lon="16.2196683"><ele>284.0</ele><time>2026-05-02T13:14:26.702Z</time></trkpt><trkpt lat="40.8456383" lon="16.2193583"><ele>284.0</ele><time>2026-05-02T13:14:27.701Z</time></trkpt><trkpt lat="40.845775" lon="16.21905"><ele>284.5</ele><time>2026-05-02T13:14:28.7Z</time></trkpt><trkpt lat="40.8459183" lon="16.2187417"><ele>285.0</ele><time>2026-05-02T13:14:29.702Z</time></trkpt><trkpt lat="40.846065" lon="16.2184333"><ele>284.5</ele><time>2026-05-02T13:14:30.701Z</time></trkpt><trkpt lat="40.846215" lon="16.21813"><ele>284.0</ele><time>2026-05-02T13:14:31.701Z</time></trkpt><trkpt lat="40.8463717" lon="16.2178267"><ele>284.0</ele><time>2026-05-02T13:14:32.702Z</time></trkpt><trkpt lat="40.84653" lon="16.2175317"><ele>284.0</ele><time>2026-05-02T13:14:33.702Z</time></trkpt><trkpt lat="40.8466917" lon="16.21724"><ele>284.5</ele><time>2026-05-02T13:14:34.701Z</time></trkpt><trkpt lat="40.846855" lon="16.2169483"><ele>285.0</ele><time>2026-05-02T13:14:35.7Z</time></trkpt><trkpt lat="40.8470167" lon="16.2166617"><ele>286.0</ele><time>2026-05-02T13:14:36.701Z</time></trkpt><trkpt lat="40.8471817" lon="16.21637"><ele>287.0</ele><time>2026-05-02T13:14:37.701Z</time></trkpt><trkpt lat="40.8473483" lon="16.2160783"><ele>287.0</ele><time>2026-05-02T13:14:38.701Z</time></trkpt><trkpt lat="40.8475133" lon="16.215785"><ele>287.0</ele><time>2026-05-02T13:14:39.702Z</time></trkpt><trkpt lat="40.8476783" lon="16.2154917"><ele>285.0</ele><time>2026-05-02T13:14:40.701Z</time></trkpt><trkpt lat="40.847845" lon="16.2151967"><ele>283.0</ele><time>2026-05-02T13:14:41.704Z</time></trkpt><trkpt lat="40.8480117" lon="16.2149017"><ele>284.0</ele><time>2026-05-02T13:14:42.706Z</time></trkpt><trkpt lat="40.8481783" lon="16.21461"><ele>285.0</ele><time>2026-05-02T13:14:43.7Z</time></trkpt><trkpt lat="40.8483433" lon="16.2143167"><ele>285.0</ele><time>2026-05-02T13:14:44.702Z</time></trkpt><trkpt lat="40.84851" lon="16.214025"><ele>285.0</ele><time>2026-05-02T13:14:45.701Z</time></trkpt><trkpt lat="40.8486767" lon="16.213735"><ele>285.0</ele><time>2026-05-02T13:14:46.701Z</time></trkpt><trkpt lat="40.8488433" lon="16.2134433"><ele>285.0</ele><time>2026-05-02T13:14:47.703Z</time></trkpt><trkpt lat="40.8490117" lon="16.21315"><ele>287.0</ele><time>2026-05-02T13:14:48.701Z</time></trkpt><trkpt lat="40.84918" lon="16.212855"><ele>289.0</ele><time>2026-05-02T13:14:49.702Z</time></trkpt><trkpt lat="40.8493483" lon="16.2125567"><ele>286.5</ele><time>2026-05-02T13:14:50.702Z</time></trkpt><trkpt lat="40.8495167" lon="16.2122583"><ele>284.0</ele><time>2026-05-02T13:14:51.702Z</time></trkpt><trkpt lat="40.8496867" lon="16.21196"><ele>284.0</ele><time>2026-05-02T13:14:52.701Z</time></trkpt><trkpt lat="40.8498567" lon="16.2116617"><ele>284.0</ele><time>2026-05-02T13:14:53.701Z</time></trkpt><trkpt lat="40.850025" lon="16.211365"><ele>281.0</ele><time>2026-05-02T13:14:54.702Z</time></trkpt><trkpt lat="40.85019" lon="16.2110717"><ele>278.0</ele><time>2026-05-02T13:14:55.702Z</time></trkpt><trkpt lat="40.850355" lon="16.2107817"><ele>278.5</ele><time>2026-05-02T13:14:56.701Z</time></trkpt><trkpt lat="40.8505133" lon="16.2105033"><ele>279.0</ele><time>2026-05-02T13:14:57.7Z</time></trkpt><trkpt lat="40.85066" lon="16.2102417"><ele>279.0</ele><time>2026-05-02T13:14:58.7Z</time></trkpt><trkpt lat="40.8508017" lon="16.2099933"><ele>279.0</ele><time>2026-05-02T13:14:59.7Z</time></trkpt><trkpt lat="40.8509367" lon="16.2097567"><ele>279.0</ele><time>2026-05-02T13:15:00.699Z</time></trkpt><trkpt lat="40.8510667" lon="16.20953"><ele>279.0</ele><time>2026-05-02T13:15:01.7Z</time></trkpt><trkpt lat="40.851195" lon="16.2093067"><ele>279.0</ele><time>2026-05-02T13:15:02.701Z</time></trkpt><trkpt lat="40.8513183" lon="16.2090867"><ele>280.0</ele><time>2026-05-02T13:15:03.701Z</time></trkpt><trkpt lat="40.851445" lon="16.2088733"><ele>281.0</ele><time>2026-05-02T13:15:04.7Z</time></trkpt><trkpt lat="40.8515667" lon="16.2086633"><ele>282.0</ele><time>2026-05-02T13:15:05.7Z</time></trkpt><trkpt lat="40.8516833" lon="16.2084617"><ele>282.0</ele><time>2026-05-02T13:15:06.7Z</time></trkpt><trkpt lat="40.8517967" lon="16.2082617"><ele>282.0</ele><time>2026-05-02T13:15:07.701Z</time></trkpt><trkpt lat="40.85191" lon="16.2080717"><ele>282.0</ele><time>2026-05-02T13:15:08.701Z</time></trkpt><trkpt lat="40.8520167" lon="16.2078933"><ele>282.0</ele><time>2026-05-02T13:15:09.701Z</time></trkpt><trkpt lat="40.8521117" lon="16.2077317"><ele>282.0</ele><time>2026-05-02T13:15:10.701Z</time></trkpt><trkpt lat="40.8521933" lon="16.2075917"><ele>282.0</ele><time>2026-05-02T13:15:11.701Z</time></trkpt><trkpt lat="40.8522667" lon="16.2074717"><ele>282.0</ele><time>2026-05-02T13:15:12.701Z</time></trkpt><trkpt lat="40.8523417" lon="16.2073683"><ele>282.2</ele><time>2026-05-02T13:15:13.7Z</time></trkpt><trkpt lat="40.8524217" lon="16.207285"><ele>282.4</ele><time>2026-05-02T13:15:14.701Z</time></trkpt><trkpt lat="40.8525067" lon="16.2072217"><ele>282.6</ele><time>2026-05-02T13:15:15.701Z</time></trkpt><trkpt lat="40.8525967" lon="16.2071767"><ele>282.8</ele><time>2026-05-02T13:15:16.7Z</time></trkpt><trkpt lat="40.8526933" lon="16.2071567"><ele>283.0</ele><time>2026-05-02T13:15:17.701Z</time></trkpt><trkpt lat="40.8527967" lon="16.207165"><ele>281.8</ele><time>2026-05-02T13:15:18.701Z</time></trkpt><trkpt lat="40.8528983" lon="16.2072033"><ele>280.6</ele><time>2026-05-02T13:15:19.701Z</time></trkpt><trkpt lat="40.852995" lon="16.2072783"><ele>279.4</ele><time>2026-05-02T13:15:20.701Z</time></trkpt><trkpt lat="40.853075" lon="16.2073817"><ele>278.2</ele><time>2026-05-02T13:15:21.701Z</time></trkpt><trkpt lat="40.853135" lon="16.20751"><ele>277.0</ele><time>2026-05-02T13:15:22.702Z</time></trkpt><trkpt lat="40.85317" lon="16.20765"><ele>276.5</ele><time>2026-05-02T13:15:23.701Z</time></trkpt><trkpt lat="40.8531817" lon="16.2077967"><ele>276.0</ele><time>2026-05-02T13:15:24.703Z</time></trkpt><trkpt lat="40.8531683" lon="16.207945"><ele>275.5</ele><time>2026-05-02T13:15:25.702Z</time></trkpt><trkpt lat="40.8531267" lon="16.2080933"><ele>275.0</ele><time>2026-05-02T13:15:26.703Z</time></trkpt><trkpt lat="40.8530617" lon="16.2082383"><ele>275.0</ele><time>2026-05-02T13:15:27.702Z</time></trkpt><trkpt lat="40.8529733" lon="16.208385"><ele>275.0</ele><time>2026-05-02T13:15:28.703Z</time></trkpt><trkpt lat="40.8528583" lon="16.208535"><ele>275.0</ele><time>2026-05-02T13:15:29.701Z</time></trkpt><trkpt lat="40.8527183" lon="16.2087083"><ele>275.5</ele><time>2026-05-02T13:15:30.701Z</time></trkpt><trkpt lat="40.8525617" lon="16.2089083"><ele>276.0</ele><time>2026-05-02T13:15:31.701Z</time></trkpt><trkpt lat="40.852395" lon="16.2091217"><ele>276.0</ele><time>2026-05-02T13:15:32.702Z</time></trkpt><trkpt lat="40.852225" lon="16.2093417"><ele>276.0</ele><time>2026-05-02T13:15:33.702Z</time></trkpt><trkpt lat="40.8520567" lon="16.2095533"><ele>276.0</ele><time>2026-05-02T13:15:34.702Z</time></trkpt><trkpt lat="40.8519017" lon="16.2097517"><ele>276.0</ele><time>2026-05-02T13:15:35.701Z</time></trkpt><trkpt lat="40.851755" lon="16.2099367"><ele>276.0</ele><time>2026-05-02T13:15:36.702Z</time></trkpt><trkpt lat="40.8516233" lon="16.210105"><ele>276.75</ele><time>2026-05-02T13:15:37.701Z</time></trkpt><trkpt lat="40.8515067" lon="16.2102517"><ele>277.5</ele><time>2026-05-02T13:15:38.703Z</time></trkpt><trkpt lat="40.851405" lon="16.2103783"><ele>278.25</ele><time>2026-05-02T13:15:39.7Z</time></trkpt><trkpt lat="40.8513133" lon="16.2104833"><ele>279.0</ele><time>2026-05-02T13:15:40.701Z</time></trkpt><trkpt lat="40.8512217" lon="16.2105667"><ele>279.0</ele><time>2026-05-02T13:15:41.702Z</time></trkpt><trkpt lat="40.8511217" lon="16.2106233"><ele>279.0</ele><time>2026-05-02T13:15:42.702Z</time></trkpt><trkpt lat="40.8510167" lon="16.2106567"><ele>279.0</ele><time>2026-05-02T13:15:43.7Z</time></trkpt><trkpt lat="40.8509233" lon="16.2106683"><ele>279.0</ele><time>2026-05-02T13:15:44.702Z</time></trkpt><trkpt lat="40.8508483" lon="16.2106567"><ele>279.0</ele><time>2026-05-02T13:15:45.702Z</time></trkpt><trkpt lat="40.8507533" lon="16.210565"><ele>279.0</ele><time>2026-05-02T13:15:47.7Z</time></trkpt><trkpt lat="40.8507233" lon="16.21048"><ele>279.0</ele><time>2026-05-02T13:15:48.7Z</time></trkpt><trkpt lat="40.8506967" lon="16.2103717"><ele>279.0</ele><time>2026-05-02T13:15:49.703Z</time></trkpt><trkpt lat="40.8506667" lon="16.210245"><ele>279.0</ele><time>2026-05-02T13:15:50.702Z</time></trkpt><trkpt lat="40.8506367" lon="16.2101083"><ele>279.0</ele><time>2026-05-02T13:15:51.702Z</time></trkpt><trkpt lat="40.8506017" lon="16.209955"><ele>279.75</ele><time>2026-05-02T13:15:52.701Z</time></trkpt><trkpt lat="40.850575" lon="16.20978"><ele>280.5</ele><time>2026-05-02T13:15:53.701Z</time></trkpt><trkpt lat="40.85057" lon="16.20959"><ele>281.25</ele><time>2026-05-02T13:15:54.702Z</time></trkpt><trkpt lat="40.8505867" lon="16.2093917"><ele>282.0</ele><time>2026-05-02T13:15:55.701Z</time></trkpt><trkpt lat="40.85062" lon="16.2091767"><ele>282.6666666666667</ele><time>2026-05-02T13:15:56.703Z</time></trkpt><trkpt lat="40.850655" lon="16.20893"><ele>283.33333333333337</ele><time>2026-05-02T13:15:57.702Z</time></trkpt><trkpt lat="40.8506833" lon="16.2086633"><ele>284.0</ele><time>2026-05-02T13:15:58.703Z</time></trkpt><trkpt lat="40.8507" lon="16.2083933"><ele>284.33333333333337</ele><time>2026-05-02T13:15:59.7Z</time></trkpt><trkpt lat="40.8507117" lon="16.208125"><ele>284.6666666666667</ele><time>2026-05-02T13:16:00.7Z</time></trkpt><trkpt lat="40.8507283" lon="16.20786"><ele>285.0</ele><time>2026-05-02T13:16:01.701Z</time></trkpt><trkpt lat="40.8507667" lon="16.2075967"><ele>285.0</ele><time>2026-05-02T13:16:02.703Z</time></trkpt><trkpt lat="40.8508367" lon="16.2073333"><ele>285.0</ele><time>2026-05-02T13:16:03.701Z</time></trkpt><trkpt lat="40.8509233" lon="16.2070717"><ele>285.0</ele><time>2026-05-02T13:16:04.702Z</time></trkpt><trkpt lat="40.8510167" lon="16.2068017"><ele>285.5</ele><time>2026-05-02T13:16:05.701Z</time></trkpt><trkpt lat="40.8511117" lon="16.2065217"><ele>286.0</ele><time>2026-05-02T13:16:06.702Z</time></trkpt><trkpt lat="40.8512" lon="16.2062383"><ele>288.0</ele><time>2026-05-02T13:16:07.701Z</time></trkpt><trkpt lat="40.8512733" lon="16.2059567"><ele>290.0</ele><time>2026-05-02T13:16:08.701Z</time></trkpt><trkpt lat="40.851325" lon="16.2056783"><ele>292.0</ele><time>2026-05-02T13:16:09.7Z</time></trkpt><trkpt lat="40.8513533" lon="16.2054033"><ele>293.3333333333333</ele><time>2026-05-02T13:16:10.702Z</time></trkpt><trkpt lat="40.85136" lon="16.2051467"><ele>294.6666666666667</ele><time>2026-05-02T13:16:11.701Z</time></trkpt><trkpt lat="40.85135" lon="16.204915"><ele>296.0</ele><time>2026-05-02T13:16:12.701Z</time></trkpt><trkpt lat="40.8513233" lon="16.204705"><ele>297.25</ele><time>2026-05-02T13:16:13.701Z</time></trkpt><trkpt lat="40.85129" lon="16.2045067"><ele>298.5</ele><time>2026-05-02T13:16:14.701Z</time></trkpt><trkpt lat="40.851265" lon="16.204315"><ele>299.75</ele><time>2026-05-02T13:16:15.702Z</time></trkpt><trkpt lat="40.85126" lon="16.2041283"><ele>301.0</ele><time>2026-05-02T13:16:16.702Z</time></trkpt><trkpt lat="40.85128" lon="16.20395"><ele>301.0</ele><time>2026-05-02T13:16:17.7Z</time></trkpt><trkpt lat="40.8513217" lon="16.2037867"><ele>301.0</ele><time>2026-05-02T13:16:18.701Z</time></trkpt><trkpt lat="40.851385" lon="16.2036417"><ele>301.0</ele><time>2026-05-02T13:16:19.701Z</time></trkpt><trkpt lat="40.8514683" lon="16.2034983"><ele>301.0</ele><time>2026-05-02T13:16:20.701Z</time></trkpt><trkpt lat="40.85156" lon="16.2033517"><ele>301.0</ele><time>2026-05-02T13:16:21.701Z</time></trkpt><trkpt lat="40.8516467" lon="16.2032133"><ele>301.0</ele><time>2026-05-02T13:16:22.702Z</time></trkpt><trkpt lat="40.8517183" lon="16.20308"><ele>301.0</ele><time>2026-05-02T13:16:23.702Z</time></trkpt><trkpt lat="40.8517683" lon="16.2029483"><ele>301.0</ele><time>2026-05-02T13:16:24.701Z</time></trkpt><trkpt lat="40.8518" lon="16.2028067"><ele>301.0</ele><time>2026-05-02T13:16:25.702Z</time></trkpt><trkpt lat="40.8518117" lon="16.2026633"><ele>301.0</ele><time>2026-05-02T13:16:26.702Z</time></trkpt><trkpt lat="40.8517967" lon="16.2025233"><ele>301.0</ele><time>2026-05-02T13:16:27.702Z</time></trkpt><trkpt lat="40.851755" lon="16.2023883"><ele>301.0</ele><time>2026-05-02T13:16:28.701Z</time></trkpt><trkpt lat="40.85169" lon="16.2022667"><ele>301.0</ele><time>2026-05-02T13:16:29.701Z</time></trkpt><trkpt lat="40.8516017" lon="16.2021683"><ele>302.5</ele><time>2026-05-02T13:16:30.701Z</time></trkpt><trkpt lat="40.8515" lon="16.2020967"><ele>304.0</ele><time>2026-05-02T13:16:31.701Z</time></trkpt><trkpt lat="40.8513867" lon="16.2020467"><ele>305.5</ele><time>2026-05-02T13:16:32.703Z</time></trkpt><trkpt lat="40.8512717" lon="16.2020117"><ele>307.0</ele><time>2026-05-02T13:16:33.701Z</time></trkpt><trkpt lat="40.8511583" lon="16.201985"><ele>307.0</ele><time>2026-05-02T13:16:34.703Z</time></trkpt><trkpt lat="40.8510467" lon="16.2019567"><ele>307.0</ele><time>2026-05-02T13:16:35.702Z</time></trkpt><trkpt lat="40.8509267" lon="16.2019183"><ele>307.0</ele><time>2026-05-02T13:16:36.702Z</time></trkpt><trkpt lat="40.8508083" lon="16.2018717"><ele>307.0</ele><time>2026-05-02T13:16:37.703Z</time></trkpt><trkpt lat="40.8507033" lon="16.20182"><ele>306.75</ele><time>2026-05-02T13:16:38.707Z</time></trkpt><trkpt lat="40.85061" lon="16.2017567"><ele>306.5</ele><time>2026-05-02T13:16:39.701Z</time></trkpt><trkpt lat="40.8505183" lon="16.2016683"><ele>306.25</ele><time>2026-05-02T13:16:40.704Z</time></trkpt><trkpt lat="40.8504233" lon="16.2015483"><ele>306.0</ele><time>2026-05-02T13:16:41.702Z</time></trkpt><trkpt lat="40.8503233" lon="16.201405"><ele>308.0</ele><time>2026-05-02T13:16:42.702Z</time></trkpt><trkpt lat="40.850225" lon="16.2012583"><ele>310.0</ele><time>2026-05-02T13:16:43.702Z</time></trkpt><trkpt lat="40.8501267" lon="16.20111"><ele>312.0</ele><time>2026-05-02T13:16:44.701Z</time></trkpt><trkpt lat="40.8500217" lon="16.2009533"><ele>312.0</ele><time>2026-05-02T13:16:45.7Z</time></trkpt><trkpt lat="40.8499133" lon="16.200795"><ele>312.0</ele><time>2026-05-02T13:16:46.701Z</time></trkpt><trkpt lat="40.84981" lon="16.2006483"><ele>312.0</ele><time>2026-05-02T13:16:47.701Z</time></trkpt><trkpt lat="40.84971" lon="16.2005083"><ele>313.25</ele><time>2026-05-02T13:16:48.702Z</time></trkpt><trkpt lat="40.8496133" lon="16.20037"><ele>314.5</ele><time>2026-05-02T13:16:49.702Z</time></trkpt><trkpt lat="40.849515" lon="16.20023"><ele>315.75</ele><time>2026-05-02T13:16:50.701Z</time></trkpt><trkpt lat="40.8494117" lon="16.20009"><ele>317.0</ele><time>2026-05-02T13:16:51.702Z</time></trkpt><trkpt lat="40.8493083" lon="16.1999533"><ele>316.5</ele><time>2026-05-02T13:16:52.702Z</time></trkpt><trkpt lat="40.8492183" lon="16.1998267"><ele>316.0</ele><time>2026-05-02T13:16:53.702Z</time></trkpt><trkpt lat="40.8491383" lon="16.199705"><ele>315.5</ele><time>2026-05-02T13:16:54.702Z</time></trkpt><trkpt lat="40.8490633" lon="16.1995783"><ele>315.0</ele><time>2026-05-02T13:16:55.702Z</time></trkpt><trkpt lat="40.8489967" lon="16.1994433"><ele>315.0</ele><time>2026-05-02T13:16:56.703Z</time></trkpt><trkpt lat="40.8489483" lon="16.1993017"><ele>315.0</ele><time>2026-05-02T13:16:57.7Z</time></trkpt><trkpt lat="40.84891" lon="16.1991417"><ele>315.0</ele><time>2026-05-02T13:16:58.702Z</time></trkpt><trkpt lat="40.848875" lon="16.1989583"><ele>315.0</ele><time>2026-05-02T13:16:59.702Z</time></trkpt><trkpt lat="40.8488383" lon="16.1987433"><ele>317.3333333333333</ele><time>2026-05-02T13:17:00.702Z</time></trkpt><trkpt lat="40.8487967" lon="16.198505"><ele>319.66666666666663</ele><time>2026-05-02T13:17:01.702Z</time></trkpt><trkpt lat="40.8487567" lon="16.1982733"><ele>322.0</ele><time>2026-05-02T13:17:02.702Z</time></trkpt><trkpt lat="40.84872" lon="16.1980683"><ele>323.0</ele><time>2026-05-02T13:17:03.701Z</time></trkpt><trkpt lat="40.84869" lon="16.1978883"><ele>324.0</ele><time>2026-05-02T13:17:04.703Z</time></trkpt><trkpt lat="40.8486633" lon="16.1977233"><ele>325.0</ele><time>2026-05-02T13:17:05.701Z</time></trkpt><trkpt lat="40.8486283" lon="16.1975633"><ele>326.0</ele><time>2026-05-02T13:17:06.701Z</time></trkpt><trkpt lat="40.8485833" lon="16.1973917"><ele>327.33333333333337</ele><time>2026-05-02T13:17:07.702Z</time></trkpt><trkpt lat="40.848535" lon="16.1972083"><ele>328.6666666666667</ele><time>2026-05-02T13:17:08.702Z</time></trkpt><trkpt lat="40.8484883" lon="16.1970133"><ele>330.0</ele><time>2026-05-02T13:17:09.7Z</time></trkpt><trkpt lat="40.8484483" lon="16.1968117"><ele>327.3333333333333</ele><time>2026-05-02T13:17:10.702Z</time></trkpt><trkpt lat="40.8484167" lon="16.1966033"><ele>324.66666666666663</ele><time>2026-05-02T13:17:11.702Z</time></trkpt><trkpt lat="40.848385" lon="16.1963883"><ele>322.0</ele><time>2026-05-02T13:17:12.702Z</time></trkpt><trkpt lat="40.8483567" lon="16.1961767"><ele>322.0</ele><time>2026-05-02T13:17:13.701Z</time></trkpt><trkpt lat="40.8483283" lon="16.1959717"><ele>322.0</ele><time>2026-05-02T13:17:14.702Z</time></trkpt><trkpt lat="40.8482983" lon="16.1957683"><ele>322.0</ele><time>2026-05-02T13:17:15.701Z</time></trkpt><trkpt lat="40.8482617" lon="16.1955583"><ele>323.5</ele><time>2026-05-02T13:17:16.7Z</time></trkpt><trkpt lat="40.8482183" lon="16.195355"><ele>325.0</ele><time>2026-05-02T13:17:17.701Z</time></trkpt><trkpt lat="40.8481767" lon="16.1951683"><ele>326.5</ele><time>2026-05-02T13:17:18.7Z</time></trkpt><trkpt lat="40.8481467" lon="16.19502"><ele>328.0</ele><time>2026-05-02T13:17:19.702Z</time></trkpt><trkpt lat="40.8481267" lon="16.1949"><ele>328.79999999999995</ele><time>2026-05-02T13:17:20.701Z</time></trkpt><trkpt lat="40.8481083" lon="16.1948"><ele>329.6</ele><time>2026-05-02T13:17:21.701Z</time></trkpt><trkpt lat="40.84808" lon="16.1946967"><ele>330.4</ele><time>2026-05-02T13:17:22.701Z</time></trkpt><trkpt lat="40.848035" lon="16.1945667"><ele>331.20000000000005</ele><time>2026-05-02T13:17:23.701Z</time></trkpt><trkpt lat="40.8479883" lon="16.1944133"><ele>332.0</ele><time>2026-05-02T13:17:24.7Z</time></trkpt><trkpt lat="40.84795" lon="16.1942417"><ele>332.0</ele><time>2026-05-02T13:17:25.701Z</time></trkpt><trkpt lat="40.8479167" lon="16.1940633"><ele>332.0</ele><time>2026-05-02T13:17:26.702Z</time></trkpt><trkpt lat="40.8478867" lon="16.193885"><ele>332.0</ele><time>2026-05-02T13:17:27.701Z</time></trkpt><trkpt lat="40.8478617" lon="16.1937117"><ele>332.0</ele><time>2026-05-02T13:17:28.701Z</time></trkpt><trkpt lat="40.8478383" lon="16.1935517"><ele>333.75</ele><time>2026-05-02T13:17:29.702Z</time></trkpt><trkpt lat="40.8478067" lon="16.1933983"><ele>335.5</ele><time>2026-05-02T13:17:30.703Z</time></trkpt><trkpt lat="40.8477667" lon="16.193245"><ele>337.25</ele><time>2026-05-02T13:17:31.701Z</time></trkpt><trkpt lat="40.8477217" lon="16.1930867"><ele>339.0</ele><time>2026-05-02T13:17:32.702Z</time></trkpt><trkpt lat="40.8476667" lon="16.1929317"><ele>337.5</ele><time>2026-05-02T13:17:33.7Z</time></trkpt><trkpt lat="40.8476133" lon="16.19279"><ele>336.0</ele><time>2026-05-02T13:17:34.701Z</time></trkpt><trkpt lat="40.8475767" lon="16.19265"><ele>334.5</ele><time>2026-05-02T13:17:35.701Z</time></trkpt><trkpt lat="40.8475483" lon="16.1925033"><ele>333.0</ele><time>2026-05-02T13:17:36.7Z</time></trkpt><trkpt lat="40.8475233" lon="16.192355"><ele>333.59999999999997</ele><time>2026-05-02T13:17:37.701Z</time></trkpt><trkpt lat="40.8475017" lon="16.19221"><ele>334.2</ele><time>2026-05-02T13:17:38.702Z</time></trkpt><trkpt lat="40.8474767" lon="16.1920683"><ele>334.8</ele><time>2026-05-02T13:17:39.7Z</time></trkpt><trkpt lat="40.8474517" lon="16.19193"><ele>335.4</ele><time>2026-05-02T13:17:40.7Z</time></trkpt><trkpt lat="40.8474367" lon="16.1917933"><ele>336.0</ele><time>2026-05-02T13:17:41.699Z</time></trkpt><trkpt lat="40.8474317" lon="16.1916483"><ele>337.75</ele><time>2026-05-02T13:17:42.7Z</time></trkpt><trkpt lat="40.8474483" lon="16.191505"><ele>339.5</ele><time>2026-05-02T13:17:43.702Z</time></trkpt><trkpt lat="40.8474683" lon="16.191355"><ele>341.25</ele><time>2026-05-02T13:17:44.703Z</time></trkpt><trkpt lat="40.8474833" lon="16.1912033"><ele>343.0</ele><time>2026-05-02T13:17:45.702Z</time></trkpt><trkpt lat="40.8475" lon="16.19105"><ele>343.0</ele><time>2026-05-02T13:17:46.7Z</time></trkpt><trkpt lat="40.84752" lon="16.190885"><ele>343.0</ele><time>2026-05-02T13:17:47.701Z</time></trkpt><trkpt lat="40.8475467" lon="16.1906933"><ele>343.0</ele><time>2026-05-02T13:17:48.7Z</time></trkpt><trkpt lat="40.8475767" lon="16.1904817"><ele>343.0</ele><time>2026-05-02T13:17:49.702Z</time></trkpt><trkpt lat="40.84761" lon="16.1902567"><ele>345.3333333333333</ele><time>2026-05-02T13:17:50.703Z</time></trkpt><trkpt lat="40.847645" lon="16.1900267"><ele>347.6666666666667</ele><time>2026-05-02T13:17:51.703Z</time></trkpt><trkpt lat="40.8476783" lon="16.1898117"><ele>350.0</ele><time>2026-05-02T13:17:52.702Z</time></trkpt><trkpt lat="40.8477083" lon="16.1896017"><ele>351.33333333333337</ele><time>2026-05-02T13:17:53.702Z</time></trkpt><trkpt lat="40.847735" lon="16.1893917"><ele>352.6666666666667</ele><time>2026-05-02T13:17:54.7Z</time></trkpt><trkpt lat="40.8477583" lon="16.1891867"><ele>354.0</ele><time>2026-05-02T13:17:55.702Z</time></trkpt><trkpt lat="40.8477783" lon="16.1889917"><ele>354.5</ele><time>2026-05-02T13:17:56.701Z</time></trkpt><trkpt lat="40.8477983" lon="16.1887967"><ele>355.0</ele><time>2026-05-02T13:17:57.7Z</time></trkpt><trkpt lat="40.8478233" lon="16.1885967"><ele>355.5</ele><time>2026-05-02T13:17:58.7Z</time></trkpt><trkpt lat="40.84785" lon="16.1884083"><ele>356.0</ele><time>2026-05-02T13:17:59.701Z</time></trkpt><trkpt lat="40.8478733" lon="16.188225"><ele>356.5</ele><time>2026-05-02T13:18:00.702Z</time></trkpt><trkpt lat="40.847895" lon="16.1880383"><ele>357.0</ele><time>2026-05-02T13:18:01.7Z</time></trkpt><trkpt lat="40.847915" lon="16.1878517"><ele>357.5</ele><time>2026-05-02T13:18:02.702Z</time></trkpt><trkpt lat="40.8479383" lon="16.187665"><ele>358.0</ele><time>2026-05-02T13:18:03.701Z</time></trkpt><trkpt lat="40.847965" lon="16.1874783"><ele>358.5</ele><time>2026-05-02T13:18:04.701Z</time></trkpt><trkpt lat="40.8479917" lon="16.187295"><ele>359.0</ele><time>2026-05-02T13:18:05.701Z</time></trkpt><trkpt lat="40.8480186" lon="16.1871113"><ele>359.5</ele><time>2026-05-02T13:18:06.701Z</time></trkpt><trkpt lat="40.8480516" lon="16.1869222"><ele>360.0</ele><time>2026-05-02T13:18:07.702Z</time></trkpt><trkpt lat="40.8480845" lon="16.1867292"><ele>360.0</ele><time>2026-05-02T13:18:08.702Z</time></trkpt><trkpt lat="40.8481103" lon="16.1865555"><ele>360.0</ele><time>2026-05-02T13:18:09.702Z</time></trkpt><trkpt lat="40.8481341" lon="16.1864014"><ele>360.0</ele><time>2026-05-02T13:18:10.703Z</time></trkpt><trkpt lat="40.8481614" lon="16.1862677"><ele>360.0</ele><time>2026-05-02T13:18:11.7Z</time></trkpt><trkpt lat="40.8481856" lon="16.1861508"><ele>360.0</ele><time>2026-05-02T13:18:12.7Z</time></trkpt><trkpt lat="40.8482047" lon="16.1860581"><ele>360.0</ele><time>2026-05-02T13:18:13.702Z</time></trkpt><trkpt lat="40.8482261" lon="16.1859217"><ele>360.0</ele><time>2026-05-02T13:18:15.7Z</time></trkpt><trkpt lat="40.8482022" lon="16.185809"><ele>360.0</ele><time>2026-05-02T13:18:17.701Z</time></trkpt><trkpt lat="40.8481542" lon="16.185653"><ele>360.0</ele><time>2026-05-02T13:18:19.7Z</time></trkpt><trkpt lat="40.848137" lon="16.1855598"><ele>360.0</ele><time>2026-05-02T13:18:20.701Z</time></trkpt><trkpt lat="40.8481213" lon="16.1854465"><ele>360.3333333333333</ele><time>2026-05-02T13:18:21.7Z</time></trkpt><trkpt lat="40.8481072" lon="16.185327"><ele>360.6666666666667</ele><time>2026-05-02T13:18:22.701Z</time></trkpt><trkpt lat="40.8480982" lon="16.1852233"><ele>361.0</ele><time>2026-05-02T13:18:23.702Z</time></trkpt><trkpt lat="40.8480919" lon="16.185127"><ele>361.33333333333337</ele><time>2026-05-02T13:18:24.701Z</time></trkpt><trkpt lat="40.8480899" lon="16.1850368"><ele>361.6666666666667</ele><time>2026-05-02T13:18:25.7Z</time></trkpt><trkpt lat="40.8481" lon="16.1848871"><ele>362.0</ele><time>2026-05-02T13:18:27.7Z</time></trkpt><trkpt lat="40.8480752" lon="16.1847493"><ele>362.83333333333337</ele><time>2026-05-02T13:18:29.702Z</time></trkpt><trkpt lat="40.8480349" lon="16.184632"><ele>363.6666666666667</ele><time>2026-05-02T13:18:31.701Z</time></trkpt><trkpt lat="40.847978" lon="16.184544"><ele>364.5</ele><time>2026-05-02T13:18:33.701Z</time></trkpt><trkpt lat="40.8479195" lon="16.1845035"><ele>365.3333333333333</ele><time>2026-05-02T13:18:35.701Z</time></trkpt><trkpt lat="40.8478448" lon="16.1845531"><ele>366.16666666666663</ele><time>2026-05-02T13:18:37.7Z</time></trkpt><trkpt lat="40.847775" lon="16.1846401"><ele>367.0</ele><time>2026-05-02T13:18:39.701Z</time></trkpt><trkpt lat="40.8476867" lon="16.1847017"><ele>366.0</ele><time>2026-05-02T13:18:57.702Z</time></trkpt><trkpt lat="40.8476233" lon="16.1847283"><ele>365.0</ele><time>2026-05-02T13:18:58.702Z</time></trkpt><trkpt lat="40.847545" lon="16.1847617"><ele>364.0</ele><time>2026-05-02T13:18:59.702Z</time></trkpt><trkpt lat="40.8474467" lon="16.1848033"><ele>363.0</ele><time>2026-05-02T13:19:00.701Z</time></trkpt><trkpt lat="40.847335" lon="16.1848333"><ele>362.0</ele><time>2026-05-02T13:19:01.701Z</time></trkpt><trkpt lat="40.8472083" lon="16.1848567"><ele>362.0</ele><time>2026-05-02T13:19:02.701Z</time></trkpt><trkpt lat="40.8470683" lon="16.184875"><ele>362.0</ele><time>2026-05-02T13:19:03.701Z</time></trkpt><trkpt lat="40.846905" lon="16.184895"><ele>362.0</ele><time>2026-05-02T13:19:04.701Z</time></trkpt><trkpt lat="40.8467283" lon="16.1849117"><ele>361.0</ele><time>2026-05-02T13:19:05.702Z</time></trkpt><trkpt lat="40.8465583" lon="16.1849083"><ele>360.0</ele><time>2026-05-02T13:19:06.702Z</time></trkpt><trkpt lat="40.8464" lon="16.1848883"><ele>359.0</ele><time>2026-05-02T13:19:07.703Z</time></trkpt><trkpt lat="40.8462517" lon="16.184865"><ele>359.0</ele><time>2026-05-02T13:19:08.703Z</time></trkpt><trkpt lat="40.8461117" lon="16.1848567"><ele>359.0</ele><time>2026-05-02T13:19:09.703Z</time></trkpt><trkpt lat="40.8459717" lon="16.1848667"><ele>359.0</ele><time>2026-05-02T13:19:10.701Z</time></trkpt><trkpt lat="40.84583" lon="16.1849"><ele>359.0</ele><time>2026-05-02T13:19:11.703Z</time></trkpt><trkpt lat="40.845685" lon="16.1849583"><ele>358.6666666666667</ele><time>2026-05-02T13:19:12.701Z</time></trkpt><trkpt lat="40.84554" lon="16.1850417"><ele>358.3333333333333</ele><time>2026-05-02T13:19:13.702Z</time></trkpt><trkpt lat="40.845385" lon="16.18515"><ele>358.0</ele><time>2026-05-02T13:19:14.702Z</time></trkpt><trkpt lat="40.84523" lon="16.1852683"><ele>360.66666666666663</ele><time>2026-05-02T13:19:15.702Z</time></trkpt><trkpt lat="40.845085" lon="16.1853883"><ele>363.3333333333333</ele><time>2026-05-02T13:19:16.7Z</time></trkpt><trkpt lat="40.8449467" lon="16.185505"><ele>366.0</ele><time>2026-05-02T13:19:17.7Z</time></trkpt><trkpt lat="40.8448117" lon="16.1856083"><ele>362.6666666666667</ele><time>2026-05-02T13:19:18.701Z</time></trkpt><trkpt lat="40.8446667" lon="16.1857117"><ele>359.33333333333337</ele><time>2026-05-02T13:19:19.701Z</time></trkpt><trkpt lat="40.8445183" lon="16.1858133"><ele>356.0</ele><time>2026-05-02T13:19:20.702Z</time></trkpt><trkpt lat="40.8443767" lon="16.1859167"><ele>357.33333333333337</ele><time>2026-05-02T13:19:21.7Z</time></trkpt><trkpt lat="40.8442367" lon="16.1860183"><ele>358.6666666666667</ele><time>2026-05-02T13:19:22.701Z</time></trkpt><trkpt lat="40.8440967" lon="16.18611"><ele>360.0</ele><time>2026-05-02T13:19:23.701Z</time></trkpt><trkpt lat="40.8439567" lon="16.1861867"><ele>360.0</ele><time>2026-05-02T13:19:24.701Z</time></trkpt><trkpt lat="40.8438167" lon="16.1862583"><ele>360.0</ele><time>2026-05-02T13:19:25.7Z</time></trkpt><trkpt lat="40.8436717" lon="16.186335"><ele>360.0</ele><time>2026-05-02T13:19:26.703Z</time></trkpt><trkpt lat="40.8435217" lon="16.1864117"><ele>359.3333333333333</ele><time>2026-05-02T13:19:27.7Z</time></trkpt><trkpt lat="40.8433717" lon="16.1864867"><ele>358.66666666666663</ele><time>2026-05-02T13:19:28.7Z</time></trkpt><trkpt lat="40.8432167" lon="16.1865567"><ele>358.0</ele><time>2026-05-02T13:19:29.701Z</time></trkpt><trkpt lat="40.843055" lon="16.1866133"><ele>355.3333333333333</ele><time>2026-05-02T13:19:30.701Z</time></trkpt><trkpt lat="40.84289" lon="16.1866617"><ele>352.6666666666667</ele><time>2026-05-02T13:19:31.701Z</time></trkpt><trkpt lat="40.8427183" lon="16.1867"><ele>350.0</ele><time>2026-05-02T13:19:32.701Z</time></trkpt><trkpt lat="40.842545" lon="16.1867283"><ele>349.6666666666667</ele><time>2026-05-02T13:19:33.701Z</time></trkpt><trkpt lat="40.8423783" lon="16.1867433"><ele>349.3333333333333</ele><time>2026-05-02T13:19:34.701Z</time></trkpt><trkpt lat="40.8422183" lon="16.1867533"><ele>349.0</ele><time>2026-05-02T13:19:35.701Z</time></trkpt><trkpt lat="40.8420633" lon="16.1867633"><ele>349.0</ele><time>2026-05-02T13:19:36.701Z</time></trkpt><trkpt lat="40.8419167" lon="16.18678"><ele>349.0</ele><time>2026-05-02T13:19:37.702Z</time></trkpt><trkpt lat="40.8417767" lon="16.1868"><ele>349.0</ele><time>2026-05-02T13:19:38.702Z</time></trkpt><trkpt lat="40.8416483" lon="16.1868167"><ele>349.0</ele><time>2026-05-02T13:19:39.701Z</time></trkpt><trkpt lat="40.8415267" lon="16.1868217"><ele>347.5</ele><time>2026-05-02T13:19:40.701Z</time></trkpt><trkpt lat="40.841405" lon="16.186815"><ele>346.0</ele><time>2026-05-02T13:19:41.7Z</time></trkpt><trkpt lat="40.84128" lon="16.1867917"><ele>344.5</ele><time>2026-05-02T13:19:42.701Z</time></trkpt><trkpt lat="40.84116" lon="16.1867483"><ele>343.0</ele><time>2026-05-02T13:19:43.705Z</time></trkpt><trkpt lat="40.8410517" lon="16.1866867"><ele>341.79999999999995</ele><time>2026-05-02T13:19:44.704Z</time></trkpt><trkpt lat="40.8409617" lon="16.186615"><ele>340.6</ele><time>2026-05-02T13:19:45.701Z</time></trkpt><trkpt lat="40.8408883" lon="16.1865333"><ele>339.4</ele><time>2026-05-02T13:19:46.701Z</time></trkpt><trkpt lat="40.8408217" lon="16.1864383"><ele>338.20000000000005</ele><time>2026-05-02T13:19:47.702Z</time></trkpt><trkpt lat="40.8407617" lon="16.1863317"><ele>337.0</ele><time>2026-05-02T13:19:48.701Z</time></trkpt><trkpt lat="40.8407133" lon="16.186215"><ele>337.0</ele><time>2026-05-02T13:19:49.7Z</time></trkpt><trkpt lat="40.8406783" lon="16.1860867"><ele>337.0</ele><time>2026-05-02T13:19:50.702Z</time></trkpt><trkpt lat="40.8406567" lon="16.1859383"><ele>337.0</ele><time>2026-05-02T13:19:51.707Z</time></trkpt><trkpt lat="40.8406517" lon="16.1857683"><ele>337.0</ele><time>2026-05-02T13:19:52.701Z</time></trkpt><trkpt lat="40.8406517" lon="16.1855717"><ele>338.66666666666663</ele><time>2026-05-02T13:19:53.702Z</time></trkpt><trkpt lat="40.8406517" lon="16.18535"><ele>340.3333333333333</ele><time>2026-05-02T13:19:54.7Z</time></trkpt><trkpt lat="40.84065" lon="16.1851033"><ele>342.0</ele><time>2026-05-02T13:19:55.701Z</time></trkpt><trkpt lat="40.8406517" lon="16.1848417"><ele>343.0</ele><time>2026-05-02T13:19:56.703Z</time></trkpt><trkpt lat="40.8406517" lon="16.18457"><ele>344.0</ele><time>2026-05-02T13:19:57.7Z</time></trkpt><trkpt lat="40.84065" lon="16.184295"><ele>345.0</ele><time>2026-05-02T13:19:58.701Z</time></trkpt><trkpt lat="40.84065" lon="16.18402"><ele>346.0</ele><time>2026-05-02T13:19:59.702Z</time></trkpt><trkpt lat="40.8406483" lon="16.1837667"><ele>347.0</ele><time>2026-05-02T13:20:00.701Z</time></trkpt><trkpt lat="40.8406483" lon="16.1835417"><ele>348.0</ele><time>2026-05-02T13:20:01.702Z</time></trkpt><trkpt lat="40.8406533" lon="16.1833333"><ele>348.6666666666667</ele><time>2026-05-02T13:20:02.701Z</time></trkpt><trkpt lat="40.8406733" lon="16.1831333"><ele>349.33333333333337</ele><time>2026-05-02T13:20:03.705Z</time></trkpt><trkpt lat="40.84071" lon="16.1829333"><ele>350.0</ele><time>2026-05-02T13:20:04.702Z</time></trkpt><trkpt lat="40.8407717" lon="16.1827317"><ele>350.0</ele><time>2026-05-02T13:20:05.701Z</time></trkpt><trkpt lat="40.8408517" lon="16.182535"><ele>350.0</ele><time>2026-05-02T13:20:06.701Z</time></trkpt><trkpt lat="40.840955" lon="16.1823367"><ele>350.0</ele><time>2026-05-02T13:20:07.701Z</time></trkpt><trkpt lat="40.8410717" lon="16.18213"><ele>351.0</ele><time>2026-05-02T13:20:08.702Z</time></trkpt><trkpt lat="40.8411833" lon="16.1819217"><ele>352.0</ele><time>2026-05-02T13:20:09.7Z</time></trkpt><trkpt lat="40.841295" lon="16.18172"><ele>353.0</ele><time>2026-05-02T13:20:10.705Z</time></trkpt><trkpt lat="40.8413967" lon="16.181535"><ele>351.75</ele><time>2026-05-02T13:20:11.702Z</time></trkpt><trkpt lat="40.8414833" lon="16.1813767"><ele>350.5</ele><time>2026-05-02T13:20:12.701Z</time></trkpt><trkpt lat="40.8415517" lon="16.181245"><ele>349.25</ele><time>2026-05-02T13:20:13.7Z</time></trkpt><trkpt lat="40.8416117" lon="16.18113"><ele>348.0</ele><time>2026-05-02T13:20:14.702Z</time></trkpt><trkpt lat="40.8416633" lon="16.1810317"><ele>348.0</ele><time>2026-05-02T13:20:15.702Z</time></trkpt><trkpt lat="40.841705" lon="16.1809467"><ele>348.0</ele><time>2026-05-02T13:20:16.702Z</time></trkpt><trkpt lat="40.841745" lon="16.1808683"><ele>348.0</ele><time>2026-05-02T13:20:17.701Z</time></trkpt><trkpt lat="40.84179" lon="16.18079"><ele>348.0</ele><time>2026-05-02T13:20:18.701Z</time></trkpt><trkpt lat="40.8418433" lon="16.1806967"><ele>348.0</ele><time>2026-05-02T13:20:19.702Z</time></trkpt><trkpt lat="40.84191" lon="16.1805817"><ele>348.0</ele><time>2026-05-02T13:20:20.701Z</time></trkpt><trkpt lat="40.8419883" lon="16.1804467"><ele>349.0</ele><time>2026-05-02T13:20:21.7Z</time></trkpt><trkpt lat="40.8420667" lon="16.1803033"><ele>350.0</ele><time>2026-05-02T13:20:22.7Z</time></trkpt><trkpt lat="40.8421383" lon="16.1801633"><ele>351.0</ele><time>2026-05-02T13:20:23.7Z</time></trkpt><trkpt lat="40.84218" lon="16.1800267"><ele>352.0</ele><time>2026-05-02T13:20:24.7Z</time></trkpt><trkpt lat="40.8421983" lon="16.179885"><ele>350.5</ele><time>2026-05-02T13:20:25.702Z</time></trkpt><trkpt lat="40.8421933" lon="16.1797283"><ele>349.0</ele><time>2026-05-02T13:20:26.702Z</time></trkpt><trkpt lat="40.8421633" lon="16.1795567"><ele>347.5</ele><time>2026-05-02T13:20:27.701Z</time></trkpt><trkpt lat="40.8421183" lon="16.179365"><ele>346.0</ele><time>2026-05-02T13:20:28.701Z</time></trkpt><trkpt lat="40.8420633" lon="16.1791533"><ele>346.3333333333333</ele><time>2026-05-02T13:20:29.701Z</time></trkpt><trkpt lat="40.8420033" lon="16.1789117"><ele>346.6666666666667</ele><time>2026-05-02T13:20:30.7Z</time></trkpt><trkpt lat="40.8419367" lon="16.1786483"><ele>347.0</ele><time>2026-05-02T13:20:31.701Z</time></trkpt><trkpt lat="40.8418667" lon="16.1783767"><ele>348.33333333333337</ele><time>2026-05-02T13:20:32.702Z</time></trkpt><trkpt lat="40.8418" lon="16.1781"><ele>349.6666666666667</ele><time>2026-05-02T13:20:33.7Z</time></trkpt><trkpt lat="40.8417317" lon="16.1778133"><ele>351.0</ele><time>2026-05-02T13:20:34.701Z</time></trkpt><trkpt lat="40.84166" lon="16.1775217"><ele>351.5</ele><time>2026-05-02T13:20:35.702Z</time></trkpt><trkpt lat="40.8415867" lon="16.1772283"><ele>352.0</ele><time>2026-05-02T13:20:36.701Z</time></trkpt><trkpt lat="40.8415133" lon="16.1769483"><ele>352.0</ele><time>2026-05-02T13:20:37.702Z</time></trkpt><trkpt lat="40.8414467" lon="16.1766883"><ele>352.0</ele><time>2026-05-02T13:20:38.702Z</time></trkpt><trkpt lat="40.841385" lon="16.1764433"><ele>352.0</ele><time>2026-05-02T13:20:39.703Z</time></trkpt><trkpt lat="40.8413283" lon="16.1762"><ele>353.0</ele><time>2026-05-02T13:20:40.701Z</time></trkpt><trkpt lat="40.8412733" lon="16.1759567"><ele>354.0</ele><time>2026-05-02T13:20:41.701Z</time></trkpt><trkpt lat="40.8412133" lon="16.175705"><ele>355.0</ele><time>2026-05-02T13:20:42.701Z</time></trkpt><trkpt lat="40.8411467" lon="16.1754433"><ele>356.0</ele><time>2026-05-02T13:20:43.701Z</time></trkpt><trkpt lat="40.841075" lon="16.1751683"><ele>357.0</ele><time>2026-05-02T13:20:44.702Z</time></trkpt><trkpt lat="40.8410033" lon="16.1748867"><ele>358.0</ele><time>2026-05-02T13:20:45.701Z</time></trkpt><trkpt lat="40.840935" lon="16.17462"><ele>361.3333333333333</ele><time>2026-05-02T13:20:46.701Z</time></trkpt><trkpt lat="40.8408733" lon="16.1743767"><ele>364.6666666666667</ele><time>2026-05-02T13:20:47.701Z</time></trkpt><trkpt lat="40.8408133" lon="16.174155"><ele>368.0</ele><time>2026-05-02T13:20:48.7Z</time></trkpt><trkpt lat="40.8407433" lon="16.1739567"><ele>368.33333333333337</ele><time>2026-05-02T13:20:49.702Z</time></trkpt><trkpt lat="40.84066" lon="16.1737833"><ele>368.6666666666667</ele><time>2026-05-02T13:20:50.701Z</time></trkpt><trkpt lat="40.8405567" lon="16.1736283"><ele>369.0</ele><time>2026-05-02T13:20:51.702Z</time></trkpt><trkpt lat="40.8404333" lon="16.1734833"><ele>369.0</ele><time>2026-05-02T13:20:52.701Z</time></trkpt><trkpt lat="40.8402883" lon="16.1733317"><ele>369.0</ele><time>2026-05-02T13:20:53.701Z</time></trkpt><trkpt lat="40.8401283" lon="16.17316"><ele>369.0</ele><time>2026-05-02T13:20:54.701Z</time></trkpt><trkpt lat="40.8399617" lon="16.172975"><ele>373.5</ele><time>2026-05-02T13:20:55.702Z</time></trkpt><trkpt lat="40.8397883" lon="16.1727817"><ele>378.0</ele><time>2026-05-02T13:20:56.702Z</time></trkpt><trkpt lat="40.83961" lon="16.1725817"><ele>378.0</ele><time>2026-05-02T13:20:57.703Z</time></trkpt><trkpt lat="40.8394183" lon="16.172375"><ele>378.0</ele><time>2026-05-02T13:20:58.701Z</time></trkpt><trkpt lat="40.8392283" lon="16.1721683"><ele>381.0</ele><time>2026-05-02T13:20:59.701Z</time></trkpt><trkpt lat="40.8390583" lon="16.1719767"><ele>384.0</ele><time>2026-05-02T13:21:00.701Z</time></trkpt><trkpt lat="40.8389017" lon="16.1717967"><ele>387.0</ele><time>2026-05-02T13:21:01.702Z</time></trkpt><trkpt lat="40.8387567" lon="16.1716333"><ele>388.0</ele><time>2026-05-02T13:21:02.702Z</time></trkpt><trkpt lat="40.8386233" lon="16.1714917"><ele>389.0</ele><time>2026-05-02T13:21:03.702Z</time></trkpt><trkpt lat="40.8384933" lon="16.17138"><ele>390.0</ele><time>2026-05-02T13:21:04.701Z</time></trkpt><trkpt lat="40.8383617" lon="16.171295"><ele>390.0</ele><time>2026-05-02T13:21:05.702Z</time></trkpt><trkpt lat="40.8382233" lon="16.1712333"><ele>390.0</ele><time>2026-05-02T13:21:06.701Z</time></trkpt><trkpt lat="40.8380867" lon="16.17118"><ele>390.0</ele><time>2026-05-02T13:21:07.702Z</time></trkpt><trkpt lat="40.8379583" lon="16.1711267"><ele>390.0</ele><time>2026-05-02T13:21:08.702Z</time></trkpt><trkpt lat="40.8378467" lon="16.17107"><ele>390.0</ele><time>2026-05-02T13:21:09.701Z</time></trkpt><trkpt lat="40.837755" lon="16.171005"><ele>390.0</ele><time>2026-05-02T13:21:10.7Z</time></trkpt><trkpt lat="40.8376833" lon="16.1709267"><ele>390.0</ele><time>2026-05-02T13:21:11.7Z</time></trkpt><trkpt lat="40.837625" lon="16.1708367"><ele>390.0</ele><time>2026-05-02T13:21:12.702Z</time></trkpt><trkpt lat="40.83758" lon="16.1707383"><ele>390.0</ele><time>2026-05-02T13:21:13.7Z</time></trkpt><trkpt lat="40.8375433" lon="16.1706317"><ele>388.6666666666667</ele><time>2026-05-02T13:21:14.703Z</time></trkpt><trkpt lat="40.8375083" lon="16.170525"><ele>387.3333333333333</ele><time>2026-05-02T13:21:15.701Z</time></trkpt><trkpt lat="40.8374783" lon="16.1704167"><ele>386.0</ele><time>2026-05-02T13:21:16.701Z</time></trkpt><trkpt lat="40.8374467" lon="16.1703067"><ele>384.66666666666663</ele><time>2026-05-02T13:21:17.701Z</time></trkpt><trkpt lat="40.8374167" lon="16.1702033"><ele>383.3333333333333</ele><time>2026-05-02T13:21:18.701Z</time></trkpt><trkpt lat="40.8373917" lon="16.17011"><ele>382.0</ele><time>2026-05-02T13:21:19.701Z</time></trkpt><trkpt lat="40.837365" lon="16.1699833"><ele>382.0</ele><time>2026-05-02T13:21:21.702Z</time></trkpt><trkpt lat="40.83741" lon="16.1698867"><ele>382.0</ele><time>2026-05-02T13:21:24.701Z</time></trkpt><trkpt lat="40.83748" lon="16.16986"><ele>382.0</ele><time>2026-05-02T13:23:41.704Z</time></trkpt><trkpt lat="40.83758" lon="16.1697767"><ele>382.0</ele><time>2026-05-02T13:23:48.701Z</time></trkpt><trkpt lat="40.8376467" lon="16.1697217"><ele>382.0</ele><time>2026-05-02T13:23:49.701Z</time></trkpt><trkpt lat="40.8377183" lon="16.169665"><ele>382.0</ele><time>2026-05-02T13:23:50.702Z</time></trkpt><trkpt lat="40.8377817" lon="16.1696117"><ele>383.42857142857144</ele><time>2026-05-02T13:23:51.701Z</time></trkpt><trkpt lat="40.8378433" lon="16.1695617"><ele>384.85714285714283</ele><time>2026-05-02T13:23:52.702Z</time></trkpt><trkpt lat="40.8379017" lon="16.1695133"><ele>386.2857142857143</ele><time>2026-05-02T13:23:53.703Z</time></trkpt><trkpt lat="40.83796" lon="16.16947"><ele>387.7142857142857</ele><time>2026-05-02T13:23:54.702Z</time></trkpt><trkpt lat="40.8380183" lon="16.169425"><ele>389.1428571428571</ele><time>2026-05-02T13:23:55.702Z</time></trkpt><trkpt lat="40.8380817" lon="16.169375"><ele>390.57142857142856</ele><time>2026-05-02T13:23:56.701Z</time></trkpt><trkpt lat="40.8381467" lon="16.1693233"><ele>392.0</ele><time>2026-05-02T13:23:57.701Z</time></trkpt><trkpt lat="40.838215" lon="16.1692667"><ele>392.0</ele><time>2026-05-02T13:23:58.703Z</time></trkpt><trkpt lat="40.838295" lon="16.1692033"><ele>392.0</ele><time>2026-05-02T13:23:59.701Z</time></trkpt><trkpt lat="40.83838" lon="16.16914"><ele>392.0</ele><time>2026-05-02T13:24:00.701Z</time></trkpt><trkpt lat="40.8384667" lon="16.1690717"><ele>392.0</ele><time>2026-05-02T13:24:01.7Z</time></trkpt><trkpt lat="40.8385617" lon="16.169"><ele>392.0</ele><time>2026-05-02T13:24:02.701Z</time></trkpt><trkpt lat="40.838665" lon="16.1689167"><ele>395.25</ele><time>2026-05-02T13:24:03.701Z</time></trkpt><trkpt lat="40.8387817" lon="16.1688267"><ele>398.5</ele><time>2026-05-02T13:24:04.702Z</time></trkpt><trkpt lat="40.8388983" lon="16.1687317"><ele>401.75</ele><time>2026-05-02T13:24:05.702Z</time></trkpt><trkpt lat="40.8390121" lon="16.1686396"><ele>405.0</ele><time>2026-05-02T13:24:06.701Z</time></trkpt><trkpt lat="40.8391242" lon="16.1685498"><ele>405.0</ele><time>2026-05-02T13:24:07.702Z</time></trkpt><trkpt lat="40.8392368" lon="16.1684642"><ele>405.0</ele><time>2026-05-02T13:24:08.704Z</time></trkpt><trkpt lat="40.8393478" lon="16.1683788"><ele>405.0</ele><time>2026-05-02T13:24:09.702Z</time></trkpt><trkpt lat="40.8394517" lon="16.1683"><ele>405.0</ele><time>2026-05-02T13:24:10.702Z</time></trkpt><trkpt lat="40.8395617" lon="16.16821"><ele>406.66666666666663</ele><time>2026-05-02T13:24:11.701Z</time></trkpt><trkpt lat="40.83969" lon="16.168105"><ele>408.3333333333333</ele><time>2026-05-02T13:24:12.7Z</time></trkpt><trkpt lat="40.8398383" lon="16.1679867"><ele>410.0</ele><time>2026-05-02T13:24:13.701Z</time></trkpt><trkpt lat="40.8399883" lon="16.1678633"><ele>410.0</ele><time>2026-05-02T13:24:14.702Z</time></trkpt><trkpt lat="40.8401254" lon="16.1677556"><ele>410.0</ele><time>2026-05-02T13:24:15.701Z</time></trkpt><trkpt lat="40.8402801" lon="16.1676313"><ele>410.0</ele><time>2026-05-02T13:24:16.702Z</time></trkpt><trkpt lat="40.8404231" lon="16.1675177"><ele>410.3333333333333</ele><time>2026-05-02T13:24:17.701Z</time></trkpt><trkpt lat="40.8405538" lon="16.1674027"><ele>410.66666666666663</ele><time>2026-05-02T13:24:18.702Z</time></trkpt><trkpt lat="40.8406765" lon="16.167277"><ele>411.0</ele><time>2026-05-02T13:24:19.703Z</time></trkpt><trkpt lat="40.8408012" lon="16.1671238"><ele>411.0</ele><time>2026-05-02T13:24:20.701Z</time></trkpt><trkpt lat="40.8409302" lon="16.1669425"><ele>411.0</ele><time>2026-05-02T13:24:21.702Z</time></trkpt><trkpt lat="40.8410568" lon="16.1667557"><ele>411.0</ele><time>2026-05-02T13:24:22.702Z</time></trkpt><trkpt lat="40.8411745" lon="16.1665809"><ele>412.33333333333337</ele><time>2026-05-02T13:24:23.702Z</time></trkpt><trkpt lat="40.841292" lon="16.1664061"><ele>413.6666666666667</ele><time>2026-05-02T13:24:24.7Z</time></trkpt><trkpt lat="40.8414058" lon="16.1662376"><ele>415.0</ele><time>2026-05-02T13:24:25.701Z</time></trkpt><trkpt lat="40.8415166" lon="16.1660745"><ele>415.0</ele><time>2026-05-02T13:24:26.702Z</time></trkpt><trkpt lat="40.8416384" lon="16.1659014"><ele>415.0</ele><time>2026-05-02T13:24:27.702Z</time></trkpt><trkpt lat="40.8417579" lon="16.1657313"><ele>415.0</ele><time>2026-05-02T13:24:28.702Z</time></trkpt><trkpt lat="40.8418585" lon="16.165581"><ele>415.5</ele><time>2026-05-02T13:24:29.703Z</time></trkpt><trkpt lat="40.8419449" lon="16.1654426"><ele>416.0</ele><time>2026-05-02T13:24:30.701Z</time></trkpt><trkpt lat="40.8420278" lon="16.1652985"><ele>416.5</ele><time>2026-05-02T13:24:31.701Z</time></trkpt><trkpt lat="40.8421139" lon="16.165141"><ele>417.0</ele><time>2026-05-02T13:24:32.701Z</time></trkpt><trkpt lat="40.8421931" lon="16.164971"><ele>418.33333333333337</ele><time>2026-05-02T13:24:33.7Z</time></trkpt><trkpt lat="40.8422751" lon="16.1647904"><ele>419.6666666666667</ele><time>2026-05-02T13:24:34.7Z</time></trkpt><trkpt lat="40.8423689" lon="16.1645953"><ele>421.0</ele><time>2026-05-02T13:24:35.701Z</time></trkpt><trkpt lat="40.842474" lon="16.164379"><ele>421.0</ele><time>2026-05-02T13:24:36.701Z</time></trkpt><trkpt lat="40.8425796" lon="16.1641649"><ele>421.0</ele><time>2026-05-02T13:24:37.7Z</time></trkpt><trkpt lat="40.8426757" lon="16.1639668"><ele>421.0</ele><time>2026-05-02T13:24:38.701Z</time></trkpt><trkpt lat="40.8427632" lon="16.1637826"><ele>422.0</ele><time>2026-05-02T13:24:39.7Z</time></trkpt><trkpt lat="40.8428371" lon="16.1636111"><ele>423.0</ele><time>2026-05-02T13:24:40.701Z</time></trkpt><trkpt lat="40.8429015" lon="16.16345"><ele>424.0</ele><time>2026-05-02T13:24:41.701Z</time></trkpt><trkpt lat="40.8429576" lon="16.1633003"><ele>425.0</ele><time>2026-05-02T13:24:42.701Z</time></trkpt><trkpt lat="40.8430033" lon="16.163168"><ele>425.8</ele><time>2026-05-02T13:24:43.7Z</time></trkpt><trkpt lat="40.8430415" lon="16.163049"><ele>426.6</ele><time>2026-05-02T13:24:44.702Z</time></trkpt><trkpt lat="40.8430718" lon="16.1629544"><ele>427.4</ele><time>2026-05-02T13:24:45.701Z</time></trkpt><trkpt lat="40.8431095" lon="16.1628355"><ele>428.2</ele><time>2026-05-02T13:24:47.701Z</time></trkpt><trkpt lat="40.8431633" lon="16.16271"><ele>429.0</ele><time>2026-05-02T13:29:56.701Z</time></trkpt><trkpt lat="40.843235" lon="16.1625917"><ele>429.0</ele><time>2026-05-02T13:29:58.701Z</time></trkpt><trkpt lat="40.8433283" lon="16.16249"><ele>429.0</ele><time>2026-05-02T13:30:00.703Z</time></trkpt><trkpt lat="40.8433917" lon="16.1624383"><ele>429.0</ele><time>2026-05-02T13:30:01.702Z</time></trkpt><trkpt lat="40.8434583" lon="16.1623833"><ele>429.0</ele><time>2026-05-02T13:30:02.703Z</time></trkpt><trkpt lat="40.8435317" lon="16.1623217"><ele>429.0</ele><time>2026-05-02T13:30:03.702Z</time></trkpt><trkpt lat="40.84362" lon="16.1622483"><ele>430.0</ele><time>2026-05-02T13:30:04.702Z</time></trkpt><trkpt lat="40.8437283" lon="16.1621633"><ele>431.0</ele><time>2026-05-02T13:30:05.702Z</time></trkpt><trkpt lat="40.8438633" lon="16.16206"><ele>432.0</ele><time>2026-05-02T13:30:06.703Z</time></trkpt><trkpt lat="40.8440283" lon="16.1619317"><ele>432.0</ele><time>2026-05-02T13:30:07.702Z</time></trkpt><trkpt lat="40.8442033" lon="16.1617917"><ele>432.0</ele><time>2026-05-02T13:30:08.702Z</time></trkpt><trkpt lat="40.844375" lon="16.1616583"><ele>432.0</ele><time>2026-05-02T13:30:09.702Z</time></trkpt><trkpt lat="40.8445417" lon="16.16153"><ele>431.0</ele><time>2026-05-02T13:30:10.702Z</time></trkpt><trkpt lat="40.8447017" lon="16.1614133"><ele>430.0</ele><time>2026-05-02T13:30:11.701Z</time></trkpt><trkpt lat="40.844855" lon="16.1613133"><ele>429.0</ele><time>2026-05-02T13:30:12.702Z</time></trkpt><trkpt lat="40.8450167" lon="16.1612283"><ele>430.66666666666663</ele><time>2026-05-02T13:30:13.702Z</time></trkpt><trkpt lat="40.84519" lon="16.1611433"><ele>432.3333333333333</ele><time>2026-05-02T13:30:14.701Z</time></trkpt><trkpt lat="40.8453667" lon="16.1610517"><ele>434.0</ele><time>2026-05-02T13:30:15.701Z</time></trkpt><trkpt lat="40.8455383" lon="16.160965"><ele>434.0</ele><time>2026-05-02T13:30:16.702Z</time></trkpt><trkpt lat="40.84569" lon="16.16089"><ele>434.0</ele><time>2026-05-02T13:30:17.701Z</time></trkpt><trkpt lat="40.84584" lon="16.16081"><ele>434.0</ele><time>2026-05-02T13:30:18.701Z</time></trkpt><trkpt lat="40.845985" lon="16.160715"><ele>436.3333333333333</ele><time>2026-05-02T13:30:19.701Z</time></trkpt><trkpt lat="40.8461083" lon="16.1606033"><ele>438.66666666666663</ele><time>2026-05-02T13:30:20.702Z</time></trkpt><trkpt lat="40.8462267" lon="16.1604683"><ele>441.0</ele><time>2026-05-02T13:30:21.701Z</time></trkpt><trkpt lat="40.846345" lon="16.1603083"><ele>441.0</ele><time>2026-05-02T13:30:22.701Z</time></trkpt><trkpt lat="40.846455" lon="16.160145"><ele>441.0</ele><time>2026-05-02T13:30:23.702Z</time></trkpt><trkpt lat="40.8465567" lon="16.160005"><ele>441.0</ele><time>2026-05-02T13:30:24.701Z</time></trkpt><trkpt lat="40.8466667" lon="16.1598817"><ele>442.33333333333337</ele><time>2026-05-02T13:30:25.701Z</time></trkpt><trkpt lat="40.8468017" lon="16.1597733"><ele>443.6666666666667</ele><time>2026-05-02T13:30:26.702Z</time></trkpt><trkpt lat="40.8469717" lon="16.15967"><ele>445.0</ele><time>2026-05-02T13:30:27.701Z</time></trkpt><trkpt lat="40.8471583" lon="16.1595667"><ele>445.0</ele><time>2026-05-02T13:30:28.701Z</time></trkpt><trkpt lat="40.847345" lon="16.15946"><ele>445.0</ele><time>2026-05-02T13:30:29.701Z</time></trkpt><trkpt lat="40.8475317" lon="16.1593483"><ele>445.0</ele><time>2026-05-02T13:30:30.702Z</time></trkpt><trkpt lat="40.8477267" lon="16.1592317"><ele>446.33333333333337</ele><time>2026-05-02T13:30:31.702Z</time></trkpt><trkpt lat="40.8479217" lon="16.1591133"><ele>447.66666666666663</ele><time>2026-05-02T13:30:32.701Z</time></trkpt><trkpt lat="40.8481017" lon="16.159005"><ele>449.0</ele><time>2026-05-02T13:30:33.701Z</time></trkpt><trkpt lat="40.848265" lon="16.1589067"><ele>449.5</ele><time>2026-05-02T13:30:34.701Z</time></trkpt><trkpt lat="40.84841" lon="16.1588217"><ele>450.0</ele><time>2026-05-02T13:30:35.703Z</time></trkpt><trkpt lat="40.8485367" lon="16.1587367"><ele>450.5</ele><time>2026-05-02T13:30:36.702Z</time></trkpt><trkpt lat="40.8486617" lon="16.1586383"><ele>451.0</ele><time>2026-05-02T13:30:37.703Z</time></trkpt><trkpt lat="40.8487867" lon="16.1585217"><ele>451.6</ele><time>2026-05-02T13:30:38.702Z</time></trkpt><trkpt lat="40.8488967" lon="16.1584083"><ele>452.20000000000005</ele><time>2026-05-02T13:30:39.705Z</time></trkpt><trkpt lat="40.8489917" lon="16.1583117"><ele>452.79999999999995</ele><time>2026-05-02T13:30:40.702Z</time></trkpt><trkpt lat="40.8490667" lon="16.15824"><ele>453.4</ele><time>2026-05-02T13:30:41.702Z</time></trkpt><trkpt lat="40.84913" lon="16.1581883"><ele>454.0</ele><time>2026-05-02T13:30:42.702Z</time></trkpt><trkpt lat="40.8492017" lon="16.15814"><ele>454.0</ele><time>2026-05-02T13:30:43.702Z</time></trkpt><trkpt lat="40.8492833" lon="16.1580933"><ele>454.0</ele><time>2026-05-02T13:30:44.703Z</time></trkpt><trkpt lat="40.84938" lon="16.1580533"><ele>454.0</ele><time>2026-05-02T13:30:45.701Z</time></trkpt><trkpt lat="40.84949" lon="16.158015"><ele>454.0</ele><time>2026-05-02T13:30:46.701Z</time></trkpt><trkpt lat="40.8496183" lon="16.1579733"><ele>454.0</ele><time>2026-05-02T13:30:47.7Z</time></trkpt><trkpt lat="40.8497567" lon="16.1579333"><ele>455.75</ele><time>2026-05-02T13:30:48.702Z</time></trkpt><trkpt lat="40.849885" lon="16.157895"><ele>457.5</ele><time>2026-05-02T13:30:49.701Z</time></trkpt><trkpt lat="40.8500067" lon="16.1578667"><ele>459.25</ele><time>2026-05-02T13:30:50.701Z</time></trkpt><trkpt lat="40.8501283" lon="16.1578433"><ele>461.0</ele><time>2026-05-02T13:30:51.701Z</time></trkpt><trkpt lat="40.8502433" lon="16.1578133"><ele>461.5</ele><time>2026-05-02T13:30:52.702Z</time></trkpt><trkpt lat="40.8503483" lon="16.1577667"><ele>462.0</ele><time>2026-05-02T13:30:53.7Z</time></trkpt><trkpt lat="40.8504594" lon="16.1576997"><ele>462.5</ele><time>2026-05-02T13:30:54.701Z</time></trkpt><trkpt lat="40.8505778" lon="16.1576114"><ele>463.0</ele><time>2026-05-02T13:30:55.701Z</time></trkpt><trkpt lat="40.8507045" lon="16.1575083"><ele>463.0</ele><time>2026-05-02T13:30:56.701Z</time></trkpt><trkpt lat="40.8508261" lon="16.1574002"><ele>463.0</ele><time>2026-05-02T13:30:57.702Z</time></trkpt><trkpt lat="40.8509411" lon="16.1572882"><ele>463.0</ele><time>2026-05-02T13:30:58.701Z</time></trkpt><trkpt lat="40.851057" lon="16.1571673"><ele>463.0</ele><time>2026-05-02T13:30:59.701Z</time></trkpt><trkpt lat="40.8511791" lon="16.1570362"><ele>464.75</ele><time>2026-05-02T13:31:00.7Z</time></trkpt><trkpt lat="40.8512969" lon="16.1569038"><ele>466.5</ele><time>2026-05-02T13:31:01.701Z</time></trkpt><trkpt lat="40.8514088" lon="16.1567749"><ele>468.25</ele><time>2026-05-02T13:31:02.702Z</time></trkpt><trkpt lat="40.8515159" lon="16.1566509"><ele>470.0</ele><time>2026-05-02T13:31:03.701Z</time></trkpt><trkpt lat="40.8516174" lon="16.1565367"><ele>470.16666666666663</ele><time>2026-05-02T13:31:04.702Z</time></trkpt><trkpt lat="40.8517025" lon="16.1564446"><ele>470.3333333333333</ele><time>2026-05-02T13:31:05.702Z</time></trkpt><trkpt lat="40.8517801" lon="16.1563729"><ele>470.5</ele><time>2026-05-02T13:31:06.703Z</time></trkpt><trkpt lat="40.851853" lon="16.1563222"><ele>470.66666666666663</ele><time>2026-05-02T13:31:07.702Z</time></trkpt><trkpt lat="40.8519215" lon="16.1562911"><ele>470.8333333333333</ele><time>2026-05-02T13:31:08.701Z</time></trkpt><trkpt lat="40.8519835" lon="16.1562722"><ele>471.0</ele><time>2026-05-02T13:31:09.702Z</time></trkpt><trkpt lat="40.8521156" lon="16.1562566"><ele>472.8</ele><time>2026-05-02T13:31:11.703Z</time></trkpt><trkpt lat="40.8521975" lon="16.1562612"><ele>474.6</ele><time>2026-05-02T13:31:12.702Z</time></trkpt><trkpt lat="40.852293" lon="16.1562738"><ele>476.4</ele><time>2026-05-02T13:31:13.7Z</time></trkpt><trkpt lat="40.8523984" lon="16.1562936"><ele>478.2</ele><time>2026-05-02T13:31:14.701Z</time></trkpt><trkpt lat="40.8525038" lon="16.1563127"><ele>480.0</ele><time>2026-05-02T13:31:15.701Z</time></trkpt><trkpt lat="40.8526105" lon="16.1563215"><ele>482.4</ele><time>2026-05-02T13:31:16.7Z</time></trkpt><trkpt lat="40.8527196" lon="16.1563225"><ele>484.8</ele><time>2026-05-02T13:31:17.701Z</time></trkpt><trkpt lat="40.8528185" lon="16.1563201"><ele>487.20000000000005</ele><time>2026-05-02T13:31:18.7Z</time></trkpt><trkpt lat="40.8529062" lon="16.1563159"><ele>489.6</ele><time>2026-05-02T13:31:19.701Z</time></trkpt><trkpt lat="40.8529898" lon="16.1563036"><ele>492.0</ele><time>2026-05-02T13:31:20.701Z</time></trkpt><trkpt lat="40.8530667" lon="16.1562742"><ele>492.0</ele><time>2026-05-02T13:31:21.701Z</time></trkpt><trkpt lat="40.8531386" lon="16.1562166"><ele>492.0</ele><time>2026-05-02T13:31:22.701Z</time></trkpt><trkpt lat="40.8531981" lon="16.1561396"><ele>492.0</ele><time>2026-05-02T13:31:23.701Z</time></trkpt><trkpt lat="40.85324" lon="16.156041"><ele>492.0</ele><time>2026-05-02T13:31:24.701Z</time></trkpt><trkpt lat="40.8532649" lon="16.1559243"><ele>492.0</ele><time>2026-05-02T13:31:25.701Z</time></trkpt><trkpt lat="40.853273" lon="16.1557933"><ele>492.0</ele><time>2026-05-02T13:31:26.703Z</time></trkpt><trkpt lat="40.8532701" lon="16.1556452"><ele>494.25</ele><time>2026-05-02T13:31:27.701Z</time></trkpt><trkpt lat="40.853262" lon="16.1554783"><ele>496.5</ele><time>2026-05-02T13:31:28.701Z</time></trkpt><trkpt lat="40.853254" lon="16.1553038"><ele>498.75</ele><time>2026-05-02T13:31:29.701Z</time></trkpt><trkpt lat="40.8532486" lon="16.155129"><ele>501.0</ele><time>2026-05-02T13:31:30.7Z</time></trkpt><trkpt lat="40.8532439" lon="16.1549517"><ele>502.4</ele><time>2026-05-02T13:31:31.702Z</time></trkpt><trkpt lat="40.8532386" lon="16.1547898"><ele>503.8</ele><time>2026-05-02T13:31:32.701Z</time></trkpt><trkpt lat="40.8532274" lon="16.1546495"><ele>505.19999999999993</ele><time>2026-05-02T13:31:33.701Z</time></trkpt><trkpt lat="40.8532164" lon="16.1545323"><ele>506.59999999999997</ele><time>2026-05-02T13:31:34.703Z</time></trkpt><trkpt lat="40.853205" lon="16.1544399"><ele>508.0</ele><time>2026-05-02T13:31:35.701Z</time></trkpt><trkpt lat="40.8531807" lon="16.1543291"><ele>508.0</ele><time>2026-05-02T13:31:37.701Z</time></trkpt><trkpt lat="40.85316" lon="16.1542017"><ele>507.99999999999994</ele><time>2026-05-02T13:32:32.701Z</time></trkpt><trkpt lat="40.8531233" lon="16.1540717"><ele>507.99999999999994</ele><time>2026-05-02T13:32:34.702Z</time></trkpt><trkpt lat="40.8530983" lon="16.15396"><ele>508.0</ele><time>2026-05-02T13:32:35.702Z</time></trkpt><trkpt lat="40.853075" lon="16.1538217"><ele>508.0</ele><time>2026-05-02T13:32:36.7Z</time></trkpt><trkpt lat="40.8530567" lon="16.1536767"><ele>507.75</ele><time>2026-05-02T13:32:37.701Z</time></trkpt><trkpt lat="40.85305" lon="16.153525"><ele>507.5</ele><time>2026-05-02T13:32:38.702Z</time></trkpt><trkpt lat="40.85306" lon="16.153365"><ele>507.25</ele><time>2026-05-02T13:32:39.701Z</time></trkpt><trkpt lat="40.8530917" lon="16.1531933"><ele>507.0</ele><time>2026-05-02T13:32:40.701Z</time></trkpt><trkpt lat="40.8531467" lon="16.1530017"><ele>504.75</ele><time>2026-05-02T13:32:41.7Z</time></trkpt><trkpt lat="40.853205" lon="16.1528083"><ele>502.5</ele><time>2026-05-02T13:32:42.701Z</time></trkpt><trkpt lat="40.8532517" lon="16.15264"><ele>500.25</ele><time>2026-05-02T13:32:43.701Z</time></trkpt><trkpt lat="40.8532883" lon="16.15249"><ele>498.0</ele><time>2026-05-02T13:32:44.701Z</time></trkpt><trkpt lat="40.8533133" lon="16.1523483"><ele>496.4</ele><time>2026-05-02T13:32:45.701Z</time></trkpt><trkpt lat="40.8533217" lon="16.1522233"><ele>494.79999999999995</ele><time>2026-05-02T13:32:46.702Z</time></trkpt><trkpt lat="40.8533083" lon="16.1521017"><ele>493.2</ele><time>2026-05-02T13:32:47.701Z</time></trkpt><trkpt lat="40.8532667" lon="16.15196"><ele>491.6</ele><time>2026-05-02T13:32:48.702Z</time></trkpt><trkpt lat="40.8532083" lon="16.151795"><ele>490.0</ele><time>2026-05-02T13:32:49.701Z</time></trkpt><trkpt lat="40.8531467" lon="16.1516233"><ele>489.0</ele><time>2026-05-02T13:32:50.702Z</time></trkpt><trkpt lat="40.8530867" lon="16.1514617"><ele>488.0</ele><time>2026-05-02T13:32:51.702Z</time></trkpt><trkpt lat="40.85303" lon="16.1513033"><ele>487.0</ele><time>2026-05-02T13:32:52.702Z</time></trkpt><trkpt lat="40.85298" lon="16.1511433"><ele>486.0</ele><time>2026-05-02T13:32:53.7Z</time></trkpt><trkpt lat="40.8529467" lon="16.1509667"><ele>486.0</ele><time>2026-05-02T13:32:54.7Z</time></trkpt><trkpt lat="40.852935" lon="16.1507717"><ele>486.0</ele><time>2026-05-02T13:32:55.701Z</time></trkpt><trkpt lat="40.8529383" lon="16.15057"><ele>486.0</ele><time>2026-05-02T13:32:56.701Z</time></trkpt><trkpt lat="40.85295" lon="16.150365"><ele>483.0</ele><time>2026-05-02T13:32:57.702Z</time></trkpt><trkpt lat="40.852965" lon="16.1501617"><ele>480.0</ele><time>2026-05-02T13:32:58.7Z</time></trkpt><trkpt lat="40.8529783" lon="16.1499617"><ele>477.0</ele><time>2026-05-02T13:32:59.702Z</time></trkpt><trkpt lat="40.852995" lon="16.1497583"><ele>474.5</ele><time>2026-05-02T13:33:00.7Z</time></trkpt><trkpt lat="40.8530167" lon="16.1495533"><ele>472.0</ele><time>2026-05-02T13:33:01.7Z</time></trkpt><trkpt lat="40.8530417" lon="16.149365"><ele>469.5</ele><time>2026-05-02T13:33:02.702Z</time></trkpt><trkpt lat="40.8530683" lon="16.149205"><ele>467.0</ele><time>2026-05-02T13:33:03.7Z</time></trkpt><trkpt lat="40.8530883" lon="16.14906"><ele>465.20000000000005</ele><time>2026-05-02T13:33:04.701Z</time></trkpt><trkpt lat="40.8530933" lon="16.1489167"><ele>463.40000000000003</ele><time>2026-05-02T13:33:05.702Z</time></trkpt><trkpt lat="40.8530833" lon="16.14877"><ele>461.59999999999997</ele><time>2026-05-02T13:33:06.702Z</time></trkpt><trkpt lat="40.85306" lon="16.1486217"><ele>459.79999999999995</ele><time>2026-05-02T13:33:07.701Z</time></trkpt><trkpt lat="40.8530317" lon="16.14848"><ele>458.0</ele><time>2026-05-02T13:33:08.701Z</time></trkpt><trkpt lat="40.853015" lon="16.1483433"><ele>458.0</ele><time>2026-05-02T13:33:09.702Z</time></trkpt><trkpt lat="40.85302" lon="16.1482133"><ele>457.99999999999994</ele><time>2026-05-02T13:33:10.702Z</time></trkpt><trkpt lat="40.853045" lon="16.1480833"><ele>457.99999999999994</ele><time>2026-05-02T13:33:11.702Z</time></trkpt><trkpt lat="40.853075" lon="16.1479517"><ele>458.0</ele><time>2026-05-02T13:33:12.701Z</time></trkpt><trkpt lat="40.8531" lon="16.14781"><ele>458.0</ele><time>2026-05-02T13:33:13.701Z</time></trkpt><trkpt lat="40.85311" lon="16.14765"><ele>455.75</ele><time>2026-05-02T13:33:14.702Z</time></trkpt><trkpt lat="40.853105" lon="16.14747"><ele>453.5</ele><time>2026-05-02T13:33:15.701Z</time></trkpt><trkpt lat="40.8530917" lon="16.1472733"><ele>451.25</ele><time>2026-05-02T13:33:16.701Z</time></trkpt><trkpt lat="40.85308" lon="16.147065"><ele>449.0</ele><time>2026-05-02T13:33:17.701Z</time></trkpt><trkpt lat="40.8530667" lon="16.1468467"><ele>446.66666666666663</ele><time>2026-05-02T13:33:18.7Z</time></trkpt><trkpt lat="40.853055" lon="16.1466233"><ele>444.33333333333337</ele><time>2026-05-02T13:33:19.7Z</time></trkpt><trkpt lat="40.8530417" lon="16.146405"><ele>442.0</ele><time>2026-05-02T13:33:20.703Z</time></trkpt><trkpt lat="40.8530267" lon="16.1461867"><ele>439.33333333333337</ele><time>2026-05-02T13:33:21.702Z</time></trkpt><trkpt lat="40.8530067" lon="16.145945"><ele>436.66666666666663</ele><time>2026-05-02T13:33:22.701Z</time></trkpt><trkpt lat="40.8529883" lon="16.145665"><ele>434.0</ele><time>2026-05-02T13:33:23.703Z</time></trkpt><trkpt lat="40.8529717" lon="16.1453467"><ele>429.0</ele><time>2026-05-02T13:33:24.701Z</time></trkpt><trkpt lat="40.8529567" lon="16.1450133"><ele>424.0</ele><time>2026-05-02T13:33:25.7Z</time></trkpt><trkpt lat="40.85294" lon="16.144685"><ele>421.5</ele><time>2026-05-02T13:33:26.709Z</time></trkpt><trkpt lat="40.8529233" lon="16.14436"><ele>419.0</ele><time>2026-05-02T13:33:27.7Z</time></trkpt><trkpt lat="40.85291" lon="16.1440367"><ele>417.5</ele><time>2026-05-02T13:33:28.702Z</time></trkpt><trkpt lat="40.8528967" lon="16.1437117"><ele>416.0</ele><time>2026-05-02T13:33:29.701Z</time></trkpt><trkpt lat="40.852885" lon="16.1433833"><ele>414.0</ele><time>2026-05-02T13:33:30.702Z</time></trkpt><trkpt lat="40.8528767" lon="16.14305"><ele>412.0</ele><time>2026-05-02T13:33:31.702Z</time></trkpt><trkpt lat="40.8528717" lon="16.14273"><ele>412.0</ele><time>2026-05-02T13:33:32.701Z</time></trkpt><trkpt lat="40.8528667" lon="16.1424333"><ele>412.0</ele><time>2026-05-02T13:33:33.702Z</time></trkpt><trkpt lat="40.8528633" lon="16.14216"><ele>412.0</ele><time>2026-05-02T13:33:34.701Z</time></trkpt><trkpt lat="40.8528583" lon="16.141915"><ele>412.0</ele><time>2026-05-02T13:33:35.702Z</time></trkpt><trkpt lat="40.8528533" lon="16.141695"><ele>412.0</ele><time>2026-05-02T13:33:36.701Z</time></trkpt><trkpt lat="40.8528467" lon="16.1414933"><ele>412.0</ele><time>2026-05-02T13:33:37.701Z</time></trkpt><trkpt lat="40.8528483" lon="16.1413117"><ele>412.0</ele><time>2026-05-02T13:33:38.702Z</time></trkpt><trkpt lat="40.8528583" lon="16.14115"><ele>412.0</ele><time>2026-05-02T13:33:39.701Z</time></trkpt><trkpt lat="40.85288" lon="16.1410017"><ele>412.0</ele><time>2026-05-02T13:33:40.7Z</time></trkpt><trkpt lat="40.8529233" lon="16.1408683"><ele>412.0</ele><time>2026-05-02T13:33:41.702Z</time></trkpt><trkpt lat="40.8529883" lon="16.14074"><ele>412.0</ele><time>2026-05-02T13:33:42.7Z</time></trkpt><trkpt lat="40.8530683" lon="16.1406083"><ele>412.0</ele><time>2026-05-02T13:33:43.701Z</time></trkpt><trkpt lat="40.8531733" lon="16.1404817"><ele>412.0</ele><time>2026-05-02T13:33:44.702Z</time></trkpt><trkpt lat="40.85329" lon="16.140355"><ele>412.0</ele><time>2026-05-02T13:33:45.702Z</time></trkpt><trkpt lat="40.8534133" lon="16.1402383"><ele>412.0</ele><time>2026-05-02T13:33:46.701Z</time></trkpt><trkpt lat="40.85353" lon="16.1401283"><ele>412.0</ele><time>2026-05-02T13:33:47.701Z</time></trkpt><trkpt lat="40.8536467" lon="16.1400117"><ele>412.0</ele><time>2026-05-02T13:33:48.702Z</time></trkpt><trkpt lat="40.85376" lon="16.13988"><ele>412.0</ele><time>2026-05-02T13:33:49.701Z</time></trkpt><trkpt lat="40.853875" lon="16.1397367"><ele>412.0</ele><time>2026-05-02T13:33:50.702Z</time></trkpt><trkpt lat="40.853995" lon="16.1395783"><ele>412.0</ele><time>2026-05-02T13:33:51.701Z</time></trkpt><trkpt lat="40.8541167" lon="16.1394133"><ele>412.0</ele><time>2026-05-02T13:33:52.701Z</time></trkpt><trkpt lat="40.8542417" lon="16.13925"><ele>410.0</ele><time>2026-05-02T13:33:53.702Z</time></trkpt><trkpt lat="40.854365" lon="16.1390833"><ele>408.0</ele><time>2026-05-02T13:33:54.701Z</time></trkpt><trkpt lat="40.85449" lon="16.1389117"><ele>406.0</ele><time>2026-05-02T13:33:55.7Z</time></trkpt><trkpt lat="40.854615" lon="16.1387467"><ele>405.33333333333337</ele><time>2026-05-02T13:33:56.701Z</time></trkpt><trkpt lat="40.8547383" lon="16.138585"><ele>404.66666666666663</ele><time>2026-05-02T13:33:57.703Z</time></trkpt><trkpt lat="40.8548617" lon="16.13842"><ele>404.0</ele><time>2026-05-02T13:33:58.701Z</time></trkpt><trkpt lat="40.85499" lon="16.1382433"><ele>401.66666666666663</ele><time>2026-05-02T13:33:59.701Z</time></trkpt><trkpt lat="40.8551233" lon="16.13806"><ele>399.33333333333337</ele><time>2026-05-02T13:34:00.702Z</time></trkpt><trkpt lat="40.8552637" lon="16.137868"><ele>397.0</ele><time>2026-05-02T13:34:01.702Z</time></trkpt><trkpt lat="40.855411" lon="16.1376657"><ele>397.0</ele><time>2026-05-02T13:34:02.702Z</time></trkpt><trkpt lat="40.8555599" lon="16.1374616"><ele>397.0</ele><time>2026-05-02T13:34:03.701Z</time></trkpt><trkpt lat="40.8557035" lon="16.1372604"><ele>397.0</ele><time>2026-05-02T13:34:04.701Z</time></trkpt><trkpt lat="40.8558386" lon="16.1370665"><ele>397.0</ele><time>2026-05-02T13:34:05.702Z</time></trkpt><trkpt lat="40.8559712" lon="16.1368771"><ele>397.0</ele><time>2026-05-02T13:34:06.702Z</time></trkpt><trkpt lat="40.8561063" lon="16.1366902"><ele>397.0</ele><time>2026-05-02T13:34:07.703Z</time></trkpt><trkpt lat="40.8562454" lon="16.1365045"><ele>397.0</ele><time>2026-05-02T13:34:08.701Z</time></trkpt><trkpt lat="40.856384" lon="16.1363217"><ele>397.0</ele><time>2026-05-02T13:34:09.701Z</time></trkpt><trkpt lat="40.8565069" lon="16.1361488"><ele>397.0</ele><time>2026-05-02T13:34:10.701Z</time></trkpt><trkpt lat="40.8566198" lon="16.135987"><ele>397.0</ele><time>2026-05-02T13:34:11.701Z</time></trkpt><trkpt lat="40.8567251" lon="16.1358397"><ele>397.0</ele><time>2026-05-02T13:34:12.701Z</time></trkpt><trkpt lat="40.8568191" lon="16.1357098"><ele>397.0</ele><time>2026-05-02T13:34:13.7Z</time></trkpt><trkpt lat="40.8568921" lon="16.1356027"><ele>397.0</ele><time>2026-05-02T13:34:14.701Z</time></trkpt><trkpt lat="40.8569485" lon="16.1355164"><ele>397.0</ele><time>2026-05-02T13:34:15.701Z</time></trkpt><trkpt lat="40.8569867" lon="16.1354451"><ele>397.0</ele><time>2026-05-02T13:34:16.705Z</time></trkpt><trkpt lat="40.85699" lon="16.1353366"><ele>397.0</ele><time>2026-05-02T13:34:18.701Z</time></trkpt><trkpt lat="40.8568939" lon="16.1352435"><ele>397.0</ele><time>2026-05-02T13:34:20.701Z</time></trkpt><trkpt lat="40.8568081" lon="16.1351879"><ele>397.0</ele><time>2026-05-02T13:34:21.7Z</time></trkpt><trkpt lat="40.856693" lon="16.1351059"><ele>397.0</ele><time>2026-05-02T13:34:22.701Z</time></trkpt><trkpt lat="40.856554" lon="16.1350023"><ele>397.0</ele><time>2026-05-02T13:34:23.701Z</time></trkpt><trkpt lat="40.8564118" lon="16.1348907"><ele>397.0</ele><time>2026-05-02T13:34:24.703Z</time></trkpt><trkpt lat="40.8562791" lon="16.1347823"><ele>396.33333333333337</ele><time>2026-05-02T13:34:25.701Z</time></trkpt><trkpt lat="40.8561513" lon="16.1346695"><ele>395.66666666666663</ele><time>2026-05-02T13:34:26.701Z</time></trkpt><trkpt lat="40.8560173" lon="16.1345304"><ele>395.0</ele><time>2026-05-02T13:34:27.702Z</time></trkpt><trkpt lat="40.855872" lon="16.1343652"><ele>393.66666666666663</ele><time>2026-05-02T13:34:28.701Z</time></trkpt><trkpt lat="40.8557146" lon="16.134193"><ele>392.33333333333337</ele><time>2026-05-02T13:34:29.702Z</time></trkpt><trkpt lat="40.8555584" lon="16.1340329"><ele>391.0</ele><time>2026-05-02T13:34:30.702Z</time></trkpt><trkpt lat="40.8554084" lon="16.1338849"><ele>390.6666666666667</ele><time>2026-05-02T13:34:31.701Z</time></trkpt><trkpt lat="40.8552689" lon="16.1337445"><ele>390.33333333333337</ele><time>2026-05-02T13:34:32.701Z</time></trkpt><trkpt lat="40.8551413" lon="16.1336121"><ele>390.0</ele><time>2026-05-02T13:34:33.702Z</time></trkpt><trkpt lat="40.8550202" lon="16.1334829"><ele>389.0</ele><time>2026-05-02T13:34:34.702Z</time></trkpt><trkpt lat="40.8548976" lon="16.133341"><ele>388.0</ele><time>2026-05-02T13:34:35.702Z</time></trkpt><trkpt lat="40.8547803" lon="16.133182"><ele>387.0</ele><time>2026-05-02T13:34:36.702Z</time></trkpt><trkpt lat="40.8546729" lon="16.1330188"><ele>387.0</ele><time>2026-05-02T13:34:37.702Z</time></trkpt><trkpt lat="40.8545714" lon="16.1328637"><ele>387.0</ele><time>2026-05-02T13:34:38.702Z</time></trkpt><trkpt lat="40.8544781" lon="16.1327219"><ele>387.0</ele><time>2026-05-02T13:34:39.701Z</time></trkpt><trkpt lat="40.8543978" lon="16.1325884"><ele>387.0</ele><time>2026-05-02T13:34:40.701Z</time></trkpt><trkpt lat="40.8543337" lon="16.1324531"><ele>383.5</ele><time>2026-05-02T13:34:41.702Z</time></trkpt><trkpt lat="40.8542822" lon="16.1323113"><ele>380.0</ele><time>2026-05-02T13:34:42.7Z</time></trkpt><trkpt lat="40.8542492" lon="16.1321635"><ele>376.5</ele><time>2026-05-02T13:34:43.701Z</time></trkpt><trkpt lat="40.8542373" lon="16.1320018"><ele>373.0</ele><time>2026-05-02T13:34:44.702Z</time></trkpt><trkpt lat="40.8542426" lon="16.131831"><ele>373.0</ele><time>2026-05-02T13:34:45.701Z</time></trkpt><trkpt lat="40.8542603" lon="16.1316564"><ele>373.0</ele><time>2026-05-02T13:34:46.701Z</time></trkpt><trkpt lat="40.8542862" lon="16.1314836"><ele>373.0</ele><time>2026-05-02T13:34:47.702Z</time></trkpt><trkpt lat="40.8543181" lon="16.1313207"><ele>373.0</ele><time>2026-05-02T13:34:48.702Z</time></trkpt><trkpt lat="40.8543596" lon="16.1311653"><ele>371.75</ele><time>2026-05-02T13:34:49.701Z</time></trkpt><trkpt lat="40.8544015" lon="16.1310079"><ele>370.5</ele><time>2026-05-02T13:34:50.703Z</time></trkpt><trkpt lat="40.8544368" lon="16.1308451"><ele>369.25</ele><time>2026-05-02T13:34:51.702Z</time></trkpt><trkpt lat="40.8544666" lon="16.1306802"><ele>368.0</ele><time>2026-05-02T13:34:52.702Z</time></trkpt><trkpt lat="40.8544905" lon="16.130518"><ele>365.2</ele><time>2026-05-02T13:34:53.702Z</time></trkpt><trkpt lat="40.8545057" lon="16.1303618"><ele>362.4</ele><time>2026-05-02T13:34:54.701Z</time></trkpt><trkpt lat="40.8545082" lon="16.130213"><ele>359.59999999999997</ele><time>2026-05-02T13:34:55.701Z</time></trkpt><trkpt lat="40.8545009" lon="16.1300715"><ele>356.79999999999995</ele><time>2026-05-02T13:34:56.701Z</time></trkpt><trkpt lat="40.8544804" lon="16.1299294"><ele>354.0</ele><time>2026-05-02T13:34:57.702Z</time></trkpt><trkpt lat="40.8544427" lon="16.1297724"><ele>350.6666666666667</ele><time>2026-05-02T13:34:58.702Z</time></trkpt><trkpt lat="40.854382" lon="16.1295943"><ele>347.33333333333337</ele><time>2026-05-02T13:34:59.701Z</time></trkpt><trkpt lat="40.8543094" lon="16.1293893"><ele>344.0</ele><time>2026-05-02T13:35:00.702Z</time></trkpt><trkpt lat="40.8542406" lon="16.1291584"><ele>341.6666666666667</ele><time>2026-05-02T13:35:01.702Z</time></trkpt><trkpt lat="40.8541806" lon="16.1289091"><ele>339.3333333333333</ele><time>2026-05-02T13:35:02.701Z</time></trkpt><trkpt lat="40.8541241" lon="16.1286564"><ele>337.0</ele><time>2026-05-02T13:35:03.701Z</time></trkpt><trkpt lat="40.854075" lon="16.1284108"><ele>335.66666666666663</ele><time>2026-05-02T13:35:04.702Z</time></trkpt><trkpt lat="40.8540328" lon="16.1281782"><ele>334.3333333333333</ele><time>2026-05-02T13:35:05.702Z</time></trkpt><trkpt lat="40.8539939" lon="16.1279603"><ele>333.0</ele><time>2026-05-02T13:35:06.7Z</time></trkpt><trkpt lat="40.8539513" lon="16.127756"><ele>333.0</ele><time>2026-05-02T13:35:07.701Z</time></trkpt><trkpt lat="40.853899" lon="16.1275669"><ele>333.0</ele><time>2026-05-02T13:35:08.701Z</time></trkpt><trkpt lat="40.8538436" lon="16.1273962"><ele>333.0</ele><time>2026-05-02T13:35:09.701Z</time></trkpt><trkpt lat="40.8537798" lon="16.1272436"><ele>333.0</ele><time>2026-05-02T13:35:10.701Z</time></trkpt><trkpt lat="40.8537043" lon="16.1271095"><ele>333.0</ele><time>2026-05-02T13:35:11.701Z</time></trkpt><trkpt lat="40.8536135" lon="16.1269937"><ele>333.0</ele><time>2026-05-02T13:35:12.7Z</time></trkpt><trkpt lat="40.8535028" lon="16.1268783"><ele>333.0</ele><time>2026-05-02T13:35:13.701Z</time></trkpt><trkpt lat="40.8533772" lon="16.1267555"><ele>333.0</ele><time>2026-05-02T13:35:14.702Z</time></trkpt><trkpt lat="40.8532424" lon="16.1266233"><ele>333.0</ele><time>2026-05-02T13:35:15.706Z</time></trkpt><trkpt lat="40.8531063" lon="16.1264901"><ele>333.0</ele><time>2026-05-02T13:35:16.701Z</time></trkpt><trkpt lat="40.8529678" lon="16.1263588"><ele>333.0</ele><time>2026-05-02T13:35:17.701Z</time></trkpt><trkpt lat="40.8528217" lon="16.1262216"><ele>333.0</ele><time>2026-05-02T13:35:18.701Z</time></trkpt><trkpt lat="40.8526641" lon="16.1260706"><ele>333.0</ele><time>2026-05-02T13:35:19.703Z</time></trkpt><trkpt lat="40.8524959" lon="16.1259119"><ele>333.0</ele><time>2026-05-02T13:35:20.702Z</time></trkpt><trkpt lat="40.8523232" lon="16.1257538"><ele>332.6666666666667</ele><time>2026-05-02T13:35:21.703Z</time></trkpt><trkpt lat="40.8521578" lon="16.1256032"><ele>332.33333333333337</ele><time>2026-05-02T13:35:22.702Z</time></trkpt><trkpt lat="40.8520019" lon="16.1254577"><ele>332.0</ele><time>2026-05-02T13:35:23.703Z</time></trkpt><trkpt lat="40.8518477" lon="16.1253061"><ele>331.33333333333337</ele><time>2026-05-02T13:35:24.702Z</time></trkpt><trkpt lat="40.8516921" lon="16.1251482"><ele>330.6666666666667</ele><time>2026-05-02T13:35:25.701Z</time></trkpt><trkpt lat="40.85154" lon="16.1249897"><ele>330.0</ele><time>2026-05-02T13:35:26.702Z</time></trkpt><trkpt lat="40.8513991" lon="16.1248453"><ele>330.0</ele><time>2026-05-02T13:35:27.7Z</time></trkpt><trkpt lat="40.8512771" lon="16.1247205"><ele>330.0</ele><time>2026-05-02T13:35:28.701Z</time></trkpt><trkpt lat="40.8511735" lon="16.1246177"><ele>330.0</ele><time>2026-05-02T13:35:29.702Z</time></trkpt><trkpt lat="40.8510958" lon="16.124537"><ele>330.0</ele><time>2026-05-02T13:35:30.701Z</time></trkpt><trkpt lat="40.8510425" lon="16.1244714"><ele>330.0</ele><time>2026-05-02T13:35:31.701Z</time></trkpt><trkpt lat="40.8509956" lon="16.1243688"><ele>330.0</ele><time>2026-05-02T13:35:33.702Z</time></trkpt><trkpt lat="40.8509671" lon="16.1242492"><ele>330.0</ele><time>2026-05-02T13:35:35.702Z</time></trkpt><trkpt lat="40.8509311" lon="16.1241604"><ele>330.0</ele><time>2026-05-02T13:35:36.702Z</time></trkpt><trkpt lat="40.8508729" lon="16.1240615"><ele>330.0</ele><time>2026-05-02T13:35:37.7Z</time></trkpt><trkpt lat="40.8507879" lon="16.1239529"><ele>330.3333333333333</ele><time>2026-05-02T13:35:38.703Z</time></trkpt><trkpt lat="40.8506825" lon="16.1238258"><ele>330.66666666666663</ele><time>2026-05-02T13:35:39.7Z</time></trkpt><trkpt lat="40.850556" lon="16.1236669"><ele>331.0</ele><time>2026-05-02T13:35:40.701Z</time></trkpt><trkpt lat="40.8504033" lon="16.12347"><ele>331.0</ele><time>2026-05-02T13:35:41.702Z</time></trkpt><trkpt lat="40.8502533" lon="16.1232767"><ele>331.0</ele><time>2026-05-02T13:35:42.702Z</time></trkpt><trkpt lat="40.8500983" lon="16.123075"><ele>331.0</ele><time>2026-05-02T13:35:43.702Z</time></trkpt><trkpt lat="40.84994" lon="16.1228667"><ele>332.5</ele><time>2026-05-02T13:35:44.701Z</time></trkpt><trkpt lat="40.8497817" lon="16.1226517"><ele>334.0</ele><time>2026-05-02T13:35:45.702Z</time></trkpt><trkpt lat="40.8496183" lon="16.12244"><ele>334.66666666666663</ele><time>2026-05-02T13:35:46.7Z</time></trkpt><trkpt lat="40.8494583" lon="16.1222333"><ele>335.3333333333333</ele><time>2026-05-02T13:35:47.702Z</time></trkpt><trkpt lat="40.8493033" lon="16.1220317"><ele>336.0</ele><time>2026-05-02T13:35:48.701Z</time></trkpt><trkpt lat="40.84916" lon="16.1218433"><ele>336.0</ele><time>2026-05-02T13:35:49.701Z</time></trkpt><trkpt lat="40.8490283" lon="16.1216667"><ele>336.0</ele><time>2026-05-02T13:35:50.704Z</time></trkpt><trkpt lat="40.8489183" lon="16.121505"><ele>336.0</ele><time>2026-05-02T13:35:51.703Z</time></trkpt><trkpt lat="40.8488267" lon="16.121345"><ele>337.25</ele><time>2026-05-02T13:35:52.702Z</time></trkpt><trkpt lat="40.848755" lon="16.121175"><ele>338.5</ele><time>2026-05-02T13:35:53.701Z</time></trkpt><trkpt lat="40.8487033" lon="16.1209967"><ele>339.75</ele><time>2026-05-02T13:35:54.701Z</time></trkpt><trkpt lat="40.84867" lon="16.1208033"><ele>341.0</ele><time>2026-05-02T13:35:55.7Z</time></trkpt><trkpt lat="40.8486483" lon="16.1205883"><ele>343.0</ele><time>2026-05-02T13:35:56.702Z</time></trkpt><trkpt lat="40.848625" lon="16.1203467"><ele>345.0</ele><time>2026-05-02T13:35:57.701Z</time></trkpt><trkpt lat="40.8485983" lon="16.1200917"><ele>347.0</ele><time>2026-05-02T13:35:58.701Z</time></trkpt><trkpt lat="40.8485717" lon="16.1198267"><ele>347.6666666666667</ele><time>2026-05-02T13:35:59.702Z</time></trkpt><trkpt lat="40.8485433" lon="16.11955"><ele>348.3333333333333</ele><time>2026-05-02T13:36:00.701Z</time></trkpt><trkpt lat="40.848515" lon="16.1192717"><ele>349.0</ele><time>2026-05-02T13:36:01.701Z</time></trkpt><trkpt lat="40.84849" lon="16.1189933"><ele>349.66666666666663</ele><time>2026-05-02T13:36:02.702Z</time></trkpt><trkpt lat="40.848465" lon="16.1187267"><ele>350.3333333333333</ele><time>2026-05-02T13:36:03.701Z</time></trkpt><trkpt lat="40.8484333" lon="16.1184683"><ele>351.0</ele><time>2026-05-02T13:36:04.703Z</time></trkpt><trkpt lat="40.8484" lon="16.11821"><ele>348.3333333333333</ele><time>2026-05-02T13:36:05.702Z</time></trkpt><trkpt lat="40.8483683" lon="16.1179433"><ele>345.66666666666663</ele><time>2026-05-02T13:36:06.708Z</time></trkpt><trkpt lat="40.8483367" lon="16.1176817"><ele>343.0</ele><time>2026-05-02T13:36:07.701Z</time></trkpt><trkpt lat="40.8483017" lon="16.1174367"><ele>344.0</ele><time>2026-05-02T13:36:08.702Z</time></trkpt><trkpt lat="40.8482583" lon="16.1171967"><ele>345.0</ele><time>2026-05-02T13:36:09.701Z</time></trkpt><trkpt lat="40.848205" lon="16.1169533"><ele>346.0</ele><time>2026-05-02T13:36:10.701Z</time></trkpt><trkpt lat="40.848135" lon="16.116705"><ele>347.0</ele><time>2026-05-02T13:36:11.701Z</time></trkpt><trkpt lat="40.8480567" lon="16.1164583"><ele>348.0</ele><time>2026-05-02T13:36:12.702Z</time></trkpt><trkpt lat="40.8479783" lon="16.11622"><ele>349.0</ele><time>2026-05-02T13:36:13.701Z</time></trkpt><trkpt lat="40.8479067" lon="16.1159983"><ele>349.0</ele><time>2026-05-02T13:36:14.703Z</time></trkpt><trkpt lat="40.847845" lon="16.1157917"><ele>349.0</ele><time>2026-05-02T13:36:15.702Z</time></trkpt><trkpt lat="40.847795" lon="16.11559"><ele>349.0</ele><time>2026-05-02T13:36:16.7Z</time></trkpt><trkpt lat="40.8477567" lon="16.115395"><ele>350.25</ele><time>2026-05-02T13:36:17.701Z</time></trkpt><trkpt lat="40.8477417" lon="16.1152083"><ele>351.5</ele><time>2026-05-02T13:36:18.701Z</time></trkpt><trkpt lat="40.8477483" lon="16.1150183"><ele>352.75</ele><time>2026-05-02T13:36:19.701Z</time></trkpt><trkpt lat="40.8477733" lon="16.11481"><ele>354.0</ele><time>2026-05-02T13:36:20.701Z</time></trkpt><trkpt lat="40.8478133" lon="16.1145833"><ele>354.0</ele><time>2026-05-02T13:36:21.702Z</time></trkpt><trkpt lat="40.8478617" lon="16.1143417"><ele>354.0</ele><time>2026-05-02T13:36:22.702Z</time></trkpt><trkpt lat="40.84792" lon="16.1140767"><ele>354.0</ele><time>2026-05-02T13:36:23.703Z</time></trkpt><trkpt lat="40.8479833" lon="16.1137817"><ele>354.6666666666667</ele><time>2026-05-02T13:36:24.702Z</time></trkpt><trkpt lat="40.84804" lon="16.1134917"><ele>355.33333333333337</ele><time>2026-05-02T13:36:25.701Z</time></trkpt><trkpt lat="40.8480917" lon="16.1132217"><ele>356.0</ele><time>2026-05-02T13:36:26.701Z</time></trkpt><trkpt lat="40.8481317" lon="16.1129567"><ele>356.0</ele><time>2026-05-02T13:36:27.703Z</time></trkpt><trkpt lat="40.848155" lon="16.1126967"><ele>356.0</ele><time>2026-05-02T13:36:28.701Z</time></trkpt><trkpt lat="40.848165" lon="16.11244"><ele>356.0</ele><time>2026-05-02T13:36:29.702Z</time></trkpt><trkpt lat="40.8481683" lon="16.1121783"><ele>355.33333333333337</ele><time>2026-05-02T13:36:30.702Z</time></trkpt><trkpt lat="40.848175" lon="16.11191"><ele>354.6666666666667</ele><time>2026-05-02T13:36:31.702Z</time></trkpt><trkpt lat="40.8481817" lon="16.11165"><ele>354.0</ele><time>2026-05-02T13:36:32.702Z</time></trkpt><trkpt lat="40.8481867" lon="16.1114167"><ele>355.0</ele><time>2026-05-02T13:36:33.701Z</time></trkpt><trkpt lat="40.8481917" lon="16.1112133"><ele>356.0</ele><time>2026-05-02T13:36:34.703Z</time></trkpt><trkpt lat="40.848195" lon="16.111045"><ele>357.0</ele><time>2026-05-02T13:36:35.701Z</time></trkpt><trkpt lat="40.8481867" lon="16.110905"><ele>358.0</ele><time>2026-05-02T13:36:36.703Z</time></trkpt><trkpt lat="40.84817" lon="16.11078"><ele>358.79999999999995</ele><time>2026-05-02T13:36:37.702Z</time></trkpt><trkpt lat="40.8481467" lon="16.1106633"><ele>359.6</ele><time>2026-05-02T13:36:38.702Z</time></trkpt><trkpt lat="40.8481133" lon="16.110555"><ele>360.4</ele><time>2026-05-02T13:36:39.703Z</time></trkpt><trkpt lat="40.848065" lon="16.110445"><ele>361.20000000000005</ele><time>2026-05-02T13:36:40.702Z</time></trkpt><trkpt lat="40.8479983" lon="16.110325"><ele>362.0</ele><time>2026-05-02T13:36:41.702Z</time></trkpt><trkpt lat="40.8479133" lon="16.110185"><ele>362.0</ele><time>2026-05-02T13:36:42.701Z</time></trkpt><trkpt lat="40.84781" lon="16.11002"><ele>362.0</ele><time>2026-05-02T13:36:43.702Z</time></trkpt><trkpt lat="40.847695" lon="16.109835"><ele>362.0</ele><time>2026-05-02T13:36:44.701Z</time></trkpt><trkpt lat="40.8475633" lon="16.10963"><ele>360.33333333333337</ele><time>2026-05-02T13:36:45.701Z</time></trkpt><trkpt lat="40.8474267" lon="16.1094117"><ele>358.6666666666667</ele><time>2026-05-02T13:36:46.701Z</time></trkpt><trkpt lat="40.8472867" lon="16.1091933"><ele>357.0</ele><time>2026-05-02T13:36:47.701Z</time></trkpt><trkpt lat="40.8471483" lon="16.1089683"><ele>357.0</ele><time>2026-05-02T13:36:48.7Z</time></trkpt><trkpt lat="40.8470067" lon="16.108735"><ele>357.0</ele><time>2026-05-02T13:36:49.702Z</time></trkpt><trkpt lat="40.8468633" lon="16.108495"><ele>355.5</ele><time>2026-05-02T13:36:50.701Z</time></trkpt><trkpt lat="40.8467183" lon="16.10825"><ele>354.0</ele><time>2026-05-02T13:36:51.705Z</time></trkpt><trkpt lat="40.8465733" lon="16.108005"><ele>354.0</ele><time>2026-05-02T13:36:52.701Z</time></trkpt><trkpt lat="40.8464267" lon="16.10776"><ele>354.0</ele><time>2026-05-02T13:36:53.701Z</time></trkpt><trkpt lat="40.8462783" lon="16.10751"><ele>357.0</ele><time>2026-05-02T13:36:54.702Z</time></trkpt><trkpt lat="40.8461267" lon="16.1072617"><ele>360.0</ele><time>2026-05-02T13:36:55.701Z</time></trkpt><trkpt lat="40.8459717" lon="16.1070217"><ele>357.0</ele><time>2026-05-02T13:36:56.701Z</time></trkpt><trkpt lat="40.8458167" lon="16.1067867"><ele>354.0</ele><time>2026-05-02T13:36:57.702Z</time></trkpt><trkpt lat="40.845665" lon="16.1065633"><ele>354.0</ele><time>2026-05-02T13:36:58.708Z</time></trkpt><trkpt lat="40.845515" lon="16.1063517"><ele>354.0</ele><time>2026-05-02T13:36:59.702Z</time></trkpt><trkpt lat="40.8453667" lon="16.1061517"><ele>354.0</ele><time>2026-05-02T13:37:00.701Z</time></trkpt><trkpt lat="40.8452267" lon="16.105955"><ele>352.0</ele><time>2026-05-02T13:37:01.701Z</time></trkpt><trkpt lat="40.8450933" lon="16.1057667"><ele>350.0</ele><time>2026-05-02T13:37:02.701Z</time></trkpt><trkpt lat="40.8449667" lon="16.1055917"><ele>348.0</ele><time>2026-05-02T13:37:03.7Z</time></trkpt><trkpt lat="40.844845" lon="16.1054217"><ele>348.0</ele><time>2026-05-02T13:37:04.701Z</time></trkpt><trkpt lat="40.8447267" lon="16.105255"><ele>348.0</ele><time>2026-05-02T13:37:05.701Z</time></trkpt><trkpt lat="40.8446033" lon="16.10508"><ele>348.0</ele><time>2026-05-02T13:37:06.701Z</time></trkpt><trkpt lat="40.8444733" lon="16.1048967"><ele>349.0</ele><time>2026-05-02T13:37:07.7Z</time></trkpt><trkpt lat="40.8443367" lon="16.104705"><ele>350.0</ele><time>2026-05-02T13:37:08.702Z</time></trkpt><trkpt lat="40.8441967" lon="16.104505"><ele>351.0</ele><time>2026-05-02T13:37:09.7Z</time></trkpt><trkpt lat="40.8440533" lon="16.1042983"><ele>350.3333333333333</ele><time>2026-05-02T13:37:10.701Z</time></trkpt><trkpt lat="40.8439017" lon="16.1040883"><ele>349.66666666666663</ele><time>2026-05-02T13:37:11.702Z</time></trkpt><trkpt lat="40.8437533" lon="16.1038817"><ele>349.0</ele><time>2026-05-02T13:37:12.702Z</time></trkpt><trkpt lat="40.8436117" lon="16.1036833"><ele>349.0</ele><time>2026-05-02T13:37:13.701Z</time></trkpt><trkpt lat="40.8434717" lon="16.1034883"><ele>349.0</ele><time>2026-05-02T13:37:14.702Z</time></trkpt><trkpt lat="40.843335" lon="16.1033"><ele>349.0</ele><time>2026-05-02T13:37:15.701Z</time></trkpt><trkpt lat="40.843205" lon="16.1031133"><ele>348.0</ele><time>2026-05-02T13:37:16.702Z</time></trkpt><trkpt lat="40.8430833" lon="16.1029367"><ele>347.0</ele><time>2026-05-02T13:37:17.702Z</time></trkpt><trkpt lat="40.8429683" lon="16.1027717"><ele>346.0</ele><time>2026-05-02T13:37:18.701Z</time></trkpt><trkpt lat="40.8428617" lon="16.1026217"><ele>346.0</ele><time>2026-05-02T13:37:19.701Z</time></trkpt><trkpt lat="40.842765" lon="16.1024883"><ele>346.0</ele><time>2026-05-02T13:37:20.704Z</time></trkpt><trkpt lat="40.8426817" lon="16.1023717"><ele>346.0</ele><time>2026-05-02T13:37:21.702Z</time></trkpt><trkpt lat="40.8426117" lon="16.1022767"><ele>346.0</ele><time>2026-05-02T13:37:22.702Z</time></trkpt><trkpt lat="40.8425583" lon="16.1022017"><ele>346.0</ele><time>2026-05-02T13:37:23.702Z</time></trkpt><trkpt lat="40.8425183" lon="16.1021317"><ele>346.4</ele><time>2026-05-02T13:37:24.702Z</time></trkpt><trkpt lat="40.8425033" lon="16.1019867"><ele>346.8</ele><time>2026-05-02T13:37:26.701Z</time></trkpt><trkpt lat="40.8425233" lon="16.1019"><ele>347.2</ele><time>2026-05-02T13:37:27.701Z</time></trkpt><trkpt lat="40.8425433" lon="16.1017983"><ele>347.59999999999997</ele><time>2026-05-02T13:37:28.702Z</time></trkpt><trkpt lat="40.8425583" lon="16.10168"><ele>348.0</ele><time>2026-05-02T13:37:29.701Z</time></trkpt><trkpt lat="40.842565" lon="16.1015467"><ele>348.0</ele><time>2026-05-02T13:37:30.702Z</time></trkpt><trkpt lat="40.842565" lon="16.1013983"><ele>348.0</ele><time>2026-05-02T13:37:31.7Z</time></trkpt><trkpt lat="40.84256" lon="16.1012333"><ele>348.0</ele><time>2026-05-02T13:37:32.701Z</time></trkpt><trkpt lat="40.84255" lon="16.10105"><ele>348.0</ele><time>2026-05-02T13:37:33.702Z</time></trkpt><trkpt lat="40.8425333" lon="16.100845"><ele>349.3333333333333</ele><time>2026-05-02T13:37:34.701Z</time></trkpt><trkpt lat="40.8425167" lon="16.100635"><ele>350.66666666666663</ele><time>2026-05-02T13:37:35.702Z</time></trkpt><trkpt lat="40.8425117" lon="16.100415"><ele>352.0</ele><time>2026-05-02T13:37:36.701Z</time></trkpt><trkpt lat="40.8425133" lon="16.1001933"><ele>352.0</ele><time>2026-05-02T13:37:37.701Z</time></trkpt><trkpt lat="40.842515" lon="16.09997"><ele>352.0</ele><time>2026-05-02T13:37:38.701Z</time></trkpt><trkpt lat="40.8425183" lon="16.0997467"><ele>352.0</ele><time>2026-05-02T13:37:39.701Z</time></trkpt><trkpt lat="40.8425183" lon="16.09951"><ele>353.3333333333333</ele><time>2026-05-02T13:37:40.701Z</time></trkpt><trkpt lat="40.84251" lon="16.09926"><ele>354.6666666666667</ele><time>2026-05-02T13:37:41.701Z</time></trkpt><trkpt lat="40.8424883" lon="16.0989933"><ele>356.0</ele><time>2026-05-02T13:37:42.701Z</time></trkpt><trkpt lat="40.8424617" lon="16.0987133"><ele>357.0</ele><time>2026-05-02T13:37:43.701Z</time></trkpt><trkpt lat="40.8424417" lon="16.0984417"><ele>358.0</ele><time>2026-05-02T13:37:44.701Z</time></trkpt><trkpt lat="40.842425" lon="16.0981917"><ele>359.0</ele><time>2026-05-02T13:37:45.702Z</time></trkpt><trkpt lat="40.8424083" lon="16.097965"><ele>360.0</ele><time>2026-05-02T13:37:46.701Z</time></trkpt><trkpt lat="40.8423933" lon="16.0977583"><ele>361.0</ele><time>2026-05-02T13:37:47.701Z</time></trkpt><trkpt lat="40.8423833" lon="16.0975683"><ele>362.0</ele><time>2026-05-02T13:37:48.701Z</time></trkpt><trkpt lat="40.84238" lon="16.0973783"><ele>363.0</ele><time>2026-05-02T13:37:49.701Z</time></trkpt><trkpt lat="40.8423883" lon="16.0971783"><ele>363.6666666666667</ele><time>2026-05-02T13:37:50.702Z</time></trkpt><trkpt lat="40.8424083" lon="16.0969617"><ele>364.33333333333337</ele><time>2026-05-02T13:37:51.701Z</time></trkpt><trkpt lat="40.8424383" lon="16.0967383"><ele>365.0</ele><time>2026-05-02T13:37:52.7Z</time></trkpt><trkpt lat="40.8424783" lon="16.09652"><ele>365.0</ele><time>2026-05-02T13:37:53.702Z</time></trkpt><trkpt lat="40.84253" lon="16.0962983"><ele>365.0</ele><time>2026-05-02T13:37:54.702Z</time></trkpt><trkpt lat="40.8425883" lon="16.0960683"><ele>365.0</ele><time>2026-05-02T13:37:55.702Z</time></trkpt><trkpt lat="40.84265" lon="16.095835"><ele>368.0</ele><time>2026-05-02T13:37:56.702Z</time></trkpt><trkpt lat="40.84271" lon="16.0956017"><ele>371.0</ele><time>2026-05-02T13:37:57.701Z</time></trkpt><trkpt lat="40.842765" lon="16.0953683"><ele>374.0</ele><time>2026-05-02T13:37:58.701Z</time></trkpt><trkpt lat="40.842815" lon="16.095125"><ele>374.33333333333337</ele><time>2026-05-02T13:37:59.701Z</time></trkpt><trkpt lat="40.842865" lon="16.0948817"><ele>374.6666666666667</ele><time>2026-05-02T13:38:00.701Z</time></trkpt><trkpt lat="40.8429133" lon="16.094655"><ele>375.0</ele><time>2026-05-02T13:38:01.701Z</time></trkpt><trkpt lat="40.8429617" lon="16.0944433"><ele>375.0</ele><time>2026-05-02T13:38:02.701Z</time></trkpt><trkpt lat="40.8430033" lon="16.094245"><ele>375.0</ele><time>2026-05-02T13:38:03.703Z</time></trkpt><trkpt lat="40.84304" lon="16.0940583"><ele>375.0</ele><time>2026-05-02T13:38:04.702Z</time></trkpt><trkpt lat="40.8430717" lon="16.0938733"><ele>375.0</ele><time>2026-05-02T13:38:05.7Z</time></trkpt><trkpt lat="40.843095" lon="16.0936767"><ele>375.3333333333333</ele><time>2026-05-02T13:38:06.701Z</time></trkpt><trkpt lat="40.843105" lon="16.0934617"><ele>375.66666666666663</ele><time>2026-05-02T13:38:07.7Z</time></trkpt><trkpt lat="40.843105" lon="16.0932333"><ele>376.0</ele><time>2026-05-02T13:38:08.701Z</time></trkpt><trkpt lat="40.8431017" lon="16.0929933"><ele>376.0</ele><time>2026-05-02T13:38:09.702Z</time></trkpt><trkpt lat="40.8431033" lon="16.0927467"><ele>376.0</ele><time>2026-05-02T13:38:10.701Z</time></trkpt><trkpt lat="40.8431083" lon="16.0924917"><ele>376.0</ele><time>2026-05-02T13:38:11.702Z</time></trkpt><trkpt lat="40.84311" lon="16.0922317"><ele>376.0</ele><time>2026-05-02T13:38:12.702Z</time></trkpt><trkpt lat="40.84311" lon="16.0919667"><ele>376.0</ele><time>2026-05-02T13:38:13.701Z</time></trkpt><trkpt lat="40.843105" lon="16.0917017"><ele>376.0</ele><time>2026-05-02T13:38:14.702Z</time></trkpt><trkpt lat="40.8431033" lon="16.0914417"><ele>377.0</ele><time>2026-05-02T13:38:15.7Z</time></trkpt><trkpt lat="40.8431033" lon="16.09118"><ele>378.0</ele><time>2026-05-02T13:38:16.701Z</time></trkpt><trkpt lat="40.8431033" lon="16.0909183"><ele>379.0</ele><time>2026-05-02T13:38:17.701Z</time></trkpt><trkpt lat="40.8431033" lon="16.09066"><ele>380.0</ele><time>2026-05-02T13:38:18.701Z</time></trkpt><trkpt lat="40.8431033" lon="16.0904"><ele>381.0</ele><time>2026-05-02T13:38:19.701Z</time></trkpt><trkpt lat="40.8431033" lon="16.09015"><ele>382.0</ele><time>2026-05-02T13:38:20.702Z</time></trkpt><trkpt lat="40.843105" lon="16.0899117"><ele>383.0</ele><time>2026-05-02T13:38:21.701Z</time></trkpt><trkpt lat="40.8431067" lon="16.0896767"><ele>384.0</ele><time>2026-05-02T13:38:22.702Z</time></trkpt><trkpt lat="40.8431067" lon="16.0894533"><ele>385.0</ele><time>2026-05-02T13:38:23.702Z</time></trkpt><trkpt lat="40.843105" lon="16.0892567"><ele>385.5</ele><time>2026-05-02T13:38:24.7Z</time></trkpt><trkpt lat="40.8431067" lon="16.0890783"><ele>386.0</ele><time>2026-05-02T13:38:25.701Z</time></trkpt><trkpt lat="40.8431083" lon="16.0889167"><ele>386.5</ele><time>2026-05-02T13:38:26.701Z</time></trkpt><trkpt lat="40.84311" lon="16.0887733"><ele>387.0</ele><time>2026-05-02T13:38:27.701Z</time></trkpt><trkpt lat="40.84311" lon="16.0886267"><ele>387.0</ele><time>2026-05-02T13:38:28.701Z</time></trkpt><trkpt lat="40.8431117" lon="16.0884733"><ele>387.0</ele><time>2026-05-02T13:38:29.7Z</time></trkpt><trkpt lat="40.843115" lon="16.0883283"><ele>387.0</ele><time>2026-05-02T13:38:30.701Z</time></trkpt><trkpt lat="40.843125" lon="16.0881933"><ele>387.0</ele><time>2026-05-02T13:38:31.701Z</time></trkpt><trkpt lat="40.8431417" lon="16.0880517"><ele>387.0</ele><time>2026-05-02T13:38:32.703Z</time></trkpt><trkpt lat="40.843175" lon="16.087895"><ele>387.75</ele><time>2026-05-02T13:38:33.701Z</time></trkpt><trkpt lat="40.843215" lon="16.0877317"><ele>388.5</ele><time>2026-05-02T13:38:34.702Z</time></trkpt><trkpt lat="40.8432583" lon="16.087555"><ele>389.25</ele><time>2026-05-02T13:38:35.701Z</time></trkpt><trkpt lat="40.8432983" lon="16.08737"><ele>390.0</ele><time>2026-05-02T13:38:36.7Z</time></trkpt><trkpt lat="40.843335" lon="16.087195"><ele>391.0</ele><time>2026-05-02T13:38:37.7Z</time></trkpt><trkpt lat="40.8433683" lon="16.087035"><ele>392.0</ele><time>2026-05-02T13:38:38.703Z</time></trkpt><trkpt lat="40.8433967" lon="16.0868867"><ele>393.0</ele><time>2026-05-02T13:38:39.702Z</time></trkpt><trkpt lat="40.84342" lon="16.0867533"><ele>394.0</ele><time>2026-05-02T13:38:40.701Z</time></trkpt><trkpt lat="40.8434367" lon="16.0866367"><ele>395.0</ele><time>2026-05-02T13:38:41.702Z</time></trkpt><trkpt lat="40.8434483" lon="16.0865333"><ele>395.66666666666663</ele><time>2026-05-02T13:38:42.702Z</time></trkpt><trkpt lat="40.8434583" lon="16.0864467"><ele>396.3333333333333</ele><time>2026-05-02T13:38:43.701Z</time></trkpt><trkpt lat="40.8434867" lon="16.0863517"><ele>397.0</ele><time>2026-05-02T13:38:45.701Z</time></trkpt><trkpt lat="40.8435417" lon="16.0863"><ele>397.66666666666663</ele><time>2026-05-02T13:38:48.701Z</time></trkpt><trkpt lat="40.8436433" lon="16.0862117"><ele>398.3333333333333</ele><time>2026-05-02T13:38:50.702Z</time></trkpt><trkpt lat="40.8437033" lon="16.08615"><ele>399.0</ele><time>2026-05-02T13:38:51.702Z</time></trkpt><trkpt lat="40.8437683" lon="16.08608"><ele>399.0</ele><time>2026-05-02T13:38:52.702Z</time></trkpt><trkpt lat="40.8438433" lon="16.0860033"><ele>399.0</ele><time>2026-05-02T13:38:53.701Z</time></trkpt><trkpt lat="40.8439283" lon="16.0859217"><ele>399.0</ele><time>2026-05-02T13:38:54.701Z</time></trkpt><trkpt lat="40.8440283" lon="16.0858317"><ele>399.0</ele><time>2026-05-02T13:38:55.701Z</time></trkpt><trkpt lat="40.8441367" lon="16.0857417"><ele>399.0</ele><time>2026-05-02T13:38:56.701Z</time></trkpt><trkpt lat="40.8442517" lon="16.0856483"><ele>400.5</ele><time>2026-05-02T13:38:57.702Z</time></trkpt><trkpt lat="40.8443617" lon="16.0855633"><ele>402.0</ele><time>2026-05-02T13:38:58.701Z</time></trkpt><trkpt lat="40.84447" lon="16.0854917"><ele>403.5</ele><time>2026-05-02T13:38:59.701Z</time></trkpt><trkpt lat="40.8445883" lon="16.0854333"><ele>405.0</ele><time>2026-05-02T13:39:00.701Z</time></trkpt><trkpt lat="40.844725" lon="16.0853917"><ele>405.0</ele><time>2026-05-02T13:39:01.7Z</time></trkpt><trkpt lat="40.8448667" lon="16.0853533"><ele>405.0</ele><time>2026-05-02T13:39:02.701Z</time></trkpt><trkpt lat="40.8450033" lon="16.0853017"><ele>405.0</ele><time>2026-05-02T13:39:03.701Z</time></trkpt><trkpt lat="40.845135" lon="16.0852517"><ele>405.0</ele><time>2026-05-02T13:39:04.702Z</time></trkpt><trkpt lat="40.8452683" lon="16.0852183"><ele>406.25</ele><time>2026-05-02T13:39:05.702Z</time></trkpt><trkpt lat="40.8454033" lon="16.0852033"><ele>407.5</ele><time>2026-05-02T13:39:06.701Z</time></trkpt><trkpt lat="40.845535" lon="16.0852017"><ele>408.75</ele><time>2026-05-02T13:39:07.702Z</time></trkpt><trkpt lat="40.8456683" lon="16.0851917"><ele>410.0</ele><time>2026-05-02T13:39:08.702Z</time></trkpt><trkpt lat="40.8458" lon="16.0851833"><ele>410.0</ele><time>2026-05-02T13:39:09.703Z</time></trkpt><trkpt lat="40.8459233" lon="16.0851733"><ele>410.0</ele><time>2026-05-02T13:39:10.702Z</time></trkpt><trkpt lat="40.846045" lon="16.0851633"><ele>410.0</ele><time>2026-05-02T13:39:11.703Z</time></trkpt><trkpt lat="40.84617" lon="16.085145"><ele>410.0</ele><time>2026-05-02T13:39:12.702Z</time></trkpt><trkpt lat="40.84629" lon="16.08513"><ele>411.5</ele><time>2026-05-02T13:39:13.702Z</time></trkpt><trkpt lat="40.846405" lon="16.0851317"><ele>413.0</ele><time>2026-05-02T13:39:14.702Z</time></trkpt><trkpt lat="40.8465133" lon="16.0851667"><ele>414.5</ele><time>2026-05-02T13:39:15.7Z</time></trkpt><trkpt lat="40.8466267" lon="16.0852283"><ele>416.0</ele><time>2026-05-02T13:39:16.701Z</time></trkpt><trkpt lat="40.8467417" lon="16.0852983"><ele>418.25</ele><time>2026-05-02T13:39:17.703Z</time></trkpt><trkpt lat="40.8468583" lon="16.0853667"><ele>420.5</ele><time>2026-05-02T13:39:18.701Z</time></trkpt><trkpt lat="40.8469717" lon="16.0854333"><ele>422.75</ele><time>2026-05-02T13:39:19.704Z</time></trkpt><trkpt lat="40.847075" lon="16.0855033"><ele>425.0</ele><time>2026-05-02T13:39:20.703Z</time></trkpt><trkpt lat="40.8471667" lon="16.0855867"><ele>425.0</ele><time>2026-05-02T13:39:21.702Z</time></trkpt><trkpt lat="40.8472533" lon="16.085685"><ele>425.0</ele><time>2026-05-02T13:39:22.701Z</time></trkpt><trkpt lat="40.8473383" lon="16.0857983"><ele>425.0</ele><time>2026-05-02T13:39:23.702Z</time></trkpt><trkpt lat="40.84742" lon="16.0859283"><ele>425.0</ele><time>2026-05-02T13:39:24.702Z</time></trkpt><trkpt lat="40.8474983" lon="16.0860717"><ele>425.5</ele><time>2026-05-02T13:39:25.701Z</time></trkpt><trkpt lat="40.8475733" lon="16.0862183"><ele>426.0</ele><time>2026-05-02T13:39:26.702Z</time></trkpt><trkpt lat="40.8476433" lon="16.08636"><ele>426.5</ele><time>2026-05-02T13:39:27.702Z</time></trkpt><trkpt lat="40.84771" lon="16.086505"><ele>427.0</ele><time>2026-05-02T13:39:28.703Z</time></trkpt><trkpt lat="40.847775" lon="16.086655"><ele>431.0</ele><time>2026-05-02T13:39:29.701Z</time></trkpt><trkpt lat="40.8478383" lon="16.0868"><ele>435.0</ele><time>2026-05-02T13:39:30.701Z</time></trkpt><trkpt lat="40.8479" lon="16.0869317"><ele>439.0</ele><time>2026-05-02T13:39:31.7Z</time></trkpt><trkpt lat="40.8479583" lon="16.0870617"><ele>443.0</ele><time>2026-05-02T13:39:32.702Z</time></trkpt><trkpt lat="40.84801" lon="16.08719"><ele>443.0</ele><time>2026-05-02T13:39:33.7Z</time></trkpt><trkpt lat="40.848055" lon="16.0873167"><ele>442.99999999999994</ele><time>2026-05-02T13:39:34.701Z</time></trkpt><trkpt lat="40.8480983" lon="16.087445"><ele>442.99999999999994</ele><time>2026-05-02T13:39:35.702Z</time></trkpt><trkpt lat="40.8481467" lon="16.0875667"><ele>443.0</ele><time>2026-05-02T13:39:36.701Z</time></trkpt><trkpt lat="40.8482067" lon="16.0876567"><ele>443.0</ele><time>2026-05-02T13:39:37.701Z</time></trkpt><trkpt lat="40.84828" lon="16.08772"><ele>443.2</ele><time>2026-05-02T13:39:38.703Z</time></trkpt><trkpt lat="40.8483683" lon="16.087755"><ele>443.4</ele><time>2026-05-02T13:39:39.701Z</time></trkpt><trkpt lat="40.8484683" lon="16.087755"><ele>443.59999999999997</ele><time>2026-05-02T13:39:40.701Z</time></trkpt><trkpt lat="40.8485667" lon="16.0877317"><ele>443.79999999999995</ele><time>2026-05-02T13:39:41.701Z</time></trkpt><trkpt lat="40.8486683" lon="16.0876917"><ele>444.0</ele><time>2026-05-02T13:39:42.701Z</time></trkpt><trkpt lat="40.8487667" lon="16.0876333"><ele>446.0</ele><time>2026-05-02T13:39:43.701Z</time></trkpt><trkpt lat="40.848855" lon="16.0875583"><ele>448.0</ele><time>2026-05-02T13:39:44.704Z</time></trkpt><trkpt lat="40.84894" lon="16.0874833"><ele>450.0</ele><time>2026-05-02T13:39:45.702Z</time></trkpt><trkpt lat="40.84903" lon="16.087415"><ele>452.0</ele><time>2026-05-02T13:39:46.701Z</time></trkpt><trkpt lat="40.849115" lon="16.08735"><ele>454.0</ele><time>2026-05-02T13:39:47.701Z</time></trkpt><trkpt lat="40.8491833" lon="16.0872983"><ele>454.1666666666667</ele><time>2026-05-02T13:39:48.701Z</time></trkpt><trkpt lat="40.84925" lon="16.087245"><ele>454.33333333333337</ele><time>2026-05-02T13:39:49.702Z</time></trkpt><trkpt lat="40.8493183" lon="16.0871833"><ele>454.5</ele><time>2026-05-02T13:39:50.701Z</time></trkpt><trkpt lat="40.8493867" lon="16.0871233"><ele>454.66666666666663</ele><time>2026-05-02T13:39:51.701Z</time></trkpt><trkpt lat="40.8494567" lon="16.0870633"><ele>454.8333333333333</ele><time>2026-05-02T13:39:52.702Z</time></trkpt><trkpt lat="40.8495233" lon="16.0870083"><ele>455.0</ele><time>2026-05-02T13:39:53.703Z</time></trkpt><trkpt lat="40.84958" lon="16.086965"><ele>456.4</ele><time>2026-05-02T13:39:54.701Z</time></trkpt><trkpt lat="40.8496817" lon="16.0868783"><ele>457.8</ele><time>2026-05-02T13:39:56.701Z</time></trkpt><trkpt lat="40.84974" lon="16.086835"><ele>459.20000000000005</ele><time>2026-05-02T13:39:57.701Z</time></trkpt><trkpt lat="40.8497967" lon="16.0867983"><ele>460.6</ele><time>2026-05-02T13:39:58.702Z</time></trkpt><trkpt lat="40.8499017" lon="16.086725"><ele>462.0</ele><time>2026-05-02T13:40:00.7Z</time></trkpt><trkpt lat="40.849995" lon="16.086645"><ele>462.1666666666667</ele><time>2026-05-02T13:40:02.702Z</time></trkpt><trkpt lat="40.8500467" lon="16.0865917"><ele>462.33333333333337</ele><time>2026-05-02T13:40:03.7Z</time></trkpt><trkpt lat="40.850115" lon="16.0865333"><ele>462.5</ele><time>2026-05-02T13:40:04.701Z</time></trkpt><trkpt lat="40.8502017" lon="16.0864817"><ele>462.6666666666667</ele><time>2026-05-02T13:40:05.7Z</time></trkpt><trkpt lat="40.8502883" lon="16.0864267"><ele>462.83333333333337</ele><time>2026-05-02T13:40:06.701Z</time></trkpt><trkpt lat="40.8503633" lon="16.0863733"><ele>463.0</ele><time>2026-05-02T13:40:07.7Z</time></trkpt><trkpt lat="40.850435" lon="16.0863217"><ele>465.0</ele><time>2026-05-02T13:40:08.701Z</time></trkpt><trkpt lat="40.850515" lon="16.08627"><ele>466.99999999999994</ele><time>2026-05-02T13:40:09.702Z</time></trkpt><trkpt lat="40.8506033" lon="16.0862133"><ele>468.99999999999994</ele><time>2026-05-02T13:40:10.701Z</time></trkpt><trkpt lat="40.850705" lon="16.0861433"><ele>471.0</ele><time>2026-05-02T13:40:11.702Z</time></trkpt><trkpt lat="40.8508" lon="16.08608"><ele>473.0</ele><time>2026-05-02T13:40:12.7Z</time></trkpt><trkpt lat="40.8508791" lon="16.0860254"><ele>472.99999999999994</ele><time>2026-05-02T13:40:13.701Z</time></trkpt><trkpt lat="40.8509406" lon="16.0859797"><ele>473.0</ele><time>2026-05-02T13:40:14.702Z</time></trkpt><trkpt lat="40.8510309" lon="16.0859089"><ele>473.0</ele><time>2026-05-02T13:40:16.701Z</time></trkpt><trkpt lat="40.8511078" lon="16.0858581"><ele>473.0</ele><time>2026-05-02T13:40:18.701Z</time></trkpt><trkpt lat="40.8511646" lon="16.0858185"><ele>472.99999999999994</ele><time>2026-05-02T13:40:19.702Z</time></trkpt><trkpt lat="40.8512472" lon="16.085765"><ele>473.0</ele><time>2026-05-02T13:40:20.702Z</time></trkpt><trkpt lat="40.8513483" lon="16.0856985"><ele>476.0</ele><time>2026-05-02T13:40:21.7Z</time></trkpt><trkpt lat="40.8514514" lon="16.0856302"><ele>479.0</ele><time>2026-05-02T13:40:22.7Z</time></trkpt><trkpt lat="40.8515465" lon="16.0855565"><ele>482.0</ele><time>2026-05-02T13:40:23.703Z</time></trkpt><trkpt lat="40.851638" lon="16.0854619"><ele>485.0</ele><time>2026-05-02T13:40:24.701Z</time></trkpt><trkpt lat="40.8517309" lon="16.0853458"><ele>488.0</ele><time>2026-05-02T13:40:25.703Z</time></trkpt><trkpt lat="40.8518242" lon="16.0852218"><ele>491.0</ele><time>2026-05-02T13:40:26.703Z</time></trkpt><trkpt lat="40.8519191" lon="16.0850983"><ele>494.0</ele><time>2026-05-02T13:40:27.701Z</time></trkpt><trkpt lat="40.852017" lon="16.0849733"><ele>497.0</ele><time>2026-05-02T13:40:28.702Z</time></trkpt><trkpt lat="40.8521158" lon="16.0848517"><ele>497.0</ele><time>2026-05-02T13:40:29.701Z</time></trkpt><trkpt lat="40.8522111" lon="16.084737"><ele>497.00000000000006</ele><time>2026-05-02T13:40:30.709Z</time></trkpt><trkpt lat="40.8522892" lon="16.0846406"><ele>497.00000000000006</ele><time>2026-05-02T13:40:31.7Z</time></trkpt><trkpt lat="40.8523542" lon="16.0845582"><ele>497.0</ele><time>2026-05-02T13:40:32.701Z</time></trkpt><trkpt lat="40.8524173" lon="16.084477"><ele>497.0</ele><time>2026-05-02T13:40:33.7Z</time></trkpt><trkpt lat="40.8524872" lon="16.0843922"><ele>496.99999999999994</ele><time>2026-05-02T13:40:34.702Z</time></trkpt><trkpt lat="40.8525637" lon="16.0842992"><ele>497.0</ele><time>2026-05-02T13:40:35.702Z</time></trkpt><trkpt lat="40.8526386" lon="16.0842026"><ele>497.0</ele><time>2026-05-02T13:40:36.702Z</time></trkpt><trkpt lat="40.852702" lon="16.0841123"><ele>497.0</ele><time>2026-05-02T13:40:37.7Z</time></trkpt><trkpt lat="40.8527577" lon="16.0840441"><ele>496.99999999999994</ele><time>2026-05-02T13:40:38.702Z</time></trkpt><trkpt lat="40.8528164" lon="16.0839964"><ele>497.0</ele><time>2026-05-02T13:40:39.701Z</time></trkpt><trkpt lat="40.8528811" lon="16.0839664"><ele>498.8</ele><time>2026-05-02T13:40:40.703Z</time></trkpt><trkpt lat="40.852964" lon="16.0839509"><ele>500.6</ele><time>2026-05-02T13:40:41.702Z</time></trkpt><trkpt lat="40.8530644" lon="16.0839475"><ele>502.40000000000003</ele><time>2026-05-02T13:40:42.7Z</time></trkpt><trkpt lat="40.853182" lon="16.0839518"><ele>504.20000000000005</ele><time>2026-05-02T13:40:43.702Z</time></trkpt><trkpt lat="40.8533065" lon="16.0839612"><ele>506.0</ele><time>2026-05-02T13:40:44.701Z</time></trkpt><trkpt lat="40.8534238" lon="16.0839689"><ele>508.3333333333333</ele><time>2026-05-02T13:40:45.701Z</time></trkpt><trkpt lat="40.853525" lon="16.083985"><ele>510.66666666666663</ele><time>2026-05-02T13:40:46.702Z</time></trkpt><trkpt lat="40.853605" lon="16.08402"><ele>513.0</ele><time>2026-05-02T13:40:47.702Z</time></trkpt><trkpt lat="40.8536717" lon="16.0840683"><ele>515.3333333333334</ele><time>2026-05-02T13:40:48.702Z</time></trkpt><trkpt lat="40.8537183" lon="16.08413"><ele>517.6666666666667</ele><time>2026-05-02T13:40:49.702Z</time></trkpt><trkpt lat="40.8537483" lon="16.08421"><ele>520.0</ele><time>2026-05-02T13:40:50.702Z</time></trkpt><trkpt lat="40.8537633" lon="16.0843133"><ele>520.5</ele><time>2026-05-02T13:40:51.702Z</time></trkpt><trkpt lat="40.8537717" lon="16.084445"><ele>521.0</ele><time>2026-05-02T13:40:52.702Z</time></trkpt><trkpt lat="40.853785" lon="16.0845983"><ele>521.5</ele><time>2026-05-02T13:40:53.707Z</time></trkpt><trkpt lat="40.8538017" lon="16.0847683"><ele>522.0</ele><time>2026-05-02T13:40:54.701Z</time></trkpt><trkpt lat="40.8538217" lon="16.0849483"><ele>523.25</ele><time>2026-05-02T13:40:55.702Z</time></trkpt><trkpt lat="40.8538433" lon="16.0851367"><ele>524.5</ele><time>2026-05-02T13:40:56.701Z</time></trkpt><trkpt lat="40.8538617" lon="16.085315"><ele>525.75</ele><time>2026-05-02T13:40:57.702Z</time></trkpt><trkpt lat="40.853875" lon="16.0854817"><ele>527.0</ele><time>2026-05-02T13:40:58.701Z</time></trkpt><trkpt lat="40.8538883" lon="16.0856333"><ele>527.0</ele><time>2026-05-02T13:40:59.704Z</time></trkpt><trkpt lat="40.8539067" lon="16.085745"><ele>527.0</ele><time>2026-05-02T13:41:00.702Z</time></trkpt><trkpt lat="40.8539333" lon="16.0858267"><ele>527.0</ele><time>2026-05-02T13:41:01.7Z</time></trkpt><trkpt lat="40.8540067" lon="16.0858333"><ele>527.0</ele><time>2026-05-02T13:41:04.701Z</time></trkpt><trkpt lat="40.854055" lon="16.0857433"><ele>527.0</ele><time>2026-05-02T13:42:03.702Z</time></trkpt><trkpt lat="40.8541233" lon="16.0856167"><ele>527.0</ele><time>2026-05-02T13:42:05.702Z</time></trkpt><trkpt lat="40.854175" lon="16.0855317"><ele>527.0</ele><time>2026-05-02T13:42:06.702Z</time></trkpt><trkpt lat="40.8542367" lon="16.0854333"><ele>527.0</ele><time>2026-05-02T13:42:07.703Z</time></trkpt><trkpt lat="40.8543083" lon="16.0853217"><ele>527.0</ele><time>2026-05-02T13:42:08.702Z</time></trkpt><trkpt lat="40.8543883" lon="16.085205"><ele>527.0</ele><time>2026-05-02T13:42:09.702Z</time></trkpt><trkpt lat="40.85448" lon="16.08509"><ele>530.25</ele><time>2026-05-02T13:42:10.702Z</time></trkpt><trkpt lat="40.8545817" lon="16.0849583"><ele>533.5</ele><time>2026-05-02T13:42:11.703Z</time></trkpt><trkpt lat="40.8546883" lon="16.0848133"><ele>536.75</ele><time>2026-05-02T13:42:12.703Z</time></trkpt><trkpt lat="40.8547933" lon="16.0846667"><ele>540.0</ele><time>2026-05-02T13:42:13.702Z</time></trkpt><trkpt lat="40.85489" lon="16.0845267"><ele>540.0</ele><time>2026-05-02T13:42:14.704Z</time></trkpt><trkpt lat="40.8549767" lon="16.0843783"><ele>540.0</ele><time>2026-05-02T13:42:15.702Z</time></trkpt><trkpt lat="40.8550583" lon="16.0842133"><ele>540.0</ele><time>2026-05-02T13:42:16.701Z</time></trkpt><trkpt lat="40.8551417" lon="16.0840367"><ele>540.0</ele><time>2026-05-02T13:42:17.701Z</time></trkpt><trkpt lat="40.8552233" lon="16.0838567"><ele>544.6666666666666</ele><time>2026-05-02T13:42:18.702Z</time></trkpt><trkpt lat="40.8553117" lon="16.0836767"><ele>549.3333333333333</ele><time>2026-05-02T13:42:19.701Z</time></trkpt><trkpt lat="40.8554" lon="16.083505"><ele>554.0</ele><time>2026-05-02T13:42:20.702Z</time></trkpt><trkpt lat="40.8554817" lon="16.0833333"><ele>553.6666666666666</ele><time>2026-05-02T13:42:21.702Z</time></trkpt><trkpt lat="40.8555583" lon="16.0831567"><ele>553.3333333333334</ele><time>2026-05-02T13:42:22.702Z</time></trkpt><trkpt lat="40.8556317" lon="16.082985"><ele>553.0</ele><time>2026-05-02T13:42:23.702Z</time></trkpt><trkpt lat="40.8556983" lon="16.0828117"><ele>553.0</ele><time>2026-05-02T13:42:24.7Z</time></trkpt><trkpt lat="40.8557567" lon="16.0826233"><ele>553.0</ele><time>2026-05-02T13:42:25.702Z</time></trkpt><trkpt lat="40.8558033" lon="16.0824233"><ele>553.0</ele><time>2026-05-02T13:42:26.701Z</time></trkpt><trkpt lat="40.8558417" lon="16.0822183"><ele>553.3333333333334</ele><time>2026-05-02T13:42:27.701Z</time></trkpt><trkpt lat="40.85588" lon="16.0820183"><ele>553.6666666666666</ele><time>2026-05-02T13:42:28.702Z</time></trkpt><trkpt lat="40.8559117" lon="16.0818133"><ele>554.0</ele><time>2026-05-02T13:42:29.702Z</time></trkpt><trkpt lat="40.8559383" lon="16.08159"><ele>556.0</ele><time>2026-05-02T13:42:30.702Z</time></trkpt><trkpt lat="40.855965" lon="16.0813483"><ele>558.0</ele><time>2026-05-02T13:42:31.7Z</time></trkpt><trkpt lat="40.85599" lon="16.0811017"><ele>560.0</ele><time>2026-05-02T13:42:32.701Z</time></trkpt><trkpt lat="40.8560167" lon="16.0808517"><ele>561.0</ele><time>2026-05-02T13:42:33.702Z</time></trkpt><trkpt lat="40.8560417" lon="16.0805983"><ele>562.0</ele><time>2026-05-02T13:42:34.7Z</time></trkpt><trkpt lat="40.85607" lon="16.0803417"><ele>563.0</ele><time>2026-05-02T13:42:35.701Z</time></trkpt><trkpt lat="40.8561033" lon="16.0800767"><ele>563.6666666666666</ele><time>2026-05-02T13:42:36.701Z</time></trkpt><trkpt lat="40.8561383" lon="16.0798083"><ele>564.3333333333334</ele><time>2026-05-02T13:42:37.701Z</time></trkpt><trkpt lat="40.8561633" lon="16.0795383"><ele>565.0</ele><time>2026-05-02T13:42:38.702Z</time></trkpt><trkpt lat="40.85617" lon="16.079265"><ele>565.6666666666667</ele><time>2026-05-02T13:42:39.701Z</time></trkpt><trkpt lat="40.85616" lon="16.0789967"><ele>566.3333333333334</ele><time>2026-05-02T13:42:40.701Z</time></trkpt><trkpt lat="40.8561383" lon="16.0787417"><ele>567.0</ele><time>2026-05-02T13:42:41.701Z</time></trkpt><trkpt lat="40.8561183" lon="16.0784917"><ele>568.6666666666666</ele><time>2026-05-02T13:42:42.701Z</time></trkpt><trkpt lat="40.8561067" lon="16.07824"><ele>570.3333333333333</ele><time>2026-05-02T13:42:43.701Z</time></trkpt><trkpt lat="40.856105" lon="16.0779883"><ele>572.0</ele><time>2026-05-02T13:42:44.701Z</time></trkpt><trkpt lat="40.8561217" lon="16.0777383"><ele>572.0</ele><time>2026-05-02T13:42:45.702Z</time></trkpt><trkpt lat="40.8561533" lon="16.07749"><ele>572.0</ele><time>2026-05-02T13:42:46.703Z</time></trkpt><trkpt lat="40.8562033" lon="16.0772417"><ele>572.0</ele><time>2026-05-02T13:42:47.701Z</time></trkpt><trkpt lat="40.856275" lon="16.076995"><ele>572.6666666666666</ele><time>2026-05-02T13:42:48.7Z</time></trkpt><trkpt lat="40.8563633" lon="16.0767467"><ele>573.3333333333334</ele><time>2026-05-02T13:42:49.702Z</time></trkpt><trkpt lat="40.8564517" lon="16.0765033"><ele>574.0</ele><time>2026-05-02T13:42:50.702Z</time></trkpt><trkpt lat="40.8565417" lon="16.07627"><ele>574.6666666666667</ele><time>2026-05-02T13:42:51.702Z</time></trkpt><trkpt lat="40.8566333" lon="16.0760433"><ele>575.3333333333334</ele><time>2026-05-02T13:42:52.701Z</time></trkpt><trkpt lat="40.8567283" lon="16.0758167"><ele>576.0</ele><time>2026-05-02T13:42:53.702Z</time></trkpt><trkpt lat="40.8568267" lon="16.075585"><ele>576.6666666666666</ele><time>2026-05-02T13:42:54.701Z</time></trkpt><trkpt lat="40.856935" lon="16.0753483"><ele>577.3333333333333</ele><time>2026-05-02T13:42:55.701Z</time></trkpt><trkpt lat="40.85705" lon="16.0751167"><ele>578.0</ele><time>2026-05-02T13:42:56.702Z</time></trkpt><trkpt lat="40.8571633" lon="16.0748983"><ele>578.0</ele><time>2026-05-02T13:42:57.701Z</time></trkpt><trkpt lat="40.8572733" lon="16.0746883"><ele>578.0</ele><time>2026-05-02T13:42:58.701Z</time></trkpt><trkpt lat="40.8573817" lon="16.0744767"><ele>578.0</ele><time>2026-05-02T13:42:59.701Z</time></trkpt><trkpt lat="40.8574867" lon="16.074255"><ele>577.0</ele><time>2026-05-02T13:43:00.702Z</time></trkpt><trkpt lat="40.8575817" lon="16.07404"><ele>576.0</ele><time>2026-05-02T13:43:01.701Z</time></trkpt><trkpt lat="40.857675" lon="16.0738333"><ele>575.0</ele><time>2026-05-02T13:43:02.701Z</time></trkpt><trkpt lat="40.8577733" lon="16.07362"><ele>575.0</ele><time>2026-05-02T13:43:03.701Z</time></trkpt><trkpt lat="40.8578683" lon="16.0733967"><ele>575.0</ele><time>2026-05-02T13:43:04.701Z</time></trkpt><trkpt lat="40.8579483" lon="16.0731667"><ele>575.0</ele><time>2026-05-02T13:43:05.7Z</time></trkpt><trkpt lat="40.8580117" lon="16.072935"><ele>575.6666666666666</ele><time>2026-05-02T13:43:06.703Z</time></trkpt><trkpt lat="40.8580667" lon="16.0727217"><ele>576.3333333333334</ele><time>2026-05-02T13:43:07.702Z</time></trkpt><trkpt lat="40.8581283" lon="16.0725217"><ele>577.0</ele><time>2026-05-02T13:43:08.703Z</time></trkpt><trkpt lat="40.858205" lon="16.072315"><ele>577.0</ele><time>2026-05-02T13:43:09.702Z</time></trkpt><trkpt lat="40.8582983" lon="16.0721017"><ele>577.0</ele><time>2026-05-02T13:43:10.701Z</time></trkpt><trkpt lat="40.8584017" lon="16.0718833"><ele>577.0</ele><time>2026-05-02T13:43:11.701Z</time></trkpt><trkpt lat="40.858505" lon="16.0716583"><ele>577.0</ele><time>2026-05-02T13:43:12.702Z</time></trkpt><trkpt lat="40.85861" lon="16.071425"><ele>577.0</ele><time>2026-05-02T13:43:13.702Z</time></trkpt><trkpt lat="40.85871" lon="16.071195"><ele>577.0</ele><time>2026-05-02T13:43:14.701Z</time></trkpt><trkpt lat="40.8588017" lon="16.0709817"><ele>577.0</ele><time>2026-05-02T13:43:15.702Z</time></trkpt><trkpt lat="40.8588883" lon="16.0707817"><ele>577.0</ele><time>2026-05-02T13:43:16.703Z</time></trkpt><trkpt lat="40.858975" lon="16.0705933"><ele>577.0</ele><time>2026-05-02T13:43:17.7Z</time></trkpt><trkpt lat="40.8590667" lon="16.07042"><ele>577.0</ele><time>2026-05-02T13:43:18.701Z</time></trkpt><trkpt lat="40.8591667" lon="16.07027"><ele>577.0</ele><time>2026-05-02T13:43:19.702Z</time></trkpt><trkpt lat="40.8592867" lon="16.07014"><ele>577.0</ele><time>2026-05-02T13:43:20.702Z</time></trkpt><trkpt lat="40.859415" lon="16.0700317"><ele>577.25</ele><time>2026-05-02T13:43:21.701Z</time></trkpt><trkpt lat="40.859535" lon="16.069935"><ele>577.5</ele><time>2026-05-02T13:43:22.701Z</time></trkpt><trkpt lat="40.8596433" lon="16.0698183"><ele>577.75</ele><time>2026-05-02T13:43:23.701Z</time></trkpt><trkpt lat="40.8597433" lon="16.0696717"><ele>578.0</ele><time>2026-05-02T13:43:24.702Z</time></trkpt><trkpt lat="40.8598433" lon="16.06949"><ele>578.0</ele><time>2026-05-02T13:43:25.701Z</time></trkpt><trkpt lat="40.8599467" lon="16.06929"><ele>578.0</ele><time>2026-05-02T13:43:26.701Z</time></trkpt><trkpt lat="40.8600483" lon="16.0690983"><ele>578.0</ele><time>2026-05-02T13:43:27.7Z</time></trkpt><trkpt lat="40.86015" lon="16.06891"><ele>578.3333333333333</ele><time>2026-05-02T13:43:28.702Z</time></trkpt><trkpt lat="40.8602583" lon="16.0687183"><ele>578.6666666666666</ele><time>2026-05-02T13:43:29.701Z</time></trkpt><trkpt lat="40.8603733" lon="16.0685183"><ele>579.0</ele><time>2026-05-02T13:43:30.702Z</time></trkpt><trkpt lat="40.8604967" lon="16.06831"><ele>578.6666666666666</ele><time>2026-05-02T13:43:31.701Z</time></trkpt><trkpt lat="40.860625" lon="16.0680883"><ele>578.3333333333333</ele><time>2026-05-02T13:43:32.703Z</time></trkpt><trkpt lat="40.860755" lon="16.067855"><ele>578.0</ele><time>2026-05-02T13:43:33.7Z</time></trkpt><trkpt lat="40.860885" lon="16.067625"><ele>578.0</ele><time>2026-05-02T13:43:34.701Z</time></trkpt><trkpt lat="40.8610067" lon="16.067405"><ele>578.0</ele><time>2026-05-02T13:43:35.702Z</time></trkpt><trkpt lat="40.8611133" lon="16.0671883"><ele>578.0</ele><time>2026-05-02T13:43:36.704Z</time></trkpt><trkpt lat="40.8612017" lon="16.06697"><ele>578.0</ele><time>2026-05-02T13:43:37.701Z</time></trkpt><trkpt lat="40.8612817" lon="16.0667567"><ele>578.0</ele><time>2026-05-02T13:43:38.701Z</time></trkpt><trkpt lat="40.861355" lon="16.0665617"><ele>578.0</ele><time>2026-05-02T13:43:39.702Z</time></trkpt><trkpt lat="40.8614183" lon="16.0663917"><ele>578.0</ele><time>2026-05-02T13:43:40.701Z</time></trkpt><trkpt lat="40.861475" lon="16.0662383"><ele>578.0</ele><time>2026-05-02T13:43:41.701Z</time></trkpt><trkpt lat="40.8615233" lon="16.0661083"><ele>578.0</ele><time>2026-05-02T13:43:42.701Z</time></trkpt><trkpt lat="40.8615567" lon="16.0660067"><ele>578.0</ele><time>2026-05-02T13:43:43.702Z</time></trkpt><trkpt lat="40.861575" lon="16.0659217"><ele>578.0</ele><time>2026-05-02T13:43:44.701Z</time></trkpt><trkpt lat="40.8615667" lon="16.0657783"><ele>578.0</ele><time>2026-05-02T13:43:46.701Z</time></trkpt><trkpt lat="40.86151" lon="16.0656433"><ele>578.0</ele><time>2026-05-02T13:43:48.701Z</time></trkpt><trkpt lat="40.861435" lon="16.0655333"><ele>578.0</ele><time>2026-05-02T13:43:50.703Z</time></trkpt><trkpt lat="40.8613967" lon="16.0654567"><ele>578.0</ele><time>2026-05-02T13:43:52.702Z</time></trkpt><trkpt lat="40.8613567" lon="16.0653867"><ele>578.0</ele><time>2026-05-02T13:43:55.701Z</time></trkpt><trkpt lat="40.8613183" lon="16.06526"><ele>578.0</ele><time>2026-05-02T13:44:24.7Z</time></trkpt><trkpt lat="40.8612683" lon="16.0651717"><ele>578.0</ele><time>2026-05-02T13:44:25.7Z</time></trkpt><trkpt lat="40.861205" lon="16.0650583"><ele>578.0</ele><time>2026-05-02T13:44:26.703Z</time></trkpt><trkpt lat="40.8611333" lon="16.064925"><ele>578.0</ele><time>2026-05-02T13:44:27.702Z</time></trkpt><trkpt lat="40.8610517" lon="16.064775"><ele>577.6666666666666</ele><time>2026-05-02T13:44:28.704Z</time></trkpt><trkpt lat="40.8609633" lon="16.0646083"><ele>577.3333333333334</ele><time>2026-05-02T13:44:29.702Z</time></trkpt><trkpt lat="40.8608717" lon="16.0644333"><ele>577.0</ele><time>2026-05-02T13:44:30.702Z</time></trkpt><trkpt lat="40.860775" lon="16.0642383"><ele>575.6666666666667</ele><time>2026-05-02T13:44:31.701Z</time></trkpt><trkpt lat="40.8606633" lon="16.06402"><ele>574.3333333333334</ele><time>2026-05-02T13:44:32.702Z</time></trkpt><trkpt lat="40.8605467" lon="16.0637867"><ele>573.0</ele><time>2026-05-02T13:44:33.701Z</time></trkpt><trkpt lat="40.8604317" lon="16.0635533"><ele>573.0</ele><time>2026-05-02T13:44:34.701Z</time></trkpt><trkpt lat="40.8603217" lon="16.0633217"><ele>573.0</ele><time>2026-05-02T13:44:35.702Z</time></trkpt><trkpt lat="40.86022" lon="16.0630917"><ele>573.0</ele><time>2026-05-02T13:44:36.702Z</time></trkpt><trkpt lat="40.86013" lon="16.0628717"><ele>572.3333333333334</ele><time>2026-05-02T13:44:37.705Z</time></trkpt><trkpt lat="40.8600533" lon="16.0626733"><ele>571.6666666666667</ele><time>2026-05-02T13:44:38.703Z</time></trkpt><trkpt lat="40.8599883" lon="16.0624967"><ele>571.0</ele><time>2026-05-02T13:44:39.701Z</time></trkpt><trkpt lat="40.8599267" lon="16.0623383"><ele>569.6</ele><time>2026-05-02T13:44:40.701Z</time></trkpt><trkpt lat="40.85987" lon="16.0622033"><ele>568.2</ele><time>2026-05-02T13:44:41.701Z</time></trkpt><trkpt lat="40.8598167" lon="16.0620883"><ele>566.8</ele><time>2026-05-02T13:44:42.702Z</time></trkpt><trkpt lat="40.8597633" lon="16.0619883"><ele>565.4</ele><time>2026-05-02T13:44:43.702Z</time></trkpt><trkpt lat="40.8597117" lon="16.061905"><ele>564.0</ele><time>2026-05-02T13:44:44.702Z</time></trkpt><trkpt lat="40.859665" lon="16.06183"><ele>564.0</ele><time>2026-05-02T13:44:45.702Z</time></trkpt><trkpt lat="40.859585" lon="16.061725"><ele>564.0</ele><time>2026-05-02T13:44:47.702Z</time></trkpt><trkpt lat="40.8595317" lon="16.0616467"><ele>564.0</ele><time>2026-05-02T13:44:49.7Z</time></trkpt><trkpt lat="40.8594633" lon="16.061555"><ele>564.0</ele><time>2026-05-02T13:44:51.701Z</time></trkpt><trkpt lat="40.85937" lon="16.061465"><ele>564.0</ele><time>2026-05-02T13:44:53.7Z</time></trkpt><trkpt lat="40.8592783" lon="16.0613633"><ele>562.1666666666666</ele><time>2026-05-02T13:44:55.702Z</time></trkpt><trkpt lat="40.8592333" lon="16.061305"><ele>560.3333333333334</ele><time>2026-05-02T13:44:56.703Z</time></trkpt><trkpt lat="40.859165" lon="16.0611933"><ele>558.5</ele><time>2026-05-02T13:44:58.702Z</time></trkpt><trkpt lat="40.85913" lon="16.0610967"><ele>556.6666666666667</ele><time>2026-05-02T13:45:00.702Z</time></trkpt><trkpt lat="40.8591067" lon="16.061015"><ele>554.8333333333334</ele><time>2026-05-02T13:45:02.703Z</time></trkpt><trkpt lat="40.8590633" lon="16.060915"><ele>553.0</ele><time>2026-05-02T13:45:04.702Z</time></trkpt><trkpt lat="40.8590233" lon="16.060795"><ele>550.8</ele><time>2026-05-02T13:45:06.701Z</time></trkpt><trkpt lat="40.85898" lon="16.06068"><ele>548.5999999999999</ele><time>2026-05-02T13:45:08.702Z</time></trkpt><trkpt lat="40.8589367" lon="16.0605617"><ele>546.4000000000001</ele><time>2026-05-02T13:45:10.702Z</time></trkpt><trkpt lat="40.8588767" lon="16.0604667"><ele>544.2</ele><time>2026-05-02T13:45:12.701Z</time></trkpt><trkpt lat="40.8588067" lon="16.0603783"><ele>542.0</ele><time>2026-05-02T13:45:14.701Z</time></trkpt><trkpt lat="40.8587383" lon="16.060295"><ele>542.0</ele><time>2026-05-02T13:45:16.7Z</time></trkpt><trkpt lat="40.85869" lon="16.06019"><ele>542.0</ele><time>2026-05-02T13:45:18.702Z</time></trkpt><trkpt lat="40.8586417" lon="16.0600983"><ele>542.0</ele><time>2026-05-02T13:45:20.701Z</time></trkpt><trkpt lat="40.858595" lon="16.060025"><ele>542.0</ele><time>2026-05-02T13:45:22.701Z</time></trkpt><trkpt lat="40.85854" lon="16.0599583"><ele>542.0</ele><time>2026-05-02T13:45:24.701Z</time></trkpt><trkpt lat="40.8584917" lon="16.05988"><ele>542.0</ele><time>2026-05-02T13:45:26.701Z</time></trkpt><trkpt lat="40.858445" lon="16.0598067"><ele>538.5</ele><time>2026-05-02T13:45:28.703Z</time></trkpt><trkpt lat="40.8583783" lon="16.059745"><ele>535.0</ele><time>2026-05-02T13:45:31.702Z</time></trkpt><trkpt lat="40.8583133" lon="16.0596583"><ele>531.5</ele><time>2026-05-02T13:45:34.702Z</time></trkpt><trkpt lat="40.8582467" lon="16.0596067"><ele>528.0</ele><time>2026-05-02T13:45:37.702Z</time></trkpt><trkpt lat="40.8581883" lon="16.0594967"><ele>524.5</ele><time>2026-05-02T13:45:40.701Z</time></trkpt><trkpt lat="40.8581367" lon="16.05942"><ele>521.0</ele><time>2026-05-02T13:45:42.703Z</time></trkpt><trkpt lat="40.858095" lon="16.0593517"><ele>521.0</ele><time>2026-05-02T13:45:44.701Z</time></trkpt><trkpt lat="40.8580433" lon="16.0592483"><ele>521.0</ele><time>2026-05-02T13:45:47.701Z</time></trkpt><trkpt lat="40.8579767" lon="16.05915"><ele>521.0</ele><time>2026-05-02T13:45:50.702Z</time></trkpt><trkpt lat="40.857935" lon="16.059085"><ele>521.0</ele><time>2026-05-02T13:45:52.701Z</time></trkpt><trkpt lat="40.857875" lon="16.0590283"><ele>521.0</ele><time>2026-05-02T13:45:55.702Z</time></trkpt><trkpt lat="40.85779" lon="16.0590133"><ele>521.0</ele><time>2026-05-02T13:45:58.702Z</time></trkpt><trkpt lat="40.8577367" lon="16.0589383"><ele>517.6</ele><time>2026-05-02T13:47:30.702Z</time></trkpt><trkpt lat="40.857685" lon="16.0588617"><ele>514.2</ele><time>2026-05-02T13:47:32.701Z</time></trkpt><trkpt lat="40.8576333" lon="16.058795"><ele>510.79999999999995</ele><time>2026-05-02T13:47:33.701Z</time></trkpt><trkpt lat="40.8575667" lon="16.0587067"><ele>507.4</ele><time>2026-05-02T13:47:34.7Z</time></trkpt><trkpt lat="40.8574883" lon="16.0586017"><ele>504.0</ele><time>2026-05-02T13:47:35.702Z</time></trkpt><trkpt lat="40.8574067" lon="16.0584933"><ele>503.0</ele><time>2026-05-02T13:47:36.7Z</time></trkpt><trkpt lat="40.85733" lon="16.0583767"><ele>502.0</ele><time>2026-05-02T13:47:37.701Z</time></trkpt><trkpt lat="40.8572467" lon="16.058245"><ele>501.0</ele><time>2026-05-02T13:47:38.701Z</time></trkpt><trkpt lat="40.8571617" lon="16.05811"><ele>500.0</ele><time>2026-05-02T13:47:39.702Z</time></trkpt><trkpt lat="40.8570783" lon="16.0579767"><ele>497.25</ele><time>2026-05-02T13:47:40.701Z</time></trkpt><trkpt lat="40.8569983" lon="16.0578417"><ele>494.5</ele><time>2026-05-02T13:47:41.701Z</time></trkpt><trkpt lat="40.8569217" lon="16.057705"><ele>491.75</ele><time>2026-05-02T13:47:42.701Z</time></trkpt><trkpt lat="40.8568433" lon="16.0575717"><ele>489.0</ele><time>2026-05-02T13:47:43.7Z</time></trkpt><trkpt lat="40.8567633" lon="16.0574367"><ele>484.75</ele><time>2026-05-02T13:47:44.701Z</time></trkpt><trkpt lat="40.85668" lon="16.0573133"><ele>480.5</ele><time>2026-05-02T13:47:45.702Z</time></trkpt><trkpt lat="40.8565967" lon="16.0572033"><ele>476.25</ele><time>2026-05-02T13:47:46.701Z</time></trkpt><trkpt lat="40.8565117" lon="16.057105"><ele>472.0</ele><time>2026-05-02T13:47:47.703Z</time></trkpt><trkpt lat="40.85643" lon="16.0570167"><ele>472.00000000000006</ele><time>2026-05-02T13:47:48.702Z</time></trkpt><trkpt lat="40.85635" lon="16.05694"><ele>472.0</ele><time>2026-05-02T13:47:49.703Z</time></trkpt><trkpt lat="40.856275" lon="16.0568783"><ele>472.0</ele><time>2026-05-02T13:47:50.702Z</time></trkpt><trkpt lat="40.8561983" lon="16.056825"><ele>472.0</ele><time>2026-05-02T13:47:51.702Z</time></trkpt><trkpt lat="40.8561183" lon="16.0567783"><ele>472.00000000000006</ele><time>2026-05-02T13:47:52.701Z</time></trkpt><trkpt lat="40.856035" lon="16.05674"><ele>472.0</ele><time>2026-05-02T13:47:53.702Z</time></trkpt><trkpt lat="40.8559517" lon="16.0566983"><ele>470.40000000000003</ele><time>2026-05-02T13:47:54.702Z</time></trkpt><trkpt lat="40.855875" lon="16.0566467"><ele>468.80000000000007</ele><time>2026-05-02T13:47:55.7Z</time></trkpt><trkpt lat="40.8558" lon="16.0565817"><ele>467.2</ele><time>2026-05-02T13:47:56.702Z</time></trkpt><trkpt lat="40.855725" lon="16.05651"><ele>465.6</ele><time>2026-05-02T13:47:57.702Z</time></trkpt><trkpt lat="40.8556517" lon="16.0564333"><ele>464.0</ele><time>2026-05-02T13:47:58.701Z</time></trkpt><trkpt lat="40.855575" lon="16.05635"><ele>462.66666666666663</ele><time>2026-05-02T13:47:59.703Z</time></trkpt><trkpt lat="40.8555067" lon="16.0562633"><ele>461.3333333333333</ele><time>2026-05-02T13:48:00.702Z</time></trkpt><trkpt lat="40.8554467" lon="16.05617"><ele>460.0</ele><time>2026-05-02T13:48:01.701Z</time></trkpt><trkpt lat="40.8554" lon="16.0560733"><ele>458.66666666666663</ele><time>2026-05-02T13:48:02.702Z</time></trkpt><trkpt lat="40.8553567" lon="16.055985"><ele>457.3333333333333</ele><time>2026-05-02T13:48:03.702Z</time></trkpt><trkpt lat="40.8553217" lon="16.0559"><ele>456.0</ele><time>2026-05-02T13:48:04.702Z</time></trkpt><trkpt lat="40.8553" lon="16.0558083"><ele>454.8333333333333</ele><time>2026-05-02T13:48:05.701Z</time></trkpt><trkpt lat="40.8553033" lon="16.0557067"><ele>453.66666666666663</ele><time>2026-05-02T13:48:06.702Z</time></trkpt><trkpt lat="40.8553183" lon="16.0556067"><ele>452.5</ele><time>2026-05-02T13:48:07.702Z</time></trkpt><trkpt lat="40.85533" lon="16.05552"><ele>451.3333333333333</ele><time>2026-05-02T13:48:08.702Z</time></trkpt><trkpt lat="40.85532" lon="16.0554017"><ele>450.16666666666663</ele><time>2026-05-02T13:48:10.702Z</time></trkpt><trkpt lat="40.8552683" lon="16.05532"><ele>449.0</ele><time>2026-05-02T13:48:12.702Z</time></trkpt><trkpt lat="40.8551767" lon="16.0552083"><ele>448.99999999999994</ele><time>2026-05-02T13:48:14.701Z</time></trkpt><trkpt lat="40.8551217" lon="16.05516"><ele>449.0</ele><time>2026-05-02T13:48:15.701Z</time></trkpt><trkpt lat="40.8550517" lon="16.055075"><ele>449.0</ele><time>2026-05-02T13:48:17.702Z</time></trkpt><trkpt lat="40.85501" lon="16.054965"><ele>449.0</ele><time>2026-05-02T13:48:19.702Z</time></trkpt><trkpt lat="40.85497" lon="16.0548633"><ele>448.99999999999994</ele><time>2026-05-02T13:48:21.702Z</time></trkpt><trkpt lat="40.854905" lon="16.0547917"><ele>449.0</ele><time>2026-05-02T13:48:23.702Z</time></trkpt><trkpt lat="40.8548517" lon="16.0547083"><ele>447.66666666666663</ele><time>2026-05-02T13:48:25.7Z</time></trkpt><trkpt lat="40.85484" lon="16.0546167"><ele>446.3333333333333</ele><time>2026-05-02T13:48:27.701Z</time></trkpt><trkpt lat="40.8548117" lon="16.0544717"><ele>445.0</ele><time>2026-05-02T13:48:30.702Z</time></trkpt><trkpt lat="40.854785" lon="16.0543867"><ele>443.66666666666663</ele><time>2026-05-02T13:48:31.701Z</time></trkpt><trkpt lat="40.8547517" lon="16.0542883"><ele>442.3333333333333</ele><time>2026-05-02T13:48:32.703Z</time></trkpt><trkpt lat="40.8547083" lon="16.0542"><ele>441.0</ele><time>2026-05-02T13:48:33.702Z</time></trkpt><trkpt lat="40.8546567" lon="16.0541133"><ele>439.3333333333333</ele><time>2026-05-02T13:48:34.701Z</time></trkpt><trkpt lat="40.8546067" lon="16.054025"><ele>437.66666666666663</ele><time>2026-05-02T13:48:35.7Z</time></trkpt><trkpt lat="40.8545617" lon="16.0539383"><ele>436.0</ele><time>2026-05-02T13:48:36.701Z</time></trkpt><trkpt lat="40.85452" lon="16.0538583"><ele>434.3333333333333</ele><time>2026-05-02T13:48:37.701Z</time></trkpt><trkpt lat="40.8544817" lon="16.0537767"><ele>432.66666666666663</ele><time>2026-05-02T13:48:38.798Z</time></trkpt><trkpt lat="40.8544467" lon="16.0536867"><ele>431.0</ele><time>2026-05-02T13:48:39.702Z</time></trkpt><trkpt lat="40.8544167" lon="16.0536"><ele>430.99999999999994</ele><time>2026-05-02T13:48:40.702Z</time></trkpt><trkpt lat="40.8543883" lon="16.05352"><ele>431.0</ele><time>2026-05-02T13:48:41.705Z</time></trkpt><trkpt lat="40.8543467" lon="16.053395"><ele>431.0</ele><time>2026-05-02T13:48:43.701Z</time></trkpt><trkpt lat="40.8543183" lon="16.0533183"><ele>431.0</ele><time>2026-05-02T13:48:45.701Z</time></trkpt><trkpt lat="40.8542867" lon="16.05321"><ele>430.99999999999994</ele><time>2026-05-02T13:48:48.703Z</time></trkpt><trkpt lat="40.8542283" lon="16.05312"><ele>431.0</ele><time>2026-05-02T13:48:50.702Z</time></trkpt><trkpt lat="40.854175" lon="16.0530033"><ele>429.4</ele><time>2026-05-02T13:48:52.701Z</time></trkpt><trkpt lat="40.854115" lon="16.05289"><ele>427.8</ele><time>2026-05-02T13:48:54.702Z</time></trkpt><trkpt lat="40.8540483" lon="16.05278"><ele>426.2</ele><time>2026-05-02T13:48:56.701Z</time></trkpt><trkpt lat="40.853975" lon="16.0527067"><ele>424.59999999999997</ele><time>2026-05-02T13:48:58.702Z</time></trkpt><trkpt lat="40.8539" lon="16.0526483"><ele>423.0</ele><time>2026-05-02T13:49:00.706Z</time></trkpt><trkpt lat="40.853835" lon="16.05259"><ele>423.0</ele><time>2026-05-02T13:49:02.703Z</time></trkpt><trkpt lat="40.8537883" lon="16.052515"><ele>423.0</ele><time>2026-05-02T13:49:04.701Z</time></trkpt><trkpt lat="40.8537233" lon="16.0524217"><ele>423.0</ele><time>2026-05-02T13:49:06.702Z</time></trkpt><trkpt lat="40.8536617" lon="16.052345"><ele>423.0</ele><time>2026-05-02T13:49:08.702Z</time></trkpt><trkpt lat="40.853705" lon="16.05241"><ele>423.0</ele><time>2026-05-02T13:49:28.701Z</time></trkpt><trkpt lat="40.85383" lon="16.0524467"><ele>423.0</ele><time>2026-05-02T13:49:36.701Z</time></trkpt><trkpt lat="40.8539233" lon="16.0524217"><ele>423.0</ele><time>2026-05-02T13:49:38.702Z</time></trkpt><trkpt lat="40.8539867" lon="16.05244"><ele>423.0</ele><time>2026-05-02T13:49:40.7Z</time></trkpt><trkpt lat="40.8539933" lon="16.0525433"><ele>423.0</ele><time>2026-05-02T13:49:43.701Z</time></trkpt><trkpt lat="40.8539433" lon="16.0525967"><ele>423.0</ele><time>2026-05-02T13:49:45.702Z</time></trkpt><trkpt lat="40.85395" lon="16.052695"><ele>423.0</ele><time>2026-05-02T13:49:49.701Z</time></trkpt><trkpt lat="40.8540183" lon="16.05275"><ele>423.0</ele><time>2026-05-02T13:49:51.701Z</time></trkpt><trkpt lat="40.85408" lon="16.0528333"><ele>423.0</ele><time>2026-05-02T13:49:53.702Z</time></trkpt><trkpt lat="40.8541533" lon="16.0529417"><ele>423.0</ele><time>2026-05-02T13:49:55.701Z</time></trkpt><trkpt lat="40.8542033" lon="16.0530467"><ele>423.0</ele><time>2026-05-02T13:49:57.702Z</time></trkpt><trkpt lat="40.8542683" lon="16.05316"><ele>423.0</ele><time>2026-05-02T13:49:59.702Z</time></trkpt><trkpt lat="40.8543083" lon="16.0532483"><ele>423.0</ele><time>2026-05-02T13:50:01.702Z</time></trkpt><trkpt lat="40.8543533" lon="16.0533117"><ele>422.8333333333333</ele><time>2026-05-02T13:50:19.701Z</time></trkpt><trkpt lat="40.8544383" lon="16.0532917"><ele>422.66666666666663</ele><time>2026-05-02T13:50:21.702Z</time></trkpt><trkpt lat="40.8545433" lon="16.05326"><ele>422.5</ele><time>2026-05-02T13:50:23.701Z</time></trkpt><trkpt lat="40.8546217" lon="16.0532317"><ele>422.3333333333333</ele><time>2026-05-02T13:50:25.701Z</time></trkpt><trkpt lat="40.8546867" lon="16.0532067"><ele>422.16666666666663</ele><time>2026-05-02T13:50:27.702Z</time></trkpt><trkpt lat="40.8547583" lon="16.0531833"><ele>422.0</ele><time>2026-05-02T13:50:29.701Z</time></trkpt><trkpt lat="40.8548833" lon="16.053115"><ele>422.0</ele><time>2026-05-02T13:50:48.701Z</time></trkpt><trkpt lat="40.8550133" lon="16.0530383"><ele>422.0</ele><time>2026-05-02T13:50:50.701Z</time></trkpt><trkpt lat="40.8550967" lon="16.0529917"><ele>422.0</ele><time>2026-05-02T13:50:51.701Z</time></trkpt><trkpt lat="40.855175" lon="16.0529417"><ele>422.0</ele><time>2026-05-02T13:50:52.701Z</time></trkpt><trkpt lat="40.8552483" lon="16.0528867"><ele>422.0</ele><time>2026-05-02T13:50:53.7Z</time></trkpt><trkpt lat="40.855305" lon="16.0528283"><ele>422.3333333333333</ele><time>2026-05-02T13:50:54.701Z</time></trkpt><trkpt lat="40.855345" lon="16.052755"><ele>422.66666666666663</ele><time>2026-05-02T13:50:55.7Z</time></trkpt><trkpt lat="40.8553683" lon="16.052665"><ele>423.0</ele><time>2026-05-02T13:50:56.702Z</time></trkpt><trkpt lat="40.8553717" lon="16.052575"><ele>423.33333333333337</ele><time>2026-05-02T13:50:57.7Z</time></trkpt><trkpt lat="40.8553583" lon="16.0524817"><ele>423.6666666666667</ele><time>2026-05-02T13:50:58.701Z</time></trkpt><trkpt lat="40.85533" lon="16.05238"><ele>424.0</ele><time>2026-05-02T13:50:59.702Z</time></trkpt><trkpt lat="40.8552867" lon="16.0522683"><ele>424.00000000000006</ele><time>2026-05-02T13:51:00.701Z</time></trkpt><trkpt lat="40.855245" lon="16.05215"><ele>424.0</ele><time>2026-05-02T13:51:01.7Z</time></trkpt><trkpt lat="40.85521" lon="16.05204"><ele>424.0</ele><time>2026-05-02T13:51:02.701Z</time></trkpt><trkpt lat="40.8551783" lon="16.0519417"><ele>424.0</ele><time>2026-05-02T13:51:03.702Z</time></trkpt><trkpt lat="40.8551433" lon="16.05185"><ele>424.00000000000006</ele><time>2026-05-02T13:51:04.7Z</time></trkpt><trkpt lat="40.8551017" lon="16.0517617"><ele>424.0</ele><time>2026-05-02T13:51:05.702Z</time></trkpt><trkpt lat="40.8550533" lon="16.05168"><ele>421.6</ele><time>2026-05-02T13:51:06.701Z</time></trkpt><trkpt lat="40.8550017" lon="16.0516"><ele>419.2</ele><time>2026-05-02T13:51:07.7Z</time></trkpt><trkpt lat="40.8549483" lon="16.0515267"><ele>416.8</ele><time>2026-05-02T13:51:08.703Z</time></trkpt><trkpt lat="40.8549017" lon="16.0514567"><ele>414.40000000000003</ele><time>2026-05-02T13:51:09.702Z</time></trkpt><trkpt lat="40.8548367" lon="16.05133"><ele>412.0</ele><time>2026-05-02T13:51:11.702Z</time></trkpt><trkpt lat="40.8547767" lon="16.0512133"><ele>412.00000000000006</ele><time>2026-05-02T13:51:13.702Z</time></trkpt><trkpt lat="40.854725" lon="16.051095"><ele>412.0</ele><time>2026-05-02T13:51:15.7Z</time></trkpt><trkpt lat="40.854695" lon="16.0509817"><ele>412.0</ele><time>2026-05-02T13:51:17.702Z</time></trkpt><trkpt lat="40.8546833" lon="16.05088"><ele>412.0</ele><time>2026-05-02T13:51:19.701Z</time></trkpt><trkpt lat="40.8546933" lon="16.050795"><ele>412.00000000000006</ele><time>2026-05-02T13:51:22.703Z</time></trkpt><trkpt lat="40.8546883" lon="16.0509217"><ele>412.0</ele><time>2026-05-02T13:51:44.701Z</time></trkpt><trkpt lat="40.854705" lon="16.0510867"><ele>412.0</ele><time>2026-05-02T13:51:46.7Z</time></trkpt><trkpt lat="40.8547383" lon="16.05117"><ele>412.0</ele><time>2026-05-02T13:51:47.701Z</time></trkpt><trkpt lat="40.8547883" lon="16.05126"><ele>412.0</ele><time>2026-05-02T13:51:48.701Z</time></trkpt><trkpt lat="40.85486" lon="16.0513783"><ele>412.0</ele><time>2026-05-02T13:51:49.702Z</time></trkpt><trkpt lat="40.8549483" lon="16.0515233"><ele>412.0</ele><time>2026-05-02T13:51:50.702Z</time></trkpt><trkpt lat="40.8550367" lon="16.0516617"><ele>412.5</ele><time>2026-05-02T13:51:51.702Z</time></trkpt><trkpt lat="40.8551133" lon="16.051795"><ele>413.0</ele><time>2026-05-02T13:51:52.704Z</time></trkpt><trkpt lat="40.8551783" lon="16.0519433"><ele>413.5</ele><time>2026-05-02T13:51:53.702Z</time></trkpt><trkpt lat="40.8552367" lon="16.0521083"><ele>414.0</ele><time>2026-05-02T13:51:54.703Z</time></trkpt><trkpt lat="40.8552867" lon="16.0522783"><ele>415.6666666666667</ele><time>2026-05-02T13:51:55.702Z</time></trkpt><trkpt lat="40.8553283" lon="16.0524267"><ele>417.33333333333337</ele><time>2026-05-02T13:51:56.702Z</time></trkpt><trkpt lat="40.855355" lon="16.05255"><ele>419.0</ele><time>2026-05-02T13:51:57.703Z</time></trkpt><trkpt lat="40.85536" lon="16.0526533"><ele>420.6666666666667</ele><time>2026-05-02T13:51:58.701Z</time></trkpt><trkpt lat="40.8553417" lon="16.0527483"><ele>422.33333333333337</ele><time>2026-05-02T13:51:59.702Z</time></trkpt><trkpt lat="40.8553117" lon="16.0528333"><ele>424.0</ele><time>2026-05-02T13:52:00.701Z</time></trkpt><trkpt lat="40.8552517" lon="16.0529033"><ele>423.5</ele><time>2026-05-02T13:52:01.702Z</time></trkpt><trkpt lat="40.8551733" lon="16.0529767"><ele>423.0</ele><time>2026-05-02T13:52:02.701Z</time></trkpt><trkpt lat="40.85506" lon="16.0530317"><ele>422.5</ele><time>2026-05-02T13:52:03.701Z</time></trkpt><trkpt lat="40.8549333" lon="16.05309"><ele>422.0</ele><time>2026-05-02T13:52:04.701Z</time></trkpt><trkpt lat="40.8548217" lon="16.053145"><ele>422.0</ele><time>2026-05-02T13:52:05.702Z</time></trkpt><trkpt lat="40.854715" lon="16.0531883"><ele>422.0</ele><time>2026-05-02T13:52:06.702Z</time></trkpt><trkpt lat="40.8546233" lon="16.0532283"><ele>422.0</ele><time>2026-05-02T13:52:07.7Z</time></trkpt><trkpt lat="40.8545417" lon="16.0532617"><ele>422.0</ele><time>2026-05-02T13:52:08.703Z</time></trkpt><trkpt lat="40.8544633" lon="16.0532933"><ele>422.0</ele><time>2026-05-02T13:52:10.702Z</time></trkpt><trkpt lat="40.8546883" lon="16.0509217"><ele>420.0</ele><time>2026-05-02T13:51:44.701Z</time></trkpt><trkpt lat="40.854705" lon="16.0510867"><ele>418.0</ele><time>2026-05-02T13:51:46.7Z</time></trkpt><trkpt lat="40.8547383" lon="16.05117"><ele>416.0</ele><time>2026-05-02T13:51:47.701Z</time></trkpt><trkpt lat="40.8547883" lon="16.05126"><ele>414.0</ele><time>2026-05-02T13:51:48.701Z</time></trkpt><trkpt lat="40.85486" lon="16.0513783"><ele>412.0</ele><time>2026-05-02T13:51:49.702Z</time></trkpt><trkpt lat="40.8549483" lon="16.0515233"><ele>412.5</ele><time>2026-05-02T13:51:50.702Z</time></trkpt><trkpt lat="40.8550367" lon="16.0516617"><ele>413.0</ele><time>2026-05-02T13:51:51.702Z</time></trkpt><trkpt lat="40.8551133" lon="16.051795"><ele>413.5</ele><time>2026-05-02T13:51:52.704Z</time></trkpt><trkpt lat="40.8551783" lon="16.0519433"><ele>414.0</ele><time>2026-05-02T13:51:53.702Z</time></trkpt><trkpt lat="40.8552367" lon="16.0521083"><ele>416.0</ele><time>2026-05-02T13:51:54.703Z</time></trkpt><trkpt lat="40.8552867" lon="16.0522783"><ele>418.0</ele><time>2026-05-02T13:51:55.702Z</time></trkpt><trkpt lat="40.8553283" lon="16.0524267"><ele>420.0</ele><time>2026-05-02T13:51:56.702Z</time></trkpt><trkpt lat="40.855355" lon="16.05255"><ele>422.0</ele><time>2026-05-02T13:51:57.703Z</time></trkpt><trkpt lat="40.85536" lon="16.0526533"><ele>424.0</ele><time>2026-05-02T13:51:58.701Z</time></trkpt><trkpt lat="40.8553417" lon="16.0527483"><ele>423.6</ele><time>2026-05-02T13:51:59.702Z</time></trkpt><trkpt lat="40.8553117" lon="16.0528333"><ele>423.2</ele><time>2026-05-02T13:52:00.701Z</time></trkpt><trkpt lat="40.8552517" lon="16.0529033"><ele>422.8</ele><time>2026-05-02T13:52:01.702Z</time></trkpt><trkpt lat="40.8551733" lon="16.0529767"><ele>422.40000000000003</ele><time>2026-05-02T13:52:02.701Z</time></trkpt><trkpt lat="40.85506" lon="16.0530317"><ele>422.0</ele><time>2026-05-02T13:52:03.701Z</time></trkpt><trkpt lat="40.8549333" lon="16.05309"><ele>422.0</ele><time>2026-05-02T13:52:04.701Z</time></trkpt><trkpt lat="40.8548217" lon="16.053145"><ele>422.0</ele><time>2026-05-02T13:52:05.702Z</time></trkpt><trkpt lat="40.854715" lon="16.0531883"><ele>422.0</ele><time>2026-05-02T13:52:06.702Z</time></trkpt><trkpt lat="40.8546233" lon="16.0532283"><ele>422.0</ele><time>2026-05-02T13:52:07.7Z</time></trkpt><trkpt lat="40.8545417" lon="16.0532617"><ele>422.0</ele><time>2026-05-02T13:52:08.703Z</time></trkpt><trkpt lat="40.8544633" lon="16.0532933"><ele>422.0</ele><time>2026-05-02T13:52:10.702Z</time></trkpt><trkpt lat="40.8545417" lon="16.05325"><ele>422.0</ele><time>2026-05-02T13:53:03.701Z</time></trkpt><trkpt lat="40.85461" lon="16.0532367"><ele>422.0</ele><time>2026-05-02T13:53:04.702Z</time></trkpt><trkpt lat="40.8547133" lon="16.0531917"><ele>422.0</ele><time>2026-05-02T13:53:05.702Z</time></trkpt><trkpt lat="40.85484" lon="16.0531283"><ele>422.0</ele><time>2026-05-02T13:53:06.702Z</time></trkpt><trkpt lat="40.85497" lon="16.05306"><ele>422.0</ele><time>2026-05-02T13:53:07.702Z</time></trkpt><trkpt lat="40.855085" lon="16.0529933"><ele>422.0</ele><time>2026-05-02T13:53:08.702Z</time></trkpt><trkpt lat="40.855185" lon="16.052925"><ele>422.0</ele><time>2026-05-02T13:53:09.702Z</time></trkpt><trkpt lat="40.8552683" lon="16.0528533"><ele>422.0</ele><time>2026-05-02T13:53:10.702Z</time></trkpt><trkpt lat="40.85533" lon="16.0527767"><ele>422.0</ele><time>2026-05-02T13:53:11.702Z</time></trkpt><trkpt lat="40.85537" lon="16.052695"><ele>422.40000000000003</ele><time>2026-05-02T13:53:12.702Z</time></trkpt><trkpt lat="40.855385" lon="16.0526"><ele>422.8</ele><time>2026-05-02T13:53:13.702Z</time></trkpt><trkpt lat="40.8553733" lon="16.0524967"><ele>423.2</ele><time>2026-05-02T13:53:14.702Z</time></trkpt><trkpt lat="40.8553467" lon="16.0523867"><ele>423.6</ele><time>2026-05-02T13:53:15.7Z</time></trkpt><trkpt lat="40.8553017" lon="16.0522567"><ele>424.0</ele><time>2026-05-02T13:53:16.701Z</time></trkpt><trkpt lat="40.8552517" lon="16.0521167"><ele>424.0</ele><time>2026-05-02T13:53:17.701Z</time></trkpt><trkpt lat="40.8552067" lon="16.0519783"><ele>424.0</ele><time>2026-05-02T13:53:18.703Z</time></trkpt><trkpt lat="40.8551567" lon="16.0518467"><ele>424.0</ele><time>2026-05-02T13:53:19.703Z</time></trkpt><trkpt lat="40.8550967" lon="16.051725"><ele>424.0</ele><time>2026-05-02T13:53:20.702Z</time></trkpt><trkpt lat="40.8550317" lon="16.051615"><ele>424.0</ele><time>2026-05-02T13:53:21.702Z</time></trkpt><trkpt lat="40.8549633" lon="16.051505"><ele>421.6</ele><time>2026-05-02T13:53:22.702Z</time></trkpt><trkpt lat="40.85489" lon="16.0513833"><ele>419.2</ele><time>2026-05-02T13:53:23.702Z</time></trkpt><trkpt lat="40.854815" lon="16.0512583"><ele>416.8</ele><time>2026-05-02T13:53:24.702Z</time></trkpt><trkpt lat="40.8547517" lon="16.051145"><ele>414.40000000000003</ele><time>2026-05-02T13:53:25.703Z</time></trkpt><trkpt lat="40.85471" lon="16.05105"><ele>412.0</ele><time>2026-05-02T13:53:26.702Z</time></trkpt><trkpt lat="40.8546833" lon="16.0509567"><ele>412.0</ele><time>2026-05-02T13:53:27.701Z</time></trkpt><trkpt lat="40.854675" lon="16.0508617"><ele>412.0</ele><time>2026-05-02T13:53:28.701Z</time></trkpt><trkpt lat="40.8546848" lon="16.050762"><ele>412.0</ele><time>2026-05-02T13:53:29.702Z</time></trkpt><trkpt lat="40.854721" lon="16.0506447"><ele>412.0</ele><time>2026-05-02T13:53:30.702Z</time></trkpt><trkpt lat="40.8547834" lon="16.050497"><ele>412.0</ele><time>2026-05-02T13:53:31.702Z</time></trkpt><trkpt lat="40.8548573" lon="16.0503324"><ele>411.5</ele><time>2026-05-02T13:53:32.702Z</time></trkpt><trkpt lat="40.8549363" lon="16.0501668"><ele>411.0</ele><time>2026-05-02T13:53:33.702Z</time></trkpt><trkpt lat="40.8550135" lon="16.0500149"><ele>410.5</ele><time>2026-05-02T13:53:34.701Z</time></trkpt><trkpt lat="40.8550863" lon="16.0498748"><ele>410.0</ele><time>2026-05-02T13:53:35.702Z</time></trkpt><trkpt lat="40.8551569" lon="16.0497272"><ele>410.0</ele><time>2026-05-02T13:53:36.701Z</time></trkpt><trkpt lat="40.8552237" lon="16.049577"><ele>410.0</ele><time>2026-05-02T13:53:37.701Z</time></trkpt><trkpt lat="40.8552831" lon="16.0494429"><ele>410.0</ele><time>2026-05-02T13:53:38.702Z</time></trkpt><trkpt lat="40.8553312" lon="16.0493219"><ele>410.0</ele><time>2026-05-02T13:53:39.702Z</time></trkpt><trkpt lat="40.8553577" lon="16.049206"><ele>410.0</ele><time>2026-05-02T13:53:40.702Z</time></trkpt><trkpt lat="40.8553627" lon="16.0490895"><ele>409.4</ele><time>2026-05-02T13:53:41.701Z</time></trkpt><trkpt lat="40.8553515" lon="16.0489768"><ele>408.8</ele><time>2026-05-02T13:53:42.701Z</time></trkpt><trkpt lat="40.8553289" lon="16.0488789"><ele>408.20000000000005</ele><time>2026-05-02T13:53:43.701Z</time></trkpt><trkpt lat="40.855294" lon="16.0487846"><ele>407.6</ele><time>2026-05-02T13:53:44.701Z</time></trkpt><trkpt lat="40.8552396" lon="16.048682"><ele>407.0</ele><time>2026-05-02T13:53:45.702Z</time></trkpt><trkpt lat="40.8551623" lon="16.0485646"><ele>407.0</ele><time>2026-05-02T13:53:46.701Z</time></trkpt><trkpt lat="40.8550721" lon="16.0484387"><ele>407.0</ele><time>2026-05-02T13:53:47.702Z</time></trkpt><trkpt lat="40.8549795" lon="16.0483113"><ele>407.0</ele><time>2026-05-02T13:53:48.703Z</time></trkpt><trkpt lat="40.8548888" lon="16.0481774"><ele>407.0</ele><time>2026-05-02T13:53:49.702Z</time></trkpt><trkpt lat="40.8547966" lon="16.048034"><ele>407.0</ele><time>2026-05-02T13:53:50.703Z</time></trkpt><trkpt lat="40.8547032" lon="16.0478845"><ele>407.0</ele><time>2026-05-02T13:53:51.702Z</time></trkpt><trkpt lat="40.8546157" lon="16.0477456"><ele>407.0</ele><time>2026-05-02T13:53:52.703Z</time></trkpt><trkpt lat="40.8545368" lon="16.0476211"><ele>407.0</ele><time>2026-05-02T13:53:53.703Z</time></trkpt><trkpt lat="40.8544664" lon="16.0475055"><ele>407.16666666666663</ele><time>2026-05-02T13:53:54.702Z</time></trkpt><trkpt lat="40.8544027" lon="16.0473992"><ele>407.3333333333333</ele><time>2026-05-02T13:53:55.701Z</time></trkpt><trkpt lat="40.8543481" lon="16.0473077"><ele>407.5</ele><time>2026-05-02T13:53:56.701Z</time></trkpt><trkpt lat="40.8542959" lon="16.0472329"><ele>407.66666666666663</ele><time>2026-05-02T13:53:57.702Z</time></trkpt><trkpt lat="40.8542436" lon="16.0471757"><ele>407.8333333333333</ele><time>2026-05-02T13:53:58.7Z</time></trkpt><trkpt lat="40.8541883" lon="16.0471317"><ele>408.0</ele><time>2026-05-02T13:53:59.701Z</time></trkpt><trkpt lat="40.8541217" lon="16.0470983"><ele>408.6666666666667</ele><time>2026-05-02T13:54:00.701Z</time></trkpt><trkpt lat="40.854045" lon="16.0470817"><ele>409.33333333333337</ele><time>2026-05-02T13:54:01.701Z</time></trkpt><trkpt lat="40.85396" lon="16.0470867"><ele>410.0</ele><time>2026-05-02T13:54:02.702Z</time></trkpt><trkpt lat="40.853875" lon="16.0471117"><ele>410.6666666666667</ele><time>2026-05-02T13:54:03.701Z</time></trkpt><trkpt lat="40.85379" lon="16.04715"><ele>411.33333333333337</ele><time>2026-05-02T13:54:04.702Z</time></trkpt><trkpt lat="40.85371" lon="16.0471983"><ele>412.0</ele><time>2026-05-02T13:54:05.702Z</time></trkpt><trkpt lat="40.853625" lon="16.04726"><ele>412.0</ele><time>2026-05-02T13:54:06.702Z</time></trkpt><trkpt lat="40.8535283" lon="16.04734"><ele>412.0</ele><time>2026-05-02T13:54:07.703Z</time></trkpt><trkpt lat="40.8534267" lon="16.04742"><ele>412.0</ele><time>2026-05-02T13:54:08.707Z</time></trkpt><trkpt lat="40.8533267" lon="16.0474967"><ele>412.0</ele><time>2026-05-02T13:54:09.703Z</time></trkpt><trkpt lat="40.8532317" lon="16.0475633"><ele>412.00000000000006</ele><time>2026-05-02T13:54:10.702Z</time></trkpt><trkpt lat="40.8531417" lon="16.0476183"><ele>412.0</ele><time>2026-05-02T13:54:11.786Z</time></trkpt><trkpt lat="40.8530633" lon="16.04766"><ele>412.0</ele><time>2026-05-02T13:54:12.702Z</time></trkpt><trkpt lat="40.8530033" lon="16.0476917"><ele>412.0</ele><time>2026-05-02T13:54:13.702Z</time></trkpt><trkpt lat="40.85291" lon="16.04779"><ele>412.00000000000006</ele><time>2026-05-02T13:54:15.701Z</time></trkpt><trkpt lat="40.8528667" lon="16.0478633"><ele>412.0</ele><time>2026-05-02T13:54:16.702Z</time></trkpt><trkpt lat="40.8528267" lon="16.047935"><ele>411.99999999999994</ele><time>2026-05-02T13:54:17.701Z</time></trkpt><trkpt lat="40.8527833" lon="16.0480083"><ele>412.0</ele><time>2026-05-02T13:54:18.703Z</time></trkpt><trkpt lat="40.852745" lon="16.0480783"><ele>412.0</ele><time>2026-05-02T13:54:19.701Z</time></trkpt><trkpt lat="40.852705" lon="16.04816"><ele>412.0</ele><time>2026-05-02T13:54:20.704Z</time></trkpt><trkpt lat="40.8526583" lon="16.0482367"><ele>412.0</ele><time>2026-05-02T13:54:21.702Z</time></trkpt><trkpt lat="40.8525983" lon="16.0483067"><ele>411.99999999999994</ele><time>2026-05-02T13:54:22.701Z</time></trkpt><trkpt lat="40.8525383" lon="16.048375"><ele>412.0</ele><time>2026-05-02T13:54:23.701Z</time></trkpt><trkpt lat="40.8524767" lon="16.0484467"><ele>411.1666666666667</ele><time>2026-05-02T13:54:24.702Z</time></trkpt><trkpt lat="40.8524233" lon="16.048515"><ele>410.33333333333337</ele><time>2026-05-02T13:54:25.702Z</time></trkpt><trkpt lat="40.8523783" lon="16.0485867"><ele>409.5</ele><time>2026-05-02T13:54:26.703Z</time></trkpt><trkpt lat="40.85234" lon="16.0486533"><ele>408.66666666666663</ele><time>2026-05-02T13:54:27.701Z</time></trkpt><trkpt lat="40.8522767" lon="16.0487533"><ele>407.8333333333333</ele><time>2026-05-02T13:54:29.703Z</time></trkpt><trkpt lat="40.85222" lon="16.04885"><ele>407.0</ele><time>2026-05-02T13:54:31.702Z</time></trkpt><trkpt lat="40.8521917" lon="16.0489267"><ele>407.0</ele><time>2026-05-02T13:54:33.702Z</time></trkpt><trkpt lat="40.85224" lon="16.048855"><ele>407.0</ele><time>2026-05-02T13:54:44.703Z</time></trkpt><trkpt lat="40.8523" lon="16.0487717"><ele>407.0</ele><time>2026-05-02T13:54:46.702Z</time></trkpt><trkpt lat="40.852375" lon="16.0486283"><ele>407.0</ele><time>2026-05-02T13:54:48.702Z</time></trkpt><trkpt lat="40.8524367" lon="16.0485267"><ele>407.0</ele><time>2026-05-02T13:54:49.702Z</time></trkpt><trkpt lat="40.85251" lon="16.048425"><ele>406.99999999999994</ele><time>2026-05-02T13:54:50.701Z</time></trkpt><trkpt lat="40.8525783" lon="16.04834"><ele>407.0</ele><time>2026-05-02T13:54:51.701Z</time></trkpt><trkpt lat="40.8526417" lon="16.0482667"><ele>407.0</ele><time>2026-05-02T13:54:52.701Z</time></trkpt><trkpt lat="40.85269" lon="16.0482"><ele>407.0</ele><time>2026-05-02T13:54:53.702Z</time></trkpt><trkpt lat="40.8527583" lon="16.0480817"><ele>406.99999999999994</ele><time>2026-05-02T13:54:55.701Z</time></trkpt><trkpt lat="40.85274" lon="16.048"><ele>407.0</ele><time>2026-05-02T13:54:58.701Z</time></trkpt><trkpt lat="40.8526733" lon="16.04807"><ele>407.0</ele><time>2026-05-02T13:55:01.7Z</time></trkpt><trkpt lat="40.8526117" lon="16.0481667"><ele>407.0</ele><time>2026-05-02T13:55:03.701Z</time></trkpt><trkpt lat="40.8524933" lon="16.0482667"><ele>407.0</ele><time>2026-05-02T13:55:05.702Z</time></trkpt><trkpt lat="40.8524233" lon="16.0483217"><ele>407.0</ele><time>2026-05-02T13:55:06.701Z</time></trkpt><trkpt lat="40.852355" lon="16.0483717"><ele>407.0</ele><time>2026-05-02T13:55:07.703Z</time></trkpt><trkpt lat="40.85229" lon="16.0484283"><ele>406.99999999999994</ele><time>2026-05-02T13:55:08.702Z</time></trkpt><trkpt lat="40.8522283" lon="16.04848"><ele>407.0</ele><time>2026-05-02T13:55:09.702Z</time></trkpt><trkpt lat="40.85217" lon="16.0485283"><ele>407.0</ele><time>2026-05-02T13:55:10.701Z</time></trkpt><trkpt lat="40.8521133" lon="16.04858"><ele>407.0</ele><time>2026-05-02T13:55:11.701Z</time></trkpt><trkpt lat="40.85206" lon="16.04863"><ele>406.99999999999994</ele><time>2026-05-02T13:55:12.701Z</time></trkpt><trkpt lat="40.85197" lon="16.048735"><ele>407.0</ele><time>2026-05-02T13:55:14.702Z</time></trkpt><trkpt lat="40.851895" lon="16.0488417"><ele>407.0</ele><time>2026-05-02T13:55:16.702Z</time></trkpt><trkpt lat="40.85183" lon="16.048915"><ele>407.0</ele><time>2026-05-02T13:55:18.702Z</time></trkpt><trkpt lat="40.851725" lon="16.0489717"><ele>407.0</ele><time>2026-05-02T13:55:20.702Z</time></trkpt><trkpt lat="40.8516667" lon="16.0490267"><ele>407.0</ele><time>2026-05-02T13:55:21.701Z</time></trkpt><trkpt lat="40.851615" lon="16.04908"><ele>407.0</ele><time>2026-05-02T13:55:22.701Z</time></trkpt><trkpt lat="40.8515217" lon="16.0491667"><ele>408.6</ele><time>2026-05-02T13:55:24.702Z</time></trkpt><trkpt lat="40.85143" lon="16.0492317"><ele>410.20000000000005</ele><time>2026-05-02T13:55:26.703Z</time></trkpt><trkpt lat="40.851325" lon="16.0492833"><ele>411.8</ele><time>2026-05-02T13:55:28.7Z</time></trkpt><trkpt lat="40.8512317" lon="16.049325"><ele>413.4</ele><time>2026-05-02T13:55:30.701Z</time></trkpt><trkpt lat="40.8511583" lon="16.0493633"><ele>415.0</ele><time>2026-05-02T13:55:32.702Z</time></trkpt><trkpt lat="40.8510933" lon="16.0493767"><ele>415.0</ele><time>2026-05-02T13:55:34.701Z</time></trkpt><trkpt lat="40.85102" lon="16.049385"><ele>415.0</ele><time>2026-05-02T13:55:36.702Z</time></trkpt><trkpt lat="40.8509267" lon="16.0493717"><ele>415.0</ele><time>2026-05-02T13:55:38.702Z</time></trkpt><trkpt lat="40.850845" lon="16.049295"><ele>415.0</ele><time>2026-05-02T13:55:40.702Z</time></trkpt><trkpt lat="40.850765" lon="16.0492167"><ele>415.0</ele><time>2026-05-02T13:55:42.702Z</time></trkpt><trkpt lat="40.85072" lon="16.0490933"><ele>416.33333333333337</ele><time>2026-05-02T13:55:44.703Z</time></trkpt><trkpt lat="40.8506933" lon="16.0489983"><ele>417.6666666666667</ele><time>2026-05-02T13:55:45.701Z</time></trkpt><trkpt lat="40.85067" lon="16.0488933"><ele>419.0</ele><time>2026-05-02T13:55:46.702Z</time></trkpt><trkpt lat="40.8506517" lon="16.0487933"><ele>420.33333333333337</ele><time>2026-05-02T13:55:47.702Z</time></trkpt><trkpt lat="40.8506383" lon="16.0486833"><ele>421.6666666666667</ele><time>2026-05-02T13:55:48.702Z</time></trkpt><trkpt lat="40.8506267" lon="16.04856"><ele>423.0</ele><time>2026-05-02T13:55:49.701Z</time></trkpt><trkpt lat="40.8506183" lon="16.04843"><ele>423.0</ele><time>2026-05-02T13:55:50.702Z</time></trkpt><trkpt lat="40.850615" lon="16.0483383"><ele>423.0</ele><time>2026-05-02T13:55:51.701Z</time></trkpt><trkpt lat="40.8506717" lon="16.0482483"><ele>423.0</ele><time>2026-05-02T13:56:11.702Z</time></trkpt><trkpt lat="40.8507817" lon="16.0482733"><ele>423.0</ele><time>2026-05-02T13:56:15.702Z</time></trkpt><trkpt lat="40.8508933" lon="16.0482517"><ele>423.0</ele><time>2026-05-02T13:56:17.703Z</time></trkpt><trkpt lat="40.8509517" lon="16.0482183"><ele>423.0</ele><time>2026-05-02T13:56:18.702Z</time></trkpt><trkpt lat="40.8510167" lon="16.048165"><ele>423.1666666666667</ele><time>2026-05-02T13:56:19.701Z</time></trkpt><trkpt lat="40.8510883" lon="16.048095"><ele>423.33333333333337</ele><time>2026-05-02T13:56:20.703Z</time></trkpt><trkpt lat="40.8511583" lon="16.048025"><ele>423.5</ele><time>2026-05-02T13:56:21.703Z</time></trkpt><trkpt lat="40.8512217" lon="16.0479683"><ele>423.6666666666667</ele><time>2026-05-02T13:56:22.701Z</time></trkpt><trkpt lat="40.85132" lon="16.0478967"><ele>423.83333333333337</ele><time>2026-05-02T13:56:24.701Z</time></trkpt><trkpt lat="40.8513767" lon="16.0478217"><ele>424.0</ele><time>2026-05-02T13:56:26.702Z</time></trkpt><trkpt lat="40.8513633" lon="16.0477017"><ele>424.0</ele><time>2026-05-02T13:56:28.702Z</time></trkpt><trkpt lat="40.85135" lon="16.047615"><ele>424.0</ele><time>2026-05-02T13:56:29.703Z</time></trkpt><trkpt lat="40.8513317" lon="16.04751"><ele>424.0</ele><time>2026-05-02T13:56:30.702Z</time></trkpt><trkpt lat="40.8513033" lon="16.0473817"><ele>424.0</ele><time>2026-05-02T13:56:31.702Z</time></trkpt><trkpt lat="40.8512683" lon="16.0472483"><ele>424.0</ele><time>2026-05-02T13:56:32.703Z</time></trkpt><trkpt lat="40.8512317" lon="16.047125"><ele>426.25</ele><time>2026-05-02T13:56:33.701Z</time></trkpt><trkpt lat="40.851195" lon="16.0470017"><ele>428.5</ele><time>2026-05-02T13:56:34.703Z</time></trkpt><trkpt lat="40.851155" lon="16.04687"><ele>430.75</ele><time>2026-05-02T13:56:35.702Z</time></trkpt><trkpt lat="40.8511117" lon="16.0467217"><ele>433.0</ele><time>2026-05-02T13:56:36.703Z</time></trkpt><trkpt lat="40.8510667" lon="16.0465683"><ele>435.0</ele><time>2026-05-02T13:56:37.703Z</time></trkpt><trkpt lat="40.8510217" lon="16.04643"><ele>436.99999999999994</ele><time>2026-05-02T13:56:38.702Z</time></trkpt><trkpt lat="40.8509867" lon="16.0463133"><ele>438.99999999999994</ele><time>2026-05-02T13:56:39.702Z</time></trkpt><trkpt lat="40.8509567" lon="16.0462167"><ele>441.0</ele><time>2026-05-02T13:56:40.703Z</time></trkpt><trkpt lat="40.8509083" lon="16.0460967"><ele>443.0</ele><time>2026-05-02T13:56:42.702Z</time></trkpt><trkpt lat="40.8508417" lon="16.0460883"><ele>444.0</ele><time>2026-05-02T13:56:50.702Z</time></trkpt><trkpt lat="40.8507683" lon="16.0461217"><ele>444.99999999999994</ele><time>2026-05-02T13:56:52.702Z</time></trkpt><trkpt lat="40.8506617" lon="16.04611"><ele>445.99999999999994</ele><time>2026-05-02T13:56:54.701Z</time></trkpt><trkpt lat="40.85059" lon="16.0460767"><ele>447.0</ele><time>2026-05-02T13:56:55.702Z</time></trkpt><trkpt lat="40.8504967" lon="16.04603"><ele>448.0</ele><time>2026-05-02T13:56:56.703Z</time></trkpt><trkpt lat="40.8503867" lon="16.0459817"><ele>448.00000000000006</ele><time>2026-05-02T13:56:57.701Z</time></trkpt><trkpt lat="40.85028" lon="16.0459383"><ele>448.0</ele><time>2026-05-02T13:56:58.703Z</time></trkpt><trkpt lat="40.8501817" lon="16.0458983"><ele>448.0</ele><time>2026-05-02T13:56:59.703Z</time></trkpt><trkpt lat="40.8501" lon="16.0458517"><ele>448.0</ele><time>2026-05-02T13:57:00.703Z</time></trkpt><trkpt lat="40.850035" lon="16.0457983"><ele>448.00000000000006</ele><time>2026-05-02T13:57:01.705Z</time></trkpt><trkpt lat="40.8499867" lon="16.0457383"><ele>448.0</ele><time>2026-05-02T13:57:02.702Z</time></trkpt><trkpt lat="40.8499117" lon="16.0456083"><ele>449.33333333333337</ele><time>2026-05-02T13:57:04.702Z</time></trkpt><trkpt lat="40.8498733" lon="16.0455417"><ele>450.6666666666667</ele><time>2026-05-02T13:57:05.701Z</time></trkpt><trkpt lat="40.84983" lon="16.04547"><ele>452.0</ele><time>2026-05-02T13:57:06.701Z</time></trkpt><trkpt lat="40.849785" lon="16.04538"><ele>453.33333333333337</ele><time>2026-05-02T13:57:07.702Z</time></trkpt><trkpt lat="40.849735" lon="16.045265"><ele>454.6666666666667</ele><time>2026-05-02T13:57:08.702Z</time></trkpt><trkpt lat="40.8496717" lon="16.0451583"><ele>456.0</ele><time>2026-05-02T13:57:09.702Z</time></trkpt><trkpt lat="40.8495917" lon="16.0450717"><ele>456.0</ele><time>2026-05-02T13:57:10.703Z</time></trkpt><trkpt lat="40.8494933" lon="16.044995"><ele>456.0</ele><time>2026-05-02T13:57:11.702Z</time></trkpt><trkpt lat="40.849385" lon="16.0449183"><ele>456.0</ele><time>2026-05-02T13:57:12.703Z</time></trkpt><trkpt lat="40.8492833" lon="16.04485"><ele>456.0</ele><time>2026-05-02T13:57:13.701Z</time></trkpt><trkpt lat="40.849195" lon="16.04479"><ele>448.0</ele><time>2026-05-02T13:57:14.702Z</time></trkpt><trkpt lat="40.8508417" lon="16.0460883"><ele>448.0</ele><time>2026-05-02T13:56:50.702Z</time></trkpt><trkpt lat="40.8507683" lon="16.0461217"><ele>447.99999999999994</ele><time>2026-05-02T13:56:52.702Z</time></trkpt><trkpt lat="40.8506617" lon="16.04611"><ele>447.99999999999994</ele><time>2026-05-02T13:56:54.701Z</time></trkpt><trkpt lat="40.85059" lon="16.0460767"><ele>448.0</ele><time>2026-05-02T13:56:55.702Z</time></trkpt><trkpt lat="40.8504967" lon="16.04603"><ele>448.0</ele><time>2026-05-02T13:56:56.703Z</time></trkpt><trkpt lat="40.8503867" lon="16.0459817"><ele>448.00000000000006</ele><time>2026-05-02T13:56:57.701Z</time></trkpt><trkpt lat="40.85028" lon="16.0459383"><ele>448.0</ele><time>2026-05-02T13:56:58.703Z</time></trkpt><trkpt lat="40.8501817" lon="16.0458983"><ele>448.0</ele><time>2026-05-02T13:56:59.703Z</time></trkpt><trkpt lat="40.8501" lon="16.0458517"><ele>448.0</ele><time>2026-05-02T13:57:00.703Z</time></trkpt><trkpt lat="40.850035" lon="16.0457983"><ele>448.00000000000006</ele><time>2026-05-02T13:57:01.705Z</time></trkpt><trkpt lat="40.8499867" lon="16.0457383"><ele>448.0</ele><time>2026-05-02T13:57:02.702Z</time></trkpt><trkpt lat="40.8499117" lon="16.0456083"><ele>449.33333333333337</ele><time>2026-05-02T13:57:04.702Z</time></trkpt><trkpt lat="40.8498733" lon="16.0455417"><ele>450.6666666666667</ele><time>2026-05-02T13:57:05.701Z</time></trkpt><trkpt lat="40.84983" lon="16.04547"><ele>452.0</ele><time>2026-05-02T13:57:06.701Z</time></trkpt><trkpt lat="40.849785" lon="16.04538"><ele>453.33333333333337</ele><time>2026-05-02T13:57:07.702Z</time></trkpt><trkpt lat="40.849735" lon="16.045265"><ele>454.6666666666667</ele><time>2026-05-02T13:57:08.702Z</time></trkpt><trkpt lat="40.8496717" lon="16.0451583"><ele>456.0</ele><time>2026-05-02T13:57:09.702Z</time></trkpt><trkpt lat="40.8495917" lon="16.0450717"><ele>456.0</ele><time>2026-05-02T13:57:10.703Z</time></trkpt><trkpt lat="40.8494933" lon="16.044995"><ele>456.0</ele><time>2026-05-02T13:57:11.702Z</time></trkpt><trkpt lat="40.849385" lon="16.0449183"><ele>456.0</ele><time>2026-05-02T13:57:12.703Z</time></trkpt><trkpt lat="40.8492833" lon="16.04485"><ele>456.0</ele><time>2026-05-02T13:57:13.701Z</time></trkpt><trkpt lat="40.849195" lon="16.04479"><ele>455.6</ele><time>2026-05-02T13:57:14.702Z</time></trkpt><trkpt lat="40.8491083" lon="16.0447333"><ele>455.20000000000005</ele><time>2026-05-02T13:57:15.701Z</time></trkpt><trkpt lat="40.849025" lon="16.0446933"><ele>454.79999999999995</ele><time>2026-05-02T13:57:16.702Z</time></trkpt><trkpt lat="40.84894" lon="16.0446733"><ele>454.4</ele><time>2026-05-02T13:57:17.703Z</time></trkpt><trkpt lat="40.8488533" lon="16.0446833"><ele>454.0</ele><time>2026-05-02T13:57:18.703Z</time></trkpt><trkpt lat="40.848765" lon="16.0447283"><ele>454.0</ele><time>2026-05-02T13:57:19.701Z</time></trkpt><trkpt lat="40.84867" lon="16.04482"><ele>454.0</ele><time>2026-05-02T13:57:20.703Z</time></trkpt><trkpt lat="40.84857" lon="16.0449367"><ele>454.0</ele><time>2026-05-02T13:57:21.701Z</time></trkpt><trkpt lat="40.8484733" lon="16.045045"><ele>454.0</ele><time>2026-05-02T13:57:22.702Z</time></trkpt><trkpt lat="40.8483783" lon="16.0451417"><ele>453.25</ele><time>2026-05-02T13:57:23.701Z</time></trkpt><trkpt lat="40.8482783" lon="16.0452317"><ele>452.5</ele><time>2026-05-02T13:57:24.702Z</time></trkpt><trkpt lat="40.8481733" lon="16.0453083"><ele>451.75</ele><time>2026-05-02T13:57:25.702Z</time></trkpt><trkpt lat="40.8480733" lon="16.0453817"><ele>451.0</ele><time>2026-05-02T13:57:26.702Z</time></trkpt><trkpt lat="40.84798" lon="16.045465"><ele>451.0</ele><time>2026-05-02T13:57:27.701Z</time></trkpt><trkpt lat="40.8478967" lon="16.0455633"><ele>451.0</ele><time>2026-05-02T13:57:28.7Z</time></trkpt><trkpt lat="40.84782" lon="16.0456717"><ele>451.0</ele><time>2026-05-02T13:57:29.702Z</time></trkpt><trkpt lat="40.8477517" lon="16.0457817"><ele>451.0</ele><time>2026-05-02T13:57:30.701Z</time></trkpt><trkpt lat="40.8476868" lon="16.0458931"><ele>451.0</ele><time>2026-05-02T13:57:31.702Z</time></trkpt><trkpt lat="40.8476277" lon="16.0460085"><ele>453.4</ele><time>2026-05-02T13:57:32.703Z</time></trkpt><trkpt lat="40.847578" lon="16.0461329"><ele>455.8</ele><time>2026-05-02T13:57:33.701Z</time></trkpt><trkpt lat="40.8475405" lon="16.0462661"><ele>458.19999999999993</ele><time>2026-05-02T13:57:34.702Z</time></trkpt><trkpt lat="40.8475163" lon="16.0464024"><ele>460.59999999999997</ele><time>2026-05-02T13:57:35.701Z</time></trkpt><trkpt lat="40.8474964" lon="16.0465382"><ele>463.0</ele><time>2026-05-02T13:57:36.702Z</time></trkpt><trkpt lat="40.847475" lon="16.0466752"><ele>463.2</ele><time>2026-05-02T13:57:37.702Z</time></trkpt><trkpt lat="40.8474545" lon="16.0468133"><ele>463.4</ele><time>2026-05-02T13:57:38.702Z</time></trkpt><trkpt lat="40.8474386" lon="16.0469488"><ele>463.59999999999997</ele><time>2026-05-02T13:57:39.701Z</time></trkpt><trkpt lat="40.8474274" lon="16.0470785"><ele>463.79999999999995</ele><time>2026-05-02T13:57:40.701Z</time></trkpt><trkpt lat="40.847417" lon="16.0472136"><ele>464.0</ele><time>2026-05-02T13:57:41.702Z</time></trkpt><trkpt lat="40.8474043" lon="16.0473519"><ele>464.0</ele><time>2026-05-02T13:57:42.7Z</time></trkpt><trkpt lat="40.8473823" lon="16.0474858"><ele>464.0</ele><time>2026-05-02T13:57:43.702Z</time></trkpt><trkpt lat="40.8473443" lon="16.0476089"><ele>464.0</ele><time>2026-05-02T13:57:44.703Z</time></trkpt><trkpt lat="40.8472937" lon="16.047716"><ele>464.0</ele><time>2026-05-02T13:57:45.702Z</time></trkpt><trkpt lat="40.8472289" lon="16.0478014"><ele>464.0</ele><time>2026-05-02T13:57:46.703Z</time></trkpt><trkpt lat="40.8471518" lon="16.0478632"><ele>464.0</ele><time>2026-05-02T13:57:47.702Z</time></trkpt><trkpt lat="40.8470607" lon="16.0478957"><ele>464.0</ele><time>2026-05-02T13:57:48.702Z</time></trkpt><trkpt lat="40.846961" lon="16.0479017"><ele>464.0</ele><time>2026-05-02T13:57:49.703Z</time></trkpt><trkpt lat="40.8468584" lon="16.0478881"><ele>464.0</ele><time>2026-05-02T13:57:50.702Z</time></trkpt><trkpt lat="40.8467567" lon="16.0478704"><ele>464.0</ele><time>2026-05-02T13:57:51.702Z</time></trkpt><trkpt lat="40.8466579" lon="16.0478474"><ele>466.25</ele><time>2026-05-02T13:57:52.701Z</time></trkpt><trkpt lat="40.8465562" lon="16.0478336"><ele>468.5</ele><time>2026-05-02T13:57:53.702Z</time></trkpt><trkpt lat="40.8464457" lon="16.047845"><ele>470.75</ele><time>2026-05-02T13:57:54.703Z</time></trkpt><trkpt lat="40.8463304" lon="16.0478826"><ele>473.0</ele><time>2026-05-02T13:57:55.702Z</time></trkpt><trkpt lat="40.8462171" lon="16.0479362"><ele>473.0</ele><time>2026-05-02T13:57:56.702Z</time></trkpt><trkpt lat="40.8461069" lon="16.0479975"><ele>472.99999999999994</ele><time>2026-05-02T13:57:57.702Z</time></trkpt><trkpt lat="40.8460014" lon="16.0480599"><ele>472.99999999999994</ele><time>2026-05-02T13:57:58.701Z</time></trkpt><trkpt lat="40.8459042" lon="16.0481155"><ele>473.0</ele><time>2026-05-02T13:57:59.702Z</time></trkpt><trkpt lat="40.8458154" lon="16.0481587"><ele>473.0</ele><time>2026-05-02T13:58:00.703Z</time></trkpt><trkpt lat="40.8457319" lon="16.0481908"><ele>474.66666666666663</ele><time>2026-05-02T13:58:01.701Z</time></trkpt><trkpt lat="40.845651" lon="16.0482019"><ele>476.3333333333333</ele><time>2026-05-02T13:58:02.703Z</time></trkpt><trkpt lat="40.8455635" lon="16.0481945"><ele>478.0</ele><time>2026-05-02T13:58:03.703Z</time></trkpt><trkpt lat="40.8454725" lon="16.0481733"><ele>479.66666666666663</ele><time>2026-05-02T13:58:04.702Z</time></trkpt><trkpt lat="40.8453867" lon="16.0481489"><ele>481.3333333333333</ele><time>2026-05-02T13:58:05.701Z</time></trkpt><trkpt lat="40.8453131" lon="16.0481262"><ele>483.0</ele><time>2026-05-02T13:58:06.701Z</time></trkpt><trkpt lat="40.8452334" lon="16.0480858"><ele>483.0</ele><time>2026-05-02T13:58:08.703Z</time></trkpt><trkpt lat="40.8451741" lon="16.0480331"><ele>483.0</ele><time>2026-05-02T13:58:10.701Z</time></trkpt><trkpt lat="40.8450965" lon="16.0479628"><ele>483.0</ele><time>2026-05-02T13:58:12.702Z</time></trkpt><trkpt lat="40.8450447" lon="16.0478965"><ele>483.0</ele><time>2026-05-02T13:58:13.703Z</time></trkpt><trkpt lat="40.8449891" lon="16.0478062"><ele>483.0</ele><time>2026-05-02T13:58:14.703Z</time></trkpt><trkpt lat="40.8449332" lon="16.0476974"><ele>483.0</ele><time>2026-05-02T13:58:15.701Z</time></trkpt><trkpt lat="40.8448761" lon="16.0475658"><ele>486.0</ele><time>2026-05-02T13:58:16.703Z</time></trkpt><trkpt lat="40.8448187" lon="16.0474238"><ele>489.0</ele><time>2026-05-02T13:58:17.703Z</time></trkpt><trkpt lat="40.8447616" lon="16.0472798"><ele>492.0</ele><time>2026-05-02T13:58:18.702Z</time></trkpt><trkpt lat="40.8447071" lon="16.0471361"><ele>495.0</ele><time>2026-05-02T13:58:19.701Z</time></trkpt><trkpt lat="40.8446524" lon="16.0469961"><ele>495.0</ele><time>2026-05-02T13:58:20.702Z</time></trkpt><trkpt lat="40.844599" lon="16.0468576"><ele>495.0</ele><time>2026-05-02T13:58:21.703Z</time></trkpt><trkpt lat="40.844547" lon="16.0467203"><ele>495.0</ele><time>2026-05-02T13:58:22.701Z</time></trkpt><trkpt lat="40.8444915" lon="16.0465822"><ele>495.0</ele><time>2026-05-02T13:58:23.702Z</time></trkpt><trkpt lat="40.8444308" lon="16.0464494"><ele>496.5</ele><time>2026-05-02T13:58:24.702Z</time></trkpt><trkpt lat="40.8443592" lon="16.0463321"><ele>498.0</ele><time>2026-05-02T13:58:25.702Z</time></trkpt><trkpt lat="40.8442744" lon="16.0462293"><ele>499.5</ele><time>2026-05-02T13:58:26.703Z</time></trkpt><trkpt lat="40.8441774" lon="16.0461438"><ele>501.0</ele><time>2026-05-02T13:58:27.701Z</time></trkpt><trkpt lat="40.8440725" lon="16.0460716"><ele>501.0</ele><time>2026-05-02T13:58:28.703Z</time></trkpt><trkpt lat="40.8439673" lon="16.0460116"><ele>501.0</ele><time>2026-05-02T13:58:29.703Z</time></trkpt><trkpt lat="40.84387" lon="16.0459604"><ele>501.0</ele><time>2026-05-02T13:58:30.702Z</time></trkpt><trkpt lat="40.8437909" lon="16.0459141"><ele>501.0</ele><time>2026-05-02T13:58:31.704Z</time></trkpt><trkpt lat="40.8437241" lon="16.0458759"><ele>501.0</ele><time>2026-05-02T13:58:32.703Z</time></trkpt><trkpt lat="40.8436341" lon="16.0458242"><ele>501.0</ele><time>2026-05-02T13:58:34.703Z</time></trkpt><trkpt lat="40.8435689" lon="16.0457987"><ele>501.0</ele><time>2026-05-02T13:58:36.701Z</time></trkpt><trkpt lat="40.8434383" lon="16.0458317"><ele>501.0</ele><time>2026-05-02T13:58:48.701Z</time></trkpt><trkpt lat="40.8433633" lon="16.04584"><ele>501.0</ele><time>2026-05-02T13:58:53.703Z</time></trkpt><trkpt lat="40.84329" lon="16.0458633"><ele>501.0</ele><time>2026-05-02T13:58:57.701Z</time></trkpt><trkpt lat="40.8432117" lon="16.04589"><ele>501.0</ele><time>2026-05-02T13:59:01.703Z</time></trkpt><trkpt lat="40.8431433" lon="16.045895"><ele>500.5</ele><time>2026-05-02T13:59:04.703Z</time></trkpt><trkpt lat="40.84307" lon="16.04588"><ele>500.0</ele><time>2026-05-02T13:59:07.702Z</time></trkpt><trkpt lat="40.84299" lon="16.0458383"><ele>499.5</ele><time>2026-05-02T13:59:10.702Z</time></trkpt><trkpt lat="40.842925" lon="16.0458033"><ele>499.0</ele><time>2026-05-02T14:00:07.701Z</time></trkpt><trkpt lat="40.8428383" lon="16.0457683"><ele>498.5</ele><time>2026-05-02T14:00:10.702Z</time></trkpt><trkpt lat="40.842755" lon="16.04577"><ele>498.0</ele><time>2026-05-02T14:00:13.701Z</time></trkpt><trkpt lat="40.8426867" lon="16.0457517"><ele>499.1666666666667</ele><time>2026-05-02T14:00:16.701Z</time></trkpt><trkpt lat="40.8426233" lon="16.0457017"><ele>500.33333333333337</ele><time>2026-05-02T14:00:20.702Z</time></trkpt><trkpt lat="40.8425283" lon="16.0456633"><ele>501.5</ele><time>2026-05-02T14:00:37.702Z</time></trkpt><trkpt lat="40.8424383" lon="16.0456283"><ele>502.6666666666667</ele><time>2026-05-02T14:00:39.702Z</time></trkpt><trkpt lat="40.84237" lon="16.0456083"><ele>503.83333333333337</ele><time>2026-05-02T14:00:41.702Z</time></trkpt><trkpt lat="40.84229" lon="16.0456167"><ele>505.0</ele><time>2026-05-02T14:01:56.702Z</time></trkpt><trkpt lat="40.8422083" lon="16.045595"><ele>505.0</ele><time>2026-05-02T14:01:58.701Z</time></trkpt><trkpt lat="40.842115" lon="16.04554"><ele>505.0</ele><time>2026-05-02T14:02:00.701Z</time></trkpt><trkpt lat="40.8420317" lon="16.0454783"><ele>505.0</ele><time>2026-05-02T14:02:02.701Z</time></trkpt><trkpt lat="40.84191" lon="16.0454233"><ele>505.0</ele><time>2026-05-02T14:02:04.701Z</time></trkpt><trkpt lat="40.8417983" lon="16.04537"><ele>505.0</ele><time>2026-05-02T14:02:06.701Z</time></trkpt><trkpt lat="40.8417167" lon="16.0453117"><ele>506.83333333333337</ele><time>2026-05-02T14:02:08.701Z</time></trkpt><trkpt lat="40.841645" lon="16.0452483"><ele>508.6666666666667</ele><time>2026-05-02T14:02:10.7Z</time></trkpt><trkpt lat="40.841555" lon="16.0451867"><ele>510.5</ele><time>2026-05-02T14:02:12.702Z</time></trkpt><trkpt lat="40.84149" lon="16.0451583"><ele>512.3333333333334</ele><time>2026-05-02T14:02:13.7Z</time></trkpt><trkpt lat="40.8414183" lon="16.0451317"><ele>514.1666666666666</ele><time>2026-05-02T14:02:14.701Z</time></trkpt><trkpt lat="40.84135" lon="16.0451083"><ele>516.0</ele><time>2026-05-02T14:02:15.7Z</time></trkpt><trkpt lat="40.8412833" lon="16.0450867"><ele>516.0</ele><time>2026-05-02T14:02:16.706Z</time></trkpt><trkpt lat="40.8411767" lon="16.0450533"><ele>516.0</ele><time>2026-05-02T14:02:18.701Z</time></trkpt><trkpt lat="40.8410617" lon="16.0450233"><ele>516.0</ele><time>2026-05-02T14:02:26.702Z</time></trkpt><trkpt lat="40.8422083" lon="16.045595"><ele>516.0</ele><time>2026-05-02T14:01:58.701Z</time></trkpt><trkpt lat="40.842115" lon="16.04554"><ele>516.0</ele><time>2026-05-02T14:02:00.701Z</time></trkpt><trkpt lat="40.8420317" lon="16.0454783"><ele>516.0</ele><time>2026-05-02T14:02:02.701Z</time></trkpt><trkpt lat="40.84191" lon="16.0454233"><ele>516.0</ele><time>2026-05-02T14:02:04.701Z</time></trkpt><trkpt lat="40.8417983" lon="16.04537"><ele>516.0</ele><time>2026-05-02T14:02:06.701Z</time></trkpt><trkpt lat="40.8417167" lon="16.0453117"><ele>516.0</ele><time>2026-05-02T14:02:08.701Z</time></trkpt><trkpt lat="40.841645" lon="16.0452483"><ele>516.0</ele><time>2026-05-02T14:02:10.7Z</time></trkpt><trkpt lat="40.841555" lon="16.0451867"><ele>516.0</ele><time>2026-05-02T14:02:12.702Z</time></trkpt><trkpt lat="40.84149" lon="16.0451583"><ele>516.0</ele><time>2026-05-02T14:02:13.7Z</time></trkpt><trkpt lat="40.8414183" lon="16.0451317"><ele>516.0</ele><time>2026-05-02T14:02:14.701Z</time></trkpt><trkpt lat="40.84135" lon="16.0451083"><ele>516.0</ele><time>2026-05-02T14:02:15.7Z</time></trkpt><trkpt lat="40.8412833" lon="16.0450867"><ele>516.0</ele><time>2026-05-02T14:02:16.706Z</time></trkpt><trkpt lat="40.8411767" lon="16.0450533"><ele>516.0</ele><time>2026-05-02T14:02:18.701Z</time></trkpt><trkpt lat="40.8410617" lon="16.0450233"><ele>516.0</ele><time>2026-05-02T14:02:26.702Z</time></trkpt><trkpt lat="40.8409733" lon="16.0450683"><ele>516.0</ele><time>2026-05-02T14:02:29.7Z</time></trkpt><trkpt lat="40.8409" lon="16.0451467"><ele>516.0</ele><time>2026-05-02T14:02:31.7Z</time></trkpt><trkpt lat="40.8408517" lon="16.0452017"><ele>516.4</ele><time>2026-05-02T14:02:33.702Z</time></trkpt><trkpt lat="40.8407617" lon="16.0452283"><ele>516.8</ele><time>2026-05-02T14:02:39.7Z</time></trkpt><trkpt lat="40.8406267" lon="16.045205"><ele>517.1999999999999</ele><time>2026-05-02T14:02:41.701Z</time></trkpt><trkpt lat="40.8405467" lon="16.0451717"><ele>517.6</ele><time>2026-05-02T14:02:42.702Z</time></trkpt><trkpt lat="40.840465" lon="16.0451383"><ele>518.0</ele><time>2026-05-02T14:02:43.7Z</time></trkpt><trkpt lat="40.84038" lon="16.0451217"><ele>518.0</ele><time>2026-05-02T14:02:44.702Z</time></trkpt><trkpt lat="40.8402833" lon="16.0451267"><ele>518.0</ele><time>2026-05-02T14:02:45.702Z</time></trkpt><trkpt lat="40.8401867" lon="16.0451667"><ele>518.0</ele><time>2026-05-02T14:02:46.701Z</time></trkpt><trkpt lat="40.84007" lon="16.0452483"><ele>518.0</ele><time>2026-05-02T14:02:47.701Z</time></trkpt><trkpt lat="40.8399533" lon="16.0453383"><ele>521.0</ele><time>2026-05-02T14:02:48.701Z</time></trkpt><trkpt lat="40.83984" lon="16.0454417"><ele>524.0</ele><time>2026-05-02T14:02:49.702Z</time></trkpt><trkpt lat="40.83973" lon="16.04556"><ele>527.0</ele><time>2026-05-02T14:02:50.701Z</time></trkpt><trkpt lat="40.8396167" lon="16.0456783"><ele>530.0</ele><time>2026-05-02T14:02:51.7Z</time></trkpt><trkpt lat="40.8395117" lon="16.0457817"><ele>530.6</ele><time>2026-05-02T14:02:52.7Z</time></trkpt><trkpt lat="40.8394117" lon="16.045865"><ele>531.2</ele><time>2026-05-02T14:02:53.701Z</time></trkpt><trkpt lat="40.8393083" lon="16.0459383"><ele>531.8</ele><time>2026-05-02T14:02:54.7Z</time></trkpt><trkpt lat="40.8392067" lon="16.0459967"><ele>532.4</ele><time>2026-05-02T14:02:55.701Z</time></trkpt><trkpt lat="40.839115" lon="16.0460417"><ele>533.0</ele><time>2026-05-02T14:02:56.701Z</time></trkpt><trkpt lat="40.8390183" lon="16.0460667"><ele>533.0</ele><time>2026-05-02T14:02:57.701Z</time></trkpt><trkpt lat="40.8389233" lon="16.0460717"><ele>533.0</ele><time>2026-05-02T14:02:58.701Z</time></trkpt><trkpt lat="40.83882" lon="16.0460583"><ele>533.0</ele><time>2026-05-02T14:02:59.702Z</time></trkpt><trkpt lat="40.8387267" lon="16.046035"><ele>533.0</ele><time>2026-05-02T14:03:00.7Z</time></trkpt><trkpt lat="40.8386433" lon="16.046005"><ele>533.0</ele><time>2026-05-02T14:03:01.699Z</time></trkpt><trkpt lat="40.8385683" lon="16.0459617"><ele>533.0</ele><time>2026-05-02T14:03:02.701Z</time></trkpt><trkpt lat="40.83849" lon="16.0459033"><ele>533.0</ele><time>2026-05-02T14:03:03.702Z</time></trkpt><trkpt lat="40.8383983" lon="16.0458233"><ele>533.0</ele><time>2026-05-02T14:03:04.701Z</time></trkpt><trkpt lat="40.838305" lon="16.04573"><ele>533.0</ele><time>2026-05-02T14:03:05.7Z</time></trkpt><trkpt lat="40.8382033" lon="16.0456367"><ele>533.0</ele><time>2026-05-02T14:03:06.7Z</time></trkpt><trkpt lat="40.8381" lon="16.0455533"><ele>537.8</ele><time>2026-05-02T14:03:07.701Z</time></trkpt><trkpt lat="40.8380083" lon="16.0454733"><ele>542.5999999999999</ele><time>2026-05-02T14:03:08.702Z</time></trkpt><trkpt lat="40.837915" lon="16.045395"><ele>547.4000000000001</ele><time>2026-05-02T14:03:09.701Z</time></trkpt><trkpt lat="40.8378317" lon="16.04532"><ele>552.2</ele><time>2026-05-02T14:03:10.7Z</time></trkpt><trkpt lat="40.8377467" lon="16.045245"><ele>557.0</ele><time>2026-05-02T14:03:11.7Z</time></trkpt><trkpt lat="40.8376633" lon="16.0451633"><ele>556.4</ele><time>2026-05-02T14:03:12.701Z</time></trkpt><trkpt lat="40.8375833" lon="16.0450733"><ele>555.8000000000001</ele><time>2026-05-02T14:03:13.7Z</time></trkpt><trkpt lat="40.8375033" lon="16.04498"><ele>555.2</ele><time>2026-05-02T14:03:14.707Z</time></trkpt><trkpt lat="40.8374183" lon="16.0448917"><ele>554.6</ele><time>2026-05-02T14:03:15.702Z</time></trkpt><trkpt lat="40.8373533" lon="16.0448167"><ele>554.0</ele><time>2026-05-02T14:03:16.7Z</time></trkpt><trkpt lat="40.8373083" lon="16.044755"><ele>554.0</ele><time>2026-05-02T14:03:17.701Z</time></trkpt><trkpt lat="40.8372833" lon="16.044665"><ele>554.0</ele><time>2026-05-02T14:03:19.702Z</time></trkpt><trkpt lat="40.8373" lon="16.0445617"><ele>554.0</ele><time>2026-05-02T14:03:21.701Z</time></trkpt><trkpt lat="40.8373133" lon="16.0444083"><ele>554.0</ele><time>2026-05-02T14:03:23.702Z</time></trkpt><trkpt lat="40.8373267" lon="16.044255"><ele>554.0</ele><time>2026-05-02T14:03:25.701Z</time></trkpt><trkpt lat="40.83736" lon="16.0441117"><ele>554.3333333333333</ele><time>2026-05-02T14:03:27.701Z</time></trkpt><trkpt lat="40.8374033" lon="16.0439667"><ele>554.6666666666666</ele><time>2026-05-02T14:03:29.701Z</time></trkpt><trkpt lat="40.8374483" lon="16.0438433"><ele>555.0</ele><time>2026-05-02T14:03:31.701Z</time></trkpt><trkpt lat="40.83748" lon="16.0437683"><ele>555.3333333333334</ele><time>2026-05-02T14:03:32.702Z</time></trkpt><trkpt lat="40.83751" lon="16.0436817"><ele>555.6666666666667</ele><time>2026-05-02T14:03:33.7Z</time></trkpt><trkpt lat="40.8375367" lon="16.0436033"><ele>556.0</ele><time>2026-05-02T14:03:34.701Z</time></trkpt><trkpt lat="40.83754" lon="16.0435167"><ele>556.0</ele><time>2026-05-02T14:03:36.702Z</time></trkpt><trkpt lat="40.8375017" lon="16.043405"><ele>556.0</ele><time>2026-05-02T14:03:49.701Z</time></trkpt><trkpt lat="40.8374783" lon="16.04331"><ele>556.0</ele><time>2026-05-02T14:03:50.701Z</time></trkpt><trkpt lat="40.837455" lon="16.0432017"><ele>556.0</ele><time>2026-05-02T14:03:51.701Z</time></trkpt><trkpt lat="40.8374367" lon="16.04308"><ele>556.0</ele><time>2026-05-02T14:03:52.702Z</time></trkpt><trkpt lat="40.8374233" lon="16.042955"><ele>556.0</ele><time>2026-05-02T14:03:53.702Z</time></trkpt><trkpt lat="40.8374183" lon="16.042825"><ele>556.0</ele><time>2026-05-02T14:03:54.701Z</time></trkpt><trkpt lat="40.83742" lon="16.042705"><ele>556.0</ele><time>2026-05-02T14:03:55.702Z</time></trkpt><trkpt lat="40.8374183" lon="16.042595"><ele>556.0</ele><time>2026-05-02T14:03:56.702Z</time></trkpt><trkpt lat="40.8374083" lon="16.0424783"><ele>556.0</ele><time>2026-05-02T14:03:57.702Z</time></trkpt><trkpt lat="40.83739" lon="16.0423667"><ele>556.0</ele><time>2026-05-02T14:03:58.701Z</time></trkpt><trkpt lat="40.83737" lon="16.04226"><ele>556.0</ele><time>2026-05-02T14:03:59.702Z</time></trkpt><trkpt lat="40.8373567" lon="16.0421567"><ele>556.3333333333334</ele><time>2026-05-02T14:04:00.701Z</time></trkpt><trkpt lat="40.83735" lon="16.0420417"><ele>556.6666666666667</ele><time>2026-05-02T14:04:01.701Z</time></trkpt><trkpt lat="40.83735" lon="16.0419217"><ele>557.0</ele><time>2026-05-02T14:04:02.701Z</time></trkpt><trkpt lat="40.83735" lon="16.0418083"><ele>557.3333333333334</ele><time>2026-05-02T14:04:03.701Z</time></trkpt><trkpt lat="40.83735" lon="16.0417033"><ele>557.6666666666666</ele><time>2026-05-02T14:04:04.702Z</time></trkpt><trkpt lat="40.8373517" lon="16.04161"><ele>558.0</ele><time>2026-05-02T14:04:05.702Z</time></trkpt><trkpt lat="40.83736" lon="16.04146"><ele>558.1666666666666</ele><time>2026-05-02T14:04:07.701Z</time></trkpt><trkpt lat="40.8373783" lon="16.04131"><ele>558.3333333333334</ele><time>2026-05-02T14:04:09.701Z</time></trkpt><trkpt lat="40.8373933" lon="16.0412267"><ele>558.5</ele><time>2026-05-02T14:04:10.701Z</time></trkpt><trkpt lat="40.83741" lon="16.0411333"><ele>558.6666666666667</ele><time>2026-05-02T14:04:11.702Z</time></trkpt><trkpt lat="40.8374167" lon="16.04102"><ele>558.8333333333334</ele><time>2026-05-02T14:04:12.702Z</time></trkpt><trkpt lat="40.8374133" lon="16.0408883"><ele>559.0</ele><time>2026-05-02T14:04:13.702Z</time></trkpt><trkpt lat="40.83741" lon="16.0407567"><ele>559.0</ele><time>2026-05-02T14:04:14.703Z</time></trkpt><trkpt lat="40.8374083" lon="16.0406317"><ele>559.0</ele><time>2026-05-02T14:04:15.701Z</time></trkpt><trkpt lat="40.837405" lon="16.0405167"><ele>559.0</ele><time>2026-05-02T14:04:16.701Z</time></trkpt><trkpt lat="40.8374033" lon="16.040415"><ele>559.0</ele><time>2026-05-02T14:04:17.702Z</time></trkpt><trkpt lat="40.837405" lon="16.0403267"><ele>559.0</ele><time>2026-05-02T14:04:18.701Z</time></trkpt><trkpt lat="40.8374067" lon="16.0402417"><ele>559.0</ele><time>2026-05-02T14:04:19.703Z</time></trkpt><trkpt lat="40.837405" lon="16.040145"><ele>559.0</ele><time>2026-05-02T14:04:20.702Z</time></trkpt><trkpt lat="40.8374033" lon="16.0400317"><ele>559.0</ele><time>2026-05-02T14:04:21.703Z</time></trkpt><trkpt lat="40.8374" lon="16.0399167"><ele>559.0</ele><time>2026-05-02T14:04:22.701Z</time></trkpt><trkpt lat="40.8374" lon="16.0398067"><ele>559.0</ele><time>2026-05-02T14:04:23.702Z</time></trkpt><trkpt lat="40.837405" lon="16.0396883"><ele>559.0</ele><time>2026-05-02T14:04:24.702Z</time></trkpt><trkpt lat="40.83741" lon="16.0395583"><ele>559.0</ele><time>2026-05-02T14:04:25.702Z</time></trkpt><trkpt lat="40.83741" lon="16.0394233"><ele>558.8</ele><time>2026-05-02T14:04:26.702Z</time></trkpt><trkpt lat="40.83741" lon="16.0392833"><ele>558.5999999999999</ele><time>2026-05-02T14:04:27.703Z</time></trkpt><trkpt lat="40.83741" lon="16.039135"><ele>558.4</ele><time>2026-05-02T14:04:28.701Z</time></trkpt><trkpt lat="40.8374083" lon="16.038985"><ele>558.1999999999999</ele><time>2026-05-02T14:04:29.702Z</time></trkpt><trkpt lat="40.8374017" lon="16.0388483"><ele>558.0</ele><time>2026-05-02T14:04:30.701Z</time></trkpt><trkpt lat="40.8373883" lon="16.0387217"><ele>558.4</ele><time>2026-05-02T14:04:31.702Z</time></trkpt><trkpt lat="40.8373633" lon="16.0386133"><ele>558.8</ele><time>2026-05-02T14:04:32.701Z</time></trkpt><trkpt lat="40.8373333" lon="16.0385133"><ele>559.2</ele><time>2026-05-02T14:04:33.702Z</time></trkpt><trkpt lat="40.8373017" lon="16.038405"><ele>559.6</ele><time>2026-05-02T14:04:34.7Z</time></trkpt><trkpt lat="40.8372733" lon="16.038265"><ele>560.0</ele><time>2026-05-02T14:04:35.701Z</time></trkpt><trkpt lat="40.837245" lon="16.0381033"><ele>559.8</ele><time>2026-05-02T14:04:36.7Z</time></trkpt><trkpt lat="40.8372217" lon="16.0379433"><ele>559.6</ele><time>2026-05-02T14:04:37.701Z</time></trkpt><trkpt lat="40.8371967" lon="16.03779"><ele>559.4</ele><time>2026-05-02T14:04:38.703Z</time></trkpt><trkpt lat="40.837175" lon="16.0376517"><ele>559.2</ele><time>2026-05-02T14:04:39.702Z</time></trkpt><trkpt lat="40.837155" lon="16.0375233"><ele>559.0</ele><time>2026-05-02T14:04:40.7Z</time></trkpt><trkpt lat="40.8371367" lon="16.0373883"><ele>559.0</ele><time>2026-05-02T14:04:41.701Z</time></trkpt><trkpt lat="40.8371217" lon="16.03725"><ele>559.0</ele><time>2026-05-02T14:04:42.701Z</time></trkpt><trkpt lat="40.8371117" lon="16.037115"><ele>559.0</ele><time>2026-05-02T14:04:43.7Z</time></trkpt><trkpt lat="40.8371033" lon="16.0369867"><ele>559.0</ele><time>2026-05-02T14:04:44.702Z</time></trkpt><trkpt lat="40.83709" lon="16.0368533"><ele>559.0</ele><time>2026-05-02T14:04:45.702Z</time></trkpt><trkpt lat="40.83708" lon="16.036725"><ele>557.3333333333334</ele><time>2026-05-02T14:04:46.7Z</time></trkpt><trkpt lat="40.8370733" lon="16.0365967"><ele>555.6666666666667</ele><time>2026-05-02T14:04:47.702Z</time></trkpt><trkpt lat="40.8370783" lon="16.0364783"><ele>554.0</ele><time>2026-05-02T14:04:48.701Z</time></trkpt><trkpt lat="40.8370883" lon="16.0363683"><ele>552.3333333333334</ele><time>2026-05-02T14:04:49.701Z</time></trkpt><trkpt lat="40.837105" lon="16.0362667"><ele>550.6666666666666</ele><time>2026-05-02T14:04:50.703Z</time></trkpt><trkpt lat="40.8371283" lon="16.0361733"><ele>549.0</ele><time>2026-05-02T14:04:51.703Z</time></trkpt><trkpt lat="40.8371533" lon="16.03608"><ele>549.0</ele><time>2026-05-02T14:04:52.702Z</time></trkpt><trkpt lat="40.837175" lon="16.036"><ele>549.0</ele><time>2026-05-02T14:04:53.702Z</time></trkpt><trkpt lat="40.8371983" lon="16.0359"><ele>549.0</ele><time>2026-05-02T14:04:55.704Z</time></trkpt><trkpt lat="40.8372417" lon="16.0358333"><ele>549.0</ele><time>2026-05-02T14:04:57.702Z</time></trkpt><trkpt lat="40.8373333" lon="16.0357367"><ele>549.0</ele><time>2026-05-02T14:04:59.701Z</time></trkpt><trkpt lat="40.837395" lon="16.03567"><ele>549.0</ele><time>2026-05-02T14:05:00.701Z</time></trkpt><trkpt lat="40.8374617" lon="16.03559"><ele>549.1666666666666</ele><time>2026-05-02T14:05:01.701Z</time></trkpt><trkpt lat="40.837525" lon="16.0355167"><ele>549.3333333333334</ele><time>2026-05-02T14:05:02.705Z</time></trkpt><trkpt lat="40.83758" lon="16.0354533"><ele>549.5</ele><time>2026-05-02T14:05:03.702Z</time></trkpt><trkpt lat="40.8376267" lon="16.035395"><ele>549.6666666666667</ele><time>2026-05-02T14:05:04.702Z</time></trkpt><trkpt lat="40.837665" lon="16.0353267"><ele>549.8333333333334</ele><time>2026-05-02T14:05:05.701Z</time></trkpt><trkpt lat="40.837725" lon="16.0351917"><ele>550.0</ele><time>2026-05-02T14:05:07.702Z</time></trkpt><trkpt lat="40.837765" lon="16.0350517"><ele>546.8333333333334</ele><time>2026-05-02T14:05:09.701Z</time></trkpt><trkpt lat="40.8377617" lon="16.03491"><ele>543.6666666666667</ele><time>2026-05-02T14:05:11.701Z</time></trkpt><trkpt lat="40.837735" lon="16.0348267"><ele>540.5</ele><time>2026-05-02T14:05:12.701Z</time></trkpt><trkpt lat="40.8376833" lon="16.0347367"><ele>537.3333333333334</ele><time>2026-05-02T14:05:13.701Z</time></trkpt><trkpt lat="40.8376267" lon="16.0346417"><ele>534.1666666666666</ele><time>2026-05-02T14:05:14.702Z</time></trkpt><trkpt lat="40.8375633" lon="16.0345483"><ele>531.0</ele><time>2026-05-02T14:05:15.7Z</time></trkpt><trkpt lat="40.8375017" lon="16.0344567"><ele>528.4</ele><time>2026-05-02T14:05:16.701Z</time></trkpt><trkpt lat="40.8374483" lon="16.0343583"><ele>525.8</ele><time>2026-05-02T14:05:17.702Z</time></trkpt><trkpt lat="40.8373967" lon="16.0342617"><ele>523.1999999999999</ele><time>2026-05-02T14:05:18.701Z</time></trkpt><trkpt lat="40.8373517" lon="16.0341817"><ele>520.6</ele><time>2026-05-02T14:05:19.703Z</time></trkpt><trkpt lat="40.8372633" lon="16.03407"><ele>518.0</ele><time>2026-05-02T14:05:21.701Z</time></trkpt><trkpt lat="40.8371733" lon="16.033995"><ele>517.6666666666666</ele><time>2026-05-02T14:05:23.703Z</time></trkpt><trkpt lat="40.8370567" lon="16.033945"><ele>517.3333333333333</ele><time>2026-05-02T14:05:25.7Z</time></trkpt><trkpt lat="40.836985" lon="16.0339117"><ele>517.0</ele><time>2026-05-02T14:05:26.701Z</time></trkpt><trkpt lat="40.8369183" lon="16.0338767"><ele>516.6666666666666</ele><time>2026-05-02T14:05:27.701Z</time></trkpt><trkpt lat="40.8368483" lon="16.03384"><ele>516.3333333333334</ele><time>2026-05-02T14:05:28.701Z</time></trkpt><trkpt lat="40.8367767" lon="16.0338017"><ele>516.0</ele><time>2026-05-02T14:05:29.701Z</time></trkpt><trkpt lat="40.8367117" lon="16.0337633"><ele>514.6666666666666</ele><time>2026-05-02T14:05:30.701Z</time></trkpt><trkpt lat="40.8366417" lon="16.033725"><ele>513.3333333333334</ele><time>2026-05-02T14:05:31.7Z</time></trkpt><trkpt lat="40.8365767" lon="16.03369"><ele>512.0</ele><time>2026-05-02T14:05:32.702Z</time></trkpt><trkpt lat="40.8365133" lon="16.0336583"><ele>510.6666666666667</ele><time>2026-05-02T14:05:33.702Z</time></trkpt><trkpt lat="40.8364467" lon="16.0336433"><ele>509.33333333333337</ele><time>2026-05-02T14:05:34.702Z</time></trkpt><trkpt lat="40.83638" lon="16.033645"><ele>508.0</ele><time>2026-05-02T14:05:35.701Z</time></trkpt><trkpt lat="40.836265" lon="16.0336583"><ele>508.00000000000006</ele><time>2026-05-02T14:05:37.704Z</time></trkpt><trkpt lat="40.8361783" lon="16.03371"><ele>508.0</ele><time>2026-05-02T14:05:39.701Z</time></trkpt><trkpt lat="40.836095" lon="16.033765"><ele>508.0</ele><time>2026-05-02T14:05:41.7Z</time></trkpt><trkpt lat="40.8360083" lon="16.03378"><ele>508.0</ele><time>2026-05-02T14:05:43.702Z</time></trkpt><trkpt lat="40.835985" lon="16.03388"><ele>508.00000000000006</ele><time>2026-05-02T14:07:03.701Z</time></trkpt><trkpt lat="40.8359267" lon="16.0339333"><ele>508.0</ele><time>2026-05-02T14:07:06.703Z</time></trkpt><trkpt lat="40.8358417" lon="16.033915"><ele>507.50000000000006</ele><time>2026-05-02T14:07:08.702Z</time></trkpt><trkpt lat="40.8357367" lon="16.0338467"><ele>507.0</ele><time>2026-05-02T14:07:10.701Z</time></trkpt><trkpt lat="40.8356833" lon="16.0337967"><ele>506.5</ele><time>2026-05-02T14:07:11.701Z</time></trkpt><trkpt lat="40.8356217" lon="16.0337367"><ele>506.0</ele><time>2026-05-02T14:07:12.702Z</time></trkpt><trkpt lat="40.83555" lon="16.0336667"><ele>505.50000000000006</ele><time>2026-05-02T14:07:13.702Z</time></trkpt><trkpt lat="40.8354683" lon="16.0335983"><ele>505.0</ele><time>2026-05-02T14:07:14.701Z</time></trkpt><trkpt lat="40.8353883" lon="16.033535"><ele>505.00000000000006</ele><time>2026-05-02T14:07:15.701Z</time></trkpt><trkpt lat="40.835315" lon="16.0334783"><ele>505.0</ele><time>2026-05-02T14:07:16.702Z</time></trkpt><trkpt lat="40.8352617" lon="16.0334183"><ele>505.0</ele><time>2026-05-02T14:07:17.701Z</time></trkpt><trkpt lat="40.8352183" lon="16.0333483"><ele>505.0</ele><time>2026-05-02T14:07:18.702Z</time></trkpt><trkpt lat="40.83514" lon="16.0332383"><ele>505.00000000000006</ele><time>2026-05-02T14:07:20.701Z</time></trkpt><trkpt lat="40.8350733" lon="16.033185"><ele>505.0</ele><time>2026-05-02T14:07:21.702Z</time></trkpt><trkpt lat="40.8349733" lon="16.03313"><ele>507.6</ele><time>2026-05-02T14:07:22.701Z</time></trkpt><trkpt lat="40.8348683" lon="16.033065"><ele>510.2</ele><time>2026-05-02T14:07:23.702Z</time></trkpt><trkpt lat="40.8347767" lon="16.0330067"><ele>512.8</ele><time>2026-05-02T14:07:24.701Z</time></trkpt><trkpt lat="40.834705" lon="16.032965"><ele>515.4</ele><time>2026-05-02T14:07:25.702Z</time></trkpt><trkpt lat="40.8345933" lon="16.0329367"><ele>518.0</ele><time>2026-05-02T14:07:27.702Z</time></trkpt><trkpt lat="40.8345183" lon="16.0330567"><ele>518.0</ele><time>2026-05-02T14:07:29.701Z</time></trkpt><trkpt lat="40.83448" lon="16.03315"><ele>518.0</ele><time>2026-05-02T14:07:30.701Z</time></trkpt><trkpt lat="40.8344333" lon="16.0332517"><ele>518.0</ele><time>2026-05-02T14:07:31.701Z</time></trkpt><trkpt lat="40.83439" lon="16.03335"><ele>518.0</ele><time>2026-05-02T14:07:32.701Z</time></trkpt><trkpt lat="40.8343517" lon="16.03343"><ele>518.0</ele><time>2026-05-02T14:07:33.7Z</time></trkpt><trkpt lat="40.8342833" lon="16.0335317"><ele>518.0</ele><time>2026-05-02T14:07:35.701Z</time></trkpt><trkpt lat="40.8342133" lon="16.0335967"><ele>518.8333333333333</ele><time>2026-05-02T14:07:37.702Z</time></trkpt><trkpt lat="40.834155" lon="16.0336383"><ele>519.6666666666666</ele><time>2026-05-02T14:07:39.701Z</time></trkpt><trkpt lat="40.8340483" lon="16.0336567"><ele>520.5</ele><time>2026-05-02T14:07:42.7Z</time></trkpt><trkpt lat="40.833985" lon="16.0336683"><ele>521.3333333333334</ele><time>2026-05-02T14:07:43.702Z</time></trkpt><trkpt lat="40.8339233" lon="16.033685"><ele>522.1666666666667</ele><time>2026-05-02T14:07:44.703Z</time></trkpt><trkpt lat="40.833815" lon="16.033725"><ele>523.0</ele><time>2026-05-02T14:07:46.703Z</time></trkpt><trkpt lat="40.8336917" lon="16.033775"><ele>523.0</ele><time>2026-05-02T14:07:48.703Z</time></trkpt><trkpt lat="40.8336183" lon="16.0338117"><ele>523.0</ele><time>2026-05-02T14:07:49.701Z</time></trkpt><trkpt lat="40.8335467" lon="16.0338467"><ele>523.0</ele><time>2026-05-02T14:07:50.703Z</time></trkpt><trkpt lat="40.8334383" lon="16.0338967"><ele>523.0</ele><time>2026-05-02T14:07:52.702Z</time></trkpt><trkpt lat="40.8333483" lon="16.0339367"><ele>523.0</ele><time>2026-05-02T14:07:54.701Z</time></trkpt><trkpt lat="40.8332567" lon="16.0339817"><ele>523.4</ele><time>2026-05-02T14:07:56.703Z</time></trkpt><trkpt lat="40.8331767" lon="16.03401"><ele>523.8</ele><time>2026-05-02T14:07:58.702Z</time></trkpt><trkpt lat="40.83308" lon="16.034035"><ele>524.2</ele><time>2026-05-02T14:08:00.703Z</time></trkpt><trkpt lat="40.832975" lon="16.0340717"><ele>524.6</ele><time>2026-05-02T14:08:02.701Z</time></trkpt><trkpt lat="40.8328683" lon="16.0341183"><ele>525.0</ele><time>2026-05-02T14:08:04.702Z</time></trkpt><trkpt lat="40.8328083" lon="16.0341483"><ele>525.0</ele><time>2026-05-02T14:08:05.701Z</time></trkpt><trkpt lat="40.8327467" lon="16.0341833"><ele>525.0</ele><time>2026-05-02T14:08:06.701Z</time></trkpt><trkpt lat="40.8326883" lon="16.034215"><ele>525.0</ele><time>2026-05-02T14:08:07.701Z</time></trkpt><trkpt lat="40.8325767" lon="16.034255"><ele>525.0</ele><time>2026-05-02T14:08:09.702Z</time></trkpt><trkpt lat="40.83248" lon="16.0342583"><ele>525.0</ele><time>2026-05-02T14:08:11.702Z</time></trkpt><trkpt lat="40.8323833" lon="16.0342367"><ele>525.0</ele><time>2026-05-02T14:08:13.704Z</time></trkpt><trkpt lat="40.832275" lon="16.0341933"><ele>526.5</ele><time>2026-05-02T14:08:15.702Z</time></trkpt><trkpt lat="40.832155" lon="16.034175"><ele>528.0</ele><time>2026-05-02T14:08:17.702Z</time></trkpt><trkpt lat="40.8320417" lon="16.03415"><ele>529.5</ele><time>2026-05-02T14:08:19.702Z</time></trkpt><trkpt lat="40.8319317" lon="16.0341117"><ele>531.0</ele><time>2026-05-02T14:08:21.7Z</time></trkpt><trkpt lat="40.83182" lon="16.034075"><ele>533.7142857142858</ele><time>2026-05-02T14:08:23.701Z</time></trkpt><trkpt lat="40.83175" lon="16.0340483"><ele>536.4285714285714</ele><time>2026-05-02T14:08:24.704Z</time></trkpt><trkpt lat="40.831675" lon="16.0340217"><ele>539.1428571428571</ele><time>2026-05-02T14:08:25.701Z</time></trkpt><trkpt lat="40.8316033" lon="16.033995"><ele>541.8571428571429</ele><time>2026-05-02T14:08:26.703Z</time></trkpt><trkpt lat="40.831535" lon="16.033965"><ele>544.5714285714286</ele><time>2026-05-02T14:08:27.701Z</time></trkpt><trkpt lat="40.8314633" lon="16.0339367"><ele>547.2857142857143</ele><time>2026-05-02T14:08:28.702Z</time></trkpt><trkpt lat="40.83139" lon="16.0339067"><ele>550.0</ele><time>2026-05-02T14:08:29.701Z</time></trkpt><trkpt lat="40.8313133" lon="16.03388"><ele>550.0</ele><time>2026-05-02T14:08:30.701Z</time></trkpt><trkpt lat="40.8312417" lon="16.0338517"><ele>550.0</ele><time>2026-05-02T14:08:31.702Z</time></trkpt><trkpt lat="40.83117" lon="16.03382"><ele>550.0</ele><time>2026-05-02T14:08:32.702Z</time></trkpt><trkpt lat="40.8310883" lon="16.0337817"><ele>550.0</ele><time>2026-05-02T14:08:33.701Z</time></trkpt><trkpt lat="40.8310117" lon="16.0337417"><ele>550.0</ele><time>2026-05-02T14:08:34.701Z</time></trkpt><trkpt lat="40.83094" lon="16.0337067"><ele>550.0</ele><time>2026-05-02T14:08:35.701Z</time></trkpt><trkpt lat="40.8308767" lon="16.033675"><ele>549.6666666666667</ele><time>2026-05-02T14:08:36.702Z</time></trkpt><trkpt lat="40.8307717" lon="16.0336183"><ele>549.3333333333334</ele><time>2026-05-02T14:08:38.702Z</time></trkpt><trkpt lat="40.8306883" lon="16.0335933"><ele>549.0</ele><time>2026-05-02T14:08:40.702Z</time></trkpt><trkpt lat="40.8306283" lon="16.0335117"><ele>548.6666666666666</ele><time>2026-05-02T14:08:48.701Z</time></trkpt><trkpt lat="40.830585" lon="16.0334467"><ele>548.3333333333333</ele><time>2026-05-02T14:08:49.703Z</time></trkpt><trkpt lat="40.830525" lon="16.0333733"><ele>548.0</ele><time>2026-05-02T14:08:50.702Z</time></trkpt><trkpt lat="40.8304433" lon="16.033295"><ele>547.5</ele><time>2026-05-02T14:08:51.702Z</time></trkpt><trkpt lat="40.8303483" lon="16.0332017"><ele>547.0</ele><time>2026-05-02T14:08:52.702Z</time></trkpt><trkpt lat="40.83025" lon="16.0330967"><ele>546.5</ele><time>2026-05-02T14:08:53.701Z</time></trkpt><trkpt lat="40.830145" lon="16.0329833"><ele>546.0</ele><time>2026-05-02T14:08:54.701Z</time></trkpt><trkpt lat="40.8300417" lon="16.03286"><ele>546.0</ele><time>2026-05-02T14:08:55.701Z</time></trkpt><trkpt lat="40.829945" lon="16.0327433"><ele>546.0</ele><time>2026-05-02T14:08:56.702Z</time></trkpt><trkpt lat="40.8298533" lon="16.0326367"><ele>546.0</ele><time>2026-05-02T14:08:57.702Z</time></trkpt><trkpt lat="40.82977" lon="16.0325317"><ele>546.0</ele><time>2026-05-02T14:08:58.702Z</time></trkpt><trkpt lat="40.829695" lon="16.03243"><ele>547.3333333333334</ele><time>2026-05-02T14:08:59.702Z</time></trkpt><trkpt lat="40.8296333" lon="16.0323433"><ele>548.6666666666666</ele><time>2026-05-02T14:09:00.701Z</time></trkpt><trkpt lat="40.8295933" lon="16.03227"><ele>550.0</ele><time>2026-05-02T14:09:01.702Z</time></trkpt><trkpt lat="40.8295733" lon="16.0321283"><ele>551.3333333333333</ele><time>2026-05-02T14:09:03.702Z</time></trkpt><trkpt lat="40.8295783" lon="16.032035"><ele>552.6666666666666</ele><time>2026-05-02T14:09:04.702Z</time></trkpt><trkpt lat="40.829585" lon="16.0319117"><ele>554.0</ele><time>2026-05-02T14:09:05.703Z</time></trkpt><trkpt lat="40.8295867" lon="16.0317533"><ele>557.0</ele><time>2026-05-02T14:09:06.704Z</time></trkpt><trkpt lat="40.82959" lon="16.031565"><ele>560.0</ele><time>2026-05-02T14:09:07.704Z</time></trkpt><trkpt lat="40.8296017" lon="16.0313533"><ele>563.0</ele><time>2026-05-02T14:09:08.703Z</time></trkpt><trkpt lat="40.829615" lon="16.03113"><ele>563.0</ele><time>2026-05-02T14:09:09.704Z</time></trkpt><trkpt lat="40.8296283" lon="16.03091"><ele>563.0</ele><time>2026-05-02T14:09:10.703Z</time></trkpt><trkpt lat="40.829635" lon="16.03071"><ele>563.0</ele><time>2026-05-02T14:09:11.704Z</time></trkpt><trkpt lat="40.8296383" lon="16.0305217"><ele>564.5</ele><time>2026-05-02T14:09:12.702Z</time></trkpt><trkpt lat="40.8296433" lon="16.03034"><ele>566.0</ele><time>2026-05-02T14:09:13.701Z</time></trkpt><trkpt lat="40.82965" lon="16.0301533"><ele>567.5</ele><time>2026-05-02T14:09:14.704Z</time></trkpt><trkpt lat="40.829655" lon="16.02996"><ele>569.0</ele><time>2026-05-02T14:09:15.702Z</time></trkpt><trkpt lat="40.8296667" lon="16.0297783"><ele>569.25</ele><time>2026-05-02T14:09:16.701Z</time></trkpt><trkpt lat="40.829685" lon="16.02962"><ele>569.5</ele><time>2026-05-02T14:09:17.701Z</time></trkpt><trkpt lat="40.829715" lon="16.0294733"><ele>569.75</ele><time>2026-05-02T14:09:18.701Z</time></trkpt><trkpt lat="40.8297583" lon="16.0293133"><ele>570.0</ele><time>2026-05-02T14:09:19.701Z</time></trkpt><trkpt lat="40.82981" lon="16.0291383"><ele>570.0</ele><time>2026-05-02T14:09:20.703Z</time></trkpt><trkpt lat="40.82986" lon="16.0289783"><ele>570.0</ele><time>2026-05-02T14:09:21.702Z</time></trkpt><trkpt lat="40.8299133" lon="16.02883"><ele>570.0</ele><time>2026-05-02T14:09:22.702Z</time></trkpt><trkpt lat="40.8299767" lon="16.0286867"><ele>570.0</ele><time>2026-05-02T14:09:23.701Z</time></trkpt><trkpt lat="40.830045" lon="16.0285417"><ele>570.0</ele><time>2026-05-02T14:09:24.701Z</time></trkpt><trkpt lat="40.8301114" lon="16.0283908"><ele>570.0</ele><time>2026-05-02T14:09:25.701Z</time></trkpt><trkpt lat="40.8301802" lon="16.0282191"><ele>570.0</ele><time>2026-05-02T14:09:26.702Z</time></trkpt><trkpt lat="40.8302343" lon="16.0280613"><ele>570.0</ele><time>2026-05-02T14:09:27.703Z</time></trkpt><trkpt lat="40.8302854" lon="16.0279218"><ele>574.25</ele><time>2026-05-02T14:09:28.703Z</time></trkpt><trkpt lat="40.8303513" lon="16.027804"><ele>578.5</ele><time>2026-05-02T14:09:29.703Z</time></trkpt><trkpt lat="40.8304379" lon="16.0276876"><ele>582.75</ele><time>2026-05-02T14:09:30.702Z</time></trkpt><trkpt lat="40.8305293" lon="16.0275717"><ele>587.0</ele><time>2026-05-02T14:09:31.702Z</time></trkpt><trkpt lat="40.830602" lon="16.0274615"><ele>587.0</ele><time>2026-05-02T14:09:32.703Z</time></trkpt><trkpt lat="40.8306544" lon="16.0273499"><ele>587.0</ele><time>2026-05-02T14:09:33.702Z</time></trkpt><trkpt lat="40.8306827" lon="16.0272354"><ele>587.0</ele><time>2026-05-02T14:09:34.702Z</time></trkpt><trkpt lat="40.830704" lon="16.027109"><ele>587.0</ele><time>2026-05-02T14:09:35.702Z</time></trkpt><trkpt lat="40.8307312" lon="16.0269754"><ele>587.0</ele><time>2026-05-02T14:09:36.704Z</time></trkpt><trkpt lat="40.8307701" lon="16.0268598"><ele>587.0</ele><time>2026-05-02T14:09:37.702Z</time></trkpt><trkpt lat="40.8308189" lon="16.0267638"><ele>587.0</ele><time>2026-05-02T14:09:38.701Z</time></trkpt><trkpt lat="40.8308671" lon="16.0266757"><ele>587.0</ele><time>2026-05-02T14:09:39.702Z</time></trkpt><trkpt lat="40.8309067" lon="16.0265874"><ele>587.0</ele><time>2026-05-02T14:09:40.701Z</time></trkpt><trkpt lat="40.8309353" lon="16.0264997"><ele>587.0</ele><time>2026-05-02T14:09:41.702Z</time></trkpt><trkpt lat="40.8309604" lon="16.0263451"><ele>587.0</ele><time>2026-05-02T14:09:43.702Z</time></trkpt><trkpt lat="40.8309457" lon="16.0261921"><ele>588.4</ele><time>2026-05-02T14:09:45.701Z</time></trkpt><trkpt lat="40.8309299" lon="16.0260172"><ele>589.8000000000001</ele><time>2026-05-02T14:09:47.701Z</time></trkpt><trkpt lat="40.830927" lon="16.0259059"><ele>591.2</ele><time>2026-05-02T14:09:48.703Z</time></trkpt><trkpt lat="40.8309278" lon="16.0257887"><ele>592.6</ele><time>2026-05-02T14:09:49.701Z</time></trkpt><trkpt lat="40.8309301" lon="16.0256686"><ele>594.0</ele><time>2026-05-02T14:09:50.703Z</time></trkpt><trkpt lat="40.8309319" lon="16.0255463"><ele>595.0</ele><time>2026-05-02T14:09:51.702Z</time></trkpt><trkpt lat="40.8309389" lon="16.0254181"><ele>596.0</ele><time>2026-05-02T14:09:52.702Z</time></trkpt><trkpt lat="40.8309435" lon="16.0252847"><ele>597.0</ele><time>2026-05-02T14:09:53.702Z</time></trkpt><trkpt lat="40.8309446" lon="16.0251484"><ele>598.0</ele><time>2026-05-02T14:09:54.702Z</time></trkpt><trkpt lat="40.8309437" lon="16.0250181"><ele>599.0</ele><time>2026-05-02T14:09:55.703Z</time></trkpt><trkpt lat="40.8309389" lon="16.0248924"><ele>599.0</ele><time>2026-05-02T14:09:56.702Z</time></trkpt><trkpt lat="40.8309342" lon="16.024765"><ele>599.0</ele><time>2026-05-02T14:09:57.701Z</time></trkpt><trkpt lat="40.830937" lon="16.0246387"><ele>599.0</ele><time>2026-05-02T14:09:58.701Z</time></trkpt><trkpt lat="40.8309529" lon="16.0245241"><ele>599.0</ele><time>2026-05-02T14:09:59.703Z</time></trkpt><trkpt lat="40.8309806" lon="16.0244155"><ele>599.0</ele><time>2026-05-02T14:10:00.701Z</time></trkpt><trkpt lat="40.8310118" lon="16.0243136"><ele>600.7142857142858</ele><time>2026-05-02T14:10:01.702Z</time></trkpt><trkpt lat="40.831044" lon="16.0242258"><ele>602.4285714285714</ele><time>2026-05-02T14:10:02.702Z</time></trkpt><trkpt lat="40.8310762" lon="16.0241449"><ele>604.1428571428571</ele><time>2026-05-02T14:10:03.702Z</time></trkpt><trkpt lat="40.8311124" lon="16.0240613"><ele>605.8571428571429</ele><time>2026-05-02T14:10:04.701Z</time></trkpt><trkpt lat="40.8311439" lon="16.0239703"><ele>607.5714285714286</ele><time>2026-05-02T14:10:05.702Z</time></trkpt><trkpt lat="40.8311564" lon="16.023883"><ele>609.2857142857143</ele><time>2026-05-02T14:10:06.701Z</time></trkpt><trkpt lat="40.8311534" lon="16.0237783"><ele>611.0</ele><time>2026-05-02T14:10:07.701Z</time></trkpt><trkpt lat="40.831135" lon="16.0236883"><ele>611.0000000000001</ele><time>2026-05-02T14:10:08.702Z</time></trkpt><trkpt lat="40.831109" lon="16.0236045"><ele>611.0</ele><time>2026-05-02T14:10:09.706Z</time></trkpt><trkpt lat="40.8310826" lon="16.0235159"><ele>611.0</ele><time>2026-05-02T14:10:10.703Z</time></trkpt><trkpt lat="40.8310582" lon="16.0234197"><ele>611.0</ele><time>2026-05-02T14:10:11.701Z</time></trkpt><trkpt lat="40.8310422" lon="16.0233239"><ele>611.0</ele><time>2026-05-02T14:10:12.701Z</time></trkpt><trkpt lat="40.8310366" lon="16.0232287"><ele>611.0000000000001</ele><time>2026-05-02T14:10:13.701Z</time></trkpt><trkpt lat="40.8310398" lon="16.0231291"><ele>611.0</ele><time>2026-05-02T14:10:14.702Z</time></trkpt><trkpt lat="40.8310528" lon="16.0230244"><ele>611.0</ele><time>2026-05-02T14:10:15.702Z</time></trkpt><trkpt lat="40.8310764" lon="16.0229143"><ele>611.0</ele><time>2026-05-02T14:10:16.701Z</time></trkpt><trkpt lat="40.831108" lon="16.0228021"><ele>611.0</ele><time>2026-05-02T14:10:17.702Z</time></trkpt><trkpt lat="40.8311481" lon="16.0226901"><ele>611.0</ele><time>2026-05-02T14:10:18.703Z</time></trkpt><trkpt lat="40.8311947" lon="16.0225824"><ele>611.0</ele><time>2026-05-02T14:10:19.703Z</time></trkpt><trkpt lat="40.8312469" lon="16.0224807"><ele>611.0</ele><time>2026-05-02T14:10:20.702Z</time></trkpt><trkpt lat="40.8313011" lon="16.022381"><ele>611.0</ele><time>2026-05-02T14:10:21.702Z</time></trkpt><trkpt lat="40.8313545" lon="16.0222844"><ele>611.0</ele><time>2026-05-02T14:10:22.703Z</time></trkpt><trkpt lat="40.831408" lon="16.0221882"><ele>611.0</ele><time>2026-05-02T14:10:23.702Z</time></trkpt><trkpt lat="40.8314597" lon="16.0221"><ele>611.0</ele><time>2026-05-02T14:10:24.701Z</time></trkpt><trkpt lat="40.8315045" lon="16.022025"><ele>611.0</ele><time>2026-05-02T14:10:25.703Z</time></trkpt><trkpt lat="40.8315467" lon="16.02196"><ele>611.0</ele><time>2026-05-02T14:10:26.702Z</time></trkpt><trkpt lat="40.83159" lon="16.02189"><ele>611.0</ele><time>2026-05-02T14:10:27.701Z</time></trkpt><trkpt lat="40.8316317" lon="16.0218183"><ele>611.0</ele><time>2026-05-02T14:10:28.702Z</time></trkpt><trkpt lat="40.83167" lon="16.0217467"><ele>611.0</ele><time>2026-05-02T14:10:29.702Z</time></trkpt><trkpt lat="40.83174" lon="16.0216133"><ele>611.0</ele><time>2026-05-02T14:10:31.703Z</time></trkpt><trkpt lat="40.8317817" lon="16.0215367"><ele>611.0</ele><time>2026-05-02T14:10:32.703Z</time></trkpt><trkpt lat="40.83183" lon="16.0214483"><ele>611.8333333333333</ele><time>2026-05-02T14:10:33.702Z</time></trkpt><trkpt lat="40.831875" lon="16.02136"><ele>612.6666666666666</ele><time>2026-05-02T14:10:34.705Z</time></trkpt><trkpt lat="40.8319183" lon="16.021275"><ele>613.5</ele><time>2026-05-02T14:10:35.701Z</time></trkpt><trkpt lat="40.8319567" lon="16.0211967"><ele>614.3333333333334</ele><time>2026-05-02T14:10:36.702Z</time></trkpt><trkpt lat="40.83202" lon="16.02106"><ele>615.1666666666667</ele><time>2026-05-02T14:10:38.702Z</time></trkpt><trkpt lat="40.832055" lon="16.0209867"><ele>616.0</ele><time>2026-05-02T14:10:39.701Z</time></trkpt><trkpt lat="40.8320933" lon="16.0209033"><ele>615.0</ele><time>2026-05-02T14:10:40.702Z</time></trkpt><trkpt lat="40.83214" lon="16.0208017"><ele>614.0</ele><time>2026-05-02T14:10:41.701Z</time></trkpt><trkpt lat="40.8322" lon="16.0206683"><ele>613.0</ele><time>2026-05-02T14:10:42.701Z</time></trkpt><trkpt lat="40.83228" lon="16.0204967"><ele>612.0</ele><time>2026-05-02T14:10:43.702Z</time></trkpt><trkpt lat="40.83237" lon="16.020305"><ele>612.0</ele><time>2026-05-02T14:10:44.703Z</time></trkpt><trkpt lat="40.8324667" lon="16.0201067"><ele>612.0</ele><time>2026-05-02T14:10:45.701Z</time></trkpt><trkpt lat="40.8325717" lon="16.0199"><ele>612.0</ele><time>2026-05-02T14:10:46.703Z</time></trkpt><trkpt lat="40.8326917" lon="16.0196883"><ele>612.3333333333334</ele><time>2026-05-02T14:10:47.701Z</time></trkpt><trkpt lat="40.8328167" lon="16.01948"><ele>612.6666666666667</ele><time>2026-05-02T14:10:48.702Z</time></trkpt><trkpt lat="40.8329383" lon="16.0192883"><ele>613.0</ele><time>2026-05-02T14:10:49.702Z</time></trkpt><trkpt lat="40.8330483" lon="16.01912"><ele>612.0</ele><time>2026-05-02T14:10:50.704Z</time></trkpt><trkpt lat="40.8331433" lon="16.0189833"><ele>611.0</ele><time>2026-05-02T14:10:51.703Z</time></trkpt><trkpt lat="40.833225" lon="16.0188633"><ele>610.0</ele><time>2026-05-02T14:10:52.703Z</time></trkpt><trkpt lat="40.833295" lon="16.0187467"><ele>609.0</ele><time>2026-05-02T14:10:53.704Z</time></trkpt><trkpt lat="40.833355" lon="16.018615"><ele>609.0</ele><time>2026-05-02T14:10:54.706Z</time></trkpt><trkpt lat="40.833405" lon="16.01846"><ele>609.0</ele><time>2026-05-02T14:10:55.702Z</time></trkpt><trkpt lat="40.8334467" lon="16.0182683"><ele>609.0</ele><time>2026-05-02T14:10:56.703Z</time></trkpt><trkpt lat="40.8334817" lon="16.0180567"><ele>609.0</ele><time>2026-05-02T14:10:57.702Z</time></trkpt><trkpt lat="40.8335017" lon="16.01785"><ele>609.6666666666666</ele><time>2026-05-02T14:10:58.701Z</time></trkpt><trkpt lat="40.8335083" lon="16.01765"><ele>610.3333333333333</ele><time>2026-05-02T14:10:59.703Z</time></trkpt><trkpt lat="40.833505" lon="16.0174517"><ele>611.0</ele><time>2026-05-02T14:11:00.702Z</time></trkpt><trkpt lat="40.8334977" lon="16.0172562"><ele>611.4</ele><time>2026-05-02T14:11:01.702Z</time></trkpt><trkpt lat="40.8334986" lon="16.0170985"><ele>611.8</ele><time>2026-05-02T14:11:02.702Z</time></trkpt><trkpt lat="40.8335125" lon="16.0169725"><ele>612.1999999999999</ele><time>2026-05-02T14:11:03.702Z</time></trkpt><trkpt lat="40.8335277" lon="16.0168697"><ele>612.6</ele><time>2026-05-02T14:11:04.703Z</time></trkpt><trkpt lat="40.8335445" lon="16.0167148"><ele>613.0</ele><time>2026-05-02T14:11:06.702Z</time></trkpt><trkpt lat="40.833556" lon="16.0166292"><ele>613.3333333333334</ele><time>2026-05-02T14:11:07.703Z</time></trkpt><trkpt lat="40.8335657" lon="16.0165375"><ele>613.6666666666667</ele><time>2026-05-02T14:11:08.701Z</time></trkpt><trkpt lat="40.8335766" lon="16.016427"><ele>614.0</ele><time>2026-05-02T14:11:09.702Z</time></trkpt><trkpt lat="40.833578" lon="16.0163143"><ele>614.3333333333334</ele><time>2026-05-02T14:11:10.701Z</time></trkpt><trkpt lat="40.8335707" lon="16.0161954"><ele>614.6666666666666</ele><time>2026-05-02T14:11:11.701Z</time></trkpt><trkpt lat="40.8335575" lon="16.0160674"><ele>615.0</ele><time>2026-05-02T14:11:12.701Z</time></trkpt><trkpt lat="40.8335458" lon="16.0159332"><ele>615.2</ele><time>2026-05-02T14:11:13.701Z</time></trkpt><trkpt lat="40.83355" lon="16.0157972"><ele>615.4</ele><time>2026-05-02T14:11:14.702Z</time></trkpt><trkpt lat="40.8335732" lon="16.0156658"><ele>615.6</ele><time>2026-05-02T14:11:15.702Z</time></trkpt><trkpt lat="40.8336142" lon="16.0155374"><ele>615.8</ele><time>2026-05-02T14:11:16.702Z</time></trkpt><trkpt lat="40.8336712" lon="16.0154121"><ele>616.0</ele><time>2026-05-02T14:11:17.703Z</time></trkpt><trkpt lat="40.8337379" lon="16.015287"><ele>616.0</ele><time>2026-05-02T14:11:18.703Z</time></trkpt><trkpt lat="40.8338086" lon="16.0151618"><ele>616.0</ele><time>2026-05-02T14:11:19.704Z</time></trkpt><trkpt lat="40.833877" lon="16.0150372"><ele>616.0</ele><time>2026-05-02T14:11:20.704Z</time></trkpt><trkpt lat="40.833938" lon="16.0149211"><ele>616.0</ele><time>2026-05-02T14:11:21.704Z</time></trkpt><trkpt lat="40.8340029" lon="16.0148141"><ele>616.0</ele><time>2026-05-02T14:11:22.702Z</time></trkpt><trkpt lat="40.834065" lon="16.0147141"><ele>615.4</ele><time>2026-05-02T14:11:23.703Z</time></trkpt><trkpt lat="40.8341238" lon="16.014618"><ele>614.8</ele><time>2026-05-02T14:11:24.703Z</time></trkpt><trkpt lat="40.8341833" lon="16.0145302"><ele>614.1999999999999</ele><time>2026-05-02T14:11:25.702Z</time></trkpt><trkpt lat="40.8342444" lon="16.0144467"><ele>613.6</ele><time>2026-05-02T14:11:26.703Z</time></trkpt><trkpt lat="40.8343122" lon="16.01437"><ele>613.0</ele><time>2026-05-02T14:11:27.702Z</time></trkpt><trkpt lat="40.8343933" lon="16.0143017"><ele>613.0</ele><time>2026-05-02T14:11:28.702Z</time></trkpt><trkpt lat="40.8344833" lon="16.0142383"><ele>613.0</ele><time>2026-05-02T14:11:29.702Z</time></trkpt><trkpt lat="40.834585" lon="16.01418"><ele>613.0</ele><time>2026-05-02T14:11:30.703Z</time></trkpt><trkpt lat="40.8347" lon="16.0141217"><ele>613.0</ele><time>2026-05-02T14:11:31.702Z</time></trkpt><trkpt lat="40.83482" lon="16.0140617"><ele>613.0</ele><time>2026-05-02T14:11:32.702Z</time></trkpt><trkpt lat="40.8349433" lon="16.0139933"><ele>613.0</ele><time>2026-05-02T14:11:33.703Z</time></trkpt><trkpt lat="40.8350667" lon="16.0139183"><ele>613.0</ele><time>2026-05-02T14:11:34.703Z</time></trkpt><trkpt lat="40.8351833" lon="16.0138383"><ele>613.0</ele><time>2026-05-02T14:11:35.703Z</time></trkpt><trkpt lat="40.8352933" lon="16.0137517"><ele>612.5</ele><time>2026-05-02T14:11:36.703Z</time></trkpt><trkpt lat="40.8354" lon="16.0136633"><ele>612.0</ele><time>2026-05-02T14:11:37.704Z</time></trkpt><trkpt lat="40.83551" lon="16.013585"><ele>611.5</ele><time>2026-05-02T14:11:38.704Z</time></trkpt><trkpt lat="40.835625" lon="16.01352"><ele>611.0</ele><time>2026-05-02T14:11:39.704Z</time></trkpt><trkpt lat="40.8357483" lon="16.0134733"><ele>611.0</ele><time>2026-05-02T14:11:40.703Z</time></trkpt><trkpt lat="40.8358833" lon="16.0134483"><ele>611.0</ele><time>2026-05-02T14:11:41.703Z</time></trkpt><trkpt lat="40.836045" lon="16.0134433"><ele>611.0</ele><time>2026-05-02T14:11:42.702Z</time></trkpt><trkpt lat="40.83622" lon="16.0134417"><ele>611.3333333333333</ele><time>2026-05-02T14:11:43.701Z</time></trkpt><trkpt lat="40.8363767" lon="16.0134283"><ele>611.6666666666666</ele><time>2026-05-02T14:11:44.702Z</time></trkpt><trkpt lat="40.8365233" lon="16.0134017"><ele>612.0</ele><time>2026-05-02T14:11:45.701Z</time></trkpt><trkpt lat="40.8366717" lon="16.0133617"><ele>612.0</ele><time>2026-05-02T14:11:46.701Z</time></trkpt><trkpt lat="40.83683" lon="16.0133"><ele>612.0</ele><time>2026-05-02T14:11:47.703Z</time></trkpt><trkpt lat="40.83699" lon="16.0132333"><ele>612.0</ele><time>2026-05-02T14:11:48.701Z</time></trkpt><trkpt lat="40.83714" lon="16.0131717"><ele>612.0</ele><time>2026-05-02T14:11:49.702Z</time></trkpt><trkpt lat="40.8372817" lon="16.0131233"><ele>612.0</ele><time>2026-05-02T14:11:50.702Z</time></trkpt><trkpt lat="40.83741" lon="16.01308"><ele>612.0</ele><time>2026-05-02T14:11:51.702Z</time></trkpt><trkpt lat="40.837525" lon="16.01304"><ele>612.0</ele><time>2026-05-02T14:11:52.701Z</time></trkpt><trkpt lat="40.83762" lon="16.0130083"><ele>612.0</ele><time>2026-05-02T14:11:53.703Z</time></trkpt><trkpt lat="40.8377" lon="16.012985"><ele>612.0</ele><time>2026-05-02T14:11:54.703Z</time></trkpt><trkpt lat="40.8377883" lon="16.012925"><ele>612.0</ele><time>2026-05-02T14:11:56.701Z</time></trkpt><trkpt lat="40.8377717" lon="16.012805"><ele>612.0</ele><time>2026-05-02T14:11:59.701Z</time></trkpt><trkpt lat="40.83767" lon="16.0126617"><ele>612.0</ele><time>2026-05-02T14:12:01.702Z</time></trkpt><trkpt lat="40.837605" lon="16.01254"><ele>612.5</ele><time>2026-05-02T14:12:02.701Z</time></trkpt><trkpt lat="40.837535" lon="16.012385"><ele>613.0</ele><time>2026-05-02T14:12:03.702Z</time></trkpt><trkpt lat="40.8374683" lon="16.0122117"><ele>613.5</ele><time>2026-05-02T14:12:04.701Z</time></trkpt><trkpt lat="40.8374033" lon="16.0120383"><ele>614.0</ele><time>2026-05-02T14:12:05.701Z</time></trkpt><trkpt lat="40.837335" lon="16.0118633"><ele>614.0</ele><time>2026-05-02T14:12:06.701Z</time></trkpt><trkpt lat="40.8372633" lon="16.011695"><ele>614.0</ele><time>2026-05-02T14:12:07.701Z</time></trkpt><trkpt lat="40.8371933" lon="16.0115433"><ele>614.0</ele><time>2026-05-02T14:12:08.701Z</time></trkpt><trkpt lat="40.8371267" lon="16.0114183"><ele>614.0</ele><time>2026-05-02T14:12:09.701Z</time></trkpt><trkpt lat="40.837065" lon="16.0113183"><ele>613.6666666666666</ele><time>2026-05-02T14:12:10.701Z</time></trkpt><trkpt lat="40.8370033" lon="16.0112417"><ele>613.3333333333333</ele><time>2026-05-02T14:12:11.7Z</time></trkpt><trkpt lat="40.836945" lon="16.0111783"><ele>613.0</ele><time>2026-05-02T14:12:12.702Z</time></trkpt><trkpt lat="40.8368967" lon="16.0111117"><ele>612.6666666666666</ele><time>2026-05-02T14:12:13.701Z</time></trkpt><trkpt lat="40.8368583" lon="16.0110333"><ele>612.3333333333334</ele><time>2026-05-02T14:12:14.701Z</time></trkpt><trkpt lat="40.836825" lon="16.0109283"><ele>612.0</ele><time>2026-05-02T14:12:15.702Z</time></trkpt><trkpt lat="40.8367933" lon="16.0107967"><ele>612.0</ele><time>2026-05-02T14:12:16.7Z</time></trkpt><trkpt lat="40.836765" lon="16.0106417"><ele>612.0</ele><time>2026-05-02T14:12:17.701Z</time></trkpt><trkpt lat="40.836735" lon="16.01048"><ele>612.0</ele><time>2026-05-02T14:12:18.701Z</time></trkpt><trkpt lat="40.836695" lon="16.0103217"><ele>612.0</ele><time>2026-05-02T14:12:19.702Z</time></trkpt><trkpt lat="40.8366467" lon="16.0101683"><ele>612.0</ele><time>2026-05-02T14:12:20.704Z</time></trkpt><trkpt lat="40.8366" lon="16.0100017"><ele>612.0</ele><time>2026-05-02T14:12:21.702Z</time></trkpt><trkpt lat="40.8365533" lon="16.0098117"><ele>612.0</ele><time>2026-05-02T14:12:22.701Z</time></trkpt><trkpt lat="40.836505" lon="16.0096133"><ele>612.0</ele><time>2026-05-02T14:12:23.703Z</time></trkpt><trkpt lat="40.836455" lon="16.0094183"><ele>612.3333333333334</ele><time>2026-05-02T14:12:24.701Z</time></trkpt><trkpt lat="40.8364083" lon="16.009215"><ele>612.6666666666667</ele><time>2026-05-02T14:12:25.7Z</time></trkpt><trkpt lat="40.8363717" lon="16.0090033"><ele>613.0</ele><time>2026-05-02T14:12:26.702Z</time></trkpt><trkpt lat="40.836345" lon="16.0087983"><ele>613.3333333333334</ele><time>2026-05-02T14:12:27.701Z</time></trkpt><trkpt lat="40.8363183" lon="16.0085733"><ele>613.6666666666666</ele><time>2026-05-02T14:12:28.7Z</time></trkpt><trkpt lat="40.836305" lon="16.0083233"><ele>614.0</ele><time>2026-05-02T14:12:29.701Z</time></trkpt><trkpt lat="40.8363033" lon="16.008065"><ele>614.6666666666666</ele><time>2026-05-02T14:12:30.702Z</time></trkpt><trkpt lat="40.8363033" lon="16.0078"><ele>615.3333333333334</ele><time>2026-05-02T14:12:31.7Z</time></trkpt><trkpt lat="40.8363" lon="16.0075333"><ele>616.0</ele><time>2026-05-02T14:12:32.701Z</time></trkpt><trkpt lat="40.8362917" lon="16.0072833"><ele>616.3333333333334</ele><time>2026-05-02T14:12:33.702Z</time></trkpt><trkpt lat="40.8362767" lon="16.0070517"><ele>616.6666666666666</ele><time>2026-05-02T14:12:34.701Z</time></trkpt><trkpt lat="40.83626" lon="16.0068433"><ele>617.0</ele><time>2026-05-02T14:12:35.7Z</time></trkpt><trkpt lat="40.8362517" lon="16.0066517"><ele>617.0</ele><time>2026-05-02T14:12:36.703Z</time></trkpt><trkpt lat="40.8362583" lon="16.006475"><ele>617.0</ele><time>2026-05-02T14:12:37.701Z</time></trkpt><trkpt lat="40.836265" lon="16.00632"><ele>617.0</ele><time>2026-05-02T14:12:38.702Z</time></trkpt><trkpt lat="40.8362567" lon="16.0061767"><ele>617.0</ele><time>2026-05-02T14:12:39.702Z</time></trkpt><trkpt lat="40.8362317" lon="16.0060333"><ele>617.0</ele><time>2026-05-02T14:12:40.701Z</time></trkpt><trkpt lat="40.8361933" lon="16.0058933"><ele>617.0</ele><time>2026-05-02T14:12:41.702Z</time></trkpt><trkpt lat="40.8361483" lon="16.0057683"><ele>617.0</ele><time>2026-05-02T14:12:42.702Z</time></trkpt><trkpt lat="40.8361133" lon="16.005655"><ele>617.0</ele><time>2026-05-02T14:12:43.702Z</time></trkpt><trkpt lat="40.8360867" lon="16.005555"><ele>617.0</ele><time>2026-05-02T14:12:44.701Z</time></trkpt><trkpt lat="40.836065" lon="16.00547"><ele>616.6</ele><time>2026-05-02T14:12:45.702Z</time></trkpt><trkpt lat="40.8360183" lon="16.005335"><ele>616.2</ele><time>2026-05-02T14:12:47.702Z</time></trkpt><trkpt lat="40.8359483" lon="16.0052283"><ele>615.8</ele><time>2026-05-02T14:12:49.702Z</time></trkpt><trkpt lat="40.8358917" lon="16.005125"><ele>615.4</ele><time>2026-05-02T14:12:51.701Z</time></trkpt><trkpt lat="40.8358717" lon="16.00501"><ele>615.0</ele><time>2026-05-02T14:12:53.703Z</time></trkpt><trkpt lat="40.8358867" lon="16.0048467"><ele>612.3333333333334</ele><time>2026-05-02T14:12:55.701Z</time></trkpt><trkpt lat="40.835905" lon="16.004755"><ele>609.6666666666666</ele><time>2026-05-02T14:12:56.702Z</time></trkpt><trkpt lat="40.835925" lon="16.0046617"><ele>607.0</ele><time>2026-05-02T14:12:57.7Z</time></trkpt><trkpt lat="40.83594" lon="16.0045683"><ele>604.3333333333333</ele><time>2026-05-02T14:12:58.701Z</time></trkpt><trkpt lat="40.8359517" lon="16.0044683"><ele>601.6666666666666</ele><time>2026-05-02T14:12:59.702Z</time></trkpt><trkpt lat="40.83596" lon="16.00436"><ele>599.0</ele><time>2026-05-02T14:13:00.7Z</time></trkpt><trkpt lat="40.8359567" lon="16.0042583"><ele>598.8571428571429</ele><time>2026-05-02T14:13:01.7Z</time></trkpt><trkpt lat="40.835945" lon="16.0041583"><ele>598.7142857142857</ele><time>2026-05-02T14:13:02.703Z</time></trkpt><trkpt lat="40.8359267" lon="16.00406"><ele>598.5714285714286</ele><time>2026-05-02T14:13:03.701Z</time></trkpt><trkpt lat="40.8359067" lon="16.0039617"><ele>598.4285714285714</ele><time>2026-05-02T14:13:04.702Z</time></trkpt><trkpt lat="40.8358817" lon="16.0038667"><ele>598.2857142857143</ele><time>2026-05-02T14:13:05.7Z</time></trkpt><trkpt lat="40.8358567" lon="16.0037817"><ele>598.1428571428571</ele><time>2026-05-02T14:13:06.701Z</time></trkpt><trkpt lat="40.8358233" lon="16.0036983"><ele>598.0</ele><time>2026-05-02T14:13:07.701Z</time></trkpt><trkpt lat="40.8357817" lon="16.0036233"><ele>598.0</ele><time>2026-05-02T14:13:08.701Z</time></trkpt><trkpt lat="40.8357283" lon="16.0035467"><ele>598.0</ele><time>2026-05-02T14:13:09.701Z</time></trkpt><trkpt lat="40.8356717" lon="16.0034783"><ele>598.0</ele><time>2026-05-02T14:13:10.701Z</time></trkpt><trkpt lat="40.83561" lon="16.0034217"><ele>598.0</ele><time>2026-05-02T14:13:11.702Z</time></trkpt><trkpt lat="40.83555" lon="16.0033683"><ele>598.0</ele><time>2026-05-02T14:13:12.702Z</time></trkpt><trkpt lat="40.8354933" lon="16.00332"><ele>598.0</ele><time>2026-05-02T14:13:13.702Z</time></trkpt><trkpt lat="40.8353933" lon="16.0032233"><ele>598.8</ele><time>2026-05-02T14:13:15.705Z</time></trkpt><trkpt lat="40.835345" lon="16.0031667"><ele>599.5999999999999</ele><time>2026-05-02T14:13:16.701Z</time></trkpt><trkpt lat="40.8352583" lon="16.003075"><ele>600.4000000000001</ele><time>2026-05-02T14:13:18.701Z</time></trkpt><trkpt lat="40.83519" lon="16.00296"><ele>601.2</ele><time>2026-05-02T14:13:20.702Z</time></trkpt><trkpt lat="40.83516" lon="16.0028133"><ele>602.0</ele><time>2026-05-02T14:13:22.702Z</time></trkpt><trkpt lat="40.835155" lon="16.0027283"><ele>602.0</ele><time>2026-05-02T14:13:23.702Z</time></trkpt><trkpt lat="40.8351533" lon="16.002645"><ele>602.0</ele><time>2026-05-02T14:13:24.702Z</time></trkpt><trkpt lat="40.835115" lon="16.002525"><ele>602.0</ele><time>2026-05-02T14:13:26.702Z</time></trkpt><trkpt lat="40.83506" lon="16.0024717"><ele>602.0</ele><time>2026-05-02T14:13:27.7Z</time></trkpt><trkpt lat="40.8349983" lon="16.0024233"><ele>602.0</ele><time>2026-05-02T14:13:28.702Z</time></trkpt><trkpt lat="40.8349333" lon="16.002385"><ele>602.0</ele><time>2026-05-02T14:13:29.701Z</time></trkpt><trkpt lat="40.8348683" lon="16.0023417"><ele>602.0</ele><time>2026-05-02T14:13:30.701Z</time></trkpt><trkpt lat="40.8348033" lon="16.0022967"><ele>595.4</ele><time>2026-05-02T14:13:31.7Z</time></trkpt><trkpt lat="40.834745" lon="16.0022533"><ele>588.8000000000001</ele><time>2026-05-02T14:13:32.702Z</time></trkpt><trkpt lat="40.834635" lon="16.00219"><ele>582.2</ele><time>2026-05-02T14:13:34.705Z</time></trkpt><trkpt lat="40.83453" lon="16.0021083"><ele>575.6</ele><time>2026-05-02T14:13:36.7Z</time></trkpt><trkpt lat="40.8344733" lon="16.0020533"><ele>569.0</ele><time>2026-05-02T14:13:37.701Z</time></trkpt><trkpt lat="40.8344133" lon="16.0019967"><ele>569.0</ele><time>2026-05-02T14:13:38.702Z</time></trkpt><trkpt lat="40.834355" lon="16.0019383"><ele>569.0</ele><time>2026-05-02T14:13:39.7Z</time></trkpt><trkpt lat="40.8342967" lon="16.0018767"><ele>569.0</ele><time>2026-05-02T14:13:40.702Z</time></trkpt><trkpt lat="40.8342333" lon="16.0018167"><ele>569.0</ele><time>2026-05-02T14:13:41.7Z</time></trkpt><trkpt lat="40.83417" lon="16.0017533"><ele>569.0</ele><time>2026-05-02T14:13:42.7Z</time></trkpt><trkpt lat="40.83411" lon="16.0016867"><ele>569.0</ele><time>2026-05-02T14:13:43.701Z</time></trkpt><trkpt lat="40.8340583" lon="16.0016183"><ele>563.1666666666666</ele><time>2026-05-02T14:13:44.702Z</time></trkpt><trkpt lat="40.8340133" lon="16.0015483"><ele>557.3333333333333</ele><time>2026-05-02T14:13:45.7Z</time></trkpt><trkpt lat="40.83398" lon="16.0014733"><ele>551.5</ele><time>2026-05-02T14:13:46.701Z</time></trkpt><trkpt lat="40.83396" lon="16.0013933"><ele>545.6666666666666</ele><time>2026-05-02T14:13:47.7Z</time></trkpt><trkpt lat="40.8339717" lon="16.0012417"><ele>539.8333333333334</ele><time>2026-05-02T14:13:49.702Z</time></trkpt><trkpt lat="40.834" lon="16.0011633"><ele>534.0</ele><time>2026-05-02T14:13:50.702Z</time></trkpt><trkpt lat="40.8340417" lon="16.0010733"><ele>534.0</ele><time>2026-05-02T14:13:51.701Z</time></trkpt><trkpt lat="40.83409" lon="16.0009817"><ele>534.0</ele><time>2026-05-02T14:13:52.701Z</time></trkpt><trkpt lat="40.8341417" lon="16.000895"><ele>534.0</ele><time>2026-05-02T14:13:53.701Z</time></trkpt><trkpt lat="40.83419" lon="16.0008017"><ele>534.0</ele><time>2026-05-02T14:13:54.701Z</time></trkpt><trkpt lat="40.8342433" lon="16.0007033"><ele>534.0</ele><time>2026-05-02T14:13:55.7Z</time></trkpt><trkpt lat="40.834305" lon="16.0006033"><ele>534.0</ele><time>2026-05-02T14:13:56.701Z</time></trkpt><trkpt lat="40.8343667" lon="16.0005117"><ele>531.8333333333334</ele><time>2026-05-02T14:13:57.7Z</time></trkpt><trkpt lat="40.8344217" lon="16.0004333"><ele>529.6666666666666</ele><time>2026-05-02T14:13:58.701Z</time></trkpt><trkpt lat="40.834475" lon="16.0003583"><ele>527.5</ele><time>2026-05-02T14:13:59.701Z</time></trkpt><trkpt lat="40.8345267" lon="16.000285"><ele>525.3333333333333</ele><time>2026-05-02T14:14:00.7Z</time></trkpt><trkpt lat="40.8345783" lon="16.000215"><ele>523.1666666666666</ele><time>2026-05-02T14:14:01.701Z</time></trkpt><trkpt lat="40.8346267" lon="16.0001467"><ele>521.0</ele><time>2026-05-02T14:14:02.702Z</time></trkpt><trkpt lat="40.834675" lon="16.000075"><ele>521.0</ele><time>2026-05-02T14:14:03.702Z</time></trkpt><trkpt lat="40.8347233" lon="16.0000067"><ele>521.0</ele><time>2026-05-02T14:14:04.701Z</time></trkpt><trkpt lat="40.8347767" lon="15.999935"><ele>521.0</ele><time>2026-05-02T14:14:05.702Z</time></trkpt><trkpt lat="40.8348317" lon="15.9998667"><ele>521.0</ele><time>2026-05-02T14:14:06.702Z</time></trkpt><trkpt lat="40.83488" lon="15.9998083"><ele>521.0</ele><time>2026-05-02T14:14:07.703Z</time></trkpt><trkpt lat="40.8349383" lon="15.9997233"><ele>521.0</ele><time>2026-05-02T14:14:09.703Z</time></trkpt><trkpt lat="40.8349183" lon="15.999605"><ele>521.0</ele><time>2026-05-02T14:14:12.701Z</time></trkpt><trkpt lat="40.8348633" lon="15.9995483"><ele>521.0</ele><time>2026-05-02T14:14:45.7Z</time></trkpt><trkpt lat="40.834785" lon="15.9994717"><ele>521.0</ele><time>2026-05-02T14:14:48.7Z</time></trkpt><trkpt lat="40.8346767" lon="15.9993717"><ele>521.0</ele><time>2026-05-02T14:14:50.702Z</time></trkpt><trkpt lat="40.8346067" lon="15.9993133"><ele>521.0</ele><time>2026-05-02T14:14:51.702Z</time></trkpt><trkpt lat="40.8345283" lon="15.99924"><ele>517.4</ele><time>2026-05-02T14:14:52.702Z</time></trkpt><trkpt lat="40.8344533" lon="15.9991517"><ele>513.8</ele><time>2026-05-02T14:14:53.702Z</time></trkpt><trkpt lat="40.8343833" lon="15.9990567"><ele>510.19999999999993</ele><time>2026-05-02T14:14:54.701Z</time></trkpt><trkpt lat="40.8342983" lon="15.9989583"><ele>506.59999999999997</ele><time>2026-05-02T14:14:55.701Z</time></trkpt><trkpt lat="40.8342167" lon="15.9988733"><ele>503.0</ele><time>2026-05-02T14:14:56.703Z</time></trkpt><trkpt lat="40.83415" lon="15.998805"><ele>502.59999999999997</ele><time>2026-05-02T14:14:57.702Z</time></trkpt><trkpt lat="40.8340933" lon="15.9987533"><ele>502.19999999999993</ele><time>2026-05-02T14:14:58.701Z</time></trkpt><trkpt lat="40.8339867" lon="15.9986883"><ele>501.8</ele><time>2026-05-02T14:15:00.701Z</time></trkpt><trkpt lat="40.8339233" lon="15.9986783"><ele>501.4</ele><time>2026-05-02T14:15:01.702Z</time></trkpt><trkpt lat="40.8338067" lon="15.998705"><ele>501.0</ele><time>2026-05-02T14:15:03.702Z</time></trkpt><trkpt lat="40.8337064" lon="15.9988154"><ele>501.0</ele><time>2026-05-02T14:15:05.702Z</time></trkpt><trkpt lat="40.8336545" lon="15.9989031"><ele>501.0</ele><time>2026-05-02T14:15:06.702Z</time></trkpt><trkpt lat="40.8335961" lon="15.9990048"><ele>501.0</ele><time>2026-05-02T14:15:07.702Z</time></trkpt><trkpt lat="40.8335352" lon="15.9991251"><ele>501.0</ele><time>2026-05-02T14:15:08.701Z</time></trkpt><trkpt lat="40.8334703" lon="15.9992526"><ele>501.0</ele><time>2026-05-02T14:15:09.702Z</time></trkpt><trkpt lat="40.8334008" lon="15.9993796"><ele>502.25</ele><time>2026-05-02T14:15:10.701Z</time></trkpt><trkpt lat="40.833332" lon="15.9995096"><ele>503.5</ele><time>2026-05-02T14:15:11.701Z</time></trkpt><trkpt lat="40.8332572" lon="15.9996415"><ele>504.75</ele><time>2026-05-02T14:15:12.701Z</time></trkpt><trkpt lat="40.8331782" lon="15.9997761"><ele>506.0</ele><time>2026-05-02T14:15:13.702Z</time></trkpt><trkpt lat="40.8330946" lon="15.9999141"><ele>506.0</ele><time>2026-05-02T14:15:14.702Z</time></trkpt><trkpt lat="40.8330062" lon="16.0000498"><ele>506.0</ele><time>2026-05-02T14:15:15.7Z</time></trkpt><trkpt lat="40.8329188" lon="16.0001865"><ele>506.0</ele><time>2026-05-02T14:15:16.701Z</time></trkpt><trkpt lat="40.8328355" lon="16.000323"><ele>506.0</ele><time>2026-05-02T14:15:17.701Z</time></trkpt><trkpt lat="40.8327633" lon="16.0004456"><ele>506.0</ele><time>2026-05-02T14:15:18.701Z</time></trkpt><trkpt lat="40.8326958" lon="16.0005576"><ele>506.0</ele><time>2026-05-02T14:15:19.703Z</time></trkpt><trkpt lat="40.8326311" lon="16.0006641"><ele>506.0</ele><time>2026-05-02T14:15:20.701Z</time></trkpt><trkpt lat="40.832571" lon="16.0007686"><ele>506.0</ele><time>2026-05-02T14:15:21.701Z</time></trkpt><trkpt lat="40.8325157" lon="16.0008697"><ele>506.0</ele><time>2026-05-02T14:15:22.706Z</time></trkpt><trkpt lat="40.832468" lon="16.0009551"><ele>504.4</ele><time>2026-05-02T14:15:23.702Z</time></trkpt><trkpt lat="40.8323981" lon="16.0010627"><ele>502.8</ele><time>2026-05-02T14:15:25.701Z</time></trkpt><trkpt lat="40.8323032" lon="16.0010389"><ele>501.19999999999993</ele><time>2026-05-02T14:15:28.701Z</time></trkpt><trkpt lat="40.8322253" lon="16.0009288"><ele>499.59999999999997</ele><time>2026-05-02T14:15:30.7Z</time></trkpt><trkpt lat="40.8321759" lon="16.000856"><ele>498.0</ele><time>2026-05-02T14:15:31.702Z</time></trkpt><trkpt lat="40.8321172" lon="16.0007825"><ele>497.0</ele><time>2026-05-02T14:15:32.702Z</time></trkpt><trkpt lat="40.8320561" lon="16.0007082"><ele>495.99999999999994</ele><time>2026-05-02T14:15:33.701Z</time></trkpt><trkpt lat="40.8319934" lon="16.0006318"><ele>494.99999999999994</ele><time>2026-05-02T14:15:34.702Z</time></trkpt><trkpt lat="40.8319226" lon="16.0005563"><ele>494.0</ele><time>2026-05-02T14:15:35.702Z</time></trkpt><trkpt lat="40.8318461" lon="16.0004818"><ele>493.0</ele><time>2026-05-02T14:15:36.701Z</time></trkpt><trkpt lat="40.8317633" lon="16.0003983"><ele>490.2</ele><time>2026-05-02T14:15:37.703Z</time></trkpt><trkpt lat="40.8316767" lon="16.00031"><ele>487.4</ele><time>2026-05-02T14:15:38.703Z</time></trkpt><trkpt lat="40.831585" lon="16.0002217"><ele>484.59999999999997</ele><time>2026-05-02T14:15:39.702Z</time></trkpt><trkpt lat="40.8314983" lon="16.000135"><ele>481.79999999999995</ele><time>2026-05-02T14:15:40.702Z</time></trkpt><trkpt lat="40.8314183" lon="16.0000533"><ele>479.0</ele><time>2026-05-02T14:15:41.701Z</time></trkpt><trkpt lat="40.831345" lon="15.9999767"><ele>478.99999999999994</ele><time>2026-05-02T14:15:42.702Z</time></trkpt><trkpt lat="40.8312717" lon="15.999905"><ele>479.0</ele><time>2026-05-02T14:15:43.7Z</time></trkpt><trkpt lat="40.8311967" lon="15.999835"><ele>479.0</ele><time>2026-05-02T14:15:44.701Z</time></trkpt><trkpt lat="40.8311233" lon="15.9997733"><ele>479.0</ele><time>2026-05-02T14:15:45.702Z</time></trkpt><trkpt lat="40.8310483" lon="15.9997167"><ele>478.99999999999994</ele><time>2026-05-02T14:15:46.701Z</time></trkpt><trkpt lat="40.830975" lon="15.9996567"><ele>479.0</ele><time>2026-05-02T14:15:47.702Z</time></trkpt><trkpt lat="40.8308983" lon="15.999595"><ele>475.79999999999995</ele><time>2026-05-02T14:15:48.701Z</time></trkpt><trkpt lat="40.8308217" lon="15.9995283"><ele>472.59999999999997</ele><time>2026-05-02T14:15:49.705Z</time></trkpt><trkpt lat="40.8307417" lon="15.999455"><ele>469.4</ele><time>2026-05-02T14:15:50.701Z</time></trkpt><trkpt lat="40.8306617" lon="15.9993733"><ele>466.2</ele><time>2026-05-02T14:15:51.702Z</time></trkpt><trkpt lat="40.8305783" lon="15.9992767"><ele>463.0</ele><time>2026-05-02T14:15:52.701Z</time></trkpt><trkpt lat="40.83049" lon="15.999175"><ele>461.5</ele><time>2026-05-02T14:15:53.702Z</time></trkpt><trkpt lat="40.8304017" lon="15.9990783"><ele>460.0</ele><time>2026-05-02T14:15:54.701Z</time></trkpt><trkpt lat="40.830315" lon="15.9989833"><ele>458.5</ele><time>2026-05-02T14:15:55.702Z</time></trkpt><trkpt lat="40.8302267" lon="15.99889"><ele>457.0</ele><time>2026-05-02T14:15:56.701Z</time></trkpt><trkpt lat="40.8301367" lon="15.9987933"><ele>453.25</ele><time>2026-05-02T14:15:57.702Z</time></trkpt><trkpt lat="40.8300483" lon="15.998695"><ele>449.5</ele><time>2026-05-02T14:15:58.702Z</time></trkpt><trkpt lat="40.82996" lon="15.9985983"><ele>445.75</ele><time>2026-05-02T14:15:59.701Z</time></trkpt><trkpt lat="40.829875" lon="15.9985"><ele>442.0</ele><time>2026-05-02T14:16:00.702Z</time></trkpt><trkpt lat="40.8297917" lon="15.9984083"><ele>441.8</ele><time>2026-05-02T14:16:01.702Z</time></trkpt><trkpt lat="40.8297117" lon="15.998325"><ele>441.6</ele><time>2026-05-02T14:16:02.701Z</time></trkpt><trkpt lat="40.8296367" lon="15.99825"><ele>441.40000000000003</ele><time>2026-05-02T14:16:03.702Z</time></trkpt><trkpt lat="40.8295617" lon="15.9981817"><ele>441.20000000000005</ele><time>2026-05-02T14:16:04.701Z</time></trkpt><trkpt lat="40.8294717" lon="15.9981183"><ele>441.0</ele><time>2026-05-02T14:16:05.701Z</time></trkpt><trkpt lat="40.8293667" lon="15.99806"><ele>438.0</ele><time>2026-05-02T14:16:06.7Z</time></trkpt><trkpt lat="40.8292617" lon="15.9980083"><ele>435.0</ele><time>2026-05-02T14:16:07.701Z</time></trkpt><trkpt lat="40.8291633" lon="15.9979633"><ele>432.0</ele><time>2026-05-02T14:16:08.701Z</time></trkpt><trkpt lat="40.8290717" lon="15.997915"><ele>429.0</ele><time>2026-05-02T14:16:09.701Z</time></trkpt><trkpt lat="40.82899" lon="15.9978567"><ele>426.0</ele><time>2026-05-02T14:16:10.701Z</time></trkpt><trkpt lat="40.82891" lon="15.9977867"><ele>426.0</ele><time>2026-05-02T14:16:11.701Z</time></trkpt><trkpt lat="40.8288317" lon="15.9977117"><ele>426.0</ele><time>2026-05-02T14:16:12.701Z</time></trkpt><trkpt lat="40.82876" lon="15.997635"><ele>426.0</ele><time>2026-05-02T14:16:13.702Z</time></trkpt><trkpt lat="40.8287" lon="15.99756"><ele>426.0</ele><time>2026-05-02T14:16:14.701Z</time></trkpt><trkpt lat="40.8286633" lon="15.997485"><ele>426.0</ele><time>2026-05-02T14:16:15.7Z</time></trkpt><trkpt lat="40.8286383" lon="15.997355"><ele>426.0</ele><time>2026-05-02T14:16:17.7Z</time></trkpt><trkpt lat="40.8286583" lon="15.9972183"><ele>426.6</ele><time>2026-05-02T14:16:19.701Z</time></trkpt><trkpt lat="40.8287067" lon="15.997075"><ele>427.20000000000005</ele><time>2026-05-02T14:16:21.701Z</time></trkpt><trkpt lat="40.8287417" lon="15.9969383"><ele>427.79999999999995</ele><time>2026-05-02T14:16:23.703Z</time></trkpt><trkpt lat="40.8287217" lon="15.9968433"><ele>428.4</ele><time>2026-05-02T14:16:27.702Z</time></trkpt><trkpt lat="40.8286833" lon="15.9967333"><ele>429.0</ele><time>2026-05-02T14:17:07.702Z</time></trkpt><trkpt lat="40.828625" lon="15.9966733"><ele>428.14285714285717</ele><time>2026-05-02T14:17:09.702Z</time></trkpt><trkpt lat="40.828565" lon="15.9966033"><ele>427.28571428571433</ele><time>2026-05-02T14:17:11.7Z</time></trkpt><trkpt lat="40.8285083" lon="15.9965433"><ele>426.42857142857144</ele><time>2026-05-02T14:17:13.702Z</time></trkpt><trkpt lat="40.8284517" lon="15.9964917"><ele>425.57142857142856</ele><time>2026-05-02T14:17:15.7Z</time></trkpt><trkpt lat="40.8283967" lon="15.996445"><ele>424.7142857142857</ele><time>2026-05-02T14:17:17.703Z</time></trkpt><trkpt lat="40.8283383" lon="15.996395"><ele>423.85714285714283</ele><time>2026-05-02T14:17:19.702Z</time></trkpt><trkpt lat="40.8282817" lon="15.9963583"><ele>423.0</ele><time>2026-05-02T14:17:21.702Z</time></trkpt><trkpt lat="40.8282133" lon="15.9963183"><ele>420.4285714285714</ele><time>2026-05-02T14:17:23.703Z</time></trkpt><trkpt lat="40.828155" lon="15.996285"><ele>417.8571428571429</ele><time>2026-05-02T14:17:25.701Z</time></trkpt><trkpt lat="40.8280933" lon="15.99625"><ele>415.2857142857143</ele><time>2026-05-02T14:17:27.701Z</time></trkpt><trkpt lat="40.82803" lon="15.99622"><ele>412.71428571428567</ele><time>2026-05-02T14:17:29.701Z</time></trkpt><trkpt lat="40.8279667" lon="15.9961733"><ele>410.1428571428571</ele><time>2026-05-02T14:17:31.701Z</time></trkpt><trkpt lat="40.8279083" lon="15.9961283"><ele>407.57142857142856</ele><time>2026-05-02T14:17:33.701Z</time></trkpt><trkpt lat="40.827855" lon="15.9960783"><ele>405.0</ele><time>2026-05-02T14:17:35.7Z</time></trkpt><trkpt lat="40.827795" lon="15.99601"><ele>405.0</ele><time>2026-05-02T14:17:37.702Z</time></trkpt><trkpt lat="40.8277317" lon="15.9959417"><ele>405.0</ele><time>2026-05-02T14:17:39.702Z</time></trkpt><trkpt lat="40.8276617" lon="15.9958617"><ele>405.0</ele><time>2026-05-02T14:17:41.702Z</time></trkpt><trkpt lat="40.8275817" lon="15.995775"><ele>405.0</ele><time>2026-05-02T14:17:43.701Z</time></trkpt><trkpt lat="40.827535" lon="15.995695"><ele>405.0</ele><time>2026-05-02T14:17:45.7Z</time></trkpt><trkpt lat="40.827485" lon="15.9955867"><ele>398.8</ele><time>2026-05-02T14:17:47.701Z</time></trkpt><trkpt lat="40.8274033" lon="15.9954917"><ele>392.6</ele><time>2026-05-02T14:17:49.703Z</time></trkpt><trkpt lat="40.82735" lon="15.9954417"><ele>386.4</ele><time>2026-05-02T14:17:50.702Z</time></trkpt><trkpt lat="40.8273017" lon="15.9953883"><ele>380.2</ele><time>2026-05-02T14:17:51.704Z</time></trkpt><trkpt lat="40.8272183" lon="15.9952883"><ele>374.0</ele><time>2026-05-02T14:17:53.702Z</time></trkpt><trkpt lat="40.8271283" lon="15.9951883"><ele>374.0</ele><time>2026-05-02T14:17:55.701Z</time></trkpt><trkpt lat="40.8270417" lon="15.9951033"><ele>374.0</ele><time>2026-05-02T14:17:57.701Z</time></trkpt><trkpt lat="40.8269817" lon="15.9950333"><ele>374.0</ele><time>2026-05-02T14:20:08.703Z</time></trkpt><trkpt lat="40.8270583" lon="15.9951017"><ele>374.0</ele><time>2026-05-02T14:20:16.702Z</time></trkpt><trkpt lat="40.8271383" lon="15.9951783"><ele>374.0</ele><time>2026-05-02T14:20:18.701Z</time></trkpt><trkpt lat="40.8272133" lon="15.99526"><ele>374.0</ele><time>2026-05-02T14:20:20.703Z</time></trkpt><trkpt lat="40.8272833" lon="15.9953367"><ele>374.0</ele><time>2026-05-02T14:20:22.7Z</time></trkpt><trkpt lat="40.827345" lon="15.99541"><ele>374.0</ele><time>2026-05-02T14:20:24.703Z</time></trkpt><trkpt lat="40.827395" lon="15.9954783"><ele>374.0</ele><time>2026-05-02T14:20:26.703Z</time></trkpt><trkpt lat="40.8274383" lon="15.995545"><ele>374.0</ele><time>2026-05-02T14:20:28.701Z</time></trkpt><trkpt lat="40.827485" lon="15.9956183"><ele>374.0</ele><time>2026-05-02T14:20:30.702Z</time></trkpt><trkpt lat="40.8275267" lon="15.995695"><ele>374.0</ele><time>2026-05-02T14:20:32.702Z</time></trkpt><trkpt lat="40.827555" lon="15.99578"><ele>374.0</ele><time>2026-05-02T14:20:36.701Z</time></trkpt><trkpt lat="40.82752" lon="15.9956917"><ele>374.0</ele><time>2026-05-02T14:28:07.701Z</time></trkpt><trkpt lat="40.8274617" lon="15.9955983"><ele>374.0</ele><time>2026-05-02T14:28:10.702Z</time></trkpt><trkpt lat="40.8274" lon="15.9955"><ele>374.0</ele><time>2026-05-02T14:28:12.702Z</time></trkpt><trkpt lat="40.827305" lon="15.9953817"><ele>374.0</ele><time>2026-05-02T14:28:14.703Z</time></trkpt><trkpt lat="40.827245" lon="15.9953167"><ele>374.0</ele><time>2026-05-02T14:28:15.702Z</time></trkpt><trkpt lat="40.82718" lon="15.9952467"><ele>374.0</ele><time>2026-05-02T14:28:16.702Z</time></trkpt><trkpt lat="40.8271117" lon="15.9951667"><ele>374.0</ele><time>2026-05-02T14:28:17.703Z</time></trkpt><trkpt lat="40.8270367" lon="15.9950833"><ele>374.0</ele><time>2026-05-02T14:28:18.703Z</time></trkpt><trkpt lat="40.8269633" lon="15.99501"><ele>374.0</ele><time>2026-05-02T14:28:19.702Z</time></trkpt><trkpt lat="40.8269017" lon="15.994945"><ele>375.1666666666667</ele><time>2026-05-02T14:28:20.704Z</time></trkpt><trkpt lat="40.8268533" lon="15.99489"><ele>376.33333333333337</ele><time>2026-05-02T14:28:21.703Z</time></trkpt><trkpt lat="40.8267833" lon="15.994815"><ele>377.5</ele><time>2026-05-02T14:28:23.704Z</time></trkpt><trkpt lat="40.8267017" lon="15.9947333"><ele>378.6666666666667</ele><time>2026-05-02T14:28:25.703Z</time></trkpt><trkpt lat="40.8266467" lon="15.99467"><ele>379.8333333333333</ele><time>2026-05-02T14:28:26.703Z</time></trkpt><trkpt lat="40.8265733" lon="15.9945883"><ele>381.0</ele><time>2026-05-02T14:28:27.704Z</time></trkpt><trkpt lat="40.8264917" lon="15.9944967"><ele>382.20000000000005</ele><time>2026-05-02T14:28:28.703Z</time></trkpt><trkpt lat="40.8264133" lon="15.9944117"><ele>383.40000000000003</ele><time>2026-05-02T14:28:29.704Z</time></trkpt><trkpt lat="40.826335" lon="15.9943333"><ele>384.6</ele><time>2026-05-02T14:28:30.701Z</time></trkpt><trkpt lat="40.8262617" lon="15.9942567"><ele>385.8</ele><time>2026-05-02T14:28:31.701Z</time></trkpt><trkpt lat="40.826195" lon="15.99419"><ele>387.0</ele><time>2026-05-02T14:28:32.702Z</time></trkpt><trkpt lat="40.826135" lon="15.994125"><ele>387.5</ele><time>2026-05-02T14:28:33.703Z</time></trkpt><trkpt lat="40.8260733" lon="15.994065"><ele>388.0</ele><time>2026-05-02T14:28:34.703Z</time></trkpt><trkpt lat="40.826005" lon="15.9940017"><ele>388.5</ele><time>2026-05-02T14:28:35.702Z</time></trkpt><trkpt lat="40.8259333" lon="15.993935"><ele>389.0</ele><time>2026-05-02T14:28:36.702Z</time></trkpt><trkpt lat="40.825855" lon="15.99386"><ele>389.5</ele><time>2026-05-02T14:28:37.702Z</time></trkpt><trkpt lat="40.8257767" lon="15.9937767"><ele>390.0</ele><time>2026-05-02T14:28:38.703Z</time></trkpt><trkpt lat="40.8257017" lon="15.9936983"><ele>390.0</ele><time>2026-05-02T14:28:39.703Z</time></trkpt><trkpt lat="40.825635" lon="15.99363"><ele>390.0</ele><time>2026-05-02T14:28:40.702Z</time></trkpt><trkpt lat="40.82557" lon="15.99356"><ele>390.0</ele><time>2026-05-02T14:28:41.702Z</time></trkpt><trkpt lat="40.8255117" lon="15.993495"><ele>390.0</ele><time>2026-05-02T14:28:42.702Z</time></trkpt><trkpt lat="40.8254617" lon="15.9934383"><ele>390.0</ele><time>2026-05-02T14:28:43.702Z</time></trkpt><trkpt lat="40.82541" lon="15.9933833"><ele>390.0</ele><time>2026-05-02T14:28:44.704Z</time></trkpt><trkpt lat="40.8253533" lon="15.993335"><ele>390.0</ele><time>2026-05-02T14:28:45.703Z</time></trkpt><trkpt lat="40.8252983" lon="15.9932883"><ele>389.5</ele><time>2026-05-02T14:28:46.702Z</time></trkpt><trkpt lat="40.825245" lon="15.9932433"><ele>389.0</ele><time>2026-05-02T14:28:47.705Z</time></trkpt><trkpt lat="40.8251417" lon="15.9931483"><ele>388.5</ele><time>2026-05-02T14:28:49.703Z</time></trkpt><trkpt lat="40.8250883" lon="15.9930967"><ele>388.0</ele><time>2026-05-02T14:28:50.703Z</time></trkpt><trkpt lat="40.8250333" lon="15.9930383"><ele>387.5</ele><time>2026-05-02T14:28:51.703Z</time></trkpt><trkpt lat="40.82497" lon="15.9929733"><ele>387.0</ele><time>2026-05-02T14:28:52.704Z</time></trkpt><trkpt lat="40.824905" lon="15.9929067"><ele>387.0</ele><time>2026-05-02T14:28:53.704Z</time></trkpt><trkpt lat="40.8248383" lon="15.9928367"><ele>387.0</ele><time>2026-05-02T14:28:54.703Z</time></trkpt><trkpt lat="40.8247717" lon="15.992765"><ele>387.0</ele><time>2026-05-02T14:28:55.705Z</time></trkpt><trkpt lat="40.8247017" lon="15.99269"><ele>387.0</ele><time>2026-05-02T14:28:56.705Z</time></trkpt><trkpt lat="40.8246217" lon="15.99261"><ele>387.0</ele><time>2026-05-02T14:28:57.704Z</time></trkpt><trkpt lat="40.824535" lon="15.9925283"><ele>385.20000000000005</ele><time>2026-05-02T14:28:58.704Z</time></trkpt><trkpt lat="40.8244483" lon="15.9924433"><ele>383.4</ele><time>2026-05-02T14:28:59.702Z</time></trkpt><trkpt lat="40.824365" lon="15.99236"><ele>381.6</ele><time>2026-05-02T14:29:00.702Z</time></trkpt><trkpt lat="40.82428" lon="15.9922767"><ele>379.79999999999995</ele><time>2026-05-02T14:29:01.702Z</time></trkpt><trkpt lat="40.8241933" lon="15.9921883"><ele>378.0</ele><time>2026-05-02T14:29:02.703Z</time></trkpt><trkpt lat="40.8241167" lon="15.992095"><ele>376.3333333333333</ele><time>2026-05-02T14:29:03.703Z</time></trkpt><trkpt lat="40.8240467" lon="15.991995"><ele>374.6666666666667</ele><time>2026-05-02T14:29:04.702Z</time></trkpt><trkpt lat="40.8239917" lon="15.9919"><ele>373.0</ele><time>2026-05-02T14:29:05.702Z</time></trkpt><trkpt lat="40.8239433" lon="15.9918183"><ele>371.33333333333337</ele><time>2026-05-02T14:29:06.702Z</time></trkpt><trkpt lat="40.8238983" lon="15.991755"><ele>369.6666666666667</ele><time>2026-05-02T14:29:07.701Z</time></trkpt><trkpt lat="40.8238283" lon="15.9916683"><ele>368.0</ele><time>2026-05-02T14:29:09.701Z</time></trkpt><trkpt lat="40.8237783" lon="15.991615"><ele>367.79999999999995</ele><time>2026-05-02T14:29:11.701Z</time></trkpt><trkpt lat="40.823715" lon="15.9915533"><ele>367.6</ele><time>2026-05-02T14:29:13.701Z</time></trkpt><trkpt lat="40.82363" lon="15.9914833"><ele>367.4</ele><time>2026-05-02T14:29:15.702Z</time></trkpt><trkpt lat="40.8235283" lon="15.9913933"><ele>367.20000000000005</ele><time>2026-05-02T14:29:17.702Z</time></trkpt><trkpt lat="40.8234317" lon="15.9913"><ele>367.0</ele><time>2026-05-02T14:29:19.701Z</time></trkpt><trkpt lat="40.8233833" lon="15.991245"><ele>365.2857142857143</ele><time>2026-05-02T14:29:20.702Z</time></trkpt><trkpt lat="40.8233283" lon="15.9911833"><ele>363.5714285714286</ele><time>2026-05-02T14:29:21.703Z</time></trkpt><trkpt lat="40.8232717" lon="15.991125"><ele>361.8571428571429</ele><time>2026-05-02T14:29:22.702Z</time></trkpt><trkpt lat="40.823215" lon="15.99107"><ele>360.1428571428571</ele><time>2026-05-02T14:29:23.703Z</time></trkpt><trkpt lat="40.8231567" lon="15.991015"><ele>358.42857142857144</ele><time>2026-05-02T14:29:24.701Z</time></trkpt><trkpt lat="40.8230983" lon="15.9909633"><ele>356.7142857142857</ele><time>2026-05-02T14:29:25.702Z</time></trkpt><trkpt lat="40.823045" lon="15.99091"><ele>355.0</ele><time>2026-05-02T14:29:26.702Z</time></trkpt><trkpt lat="40.8229433" lon="15.9908167"><ele>354.66666666666663</ele><time>2026-05-02T14:29:28.702Z</time></trkpt><trkpt lat="40.822885" lon="15.9907633"><ele>354.3333333333333</ele><time>2026-05-02T14:29:29.7Z</time></trkpt><trkpt lat="40.8228167" lon="15.9907033"><ele>354.0</ele><time>2026-05-02T14:29:30.701Z</time></trkpt><trkpt lat="40.8227517" lon="15.99064"><ele>353.6666666666667</ele><time>2026-05-02T14:29:31.701Z</time></trkpt><trkpt lat="40.8226833" lon="15.9905767"><ele>353.33333333333337</ele><time>2026-05-02T14:29:32.702Z</time></trkpt><trkpt lat="40.8226133" lon="15.9905133"><ele>353.0</ele><time>2026-05-02T14:29:33.702Z</time></trkpt><trkpt lat="40.8225467" lon="15.99045"><ele>350.0</ele><time>2026-05-02T14:29:34.701Z</time></trkpt><trkpt lat="40.8224883" lon="15.9903967"><ele>347.0</ele><time>2026-05-02T14:29:35.704Z</time></trkpt><trkpt lat="40.8223933" lon="15.9903067"><ele>344.0</ele><time>2026-05-02T14:29:37.702Z</time></trkpt><trkpt lat="40.822305" lon="15.9902067"><ele>341.0</ele><time>2026-05-02T14:29:39.702Z</time></trkpt><trkpt lat="40.8222067" lon="15.990105"><ele>338.0</ele><time>2026-05-02T14:29:41.701Z</time></trkpt><trkpt lat="40.822115" lon="15.990015"><ele>338.5</ele><time>2026-05-02T14:29:43.702Z</time></trkpt><trkpt lat="40.8220167" lon="15.9899283"><ele>339.0</ele><time>2026-05-02T14:29:45.702Z</time></trkpt><trkpt lat="40.8219267" lon="15.9898417"><ele>339.5</ele><time>2026-05-02T14:29:47.702Z</time></trkpt><trkpt lat="40.8218733" lon="15.9897917"><ele>340.0</ele><time>2026-05-02T14:29:48.703Z</time></trkpt><trkpt lat="40.821815" lon="15.9897383"><ele>340.5</ele><time>2026-05-02T14:29:49.702Z</time></trkpt><trkpt lat="40.8217617" lon="15.9896867"><ele>341.0</ele><time>2026-05-02T14:29:50.704Z</time></trkpt><trkpt lat="40.8216967" lon="15.9896"><ele>339.1666666666667</ele><time>2026-05-02T14:29:52.702Z</time></trkpt><trkpt lat="40.821655" lon="15.9895133"><ele>337.33333333333337</ele><time>2026-05-02T14:29:54.702Z</time></trkpt><trkpt lat="40.8215967" lon="15.9894567"><ele>335.5</ele><time>2026-05-02T14:29:56.702Z</time></trkpt><trkpt lat="40.8215233" lon="15.989425"><ele>333.6666666666667</ele><time>2026-05-02T14:29:58.702Z</time></trkpt><trkpt lat="40.8214517" lon="15.989385"><ele>331.8333333333333</ele><time>2026-05-02T14:30:01.704Z</time></trkpt><trkpt lat="40.8213767" lon="15.9893267"><ele>330.0</ele><time>2026-05-02T14:30:04.701Z</time></trkpt><trkpt lat="40.82131" lon="15.9892883"><ele>330.0</ele><time>2026-05-02T14:30:06.701Z</time></trkpt><trkpt lat="40.8212483" lon="15.98921"><ele>330.0</ele><time>2026-05-02T14:30:08.702Z</time></trkpt><trkpt lat="40.821185" lon="15.9891367"><ele>330.0</ele><time>2026-05-02T14:30:10.701Z</time></trkpt><trkpt lat="40.8211183" lon="15.989085"><ele>330.0</ele><time>2026-05-02T14:30:12.703Z</time></trkpt><trkpt lat="40.8210417" lon="15.9890383"><ele>330.0</ele><time>2026-05-02T14:30:14.702Z</time></trkpt><trkpt lat="40.82095" lon="15.9889617"><ele>330.0</ele><time>2026-05-02T14:30:16.701Z</time></trkpt><trkpt lat="40.8208617" lon="15.988855"><ele>331.1666666666667</ele><time>2026-05-02T14:30:18.7Z</time></trkpt><trkpt lat="40.82077" lon="15.9887467"><ele>332.3333333333333</ele><time>2026-05-02T14:30:20.701Z</time></trkpt><trkpt lat="40.8207183" lon="15.98869"><ele>333.5</ele><time>2026-05-02T14:30:21.702Z</time></trkpt><trkpt lat="40.8206617" lon="15.9886233"><ele>334.66666666666663</ele><time>2026-05-02T14:30:22.702Z</time></trkpt><trkpt lat="40.8206133" lon="15.9885517"><ele>335.8333333333333</ele><time>2026-05-02T14:30:23.702Z</time></trkpt><trkpt lat="40.8205633" lon="15.988485"><ele>337.0</ele><time>2026-05-02T14:30:24.702Z</time></trkpt><trkpt lat="40.820515" lon="15.98841"><ele>337.3333333333333</ele><time>2026-05-02T14:30:25.702Z</time></trkpt><trkpt lat="40.8204633" lon="15.9883283"><ele>337.66666666666663</ele><time>2026-05-02T14:30:26.702Z</time></trkpt><trkpt lat="40.8204033" lon="15.9882517"><ele>338.0</ele><time>2026-05-02T14:30:27.702Z</time></trkpt><trkpt lat="40.820335" lon="15.9881833"><ele>338.3333333333333</ele><time>2026-05-02T14:30:28.702Z</time></trkpt><trkpt lat="40.8202567" lon="15.9881233"><ele>338.6666666666667</ele><time>2026-05-02T14:30:29.702Z</time></trkpt><trkpt lat="40.82018" lon="15.9880617"><ele>339.0</ele><time>2026-05-02T14:30:30.702Z</time></trkpt><trkpt lat="40.8200967" lon="15.9879933"><ele>340.8333333333333</ele><time>2026-05-02T14:30:31.704Z</time></trkpt><trkpt lat="40.8200133" lon="15.9879167"><ele>342.6666666666667</ele><time>2026-05-02T14:30:32.704Z</time></trkpt><trkpt lat="40.8199367" lon="15.9878367"><ele>344.5</ele><time>2026-05-02T14:30:33.702Z</time></trkpt><trkpt lat="40.8198667" lon="15.9877633"><ele>346.33333333333337</ele><time>2026-05-02T14:30:34.701Z</time></trkpt><trkpt lat="40.8198067" lon="15.9876967"><ele>348.1666666666667</ele><time>2026-05-02T14:30:35.703Z</time></trkpt><trkpt lat="40.8197533" lon="15.9876383"><ele>350.0</ele><time>2026-05-02T14:30:36.701Z</time></trkpt><trkpt lat="40.8196717" lon="15.9875417"><ele>350.83333333333337</ele><time>2026-05-02T14:30:38.703Z</time></trkpt><trkpt lat="40.8195967" lon="15.9874683"><ele>351.6666666666667</ele><time>2026-05-02T14:30:40.701Z</time></trkpt><trkpt lat="40.81952" lon="15.987395"><ele>352.5</ele><time>2026-05-02T14:30:42.701Z</time></trkpt><trkpt lat="40.8194333" lon="15.987305"><ele>353.3333333333333</ele><time>2026-05-02T14:30:44.701Z</time></trkpt><trkpt lat="40.8193867" lon="15.9872483"><ele>354.16666666666663</ele><time>2026-05-02T14:30:45.701Z</time></trkpt><trkpt lat="40.8193283" lon="15.9871883"><ele>355.0</ele><time>2026-05-02T14:30:46.702Z</time></trkpt><trkpt lat="40.819265" lon="15.9871233"><ele>355.16666666666663</ele><time>2026-05-02T14:30:47.701Z</time></trkpt><trkpt lat="40.8191967" lon="15.987055"><ele>355.3333333333333</ele><time>2026-05-02T14:30:48.701Z</time></trkpt><trkpt lat="40.819125" lon="15.986985"><ele>355.5</ele><time>2026-05-02T14:30:49.701Z</time></trkpt><trkpt lat="40.8190583" lon="15.986915"><ele>355.6666666666667</ele><time>2026-05-02T14:30:50.702Z</time></trkpt><trkpt lat="40.81899" lon="15.9868467"><ele>355.83333333333337</ele><time>2026-05-02T14:30:51.7Z</time></trkpt><trkpt lat="40.8189317" lon="15.986785"><ele>356.0</ele><time>2026-05-02T14:30:52.701Z</time></trkpt><trkpt lat="40.8188783" lon="15.9867267"><ele>356.6</ele><time>2026-05-02T14:30:53.701Z</time></trkpt><trkpt lat="40.8187883" lon="15.9866317"><ele>357.20000000000005</ele><time>2026-05-02T14:30:55.701Z</time></trkpt><trkpt lat="40.818715" lon="15.9865567"><ele>357.79999999999995</ele><time>2026-05-02T14:30:57.702Z</time></trkpt><trkpt lat="40.81865" lon="15.9864883"><ele>358.4</ele><time>2026-05-02T14:30:59.702Z</time></trkpt><trkpt lat="40.81859" lon="15.9864217"><ele>359.0</ele><time>2026-05-02T14:31:01.702Z</time></trkpt><trkpt lat="40.8185267" lon="15.9863467"><ele>357.6</ele><time>2026-05-02T14:31:03.704Z</time></trkpt><trkpt lat="40.8184683" lon="15.98627"><ele>356.2</ele><time>2026-05-02T14:31:05.703Z</time></trkpt><trkpt lat="40.8184033" lon="15.9861533"><ele>354.8</ele><time>2026-05-02T14:31:07.705Z</time></trkpt><trkpt lat="40.81836" lon="15.986075"><ele>353.40000000000003</ele><time>2026-05-02T14:31:08.703Z</time></trkpt><trkpt lat="40.8182967" lon="15.9859833"><ele>352.0</ele><time>2026-05-02T14:31:09.701Z</time></trkpt><trkpt lat="40.8182133" lon="15.9858783"><ele>353.5</ele><time>2026-05-02T14:31:10.702Z</time></trkpt><trkpt lat="40.8181117" lon="15.9857733"><ele>355.0</ele><time>2026-05-02T14:31:11.703Z</time></trkpt><trkpt lat="40.8180017" lon="15.9856767"><ele>356.5</ele><time>2026-05-02T14:31:12.701Z</time></trkpt><trkpt lat="40.817895" lon="15.9855867"><ele>358.0</ele><time>2026-05-02T14:31:13.701Z</time></trkpt><trkpt lat="40.8178" lon="15.9855"><ele>358.0</ele><time>2026-05-02T14:31:14.703Z</time></trkpt><trkpt lat="40.817715" lon="15.98542"><ele>358.0</ele><time>2026-05-02T14:31:15.701Z</time></trkpt><trkpt lat="40.8176383" lon="15.9853467"><ele>358.0</ele><time>2026-05-02T14:31:16.7Z</time></trkpt><trkpt lat="40.8175683" lon="15.9852717"><ele>358.0</ele><time>2026-05-02T14:31:17.702Z</time></trkpt><trkpt lat="40.8175033" lon="15.9852033"><ele>358.0</ele><time>2026-05-02T14:31:18.702Z</time></trkpt><trkpt lat="40.8174367" lon="15.9851417"><ele>357.59999999999997</ele><time>2026-05-02T14:31:19.7Z</time></trkpt><trkpt lat="40.81736" lon="15.9850883"><ele>357.2</ele><time>2026-05-02T14:31:20.703Z</time></trkpt><trkpt lat="40.8172667" lon="15.985045"><ele>356.8</ele><time>2026-05-02T14:31:21.702Z</time></trkpt><trkpt lat="40.8171683" lon="15.9850117"><ele>356.4</ele><time>2026-05-02T14:31:22.701Z</time></trkpt><trkpt lat="40.8170817" lon="15.984985"><ele>356.0</ele><time>2026-05-02T14:31:23.701Z</time></trkpt><trkpt lat="40.8170033" lon="15.9849683"><ele>355.99999999999994</ele><time>2026-05-02T14:31:24.702Z</time></trkpt><trkpt lat="40.816935" lon="15.984955"><ele>356.0</ele><time>2026-05-02T14:31:25.702Z</time></trkpt><trkpt lat="40.8168433" lon="15.9849517"><ele>356.0</ele><time>2026-05-02T14:31:27.701Z</time></trkpt><trkpt lat="40.8167767" lon="15.9849633"><ele>356.0</ele><time>2026-05-02T14:31:30.701Z</time></trkpt><trkpt lat="40.8167117" lon="15.98497"><ele>356.0</ele><time>2026-05-02T14:31:38.702Z</time></trkpt><trkpt lat="40.81664" lon="15.984945"><ele>355.99999999999994</ele><time>2026-05-02T14:31:41.702Z</time></trkpt><trkpt lat="40.8165667" lon="15.9849033"><ele>356.0</ele><time>2026-05-02T14:31:44.702Z</time></trkpt><trkpt lat="40.816465" lon="15.984865"><ele>354.6666666666667</ele><time>2026-05-02T14:31:46.702Z</time></trkpt><trkpt lat="40.816345" lon="15.9848217"><ele>353.33333333333337</ele><time>2026-05-02T14:31:48.702Z</time></trkpt><trkpt lat="40.8162833" lon="15.984805"><ele>352.0</ele><time>2026-05-02T14:31:49.701Z</time></trkpt><trkpt lat="40.81622" lon="15.9847867"><ele>350.6666666666667</ele><time>2026-05-02T14:31:50.702Z</time></trkpt><trkpt lat="40.8161567" lon="15.9847717"><ele>349.3333333333333</ele><time>2026-05-02T14:31:51.701Z</time></trkpt><trkpt lat="40.8160467" lon="15.9847483"><ele>348.0</ele><time>2026-05-02T14:31:53.702Z</time></trkpt><trkpt lat="40.8159467" lon="15.9847267"><ele>348.0</ele><time>2026-05-02T14:31:55.703Z</time></trkpt><trkpt lat="40.81586" lon="15.984715"><ele>348.0</ele><time>2026-05-02T14:31:57.702Z</time></trkpt><trkpt lat="40.815925" lon="15.98473"><ele>348.0</ele><time>2026-05-02T14:34:04.703Z</time></trkpt><trkpt lat="40.816005" lon="15.98474"><ele>348.0</ele><time>2026-05-02T14:34:06.701Z</time></trkpt><trkpt lat="40.8161233" lon="15.9847617"><ele>348.0</ele><time>2026-05-02T14:34:08.703Z</time></trkpt><trkpt lat="40.8161933" lon="15.9847817"><ele>348.0</ele><time>2026-05-02T14:34:09.702Z</time></trkpt><trkpt lat="40.8162767" lon="15.9848067"><ele>348.0</ele><time>2026-05-02T14:34:10.702Z</time></trkpt><trkpt lat="40.816375" lon="15.9848417"><ele>348.0</ele><time>2026-05-02T14:34:11.704Z</time></trkpt><trkpt lat="40.8164783" lon="15.98488"><ele>348.0</ele><time>2026-05-02T14:34:12.703Z</time></trkpt><trkpt lat="40.8165683" lon="15.9849167"><ele>348.0</ele><time>2026-05-02T14:34:13.704Z</time></trkpt><trkpt lat="40.81663" lon="15.9849517"><ele>348.0</ele><time>2026-05-02T14:34:14.703Z</time></trkpt><trkpt lat="40.816725" lon="15.9849867"><ele>347.4</ele><time>2026-05-02T14:34:16.701Z</time></trkpt><trkpt lat="40.8168033" lon="15.9850567"><ele>346.79999999999995</ele><time>2026-05-02T14:35:08.702Z</time></trkpt><trkpt lat="40.8168183" lon="15.98522"><ele>346.2</ele><time>2026-05-02T14:35:15.701Z</time></trkpt><trkpt lat="40.8168333" lon="15.98533"><ele>345.6</ele><time>2026-05-02T14:35:16.702Z</time></trkpt><trkpt lat="40.8168567" lon="15.9854783"><ele>345.0</ele><time>2026-05-02T14:35:17.703Z</time></trkpt><trkpt lat="40.816885" lon="15.9856567"><ele>346.3333333333333</ele><time>2026-05-02T14:35:18.703Z</time></trkpt><trkpt lat="40.8169183" lon="15.985865"><ele>347.66666666666663</ele><time>2026-05-02T14:35:19.703Z</time></trkpt><trkpt lat="40.8169533" lon="15.9860867"><ele>349.0</ele><time>2026-05-02T14:35:20.703Z</time></trkpt><trkpt lat="40.8169833" lon="15.9862933"><ele>349.0</ele><time>2026-05-02T14:35:21.704Z</time></trkpt><trkpt lat="40.8170083" lon="15.9864833"><ele>349.0</ele><time>2026-05-02T14:35:22.707Z</time></trkpt><trkpt lat="40.817025" lon="15.9866783"><ele>349.0</ele><time>2026-05-02T14:35:23.704Z</time></trkpt><trkpt lat="40.8170317" lon="15.9868833"><ele>348.66666666666663</ele><time>2026-05-02T14:35:24.702Z</time></trkpt><trkpt lat="40.8170283" lon="15.987095"><ele>348.3333333333333</ele><time>2026-05-02T14:35:25.702Z</time></trkpt><trkpt lat="40.8170017" lon="15.9873383"><ele>348.0</ele><time>2026-05-02T14:35:26.702Z</time></trkpt><trkpt lat="40.8169667" lon="15.9875933"><ele>347.6666666666667</ele><time>2026-05-02T14:35:27.702Z</time></trkpt><trkpt lat="40.8169283" lon="15.9878283"><ele>347.33333333333337</ele><time>2026-05-02T14:35:28.703Z</time></trkpt><trkpt lat="40.8168967" lon="15.9880517"><ele>347.0</ele><time>2026-05-02T14:35:29.703Z</time></trkpt><trkpt lat="40.81687" lon="15.9882667"><ele>347.25</ele><time>2026-05-02T14:35:30.703Z</time></trkpt><trkpt lat="40.8168483" lon="15.988465"><ele>347.5</ele><time>2026-05-02T14:35:31.703Z</time></trkpt><trkpt lat="40.816825" lon="15.98865"><ele>347.75</ele><time>2026-05-02T14:35:32.702Z</time></trkpt><trkpt lat="40.8167967" lon="15.9888217"><ele>348.0</ele><time>2026-05-02T14:35:33.702Z</time></trkpt><trkpt lat="40.816755" lon="15.9889917"><ele>346.0</ele><time>2026-05-02T14:35:34.703Z</time></trkpt><trkpt lat="40.8166983" lon="15.9891633"><ele>344.0</ele><time>2026-05-02T14:35:35.702Z</time></trkpt><trkpt lat="40.8166283" lon="15.9893483"><ele>342.0</ele><time>2026-05-02T14:35:36.701Z</time></trkpt><trkpt lat="40.8165483" lon="15.9895417"><ele>342.0</ele><time>2026-05-02T14:35:37.702Z</time></trkpt><trkpt lat="40.8164733" lon="15.989725"><ele>342.0</ele><time>2026-05-02T14:35:38.702Z</time></trkpt><trkpt lat="40.8164033" lon="15.9898933"><ele>342.0</ele><time>2026-05-02T14:35:39.701Z</time></trkpt><trkpt lat="40.8163367" lon="15.9900383"><ele>342.0</ele><time>2026-05-02T14:35:40.702Z</time></trkpt><trkpt lat="40.816275" lon="15.9901583"><ele>341.40000000000003</ele><time>2026-05-02T14:35:41.701Z</time></trkpt><trkpt lat="40.81621" lon="15.9902517"><ele>340.8</ele><time>2026-05-02T14:35:42.702Z</time></trkpt><trkpt lat="40.8161383" lon="15.990315"><ele>340.2</ele><time>2026-05-02T14:35:43.702Z</time></trkpt><trkpt lat="40.8160533" lon="15.9903483"><ele>339.6</ele><time>2026-05-02T14:35:44.702Z</time></trkpt><trkpt lat="40.815955" lon="15.9903417"><ele>339.0</ele><time>2026-05-02T14:35:45.701Z</time></trkpt><trkpt lat="40.8158533" lon="15.9902983"><ele>338.0</ele><time>2026-05-02T14:35:46.702Z</time></trkpt><trkpt lat="40.8157483" lon="15.9902217"><ele>337.0</ele><time>2026-05-02T14:35:47.701Z</time></trkpt><trkpt lat="40.8156317" lon="15.9901133"><ele>336.0</ele><time>2026-05-02T14:35:48.703Z</time></trkpt><trkpt lat="40.8155" lon="15.9899833"><ele>335.0</ele><time>2026-05-02T14:35:49.703Z</time></trkpt><trkpt lat="40.8153667" lon="15.9898517"><ele>335.0</ele><time>2026-05-02T14:35:50.704Z</time></trkpt><trkpt lat="40.815245" lon="15.9897333"><ele>335.0</ele><time>2026-05-02T14:35:51.702Z</time></trkpt><trkpt lat="40.8151333" lon="15.989625"><ele>335.0</ele><time>2026-05-02T14:35:52.701Z</time></trkpt><trkpt lat="40.8150333" lon="15.9895217"><ele>335.0</ele><time>2026-05-02T14:35:53.704Z</time></trkpt><trkpt lat="40.8149417" lon="15.9894133"><ele>333.5</ele><time>2026-05-02T14:35:54.701Z</time></trkpt><trkpt lat="40.814855" lon="15.9892883"><ele>332.0</ele><time>2026-05-02T14:35:55.701Z</time></trkpt><trkpt lat="40.814765" lon="15.98914"><ele>330.5</ele><time>2026-05-02T14:35:56.701Z</time></trkpt><trkpt lat="40.8146767" lon="15.98897"><ele>329.0</ele><time>2026-05-02T14:35:57.702Z</time></trkpt><trkpt lat="40.81459" lon="15.9887867"><ele>329.0</ele><time>2026-05-02T14:35:58.7Z</time></trkpt><trkpt lat="40.814505" lon="15.9886183"><ele>329.0</ele><time>2026-05-02T14:35:59.702Z</time></trkpt><trkpt lat="40.8144233" lon="15.9884667"><ele>329.0</ele><time>2026-05-02T14:36:00.701Z</time></trkpt><trkpt lat="40.8143417" lon="15.9883367"><ele>329.0</ele><time>2026-05-02T14:36:01.701Z</time></trkpt><trkpt lat="40.8142583" lon="15.98822"><ele>328.75</ele><time>2026-05-02T14:36:02.701Z</time></trkpt><trkpt lat="40.8141567" lon="15.9881183"><ele>328.5</ele><time>2026-05-02T14:36:03.701Z</time></trkpt><trkpt lat="40.814035" lon="15.9880317"><ele>328.25</ele><time>2026-05-02T14:36:04.7Z</time></trkpt><trkpt lat="40.8138933" lon="15.9879567"><ele>328.0</ele><time>2026-05-02T14:36:05.701Z</time></trkpt><trkpt lat="40.8137383" lon="15.987895"><ele>328.0</ele><time>2026-05-02T14:36:06.701Z</time></trkpt><trkpt lat="40.8135783" lon="15.98785"><ele>328.0</ele><time>2026-05-02T14:36:07.701Z</time></trkpt><trkpt lat="40.81342" lon="15.9878283"><ele>328.0</ele><time>2026-05-02T14:36:08.701Z</time></trkpt><trkpt lat="40.81326" lon="15.9878383"><ele>328.66666666666663</ele><time>2026-05-02T14:36:09.701Z</time></trkpt><trkpt lat="40.8130967" lon="15.98788"><ele>329.3333333333333</ele><time>2026-05-02T14:36:10.701Z</time></trkpt><trkpt lat="40.8129333" lon="15.9879433"><ele>330.0</ele><time>2026-05-02T14:36:11.7Z</time></trkpt><trkpt lat="40.812775" lon="15.9880117"><ele>331.5</ele><time>2026-05-02T14:36:12.701Z</time></trkpt><trkpt lat="40.812635" lon="15.9880717"><ele>333.0</ele><time>2026-05-02T14:36:13.701Z</time></trkpt><trkpt lat="40.8125117" lon="15.988115"><ele>334.5</ele><time>2026-05-02T14:36:14.702Z</time></trkpt><trkpt lat="40.8124" lon="15.9881317"><ele>336.0</ele><time>2026-05-02T14:36:15.701Z</time></trkpt><trkpt lat="40.8122983" lon="15.9881233"><ele>336.0</ele><time>2026-05-02T14:36:16.701Z</time></trkpt><trkpt lat="40.8122117" lon="15.9880867"><ele>336.0</ele><time>2026-05-02T14:36:17.701Z</time></trkpt><trkpt lat="40.8121467" lon="15.9880267"><ele>336.0</ele><time>2026-05-02T14:36:18.702Z</time></trkpt><trkpt lat="40.8121017" lon="15.9879483"><ele>336.0</ele><time>2026-05-02T14:36:19.702Z</time></trkpt><trkpt lat="40.8120883" lon="15.987845"><ele>336.0</ele><time>2026-05-02T14:36:20.703Z</time></trkpt><trkpt lat="40.8121083" lon="15.987725"><ele>336.0</ele><time>2026-05-02T14:36:21.702Z</time></trkpt><trkpt lat="40.81215" lon="15.9876017"><ele>338.25</ele><time>2026-05-02T14:36:22.702Z</time></trkpt><trkpt lat="40.8122183" lon="15.987475"><ele>340.5</ele><time>2026-05-02T14:36:23.703Z</time></trkpt><trkpt lat="40.8122983" lon="15.98735"><ele>342.75</ele><time>2026-05-02T14:36:24.702Z</time></trkpt><trkpt lat="40.8123783" lon="15.9872217"><ele>345.0</ele><time>2026-05-02T14:36:25.701Z</time></trkpt><trkpt lat="40.8124317" lon="15.9871"><ele>345.0</ele><time>2026-05-02T14:36:26.702Z</time></trkpt><trkpt lat="40.812455" lon="15.9869767"><ele>345.0</ele><time>2026-05-02T14:36:27.703Z</time></trkpt><trkpt lat="40.812445" lon="15.9868533"><ele>345.0</ele><time>2026-05-02T14:36:28.702Z</time></trkpt><trkpt lat="40.8123967" lon="15.9867467"><ele>345.0</ele><time>2026-05-02T14:36:29.702Z</time></trkpt><trkpt lat="40.8123217" lon="15.986665"><ele>345.0</ele><time>2026-05-02T14:36:30.7Z</time></trkpt><trkpt lat="40.8122317" lon="15.9866133"><ele>345.75</ele><time>2026-05-02T14:36:31.7Z</time></trkpt><trkpt lat="40.812125" lon="15.9866017"><ele>346.5</ele><time>2026-05-02T14:36:32.702Z</time></trkpt><trkpt lat="40.812" lon="15.98662"><ele>347.25</ele><time>2026-05-02T14:36:33.7Z</time></trkpt><trkpt lat="40.8118533" lon="15.98665"><ele>348.0</ele><time>2026-05-02T14:36:34.702Z</time></trkpt><trkpt lat="40.8116767" lon="15.9866817"><ele>349.6666666666667</ele><time>2026-05-02T14:36:35.701Z</time></trkpt><trkpt lat="40.8114833" lon="15.9867117"><ele>351.33333333333337</ele><time>2026-05-02T14:36:36.791Z</time></trkpt><trkpt lat="40.81128" lon="15.9867433"><ele>353.0</ele><time>2026-05-02T14:36:37.702Z</time></trkpt><trkpt lat="40.8110667" lon="15.9867817"><ele>355.6666666666667</ele><time>2026-05-02T14:36:38.702Z</time></trkpt><trkpt lat="40.8108567" lon="15.9868183"><ele>358.3333333333333</ele><time>2026-05-02T14:36:39.702Z</time></trkpt><trkpt lat="40.8106517" lon="15.98685"><ele>361.0</ele><time>2026-05-02T14:36:40.701Z</time></trkpt><trkpt lat="40.8104533" lon="15.9868817"><ele>361.0</ele><time>2026-05-02T14:36:41.701Z</time></trkpt><trkpt lat="40.810265" lon="15.9869117"><ele>361.0</ele><time>2026-05-02T14:36:42.701Z</time></trkpt><trkpt lat="40.8101" lon="15.9869333"><ele>361.0</ele><time>2026-05-02T14:36:43.701Z</time></trkpt><trkpt lat="40.8099533" lon="15.986955"><ele>362.0</ele><time>2026-05-02T14:36:44.702Z</time></trkpt><trkpt lat="40.8098183" lon="15.9869733"><ele>363.0</ele><time>2026-05-02T14:36:45.7Z</time></trkpt><trkpt lat="40.8096967" lon="15.9869883"><ele>364.0</ele><time>2026-05-02T14:36:46.702Z</time></trkpt><trkpt lat="40.80959" lon="15.98699"><ele>365.0</ele><time>2026-05-02T14:36:47.701Z</time></trkpt><trkpt lat="40.8095017" lon="15.9869817"><ele>365.0</ele><time>2026-05-02T14:36:48.701Z</time></trkpt><trkpt lat="40.8094283" lon="15.9869683"><ele>365.0</ele><time>2026-05-02T14:36:49.703Z</time></trkpt><trkpt lat="40.8093067" lon="15.98693"><ele>365.0</ele><time>2026-05-02T14:36:51.703Z</time></trkpt><trkpt lat="40.809235" lon="15.98691"><ele>365.0</ele><time>2026-05-02T14:36:52.701Z</time></trkpt><trkpt lat="40.80915" lon="15.986885"><ele>365.0</ele><time>2026-05-02T14:36:53.702Z</time></trkpt><trkpt lat="40.8090383" lon="15.9868417"><ele>365.6666666666667</ele><time>2026-05-02T14:36:54.702Z</time></trkpt><trkpt lat="40.8089083" lon="15.9867767"><ele>366.3333333333333</ele><time>2026-05-02T14:36:55.702Z</time></trkpt><trkpt lat="40.8087633" lon="15.986695"><ele>367.0</ele><time>2026-05-02T14:36:56.702Z</time></trkpt><trkpt lat="40.808605" lon="15.9865967"><ele>365.3333333333333</ele><time>2026-05-02T14:36:57.701Z</time></trkpt><trkpt lat="40.8084317" lon="15.9864917"><ele>363.6666666666667</ele><time>2026-05-02T14:36:58.701Z</time></trkpt><trkpt lat="40.808255" lon="15.9863867"><ele>362.0</ele><time>2026-05-02T14:36:59.7Z</time></trkpt><trkpt lat="40.8080833" lon="15.98628"><ele>362.0</ele><time>2026-05-02T14:37:00.701Z</time></trkpt><trkpt lat="40.8079167" lon="15.986175"><ele>362.0</ele><time>2026-05-02T14:37:01.7Z</time></trkpt><trkpt lat="40.807765" lon="15.98608"><ele>362.0</ele><time>2026-05-02T14:37:02.701Z</time></trkpt><trkpt lat="40.8076267" lon="15.985995"><ele>362.0</ele><time>2026-05-02T14:37:03.701Z</time></trkpt><trkpt lat="40.8075067" lon="15.9859133"><ele>362.0</ele><time>2026-05-02T14:37:04.701Z</time></trkpt><trkpt lat="40.8073983" lon="15.9858467"><ele>362.0</ele><time>2026-05-02T14:37:05.701Z</time></trkpt><trkpt lat="40.8072883" lon="15.9857933"><ele>362.0</ele><time>2026-05-02T14:37:06.701Z</time></trkpt><trkpt lat="40.8071717" lon="15.985765"><ele>362.0</ele><time>2026-05-02T14:37:07.701Z</time></trkpt><trkpt lat="40.8070483" lon="15.98576"><ele>362.0</ele><time>2026-05-02T14:37:08.702Z</time></trkpt><trkpt lat="40.806925" lon="15.9857817"><ele>362.0</ele><time>2026-05-02T14:37:09.7Z</time></trkpt><trkpt lat="40.806805" lon="15.9858317"><ele>362.0</ele><time>2026-05-02T14:37:10.702Z</time></trkpt><trkpt lat="40.80669" lon="15.98591"><ele>360.5</ele><time>2026-05-02T14:37:11.701Z</time></trkpt><trkpt lat="40.806575" lon="15.986015"><ele>359.0</ele><time>2026-05-02T14:37:12.702Z</time></trkpt><trkpt lat="40.8064567" lon="15.98614"><ele>357.5</ele><time>2026-05-02T14:37:13.702Z</time></trkpt><trkpt lat="40.8063367" lon="15.98627"><ele>356.0</ele><time>2026-05-02T14:37:14.701Z</time></trkpt><trkpt lat="40.8062083" lon="15.9864033"><ele>356.0</ele><time>2026-05-02T14:37:15.702Z</time></trkpt><trkpt lat="40.8060667" lon="15.9865483"><ele>356.0</ele><time>2026-05-02T14:37:16.702Z</time></trkpt><trkpt lat="40.805915" lon="15.9867033"><ele>356.0</ele><time>2026-05-02T14:37:17.702Z</time></trkpt><trkpt lat="40.8057617" lon="15.9868617"><ele>354.6666666666667</ele><time>2026-05-02T14:37:18.701Z</time></trkpt><trkpt lat="40.8056033" lon="15.98702"><ele>353.3333333333333</ele><time>2026-05-02T14:37:19.702Z</time></trkpt><trkpt lat="40.8054417" lon="15.9871783"><ele>352.0</ele><time>2026-05-02T14:37:20.704Z</time></trkpt><trkpt lat="40.8052733" lon="15.9873333"><ele>351.3333333333333</ele><time>2026-05-02T14:37:21.702Z</time></trkpt><trkpt lat="40.8050967" lon="15.9874833"><ele>350.6666666666667</ele><time>2026-05-02T14:37:22.702Z</time></trkpt><trkpt lat="40.8049117" lon="15.9876283"><ele>350.0</ele><time>2026-05-02T14:37:23.701Z</time></trkpt><trkpt lat="40.8047133" lon="15.9877733"><ele>350.0</ele><time>2026-05-02T14:37:24.701Z</time></trkpt><trkpt lat="40.804515" lon="15.9879183"><ele>350.0</ele><time>2026-05-02T14:37:25.701Z</time></trkpt><trkpt lat="40.8043217" lon="15.98806"><ele>350.0</ele><time>2026-05-02T14:37:26.702Z</time></trkpt><trkpt lat="40.8041317" lon="15.9882"><ele>350.6666666666667</ele><time>2026-05-02T14:37:27.7Z</time></trkpt><trkpt lat="40.8039483" lon="15.9883383"><ele>351.3333333333333</ele><time>2026-05-02T14:37:28.701Z</time></trkpt><trkpt lat="40.8037717" lon="15.9884717"><ele>352.0</ele><time>2026-05-02T14:37:29.701Z</time></trkpt><trkpt lat="40.8036" lon="15.9886017"><ele>350.66666666666663</ele><time>2026-05-02T14:37:30.702Z</time></trkpt><trkpt lat="40.8034267" lon="15.9887333"><ele>349.3333333333333</ele><time>2026-05-02T14:37:31.7Z</time></trkpt><trkpt lat="40.803255" lon="15.98888"><ele>348.0</ele><time>2026-05-02T14:37:32.702Z</time></trkpt><trkpt lat="40.8030833" lon="15.9890433"><ele>347.0</ele><time>2026-05-02T14:37:33.702Z</time></trkpt><trkpt lat="40.8029133" lon="15.9892117"><ele>346.0</ele><time>2026-05-02T14:37:34.702Z</time></trkpt><trkpt lat="40.802745" lon="15.9893717"><ele>345.0</ele><time>2026-05-02T14:37:35.701Z</time></trkpt><trkpt lat="40.8025683" lon="15.9895183"><ele>344.3333333333333</ele><time>2026-05-02T14:37:36.701Z</time></trkpt><trkpt lat="40.8023833" lon="15.9896583"><ele>343.66666666666663</ele><time>2026-05-02T14:37:37.702Z</time></trkpt><trkpt lat="40.8021933" lon="15.9897967"><ele>343.0</ele><time>2026-05-02T14:37:38.702Z</time></trkpt><trkpt lat="40.802005" lon="15.9899317"><ele>343.0</ele><time>2026-05-02T14:37:39.702Z</time></trkpt><trkpt lat="40.8018333" lon="15.9900567"><ele>343.0</ele><time>2026-05-02T14:37:40.702Z</time></trkpt><trkpt lat="40.8016767" lon="15.9901683"><ele>343.0</ele><time>2026-05-02T14:37:41.7Z</time></trkpt><trkpt lat="40.80153" lon="15.9902633"><ele>341.0</ele><time>2026-05-02T14:37:42.7Z</time></trkpt><trkpt lat="40.8013783" lon="15.9903533"><ele>339.0</ele><time>2026-05-02T14:37:43.702Z</time></trkpt><trkpt lat="40.8012117" lon="15.9904317"><ele>337.0</ele><time>2026-05-02T14:37:44.701Z</time></trkpt><trkpt lat="40.8010333" lon="15.9905033"><ele>334.0</ele><time>2026-05-02T14:37:45.701Z</time></trkpt><trkpt lat="40.800845" lon="15.990575"><ele>331.0</ele><time>2026-05-02T14:37:46.701Z</time></trkpt><trkpt lat="40.80066" lon="15.9906433"><ele>328.0</ele><time>2026-05-02T14:37:47.701Z</time></trkpt><trkpt lat="40.8004917" lon="15.9907083"><ele>328.0</ele><time>2026-05-02T14:37:48.702Z</time></trkpt><trkpt lat="40.8003333" lon="15.99077"><ele>328.0</ele><time>2026-05-02T14:37:49.701Z</time></trkpt><trkpt lat="40.800185" lon="15.9908317"><ele>328.0</ele><time>2026-05-02T14:37:50.703Z</time></trkpt><trkpt lat="40.800035" lon="15.9908867"><ele>327.25</ele><time>2026-05-02T14:37:51.701Z</time></trkpt><trkpt lat="40.79989" lon="15.99094"><ele>326.5</ele><time>2026-05-02T14:37:52.702Z</time></trkpt><trkpt lat="40.7997533" lon="15.9909967"><ele>325.75</ele><time>2026-05-02T14:37:53.701Z</time></trkpt><trkpt lat="40.7996267" lon="15.9910633"><ele>325.0</ele><time>2026-05-02T14:37:54.702Z</time></trkpt><trkpt lat="40.7995133" lon="15.99114"><ele>325.0</ele><time>2026-05-02T14:37:55.701Z</time></trkpt><trkpt lat="40.7994083" lon="15.9912383"><ele>325.0</ele><time>2026-05-02T14:37:56.701Z</time></trkpt><trkpt lat="40.7993167" lon="15.9913683"><ele>325.0</ele><time>2026-05-02T14:37:57.701Z</time></trkpt><trkpt lat="40.7992317" lon="15.9915267"><ele>325.0</ele><time>2026-05-02T14:37:58.701Z</time></trkpt><trkpt lat="40.7991517" lon="15.9917083"><ele>325.0</ele><time>2026-05-02T14:37:59.702Z</time></trkpt><trkpt lat="40.79907" lon="15.99189"><ele>325.0</ele><time>2026-05-02T14:38:00.701Z</time></trkpt><trkpt lat="40.7989917" lon="15.99206"><ele>325.0</ele><time>2026-05-02T14:38:01.701Z</time></trkpt><trkpt lat="40.79892" lon="15.9922217"><ele>325.0</ele><time>2026-05-02T14:38:02.702Z</time></trkpt><trkpt lat="40.7988467" lon="15.99238"><ele>325.0</ele><time>2026-05-02T14:38:03.701Z</time></trkpt><trkpt lat="40.7987783" lon="15.9925283"><ele>325.0</ele><time>2026-05-02T14:38:04.701Z</time></trkpt><trkpt lat="40.7987133" lon="15.9926667"><ele>325.0</ele><time>2026-05-02T14:38:05.701Z</time></trkpt><trkpt lat="40.7986533" lon="15.9928017"><ele>324.75</ele><time>2026-05-02T14:38:06.701Z</time></trkpt><trkpt lat="40.798595" lon="15.9929317"><ele>324.5</ele><time>2026-05-02T14:38:07.701Z</time></trkpt><trkpt lat="40.79854" lon="15.9930667"><ele>324.25</ele><time>2026-05-02T14:38:08.701Z</time></trkpt><trkpt lat="40.7984917" lon="15.993215"><ele>324.0</ele><time>2026-05-02T14:38:09.701Z</time></trkpt><trkpt lat="40.79845" lon="15.9933783"><ele>325.0</ele><time>2026-05-02T14:38:10.702Z</time></trkpt><trkpt lat="40.79842" lon="15.9935583"><ele>326.0</ele><time>2026-05-02T14:38:11.701Z</time></trkpt><trkpt lat="40.7983933" lon="15.9937567"><ele>327.0</ele><time>2026-05-02T14:38:12.701Z</time></trkpt><trkpt lat="40.798375" lon="15.99397"><ele>326.6666666666667</ele><time>2026-05-02T14:38:13.701Z</time></trkpt><trkpt lat="40.798365" lon="15.9941967"><ele>326.33333333333337</ele><time>2026-05-02T14:38:14.702Z</time></trkpt><trkpt lat="40.7983567" lon="15.9944383"><ele>326.0</ele><time>2026-05-02T14:38:15.701Z</time></trkpt><trkpt lat="40.7983467" lon="15.9946967"><ele>326.0</ele><time>2026-05-02T14:38:16.702Z</time></trkpt><trkpt lat="40.7983333" lon="15.9949633"><ele>326.0</ele><time>2026-05-02T14:38:17.701Z</time></trkpt><trkpt lat="40.7983217" lon="15.995215"><ele>326.0</ele><time>2026-05-02T14:38:18.702Z</time></trkpt><trkpt lat="40.7983133" lon="15.99544"><ele>325.0</ele><time>2026-05-02T14:38:19.701Z</time></trkpt><trkpt lat="40.7983067" lon="15.9956567"><ele>324.0</ele><time>2026-05-02T14:38:20.701Z</time></trkpt><trkpt lat="40.7983" lon="15.9958733"><ele>323.0</ele><time>2026-05-02T14:38:21.701Z</time></trkpt><trkpt lat="40.7982917" lon="15.9960967"><ele>323.0</ele><time>2026-05-02T14:38:22.701Z</time></trkpt><trkpt lat="40.7982833" lon="15.9963317"><ele>323.0</ele><time>2026-05-02T14:38:23.702Z</time></trkpt><trkpt lat="40.7982717" lon="15.9965767"><ele>323.0</ele><time>2026-05-02T14:38:24.703Z</time></trkpt><trkpt lat="40.79826" lon="15.9968283"><ele>322.33333333333337</ele><time>2026-05-02T14:38:25.702Z</time></trkpt><trkpt lat="40.7982483" lon="15.9970833"><ele>321.6666666666667</ele><time>2026-05-02T14:38:26.701Z</time></trkpt><trkpt lat="40.7982367" lon="15.9973417"><ele>321.0</ele><time>2026-05-02T14:38:27.701Z</time></trkpt><trkpt lat="40.798225" lon="15.9976"><ele>321.0</ele><time>2026-05-02T14:38:28.7Z</time></trkpt><trkpt lat="40.7982167" lon="15.9978633"><ele>321.0</ele><time>2026-05-02T14:38:29.701Z</time></trkpt><trkpt lat="40.7982083" lon="15.9981267"><ele>321.0</ele><time>2026-05-02T14:38:30.701Z</time></trkpt><trkpt lat="40.7981967" lon="15.99839"><ele>320.6666666666667</ele><time>2026-05-02T14:38:31.702Z</time></trkpt><trkpt lat="40.7981867" lon="15.9986517"><ele>320.33333333333337</ele><time>2026-05-02T14:38:32.704Z</time></trkpt><trkpt lat="40.7981767" lon="15.9988933"><ele>320.0</ele><time>2026-05-02T14:38:33.701Z</time></trkpt><trkpt lat="40.798165" lon="15.9991183"><ele>319.5</ele><time>2026-05-02T14:38:34.702Z</time></trkpt><trkpt lat="40.7981533" lon="15.99933"><ele>319.0</ele><time>2026-05-02T14:38:35.701Z</time></trkpt><trkpt lat="40.7981433" lon="15.999525"><ele>318.5</ele><time>2026-05-02T14:38:36.701Z</time></trkpt><trkpt lat="40.7981367" lon="15.99971"><ele>318.0</ele><time>2026-05-02T14:38:37.702Z</time></trkpt><trkpt lat="40.7981283" lon="15.9998817"><ele>318.0</ele><time>2026-05-02T14:38:38.701Z</time></trkpt><trkpt lat="40.79812" lon="16.0000367"><ele>318.0</ele><time>2026-05-02T14:38:39.701Z</time></trkpt><trkpt lat="40.7981133" lon="16.0001683"><ele>318.0</ele><time>2026-05-02T14:38:40.703Z</time></trkpt><trkpt lat="40.79811" lon="16.0002783"><ele>318.0</ele><time>2026-05-02T14:38:41.701Z</time></trkpt><trkpt lat="40.7981133" lon="16.0003717"><ele>318.0</ele><time>2026-05-02T14:38:42.701Z</time></trkpt><trkpt lat="40.7981717" lon="16.0005067"><ele>318.0</ele><time>2026-05-02T14:38:44.701Z</time></trkpt><trkpt lat="40.7982167" lon="16.0005733"><ele>318.0</ele><time>2026-05-02T14:38:45.701Z</time></trkpt><trkpt lat="40.79826" lon="16.0006467"><ele>318.0</ele><time>2026-05-02T14:38:46.702Z</time></trkpt><trkpt lat="40.7983017" lon="16.00072"><ele>318.0</ele><time>2026-05-02T14:38:47.7Z</time></trkpt><trkpt lat="40.7983517" lon="16.000785"><ele>318.0</ele><time>2026-05-02T14:38:48.702Z</time></trkpt><trkpt lat="40.7984167" lon="16.000835"><ele>318.0</ele><time>2026-05-02T14:38:49.702Z</time></trkpt><trkpt lat="40.7985033" lon="16.000865"><ele>318.0</ele><time>2026-05-02T14:38:50.703Z</time></trkpt><trkpt lat="40.7986117" lon="16.0008883"><ele>317.0</ele><time>2026-05-02T14:38:51.702Z</time></trkpt><trkpt lat="40.7987217" lon="16.0009083"><ele>316.0</ele><time>2026-05-02T14:38:52.702Z</time></trkpt><trkpt lat="40.7988233" lon="16.000935"><ele>315.0</ele><time>2026-05-02T14:38:53.702Z</time></trkpt><trkpt lat="40.7989183" lon="16.0009683"><ele>314.0</ele><time>2026-05-02T14:38:54.702Z</time></trkpt><trkpt lat="40.7990017" lon="16.0009917"><ele>313.0</ele><time>2026-05-02T14:38:55.701Z</time></trkpt><trkpt lat="40.7990767" lon="16.0010033"><ele>313.0</ele><time>2026-05-02T14:38:56.702Z</time></trkpt><trkpt lat="40.7991417" lon="16.0010017"><ele>313.0</ele><time>2026-05-02T14:38:57.702Z</time></trkpt><trkpt lat="40.79925" lon="16.0009433"><ele>313.0</ele><time>2026-05-02T14:38:59.702Z</time></trkpt><trkpt lat="40.79931" lon="16.00078"><ele>313.0</ele><time>2026-05-02T14:39:01.7Z</time></trkpt><trkpt lat="40.7993367" lon="16.0006367"><ele>313.0</ele><time>2026-05-02T14:39:02.701Z</time></trkpt><trkpt lat="40.7993783" lon="16.0004733"><ele>312.5</ele><time>2026-05-02T14:39:03.702Z</time></trkpt><trkpt lat="40.7994333" lon="16.000315"><ele>312.0</ele><time>2026-05-02T14:39:04.702Z</time></trkpt><trkpt lat="40.7994983" lon="16.0001667"><ele>311.5</ele><time>2026-05-02T14:39:05.702Z</time></trkpt><trkpt lat="40.799565" lon="16.0000117"><ele>311.0</ele><time>2026-05-02T14:39:06.701Z</time></trkpt><trkpt lat="40.7996333" lon="15.9998417"><ele>311.0</ele><time>2026-05-02T14:39:07.702Z</time></trkpt><trkpt lat="40.7997" lon="15.9996667"><ele>311.0</ele><time>2026-05-02T14:39:08.702Z</time></trkpt><trkpt lat="40.799765" lon="15.999505"><ele>311.0</ele><time>2026-05-02T14:39:09.702Z</time></trkpt><trkpt lat="40.7998267" lon="15.9993583"><ele>311.0</ele><time>2026-05-02T14:39:10.701Z</time></trkpt><trkpt lat="40.799885" lon="15.9992133"><ele>311.75</ele><time>2026-05-02T14:39:11.702Z</time></trkpt><trkpt lat="40.79993" lon="15.99905"><ele>312.5</ele><time>2026-05-02T14:39:12.701Z</time></trkpt><trkpt lat="40.799965" lon="15.99887"><ele>313.25</ele><time>2026-05-02T14:39:13.702Z</time></trkpt><trkpt lat="40.799995" lon="15.9986917"><ele>314.0</ele><time>2026-05-02T14:39:14.702Z</time></trkpt><trkpt lat="40.8000117" lon="15.9985283"><ele>314.0</ele><time>2026-05-02T14:39:15.703Z</time></trkpt><trkpt lat="40.800015" lon="15.9983783"><ele>314.0</ele><time>2026-05-02T14:39:16.701Z</time></trkpt><trkpt lat="40.8000033" lon="15.99823"><ele>314.0</ele><time>2026-05-02T14:39:17.701Z</time></trkpt><trkpt lat="40.7999767" lon="15.99808"><ele>314.0</ele><time>2026-05-02T14:39:18.701Z</time></trkpt><trkpt lat="40.799935" lon="15.9979317"><ele>313.8</ele><time>2026-05-02T14:39:19.703Z</time></trkpt><trkpt lat="40.79988" lon="15.997795"><ele>313.59999999999997</ele><time>2026-05-02T14:39:20.704Z</time></trkpt><trkpt lat="40.7998217" lon="15.99768"><ele>313.4</ele><time>2026-05-02T14:39:21.703Z</time></trkpt><trkpt lat="40.79976" lon="15.99758"><ele>313.2</ele><time>2026-05-02T14:39:22.703Z</time></trkpt><trkpt lat="40.7996867" lon="15.9974767"><ele>313.0</ele><time>2026-05-02T14:39:23.703Z</time></trkpt><trkpt lat="40.7996017" lon="15.9973667"><ele>313.0</ele><time>2026-05-02T14:39:24.703Z</time></trkpt><trkpt lat="40.7995167" lon="15.99725"><ele>313.0</ele><time>2026-05-02T14:39:25.703Z</time></trkpt><trkpt lat="40.7994417" lon="15.99713"><ele>313.0</ele><time>2026-05-02T14:39:26.703Z</time></trkpt><trkpt lat="40.7993783" lon="15.9970067"><ele>313.0</ele><time>2026-05-02T14:39:27.702Z</time></trkpt><trkpt lat="40.7993233" lon="15.996875"><ele>313.5</ele><time>2026-05-02T14:39:28.702Z</time></trkpt><trkpt lat="40.7992767" lon="15.9967383"><ele>314.0</ele><time>2026-05-02T14:39:29.703Z</time></trkpt><trkpt lat="40.7992383" lon="15.996595"><ele>314.5</ele><time>2026-05-02T14:39:30.702Z</time></trkpt><trkpt lat="40.7992167" lon="15.9964467"><ele>315.0</ele><time>2026-05-02T14:39:31.701Z</time></trkpt><trkpt lat="40.7992117" lon="15.9963017"><ele>315.25</ele><time>2026-05-02T14:39:32.702Z</time></trkpt><trkpt lat="40.79922" lon="15.9961617"><ele>315.5</ele><time>2026-05-02T14:39:33.701Z</time></trkpt><trkpt lat="40.799245" lon="15.9960217"><ele>315.75</ele><time>2026-05-02T14:39:34.702Z</time></trkpt><trkpt lat="40.7992833" lon="15.99588"><ele>316.0</ele><time>2026-05-02T14:39:35.702Z</time></trkpt><trkpt lat="40.7993304" lon="15.9957304"><ele>316.25</ele><time>2026-05-02T14:39:36.701Z</time></trkpt><trkpt lat="40.7993792" lon="15.9955703"><ele>316.5</ele><time>2026-05-02T14:39:37.701Z</time></trkpt><trkpt lat="40.7994184" lon="15.9954081"><ele>316.75</ele><time>2026-05-02T14:39:38.702Z</time></trkpt><trkpt lat="40.799455" lon="15.9952339"><ele>317.0</ele><time>2026-05-02T14:39:39.702Z</time></trkpt><trkpt lat="40.7994911" lon="15.9950558"><ele>317.25</ele><time>2026-05-02T14:39:40.702Z</time></trkpt><trkpt lat="40.7995285" lon="15.9948877"><ele>317.5</ele><time>2026-05-02T14:39:41.702Z</time></trkpt><trkpt lat="40.7995735" lon="15.994714"><ele>317.75</ele><time>2026-05-02T14:39:42.702Z</time></trkpt><trkpt lat="40.7996208" lon="15.9945272"><ele>318.0</ele><time>2026-05-02T14:39:43.702Z</time></trkpt><trkpt lat="40.7996718" lon="15.9943276"><ele>318.25</ele><time>2026-05-02T14:39:44.702Z</time></trkpt><trkpt lat="40.7997217" lon="15.9941302"><ele>318.5</ele><time>2026-05-02T14:39:45.703Z</time></trkpt><trkpt lat="40.7997648" lon="15.9939561"><ele>318.75</ele><time>2026-05-02T14:39:46.702Z</time></trkpt><trkpt lat="40.7998076" lon="15.9937897"><ele>319.0</ele><time>2026-05-02T14:39:47.702Z</time></trkpt><trkpt lat="40.7998524" lon="15.993615"><ele>319.0</ele><time>2026-05-02T14:39:48.702Z</time></trkpt><trkpt lat="40.7998954" lon="15.993443"><ele>319.0</ele><time>2026-05-02T14:39:49.701Z</time></trkpt><trkpt lat="40.7999321" lon="15.993287"><ele>319.0</ele><time>2026-05-02T14:39:50.702Z</time></trkpt><trkpt lat="40.7999643" lon="15.9931439"><ele>319.0</ele><time>2026-05-02T14:39:51.701Z</time></trkpt><trkpt lat="40.7999919" lon="15.9930146"><ele>319.6</ele><time>2026-05-02T14:39:52.703Z</time></trkpt><trkpt lat="40.8000198" lon="15.9928925"><ele>320.2</ele><time>2026-05-02T14:39:53.703Z</time></trkpt><trkpt lat="40.8000428" lon="15.9927703"><ele>320.8</ele><time>2026-05-02T14:39:54.703Z</time></trkpt><trkpt lat="40.8000555" lon="15.9926497"><ele>321.40000000000003</ele><time>2026-05-02T14:39:55.704Z</time></trkpt><trkpt lat="40.80006" lon="15.9925219"><ele>322.0</ele><time>2026-05-02T14:39:56.706Z</time></trkpt><trkpt lat="40.8000572" lon="15.9923753"><ele>322.5</ele><time>2026-05-02T14:39:57.704Z</time></trkpt><trkpt lat="40.800047" lon="15.99222"><ele>323.0</ele><time>2026-05-02T14:39:58.705Z</time></trkpt><trkpt lat="40.8000302" lon="15.9920633"><ele>323.5</ele><time>2026-05-02T14:39:59.702Z</time></trkpt><trkpt lat="40.8000055" lon="15.991896"><ele>324.0</ele><time>2026-05-02T14:40:00.702Z</time></trkpt><trkpt lat="40.7999733" lon="15.9917212"><ele>324.25</ele><time>2026-05-02T14:40:01.702Z</time></trkpt><trkpt lat="40.7999437" lon="15.9915511"><ele>324.5</ele><time>2026-05-02T14:40:02.702Z</time></trkpt><trkpt lat="40.7999146" lon="15.9913957"><ele>324.75</ele><time>2026-05-02T14:40:03.7Z</time></trkpt><trkpt lat="40.7998849" lon="15.9912439"><ele>325.0</ele><time>2026-05-02T14:40:04.703Z</time></trkpt><trkpt lat="40.7998606" lon="15.991101"><ele>325.0</ele><time>2026-05-02T14:40:05.701Z</time></trkpt><trkpt lat="40.7998394" lon="15.9909774"><ele>325.0</ele><time>2026-05-02T14:40:06.702Z</time></trkpt><trkpt lat="40.7998259" lon="15.9908704"><ele>325.0</ele><time>2026-05-02T14:40:07.701Z</time></trkpt><trkpt lat="40.7998151" lon="15.9907726"><ele>325.0</ele><time>2026-05-02T14:40:08.701Z</time></trkpt><trkpt lat="40.7998056" lon="15.990681"><ele>325.0</ele><time>2026-05-02T14:40:09.702Z</time></trkpt><trkpt lat="40.7997905" lon="15.9905855"><ele>325.0</ele><time>2026-05-02T14:40:10.702Z</time></trkpt><trkpt lat="40.7997635" lon="15.9904866"><ele>325.0</ele><time>2026-05-02T14:40:11.703Z</time></trkpt><trkpt lat="40.7997266" lon="15.9903777"><ele>325.0</ele><time>2026-05-02T14:40:12.702Z</time></trkpt><trkpt lat="40.7996799" lon="15.9902618"><ele>325.0</ele><time>2026-05-02T14:40:13.702Z</time></trkpt><trkpt lat="40.7996318" lon="15.9901461"><ele>325.0</ele><time>2026-05-02T14:40:14.701Z</time></trkpt><trkpt lat="40.7995942" lon="15.9900549"><ele>325.0</ele><time>2026-05-02T14:40:15.702Z</time></trkpt><trkpt lat="40.7995541" lon="15.9899538"><ele>325.0</ele><time>2026-05-02T14:40:17.702Z</time></trkpt><trkpt lat="40.799535" lon="15.9898533"><ele>325.0</ele><time>2026-05-02T14:40:42.701Z</time></trkpt><trkpt lat="40.7994783" lon="15.9897383"><ele>325.0</ele><time>2026-05-02T14:40:44.703Z</time></trkpt><trkpt lat="40.7993983" lon="15.9896233"><ele>325.0</ele><time>2026-05-02T14:40:46.702Z</time></trkpt><trkpt lat="40.79935" lon="15.9895633"><ele>325.0</ele><time>2026-05-02T14:40:47.702Z</time></trkpt><trkpt lat="40.7992967" lon="15.9894983"><ele>325.0</ele><time>2026-05-02T14:40:48.701Z</time></trkpt><trkpt lat="40.7992383" lon="15.9894333"><ele>325.16666666666663</ele><time>2026-05-02T14:40:49.702Z</time></trkpt><trkpt lat="40.7991783" lon="15.9893683"><ele>325.3333333333333</ele><time>2026-05-02T14:40:50.703Z</time></trkpt><trkpt lat="40.7991183" lon="15.9893"><ele>325.5</ele><time>2026-05-02T14:40:51.701Z</time></trkpt><trkpt lat="40.79906" lon="15.989225"><ele>325.6666666666667</ele><time>2026-05-02T14:40:52.701Z</time></trkpt><trkpt lat="40.7989983" lon="15.989145"><ele>325.83333333333337</ele><time>2026-05-02T14:40:53.702Z</time></trkpt><trkpt lat="40.7989367" lon="15.9890667"><ele>326.0</ele><time>2026-05-02T14:40:54.702Z</time></trkpt><trkpt lat="40.79888" lon="15.989"><ele>326.0</ele><time>2026-05-02T14:40:55.705Z</time></trkpt><trkpt lat="40.7988317" lon="15.9889367"><ele>326.0</ele><time>2026-05-02T14:40:56.704Z</time></trkpt><trkpt lat="40.798785" lon="15.988875"><ele>326.0</ele><time>2026-05-02T14:40:57.702Z</time></trkpt><trkpt lat="40.7987333" lon="15.9888083"><ele>326.0</ele><time>2026-05-02T14:40:58.703Z</time></trkpt><trkpt lat="40.7986783" lon="15.9887433"><ele>326.0</ele><time>2026-05-02T14:40:59.702Z</time></trkpt><trkpt lat="40.7986233" lon="15.988675"><ele>326.0</ele><time>2026-05-02T14:41:00.702Z</time></trkpt><trkpt lat="40.7985683" lon="15.988605"><ele>326.0</ele><time>2026-05-02T14:41:01.701Z</time></trkpt><trkpt lat="40.7985167" lon="15.9885383"><ele>326.0</ele><time>2026-05-02T14:41:02.701Z</time></trkpt><trkpt lat="40.7984717" lon="15.988475"><ele>326.0</ele><time>2026-05-02T14:41:03.702Z</time></trkpt><trkpt lat="40.7984267" lon="15.988415"><ele>326.0</ele><time>2026-05-02T14:41:04.702Z</time></trkpt><trkpt lat="40.7983783" lon="15.9883567"><ele>326.0</ele><time>2026-05-02T14:41:05.702Z</time></trkpt><trkpt lat="40.7982967" lon="15.9882283"><ele>326.0</ele><time>2026-05-02T14:41:07.702Z</time></trkpt><trkpt lat="40.79826" lon="15.9881417"><ele>326.0</ele><time>2026-05-02T14:41:08.703Z</time></trkpt><trkpt lat="40.79823" lon="15.9880417"><ele>326.0</ele><time>2026-05-02T14:41:09.701Z</time></trkpt><trkpt lat="40.7982017" lon="15.9879283"><ele>326.0</ele><time>2026-05-02T14:41:10.701Z</time></trkpt><trkpt lat="40.79817" lon="15.9877917"><ele>326.0</ele><time>2026-05-02T14:41:11.701Z</time></trkpt><trkpt lat="40.7981383" lon="15.9876233"><ele>326.0</ele><time>2026-05-02T14:41:12.703Z</time></trkpt><trkpt lat="40.7981067" lon="15.9874233"><ele>326.0</ele><time>2026-05-02T14:41:13.702Z</time></trkpt><trkpt lat="40.7980783" lon="15.9872017"><ele>326.0</ele><time>2026-05-02T14:41:14.701Z</time></trkpt><trkpt lat="40.79805" lon="15.9869883"><ele>326.0</ele><time>2026-05-02T14:41:15.702Z</time></trkpt><trkpt lat="40.7980267" lon="15.98679"><ele>326.0</ele><time>2026-05-02T14:41:16.701Z</time></trkpt><trkpt lat="40.7980067" lon="15.9866083"><ele>326.0</ele><time>2026-05-02T14:41:17.703Z</time></trkpt><trkpt lat="40.7979917" lon="15.9864367"><ele>326.0</ele><time>2026-05-02T14:41:18.701Z</time></trkpt><trkpt lat="40.7979683" lon="15.986285"><ele>326.0</ele><time>2026-05-02T14:41:19.703Z</time></trkpt><trkpt lat="40.79794" lon="15.986155"><ele>326.0</ele><time>2026-05-02T14:41:20.704Z</time></trkpt><trkpt lat="40.7979033" lon="15.98605"><ele>326.0</ele><time>2026-05-02T14:41:21.703Z</time></trkpt><trkpt lat="40.7978567" lon="15.9859567"><ele>326.0</ele><time>2026-05-02T14:41:22.704Z</time></trkpt><trkpt lat="40.7977967" lon="15.985885"><ele>326.0</ele><time>2026-05-02T14:41:23.703Z</time></trkpt><trkpt lat="40.79772" lon="15.9858383"><ele>326.0</ele><time>2026-05-02T14:41:24.702Z</time></trkpt><trkpt lat="40.7976167" lon="15.9858067"><ele>326.0</ele><time>2026-05-02T14:41:25.701Z</time></trkpt><trkpt lat="40.797485" lon="15.9857817"><ele>327.0</ele><time>2026-05-02T14:41:26.702Z</time></trkpt><trkpt lat="40.7973283" lon="15.98575"><ele>328.0</ele><time>2026-05-02T14:41:27.702Z</time></trkpt><trkpt lat="40.7971483" lon="15.98571"><ele>329.0</ele><time>2026-05-02T14:41:28.701Z</time></trkpt><trkpt lat="40.7969567" lon="15.98567"><ele>329.6666666666667</ele><time>2026-05-02T14:41:29.703Z</time></trkpt><trkpt lat="40.7967683" lon="15.985625"><ele>330.3333333333333</ele><time>2026-05-02T14:41:30.701Z</time></trkpt><trkpt lat="40.79658" lon="15.9855783"><ele>331.0</ele><time>2026-05-02T14:41:31.702Z</time></trkpt><trkpt lat="40.79639" lon="15.98553"><ele>331.0</ele><time>2026-05-02T14:41:32.702Z</time></trkpt><trkpt lat="40.7962067" lon="15.9854817"><ele>331.0</ele><time>2026-05-02T14:41:33.702Z</time></trkpt><trkpt lat="40.796035" lon="15.9854383"><ele>331.0</ele><time>2026-05-02T14:41:34.701Z</time></trkpt><trkpt lat="40.7958767" lon="15.9854"><ele>331.25</ele><time>2026-05-02T14:41:35.701Z</time></trkpt><trkpt lat="40.7957317" lon="15.9853667"><ele>331.5</ele><time>2026-05-02T14:41:36.701Z</time></trkpt><trkpt lat="40.7956" lon="15.9853317"><ele>331.75</ele><time>2026-05-02T14:41:37.702Z</time></trkpt><trkpt lat="40.795475" lon="15.9852967"><ele>332.0</ele><time>2026-05-02T14:41:38.702Z</time></trkpt><trkpt lat="40.7953533" lon="15.985265"><ele>332.0</ele><time>2026-05-02T14:41:39.701Z</time></trkpt><trkpt lat="40.79524" lon="15.9852383"><ele>332.0</ele><time>2026-05-02T14:41:40.701Z</time></trkpt><trkpt lat="40.795135" lon="15.985215"><ele>332.0</ele><time>2026-05-02T14:41:41.702Z</time></trkpt><trkpt lat="40.7950333" lon="15.985195"><ele>332.0</ele><time>2026-05-02T14:41:42.702Z</time></trkpt><trkpt lat="40.794935" lon="15.9851567"><ele>332.0</ele><time>2026-05-02T14:41:43.702Z</time></trkpt><trkpt lat="40.7948383" lon="15.9851033"><ele>332.40000000000003</ele><time>2026-05-02T14:41:44.702Z</time></trkpt><trkpt lat="40.7947483" lon="15.98504"><ele>332.8</ele><time>2026-05-02T14:41:45.702Z</time></trkpt><trkpt lat="40.794665" lon="15.9849517"><ele>333.2</ele><time>2026-05-02T14:41:46.701Z</time></trkpt><trkpt lat="40.79458" lon="15.984855"><ele>333.6</ele><time>2026-05-02T14:41:47.705Z</time></trkpt><trkpt lat="40.7945017" lon="15.9847633"><ele>334.0</ele><time>2026-05-02T14:41:48.703Z</time></trkpt><trkpt lat="40.79443" lon="15.9846783"><ele>334.0</ele><time>2026-05-02T14:41:49.703Z</time></trkpt><trkpt lat="40.794365" lon="15.9845983"><ele>334.0</ele><time>2026-05-02T14:41:50.704Z</time></trkpt><trkpt lat="40.7942983" lon="15.9845133"><ele>334.0</ele><time>2026-05-02T14:41:51.702Z</time></trkpt><trkpt lat="40.79422" lon="15.9844083"><ele>334.0</ele><time>2026-05-02T14:41:52.704Z</time></trkpt><trkpt lat="40.7941317" lon="15.98429"><ele>334.0</ele><time>2026-05-02T14:41:53.705Z</time></trkpt><trkpt lat="40.7940367" lon="15.9841667"><ele>334.5</ele><time>2026-05-02T14:41:54.703Z</time></trkpt><trkpt lat="40.793935" lon="15.9840367"><ele>335.0</ele><time>2026-05-02T14:41:55.702Z</time></trkpt><trkpt lat="40.7938283" lon="15.9839017"><ele>335.5</ele><time>2026-05-02T14:41:56.703Z</time></trkpt><trkpt lat="40.7937183" lon="15.9837733"><ele>336.0</ele><time>2026-05-02T14:41:57.701Z</time></trkpt><trkpt lat="40.79361" lon="15.9836317"><ele>336.5</ele><time>2026-05-02T14:41:58.702Z</time></trkpt><trkpt lat="40.793505" lon="15.983505"><ele>337.0</ele><time>2026-05-02T14:41:59.703Z</time></trkpt><trkpt lat="40.7934067" lon="15.98339"><ele>337.5</ele><time>2026-05-02T14:42:00.703Z</time></trkpt><trkpt lat="40.7933167" lon="15.983285"><ele>338.0</ele><time>2026-05-02T14:42:01.703Z</time></trkpt><trkpt lat="40.7932317" lon="15.9831767"><ele>338.0</ele><time>2026-05-02T14:42:02.704Z</time></trkpt><trkpt lat="40.7931483" lon="15.9830583"><ele>338.0</ele><time>2026-05-02T14:42:03.702Z</time></trkpt><trkpt lat="40.7930683" lon="15.9829167"><ele>338.0</ele><time>2026-05-02T14:42:04.704Z</time></trkpt><trkpt lat="40.7929833" lon="15.982755"><ele>338.0</ele><time>2026-05-02T14:42:05.702Z</time></trkpt><trkpt lat="40.7928983" lon="15.9825833"><ele>338.0</ele><time>2026-05-02T14:42:06.701Z</time></trkpt><trkpt lat="40.7928083" lon="15.9824017"><ele>338.0</ele><time>2026-05-02T14:42:07.703Z</time></trkpt><trkpt lat="40.79271" lon="15.9821967"><ele>338.0</ele><time>2026-05-02T14:42:08.701Z</time></trkpt><trkpt lat="40.7926117" lon="15.9819917"><ele>338.6666666666667</ele><time>2026-05-02T14:42:09.701Z</time></trkpt><trkpt lat="40.7925233" lon="15.9818067"><ele>339.3333333333333</ele><time>2026-05-02T14:42:10.702Z</time></trkpt><trkpt lat="40.7924433" lon="15.9816367"><ele>340.0</ele><time>2026-05-02T14:42:11.702Z</time></trkpt><trkpt lat="40.7923717" lon="15.9814817"><ele>340.0</ele><time>2026-05-02T14:42:12.701Z</time></trkpt><trkpt lat="40.7923067" lon="15.98134"><ele>340.0</ele><time>2026-05-02T14:42:13.702Z</time></trkpt><trkpt lat="40.79225" lon="15.9812117"><ele>340.0</ele><time>2026-05-02T14:42:14.703Z</time></trkpt><trkpt lat="40.7921983" lon="15.9810917"><ele>340.0</ele><time>2026-05-02T14:42:15.702Z</time></trkpt><trkpt lat="40.79215" lon="15.9809817"><ele>340.0</ele><time>2026-05-02T14:42:16.701Z</time></trkpt><trkpt lat="40.7921017" lon="15.9808833"><ele>340.16666666666663</ele><time>2026-05-02T14:42:17.702Z</time></trkpt><trkpt lat="40.7920517" lon="15.9807917"><ele>340.3333333333333</ele><time>2026-05-02T14:42:18.701Z</time></trkpt><trkpt lat="40.792" lon="15.9807067"><ele>340.5</ele><time>2026-05-02T14:42:19.702Z</time></trkpt><trkpt lat="40.7919517" lon="15.9806283"><ele>340.6666666666667</ele><time>2026-05-02T14:42:20.702Z</time></trkpt><trkpt lat="40.79191" lon="15.9805517"><ele>340.83333333333337</ele><time>2026-05-02T14:42:21.701Z</time></trkpt><trkpt lat="40.791875" lon="15.980475"><ele>341.0</ele><time>2026-05-02T14:42:22.701Z</time></trkpt><trkpt lat="40.7918467" lon="15.98038"><ele>341.33333333333337</ele><time>2026-05-02T14:42:23.702Z</time></trkpt><trkpt lat="40.7918283" lon="15.9802833"><ele>341.6666666666667</ele><time>2026-05-02T14:42:24.7Z</time></trkpt><trkpt lat="40.79181" lon="15.980195"><ele>342.0</ele><time>2026-05-02T14:42:25.702Z</time></trkpt><trkpt lat="40.79177" lon="15.9800633"><ele>342.3333333333333</ele><time>2026-05-02T14:42:27.701Z</time></trkpt><trkpt lat="40.79169" lon="15.9799717"><ele>342.66666666666663</ele><time>2026-05-02T14:42:29.702Z</time></trkpt><trkpt lat="40.79164" lon="15.9799083"><ele>343.0</ele><time>2026-05-02T14:42:30.702Z</time></trkpt><trkpt lat="40.7915883" lon="15.9798267"><ele>343.0</ele><time>2026-05-02T14:42:31.701Z</time></trkpt><trkpt lat="40.7915383" lon="15.9797217"><ele>343.0</ele><time>2026-05-02T14:42:32.702Z</time></trkpt><trkpt lat="40.7914883" lon="15.979605"><ele>343.0</ele><time>2026-05-02T14:42:33.702Z</time></trkpt><trkpt lat="40.7914467" lon="15.9794933"><ele>343.0</ele><time>2026-05-02T14:42:34.702Z</time></trkpt><trkpt lat="40.79141" lon="15.9793933"><ele>343.0</ele><time>2026-05-02T14:42:35.701Z</time></trkpt><trkpt lat="40.79138" lon="15.97929"><ele>344.0</ele><time>2026-05-02T14:42:36.701Z</time></trkpt><trkpt lat="40.79135" lon="15.9791717"><ele>345.0</ele><time>2026-05-02T14:42:37.702Z</time></trkpt><trkpt lat="40.7913183" lon="15.9790317"><ele>346.0</ele><time>2026-05-02T14:42:38.703Z</time></trkpt><trkpt lat="40.7912833" lon="15.9788883"><ele>347.0</ele><time>2026-05-02T14:42:39.702Z</time></trkpt><trkpt lat="40.7912533" lon="15.9787617"><ele>348.0</ele><time>2026-05-02T14:42:40.702Z</time></trkpt><trkpt lat="40.7912283" lon="15.97865"><ele>348.0</ele><time>2026-05-02T14:42:41.702Z</time></trkpt><trkpt lat="40.7912067" lon="15.97856"><ele>348.0</ele><time>2026-05-02T14:42:42.701Z</time></trkpt><trkpt lat="40.7911783" lon="15.9784667"><ele>348.0</ele><time>2026-05-02T14:42:44.702Z</time></trkpt><trkpt lat="40.79111" lon="15.978335"><ele>348.0</ele><time>2026-05-02T14:43:09.703Z</time></trkpt><trkpt lat="40.7910467" lon="15.978305"><ele>348.0</ele><time>2026-05-02T14:43:11.701Z</time></trkpt><trkpt lat="40.7909767" lon="15.9782517"><ele>348.0</ele><time>2026-05-02T14:43:13.702Z</time></trkpt><trkpt lat="40.7909417" lon="15.9781383"><ele>347.4</ele><time>2026-05-02T14:43:34.7Z</time></trkpt><trkpt lat="40.7909083" lon="15.9779783"><ele>346.79999999999995</ele><time>2026-05-02T14:43:36.702Z</time></trkpt><trkpt lat="40.7909017" lon="15.9778833"><ele>346.2</ele><time>2026-05-02T14:43:37.702Z</time></trkpt><trkpt lat="40.7909" lon="15.9777783"><ele>345.6</ele><time>2026-05-02T14:43:38.702Z</time></trkpt><trkpt lat="40.7909033" lon="15.9776533"><ele>345.0</ele><time>2026-05-02T14:43:39.702Z</time></trkpt><trkpt lat="40.7909083" lon="15.977515"><ele>345.0</ele><time>2026-05-02T14:43:40.703Z</time></trkpt><trkpt lat="40.7909117" lon="15.9773833"><ele>345.0</ele><time>2026-05-02T14:43:41.703Z</time></trkpt><trkpt lat="40.7909167" lon="15.9772617"><ele>345.0</ele><time>2026-05-02T14:43:42.702Z</time></trkpt><trkpt lat="40.7909167" lon="15.9771367"><ele>345.0</ele><time>2026-05-02T14:43:43.702Z</time></trkpt><trkpt lat="40.790905" lon="15.9770083"><ele>345.0</ele><time>2026-05-02T14:43:44.704Z</time></trkpt><trkpt lat="40.7908817" lon="15.976885"><ele>345.0</ele><time>2026-05-02T14:43:45.702Z</time></trkpt><trkpt lat="40.790845" lon="15.9767583"><ele>345.0</ele><time>2026-05-02T14:43:46.702Z</time></trkpt><trkpt lat="40.7907983" lon="15.9766317"><ele>345.0</ele><time>2026-05-02T14:43:47.703Z</time></trkpt><trkpt lat="40.79075" lon="15.97651"><ele>345.0</ele><time>2026-05-02T14:43:48.701Z</time></trkpt><trkpt lat="40.7907033" lon="15.976385"><ele>345.0</ele><time>2026-05-02T14:43:49.703Z</time></trkpt><trkpt lat="40.79066" lon="15.97625"><ele>345.6</ele><time>2026-05-02T14:43:50.702Z</time></trkpt><trkpt lat="40.7906183" lon="15.9761117"><ele>346.2</ele><time>2026-05-02T14:43:51.701Z</time></trkpt><trkpt lat="40.7905817" lon="15.9759867"><ele>346.79999999999995</ele><time>2026-05-02T14:43:52.702Z</time></trkpt><trkpt lat="40.79055" lon="15.975885"><ele>347.4</ele><time>2026-05-02T14:43:53.702Z</time></trkpt><trkpt lat="40.790525" lon="15.9758033"><ele>348.0</ele><time>2026-05-02T14:43:54.701Z</time></trkpt><trkpt lat="40.7904967" lon="15.975675"><ele>348.0</ele><time>2026-05-02T14:43:56.703Z</time></trkpt><trkpt lat="40.7904633" lon="15.9755733"><ele>348.0</ele><time>2026-05-02T14:43:58.703Z</time></trkpt><trkpt lat="40.7903967" lon="15.97545"><ele>348.0</ele><time>2026-05-02T14:44:00.702Z</time></trkpt><trkpt lat="40.7903583" lon="15.97536"><ele>348.0</ele><time>2026-05-02T14:44:01.701Z</time></trkpt><trkpt lat="40.7903183" lon="15.97525"><ele>348.0</ele><time>2026-05-02T14:44:02.702Z</time></trkpt><trkpt lat="40.7902683" lon="15.975115"><ele>348.0</ele><time>2026-05-02T14:44:03.701Z</time></trkpt><trkpt lat="40.7902083" lon="15.97495"><ele>348.0</ele><time>2026-05-02T14:44:04.703Z</time></trkpt><trkpt lat="40.7901433" lon="15.9747583"><ele>348.0</ele><time>2026-05-02T14:44:05.702Z</time></trkpt><trkpt lat="40.79008" lon="15.9745783"><ele>348.0</ele><time>2026-05-02T14:44:06.702Z</time></trkpt><trkpt lat="40.7900233" lon="15.9744167"><ele>348.0</ele><time>2026-05-02T14:44:07.702Z</time></trkpt><trkpt lat="40.7899767" lon="15.9742767"><ele>348.0</ele><time>2026-05-02T14:44:08.702Z</time></trkpt><trkpt lat="40.789935" lon="15.9741567"><ele>348.0</ele><time>2026-05-02T14:44:09.701Z</time></trkpt><trkpt lat="40.789905" lon="15.97406"><ele>348.0</ele><time>2026-05-02T14:44:10.701Z</time></trkpt><trkpt lat="40.78988" lon="15.9739817"><ele>348.0</ele><time>2026-05-02T14:44:11.7Z</time></trkpt><trkpt lat="40.7898333" lon="15.9738267"><ele>348.0</ele><time>2026-05-02T14:44:13.702Z</time></trkpt><trkpt lat="40.7897933" lon="15.9736933"><ele>348.0</ele><time>2026-05-02T14:44:15.701Z</time></trkpt><trkpt lat="40.7897333" lon="15.97358"><ele>348.0</ele><time>2026-05-02T14:44:28.701Z</time></trkpt><trkpt lat="40.7897167" lon="15.9734733"><ele>348.0</ele><time>2026-05-02T14:44:30.701Z</time></trkpt><trkpt lat="40.7897033" lon="15.9733867"><ele>348.0</ele><time>2026-05-02T14:44:31.702Z</time></trkpt><trkpt lat="40.78969" lon="15.97327"><ele>348.0</ele><time>2026-05-02T14:44:32.702Z</time></trkpt><trkpt lat="40.7896783" lon="15.9731233"><ele>348.0</ele><time>2026-05-02T14:44:33.702Z</time></trkpt><trkpt lat="40.7896633" lon="15.9729683"><ele>348.0</ele><time>2026-05-02T14:44:34.702Z</time></trkpt><trkpt lat="40.7896483" lon="15.9728133"><ele>348.0</ele><time>2026-05-02T14:44:35.703Z</time></trkpt><trkpt lat="40.7896317" lon="15.9726517"><ele>349.0</ele><time>2026-05-02T14:44:36.7Z</time></trkpt><trkpt lat="40.789615" lon="15.972495"><ele>350.0</ele><time>2026-05-02T14:44:37.701Z</time></trkpt><trkpt lat="40.7895967" lon="15.972335"><ele>351.0</ele><time>2026-05-02T14:44:38.703Z</time></trkpt><trkpt lat="40.789575" lon="15.9721717"><ele>352.0</ele><time>2026-05-02T14:44:39.703Z</time></trkpt><trkpt lat="40.7895467" lon="15.9720083"><ele>352.0</ele><time>2026-05-02T14:44:40.702Z</time></trkpt><trkpt lat="40.7895133" lon="15.9718583"><ele>352.0</ele><time>2026-05-02T14:44:41.701Z</time></trkpt><trkpt lat="40.7894733" lon="15.9717283"><ele>352.0</ele><time>2026-05-02T14:44:42.701Z</time></trkpt><trkpt lat="40.7894417" lon="15.9716067"><ele>352.0</ele><time>2026-05-02T14:44:43.702Z</time></trkpt><trkpt lat="40.789415" lon="15.9714717"><ele>352.0</ele><time>2026-05-02T14:44:44.702Z</time></trkpt><trkpt lat="40.789395" lon="15.9713267"><ele>352.0</ele><time>2026-05-02T14:44:45.702Z</time></trkpt><trkpt lat="40.789375" lon="15.9711783"><ele>352.0</ele><time>2026-05-02T14:44:46.702Z</time></trkpt><trkpt lat="40.7893583" lon="15.9710267"><ele>352.0</ele><time>2026-05-02T14:44:47.702Z</time></trkpt><trkpt lat="40.7893417" lon="15.9708783"><ele>352.0</ele><time>2026-05-02T14:44:48.701Z</time></trkpt><trkpt lat="40.789325" lon="15.9707317"><ele>352.0</ele><time>2026-05-02T14:44:49.701Z</time></trkpt><trkpt lat="40.7893033" lon="15.9706017"><ele>352.0</ele><time>2026-05-02T14:44:50.702Z</time></trkpt><trkpt lat="40.7892667" lon="15.970475"><ele>352.0</ele><time>2026-05-02T14:44:51.7Z</time></trkpt><trkpt lat="40.789225" lon="15.970355"><ele>352.0</ele><time>2026-05-02T14:44:52.701Z</time></trkpt><trkpt lat="40.7891767" lon="15.9702467"><ele>352.0</ele><time>2026-05-02T14:44:53.701Z</time></trkpt><trkpt lat="40.789125" lon="15.9701533"><ele>352.0</ele><time>2026-05-02T14:44:54.7Z</time></trkpt><trkpt lat="40.7890767" lon="15.97008"><ele>352.0</ele><time>2026-05-02T14:44:55.7Z</time></trkpt><trkpt lat="40.7890133" lon="15.9699733"><ele>352.0</ele><time>2026-05-02T14:44:57.702Z</time></trkpt><trkpt lat="40.78897" lon="15.9698817"><ele>352.0</ele><time>2026-05-02T14:44:59.701Z</time></trkpt><trkpt lat="40.7889367" lon="15.9698083"><ele>352.0</ele><time>2026-05-02T14:45:01.701Z</time></trkpt><trkpt lat="40.7888933" lon="15.9697233"><ele>352.0</ele><time>2026-05-02T14:45:03.701Z</time></trkpt><trkpt lat="40.7888283" lon="15.9696383"><ele>353.8</ele><time>2026-05-02T14:45:06.702Z</time></trkpt><trkpt lat="40.7887533" lon="15.9695133"><ele>355.6</ele><time>2026-05-02T14:45:16.7Z</time></trkpt><trkpt lat="40.7886933" lon="15.9693767"><ele>357.40000000000003</ele><time>2026-05-02T14:45:18.701Z</time></trkpt><trkpt lat="40.788645" lon="15.9692467"><ele>359.20000000000005</ele><time>2026-05-02T14:45:20.701Z</time></trkpt><trkpt lat="40.7886083" lon="15.9691633"><ele>361.0</ele><time>2026-05-02T14:45:22.701Z</time></trkpt><trkpt lat="40.7885583" lon="15.9690483"><ele>359.8</ele><time>2026-05-02T14:45:24.701Z</time></trkpt><trkpt lat="40.7884983" lon="15.968915"><ele>358.6</ele><time>2026-05-02T14:45:26.701Z</time></trkpt><trkpt lat="40.788455" lon="15.9687833"><ele>357.4</ele><time>2026-05-02T14:45:28.701Z</time></trkpt><trkpt lat="40.7884217" lon="15.9686583"><ele>356.2</ele><time>2026-05-02T14:45:30.702Z</time></trkpt><trkpt lat="40.788385" lon="15.9685333"><ele>355.0</ele><time>2026-05-02T14:45:32.703Z</time></trkpt><trkpt lat="40.7883683" lon="15.9684267"><ele>356.2</ele><time>2026-05-02T14:45:34.701Z</time></trkpt><trkpt lat="40.788365" lon="15.96831"><ele>357.4</ele><time>2026-05-02T14:45:37.702Z</time></trkpt><trkpt lat="40.78834" lon="15.9681683"><ele>358.6</ele><time>2026-05-02T14:45:39.702Z</time></trkpt><trkpt lat="40.7882867" lon="15.9680433"><ele>359.8</ele><time>2026-05-02T14:45:41.7Z</time></trkpt><trkpt lat="40.7882083" lon="15.9679533"><ele>361.0</ele><time>2026-05-02T14:45:43.7Z</time></trkpt><trkpt lat="40.7881533" lon="15.9678833"><ele>361.0</ele><time>2026-05-02T14:45:46.701Z</time></trkpt><trkpt lat="40.788105" lon="15.9677833"><ele>361.0</ele><time>2026-05-02T14:45:50.702Z</time></trkpt><trkpt lat="40.7880633" lon="15.9676967"><ele>361.0</ele><time>2026-05-02T14:45:52.702Z</time></trkpt><trkpt lat="40.7880217" lon="15.9675917"><ele>361.0</ele><time>2026-05-02T14:45:54.702Z</time></trkpt><trkpt lat="40.78803" lon="15.9674567"><ele>361.0</ele><time>2026-05-02T14:53:31.701Z</time></trkpt><trkpt lat="40.7879683" lon="15.9672983"><ele>361.6</ele><time>2026-05-02T14:53:33.703Z</time></trkpt><trkpt lat="40.7879167" lon="15.9671767"><ele>362.20000000000005</ele><time>2026-05-02T14:53:34.702Z</time></trkpt><trkpt lat="40.7878733" lon="15.9670533"><ele>362.79999999999995</ele><time>2026-05-02T14:53:35.703Z</time></trkpt><trkpt lat="40.7878333" lon="15.9669267"><ele>363.4</ele><time>2026-05-02T14:53:36.701Z</time></trkpt><trkpt lat="40.7877967" lon="15.9667833"><ele>364.0</ele><time>2026-05-02T14:53:37.702Z</time></trkpt><trkpt lat="40.78777" lon="15.96663"><ele>365.2</ele><time>2026-05-02T14:53:38.703Z</time></trkpt><trkpt lat="40.7877467" lon="15.9664833"><ele>366.4</ele><time>2026-05-02T14:53:39.701Z</time></trkpt><trkpt lat="40.78772" lon="15.9663367"><ele>367.6</ele><time>2026-05-02T14:53:40.703Z</time></trkpt><trkpt lat="40.7876883" lon="15.9661933"><ele>368.8</ele><time>2026-05-02T14:53:41.702Z</time></trkpt><trkpt lat="40.7876517" lon="15.9660667"><ele>370.0</ele><time>2026-05-02T14:53:42.701Z</time></trkpt><trkpt lat="40.787615" lon="15.96595"><ele>367.5</ele><time>2026-05-02T14:53:43.701Z</time></trkpt><trkpt lat="40.7875733" lon="15.9658317"><ele>365.0</ele><time>2026-05-02T14:53:44.702Z</time></trkpt><trkpt lat="40.78752" lon="15.9657117"><ele>362.5</ele><time>2026-05-02T14:53:45.701Z</time></trkpt><trkpt lat="40.7874517" lon="15.9655833"><ele>360.0</ele><time>2026-05-02T14:53:46.702Z</time></trkpt><trkpt lat="40.7873683" lon="15.9654483"><ele>360.0</ele><time>2026-05-02T14:53:47.702Z</time></trkpt><trkpt lat="40.787285" lon="15.9653167"><ele>360.0</ele><time>2026-05-02T14:53:48.701Z</time></trkpt><trkpt lat="40.7872067" lon="15.9651833"><ele>360.0</ele><time>2026-05-02T14:53:49.701Z</time></trkpt><trkpt lat="40.7871317" lon="15.965045"><ele>360.0</ele><time>2026-05-02T14:53:50.703Z</time></trkpt><trkpt lat="40.78706" lon="15.96491"><ele>362.6</ele><time>2026-05-02T14:53:51.702Z</time></trkpt><trkpt lat="40.7869933" lon="15.9647883"><ele>365.2</ele><time>2026-05-02T14:53:52.701Z</time></trkpt><trkpt lat="40.78694" lon="15.9646833"><ele>367.79999999999995</ele><time>2026-05-02T14:53:53.702Z</time></trkpt><trkpt lat="40.7869067" lon="15.9645833"><ele>370.4</ele><time>2026-05-02T14:53:54.701Z</time></trkpt><trkpt lat="40.7868917" lon="15.9644733"><ele>373.0</ele><time>2026-05-02T14:53:55.701Z</time></trkpt><trkpt lat="40.7868983" lon="15.9643617"><ele>373.0</ele><time>2026-05-02T14:53:56.702Z</time></trkpt><trkpt lat="40.7869233" lon="15.9642433"><ele>373.0</ele><time>2026-05-02T14:53:57.7Z</time></trkpt><trkpt lat="40.7869667" lon="15.964105"><ele>373.0</ele><time>2026-05-02T14:53:58.7Z</time></trkpt><trkpt lat="40.787015" lon="15.9639633"><ele>373.0</ele><time>2026-05-02T14:53:59.7Z</time></trkpt><trkpt lat="40.7870567" lon="15.9638233"><ele>373.0</ele><time>2026-05-02T14:54:00.702Z</time></trkpt><trkpt lat="40.78709" lon="15.9636767"><ele>374.79999999999995</ele><time>2026-05-02T14:54:01.7Z</time></trkpt><trkpt lat="40.7871083" lon="15.96352"><ele>376.6</ele><time>2026-05-02T14:54:02.7Z</time></trkpt><trkpt lat="40.7871217" lon="15.9633683"><ele>378.4</ele><time>2026-05-02T14:54:03.701Z</time></trkpt><trkpt lat="40.7871317" lon="15.963225"><ele>380.20000000000005</ele><time>2026-05-02T14:54:04.701Z</time></trkpt><trkpt lat="40.78714" lon="15.96311"><ele>382.0</ele><time>2026-05-02T14:54:05.702Z</time></trkpt><trkpt lat="40.787145" lon="15.963025"><ele>382.0</ele><time>2026-05-02T14:54:06.7Z</time></trkpt><trkpt lat="40.78713" lon="15.9629167"><ele>382.0</ele><time>2026-05-02T14:54:08.702Z</time></trkpt><trkpt lat="40.7871317" lon="15.9628067"><ele>382.0</ele><time>2026-05-02T14:54:10.7Z</time></trkpt><trkpt lat="40.7871183" lon="15.9627233"><ele>382.0</ele><time>2026-05-02T14:54:12.701Z</time></trkpt><trkpt lat="40.78711" lon="15.9626283"><ele>382.0</ele><time>2026-05-02T14:54:16.7Z</time></trkpt><trkpt lat="40.787085" lon="15.962535"><ele>382.0</ele><time>2026-05-02T14:54:30.699Z</time></trkpt><trkpt lat="40.7870567" lon="15.9624567"><ele>382.0</ele><time>2026-05-02T14:54:33.701Z</time></trkpt><trkpt lat="40.7870233" lon="15.962385"><ele>382.40000000000003</ele><time>2026-05-02T14:54:35.701Z</time></trkpt><trkpt lat="40.7869783" lon="15.9622683"><ele>382.8</ele><time>2026-05-02T14:54:37.7Z</time></trkpt><trkpt lat="40.7869417" lon="15.962145"><ele>383.2</ele><time>2026-05-02T14:54:39.7Z</time></trkpt><trkpt lat="40.7868967" lon="15.9620183"><ele>383.6</ele><time>2026-05-02T14:54:41.7Z</time></trkpt><trkpt lat="40.7868417" lon="15.9618883"><ele>384.0</ele><time>2026-05-02T14:54:43.7Z</time></trkpt><trkpt lat="40.78679" lon="15.96173"><ele>381.6666666666667</ele><time>2026-05-02T14:54:45.7Z</time></trkpt><trkpt lat="40.7867667" lon="15.9616467"><ele>379.3333333333333</ele><time>2026-05-02T14:54:46.7Z</time></trkpt><trkpt lat="40.7867467" lon="15.9615617"><ele>377.0</ele><time>2026-05-02T14:54:47.701Z</time></trkpt><trkpt lat="40.78672" lon="15.9614733"><ele>374.66666666666663</ele><time>2026-05-02T14:54:48.7Z</time></trkpt><trkpt lat="40.7866867" lon="15.9613783"><ele>372.3333333333333</ele><time>2026-05-02T14:54:49.7Z</time></trkpt><trkpt lat="40.7866533" lon="15.96127"><ele>370.0</ele><time>2026-05-02T14:54:50.701Z</time></trkpt><trkpt lat="40.786625" lon="15.96116"><ele>370.0</ele><time>2026-05-02T14:54:51.7Z</time></trkpt><trkpt lat="40.7865967" lon="15.96106"><ele>370.0</ele><time>2026-05-02T14:54:52.701Z</time></trkpt><trkpt lat="40.78657" lon="15.9609667"><ele>370.0</ele><time>2026-05-02T14:54:53.703Z</time></trkpt><trkpt lat="40.78655" lon="15.960865"><ele>370.0</ele><time>2026-05-02T14:54:54.701Z</time></trkpt><trkpt lat="40.7865467" lon="15.9607533"><ele>370.0</ele><time>2026-05-02T14:54:55.701Z</time></trkpt><trkpt lat="40.7865383" lon="15.9606117"><ele>370.0</ele><time>2026-05-02T14:54:56.702Z</time></trkpt><trkpt lat="40.7865317" lon="15.9604667"><ele>371.4</ele><time>2026-05-02T14:54:57.702Z</time></trkpt><trkpt lat="40.7865217" lon="15.9603283"><ele>372.8</ele><time>2026-05-02T14:54:58.7Z</time></trkpt><trkpt lat="40.786505" lon="15.9601933"><ele>374.20000000000005</ele><time>2026-05-02T14:54:59.701Z</time></trkpt><trkpt lat="40.78649" lon="15.9600617"><ele>375.6</ele><time>2026-05-02T14:55:00.701Z</time></trkpt><trkpt lat="40.78648" lon="15.9599383"><ele>377.0</ele><time>2026-05-02T14:55:01.7Z</time></trkpt><trkpt lat="40.7864733" lon="15.9598117"><ele>377.6666666666667</ele><time>2026-05-02T14:55:02.705Z</time></trkpt><trkpt lat="40.786465" lon="15.95969"><ele>378.33333333333337</ele><time>2026-05-02T14:55:03.701Z</time></trkpt><trkpt lat="40.78646" lon="15.95958"><ele>379.0</ele><time>2026-05-02T14:55:04.7Z</time></trkpt><trkpt lat="40.78644" lon="15.9594833"><ele>379.6666666666667</ele><time>2026-05-02T14:55:05.702Z</time></trkpt><trkpt lat="40.7864067" lon="15.95939"><ele>380.3333333333333</ele><time>2026-05-02T14:55:06.702Z</time></trkpt><trkpt lat="40.7863617" lon="15.9593017"><ele>381.0</ele><time>2026-05-02T14:55:07.702Z</time></trkpt><trkpt lat="40.7863083" lon="15.959205"><ele>382.0</ele><time>2026-05-02T14:55:08.702Z</time></trkpt><trkpt lat="40.786245" lon="15.9591133"><ele>383.0</ele><time>2026-05-02T14:55:09.701Z</time></trkpt><trkpt lat="40.78617" lon="15.9590267"><ele>384.0</ele><time>2026-05-02T14:55:10.7Z</time></trkpt><trkpt lat="40.78608" lon="15.958945"><ele>385.0</ele><time>2026-05-02T14:55:11.701Z</time></trkpt><trkpt lat="40.78598" lon="15.9588583"><ele>386.0</ele><time>2026-05-02T14:55:12.701Z</time></trkpt><trkpt lat="40.78586" lon="15.9587667"><ele>380.66666666666663</ele><time>2026-05-02T14:55:13.701Z</time></trkpt><trkpt lat="40.7857067" lon="15.958665"><ele>375.3333333333333</ele><time>2026-05-02T14:55:14.701Z</time></trkpt><trkpt lat="40.7855483" lon="15.9585667"><ele>370.0</ele><time>2026-05-02T14:55:15.701Z</time></trkpt><trkpt lat="40.7854" lon="15.9584733"><ele>370.0</ele><time>2026-05-02T14:55:16.701Z</time></trkpt><trkpt lat="40.78526" lon="15.95838"><ele>370.0</ele><time>2026-05-02T14:55:17.7Z</time></trkpt><trkpt lat="40.7851267" lon="15.95829"><ele>370.0</ele><time>2026-05-02T14:55:18.7Z</time></trkpt><trkpt lat="40.7850067" lon="15.9582067"><ele>370.0</ele><time>2026-05-02T14:55:19.702Z</time></trkpt><trkpt lat="40.7848967" lon="15.95813"><ele>370.75</ele><time>2026-05-02T14:55:20.702Z</time></trkpt><trkpt lat="40.7847933" lon="15.958055"><ele>371.5</ele><time>2026-05-02T14:55:21.701Z</time></trkpt><trkpt lat="40.7846917" lon="15.9579883"><ele>372.25</ele><time>2026-05-02T14:55:22.701Z</time></trkpt><trkpt lat="40.78459" lon="15.957935"><ele>373.0</ele><time>2026-05-02T14:55:23.7Z</time></trkpt><trkpt lat="40.7844883" lon="15.9578783"><ele>373.0</ele><time>2026-05-02T14:55:24.701Z</time></trkpt><trkpt lat="40.78439" lon="15.9578067"><ele>373.0</ele><time>2026-05-02T14:55:25.701Z</time></trkpt><trkpt lat="40.7843" lon="15.9577317"><ele>373.0</ele><time>2026-05-02T14:55:26.701Z</time></trkpt><trkpt lat="40.7842167" lon="15.9576517"><ele>373.0</ele><time>2026-05-02T14:55:27.701Z</time></trkpt><trkpt lat="40.7841383" lon="15.9575667"><ele>373.0</ele><time>2026-05-02T14:55:28.701Z</time></trkpt><trkpt lat="40.7840633" lon="15.9574717"><ele>373.59999999999997</ele><time>2026-05-02T14:55:29.701Z</time></trkpt><trkpt lat="40.783995" lon="15.95737"><ele>374.2</ele><time>2026-05-02T14:55:30.701Z</time></trkpt><trkpt lat="40.78392" lon="15.957265"><ele>374.8</ele><time>2026-05-02T14:55:31.7Z</time></trkpt><trkpt lat="40.7838467" lon="15.9571617"><ele>375.4</ele><time>2026-05-02T14:55:32.701Z</time></trkpt><trkpt lat="40.7837833" lon="15.9570567"><ele>376.0</ele><time>2026-05-02T14:55:33.701Z</time></trkpt><trkpt lat="40.78372" lon="15.9569533"><ele>376.0</ele><time>2026-05-02T14:55:34.7Z</time></trkpt><trkpt lat="40.7836517" lon="15.9568467"><ele>376.0</ele><time>2026-05-02T14:55:35.702Z</time></trkpt><trkpt lat="40.783575" lon="15.9567283"><ele>376.0</ele><time>2026-05-02T14:55:36.701Z</time></trkpt><trkpt lat="40.783485" lon="15.9565917"><ele>376.0</ele><time>2026-05-02T14:55:37.701Z</time></trkpt><trkpt lat="40.783385" lon="15.9564383"><ele>374.3333333333333</ele><time>2026-05-02T14:55:38.702Z</time></trkpt><trkpt lat="40.7832783" lon="15.956265"><ele>372.6666666666667</ele><time>2026-05-02T14:55:39.7Z</time></trkpt><trkpt lat="40.7831717" lon="15.9560867"><ele>371.0</ele><time>2026-05-02T14:55:40.701Z</time></trkpt><trkpt lat="40.78308" lon="15.9559283"><ele>371.0</ele><time>2026-05-02T14:55:41.7Z</time></trkpt><trkpt lat="40.7829917" lon="15.9557883"><ele>371.0</ele><time>2026-05-02T14:55:42.7Z</time></trkpt><trkpt lat="40.78289" lon="15.9556483"><ele>371.0</ele><time>2026-05-02T14:55:43.701Z</time></trkpt><trkpt lat="40.782775" lon="15.9555017"><ele>371.0</ele><time>2026-05-02T14:55:44.7Z</time></trkpt><trkpt lat="40.782655" lon="15.9553483"><ele>371.0</ele><time>2026-05-02T14:55:45.7Z</time></trkpt><trkpt lat="40.7825333" lon="15.9551817"><ele>371.0</ele><time>2026-05-02T14:55:46.702Z</time></trkpt><trkpt lat="40.782415" lon="15.955005"><ele>371.0</ele><time>2026-05-02T14:55:47.701Z</time></trkpt><trkpt lat="40.7822967" lon="15.9548283"><ele>371.0</ele><time>2026-05-02T14:55:48.701Z</time></trkpt><trkpt lat="40.7821817" lon="15.9546533"><ele>371.0</ele><time>2026-05-02T14:55:49.701Z</time></trkpt><trkpt lat="40.7820633" lon="15.954475"><ele>371.0</ele><time>2026-05-02T14:55:50.701Z</time></trkpt><trkpt lat="40.7819433" lon="15.9543033"><ele>372.5</ele><time>2026-05-02T14:55:51.701Z</time></trkpt><trkpt lat="40.7818367" lon="15.9541517"><ele>374.0</ele><time>2026-05-02T14:55:52.702Z</time></trkpt><trkpt lat="40.7817483" lon="15.9540183"><ele>375.5</ele><time>2026-05-02T14:55:53.7Z</time></trkpt><trkpt lat="40.7816683" lon="15.9538917"><ele>377.0</ele><time>2026-05-02T14:55:54.701Z</time></trkpt><trkpt lat="40.7815867" lon="15.9537633"><ele>377.0</ele><time>2026-05-02T14:55:55.702Z</time></trkpt><trkpt lat="40.7814967" lon="15.9536317"><ele>377.0</ele><time>2026-05-02T14:55:56.701Z</time></trkpt><trkpt lat="40.7814033" lon="15.9534917"><ele>377.0</ele><time>2026-05-02T14:55:57.7Z</time></trkpt><trkpt lat="40.7813083" lon="15.9533617"><ele>377.0</ele><time>2026-05-02T14:55:58.701Z</time></trkpt><trkpt lat="40.78122" lon="15.9532467"><ele>378.0</ele><time>2026-05-02T14:55:59.701Z</time></trkpt><trkpt lat="40.7811483" lon="15.9531433"><ele>379.0</ele><time>2026-05-02T14:56:00.701Z</time></trkpt><trkpt lat="40.78108" lon="15.9530467"><ele>380.0</ele><time>2026-05-02T14:56:01.7Z</time></trkpt><trkpt lat="40.78102" lon="15.9529617"><ele>381.0</ele><time>2026-05-02T14:56:02.701Z</time></trkpt><trkpt lat="40.7809617" lon="15.9528883"><ele>382.0</ele><time>2026-05-02T14:56:03.702Z</time></trkpt><trkpt lat="40.7809017" lon="15.9528283"><ele>382.0</ele><time>2026-05-02T14:56:04.701Z</time></trkpt><trkpt lat="40.780835" lon="15.952785"><ele>382.0</ele><time>2026-05-02T14:56:05.701Z</time></trkpt><trkpt lat="40.7807517" lon="15.95276"><ele>382.0</ele><time>2026-05-02T14:56:06.702Z</time></trkpt><trkpt lat="40.780645" lon="15.95276"><ele>382.0</ele><time>2026-05-02T14:56:07.702Z</time></trkpt><trkpt lat="40.78054" lon="15.9527633"><ele>382.0</ele><time>2026-05-02T14:56:08.701Z</time></trkpt><trkpt lat="40.78045" lon="15.9527717"><ele>382.0</ele><time>2026-05-02T14:56:09.701Z</time></trkpt><trkpt lat="40.7803733" lon="15.952785"><ele>382.0</ele><time>2026-05-02T14:56:10.7Z</time></trkpt><trkpt lat="40.7802917" lon="15.9528117"><ele>382.0</ele><time>2026-05-02T14:56:11.701Z</time></trkpt><trkpt lat="40.7802083" lon="15.9528417"><ele>382.0</ele><time>2026-05-02T14:56:12.701Z</time></trkpt><trkpt lat="40.7801233" lon="15.9528683"><ele>382.0</ele><time>2026-05-02T14:56:13.702Z</time></trkpt><trkpt lat="40.7800454" lon="15.9528781"><ele>382.0</ele><time>2026-05-02T14:56:14.702Z</time></trkpt><trkpt lat="40.7799524" lon="15.9528785"><ele>383.0</ele><time>2026-05-02T14:56:15.701Z</time></trkpt><trkpt lat="40.7798494" lon="15.9528568"><ele>384.0</ele><time>2026-05-02T14:56:16.7Z</time></trkpt><trkpt lat="40.7797335" lon="15.9528219"><ele>385.0</ele><time>2026-05-02T14:56:17.701Z</time></trkpt><trkpt lat="40.7796153" lon="15.9527751"><ele>386.0</ele><time>2026-05-02T14:56:18.702Z</time></trkpt><trkpt lat="40.7795089" lon="15.9527205"><ele>386.0</ele><time>2026-05-02T14:56:19.701Z</time></trkpt><trkpt lat="40.779417" lon="15.9526658"><ele>386.0</ele><time>2026-05-02T14:56:20.701Z</time></trkpt><trkpt lat="40.7793374" lon="15.9526059"><ele>386.0</ele><time>2026-05-02T14:56:21.7Z</time></trkpt><trkpt lat="40.7792699" lon="15.9525415"><ele>386.0</ele><time>2026-05-02T14:56:22.7Z</time></trkpt><trkpt lat="40.7792054" lon="15.9524657"><ele>386.0</ele><time>2026-05-02T14:56:23.701Z</time></trkpt><trkpt lat="40.7791331" lon="15.9523786"><ele>384.75</ele><time>2026-05-02T14:56:24.7Z</time></trkpt><trkpt lat="40.779046" lon="15.9522833"><ele>383.5</ele><time>2026-05-02T14:56:25.701Z</time></trkpt><trkpt lat="40.7789498" lon="15.9521743"><ele>382.25</ele><time>2026-05-02T14:56:26.702Z</time></trkpt><trkpt lat="40.7788581" lon="15.9520496"><ele>381.0</ele><time>2026-05-02T14:56:27.7Z</time></trkpt><trkpt lat="40.7787716" lon="15.9519143"><ele>381.0</ele><time>2026-05-02T14:56:28.701Z</time></trkpt><trkpt lat="40.7786846" lon="15.9517804"><ele>381.0</ele><time>2026-05-02T14:56:29.701Z</time></trkpt><trkpt lat="40.7785921" lon="15.9516553"><ele>381.0</ele><time>2026-05-02T14:56:30.701Z</time></trkpt><trkpt lat="40.7785029" lon="15.9515479"><ele>381.0</ele><time>2026-05-02T14:56:31.701Z</time></trkpt><trkpt lat="40.778427" lon="15.9514482"><ele>381.8</ele><time>2026-05-02T14:56:32.701Z</time></trkpt><trkpt lat="40.7783636" lon="15.9513607"><ele>382.6</ele><time>2026-05-02T14:56:33.701Z</time></trkpt><trkpt lat="40.7782384" lon="15.9512675"><ele>383.4</ele><time>2026-05-02T14:56:35.701Z</time></trkpt><trkpt lat="40.7781587" lon="15.9512469"><ele>384.2</ele><time>2026-05-02T14:56:36.7Z</time></trkpt><trkpt lat="40.77807" lon="15.9512389"><ele>385.0</ele><time>2026-05-02T14:56:37.701Z</time></trkpt><trkpt lat="40.7779606" lon="15.9512386"><ele>385.0</ele><time>2026-05-02T14:56:38.702Z</time></trkpt><trkpt lat="40.7778375" lon="15.9512338"><ele>385.0</ele><time>2026-05-02T14:56:39.702Z</time></trkpt><trkpt lat="40.7777016" lon="15.9512348"><ele>385.0</ele><time>2026-05-02T14:56:40.7Z</time></trkpt><trkpt lat="40.7775612" lon="15.9512289"><ele>385.0</ele><time>2026-05-02T14:56:41.702Z</time></trkpt><trkpt lat="40.7774332" lon="15.9512189"><ele>385.0</ele><time>2026-05-02T14:56:42.7Z</time></trkpt><trkpt lat="40.7773159" lon="15.9512081"><ele>385.0</ele><time>2026-05-02T14:56:43.7Z</time></trkpt><trkpt lat="40.7772024" lon="15.9511974"><ele>385.0</ele><time>2026-05-02T14:56:44.701Z</time></trkpt><trkpt lat="40.7770969" lon="15.9511812"><ele>385.0</ele><time>2026-05-02T14:56:45.701Z</time></trkpt><trkpt lat="40.7770055" lon="15.9511555"><ele>385.0</ele><time>2026-05-02T14:56:46.702Z</time></trkpt><trkpt lat="40.7769242" lon="15.9511352"><ele>385.00000000000006</ele><time>2026-05-02T14:56:47.7Z</time></trkpt><trkpt lat="40.7768583" lon="15.9511217"><ele>385.0</ele><time>2026-05-02T14:56:48.702Z</time></trkpt><trkpt lat="40.7767967" lon="15.9511017"><ele>385.0</ele><time>2026-05-02T14:56:49.702Z</time></trkpt><trkpt lat="40.77668" lon="15.9510367"><ele>385.0</ele><time>2026-05-02T14:56:51.7Z</time></trkpt><trkpt lat="40.77662" lon="15.950985"><ele>385.00000000000006</ele><time>2026-05-02T14:56:52.7Z</time></trkpt><trkpt lat="40.7765333" lon="15.9508933"><ele>385.0</ele><time>2026-05-02T14:56:54.7Z</time></trkpt><trkpt lat="40.7764567" lon="15.9508583"><ele>385.0</ele><time>2026-05-02T14:56:56.702Z</time></trkpt><trkpt lat="40.776345" lon="15.9508333"><ele>385.0</ele><time>2026-05-02T14:56:58.702Z</time></trkpt><trkpt lat="40.776235" lon="15.9507883"><ele>385.0</ele><time>2026-05-02T14:57:00.701Z</time></trkpt><trkpt lat="40.7761817" lon="15.9507433"><ele>385.0</ele><time>2026-05-02T14:57:01.701Z</time></trkpt><trkpt lat="40.7761217" lon="15.95068"><ele>385.0</ele><time>2026-05-02T14:57:02.703Z</time></trkpt><trkpt lat="40.776065" lon="15.9506033"><ele>385.2</ele><time>2026-05-02T14:57:03.7Z</time></trkpt><trkpt lat="40.776005" lon="15.950505"><ele>385.4</ele><time>2026-05-02T14:57:04.701Z</time></trkpt><trkpt lat="40.7759433" lon="15.9503933"><ele>385.6</ele><time>2026-05-02T14:57:05.702Z</time></trkpt><trkpt lat="40.775885" lon="15.9502667"><ele>385.8</ele><time>2026-05-02T14:57:06.7Z</time></trkpt><trkpt lat="40.77582" lon="15.95013"><ele>386.0</ele><time>2026-05-02T14:57:07.701Z</time></trkpt><trkpt lat="40.7757467" lon="15.9499817"><ele>386.0</ele><time>2026-05-02T14:57:08.702Z</time></trkpt><trkpt lat="40.77567" lon="15.949825"><ele>386.0</ele><time>2026-05-02T14:57:09.701Z</time></trkpt><trkpt lat="40.775595" lon="15.94966"><ele>386.0</ele><time>2026-05-02T14:57:10.701Z</time></trkpt><trkpt lat="40.77553" lon="15.94951"><ele>386.0</ele><time>2026-05-02T14:57:11.702Z</time></trkpt><trkpt lat="40.775465" lon="15.9493783"><ele>386.0</ele><time>2026-05-02T14:57:12.702Z</time></trkpt><trkpt lat="40.7753917" lon="15.9492583"><ele>386.0</ele><time>2026-05-02T14:57:13.701Z</time></trkpt><trkpt lat="40.7753183" lon="15.9491433"><ele>386.0</ele><time>2026-05-02T14:57:14.703Z</time></trkpt><trkpt lat="40.77523" lon="15.9490367"><ele>386.0</ele><time>2026-05-02T14:57:15.7Z</time></trkpt><trkpt lat="40.7751398" lon="15.9489384"><ele>385.75</ele><time>2026-05-02T14:57:16.701Z</time></trkpt><trkpt lat="40.7750385" lon="15.9488423"><ele>385.5</ele><time>2026-05-02T14:57:17.701Z</time></trkpt><trkpt lat="40.7749266" lon="15.9487636"><ele>385.25</ele><time>2026-05-02T14:57:18.701Z</time></trkpt><trkpt lat="40.7747997" lon="15.9486937"><ele>385.0</ele><time>2026-05-02T14:57:19.702Z</time></trkpt><trkpt lat="40.774665" lon="15.9486292"><ele>385.0</ele><time>2026-05-02T14:57:20.702Z</time></trkpt><trkpt lat="40.7745292" lon="15.9485651"><ele>385.0</ele><time>2026-05-02T14:57:21.7Z</time></trkpt><trkpt lat="40.7743963" lon="15.9485149"><ele>385.0</ele><time>2026-05-02T14:57:22.701Z</time></trkpt><trkpt lat="40.7742717" lon="15.9484808"><ele>385.0</ele><time>2026-05-02T14:57:23.702Z</time></trkpt><trkpt lat="40.7741496" lon="15.9484553"><ele>385.0</ele><time>2026-05-02T14:57:24.702Z</time></trkpt><trkpt lat="40.774024" lon="15.9484362"><ele>385.0</ele><time>2026-05-02T14:57:25.702Z</time></trkpt><trkpt lat="40.7738958" lon="15.9484251"><ele>385.0</ele><time>2026-05-02T14:57:26.703Z</time></trkpt><trkpt lat="40.7737735" lon="15.9484276"><ele>385.0</ele><time>2026-05-02T14:57:27.702Z</time></trkpt><trkpt lat="40.773668" lon="15.9484415"><ele>385.0</ele><time>2026-05-02T14:57:28.703Z</time></trkpt><trkpt lat="40.7735822" lon="15.9484558"><ele>385.0</ele><time>2026-05-02T14:57:29.704Z</time></trkpt><trkpt lat="40.7735132" lon="15.9484639"><ele>385.0</ele><time>2026-05-02T14:57:30.703Z</time></trkpt><trkpt lat="40.7734129" lon="15.9484722"><ele>385.0</ele><time>2026-05-02T14:57:32.704Z</time></trkpt><trkpt lat="40.7732959" lon="15.9485029"><ele>385.0</ele><time>2026-05-02T14:57:34.702Z</time></trkpt><trkpt lat="40.7732053" lon="15.9485186"><ele>385.2</ele><time>2026-05-02T14:57:35.703Z</time></trkpt><trkpt lat="40.7730941" lon="15.9485343"><ele>385.4</ele><time>2026-05-02T14:57:36.704Z</time></trkpt><trkpt lat="40.772977" lon="15.9485573"><ele>385.6</ele><time>2026-05-02T14:57:37.702Z</time></trkpt><trkpt lat="40.7728753" lon="15.9485747"><ele>385.8</ele><time>2026-05-02T14:57:38.703Z</time></trkpt><trkpt lat="40.7727805" lon="15.9485715"><ele>386.0</ele><time>2026-05-02T14:57:39.702Z</time></trkpt><trkpt lat="40.7726805" lon="15.9485394"><ele>386.0</ele><time>2026-05-02T14:57:40.701Z</time></trkpt><trkpt lat="40.7725702" lon="15.9484765"><ele>386.0</ele><time>2026-05-02T14:57:41.702Z</time></trkpt><trkpt lat="40.7724594" lon="15.9484022"><ele>386.0</ele><time>2026-05-02T14:57:42.701Z</time></trkpt><trkpt lat="40.7723628" lon="15.9483243"><ele>386.0</ele><time>2026-05-02T14:57:43.702Z</time></trkpt><trkpt lat="40.7722726" lon="15.9482264"><ele>386.3333333333333</ele><time>2026-05-02T14:57:44.701Z</time></trkpt><trkpt lat="40.7721777" lon="15.9480929"><ele>386.66666666666663</ele><time>2026-05-02T14:57:45.7Z</time></trkpt><trkpt lat="40.7720704" lon="15.94792"><ele>387.0</ele><time>2026-05-02T14:57:46.701Z</time></trkpt><trkpt lat="40.7719442" lon="15.9477175"><ele>387.66666666666663</ele><time>2026-05-02T14:57:47.701Z</time></trkpt><trkpt lat="40.7718133" lon="15.9475103"><ele>388.3333333333333</ele><time>2026-05-02T14:57:48.702Z</time></trkpt><trkpt lat="40.77169" lon="15.9473233"><ele>389.0</ele><time>2026-05-02T14:57:49.702Z</time></trkpt><trkpt lat="40.7715733" lon="15.94716"><ele>389.0</ele><time>2026-05-02T14:57:50.701Z</time></trkpt><trkpt lat="40.7714617" lon="15.9469933"><ele>389.0</ele><time>2026-05-02T14:57:51.702Z</time></trkpt><trkpt lat="40.771365" lon="15.946825"><ele>389.0</ele><time>2026-05-02T14:57:52.701Z</time></trkpt><trkpt lat="40.7712833" lon="15.9466633"><ele>389.75</ele><time>2026-05-02T14:57:53.702Z</time></trkpt><trkpt lat="40.7712017" lon="15.9465333"><ele>390.5</ele><time>2026-05-02T14:57:54.701Z</time></trkpt><trkpt lat="40.7711167" lon="15.9464067"><ele>391.25</ele><time>2026-05-02T14:57:55.7Z</time></trkpt><trkpt lat="40.7710033" lon="15.9462817"><ele>392.0</ele><time>2026-05-02T14:57:56.7Z</time></trkpt><trkpt lat="40.7708767" lon="15.9461583"><ele>392.0</ele><time>2026-05-02T14:57:57.701Z</time></trkpt><trkpt lat="40.7707617" lon="15.9460483"><ele>392.0</ele><time>2026-05-02T14:57:58.701Z</time></trkpt><trkpt lat="40.7706633" lon="15.945945"><ele>392.0</ele><time>2026-05-02T14:57:59.703Z</time></trkpt><trkpt lat="40.7705783" lon="15.9458367"><ele>392.0</ele><time>2026-05-02T14:58:00.701Z</time></trkpt><trkpt lat="40.770505" lon="15.9457467"><ele>392.40000000000003</ele><time>2026-05-02T14:58:01.702Z</time></trkpt><trkpt lat="40.7704467" lon="15.945665"><ele>392.8</ele><time>2026-05-02T14:58:02.702Z</time></trkpt><trkpt lat="40.770395" lon="15.945585"><ele>393.2</ele><time>2026-05-02T14:58:03.702Z</time></trkpt><trkpt lat="40.7703417" lon="15.94549"><ele>393.6</ele><time>2026-05-02T14:58:04.701Z</time></trkpt><trkpt lat="40.7702817" lon="15.9453733"><ele>394.0</ele><time>2026-05-02T14:58:05.701Z</time></trkpt><trkpt lat="40.770215" lon="15.945235"><ele>394.0</ele><time>2026-05-02T14:58:06.701Z</time></trkpt><trkpt lat="40.770145" lon="15.9451017"><ele>394.0</ele><time>2026-05-02T14:58:07.7Z</time></trkpt><trkpt lat="40.7700767" lon="15.9449717"><ele>394.0</ele><time>2026-05-02T14:58:08.702Z</time></trkpt><trkpt lat="40.7700067" lon="15.94483"><ele>394.0</ele><time>2026-05-02T14:58:09.702Z</time></trkpt><trkpt lat="40.7699417" lon="15.9446867"><ele>394.0</ele><time>2026-05-02T14:58:10.701Z</time></trkpt><trkpt lat="40.7698883" lon="15.9445567"><ele>394.0</ele><time>2026-05-02T14:58:11.701Z</time></trkpt><trkpt lat="40.7698483" lon="15.9444333"><ele>394.0</ele><time>2026-05-02T14:58:12.701Z</time></trkpt><trkpt lat="40.7698233" lon="15.9442983"><ele>394.0</ele><time>2026-05-02T14:58:13.702Z</time></trkpt><trkpt lat="40.7698283" lon="15.9441567"><ele>394.0</ele><time>2026-05-02T14:58:14.701Z</time></trkpt><trkpt lat="40.7698433" lon="15.9440183"><ele>393.79999999999995</ele><time>2026-05-02T14:58:15.702Z</time></trkpt><trkpt lat="40.7698633" lon="15.9439033"><ele>393.59999999999997</ele><time>2026-05-02T14:58:16.7Z</time></trkpt><trkpt lat="40.7698833" lon="15.94381"><ele>393.4</ele><time>2026-05-02T14:58:17.7Z</time></trkpt><trkpt lat="40.7699517" lon="15.943695"><ele>393.2</ele><time>2026-05-02T14:58:19.701Z</time></trkpt><trkpt lat="40.7700233" lon="15.9435667"><ele>393.0</ele><time>2026-05-02T14:58:21.701Z</time></trkpt><trkpt lat="40.7700683" lon="15.9434783"><ele>393.0</ele><time>2026-05-02T14:58:22.701Z</time></trkpt><trkpt lat="40.7701217" lon="15.943385"><ele>393.0</ele><time>2026-05-02T14:58:23.701Z</time></trkpt><trkpt lat="40.7701967" lon="15.943275"><ele>393.0</ele><time>2026-05-02T14:58:24.7Z</time></trkpt><trkpt lat="40.7702633" lon="15.94316"><ele>393.0</ele><time>2026-05-02T14:58:25.701Z</time></trkpt><trkpt lat="40.7703167" lon="15.9430517"><ele>393.0</ele><time>2026-05-02T14:58:26.701Z</time></trkpt><trkpt lat="40.7703583" lon="15.9429567"><ele>396.4</ele><time>2026-05-02T14:58:27.701Z</time></trkpt><trkpt lat="40.7703883" lon="15.94286"><ele>399.79999999999995</ele><time>2026-05-02T14:58:28.701Z</time></trkpt><trkpt lat="40.7704017" lon="15.9427417"><ele>403.2</ele><time>2026-05-02T14:58:29.702Z</time></trkpt><trkpt lat="40.7703867" lon="15.942605"><ele>406.6</ele><time>2026-05-02T14:58:30.701Z</time></trkpt><trkpt lat="40.7703567" lon="15.942455"><ele>410.0</ele><time>2026-05-02T14:58:31.7Z</time></trkpt><trkpt lat="40.7703117" lon="15.9423133"><ele>410.0</ele><time>2026-05-02T14:58:32.702Z</time></trkpt><trkpt lat="40.7702483" lon="15.94218"><ele>410.0</ele><time>2026-05-02T14:58:33.702Z</time></trkpt><trkpt lat="40.770185" lon="15.9420583"><ele>410.0</ele><time>2026-05-02T14:58:34.702Z</time></trkpt><trkpt lat="40.7701233" lon="15.9419617"><ele>410.0</ele><time>2026-05-02T14:58:35.702Z</time></trkpt><trkpt lat="40.77006" lon="15.94188"><ele>410.0</ele><time>2026-05-02T14:58:36.7Z</time></trkpt><trkpt lat="40.769985" lon="15.94181"><ele>406.5</ele><time>2026-05-02T14:58:37.7Z</time></trkpt><trkpt lat="40.769885" lon="15.9417483"><ele>403.0</ele><time>2026-05-02T14:58:38.702Z</time></trkpt><trkpt lat="40.7697617" lon="15.9416817"><ele>399.5</ele><time>2026-05-02T14:58:39.702Z</time></trkpt><trkpt lat="40.7696283" lon="15.9416133"><ele>396.0</ele><time>2026-05-02T14:58:40.702Z</time></trkpt><trkpt lat="40.7695017" lon="15.9415433"><ele>396.25</ele><time>2026-05-02T14:58:41.702Z</time></trkpt><trkpt lat="40.7693783" lon="15.9414733"><ele>396.5</ele><time>2026-05-02T14:58:42.702Z</time></trkpt><trkpt lat="40.7692517" lon="15.9414067"><ele>396.75</ele><time>2026-05-02T14:58:43.701Z</time></trkpt><trkpt lat="40.769105" lon="15.94134"><ele>397.0</ele><time>2026-05-02T14:58:44.702Z</time></trkpt><trkpt lat="40.768955" lon="15.9412683"><ele>397.0</ele><time>2026-05-02T14:58:45.701Z</time></trkpt><trkpt lat="40.768825" lon="15.9411933"><ele>397.0</ele><time>2026-05-02T14:58:46.702Z</time></trkpt><trkpt lat="40.7687183" lon="15.9411167"><ele>397.0</ele><time>2026-05-02T14:58:47.702Z</time></trkpt><trkpt lat="40.768635" lon="15.9410383"><ele>397.0</ele><time>2026-05-02T14:58:48.703Z</time></trkpt><trkpt lat="40.7685683" lon="15.9409483"><ele>396.6</ele><time>2026-05-02T14:58:49.702Z</time></trkpt><trkpt lat="40.7685183" lon="15.9408367"><ele>396.20000000000005</ele><time>2026-05-02T14:58:50.703Z</time></trkpt><trkpt lat="40.7684833" lon="15.9407117"><ele>395.8</ele><time>2026-05-02T14:58:51.701Z</time></trkpt><trkpt lat="40.76847" lon="15.9405733"><ele>395.4</ele><time>2026-05-02T14:58:52.701Z</time></trkpt><trkpt lat="40.7684817" lon="15.9404383"><ele>395.0</ele><time>2026-05-02T14:58:53.702Z</time></trkpt><trkpt lat="40.7685167" lon="15.940305"><ele>395.0</ele><time>2026-05-02T14:58:54.702Z</time></trkpt><trkpt lat="40.7685683" lon="15.9401683"><ele>395.0</ele><time>2026-05-02T14:58:55.701Z</time></trkpt><trkpt lat="40.768625" lon="15.94004"><ele>395.0</ele><time>2026-05-02T14:58:56.703Z</time></trkpt><trkpt lat="40.7686917" lon="15.9399233"><ele>395.0</ele><time>2026-05-02T14:58:57.7Z</time></trkpt><trkpt lat="40.76877" lon="15.9398117"><ele>396.0</ele><time>2026-05-02T14:58:58.701Z</time></trkpt><trkpt lat="40.768865" lon="15.9397017"><ele>397.0</ele><time>2026-05-02T14:58:59.701Z</time></trkpt><trkpt lat="40.7689767" lon="15.9395933"><ele>398.0</ele><time>2026-05-02T14:59:00.701Z</time></trkpt><trkpt lat="40.769075" lon="15.939485"><ele>399.0</ele><time>2026-05-02T14:59:01.7Z</time></trkpt><trkpt lat="40.7691617" lon="15.93938"><ele>399.0</ele><time>2026-05-02T14:59:02.7Z</time></trkpt><trkpt lat="40.7692417" lon="15.9392683"><ele>399.0</ele><time>2026-05-02T14:59:03.701Z</time></trkpt><trkpt lat="40.769325" lon="15.939125"><ele>399.0</ele><time>2026-05-02T14:59:04.702Z</time></trkpt><trkpt lat="40.7693983" lon="15.938955"><ele>399.0</ele><time>2026-05-02T14:59:05.702Z</time></trkpt><trkpt lat="40.7694517" lon="15.93878"><ele>402.66666666666663</ele><time>2026-05-02T14:59:06.702Z</time></trkpt><trkpt lat="40.7694933" lon="15.938595"><ele>406.3333333333333</ele><time>2026-05-02T14:59:07.702Z</time></trkpt><trkpt lat="40.7695183" lon="15.9383967"><ele>410.0</ele><time>2026-05-02T14:59:08.702Z</time></trkpt><trkpt lat="40.7695317" lon="15.938175"><ele>410.0</ele><time>2026-05-02T14:59:09.701Z</time></trkpt><trkpt lat="40.7695333" lon="15.937955"><ele>410.0</ele><time>2026-05-02T14:59:10.701Z</time></trkpt><trkpt lat="40.7695317" lon="15.9377567"><ele>410.0</ele><time>2026-05-02T14:59:11.702Z</time></trkpt><trkpt lat="40.7695267" lon="15.9375833"><ele>410.0</ele><time>2026-05-02T14:59:12.701Z</time></trkpt><trkpt lat="40.7695083" lon="15.9374383"><ele>410.3333333333333</ele><time>2026-05-02T14:59:13.701Z</time></trkpt><trkpt lat="40.7694817" lon="15.937325"><ele>410.66666666666663</ele><time>2026-05-02T14:59:14.702Z</time></trkpt><trkpt lat="40.769455" lon="15.9372317"><ele>411.0</ele><time>2026-05-02T14:59:15.701Z</time></trkpt><trkpt lat="40.76944" lon="15.93714"><ele>411.33333333333337</ele><time>2026-05-02T14:59:16.702Z</time></trkpt><trkpt lat="40.7694317" lon="15.9370367"><ele>411.6666666666667</ele><time>2026-05-02T14:59:17.703Z</time></trkpt><trkpt lat="40.7694183" lon="15.9369033"><ele>412.0</ele><time>2026-05-02T14:59:18.703Z</time></trkpt><trkpt lat="40.7693983" lon="15.936695"><ele>412.0</ele><time>2026-05-02T14:59:19.705Z</time></trkpt><trkpt lat="40.769365" lon="15.9364417"><ele>412.0</ele><time>2026-05-02T14:59:20.704Z</time></trkpt><trkpt lat="40.7693317" lon="15.9362017"><ele>412.0</ele><time>2026-05-02T14:59:21.704Z</time></trkpt><trkpt lat="40.769305" lon="15.9359967"><ele>409.0</ele><time>2026-05-02T14:59:22.704Z</time></trkpt><trkpt lat="40.7692833" lon="15.9358117"><ele>406.0</ele><time>2026-05-02T14:59:23.704Z</time></trkpt><trkpt lat="40.7692633" lon="15.93566"><ele>403.0</ele><time>2026-05-02T14:59:24.704Z</time></trkpt><trkpt lat="40.7692583" lon="15.9355267"><ele>400.0</ele><time>2026-05-02T14:59:25.701Z</time></trkpt><trkpt lat="40.769255" lon="15.935395"><ele>400.0</ele><time>2026-05-02T14:59:26.702Z</time></trkpt><trkpt lat="40.769265" lon="15.935235"><ele>400.0</ele><time>2026-05-02T14:59:27.702Z</time></trkpt><trkpt lat="40.7692833" lon="15.9350667"><ele>400.0</ele><time>2026-05-02T14:59:28.701Z</time></trkpt><trkpt lat="40.769305" lon="15.9349067"><ele>400.0</ele><time>2026-05-02T14:59:29.702Z</time></trkpt><trkpt lat="40.76933" lon="15.9347683"><ele>402.75</ele><time>2026-05-02T14:59:30.701Z</time></trkpt><trkpt lat="40.76937" lon="15.934645"><ele>405.5</ele><time>2026-05-02T14:59:31.701Z</time></trkpt><trkpt lat="40.769435" lon="15.934525"><ele>408.25</ele><time>2026-05-02T14:59:32.702Z</time></trkpt><trkpt lat="40.7695217" lon="15.934395"><ele>411.0</ele><time>2026-05-02T14:59:33.701Z</time></trkpt><trkpt lat="40.7696167" lon="15.9342317"><ele>410.33333333333337</ele><time>2026-05-02T14:59:34.701Z</time></trkpt><trkpt lat="40.7697167" lon="15.9340383"><ele>409.6666666666667</ele><time>2026-05-02T14:59:35.701Z</time></trkpt><trkpt lat="40.769815" lon="15.93383"><ele>409.0</ele><time>2026-05-02T14:59:36.701Z</time></trkpt><trkpt lat="40.76991" lon="15.93362"><ele>409.0</ele><time>2026-05-02T14:59:37.702Z</time></trkpt><trkpt lat="40.7700033" lon="15.93342"><ele>409.0</ele><time>2026-05-02T14:59:38.704Z</time></trkpt><trkpt lat="40.770095" lon="15.9332267"><ele>409.0</ele><time>2026-05-02T14:59:39.702Z</time></trkpt><trkpt lat="40.7701883" lon="15.933035"><ele>410.0</ele><time>2026-05-02T14:59:40.702Z</time></trkpt><trkpt lat="40.7702817" lon="15.9328517"><ele>411.0</ele><time>2026-05-02T14:59:41.702Z</time></trkpt><trkpt lat="40.77038" lon="15.9326767"><ele>412.0</ele><time>2026-05-02T14:59:42.7Z</time></trkpt><trkpt lat="40.7704717" lon="15.9324983"><ele>412.0</ele><time>2026-05-02T14:59:43.702Z</time></trkpt><trkpt lat="40.770545" lon="15.9323417"><ele>412.0</ele><time>2026-05-02T14:59:44.701Z</time></trkpt><trkpt lat="40.7706117" lon="15.9322117"><ele>412.0</ele><time>2026-05-02T14:59:45.701Z</time></trkpt><trkpt lat="40.77069" lon="15.93207"><ele>412.0</ele><time>2026-05-02T14:59:46.701Z</time></trkpt><trkpt lat="40.7707683" lon="15.931925"><ele>412.0</ele><time>2026-05-02T14:59:47.702Z</time></trkpt><trkpt lat="40.7708433" lon="15.93179"><ele>412.0</ele><time>2026-05-02T14:59:48.702Z</time></trkpt><trkpt lat="40.7709233" lon="15.9316317"><ele>412.0</ele><time>2026-05-02T14:59:49.702Z</time></trkpt><trkpt lat="40.771015" lon="15.9314517"><ele>412.0</ele><time>2026-05-02T14:59:50.702Z</time></trkpt><trkpt lat="40.77111" lon="15.9312583"><ele>414.33333333333337</ele><time>2026-05-02T14:59:51.701Z</time></trkpt><trkpt lat="40.7712083" lon="15.931065"><ele>416.66666666666663</ele><time>2026-05-02T14:59:52.701Z</time></trkpt><trkpt lat="40.7713061" lon="15.9308711"><ele>419.0</ele><time>2026-05-02T14:59:53.701Z</time></trkpt><trkpt lat="40.771403" lon="15.9306864"><ele>419.0</ele><time>2026-05-02T14:59:54.702Z</time></trkpt><trkpt lat="40.7714978" lon="15.9305113"><ele>419.0</ele><time>2026-05-02T14:59:55.701Z</time></trkpt><trkpt lat="40.7715819" lon="15.9303542"><ele>419.0</ele><time>2026-05-02T14:59:56.703Z</time></trkpt><trkpt lat="40.7716532" lon="15.9302135"><ele>419.0</ele><time>2026-05-02T14:59:57.701Z</time></trkpt><trkpt lat="40.7717149" lon="15.9300917"><ele>417.66666666666663</ele><time>2026-05-02T14:59:58.702Z</time></trkpt><trkpt lat="40.7717662" lon="15.9299883"><ele>416.3333333333333</ele><time>2026-05-02T14:59:59.701Z</time></trkpt><trkpt lat="40.7718031" lon="15.9298965"><ele>415.0</ele><time>2026-05-02T15:00:00.703Z</time></trkpt><trkpt lat="40.7718245" lon="15.9298066"><ele>413.66666666666663</ele><time>2026-05-02T15:00:01.703Z</time></trkpt><trkpt lat="40.7718379" lon="15.9297247"><ele>412.3333333333333</ele><time>2026-05-02T15:00:02.702Z</time></trkpt><trkpt lat="40.7719033" lon="15.9296094"><ele>411.0</ele><time>2026-05-02T15:00:04.702Z</time></trkpt><trkpt lat="40.7720125" lon="15.9295298"><ele>414.6</ele><time>2026-05-02T15:00:06.703Z</time></trkpt><trkpt lat="40.7721221" lon="15.9294748"><ele>418.20000000000005</ele><time>2026-05-02T15:00:08.702Z</time></trkpt><trkpt lat="40.7721738" lon="15.9293705"><ele>421.79999999999995</ele><time>2026-05-02T15:00:10.702Z</time></trkpt><trkpt lat="40.7721712" lon="15.9292055"><ele>425.4</ele><time>2026-05-02T15:00:12.701Z</time></trkpt><trkpt lat="40.7721514" lon="15.9291171"><ele>429.0</ele><time>2026-05-02T15:00:13.702Z</time></trkpt><trkpt lat="40.7721245" lon="15.9290338"><ele>429.0</ele><time>2026-05-02T15:00:14.703Z</time></trkpt><trkpt lat="40.7720996" lon="15.9289519"><ele>429.0</ele><time>2026-05-02T15:00:15.701Z</time></trkpt><trkpt lat="40.7720772" lon="15.9288702"><ele>429.0</ele><time>2026-05-02T15:00:16.701Z</time></trkpt><trkpt lat="40.7720535" lon="15.9287464"><ele>429.0</ele><time>2026-05-02T15:00:18.701Z</time></trkpt><trkpt lat="40.7720683" lon="15.92864"><ele>429.0</ele><time>2026-05-02T15:00:28.701Z</time></trkpt><trkpt lat="40.7721233" lon="15.92851"><ele>429.0</ele><time>2026-05-02T15:00:30.701Z</time></trkpt><trkpt lat="40.7721617" lon="15.9284433"><ele>428.3333333333333</ele><time>2026-05-02T15:00:31.702Z</time></trkpt><trkpt lat="40.7722617" lon="15.928345"><ele>427.66666666666663</ele><time>2026-05-02T15:00:33.701Z</time></trkpt><trkpt lat="40.7723217" lon="15.928305"><ele>427.0</ele><time>2026-05-02T15:00:34.702Z</time></trkpt><trkpt lat="40.7723933" lon="15.9282817"><ele>426.3333333333333</ele><time>2026-05-02T15:00:35.701Z</time></trkpt><trkpt lat="40.7724717" lon="15.92826"><ele>425.66666666666663</ele><time>2026-05-02T15:00:36.701Z</time></trkpt><trkpt lat="40.7725483" lon="15.92824"><ele>425.0</ele><time>2026-05-02T15:00:37.702Z</time></trkpt><trkpt lat="40.7726133" lon="15.9282383"><ele>428.6</ele><time>2026-05-02T15:00:38.702Z</time></trkpt><trkpt lat="40.7727183" lon="15.9282717"><ele>432.2</ele><time>2026-05-02T15:00:40.702Z</time></trkpt><trkpt lat="40.7727417" lon="15.92841"><ele>435.79999999999995</ele><time>2026-05-02T15:00:42.702Z</time></trkpt><trkpt lat="40.7727333" lon="15.9285367"><ele>439.4</ele><time>2026-05-02T15:00:43.701Z</time></trkpt><trkpt lat="40.7727183" lon="15.9286717"><ele>443.0</ele><time>2026-05-02T15:00:44.701Z</time></trkpt><trkpt lat="40.7727" lon="15.928825"><ele>440.66666666666663</ele><time>2026-05-02T15:00:45.701Z</time></trkpt><trkpt lat="40.7726883" lon="15.9289617"><ele>438.3333333333333</ele><time>2026-05-02T15:00:46.701Z</time></trkpt><trkpt lat="40.77268" lon="15.9290767"><ele>436.0</ele><time>2026-05-02T15:00:47.702Z</time></trkpt><trkpt lat="40.77268" lon="15.9291733"><ele>433.66666666666663</ele><time>2026-05-02T15:00:48.701Z</time></trkpt><trkpt lat="40.7726933" lon="15.929305"><ele>431.3333333333333</ele><time>2026-05-02T15:00:50.703Z</time></trkpt><trkpt lat="40.77276" lon="15.929335"><ele>429.0</ele><time>2026-05-02T15:00:52.701Z</time></trkpt><trkpt lat="40.7728533" lon="15.92924"><ele>433.79999999999995</ele><time>2026-05-02T15:00:54.702Z</time></trkpt><trkpt lat="40.7729217" lon="15.929135"><ele>438.59999999999997</ele><time>2026-05-02T15:00:55.702Z</time></trkpt><trkpt lat="40.773005" lon="15.92901"><ele>443.4</ele><time>2026-05-02T15:00:56.702Z</time></trkpt><trkpt lat="40.773075" lon="15.9289133"><ele>448.2</ele><time>2026-05-02T15:00:57.701Z</time></trkpt><trkpt lat="40.773135" lon="15.9288433"><ele>453.0</ele><time>2026-05-02T15:00:58.702Z</time></trkpt><trkpt lat="40.77322" lon="15.928805"><ele>453.0</ele><time>2026-05-02T15:01:00.701Z</time></trkpt><trkpt lat="40.7732367" lon="15.928925"><ele>452.99999999999994</ele><time>2026-05-02T15:01:03.701Z</time></trkpt><trkpt lat="40.773195" lon="15.929085"><ele>452.99999999999994</ele><time>2026-05-02T15:01:05.702Z</time></trkpt><trkpt lat="40.7731617" lon="15.9292083"><ele>453.0</ele><time>2026-05-02T15:01:06.702Z</time></trkpt><trkpt lat="40.7731233" lon="15.9293317"><ele>453.0</ele><time>2026-05-02T15:01:07.7Z</time></trkpt><trkpt lat="40.7730933" lon="15.9294483"><ele>454.3333333333333</ele><time>2026-05-02T15:01:08.703Z</time></trkpt><trkpt lat="40.7730733" lon="15.9295483"><ele>455.66666666666663</ele><time>2026-05-02T15:01:09.702Z</time></trkpt><trkpt lat="40.773065" lon="15.92964"><ele>457.0</ele><time>2026-05-02T15:01:10.702Z</time></trkpt><trkpt lat="40.77307" lon="15.92973"><ele>458.3333333333333</ele><time>2026-05-02T15:01:11.702Z</time></trkpt><trkpt lat="40.7730733" lon="15.9298167"><ele>459.66666666666663</ele><time>2026-05-02T15:01:12.702Z</time></trkpt><trkpt lat="40.7730983" lon="15.9299183"><ele>461.0</ele><time>2026-05-02T15:01:14.702Z</time></trkpt><trkpt lat="40.7731017" lon="15.93004"><ele>460.99999999999994</ele><time>2026-05-02T15:01:17.701Z</time></trkpt><trkpt lat="40.77314" lon="15.9301367"><ele>461.0</ele><time>2026-05-02T15:01:20.703Z</time></trkpt><trkpt lat="40.773215" lon="15.930125"><ele>461.0</ele><time>2026-05-02T15:01:23.702Z</time></trkpt><trkpt lat="40.77328" lon="15.9300633"><ele>461.0</ele><time>2026-05-02T15:01:25.702Z</time></trkpt><trkpt lat="40.7733283" lon="15.9300067"><ele>460.99999999999994</ele><time>2026-05-02T15:01:26.702Z</time></trkpt><trkpt lat="40.773385" lon="15.9299417"><ele>461.0</ele><time>2026-05-02T15:01:27.701Z</time></trkpt><trkpt lat="40.7734583" lon="15.9298617"><ele>465.25</ele><time>2026-05-02T15:01:28.701Z</time></trkpt><trkpt lat="40.7735467" lon="15.9297683"><ele>469.5</ele><time>2026-05-02T15:01:29.702Z</time></trkpt><trkpt lat="40.7736567" lon="15.9296617"><ele>473.75</ele><time>2026-05-02T15:01:30.702Z</time></trkpt><trkpt lat="40.77378" lon="15.9295467"><ele>478.0</ele><time>2026-05-02T15:01:31.702Z</time></trkpt><trkpt lat="40.773925" lon="15.929415"><ele>478.0</ele><time>2026-05-02T15:01:32.702Z</time></trkpt><trkpt lat="40.7740883" lon="15.9292617"><ele>478.0</ele><time>2026-05-02T15:01:33.701Z</time></trkpt><trkpt lat="40.77425" lon="15.92911"><ele>478.0</ele><time>2026-05-02T15:01:34.701Z</time></trkpt><trkpt lat="40.7744067" lon="15.9289717"><ele>478.33333333333337</ele><time>2026-05-02T15:01:35.701Z</time></trkpt><trkpt lat="40.77455" lon="15.928845"><ele>478.66666666666663</ele><time>2026-05-02T15:01:36.702Z</time></trkpt><trkpt lat="40.774685" lon="15.928725"><ele>479.0</ele><time>2026-05-02T15:01:37.702Z</time></trkpt><trkpt lat="40.7748133" lon="15.9286083"><ele>479.0</ele><time>2026-05-02T15:01:38.701Z</time></trkpt><trkpt lat="40.77494" lon="15.9284917"><ele>479.0</ele><time>2026-05-02T15:01:39.702Z</time></trkpt><trkpt lat="40.7750583" lon="15.92838"><ele>479.0</ele><time>2026-05-02T15:01:40.702Z</time></trkpt><trkpt lat="40.775165" lon="15.9282817"><ele>479.0</ele><time>2026-05-02T15:01:41.701Z</time></trkpt><trkpt lat="40.7752567" lon="15.928195"><ele>480.8333333333333</ele><time>2026-05-02T15:01:42.7Z</time></trkpt><trkpt lat="40.775335" lon="15.9281183"><ele>482.66666666666663</ele><time>2026-05-02T15:01:43.701Z</time></trkpt><trkpt lat="40.7753967" lon="15.9280583"><ele>484.5</ele><time>2026-05-02T15:01:44.703Z</time></trkpt><trkpt lat="40.7754517" lon="15.928005"><ele>486.33333333333337</ele><time>2026-05-02T15:01:45.701Z</time></trkpt><trkpt lat="40.77555" lon="15.9279067"><ele>488.1666666666667</ele><time>2026-05-02T15:01:47.702Z</time></trkpt><trkpt lat="40.77557" lon="15.927805"><ele>490.0</ele><time>2026-05-02T15:01:49.701Z</time></trkpt><trkpt lat="40.7754983" lon="15.927765"><ele>490.00000000000006</ele><time>2026-05-02T15:01:51.701Z</time></trkpt><trkpt lat="40.7754333" lon="15.9277383"><ele>490.0</ele><time>2026-05-02T15:01:52.701Z</time></trkpt><trkpt lat="40.7753683" lon="15.927695"><ele>490.0</ele><time>2026-05-02T15:01:53.702Z</time></trkpt><trkpt lat="40.77531" lon="15.9276333"><ele>490.0</ele><time>2026-05-02T15:01:54.701Z</time></trkpt><trkpt lat="40.7752683" lon="15.9275633"><ele>490.00000000000006</ele><time>2026-05-02T15:01:55.701Z</time></trkpt><trkpt lat="40.7752567" lon="15.92742"><ele>490.0</ele><time>2026-05-02T15:01:57.701Z</time></trkpt><trkpt lat="40.77534" lon="15.9273283"><ele>488.0</ele><time>2026-05-02T15:01:59.704Z</time></trkpt><trkpt lat="40.77544" lon="15.927285"><ele>486.0</ele><time>2026-05-02T15:02:01.702Z</time></trkpt><trkpt lat="40.7755483" lon="15.9272983"><ele>484.0</ele><time>2026-05-02T15:02:03.703Z</time></trkpt><trkpt lat="40.7756617" lon="15.9272933"><ele>482.0</ele><time>2026-05-02T15:02:05.703Z</time></trkpt><trkpt lat="40.775735" lon="15.92729"><ele>480.0</ele><time>2026-05-02T15:02:06.702Z</time></trkpt><trkpt lat="40.7758167" lon="15.9272983"><ele>480.0</ele><time>2026-05-02T15:02:07.702Z</time></trkpt><trkpt lat="40.7759133" lon="15.9273033"><ele>480.0</ele><time>2026-05-02T15:02:08.702Z</time></trkpt><trkpt lat="40.77603" lon="15.927305"><ele>480.0</ele><time>2026-05-02T15:02:09.702Z</time></trkpt><trkpt lat="40.77615" lon="15.9273083"><ele>480.0</ele><time>2026-05-02T15:02:10.702Z</time></trkpt><trkpt lat="40.7762633" lon="15.927315"><ele>480.0</ele><time>2026-05-02T15:02:11.702Z</time></trkpt><trkpt lat="40.7763633" lon="15.9273267"><ele>482.1666666666667</ele><time>2026-05-02T15:02:12.702Z</time></trkpt><trkpt lat="40.77645" lon="15.9273283"><ele>484.33333333333337</ele><time>2026-05-02T15:02:13.703Z</time></trkpt><trkpt lat="40.776535" lon="15.9273067"><ele>486.5</ele><time>2026-05-02T15:02:14.705Z</time></trkpt><trkpt lat="40.77661" lon="15.927265"><ele>488.6666666666667</ele><time>2026-05-02T15:02:15.702Z</time></trkpt><trkpt lat="40.7766717" lon="15.9271983"><ele>490.83333333333337</ele><time>2026-05-02T15:02:16.702Z</time></trkpt><trkpt lat="40.7767017" lon="15.9270917"><ele>493.0</ele><time>2026-05-02T15:02:17.703Z</time></trkpt><trkpt lat="40.77671" lon="15.926975"><ele>493.0</ele><time>2026-05-02T15:02:18.702Z</time></trkpt><trkpt lat="40.7767033" lon="15.92685"><ele>492.99999999999994</ele><time>2026-05-02T15:02:19.702Z</time></trkpt><trkpt lat="40.776695" lon="15.92672"><ele>492.99999999999994</ele><time>2026-05-02T15:02:20.703Z</time></trkpt><trkpt lat="40.7766883" lon="15.9265833"><ele>493.0</ele><time>2026-05-02T15:02:21.702Z</time></trkpt><trkpt lat="40.7766833" lon="15.92644"><ele>493.0</ele><time>2026-05-02T15:02:22.701Z</time></trkpt><trkpt lat="40.77668" lon="15.9263"><ele>491.79999999999995</ele><time>2026-05-02T15:02:23.701Z</time></trkpt><trkpt lat="40.7766867" lon="15.926165"><ele>490.59999999999997</ele><time>2026-05-02T15:02:24.707Z</time></trkpt><trkpt lat="40.7767067" lon="15.9260283"><ele>489.40000000000003</ele><time>2026-05-02T15:02:25.702Z</time></trkpt><trkpt lat="40.77674" lon="15.9258883"><ele>488.20000000000005</ele><time>2026-05-02T15:02:26.703Z</time></trkpt><trkpt lat="40.7767817" lon="15.92574"><ele>487.0</ele><time>2026-05-02T15:02:27.701Z</time></trkpt><trkpt lat="40.7768283" lon="15.9255867"><ele>491.75</ele><time>2026-05-02T15:02:28.702Z</time></trkpt><trkpt lat="40.7768833" lon="15.92543"><ele>496.5</ele><time>2026-05-02T15:02:29.701Z</time></trkpt><trkpt lat="40.77695" lon="15.92526"><ele>501.25</ele><time>2026-05-02T15:02:30.702Z</time></trkpt><trkpt lat="40.7770233" lon="15.92508"><ele>506.0</ele><time>2026-05-02T15:02:31.705Z</time></trkpt><trkpt lat="40.7770983" lon="15.9249017"><ele>506.0</ele><time>2026-05-02T15:02:32.707Z</time></trkpt><trkpt lat="40.7771733" lon="15.9247267"><ele>506.0</ele><time>2026-05-02T15:02:33.702Z</time></trkpt><trkpt lat="40.7772467" lon="15.9245517"><ele>506.0</ele><time>2026-05-02T15:02:34.703Z</time></trkpt><trkpt lat="40.7773217" lon="15.924375"><ele>502.3333333333333</ele><time>2026-05-02T15:02:35.702Z</time></trkpt><trkpt lat="40.7773983" lon="15.9241983"><ele>498.66666666666663</ele><time>2026-05-02T15:02:36.702Z</time></trkpt><trkpt lat="40.7774767" lon="15.92402"><ele>495.0</ele><time>2026-05-02T15:02:37.701Z</time></trkpt><trkpt lat="40.77756" lon="15.9238433"><ele>495.0</ele><time>2026-05-02T15:02:38.701Z</time></trkpt><trkpt lat="40.7776417" lon="15.9236717"><ele>495.0</ele><time>2026-05-02T15:02:39.702Z</time></trkpt><trkpt lat="40.77772" lon="15.9235133"><ele>495.0</ele><time>2026-05-02T15:02:40.702Z</time></trkpt><trkpt lat="40.7777933" lon="15.92337"><ele>495.0</ele><time>2026-05-02T15:02:41.703Z</time></trkpt><trkpt lat="40.7778717" lon="15.923235"><ele>499.5</ele><time>2026-05-02T15:02:42.702Z</time></trkpt><trkpt lat="40.7779533" lon="15.9231083"><ele>504.0</ele><time>2026-05-02T15:02:43.701Z</time></trkpt><trkpt lat="40.7780383" lon="15.9229833"><ele>508.5</ele><time>2026-05-02T15:02:44.705Z</time></trkpt><trkpt lat="40.7781167" lon="15.9228633"><ele>513.0</ele><time>2026-05-02T15:02:45.701Z</time></trkpt><trkpt lat="40.778185" lon="15.9227483"><ele>513.0</ele><time>2026-05-02T15:02:46.701Z</time></trkpt><trkpt lat="40.7782367" lon="15.9226467"><ele>513.0</ele><time>2026-05-02T15:02:47.702Z</time></trkpt><trkpt lat="40.7782717" lon="15.9225483"><ele>513.0</ele><time>2026-05-02T15:02:48.701Z</time></trkpt><trkpt lat="40.7782917" lon="15.92245"><ele>513.0</ele><time>2026-05-02T15:02:49.702Z</time></trkpt><trkpt lat="40.7783033" lon="15.922355"><ele>513.0</ele><time>2026-05-02T15:02:50.701Z</time></trkpt><trkpt lat="40.7783167" lon="15.9222517"><ele>513.0</ele><time>2026-05-02T15:02:51.702Z</time></trkpt><trkpt lat="40.7783333" lon="15.92215"><ele>511.59999999999997</ele><time>2026-05-02T15:02:52.702Z</time></trkpt><trkpt lat="40.7783633" lon="15.9220017"><ele>510.19999999999993</ele><time>2026-05-02T15:02:54.702Z</time></trkpt><trkpt lat="40.7783483" lon="15.9218983"><ele>508.8</ele><time>2026-05-02T15:02:56.702Z</time></trkpt><trkpt lat="40.7782883" lon="15.921815"><ele>507.4</ele><time>2026-05-02T15:02:58.702Z</time></trkpt><trkpt lat="40.7782717" lon="15.9217133"><ele>506.0</ele><time>2026-05-02T15:03:00.701Z</time></trkpt><trkpt lat="40.7782983" lon="15.9215867"><ele>504.6</ele><time>2026-05-02T15:03:02.702Z</time></trkpt><trkpt lat="40.77834" lon="15.9214983"><ele>503.20000000000005</ele><time>2026-05-02T15:03:04.702Z</time></trkpt><trkpt lat="40.7784083" lon="15.9213817"><ele>501.79999999999995</ele><time>2026-05-02T15:03:06.703Z</time></trkpt><trkpt lat="40.778455" lon="15.9212967"><ele>500.4</ele><time>2026-05-02T15:03:07.703Z</time></trkpt><trkpt lat="40.7785133" lon="15.9211917"><ele>499.0</ele><time>2026-05-02T15:03:08.702Z</time></trkpt><trkpt lat="40.7785767" lon="15.9210633"><ele>500.0</ele><time>2026-05-02T15:03:09.701Z</time></trkpt><trkpt lat="40.7786417" lon="15.9209233"><ele>501.0</ele><time>2026-05-02T15:03:10.7Z</time></trkpt><trkpt lat="40.7787117" lon="15.920785"><ele>502.0</ele><time>2026-05-02T15:03:11.702Z</time></trkpt><trkpt lat="40.7787783" lon="15.920655"><ele>503.0</ele><time>2026-05-02T15:03:12.702Z</time></trkpt><trkpt lat="40.7788367" lon="15.9205367"><ele>502.99999999999994</ele><time>2026-05-02T15:03:13.702Z</time></trkpt><trkpt lat="40.7788817" lon="15.920435"><ele>503.0</ele><time>2026-05-02T15:03:14.703Z</time></trkpt><trkpt lat="40.7789233" lon="15.920345"><ele>503.0</ele><time>2026-05-02T15:03:15.702Z</time></trkpt><trkpt lat="40.778965" lon="15.92027"><ele>503.0</ele><time>2026-05-02T15:03:16.702Z</time></trkpt><trkpt lat="40.77901" lon="15.9202067"><ele>502.99999999999994</ele><time>2026-05-02T15:03:17.702Z</time></trkpt><trkpt lat="40.7791067" lon="15.9201167"><ele>503.0</ele><time>2026-05-02T15:03:19.703Z</time></trkpt><trkpt lat="40.7791867" lon="15.9200083"><ele>501.2</ele><time>2026-05-02T15:03:21.702Z</time></trkpt><trkpt lat="40.7792367" lon="15.9198867"><ele>499.4</ele><time>2026-05-02T15:03:23.707Z</time></trkpt><trkpt lat="40.7792417" lon="15.9197633"><ele>497.59999999999997</ele><time>2026-05-02T15:03:25.703Z</time></trkpt><trkpt lat="40.7791717" lon="15.9196433"><ele>495.79999999999995</ele><time>2026-05-02T15:03:27.701Z</time></trkpt><trkpt lat="40.7791083" lon="15.919575"><ele>494.0</ele><time>2026-05-02T15:03:28.703Z</time></trkpt><trkpt lat="40.7790283" lon="15.9194967"><ele>494.0</ele><time>2026-05-02T15:03:29.702Z</time></trkpt><trkpt lat="40.77893" lon="15.9194"><ele>494.0</ele><time>2026-05-02T15:03:30.702Z</time></trkpt><trkpt lat="40.77884" lon="15.9193083"><ele>494.0</ele><time>2026-05-02T15:03:31.702Z</time></trkpt><trkpt lat="40.7787617" lon="15.919225"><ele>494.0</ele><time>2026-05-02T15:03:32.702Z</time></trkpt><trkpt lat="40.778695" lon="15.9191467"><ele>494.0</ele><time>2026-05-02T15:03:33.701Z</time></trkpt><trkpt lat="40.77864" lon="15.919065"><ele>493.8333333333333</ele><time>2026-05-02T15:03:34.703Z</time></trkpt><trkpt lat="40.7785933" lon="15.9189833"><ele>493.66666666666663</ele><time>2026-05-02T15:03:35.701Z</time></trkpt><trkpt lat="40.7785567" lon="15.91889"><ele>493.5</ele><time>2026-05-02T15:03:36.701Z</time></trkpt><trkpt lat="40.7785383" lon="15.9187883"><ele>493.33333333333337</ele><time>2026-05-02T15:03:37.702Z</time></trkpt><trkpt lat="40.7785417" lon="15.9186733"><ele>493.1666666666667</ele><time>2026-05-02T15:03:38.703Z</time></trkpt><trkpt lat="40.778565" lon="15.9185417"><ele>493.0</ele><time>2026-05-02T15:03:39.702Z</time></trkpt><trkpt lat="40.7786017" lon="15.9183967"><ele>491.79999999999995</ele><time>2026-05-02T15:03:40.702Z</time></trkpt><trkpt lat="40.7786467" lon="15.9182533"><ele>490.59999999999997</ele><time>2026-05-02T15:03:41.702Z</time></trkpt><trkpt lat="40.77869" lon="15.91813"><ele>489.40000000000003</ele><time>2026-05-02T15:03:42.703Z</time></trkpt><trkpt lat="40.7787267" lon="15.9180217"><ele>488.20000000000005</ele><time>2026-05-02T15:03:43.702Z</time></trkpt><trkpt lat="40.77875" lon="15.9179233"><ele>487.0</ele><time>2026-05-02T15:03:44.701Z</time></trkpt><trkpt lat="40.778755" lon="15.917835"><ele>487.00000000000006</ele><time>2026-05-02T15:03:45.701Z</time></trkpt><trkpt lat="40.7787183" lon="15.91769"><ele>487.0</ele><time>2026-05-02T15:03:47.702Z</time></trkpt><trkpt lat="40.778655" lon="15.917665"><ele>487.0</ele><time>2026-05-02T15:03:48.703Z</time></trkpt><trkpt lat="40.7785917" lon="15.9176717"><ele>487.0</ele><time>2026-05-02T15:03:49.703Z</time></trkpt><trkpt lat="40.778535" lon="15.9177083"><ele>487.00000000000006</ele><time>2026-05-02T15:03:50.703Z</time></trkpt><trkpt lat="40.7784833" lon="15.9177817"><ele>487.0</ele><time>2026-05-02T15:03:51.703Z</time></trkpt><trkpt lat="40.7784317" lon="15.9178783"><ele>484.6</ele><time>2026-05-02T15:03:52.703Z</time></trkpt><trkpt lat="40.7783733" lon="15.9180217"><ele>482.20000000000005</ele><time>2026-05-02T15:03:53.703Z</time></trkpt><trkpt lat="40.7783167" lon="15.9181567"><ele>479.8</ele><time>2026-05-02T15:03:54.702Z</time></trkpt><trkpt lat="40.7782617" lon="15.9182767"><ele>477.4</ele><time>2026-05-02T15:03:55.702Z</time></trkpt><trkpt lat="40.77821" lon="15.9183667"><ele>475.0</ele><time>2026-05-02T15:03:56.703Z</time></trkpt><trkpt lat="40.778155" lon="15.91842"><ele>475.0</ele><time>2026-05-02T15:03:57.702Z</time></trkpt><trkpt lat="40.778045" lon="15.91842"><ele>475.0</ele><time>2026-05-02T15:03:59.701Z</time></trkpt><trkpt lat="40.77798" lon="15.9182817"><ele>475.0</ele><time>2026-05-02T15:04:01.701Z</time></trkpt><trkpt lat="40.777985" lon="15.9181833"><ele>475.0</ele><time>2026-05-02T15:04:02.703Z</time></trkpt><trkpt lat="40.7780133" lon="15.918065"><ele>475.0</ele><time>2026-05-02T15:04:03.701Z</time></trkpt><trkpt lat="40.7780433" lon="15.9179317"><ele>475.00000000000006</ele><time>2026-05-02T15:04:04.701Z</time></trkpt><trkpt lat="40.7780717" lon="15.9178067"><ele>475.0</ele><time>2026-05-02T15:04:05.702Z</time></trkpt><trkpt lat="40.7781067" lon="15.9176967"><ele>475.0</ele><time>2026-05-02T15:04:06.702Z</time></trkpt><trkpt lat="40.77815" lon="15.9176033"><ele>475.0</ele><time>2026-05-02T15:04:07.701Z</time></trkpt><trkpt lat="40.778205" lon="15.9175217"><ele>475.00000000000006</ele><time>2026-05-02T15:04:08.702Z</time></trkpt><trkpt lat="40.77827" lon="15.9174567"><ele>475.0</ele><time>2026-05-02T15:04:09.701Z</time></trkpt><trkpt lat="40.7783467" lon="15.917395"><ele>474.50000000000006</ele><time>2026-05-02T15:04:10.701Z</time></trkpt><trkpt lat="40.77842" lon="15.917335"><ele>474.0</ele><time>2026-05-02T15:04:11.702Z</time></trkpt><trkpt lat="40.7784833" lon="15.9172683"><ele>473.5</ele><time>2026-05-02T15:04:12.701Z</time></trkpt><trkpt lat="40.77853" lon="15.9172"><ele>473.0</ele><time>2026-05-02T15:04:13.701Z</time></trkpt><trkpt lat="40.778565" lon="15.9170717"><ele>472.50000000000006</ele><time>2026-05-02T15:04:15.701Z</time></trkpt><trkpt lat="40.7785117" lon="15.9169833"><ele>472.0</ele><time>2026-05-02T15:04:17.702Z</time></trkpt><trkpt lat="40.7784383" lon="15.9169783"><ele>471.20000000000005</ele><time>2026-05-02T15:04:18.701Z</time></trkpt><trkpt lat="40.778355" lon="15.9169967"><ele>470.40000000000003</ele><time>2026-05-02T15:04:19.702Z</time></trkpt><trkpt lat="40.77825" lon="15.9170333"><ele>469.59999999999997</ele><time>2026-05-02T15:04:20.703Z</time></trkpt><trkpt lat="40.7781383" lon="15.9170667"><ele>468.79999999999995</ele><time>2026-05-02T15:04:21.7Z</time></trkpt><trkpt lat="40.7780283" lon="15.9170967"><ele>468.0</ele><time>2026-05-02T15:04:22.7Z</time></trkpt><trkpt lat="40.7779217" lon="15.917125"><ele>468.0</ele><time>2026-05-02T15:04:23.702Z</time></trkpt><trkpt lat="40.777825" lon="15.9171533"><ele>467.99999999999994</ele><time>2026-05-02T15:04:24.701Z</time></trkpt><trkpt lat="40.7777333" lon="15.917195"><ele>467.99999999999994</ele><time>2026-05-02T15:04:25.702Z</time></trkpt><trkpt lat="40.777645" lon="15.9172583"><ele>468.0</ele><time>2026-05-02T15:04:26.703Z</time></trkpt><trkpt lat="40.77757" lon="15.9173417"><ele>468.0</ele><time>2026-05-02T15:04:27.702Z</time></trkpt><trkpt lat="40.7775083" lon="15.9174433"><ele>465.79999999999995</ele><time>2026-05-02T15:04:28.702Z</time></trkpt><trkpt lat="40.7774533" lon="15.9175633"><ele>463.59999999999997</ele><time>2026-05-02T15:04:29.703Z</time></trkpt><trkpt lat="40.7774" lon="15.9176833"><ele>461.40000000000003</ele><time>2026-05-02T15:04:30.703Z</time></trkpt><trkpt lat="40.7773433" lon="15.917795"><ele>459.20000000000005</ele><time>2026-05-02T15:04:31.701Z</time></trkpt><trkpt lat="40.777285" lon="15.9178967"><ele>457.0</ele><time>2026-05-02T15:04:32.702Z</time></trkpt><trkpt lat="40.7772383" lon="15.917995"><ele>457.00000000000006</ele><time>2026-05-02T15:04:33.701Z</time></trkpt><trkpt lat="40.7772017" lon="15.9180917"><ele>457.0</ele><time>2026-05-02T15:04:34.702Z</time></trkpt><trkpt lat="40.777175" lon="15.91817"><ele>457.0</ele><time>2026-05-02T15:04:35.702Z</time></trkpt><trkpt lat="40.7771233" lon="15.9182383"><ele>457.0</ele><time>2026-05-02T15:04:37.701Z</time></trkpt><trkpt lat="40.7770883" lon="15.9181517"><ele>457.00000000000006</ele><time>2026-05-02T15:04:41.701Z</time></trkpt><trkpt lat="40.777115" lon="15.9180417"><ele>457.0</ele><time>2026-05-02T15:04:43.702Z</time></trkpt><trkpt lat="40.7771383" lon="15.917955"><ele>457.00000000000006</ele><time>2026-05-02T15:04:44.702Z</time></trkpt><trkpt lat="40.77716" lon="15.9178567"><ele>457.0</ele><time>2026-05-02T15:04:45.701Z</time></trkpt><trkpt lat="40.7771683" lon="15.9177617"><ele>457.0</ele><time>2026-05-02T15:04:46.7Z</time></trkpt><trkpt lat="40.77716" lon="15.9176583"><ele>457.0</ele><time>2026-05-02T15:04:47.7Z</time></trkpt><trkpt lat="40.7771367" lon="15.917545"><ele>457.00000000000006</ele><time>2026-05-02T15:04:48.702Z</time></trkpt><trkpt lat="40.7771033" lon="15.91742"><ele>457.0</ele><time>2026-05-02T15:04:49.701Z</time></trkpt><trkpt lat="40.7770733" lon="15.9173033"><ele>456.6666666666667</ele><time>2026-05-02T15:04:50.702Z</time></trkpt><trkpt lat="40.777045" lon="15.917195"><ele>456.33333333333337</ele><time>2026-05-02T15:04:51.7Z</time></trkpt><trkpt lat="40.77702" lon="15.9170967"><ele>456.0</ele><time>2026-05-02T15:04:52.702Z</time></trkpt><trkpt lat="40.7770017" lon="15.9170033"><ele>455.66666666666663</ele><time>2026-05-02T15:04:53.702Z</time></trkpt><trkpt lat="40.77699" lon="15.916915"><ele>455.3333333333333</ele><time>2026-05-02T15:04:54.701Z</time></trkpt><trkpt lat="40.7769867" lon="15.91683"><ele>455.0</ele><time>2026-05-02T15:04:55.701Z</time></trkpt><trkpt lat="40.777" lon="15.9166667"><ele>453.4</ele><time>2026-05-02T15:04:57.701Z</time></trkpt><trkpt lat="40.7769917" lon="15.91652"><ele>451.8</ele><time>2026-05-02T15:04:59.701Z</time></trkpt><trkpt lat="40.7770117" lon="15.916405"><ele>450.20000000000005</ele><time>2026-05-02T15:05:01.701Z</time></trkpt><trkpt lat="40.777095" lon="15.916335"><ele>448.6</ele><time>2026-05-02T15:05:03.7Z</time></trkpt><trkpt lat="40.7772133" lon="15.916295"><ele>447.0</ele><time>2026-05-02T15:05:05.701Z</time></trkpt><trkpt lat="40.7773183" lon="15.9162433"><ele>447.0</ele><time>2026-05-02T15:05:07.701Z</time></trkpt><trkpt lat="40.777385" lon="15.9161867"><ele>447.00000000000006</ele><time>2026-05-02T15:05:09.703Z</time></trkpt><trkpt lat="40.7774817" lon="15.916115"><ele>447.00000000000006</ele><time>2026-05-02T15:05:11.7Z</time></trkpt><trkpt lat="40.7775467" lon="15.91605"><ele>447.0</ele><time>2026-05-02T15:05:12.7Z</time></trkpt><trkpt lat="40.7776267" lon="15.915955"><ele>447.0</ele><time>2026-05-02T15:05:13.7Z</time></trkpt><trkpt lat="40.777715" lon="15.9158483"><ele>445.5</ele><time>2026-05-02T15:05:14.702Z</time></trkpt><trkpt lat="40.7778017" lon="15.9157517"><ele>444.0</ele><time>2026-05-02T15:05:15.701Z</time></trkpt><trkpt lat="40.77788" lon="15.9156717"><ele>442.5</ele><time>2026-05-02T15:05:16.701Z</time></trkpt><trkpt lat="40.7779467" lon="15.9156083"><ele>441.0</ele><time>2026-05-02T15:05:17.701Z</time></trkpt><trkpt lat="40.778" lon="15.9155417"><ele>439.5</ele><time>2026-05-02T15:05:18.7Z</time></trkpt><trkpt lat="40.778035" lon="15.915465"><ele>438.0</ele><time>2026-05-02T15:05:19.702Z</time></trkpt><trkpt lat="40.7780517" lon="15.91538"><ele>438.0</ele><time>2026-05-02T15:05:20.702Z</time></trkpt><trkpt lat="40.778055" lon="15.9152867"><ele>438.0</ele><time>2026-05-02T15:05:21.701Z</time></trkpt><trkpt lat="40.7780383" lon="15.9151867"><ele>438.0</ele><time>2026-05-02T15:05:22.7Z</time></trkpt><trkpt lat="40.77802" lon="15.9150967"><ele>438.0</ele><time>2026-05-02T15:05:23.701Z</time></trkpt><trkpt lat="40.7779933" lon="15.9149417"><ele>438.0</ele><time>2026-05-02T15:05:25.701Z</time></trkpt><trkpt lat="40.77803" lon="15.9148267"><ele>438.0</ele><time>2026-05-02T15:05:27.7Z</time></trkpt><trkpt lat="40.7781433" lon="15.9147267"><ele>436.75</ele><time>2026-05-02T15:05:29.701Z</time></trkpt><trkpt lat="40.7782483" lon="15.9146567"><ele>435.5</ele><time>2026-05-02T15:05:30.701Z</time></trkpt><trkpt lat="40.7783583" lon="15.914585"><ele>434.25</ele><time>2026-05-02T15:05:31.701Z</time></trkpt><trkpt lat="40.7784633" lon="15.9145083"><ele>433.0</ele><time>2026-05-02T15:05:32.702Z</time></trkpt><trkpt lat="40.7785583" lon="15.91443"><ele>432.83333333333337</ele><time>2026-05-02T15:05:33.7Z</time></trkpt><trkpt lat="40.778645" lon="15.9143683"><ele>432.6666666666667</ele><time>2026-05-02T15:05:34.7Z</time></trkpt><trkpt lat="40.77873" lon="15.9143133"><ele>432.5</ele><time>2026-05-02T15:05:35.7Z</time></trkpt><trkpt lat="40.778805" lon="15.9142617"><ele>432.33333333333337</ele><time>2026-05-02T15:05:36.702Z</time></trkpt><trkpt lat="40.7788667" lon="15.91421"><ele>432.1666666666667</ele><time>2026-05-02T15:05:37.701Z</time></trkpt><trkpt lat="40.77892" lon="15.914165"><ele>432.0</ele><time>2026-05-02T15:05:38.702Z</time></trkpt><trkpt lat="40.7789783" lon="15.9141283"><ele>432.0</ele><time>2026-05-02T15:05:39.7Z</time></trkpt><trkpt lat="40.7790833" lon="15.9141033"><ele>432.0</ele><time>2026-05-02T15:05:41.701Z</time></trkpt><trkpt lat="40.779155" lon="15.9141283"><ele>432.0</ele><time>2026-05-02T15:05:43.7Z</time></trkpt><trkpt lat="40.77922" lon="15.9141733"><ele>432.0</ele><time>2026-05-02T15:05:45.701Z</time></trkpt><trkpt lat="40.7793083" lon="15.91421"><ele>432.0</ele><time>2026-05-02T15:05:54.701Z</time></trkpt><trkpt lat="40.7793733" lon="15.9142283"><ele>432.0</ele><time>2026-05-02T15:05:57.701Z</time></trkpt><trkpt lat="40.7794467" lon="15.91419"><ele>432.85714285714283</ele><time>2026-05-02T15:06:00.7Z</time></trkpt><trkpt lat="40.7795017" lon="15.914135"><ele>433.71428571428567</ele><time>2026-05-02T15:06:25.7Z</time></trkpt><trkpt lat="40.7795667" lon="15.914105"><ele>434.57142857142856</ele><time>2026-05-02T15:06:27.7Z</time></trkpt><trkpt lat="40.7796417" lon="15.9140667"><ele>435.42857142857144</ele><time>2026-05-02T15:06:29.7Z</time></trkpt><trkpt lat="40.77971" lon="15.914005"><ele>436.2857142857143</ele><time>2026-05-02T15:06:31.7Z</time></trkpt><trkpt lat="40.7797683" lon="15.9139683"><ele>437.14285714285717</ele><time>2026-05-02T15:06:33.7Z</time></trkpt><trkpt lat="40.7798383" lon="15.91393"><ele>438.0</ele><time>2026-05-02T15:06:35.7Z</time></trkpt><trkpt lat="40.7799417" lon="15.9138833"><ele>438.0</ele><time>2026-05-02T15:06:37.7Z</time></trkpt><trkpt lat="40.78004" lon="15.9138117"><ele>438.0</ele><time>2026-05-02T15:06:39.701Z</time></trkpt><trkpt lat="40.780125" lon="15.9137317"><ele>438.0</ele><time>2026-05-02T15:06:41.7Z</time></trkpt><trkpt lat="40.7802283" lon="15.9136433"><ele>438.0</ele><time>2026-05-02T15:06:43.7Z</time></trkpt><trkpt lat="40.78032" lon="15.9135617"><ele>438.59999999999997</ele><time>2026-05-02T15:06:45.701Z</time></trkpt><trkpt lat="40.780395" lon="15.9134867"><ele>439.19999999999993</ele><time>2026-05-02T15:06:47.7Z</time></trkpt><trkpt lat="40.7804567" lon="15.9134267"><ele>439.8</ele><time>2026-05-02T15:06:49.701Z</time></trkpt><trkpt lat="40.78052" lon="15.9133817"><ele>440.4</ele><time>2026-05-02T15:06:52.7Z</time></trkpt><trkpt lat="40.7806517" lon="15.9133233"><ele>441.0</ele><time>2026-05-02T15:07:37.701Z</time></trkpt><trkpt lat="40.78072" lon="15.9132517"><ele>441.0</ele><time>2026-05-02T15:07:42.7Z</time></trkpt><trkpt lat="40.780805" lon="15.9131717"><ele>441.0</ele><time>2026-05-02T15:07:44.701Z</time></trkpt><trkpt lat="40.78085" lon="15.9131083"><ele>441.0</ele><time>2026-05-02T15:07:45.701Z</time></trkpt><trkpt lat="40.7808867" lon="15.91304"><ele>441.0</ele><time>2026-05-02T15:07:46.701Z</time></trkpt><trkpt lat="40.78097" lon="15.91293"><ele>441.0</ele><time>2026-05-02T15:07:48.702Z</time></trkpt><trkpt lat="40.7810267" lon="15.91289"><ele>441.0</ele><time>2026-05-02T15:07:49.7Z</time></trkpt><trkpt lat="40.7811283" lon="15.9128267"><ele>445.3333333333333</ele><time>2026-05-02T15:07:51.701Z</time></trkpt><trkpt lat="40.7811967" lon="15.912775"><ele>449.66666666666663</ele><time>2026-05-02T15:07:53.701Z</time></trkpt><trkpt lat="40.7812634" lon="15.9127934"><ele>454.0</ele><time>2026-05-02T15:07:55.701Z</time></trkpt><trkpt lat="40.7813428" lon="15.9128716"><ele>458.3333333333333</ele><time>2026-05-02T15:07:57.701Z</time></trkpt><trkpt lat="40.7814084" lon="15.9128824"><ele>462.66666666666663</ele><time>2026-05-02T15:08:00.706Z</time></trkpt><trkpt lat="40.7814425" lon="15.9128012"><ele>467.0</ele><time>2026-05-02T15:23:12.7Z</time></trkpt><trkpt lat="40.7814981" lon="15.9127239"><ele>466.99999999999994</ele><time>2026-05-02T15:23:13.701Z</time></trkpt><trkpt lat="40.7815426" lon="15.9126616"><ele>467.0</ele><time>2026-05-02T15:23:14.701Z</time></trkpt><trkpt lat="40.7815877" lon="15.9125438"><ele>467.0</ele><time>2026-05-02T15:23:16.7Z</time></trkpt><trkpt lat="40.7816135" lon="15.9124035"><ele>467.0</ele><time>2026-05-02T15:23:18.702Z</time></trkpt><trkpt lat="40.7816236" lon="15.9123149"><ele>466.99999999999994</ele><time>2026-05-02T15:23:19.701Z</time></trkpt><trkpt lat="40.7816295" lon="15.9122184"><ele>467.0</ele><time>2026-05-02T15:23:20.703Z</time></trkpt><trkpt lat="40.7816466" lon="15.9121316"><ele>466.42857142857133</ele><time>2026-05-02T15:23:21.7Z</time></trkpt><trkpt lat="40.7816755" lon="15.9120559"><ele>465.85714285714283</ele><time>2026-05-02T15:23:22.7Z</time></trkpt><trkpt lat="40.7817136" lon="15.9119869"><ele>465.2857142857142</ele><time>2026-05-02T15:23:23.701Z</time></trkpt><trkpt lat="40.7817573" lon="15.9119231"><ele>464.71428571428567</ele><time>2026-05-02T15:23:24.702Z</time></trkpt><trkpt lat="40.7817958" lon="15.9118491"><ele>464.1428571428571</ele><time>2026-05-02T15:23:25.701Z</time></trkpt><trkpt lat="40.7818177" lon="15.9117606"><ele>463.57142857142856</ele><time>2026-05-02T15:23:26.702Z</time></trkpt><trkpt lat="40.7818256" lon="15.9116765"><ele>463.0</ele><time>2026-05-02T15:23:27.702Z</time></trkpt><trkpt lat="40.7818509" lon="15.9115278"><ele>465.4</ele><time>2026-05-02T15:23:29.701Z</time></trkpt><trkpt lat="40.7819309" lon="15.9113861"><ele>467.79999999999995</ele><time>2026-05-02T15:23:31.702Z</time></trkpt><trkpt lat="40.7819924" lon="15.9113084"><ele>470.2</ele><time>2026-05-02T15:23:32.701Z</time></trkpt><trkpt lat="40.7820634" lon="15.9112287"><ele>472.6</ele><time>2026-05-02T15:23:33.701Z</time></trkpt><trkpt lat="40.7821458" lon="15.911151"><ele>475.0</ele><time>2026-05-02T15:23:34.702Z</time></trkpt><trkpt lat="40.7822278" lon="15.911081"><ele>475.00000000000006</ele><time>2026-05-02T15:23:35.701Z</time></trkpt><trkpt lat="40.7823118" lon="15.9110174"><ele>475.0</ele><time>2026-05-02T15:23:36.701Z</time></trkpt><trkpt lat="40.7823932" lon="15.9109656"><ele>475.0</ele><time>2026-05-02T15:23:37.702Z</time></trkpt><trkpt lat="40.782464" lon="15.9109248"><ele>475.0</ele><time>2026-05-02T15:23:38.702Z</time></trkpt><trkpt lat="40.7825258" lon="15.9108947"><ele>475.00000000000006</ele><time>2026-05-02T15:23:39.701Z</time></trkpt><trkpt lat="40.782589" lon="15.9108156"><ele>475.0</ele><time>2026-05-02T15:23:41.701Z</time></trkpt><trkpt lat="40.7825772" lon="15.9107105"><ele>473.6</ele><time>2026-05-02T15:23:43.702Z</time></trkpt><trkpt lat="40.7825222" lon="15.9105664"><ele>472.2</ele><time>2026-05-02T15:23:45.702Z</time></trkpt><trkpt lat="40.7824881" lon="15.9104902"><ele>470.79999999999995</ele><time>2026-05-02T15:23:46.701Z</time></trkpt><trkpt lat="40.7824611" lon="15.9103487"><ele>469.4</ele><time>2026-05-02T15:23:48.7Z</time></trkpt><trkpt lat="40.7824977" lon="15.9102194"><ele>468.0</ele><time>2026-05-02T15:23:50.701Z</time></trkpt><trkpt lat="40.7825881" lon="15.9101047"><ele>466.5</ele><time>2026-05-02T15:23:52.701Z</time></trkpt><trkpt lat="40.7826558" lon="15.9100541"><ele>465.0</ele><time>2026-05-02T15:23:53.7Z</time></trkpt><trkpt lat="40.7827371" lon="15.9099985"><ele>463.5</ele><time>2026-05-02T15:23:54.701Z</time></trkpt><trkpt lat="40.7828269" lon="15.9099308"><ele>462.0</ele><time>2026-05-02T15:23:55.702Z</time></trkpt><trkpt lat="40.7829003" lon="15.9098657"><ele>460.5</ele><time>2026-05-02T15:23:56.701Z</time></trkpt><trkpt lat="40.7829538" lon="15.9098079"><ele>459.0</ele><time>2026-05-02T15:23:57.7Z</time></trkpt><trkpt lat="40.7830246" lon="15.9097153"><ele>462.79999999999995</ele><time>2026-05-02T15:23:59.701Z</time></trkpt><trkpt lat="40.7830877" lon="15.9096306"><ele>466.59999999999997</ele><time>2026-05-02T15:24:01.701Z</time></trkpt><trkpt lat="40.7831536" lon="15.9095495"><ele>470.4</ele><time>2026-05-02T15:24:03.701Z</time></trkpt><trkpt lat="40.7832367" lon="15.9094333"><ele>474.2</ele><time>2026-05-02T15:24:05.701Z</time></trkpt><trkpt lat="40.7832867" lon="15.9093617"><ele>478.0</ele><time>2026-05-02T15:24:06.701Z</time></trkpt><trkpt lat="40.7833433" lon="15.909285"><ele>478.2</ele><time>2026-05-02T15:24:07.7Z</time></trkpt><trkpt lat="40.7834083" lon="15.9091983"><ele>478.4</ele><time>2026-05-02T15:24:08.702Z</time></trkpt><trkpt lat="40.7834717" lon="15.9090967"><ele>478.59999999999997</ele><time>2026-05-02T15:24:09.7Z</time></trkpt><trkpt lat="40.7835317" lon="15.9089883"><ele>478.79999999999995</ele><time>2026-05-02T15:24:10.701Z</time></trkpt><trkpt lat="40.7835833" lon="15.908865"><ele>479.0</ele><time>2026-05-02T15:24:11.702Z</time></trkpt><trkpt lat="40.78363" lon="15.90874"><ele>479.0</ele><time>2026-05-02T15:24:12.701Z</time></trkpt><trkpt lat="40.7836733" lon="15.9086083"><ele>479.0</ele><time>2026-05-02T15:24:13.702Z</time></trkpt><trkpt lat="40.7837183" lon="15.9084767"><ele>479.0</ele><time>2026-05-02T15:24:14.701Z</time></trkpt><trkpt lat="40.7837717" lon="15.9083433"><ele>479.0</ele><time>2026-05-02T15:24:15.701Z</time></trkpt><trkpt lat="40.7838283" lon="15.908205"><ele>476.5</ele><time>2026-05-02T15:24:16.702Z</time></trkpt><trkpt lat="40.7838867" lon="15.908055"><ele>474.0</ele><time>2026-05-02T15:24:17.701Z</time></trkpt><trkpt lat="40.783945" lon="15.9079017"><ele>471.5</ele><time>2026-05-02T15:24:18.701Z</time></trkpt><trkpt lat="40.784" lon="15.90775"><ele>469.0</ele><time>2026-05-02T15:24:19.701Z</time></trkpt><trkpt lat="40.7840483" lon="15.9076083"><ele>467.2</ele><time>2026-05-02T15:24:20.703Z</time></trkpt><trkpt lat="40.7840983" lon="15.90748"><ele>465.4</ele><time>2026-05-02T15:24:21.7Z</time></trkpt><trkpt lat="40.7841467" lon="15.9073633"><ele>463.6</ele><time>2026-05-02T15:24:22.702Z</time></trkpt><trkpt lat="40.784185" lon="15.9072583"><ele>461.8</ele><time>2026-05-02T15:24:23.702Z</time></trkpt><trkpt lat="40.7842183" lon="15.9071567"><ele>460.0</ele><time>2026-05-02T15:24:24.701Z</time></trkpt><trkpt lat="40.7842617" lon="15.9070717"><ele>460.00000000000006</ele><time>2026-05-02T15:24:25.702Z</time></trkpt><trkpt lat="40.784315" lon="15.90698"><ele>460.0</ele><time>2026-05-02T15:24:26.702Z</time></trkpt><trkpt lat="40.7843783" lon="15.90689"><ele>460.0</ele><time>2026-05-02T15:24:27.702Z</time></trkpt><trkpt lat="40.7844467" lon="15.9068083"><ele>460.0</ele><time>2026-05-02T15:24:28.704Z</time></trkpt><trkpt lat="40.7845117" lon="15.906745"><ele>460.00000000000006</ele><time>2026-05-02T15:24:29.703Z</time></trkpt><trkpt lat="40.784575" lon="15.9067117"><ele>460.0</ele><time>2026-05-02T15:24:30.704Z</time></trkpt><trkpt lat="40.7846983" lon="15.90671"><ele>460.33333333333337</ele><time>2026-05-02T15:24:32.702Z</time></trkpt><trkpt lat="40.7847617" lon="15.906715"><ele>460.6666666666667</ele><time>2026-05-02T15:24:33.7Z</time></trkpt><trkpt lat="40.7848667" lon="15.9066467"><ele>461.0</ele><time>2026-05-02T15:24:35.702Z</time></trkpt><trkpt lat="40.784915" lon="15.9065767"><ele>461.33333333333337</ele><time>2026-05-02T15:24:36.702Z</time></trkpt><trkpt lat="40.7849567" lon="15.90649"><ele>461.6666666666667</ele><time>2026-05-02T15:24:37.7Z</time></trkpt><trkpt lat="40.785" lon="15.9063983"><ele>462.0</ele><time>2026-05-02T15:24:38.702Z</time></trkpt><trkpt lat="40.7850433" lon="15.90632"><ele>462.0</ele><time>2026-05-02T15:24:39.702Z</time></trkpt><trkpt lat="40.7850917" lon="15.90626"><ele>462.0</ele><time>2026-05-02T15:24:40.701Z</time></trkpt><trkpt lat="40.7851433" lon="15.9062117"><ele>462.0</ele><time>2026-05-02T15:24:41.701Z</time></trkpt><trkpt lat="40.7852133" lon="15.9061833"><ele>462.0</ele><time>2026-05-02T15:24:42.701Z</time></trkpt><trkpt lat="40.78531" lon="15.9061817"><ele>462.0</ele><time>2026-05-02T15:24:43.7Z</time></trkpt><trkpt lat="40.7853983" lon="15.9061667"><ele>462.0</ele><time>2026-05-02T15:24:44.701Z</time></trkpt><trkpt lat="40.7854683" lon="15.90614"><ele>462.0</ele><time>2026-05-02T15:24:45.701Z</time></trkpt><trkpt lat="40.78556" lon="15.9060467"><ele>462.0</ele><time>2026-05-02T15:24:47.702Z</time></trkpt><trkpt lat="40.78559" lon="15.9059683"><ele>462.0</ele><time>2026-05-02T15:24:48.701Z</time></trkpt><trkpt lat="40.7856183" lon="15.90588"><ele>462.0</ele><time>2026-05-02T15:24:49.701Z</time></trkpt><trkpt lat="40.7856383" lon="15.9057967"><ele>462.0</ele><time>2026-05-02T15:24:50.702Z</time></trkpt><trkpt lat="40.7857083" lon="15.90567"><ele>462.0</ele><time>2026-05-02T15:24:52.702Z</time></trkpt><trkpt lat="40.785765" lon="15.9056217"><ele>462.0</ele><time>2026-05-02T15:24:53.702Z</time></trkpt><trkpt lat="40.7858433" lon="15.90558"><ele>462.0</ele><time>2026-05-02T15:24:54.702Z</time></trkpt><trkpt lat="40.785925" lon="15.9055367"><ele>462.0</ele><time>2026-05-02T15:24:55.7Z</time></trkpt><trkpt lat="40.785995" lon="15.905485"><ele>462.0</ele><time>2026-05-02T15:24:56.702Z</time></trkpt><trkpt lat="40.7860517" lon="15.9054283"><ele>462.0</ele><time>2026-05-02T15:24:57.702Z</time></trkpt><trkpt lat="40.7860967" lon="15.9053683"><ele>462.0</ele><time>2026-05-02T15:24:58.703Z</time></trkpt><trkpt lat="40.7861383" lon="15.9052117"><ele>462.8333333333333</ele><time>2026-05-02T15:25:00.702Z</time></trkpt><trkpt lat="40.78614" lon="15.9051217"><ele>463.66666666666663</ele><time>2026-05-02T15:25:01.702Z</time></trkpt><trkpt lat="40.7861517" lon="15.9050317"><ele>464.5</ele><time>2026-05-02T15:25:02.701Z</time></trkpt><trkpt lat="40.7861783" lon="15.9049417"><ele>465.3333333333333</ele><time>2026-05-02T15:25:03.7Z</time></trkpt><trkpt lat="40.7862167" lon="15.9048467"><ele>466.16666666666663</ele><time>2026-05-02T15:25:04.701Z</time></trkpt><trkpt lat="40.7862717" lon="15.9047517"><ele>467.0</ele><time>2026-05-02T15:25:05.702Z</time></trkpt><trkpt lat="40.7863317" lon="15.9046517"><ele>467.0</ele><time>2026-05-02T15:25:06.702Z</time></trkpt><trkpt lat="40.7863867" lon="15.9045517"><ele>467.00000000000006</ele><time>2026-05-02T15:25:07.7Z</time></trkpt><trkpt lat="40.7864317" lon="15.9044667"><ele>467.00000000000006</ele><time>2026-05-02T15:25:08.701Z</time></trkpt><trkpt lat="40.7864783" lon="15.90434"><ele>467.0</ele><time>2026-05-02T15:25:10.701Z</time></trkpt><trkpt lat="40.7864733" lon="15.9042033"><ele>467.0</ele><time>2026-05-02T15:25:12.701Z</time></trkpt><trkpt lat="40.7864283" lon="15.9040583"><ele>466.3333333333333</ele><time>2026-05-02T15:25:14.701Z</time></trkpt><trkpt lat="40.7864217" lon="15.9039733"><ele>465.66666666666663</ele><time>2026-05-02T15:25:15.701Z</time></trkpt><trkpt lat="40.7864317" lon="15.9038883"><ele>465.0</ele><time>2026-05-02T15:25:16.702Z</time></trkpt><trkpt lat="40.7864633" lon="15.903805"><ele>464.33333333333337</ele><time>2026-05-02T15:25:17.702Z</time></trkpt><trkpt lat="40.7865083" lon="15.9037117"><ele>463.6666666666667</ele><time>2026-05-02T15:25:18.702Z</time></trkpt><trkpt lat="40.7865483" lon="15.9036083"><ele>463.0</ele><time>2026-05-02T15:25:19.702Z</time></trkpt><trkpt lat="40.7865767" lon="15.903495"><ele>462.33333333333337</ele><time>2026-05-02T15:25:20.703Z</time></trkpt><trkpt lat="40.7866" lon="15.9033933"><ele>461.6666666666667</ele><time>2026-05-02T15:25:21.702Z</time></trkpt><trkpt lat="40.7866117" lon="15.90329"><ele>461.0</ele><time>2026-05-02T15:25:22.702Z</time></trkpt><trkpt lat="40.786615" lon="15.9031833"><ele>460.33333333333337</ele><time>2026-05-02T15:25:23.702Z</time></trkpt><trkpt lat="40.786615" lon="15.90309"><ele>459.6666666666667</ele><time>2026-05-02T15:25:24.702Z</time></trkpt><trkpt lat="40.7866133" lon="15.9029783"><ele>459.0</ele><time>2026-05-02T15:25:26.702Z</time></trkpt><trkpt lat="40.7866133" lon="15.9028933"><ele>459.0</ele><time>2026-05-02T15:25:28.702Z</time></trkpt><trkpt lat="40.7866133" lon="15.9027833"><ele>459.0</ele><time>2026-05-02T15:25:30.7Z</time></trkpt><trkpt lat="40.7866167" lon="15.9026967"><ele>459.0</ele><time>2026-05-02T15:25:31.701Z</time></trkpt><trkpt lat="40.7866217" lon="15.9025917"><ele>459.0</ele><time>2026-05-02T15:25:32.701Z</time></trkpt><trkpt lat="40.7866267" lon="15.90248"><ele>459.0</ele><time>2026-05-02T15:25:33.702Z</time></trkpt><trkpt lat="40.7866283" lon="15.902375"><ele>459.0</ele><time>2026-05-02T15:25:34.701Z</time></trkpt><trkpt lat="40.7866417" lon="15.9022683"><ele>459.0</ele><time>2026-05-02T15:25:35.701Z</time></trkpt><trkpt lat="40.786665" lon="15.9021583"><ele>459.0</ele><time>2026-05-02T15:25:36.699Z</time></trkpt><trkpt lat="40.78669" lon="15.9020633"><ele>459.0</ele><time>2026-05-02T15:25:37.701Z</time></trkpt><trkpt lat="40.786735" lon="15.9019167"><ele>459.0</ele><time>2026-05-02T15:25:39.7Z</time></trkpt><trkpt lat="40.78677" lon="15.9018133"><ele>459.0</ele><time>2026-05-02T15:25:41.7Z</time></trkpt><trkpt lat="40.786825" lon="15.9017283"><ele>461.0</ele><time>2026-05-02T15:25:43.703Z</time></trkpt><trkpt lat="40.7869" lon="15.9016433"><ele>463.0</ele><time>2026-05-02T15:25:45.701Z</time></trkpt><trkpt lat="40.7869517" lon="15.9015683"><ele>465.0</ele><time>2026-05-02T15:25:47.702Z</time></trkpt><trkpt lat="40.7869933" lon="15.9014217"><ele>467.0</ele><time>2026-05-02T15:25:55.702Z</time></trkpt><trkpt lat="40.7870217" lon="15.9013367"><ele>469.0</ele><time>2026-05-02T15:25:56.703Z</time></trkpt><trkpt lat="40.78705" lon="15.9012367"><ele>471.0</ele><time>2026-05-02T15:25:57.7Z</time></trkpt><trkpt lat="40.7870783" lon="15.90114"><ele>471.0</ele><time>2026-05-02T15:25:58.701Z</time></trkpt><trkpt lat="40.7871067" lon="15.9010483"><ele>471.0</ele><time>2026-05-02T15:25:59.702Z</time></trkpt><trkpt lat="40.7871317" lon="15.90096"><ele>471.0</ele><time>2026-05-02T15:26:00.701Z</time></trkpt><trkpt lat="40.78716" lon="15.9008783"><ele>471.0</ele><time>2026-05-02T15:26:01.701Z</time></trkpt><trkpt lat="40.7871933" lon="15.9008033"><ele>471.0</ele><time>2026-05-02T15:26:02.702Z</time></trkpt><trkpt lat="40.787295" lon="15.9006983"><ele>471.0</ele><time>2026-05-02T15:26:04.701Z</time></trkpt><trkpt lat="40.78735" lon="15.9006533"><ele>469.5</ele><time>2026-05-02T15:26:05.701Z</time></trkpt><trkpt lat="40.7874033" lon="15.9006017"><ele>468.0</ele><time>2026-05-02T15:26:06.702Z</time></trkpt><trkpt lat="40.78746" lon="15.900515"><ele>466.5</ele><time>2026-05-02T15:26:08.701Z</time></trkpt><trkpt lat="40.7874933" lon="15.9004433"><ele>465.0</ele><time>2026-05-02T15:26:10.701Z</time></trkpt><trkpt lat="40.78753" lon="15.9003667"><ele>463.5</ele><time>2026-05-02T15:26:12.702Z</time></trkpt><trkpt lat="40.78758" lon="15.90024"><ele>462.0</ele><time>2026-05-02T15:26:14.702Z</time></trkpt><trkpt lat="40.7876483" lon="15.9001117"><ele>461.20000000000005</ele><time>2026-05-02T15:26:16.701Z</time></trkpt><trkpt lat="40.78767" lon="15.8999967"><ele>460.40000000000003</ele><time>2026-05-02T15:26:18.701Z</time></trkpt><trkpt lat="40.7876417" lon="15.8998717"><ele>459.59999999999997</ele><time>2026-05-02T15:26:20.702Z</time></trkpt><trkpt lat="40.7876067" lon="15.89973"><ele>458.79999999999995</ele><time>2026-05-02T15:26:22.702Z</time></trkpt><trkpt lat="40.7875967" lon="15.8995583"><ele>458.0</ele><time>2026-05-02T15:26:24.701Z</time></trkpt><trkpt lat="40.78761" lon="15.89946"><ele>457.99999999999994</ele><time>2026-05-02T15:26:25.702Z</time></trkpt><trkpt lat="40.78763" lon="15.89936"><ele>458.0</ele><time>2026-05-02T15:26:26.702Z</time></trkpt><trkpt lat="40.78766" lon="15.8992717"><ele>458.0</ele><time>2026-05-02T15:26:27.703Z</time></trkpt><trkpt lat="40.78771" lon="15.8991867"><ele>458.0</ele><time>2026-05-02T15:26:28.702Z</time></trkpt><trkpt lat="40.78777" lon="15.8991017"><ele>457.99999999999994</ele><time>2026-05-02T15:26:29.701Z</time></trkpt><trkpt lat="40.7878417" lon="15.8990183"><ele>458.0</ele><time>2026-05-02T15:26:30.701Z</time></trkpt><trkpt lat="40.7879133" lon="15.8989417"><ele>460.49999999999994</ele><time>2026-05-02T15:26:31.701Z</time></trkpt><trkpt lat="40.7879817" lon="15.8988733"><ele>463.0</ele><time>2026-05-02T15:26:32.702Z</time></trkpt><trkpt lat="40.7880383" lon="15.8988133"><ele>465.5</ele><time>2026-05-02T15:26:33.7Z</time></trkpt><trkpt lat="40.7881117" lon="15.8987117"><ele>468.0</ele><time>2026-05-02T15:26:35.701Z</time></trkpt><trkpt lat="40.7881617" lon="15.8986083"><ele>470.49999999999994</ele><time>2026-05-02T15:26:38.701Z</time></trkpt><trkpt lat="40.788185" lon="15.8985233"><ele>473.0</ele><time>2026-05-02T15:26:40.701Z</time></trkpt><trkpt lat="40.788195" lon="15.89839"><ele>473.0</ele><time>2026-05-02T15:26:42.702Z</time></trkpt><trkpt lat="40.7881867" lon="15.8983067"><ele>473.0</ele><time>2026-05-02T15:26:43.702Z</time></trkpt><trkpt lat="40.788175" lon="15.89822"><ele>473.0</ele><time>2026-05-02T15:26:44.702Z</time></trkpt><trkpt lat="40.7881683" lon="15.898135"><ele>473.0</ele><time>2026-05-02T15:26:45.702Z</time></trkpt><trkpt lat="40.7881683" lon="15.898045"><ele>473.0</ele><time>2026-05-02T15:26:46.702Z</time></trkpt><trkpt lat="40.7881667" lon="15.897945"><ele>473.0</ele><time>2026-05-02T15:26:47.701Z</time></trkpt><trkpt lat="40.78817" lon="15.8978367"><ele>473.0</ele><time>2026-05-02T15:26:48.702Z</time></trkpt><trkpt lat="40.7881833" lon="15.8977267"><ele>473.0</ele><time>2026-05-02T15:26:49.701Z</time></trkpt><trkpt lat="40.7882017" lon="15.897605"><ele>472.99999999999994</ele><time>2026-05-02T15:26:50.703Z</time></trkpt><trkpt lat="40.7882317" lon="15.8974867"><ele>472.99999999999994</ele><time>2026-05-02T15:26:51.701Z</time></trkpt><trkpt lat="40.7882667" lon="15.8973683"><ele>473.0</ele><time>2026-05-02T15:26:52.702Z</time></trkpt><trkpt lat="40.7883167" lon="15.8972383"><ele>473.0</ele><time>2026-05-02T15:26:53.701Z</time></trkpt><trkpt lat="40.7883833" lon="15.8970883"><ele>473.75</ele><time>2026-05-02T15:26:54.7Z</time></trkpt><trkpt lat="40.7884567" lon="15.89693"><ele>474.5</ele><time>2026-05-02T15:26:55.702Z</time></trkpt><trkpt lat="40.7885233" lon="15.8967817"><ele>475.25</ele><time>2026-05-02T15:26:56.702Z</time></trkpt><trkpt lat="40.788585" lon="15.89664"><ele>476.0</ele><time>2026-05-02T15:26:57.701Z</time></trkpt><trkpt lat="40.78864" lon="15.8965033"><ele>475.99999999999994</ele><time>2026-05-02T15:26:58.702Z</time></trkpt><trkpt lat="40.7886833" lon="15.89639"><ele>476.0</ele><time>2026-05-02T15:26:59.702Z</time></trkpt><trkpt lat="40.7887217" lon="15.8962883"><ele>476.0</ele><time>2026-05-02T15:27:00.702Z</time></trkpt><trkpt lat="40.7887583" lon="15.89619"><ele>476.0</ele><time>2026-05-02T15:27:01.703Z</time></trkpt><trkpt lat="40.7888" lon="15.8960983"><ele>475.99999999999994</ele><time>2026-05-02T15:27:02.702Z</time></trkpt><trkpt lat="40.7888433" lon="15.89603"><ele>476.0</ele><time>2026-05-02T15:27:03.7Z</time></trkpt><trkpt lat="40.7889583" lon="15.8959617"><ele>476.0</ele><time>2026-05-02T15:27:05.701Z</time></trkpt><trkpt lat="40.789055" lon="15.8959383"><ele>476.0</ele><time>2026-05-02T15:27:06.703Z</time></trkpt><trkpt lat="40.7891583" lon="15.8959283"><ele>476.0</ele><time>2026-05-02T15:27:07.701Z</time></trkpt><trkpt lat="40.7892467" lon="15.89588"><ele>476.0</ele><time>2026-05-02T15:27:08.701Z</time></trkpt><trkpt lat="40.7893433" lon="15.8958183"><ele>476.0</ele><time>2026-05-02T15:27:09.702Z</time></trkpt><trkpt lat="40.78944" lon="15.89575"><ele>476.0</ele><time>2026-05-02T15:27:10.702Z</time></trkpt><trkpt lat="40.7895383" lon="15.8956817"><ele>476.0</ele><time>2026-05-02T15:27:11.7Z</time></trkpt><trkpt lat="40.7896383" lon="15.8956083"><ele>476.0</ele><time>2026-05-02T15:27:12.702Z</time></trkpt><trkpt lat="40.7897417" lon="15.8955167"><ele>476.0</ele><time>2026-05-02T15:27:13.701Z</time></trkpt><trkpt lat="40.7898467" lon="15.8954033"><ele>476.0</ele><time>2026-05-02T15:27:14.702Z</time></trkpt><trkpt lat="40.789945" lon="15.8952867"><ele>476.0</ele><time>2026-05-02T15:27:15.701Z</time></trkpt><trkpt lat="40.7900267" lon="15.89519"><ele>476.0</ele><time>2026-05-02T15:27:16.702Z</time></trkpt><trkpt lat="40.790085" lon="15.895095"><ele>476.0</ele><time>2026-05-02T15:27:17.701Z</time></trkpt><trkpt lat="40.7901317" lon="15.8949967"><ele>476.0</ele><time>2026-05-02T15:27:18.7Z</time></trkpt><trkpt lat="40.7901633" lon="15.8949"><ele>473.66666666666663</ele><time>2026-05-02T15:27:19.702Z</time></trkpt><trkpt lat="40.7901767" lon="15.89479"><ele>471.3333333333333</ele><time>2026-05-02T15:27:20.703Z</time></trkpt><trkpt lat="40.7901717" lon="15.89467"><ele>469.0</ele><time>2026-05-02T15:27:21.701Z</time></trkpt><trkpt lat="40.7901617" lon="15.8945583"><ele>466.66666666666663</ele><time>2026-05-02T15:27:22.702Z</time></trkpt><trkpt lat="40.790155" lon="15.894435"><ele>464.3333333333333</ele><time>2026-05-02T15:27:23.702Z</time></trkpt><trkpt lat="40.7901517" lon="15.8943167"><ele>462.0</ele><time>2026-05-02T15:27:24.702Z</time></trkpt><trkpt lat="40.7901517" lon="15.8941933"><ele>461.25</ele><time>2026-05-02T15:27:25.702Z</time></trkpt><trkpt lat="40.790155" lon="15.8940583"><ele>460.5</ele><time>2026-05-02T15:27:26.703Z</time></trkpt><trkpt lat="40.79016" lon="15.89391"><ele>459.75</ele><time>2026-05-02T15:27:27.702Z</time></trkpt><trkpt lat="40.7901717" lon="15.893745"><ele>459.0</ele><time>2026-05-02T15:27:28.702Z</time></trkpt><trkpt lat="40.790185" lon="15.89359"><ele>461.1666666666667</ele><time>2026-05-02T15:27:29.702Z</time></trkpt><trkpt lat="40.7901883" lon="15.89345"><ele>463.33333333333337</ele><time>2026-05-02T15:27:30.702Z</time></trkpt><trkpt lat="40.7901867" lon="15.8933167"><ele>465.5</ele><time>2026-05-02T15:27:31.701Z</time></trkpt><trkpt lat="40.79019" lon="15.8931933"><ele>467.6666666666667</ele><time>2026-05-02T15:27:32.702Z</time></trkpt><trkpt lat="40.7902033" lon="15.8930933"><ele>469.83333333333337</ele><time>2026-05-02T15:27:33.702Z</time></trkpt><trkpt lat="40.79024" lon="15.8930217"><ele>472.0</ele><time>2026-05-02T15:27:34.7Z</time></trkpt><trkpt lat="40.7902817" lon="15.892955"><ele>472.0</ele><time>2026-05-02T15:27:35.702Z</time></trkpt><trkpt lat="40.7903617" lon="15.8928967"><ele>472.00000000000006</ele><time>2026-05-02T15:27:36.701Z</time></trkpt><trkpt lat="40.7904717" lon="15.8928417"><ele>472.00000000000006</ele><time>2026-05-02T15:27:37.7Z</time></trkpt><trkpt lat="40.7905733" lon="15.8927883"><ele>472.0</ele><time>2026-05-02T15:27:38.702Z</time></trkpt><trkpt lat="40.7906617" lon="15.8927133"><ele>472.0</ele><time>2026-05-02T15:27:39.702Z</time></trkpt><trkpt lat="40.790755" lon="15.892615"><ele>472.5</ele><time>2026-05-02T15:27:40.703Z</time></trkpt><trkpt lat="40.7908533" lon="15.892485"><ele>473.0</ele><time>2026-05-02T15:27:41.701Z</time></trkpt><trkpt lat="40.7909517" lon="15.89233"><ele>473.5</ele><time>2026-05-02T15:27:42.701Z</time></trkpt><trkpt lat="40.7910433" lon="15.8921783"><ele>474.0</ele><time>2026-05-02T15:27:43.702Z</time></trkpt><trkpt lat="40.791125" lon="15.89204"><ele>474.0</ele><time>2026-05-02T15:27:44.701Z</time></trkpt><trkpt lat="40.7911983" lon="15.8919117"><ele>474.0</ele><time>2026-05-02T15:27:45.701Z</time></trkpt><trkpt lat="40.7912633" lon="15.8918017"><ele>474.0</ele><time>2026-05-02T15:27:46.702Z</time></trkpt><trkpt lat="40.7913117" lon="15.8917083"><ele>474.0</ele><time>2026-05-02T15:27:47.705Z</time></trkpt><trkpt lat="40.7913433" lon="15.8916217"><ele>474.0</ele><time>2026-05-02T15:27:48.701Z</time></trkpt><trkpt lat="40.79137" lon="15.8915317"><ele>471.6</ele><time>2026-05-02T15:27:49.702Z</time></trkpt><trkpt lat="40.7913933" lon="15.891415"><ele>469.2</ele><time>2026-05-02T15:27:50.702Z</time></trkpt><trkpt lat="40.7914117" lon="15.8913033"><ele>466.80000000000007</ele><time>2026-05-02T15:27:51.7Z</time></trkpt><trkpt lat="40.7914233" lon="15.89121"><ele>464.40000000000003</ele><time>2026-05-02T15:27:52.7Z</time></trkpt><trkpt lat="40.7914117" lon="15.8910767"><ele>462.0</ele><time>2026-05-02T15:27:54.702Z</time></trkpt><trkpt lat="40.791425" lon="15.890925"><ele>461.5</ele><time>2026-05-02T15:27:56.701Z</time></trkpt><trkpt lat="40.7914367" lon="15.8908133"><ele>461.0</ele><time>2026-05-02T15:27:57.702Z</time></trkpt><trkpt lat="40.79145" lon="15.8906867"><ele>460.5</ele><time>2026-05-02T15:27:58.701Z</time></trkpt><trkpt lat="40.791465" lon="15.8905633"><ele>460.0</ele><time>2026-05-02T15:27:59.702Z</time></trkpt><trkpt lat="40.7914883" lon="15.8904567"><ele>459.5</ele><time>2026-05-02T15:28:00.701Z</time></trkpt><trkpt lat="40.7915183" lon="15.8903467"><ele>459.0</ele><time>2026-05-02T15:28:01.701Z</time></trkpt><trkpt lat="40.7915567" lon="15.8902267"><ele>459.0</ele><time>2026-05-02T15:28:02.701Z</time></trkpt><trkpt lat="40.7916017" lon="15.8901067"><ele>459.0</ele><time>2026-05-02T15:28:03.702Z</time></trkpt><trkpt lat="40.7916533" lon="15.8899967"><ele>459.0</ele><time>2026-05-02T15:28:04.701Z</time></trkpt><trkpt lat="40.7917017" lon="15.8899133"><ele>459.0</ele><time>2026-05-02T15:28:05.702Z</time></trkpt><trkpt lat="40.7917417" lon="15.8898367"><ele>459.0</ele><time>2026-05-02T15:28:06.702Z</time></trkpt><trkpt lat="40.7917867" lon="15.8897617"><ele>459.0</ele><time>2026-05-02T15:28:08.701Z</time></trkpt><trkpt lat="40.7917867" lon="15.8896717"><ele>459.5</ele><time>2026-05-02T15:28:11.702Z</time></trkpt><trkpt lat="40.791735" lon="15.88959"><ele>460.0</ele><time>2026-05-02T15:28:33.702Z</time></trkpt><trkpt lat="40.7916933" lon="15.88948"><ele>460.5</ele><time>2026-05-02T15:28:36.7Z</time></trkpt><trkpt lat="40.79167" lon="15.88936"><ele>461.0</ele><time>2026-05-02T15:28:38.702Z</time></trkpt><trkpt lat="40.79166" lon="15.8892217"><ele>461.5</ele><time>2026-05-02T15:28:40.702Z</time></trkpt><trkpt lat="40.79166" lon="15.889125"><ele>462.0</ele><time>2026-05-02T15:28:41.701Z</time></trkpt><trkpt lat="40.79166" lon="15.8890133"><ele>462.20000000000005</ele><time>2026-05-02T15:28:42.701Z</time></trkpt><trkpt lat="40.7916633" lon="15.88889"><ele>462.40000000000003</ele><time>2026-05-02T15:28:43.701Z</time></trkpt><trkpt lat="40.79167" lon="15.88876"><ele>462.59999999999997</ele><time>2026-05-02T15:28:44.702Z</time></trkpt><trkpt lat="40.7916767" lon="15.8886033"><ele>462.79999999999995</ele><time>2026-05-02T15:28:45.701Z</time></trkpt><trkpt lat="40.7916867" lon="15.8884283"><ele>463.0</ele><time>2026-05-02T15:28:46.702Z</time></trkpt><trkpt lat="40.79169" lon="15.88824"><ele>463.0</ele><time>2026-05-02T15:28:47.701Z</time></trkpt><trkpt lat="40.7916967" lon="15.8880733"><ele>463.0</ele><time>2026-05-02T15:28:48.702Z</time></trkpt><trkpt lat="40.7917017" lon="15.8879083"><ele>463.0</ele><time>2026-05-02T15:28:49.701Z</time></trkpt><trkpt lat="40.7917083" lon="15.88777"><ele>463.0</ele><time>2026-05-02T15:28:50.703Z</time></trkpt><trkpt lat="40.7917167" lon="15.887635"><ele>463.25</ele><time>2026-05-02T15:28:51.7Z</time></trkpt><trkpt lat="40.7917217" lon="15.88749"><ele>463.5</ele><time>2026-05-02T15:28:52.702Z</time></trkpt><trkpt lat="40.7917333" lon="15.8873383"><ele>463.75</ele><time>2026-05-02T15:28:53.702Z</time></trkpt><trkpt lat="40.7917483" lon="15.8871783"><ele>464.0</ele><time>2026-05-02T15:28:54.702Z</time></trkpt><trkpt lat="40.7917667" lon="15.887005"><ele>464.0</ele><time>2026-05-02T15:28:55.702Z</time></trkpt><trkpt lat="40.7917883" lon="15.8868417"><ele>464.0</ele><time>2026-05-02T15:28:56.701Z</time></trkpt><trkpt lat="40.791815" lon="15.8867083"><ele>464.0</ele><time>2026-05-02T15:28:57.701Z</time></trkpt><trkpt lat="40.79184" lon="15.8865883"><ele>464.0</ele><time>2026-05-02T15:28:58.702Z</time></trkpt><trkpt lat="40.791865" lon="15.88649"><ele>464.0</ele><time>2026-05-02T15:28:59.703Z</time></trkpt><trkpt lat="40.7918933" lon="15.88639"><ele>468.2</ele><time>2026-05-02T15:29:01.702Z</time></trkpt><trkpt lat="40.791915" lon="15.88626"><ele>472.4</ele><time>2026-05-02T15:29:22.703Z</time></trkpt><trkpt lat="40.79196" lon="15.8860917"><ele>476.6</ele><time>2026-05-02T15:29:24.703Z</time></trkpt><trkpt lat="40.7919917" lon="15.8859917"><ele>480.8</ele><time>2026-05-02T15:29:25.701Z</time></trkpt><trkpt lat="40.7920267" lon="15.8858783"><ele>485.0</ele><time>2026-05-02T15:29:26.701Z</time></trkpt><trkpt lat="40.79207" lon="15.8857567"><ele>485.0</ele><time>2026-05-02T15:29:27.702Z</time></trkpt><trkpt lat="40.7921217" lon="15.88563"><ele>485.0</ele><time>2026-05-02T15:29:28.701Z</time></trkpt><trkpt lat="40.7921817" lon="15.8855017"><ele>485.0</ele><time>2026-05-02T15:29:29.701Z</time></trkpt><trkpt lat="40.7922417" lon="15.8853617"><ele>485.0</ele><time>2026-05-02T15:29:30.701Z</time></trkpt><trkpt lat="40.7922967" lon="15.8852283"><ele>485.0</ele><time>2026-05-02T15:29:31.701Z</time></trkpt><trkpt lat="40.7923517" lon="15.8851117"><ele>485.0</ele><time>2026-05-02T15:29:32.701Z</time></trkpt><trkpt lat="40.792405" lon="15.8849933"><ele>485.0</ele><time>2026-05-02T15:29:33.702Z</time></trkpt><trkpt lat="40.7924683" lon="15.8848583"><ele>485.0</ele><time>2026-05-02T15:29:34.701Z</time></trkpt><trkpt lat="40.7925317" lon="15.88472"><ele>485.75</ele><time>2026-05-02T15:29:35.702Z</time></trkpt><trkpt lat="40.7926" lon="15.884575"><ele>486.5</ele><time>2026-05-02T15:29:36.703Z</time></trkpt><trkpt lat="40.7926683" lon="15.8844233"><ele>487.25</ele><time>2026-05-02T15:29:37.702Z</time></trkpt><trkpt lat="40.7927433" lon="15.8842617"><ele>488.0</ele><time>2026-05-02T15:29:38.7Z</time></trkpt><trkpt lat="40.792815" lon="15.884085"><ele>488.0</ele><time>2026-05-02T15:29:39.701Z</time></trkpt><trkpt lat="40.7928783" lon="15.8839133"><ele>488.0</ele><time>2026-05-02T15:29:40.702Z</time></trkpt><trkpt lat="40.7929433" lon="15.8837483"><ele>488.0</ele><time>2026-05-02T15:29:41.702Z</time></trkpt><trkpt lat="40.7930183" lon="15.88358"><ele>488.0</ele><time>2026-05-02T15:29:42.703Z</time></trkpt><trkpt lat="40.7930967" lon="15.883415"><ele>486.5</ele><time>2026-05-02T15:29:43.702Z</time></trkpt><trkpt lat="40.7931717" lon="15.88326"><ele>485.0</ele><time>2026-05-02T15:29:44.702Z</time></trkpt><trkpt lat="40.7932433" lon="15.8831"><ele>483.5</ele><time>2026-05-02T15:29:45.702Z</time></trkpt><trkpt lat="40.793315" lon="15.8829383"><ele>482.0</ele><time>2026-05-02T15:29:46.701Z</time></trkpt><trkpt lat="40.7933833" lon="15.882765"><ele>480.3333333333333</ele><time>2026-05-02T15:29:47.702Z</time></trkpt><trkpt lat="40.7934583" lon="15.882575"><ele>478.66666666666663</ele><time>2026-05-02T15:29:48.703Z</time></trkpt><trkpt lat="40.79353" lon="15.8823917"><ele>477.0</ele><time>2026-05-02T15:29:49.703Z</time></trkpt><trkpt lat="40.79359" lon="15.88223"><ele>478.40000000000003</ele><time>2026-05-02T15:29:50.704Z</time></trkpt><trkpt lat="40.7936367" lon="15.8820933"><ele>479.80000000000007</ele><time>2026-05-02T15:29:51.704Z</time></trkpt><trkpt lat="40.7936833" lon="15.881965"><ele>481.2</ele><time>2026-05-02T15:29:52.703Z</time></trkpt><trkpt lat="40.7937333" lon="15.8818517"><ele>482.6</ele><time>2026-05-02T15:29:53.703Z</time></trkpt><trkpt lat="40.79378" lon="15.8817617"><ele>484.0</ele><time>2026-05-02T15:29:54.702Z</time></trkpt><trkpt lat="40.7938183" lon="15.8816833"><ele>484.0</ele><time>2026-05-02T15:29:55.702Z</time></trkpt><trkpt lat="40.7938667" lon="15.8815583"><ele>483.99999999999994</ele><time>2026-05-02T15:29:57.702Z</time></trkpt><trkpt lat="40.793895" lon="15.8814767"><ele>484.0</ele><time>2026-05-02T15:29:59.702Z</time></trkpt><trkpt lat="40.7938967" lon="15.8813933"><ele>484.0</ele><time>2026-05-02T15:30:11.702Z</time></trkpt><trkpt lat="40.7939017" lon="15.8814817"><ele>483.99999999999994</ele><time>2026-05-02T15:30:17.701Z</time></trkpt><trkpt lat="40.7938617" lon="15.8815533"><ele>484.0</ele><time>2026-05-02T15:30:18.703Z</time></trkpt><trkpt lat="40.7938183" lon="15.8816383"><ele>484.0</ele><time>2026-05-02T15:30:19.701Z</time></trkpt><trkpt lat="40.79378" lon="15.881725"><ele>485.6</ele><time>2026-05-02T15:30:20.701Z</time></trkpt><trkpt lat="40.7937233" lon="15.8818433"><ele>487.2</ele><time>2026-05-02T15:30:22.7Z</time></trkpt><trkpt lat="40.79371" lon="15.8819533"><ele>488.80000000000007</ele><time>2026-05-02T15:32:19.701Z</time></trkpt><trkpt lat="40.7937617" lon="15.8820133"><ele>490.40000000000003</ele><time>2026-05-02T15:32:28.701Z</time></trkpt><trkpt lat="40.7938533" lon="15.8819583"><ele>492.0</ele><time>2026-05-02T15:32:30.7Z</time></trkpt><trkpt lat="40.7939367" lon="15.8818883"><ele>492.0</ele><time>2026-05-02T15:32:32.701Z</time></trkpt><trkpt lat="40.7940017" lon="15.881825"><ele>492.00000000000006</ele><time>2026-05-02T15:33:32.701Z</time></trkpt><trkpt lat="40.79406" lon="15.8817867"><ele>492.00000000000006</ele><time>2026-05-02T15:33:34.702Z</time></trkpt><trkpt lat="40.7941567" lon="15.8817933"><ele>492.0</ele><time>2026-05-02T15:37:03.702Z</time></trkpt><trkpt lat="40.7942567" lon="15.881845"><ele>492.0</ele><time>2026-05-02T15:37:05.7Z</time></trkpt><trkpt lat="40.7943583" lon="15.8819033"><ele>495.25</ele><time>2026-05-02T15:37:07.702Z</time></trkpt><trkpt lat="40.794465" lon="15.88194"><ele>498.5</ele><time>2026-05-02T15:37:09.705Z</time></trkpt><trkpt lat="40.7945783" lon="15.8819783"><ele>501.75</ele><time>2026-05-02T15:37:11.7Z</time></trkpt><trkpt lat="40.79469" lon="15.8819983"><ele>505.0</ele><time>2026-05-02T15:37:13.701Z</time></trkpt><trkpt lat="40.7948167" lon="15.8820017"><ele>505.00000000000006</ele><time>2026-05-02T15:37:15.7Z</time></trkpt><trkpt lat="40.7949083" lon="15.8820083"><ele>505.0</ele><time>2026-05-02T15:37:17.701Z</time></trkpt><trkpt lat="40.79498" lon="15.8820083"><ele>505.0</ele><time>2026-05-02T15:37:30.7Z</time></trkpt><trkpt lat="40.7950733" lon="15.88205"><ele>505.0</ele><time>2026-05-02T15:37:41.701Z</time></trkpt><trkpt lat="40.7951633" lon="15.882045"><ele>505.00000000000006</ele><time>2026-05-02T15:37:43.702Z</time></trkpt><trkpt lat="40.7952383" lon="15.8820433"><ele>505.0</ele><time>2026-05-02T15:37:45.701Z</time></trkpt><trkpt lat="40.795305" lon="15.8820367"><ele>505.00000000000006</ele><time>2026-05-02T15:37:48.701Z</time></trkpt><trkpt lat="40.7953758" lon="15.8820415"><ele>505.0</ele><time>2026-05-02T15:38:22.702Z</time></trkpt><trkpt lat="40.7952967" lon="15.882035"><ele>505.0</ele><time>2026-05-02T15:39:36.702Z</time></trkpt><trkpt lat="40.7952267" lon="15.8820483"><ele>505.0</ele><time>2026-05-02T15:39:39.701Z</time></trkpt><trkpt lat="40.795135" lon="15.8820667"><ele>505.00000000000006</ele><time>2026-05-02T15:39:42.701Z</time></trkpt><trkpt lat="40.7950433" lon="15.8820767"><ele>505.0</ele><time>2026-05-02T15:39:44.703Z</time></trkpt><trkpt lat="40.7949733" lon="15.88206"><ele>505.0</ele><time>2026-05-02T15:39:46.701Z</time></trkpt><trkpt lat="40.795005" lon="15.8819517"><ele>505.0</ele><time>2026-05-02T15:40:34.702Z</time></trkpt><trkpt lat="40.795085" lon="15.881825"><ele>505.0</ele><time>2026-05-02T15:40:36.701Z</time></trkpt><trkpt lat="40.7951567" lon="15.8816917"><ele>505.0</ele><time>2026-05-02T15:40:38.701Z</time></trkpt><trkpt lat="40.7951833" lon="15.88161"><ele>505.0</ele><time>2026-05-02T15:40:39.701Z</time></trkpt><trkpt lat="40.7952083" lon="15.88152"><ele>506.6666666666667</ele><time>2026-05-02T15:40:40.7Z</time></trkpt><trkpt lat="40.7952233" lon="15.8814333"><ele>508.33333333333337</ele><time>2026-05-02T15:40:41.701Z</time></trkpt><trkpt lat="40.7952333" lon="15.8813483"><ele>510.0</ele><time>2026-05-02T15:40:42.702Z</time></trkpt><trkpt lat="40.7952417" lon="15.8812633"><ele>511.66666666666663</ele><time>2026-05-02T15:40:43.701Z</time></trkpt><trkpt lat="40.795255" lon="15.8811133"><ele>513.3333333333333</ele><time>2026-05-02T15:40:45.702Z</time></trkpt><trkpt lat="40.795285" lon="15.8809667"><ele>515.0</ele><time>2026-05-02T15:40:47.703Z</time></trkpt><trkpt lat="40.7953383" lon="15.880815"><ele>515.0</ele><time>2026-05-02T15:40:49.703Z</time></trkpt><trkpt lat="40.7953667" lon="15.8807317"><ele>515.0</ele><time>2026-05-02T15:40:50.702Z</time></trkpt><trkpt lat="40.7953933" lon="15.8805917"><ele>515.0</ele><time>2026-05-02T15:40:52.702Z</time></trkpt><trkpt lat="40.7954117" lon="15.88047"><ele>515.0</ele><time>2026-05-02T15:40:54.703Z</time></trkpt><trkpt lat="40.7954333" lon="15.8803267"><ele>515.0</ele><time>2026-05-02T15:40:56.703Z</time></trkpt><trkpt lat="40.795445" lon="15.8802383"><ele>515.0</ele><time>2026-05-02T15:40:57.702Z</time></trkpt><trkpt lat="40.7954683" lon="15.8801267"><ele>515.0</ele><time>2026-05-02T15:40:59.702Z</time></trkpt><trkpt lat="40.79554" lon="15.8801433"><ele>515.0</ele><time>2026-05-02T15:41:42.702Z</time></trkpt><trkpt lat="40.7956017" lon="15.8801933"><ele>515.0</ele><time>2026-05-02T15:41:44.702Z</time></trkpt><trkpt lat="40.7956717" lon="15.88022"><ele>515.0</ele><time>2026-05-02T15:41:46.702Z</time></trkpt><trkpt lat="40.795745" lon="15.8802317"><ele>515.0</ele><time>2026-05-02T15:41:49.701Z</time></trkpt><trkpt lat="40.7958667" lon="15.88025"><ele>515.0</ele><time>2026-05-02T15:41:56.702Z</time></trkpt><trkpt lat="40.795945" lon="15.8803467"><ele>515.0</ele><time>2026-05-02T15:42:15.701Z</time></trkpt><trkpt lat="40.796005" lon="15.8804"><ele>515.0</ele><time>2026-05-02T15:42:17.702Z</time></trkpt><trkpt lat="40.7960717" lon="15.8804617"><ele>515.0</ele><time>2026-05-02T15:42:19.701Z</time></trkpt><trkpt lat="40.79618" lon="15.88053"><ele>515.0</ele><time>2026-05-02T15:43:52.705Z</time></trkpt><trkpt lat="40.7962633" lon="15.8805567"><ele>519.5</ele><time>2026-05-02T15:43:54.701Z</time></trkpt><trkpt lat="40.7963517" lon="15.8805967"><ele>524.0</ele><time>2026-05-02T15:43:56.701Z</time></trkpt><trkpt lat="40.7964183" lon="15.88064"><ele>528.5</ele><time>2026-05-02T15:43:58.701Z</time></trkpt><trkpt lat="40.7964967" lon="15.8806833"><ele>533.0</ele><time>2026-05-02T15:44:03.702Z</time></trkpt><trkpt lat="40.7965567" lon="15.88071"><ele>537.5</ele><time>2026-05-02T15:44:05.702Z</time></trkpt><trkpt lat="40.7966133" lon="15.880755"><ele>542.0</ele><time>2026-05-02T15:44:07.701Z</time></trkpt><trkpt lat="40.7966717" lon="15.8808133"><ele>542.0</ele><time>2026-05-02T15:44:09.701Z</time></trkpt><trkpt lat="40.7967383" lon="15.880865"><ele>542.0</ele><time>2026-05-02T15:44:11.703Z</time></trkpt><trkpt lat="40.7968167" lon="15.880925"><ele>542.0</ele><time>2026-05-02T15:44:48.701Z</time></trkpt><trkpt lat="40.7969167" lon="15.88103"><ele>542.0</ele><time>2026-05-02T15:44:50.702Z</time></trkpt><trkpt lat="40.797" lon="15.8811317"><ele>542.0</ele><time>2026-05-02T15:44:52.701Z</time></trkpt><trkpt lat="40.7970467" lon="15.8811883"><ele>547.0</ele><time>2026-05-02T15:44:53.701Z</time></trkpt><trkpt lat="40.7970967" lon="15.88125"><ele>552.0</ele><time>2026-05-02T15:44:54.701Z</time></trkpt><trkpt lat="40.79715" lon="15.881315"><ele>557.0</ele><time>2026-05-02T15:44:55.701Z</time></trkpt><trkpt lat="40.7972083" lon="15.88139"><ele>562.0</ele><time>2026-05-02T15:44:56.701Z</time></trkpt><trkpt lat="40.79726" lon="15.88147"><ele>567.0</ele><time>2026-05-02T15:44:57.701Z</time></trkpt><trkpt lat="40.79731" lon="15.8815417"><ele>572.0</ele><time>2026-05-02T15:44:58.7Z</time></trkpt><trkpt lat="40.7973683" lon="15.8816167"><ele>572.0</ele><time>2026-05-02T15:44:59.702Z</time></trkpt><trkpt lat="40.7974283" lon="15.881695"><ele>572.0</ele><time>2026-05-02T15:45:00.7Z</time></trkpt><trkpt lat="40.7974817" lon="15.881775"><ele>572.0</ele><time>2026-05-02T15:45:01.701Z</time></trkpt><trkpt lat="40.7975383" lon="15.8818433"><ele>572.0</ele><time>2026-05-02T15:45:02.703Z</time></trkpt><trkpt lat="40.7975933" lon="15.88191"><ele>572.0</ele><time>2026-05-02T15:45:03.7Z</time></trkpt><trkpt lat="40.79764" lon="15.8819783"><ele>572.0</ele><time>2026-05-02T15:45:04.701Z</time></trkpt><trkpt lat="40.79768" lon="15.8820483"><ele>577.2</ele><time>2026-05-02T15:45:05.701Z</time></trkpt><trkpt lat="40.79772" lon="15.8821517"><ele>582.4000000000001</ele><time>2026-05-02T15:45:07.701Z</time></trkpt><trkpt lat="40.79778" lon="15.8822267"><ele>587.5999999999999</ele><time>2026-05-02T15:45:10.701Z</time></trkpt><trkpt lat="40.7978717" lon="15.882275"><ele>592.8</ele><time>2026-05-02T15:45:12.7Z</time></trkpt><trkpt lat="40.7979683" lon="15.8823633"><ele>598.0</ele><time>2026-05-02T15:45:14.701Z</time></trkpt><trkpt lat="40.79803" lon="15.88239"><ele>598.0</ele><time>2026-05-02T15:45:15.701Z</time></trkpt><trkpt lat="40.79809" lon="15.8824183"><ele>598.0</ele><time>2026-05-02T15:45:16.7Z</time></trkpt><trkpt lat="40.7981783" lon="15.88249"><ele>598.0</ele><time>2026-05-02T15:45:18.702Z</time></trkpt><trkpt lat="40.7982467" lon="15.8825517"><ele>598.0</ele><time>2026-05-02T15:45:20.701Z</time></trkpt><trkpt lat="40.7983133" lon="15.88265"><ele>598.0</ele><time>2026-05-02T15:45:22.701Z</time></trkpt><trkpt lat="40.7983867" lon="15.8827583"><ele>599.75</ele><time>2026-05-02T15:45:24.7Z</time></trkpt><trkpt lat="40.79848" lon="15.8828333"><ele>601.5</ele><time>2026-05-02T15:45:26.701Z</time></trkpt><trkpt lat="40.7985867" lon="15.8828967"><ele>603.25</ele><time>2026-05-02T15:45:28.701Z</time></trkpt><trkpt lat="40.7987067" lon="15.8829467"><ele>605.0</ele><time>2026-05-02T15:45:30.701Z</time></trkpt><trkpt lat="40.7987994" lon="15.8830044"><ele>608.8333333333333</ele><time>2026-05-02T15:45:32.7Z</time></trkpt><trkpt lat="40.7988881" lon="15.8829955"><ele>612.6666666666666</ele><time>2026-05-02T15:45:34.701Z</time></trkpt><trkpt lat="40.7989745" lon="15.8829699"><ele>616.5</ele><time>2026-05-02T15:45:36.7Z</time></trkpt><trkpt lat="40.7990577" lon="15.8829393"><ele>620.3333333333334</ele><time>2026-05-02T15:45:38.701Z</time></trkpt><trkpt lat="40.7991533" lon="15.8829167"><ele>624.1666666666667</ele><time>2026-05-02T15:55:14.701Z</time></trkpt><trkpt lat="40.7992267" lon="15.8828517"><ele>628.0</ele><time>2026-05-02T15:56:02.7Z</time></trkpt><trkpt lat="40.7992883" lon="15.8828083"><ele>630.4</ele><time>2026-05-02T15:56:05.7Z</time></trkpt><trkpt lat="40.7993733" lon="15.882765"><ele>632.8</ele><time>2026-05-02T15:56:07.701Z</time></trkpt><trkpt lat="40.799475" lon="15.8827433"><ele>635.2</ele><time>2026-05-02T15:56:09.7Z</time></trkpt><trkpt lat="40.7995767" lon="15.8827683"><ele>637.6</ele><time>2026-05-02T15:56:11.701Z</time></trkpt><trkpt lat="40.7996583" lon="15.8828333"><ele>640.0</ele><time>2026-05-02T15:56:13.701Z</time></trkpt><trkpt lat="40.7997183" lon="15.8829317"><ele>640.0</ele><time>2026-05-02T15:56:15.701Z</time></trkpt><trkpt lat="40.7997833" lon="15.8830283"><ele>640.0</ele><time>2026-05-02T15:56:17.701Z</time></trkpt><trkpt lat="40.79984" lon="15.88312"><ele>640.0</ele><time>2026-05-02T15:56:19.701Z</time></trkpt><trkpt lat="40.799845" lon="15.88322"><ele>640.0</ele><time>2026-05-02T15:56:21.7Z</time></trkpt><trkpt lat="40.7997743" lon="15.8832743"><ele>640.0</ele><time>2026-05-02T15:56:23.701Z</time></trkpt><trkpt lat="40.799707" lon="15.8832468"><ele>640.0</ele><time>2026-05-02T15:56:26.729Z</time></trkpt><trkpt lat="40.7996467" lon="15.8831552"><ele>640.0</ele><time>2026-05-02T15:56:28.743Z</time></trkpt><trkpt lat="40.7997339" lon="15.8830475"><ele>640.0</ele><time>2026-05-02T15:56:31.762Z</time></trkpt><trkpt lat="40.7998121" lon="15.8829963"><ele>640.0</ele><time>2026-05-02T15:56:33.775Z</time></trkpt><trkpt lat="40.7998921" lon="15.8830206"><ele>640.0</ele><time>2026-05-02T15:56:35.781Z</time></trkpt><trkpt lat="40.7998712" lon="15.883124"><ele>640.0</ele><time>2026-05-02T15:56:37.803Z</time></trkpt><trkpt lat="40.7998398" lon="15.8832204"><ele>640.0</ele><time>2026-05-02T15:56:38.78Z</time></trkpt><trkpt lat="40.7997845" lon="15.8833267"><ele>640.0</ele><time>2026-05-02T15:56:40.723Z</time></trkpt><trkpt lat="40.7997017" lon="15.88322"><ele>640.0</ele><time>2026-05-02T15:56:42.699Z</time></trkpt><trkpt lat="40.79971" lon="15.8831033"><ele>640.0</ele><time>2026-05-02T15:56:45.7Z</time></trkpt><trkpt lat="40.799775" lon="15.8830283"><ele>640.0</ele><time>2026-05-02T15:56:48.7Z</time></trkpt><trkpt lat="40.799845" lon="15.8830733"><ele>640.0</ele><time>2026-05-02T15:56:51.701Z</time></trkpt><trkpt lat="40.7998533" lon="15.8831633"><ele>640.0</ele><time>2026-05-02T15:56:53.702Z</time></trkpt><trkpt lat="40.7997717" lon="15.883235"><ele>640.0</ele><time>2026-05-02T15:56:56.701Z</time></trkpt><trkpt lat="40.7996983" lon="15.883265"><ele>640.0</ele><time>2026-05-02T15:56:58.703Z</time></trkpt><trkpt lat="40.7996333" lon="15.8833283"><ele>640.0</ele><time>2026-05-02T15:57:00.7Z</time></trkpt><trkpt lat="40.7995733" lon="15.88337"><ele>640.0</ele><time>2026-05-02T15:57:02.701Z</time></trkpt><trkpt lat="40.799505" lon="15.8833633"><ele>640.0</ele><time>2026-05-02T15:57:04.701Z</time></trkpt><trkpt lat="40.7994433" lon="15.88334"><ele>640.0</ele><time>2026-05-02T15:57:06.7Z</time></trkpt><trkpt lat="40.7993617" lon="15.88338"><ele>640.0</ele><time>2026-05-02T15:57:09.701Z</time></trkpt><trkpt lat="40.799345" lon="15.883465"><ele>643.6</ele><time>2026-05-02T15:57:11.701Z</time></trkpt><trkpt lat="40.7993933" lon="15.88356"><ele>647.2</ele><time>2026-05-02T15:57:14.701Z</time></trkpt><trkpt lat="40.7994683" lon="15.8836117"><ele>650.8</ele><time>2026-05-02T15:57:16.7Z</time></trkpt><trkpt lat="40.7995483" lon="15.8836917"><ele>654.4</ele><time>2026-05-02T15:57:18.701Z</time></trkpt><trkpt lat="40.7996283" lon="15.8837733"><ele>658.0</ele><time>2026-05-02T15:57:20.7Z</time></trkpt><trkpt lat="40.79971" lon="15.88385"><ele>658.0</ele><time>2026-05-02T15:57:22.701Z</time></trkpt><trkpt lat="40.7998017" lon="15.8839167"><ele>658.0</ele><time>2026-05-02T15:57:24.7Z</time></trkpt><trkpt lat="40.7998933" lon="15.8839817"><ele>658.0</ele><time>2026-05-02T15:57:26.7Z</time></trkpt><trkpt lat="40.79999" lon="15.8840583"><ele>658.0</ele><time>2026-05-02T15:57:28.701Z</time></trkpt><trkpt lat="40.8000883" lon="15.884155"><ele>658.0</ele><time>2026-05-02T15:57:30.701Z</time></trkpt><trkpt lat="40.8001417" lon="15.8842067"><ele>659.8333333333334</ele><time>2026-05-02T15:57:31.701Z</time></trkpt><trkpt lat="40.8002" lon="15.884255"><ele>661.6666666666667</ele><time>2026-05-02T15:57:32.703Z</time></trkpt><trkpt lat="40.80026" lon="15.8843017"><ele>663.5</ele><time>2026-05-02T15:57:33.702Z</time></trkpt><trkpt lat="40.8003167" lon="15.8843467"><ele>665.3333333333334</ele><time>2026-05-02T15:57:34.702Z</time></trkpt><trkpt lat="40.80041" lon="15.8844333"><ele>667.1666666666666</ele><time>2026-05-02T15:57:36.701Z</time></trkpt><trkpt lat="40.8004883" lon="15.8845083"><ele>669.0</ele><time>2026-05-02T15:57:38.701Z</time></trkpt><trkpt lat="40.8005867" lon="15.8845917"><ele>672.75</ele><time>2026-05-02T15:57:40.701Z</time></trkpt><trkpt lat="40.800685" lon="15.8846567"><ele>676.5</ele><time>2026-05-02T15:57:42.7Z</time></trkpt><trkpt lat="40.8007867" lon="15.88475"><ele>680.25</ele><time>2026-05-02T15:57:44.701Z</time></trkpt><trkpt lat="40.8008833" lon="15.884825"><ele>684.0</ele><time>2026-05-02T15:57:46.701Z</time></trkpt><trkpt lat="40.8009933" lon="15.884885"><ele>685.0</ele><time>2026-05-02T15:57:48.7Z</time></trkpt><trkpt lat="40.8010567" lon="15.8849217"><ele>686.0</ele><time>2026-05-02T15:57:49.702Z</time></trkpt><trkpt lat="40.801115" lon="15.8849617"><ele>687.0</ele><time>2026-05-02T15:57:50.702Z</time></trkpt><trkpt lat="40.801175" lon="15.8849983"><ele>688.0</ele><time>2026-05-02T15:57:51.702Z</time></trkpt><trkpt lat="40.8012767" lon="15.8850667"><ele>689.0</ele><time>2026-05-02T15:57:53.702Z</time></trkpt><trkpt lat="40.8013883" lon="15.8851"><ele>690.0</ele><time>2026-05-02T15:57:55.701Z</time></trkpt><trkpt lat="40.8015073" lon="15.8851151"><ele>690.0</ele><time>2026-05-02T15:57:57.701Z</time></trkpt><trkpt lat="40.8016235" lon="15.8851414"><ele>690.0</ele><time>2026-05-02T15:57:59.702Z</time></trkpt><trkpt lat="40.8017183" lon="15.8851605"><ele>690.0</ele><time>2026-05-02T15:58:01.703Z</time></trkpt><trkpt lat="40.8017919" lon="15.8851766"><ele>690.0</ele><time>2026-05-02T15:58:03.7Z</time></trkpt><trkpt lat="40.8018689" lon="15.8852035"><ele>690.0</ele><time>2026-05-02T15:58:05.703Z</time></trkpt><trkpt lat="40.8019391" lon="15.8852391"><ele>690.0</ele><time>2026-05-02T15:58:07.702Z</time></trkpt><trkpt lat="40.8020115" lon="15.88527"><ele>689.1666666666666</ele><time>2026-05-02T15:58:09.7Z</time></trkpt><trkpt lat="40.8020998" lon="15.8853035"><ele>688.3333333333334</ele><time>2026-05-02T15:58:12.7Z</time></trkpt><trkpt lat="40.8021867" lon="15.8853467"><ele>687.5</ele><time>2026-05-02T15:58:15.701Z</time></trkpt><trkpt lat="40.802245" lon="15.88538"><ele>686.6666666666667</ele><time>2026-05-02T15:58:18.701Z</time></trkpt><trkpt lat="40.8023367" lon="15.8854067"><ele>685.8333333333334</ele><time>2026-05-02T15:58:53.702Z</time></trkpt><trkpt lat="40.8024333" lon="15.8854517"><ele>685.0</ele><time>2026-05-02T15:58:56.702Z</time></trkpt><trkpt lat="40.8025383" lon="15.8855117"><ele>685.0</ele><time>2026-05-02T15:58:58.702Z</time></trkpt><trkpt lat="40.8026317" lon="15.8855733"><ele>685.0</ele><time>2026-05-02T15:59:00.701Z</time></trkpt><trkpt lat="40.80272" lon="15.885605"><ele>685.0</ele><time>2026-05-02T15:59:02.701Z</time></trkpt><trkpt lat="40.802815" lon="15.8856267"><ele>685.0</ele><time>2026-05-02T15:59:04.701Z</time></trkpt><trkpt lat="40.8029233" lon="15.8856567"><ele>685.0</ele><time>2026-05-02T15:59:06.702Z</time></trkpt><trkpt lat="40.8029867" lon="15.885675"><ele>684.8333333333334</ele><time>2026-05-02T15:59:07.701Z</time></trkpt><trkpt lat="40.8030533" lon="15.8856983"><ele>684.6666666666667</ele><time>2026-05-02T15:59:08.702Z</time></trkpt><trkpt lat="40.8031233" lon="15.885725"><ele>684.5</ele><time>2026-05-02T15:59:09.701Z</time></trkpt><trkpt lat="40.8031867" lon="15.8857417"><ele>684.3333333333334</ele><time>2026-05-02T15:59:10.702Z</time></trkpt><trkpt lat="40.8032917" lon="15.8857883"><ele>684.1666666666666</ele><time>2026-05-02T15:59:12.701Z</time></trkpt><trkpt lat="40.803355" lon="15.8858067"><ele>684.0</ele><time>2026-05-02T15:59:13.7Z</time></trkpt><trkpt lat="40.803425" lon="15.8858183"><ele>683.9999999999999</ele><time>2026-05-02T15:59:14.702Z</time></trkpt><trkpt lat="40.80349" lon="15.88583"><ele>684.0</ele><time>2026-05-02T15:59:15.701Z</time></trkpt><trkpt lat="40.8035567" lon="15.885845"><ele>684.0</ele><time>2026-05-02T15:59:16.706Z</time></trkpt><trkpt lat="40.80362" lon="15.88586"><ele>684.0</ele><time>2026-05-02T15:59:17.701Z</time></trkpt><trkpt lat="40.8036833" lon="15.8858717"><ele>684.0</ele><time>2026-05-02T15:59:18.701Z</time></trkpt><trkpt lat="40.803745" lon="15.8858933"><ele>683.9999999999999</ele><time>2026-05-02T15:59:19.701Z</time></trkpt><trkpt lat="40.8038083" lon="15.8859183"><ele>684.0</ele><time>2026-05-02T15:59:20.701Z</time></trkpt><trkpt lat="40.8038717" lon="15.8859383"><ele>687.5</ele><time>2026-05-02T15:59:21.702Z</time></trkpt><trkpt lat="40.8039883" lon="15.8859717"><ele>691.0</ele><time>2026-05-02T15:59:23.701Z</time></trkpt><trkpt lat="40.80405" lon="15.88599"><ele>694.5</ele><time>2026-05-02T15:59:24.701Z</time></trkpt><trkpt lat="40.8041133" lon="15.8860083"><ele>698.0</ele><time>2026-05-02T15:59:25.702Z</time></trkpt><trkpt lat="40.80419" lon="15.8860267"><ele>701.5</ele><time>2026-05-02T15:59:26.702Z</time></trkpt><trkpt lat="40.8042733" lon="15.886045"><ele>705.0</ele><time>2026-05-02T15:59:27.7Z</time></trkpt><trkpt lat="40.8043583" lon="15.88607"><ele>707.5</ele><time>2026-05-02T15:59:28.701Z</time></trkpt><trkpt lat="40.8044367" lon="15.8861"><ele>710.0</ele><time>2026-05-02T15:59:29.702Z</time></trkpt><trkpt lat="40.804515" lon="15.8861333"><ele>712.5</ele><time>2026-05-02T15:59:30.701Z</time></trkpt><trkpt lat="40.8045917" lon="15.8861617"><ele>715.0</ele><time>2026-05-02T15:59:31.703Z</time></trkpt><trkpt lat="40.8046617" lon="15.886185"><ele>717.5</ele><time>2026-05-02T15:59:32.701Z</time></trkpt><trkpt lat="40.8047709" lon="15.8862344"><ele>720.0</ele><time>2026-05-02T15:59:34.702Z</time></trkpt><trkpt lat="40.8048564" lon="15.8862766"><ele>720.0</ele><time>2026-05-02T15:59:36.701Z</time></trkpt><trkpt lat="40.804925" lon="15.8863117"><ele>720.0</ele><time>2026-05-02T16:02:02.703Z</time></trkpt><trkpt lat="40.8050067" lon="15.8863483"><ele>720.0</ele><time>2026-05-02T16:02:05.701Z</time></trkpt><trkpt lat="40.8050917" lon="15.8864117"><ele>720.0</ele><time>2026-05-02T16:02:07.701Z</time></trkpt><trkpt lat="40.8051567" lon="15.886485"><ele>720.0</ele><time>2026-05-02T16:02:09.702Z</time></trkpt><trkpt lat="40.80521" lon="15.8865433"><ele>720.0</ele><time>2026-05-02T16:02:11.702Z</time></trkpt><trkpt lat="40.8053283" lon="15.8866067"><ele>719.8333333333334</ele><time>2026-05-02T16:02:13.701Z</time></trkpt><trkpt lat="40.8053917" lon="15.886635"><ele>719.6666666666666</ele><time>2026-05-02T16:02:14.701Z</time></trkpt><trkpt lat="40.8054583" lon="15.8866667"><ele>719.5</ele><time>2026-05-02T16:02:15.702Z</time></trkpt><trkpt lat="40.8055217" lon="15.8867017"><ele>719.3333333333333</ele><time>2026-05-02T16:02:16.702Z</time></trkpt><trkpt lat="40.8055833" lon="15.8867317"><ele>719.1666666666666</ele><time>2026-05-02T16:02:17.701Z</time></trkpt><trkpt lat="40.805645" lon="15.88676"><ele>719.0</ele><time>2026-05-02T16:02:18.7Z</time></trkpt><trkpt lat="40.8057467" lon="15.886825"><ele>718.8333333333333</ele><time>2026-05-02T16:02:20.702Z</time></trkpt><trkpt lat="40.8058183" lon="15.886885"><ele>718.6666666666666</ele><time>2026-05-02T16:02:22.701Z</time></trkpt><trkpt lat="40.8058733" lon="15.8869567"><ele>718.5</ele><time>2026-05-02T16:02:24.701Z</time></trkpt><trkpt lat="40.8059283" lon="15.88702"><ele>718.3333333333334</ele><time>2026-05-02T16:02:26.702Z</time></trkpt><trkpt lat="40.805985" lon="15.88706"><ele>718.1666666666667</ele><time>2026-05-02T16:02:28.701Z</time></trkpt><trkpt lat="40.8060633" lon="15.8870733"><ele>718.0</ele><time>2026-05-02T16:02:30.702Z</time></trkpt><trkpt lat="40.8061717" lon="15.88708"><ele>718.0</ele><time>2026-05-02T16:02:32.703Z</time></trkpt><trkpt lat="40.8062917" lon="15.8870917"><ele>718.0</ele><time>2026-05-02T16:02:34.703Z</time></trkpt><trkpt lat="40.806395" lon="15.8871217"><ele>718.0</ele><time>2026-05-02T16:02:36.702Z</time></trkpt><trkpt lat="40.806495" lon="15.8871817"><ele>718.0</ele><time>2026-05-02T16:02:38.703Z</time></trkpt><trkpt lat="40.8065967" lon="15.8871983"><ele>718.0</ele><time>2026-05-02T16:02:40.702Z</time></trkpt><trkpt lat="40.80671" lon="15.887205"><ele>718.0</ele><time>2026-05-02T16:02:42.701Z</time></trkpt><trkpt lat="40.8067733" lon="15.887225"><ele>718.0</ele><time>2026-05-02T16:02:43.703Z</time></trkpt><trkpt lat="40.8068383" lon="15.88724"><ele>718.0</ele><time>2026-05-02T16:02:44.701Z</time></trkpt><trkpt lat="40.8069017" lon="15.88725"><ele>718.0</ele><time>2026-05-02T16:02:45.701Z</time></trkpt><trkpt lat="40.80702" lon="15.88727"><ele>718.0</ele><time>2026-05-02T16:02:47.703Z</time></trkpt><trkpt lat="40.8071267" lon="15.88729"><ele>718.0</ele><time>2026-05-02T16:02:49.701Z</time></trkpt><trkpt lat="40.8072283" lon="15.887325"><ele>717.8333333333334</ele><time>2026-05-02T16:02:51.701Z</time></trkpt><trkpt lat="40.80734" lon="15.8873267"><ele>717.6666666666667</ele><time>2026-05-02T16:02:53.703Z</time></trkpt><trkpt lat="40.807405" lon="15.8873183"><ele>717.5</ele><time>2026-05-02T16:02:54.701Z</time></trkpt><trkpt lat="40.8074683" lon="15.8873117"><ele>717.3333333333334</ele><time>2026-05-02T16:02:55.702Z</time></trkpt><trkpt lat="40.8075333" lon="15.8873017"><ele>717.1666666666666</ele><time>2026-05-02T16:02:56.702Z</time></trkpt><trkpt lat="40.8076433" lon="15.8872983"><ele>717.0</ele><time>2026-05-02T16:02:58.701Z</time></trkpt><trkpt lat="40.807745" lon="15.887285"><ele>717.0</ele><time>2026-05-02T16:03:00.703Z</time></trkpt><trkpt lat="40.8078417" lon="15.8872917"><ele>717.0</ele><time>2026-05-02T16:03:02.7Z</time></trkpt><trkpt lat="40.8079317" lon="15.8872933"><ele>717.0</ele><time>2026-05-02T16:03:04.701Z</time></trkpt><trkpt lat="40.8080267" lon="15.8873067"><ele>717.0</ele><time>2026-05-02T16:03:06.701Z</time></trkpt><trkpt lat="40.8081433" lon="15.8873233"><ele>717.0</ele><time>2026-05-02T16:03:08.702Z</time></trkpt><trkpt lat="40.8082067" lon="15.8873283"><ele>717.0</ele><time>2026-05-02T16:03:09.702Z</time></trkpt><trkpt lat="40.8083133" lon="15.887325"><ele>717.0</ele><time>2026-05-02T16:03:11.701Z</time></trkpt><trkpt lat="40.8083767" lon="15.8873167"><ele>717.0</ele><time>2026-05-02T16:03:12.701Z</time></trkpt><trkpt lat="40.808485" lon="15.8872967"><ele>717.0</ele><time>2026-05-02T16:03:14.701Z</time></trkpt><trkpt lat="40.8085667" lon="15.8872867"><ele>717.0</ele><time>2026-05-02T16:03:16.702Z</time></trkpt><trkpt lat="40.8086383" lon="15.8872667"><ele>717.0</ele><time>2026-05-02T16:03:18.702Z</time></trkpt><trkpt lat="40.8087177" lon="15.8872607"><ele>717.2</ele><time>2026-05-02T16:03:20.783Z</time></trkpt><trkpt lat="40.8087985" lon="15.887269"><ele>717.4000000000001</ele><time>2026-05-02T16:03:22.731Z</time></trkpt><trkpt lat="40.8089078" lon="15.8872771"><ele>717.5999999999999</ele><time>2026-05-02T16:03:24.702Z</time></trkpt><trkpt lat="40.80902" lon="15.8872733"><ele>717.8</ele><time>2026-05-02T16:03:26.701Z</time></trkpt><trkpt lat="40.8091317" lon="15.8872683"><ele>718.0</ele><time>2026-05-02T16:03:28.702Z</time></trkpt><trkpt lat="40.8092433" lon="15.8872617"><ele>718.0</ele><time>2026-05-02T16:03:30.7Z</time></trkpt><trkpt lat="40.80934" lon="15.887275"><ele>718.0</ele><time>2026-05-02T16:03:32.702Z</time></trkpt><trkpt lat="40.8094317" lon="15.887295"><ele>718.0</ele><time>2026-05-02T16:03:34.701Z</time></trkpt><trkpt lat="40.80954" lon="15.887275"><ele>718.0</ele><time>2026-05-02T16:03:36.702Z</time></trkpt><trkpt lat="40.8096367" lon="15.8872317"><ele>718.0</ele><time>2026-05-02T16:03:38.702Z</time></trkpt><trkpt lat="40.809745" lon="15.8871617"><ele>718.0</ele><time>2026-05-02T16:03:40.701Z</time></trkpt><trkpt lat="40.8098067" lon="15.8871283"><ele>718.0</ele><time>2026-05-02T16:03:41.701Z</time></trkpt><trkpt lat="40.8098717" lon="15.8870967"><ele>718.0</ele><time>2026-05-02T16:03:42.702Z</time></trkpt><trkpt lat="40.809935" lon="15.8870717"><ele>718.0</ele><time>2026-05-02T16:03:43.702Z</time></trkpt><trkpt lat="40.8100017" lon="15.887045"><ele>718.0</ele><time>2026-05-02T16:03:44.703Z</time></trkpt><trkpt lat="40.8100667" lon="15.8870117"><ele>718.0</ele><time>2026-05-02T16:03:45.701Z</time></trkpt><trkpt lat="40.8101283" lon="15.8869833"><ele>718.0</ele><time>2026-05-02T16:03:46.702Z</time></trkpt><trkpt lat="40.8101883" lon="15.8869533"><ele>718.1666666666667</ele><time>2026-05-02T16:03:47.703Z</time></trkpt><trkpt lat="40.810255" lon="15.8869183"><ele>718.3333333333334</ele><time>2026-05-02T16:03:48.703Z</time></trkpt><trkpt lat="40.8103167" lon="15.88688"><ele>718.5</ele><time>2026-05-02T16:03:49.702Z</time></trkpt><trkpt lat="40.81038" lon="15.88684"><ele>718.6666666666666</ele><time>2026-05-02T16:03:50.702Z</time></trkpt><trkpt lat="40.8104533" lon="15.8867983"><ele>718.8333333333333</ele><time>2026-05-02T16:03:51.703Z</time></trkpt><trkpt lat="40.8105233" lon="15.8867483"><ele>719.0</ele><time>2026-05-02T16:03:52.701Z</time></trkpt><trkpt lat="40.8105933" lon="15.8866967"><ele>718.9999999999999</ele><time>2026-05-02T16:03:53.702Z</time></trkpt><trkpt lat="40.81066" lon="15.8866533"><ele>719.0</ele><time>2026-05-02T16:03:54.701Z</time></trkpt><trkpt lat="40.8107317" lon="15.8866083"><ele>719.0</ele><time>2026-05-02T16:03:55.702Z</time></trkpt><trkpt lat="40.8108" lon="15.8865667"><ele>719.0</ele><time>2026-05-02T16:03:56.703Z</time></trkpt><trkpt lat="40.8108683" lon="15.88653"><ele>719.0</ele><time>2026-05-02T16:03:57.701Z</time></trkpt><trkpt lat="40.8109317" lon="15.8864967"><ele>718.9999999999999</ele><time>2026-05-02T16:03:58.702Z</time></trkpt><trkpt lat="40.8110017" lon="15.8864583"><ele>719.0</ele><time>2026-05-02T16:03:59.702Z</time></trkpt><trkpt lat="40.8110733" lon="15.886425"><ele>717.5</ele><time>2026-05-02T16:04:00.7Z</time></trkpt><trkpt lat="40.8111417" lon="15.8863883"><ele>716.0</ele><time>2026-05-02T16:04:01.702Z</time></trkpt><trkpt lat="40.8112117" lon="15.8863483"><ele>714.5</ele><time>2026-05-02T16:04:02.703Z</time></trkpt><trkpt lat="40.81128" lon="15.88631"><ele>713.0</ele><time>2026-05-02T16:04:03.703Z</time></trkpt><trkpt lat="40.81135" lon="15.8862817"><ele>711.5</ele><time>2026-05-02T16:04:04.702Z</time></trkpt><trkpt lat="40.8114233" lon="15.88625"><ele>710.0</ele><time>2026-05-02T16:04:05.703Z</time></trkpt><trkpt lat="40.8114967" lon="15.88622"><ele>710.0</ele><time>2026-05-02T16:04:06.701Z</time></trkpt><trkpt lat="40.8115683" lon="15.886195"><ele>710.0</ele><time>2026-05-02T16:04:07.702Z</time></trkpt><trkpt lat="40.8116417" lon="15.88617"><ele>710.0</ele><time>2026-05-02T16:04:08.703Z</time></trkpt><trkpt lat="40.8117433" lon="15.8861517"><ele>710.0</ele><time>2026-05-02T16:04:10.701Z</time></trkpt><trkpt lat="40.811825" lon="15.8861517"><ele>710.0</ele><time>2026-05-02T16:04:13.701Z</time></trkpt><trkpt lat="40.8119067" lon="15.88619"><ele>710.0</ele><time>2026-05-02T16:05:22.702Z</time></trkpt><trkpt lat="40.8119767" lon="15.8861983"><ele>709.5714285714286</ele><time>2026-05-02T16:05:26.703Z</time></trkpt><trkpt lat="40.81204" lon="15.8862067"><ele>709.1428571428571</ele><time>2026-05-02T16:05:31.7Z</time></trkpt><trkpt lat="40.812115" lon="15.886195"><ele>708.7142857142858</ele><time>2026-05-02T16:07:45.701Z</time></trkpt><trkpt lat="40.8121783" lon="15.8862067"><ele>708.2857142857142</ele><time>2026-05-02T16:07:50.702Z</time></trkpt><trkpt lat="40.8122467" lon="15.8862083"><ele>707.8571428571429</ele><time>2026-05-02T16:07:54.7Z</time></trkpt><trkpt lat="40.8123283" lon="15.8862167"><ele>707.4285714285714</ele><time>2026-05-02T16:07:58.702Z</time></trkpt><trkpt lat="40.8123967" lon="15.88625"><ele>707.0</ele><time>2026-05-02T16:08:02.703Z</time></trkpt><trkpt lat="40.812455" lon="15.88632"><ele>707.0</ele><time>2026-05-02T16:08:22.701Z</time></trkpt><trkpt lat="40.8125417" lon="15.8864083"><ele>707.0</ele><time>2026-05-02T16:08:25.701Z</time></trkpt><trkpt lat="40.81264" lon="15.8865117"><ele>707.0</ele><time>2026-05-02T16:08:27.7Z</time></trkpt><trkpt lat="40.8126917" lon="15.8865733"><ele>707.0</ele><time>2026-05-02T16:08:28.7Z</time></trkpt><trkpt lat="40.8127433" lon="15.8866433"><ele>707.0</ele><time>2026-05-02T16:08:29.7Z</time></trkpt><trkpt lat="40.8127967" lon="15.8867167"><ele>707.0</ele><time>2026-05-02T16:08:30.7Z</time></trkpt><trkpt lat="40.8128533" lon="15.8868"><ele>707.0</ele><time>2026-05-02T16:08:31.7Z</time></trkpt><trkpt lat="40.8129067" lon="15.88688"><ele>707.0</ele><time>2026-05-02T16:08:32.703Z</time></trkpt><trkpt lat="40.8129567" lon="15.8869533"><ele>707.0</ele><time>2026-05-02T16:08:33.701Z</time></trkpt><trkpt lat="40.813005" lon="15.8870267"><ele>707.0</ele><time>2026-05-02T16:08:34.701Z</time></trkpt><trkpt lat="40.8130483" lon="15.8871"><ele>707.0</ele><time>2026-05-02T16:08:35.7Z</time></trkpt><trkpt lat="40.8130917" lon="15.8871717"><ele>707.0</ele><time>2026-05-02T16:08:36.701Z</time></trkpt><trkpt lat="40.813135" lon="15.8872483"><ele>707.0</ele><time>2026-05-02T16:08:37.7Z</time></trkpt><trkpt lat="40.8131683" lon="15.8873283"><ele>707.0</ele><time>2026-05-02T16:08:38.7Z</time></trkpt><trkpt lat="40.81324" lon="15.88746"><ele>707.0</ele><time>2026-05-02T16:08:40.701Z</time></trkpt><trkpt lat="40.8133083" lon="15.8875917"><ele>707.0</ele><time>2026-05-02T16:08:42.702Z</time></trkpt><trkpt lat="40.8133417" lon="15.8876633"><ele>707.0</ele><time>2026-05-02T16:08:43.7Z</time></trkpt><trkpt lat="40.8133833" lon="15.8877417"><ele>708.1428571428571</ele><time>2026-05-02T16:08:44.701Z</time></trkpt><trkpt lat="40.8134267" lon="15.887825"><ele>709.2857142857142</ele><time>2026-05-02T16:08:45.701Z</time></trkpt><trkpt lat="40.8134683" lon="15.8879017"><ele>710.4285714285714</ele><time>2026-05-02T16:08:46.7Z</time></trkpt><trkpt lat="40.813505" lon="15.8879733"><ele>711.5714285714286</ele><time>2026-05-02T16:08:47.701Z</time></trkpt><trkpt lat="40.8135383" lon="15.888045"><ele>712.7142857142857</ele><time>2026-05-02T16:08:48.7Z</time></trkpt><trkpt lat="40.8135667" lon="15.8881217"><ele>713.8571428571429</ele><time>2026-05-02T16:08:49.7Z</time></trkpt><trkpt lat="40.8135917" lon="15.8881983"><ele>715.0</ele><time>2026-05-02T16:08:50.7Z</time></trkpt><trkpt lat="40.8136133" lon="15.88828"><ele>715.0</ele><time>2026-05-02T16:08:51.7Z</time></trkpt><trkpt lat="40.813635" lon="15.8883633"><ele>715.0</ele><time>2026-05-02T16:08:52.702Z</time></trkpt><trkpt lat="40.8136483" lon="15.888445"><ele>715.0</ele><time>2026-05-02T16:08:53.701Z</time></trkpt><trkpt lat="40.8136583" lon="15.8885283"><ele>715.0</ele><time>2026-05-02T16:08:54.7Z</time></trkpt><trkpt lat="40.8136667" lon="15.8886117"><ele>715.0</ele><time>2026-05-02T16:08:55.701Z</time></trkpt><trkpt lat="40.8136783" lon="15.88877"><ele>715.0</ele><time>2026-05-02T16:08:57.701Z</time></trkpt><trkpt lat="40.8136817" lon="15.8888533"><ele>715.0</ele><time>2026-05-02T16:08:58.701Z</time></trkpt><trkpt lat="40.8136833" lon="15.88894"><ele>715.1428571428572</ele><time>2026-05-02T16:08:59.7Z</time></trkpt><trkpt lat="40.8136833" lon="15.8890283"><ele>715.2857142857142</ele><time>2026-05-02T16:09:00.701Z</time></trkpt><trkpt lat="40.8136783" lon="15.8891133"><ele>715.4285714285714</ele><time>2026-05-02T16:09:01.7Z</time></trkpt><trkpt lat="40.813675" lon="15.889205"><ele>715.5714285714287</ele><time>2026-05-02T16:09:02.701Z</time></trkpt><trkpt lat="40.81367" lon="15.889295"><ele>715.7142857142858</ele><time>2026-05-02T16:09:03.701Z</time></trkpt><trkpt lat="40.81367" lon="15.8893833"><ele>715.8571428571429</ele><time>2026-05-02T16:09:04.701Z</time></trkpt><trkpt lat="40.8136717" lon="15.8894717"><ele>716.0</ele><time>2026-05-02T16:09:05.7Z</time></trkpt><trkpt lat="40.8136783" lon="15.8895667"><ele>715.2857142857143</ele><time>2026-05-02T16:09:06.701Z</time></trkpt><trkpt lat="40.8136883" lon="15.88966"><ele>714.5714285714286</ele><time>2026-05-02T16:09:07.701Z</time></trkpt><trkpt lat="40.8136983" lon="15.8897583"><ele>713.8571428571429</ele><time>2026-05-02T16:09:08.701Z</time></trkpt><trkpt lat="40.8137167" lon="15.8898517"><ele>713.1428571428571</ele><time>2026-05-02T16:09:09.701Z</time></trkpt><trkpt lat="40.8137383" lon="15.8899467"><ele>712.4285714285714</ele><time>2026-05-02T16:09:10.702Z</time></trkpt><trkpt lat="40.81377" lon="15.8900383"><ele>711.7142857142858</ele><time>2026-05-02T16:09:11.701Z</time></trkpt><trkpt lat="40.8138067" lon="15.89013"><ele>711.0</ele><time>2026-05-02T16:09:12.7Z</time></trkpt><trkpt lat="40.813845" lon="15.8902183"><ele>709.5</ele><time>2026-05-02T16:09:13.702Z</time></trkpt><trkpt lat="40.8138933" lon="15.8903"><ele>708.0</ele><time>2026-05-02T16:09:14.703Z</time></trkpt><trkpt lat="40.8139517" lon="15.89038"><ele>706.5</ele><time>2026-05-02T16:09:15.7Z</time></trkpt><trkpt lat="40.8140117" lon="15.89046"><ele>705.0</ele><time>2026-05-02T16:09:16.701Z</time></trkpt><trkpt lat="40.8140767" lon="15.8905367"><ele>703.5</ele><time>2026-05-02T16:09:17.701Z</time></trkpt><trkpt lat="40.8141417" lon="15.890615"><ele>702.0</ele><time>2026-05-02T16:09:18.7Z</time></trkpt><trkpt lat="40.8142067" lon="15.890695"><ele>702.0</ele><time>2026-05-02T16:09:19.701Z</time></trkpt><trkpt lat="40.81427" lon="15.8907833"><ele>702.0</ele><time>2026-05-02T16:09:20.701Z</time></trkpt><trkpt lat="40.8143333" lon="15.8908733"><ele>702.0</ele><time>2026-05-02T16:09:21.7Z</time></trkpt><trkpt lat="40.814395" lon="15.8909667"><ele>702.0</ele><time>2026-05-02T16:09:22.7Z</time></trkpt><trkpt lat="40.8144517" lon="15.891065"><ele>702.0</ele><time>2026-05-02T16:09:23.7Z</time></trkpt><trkpt lat="40.8145017" lon="15.8911683"><ele>703.0</ele><time>2026-05-02T16:09:24.701Z</time></trkpt><trkpt lat="40.814545" lon="15.8912767"><ele>704.0</ele><time>2026-05-02T16:09:25.701Z</time></trkpt><trkpt lat="40.814585" lon="15.89139"><ele>705.0</ele><time>2026-05-02T16:09:26.702Z</time></trkpt><trkpt lat="40.814625" lon="15.8915033"><ele>706.0</ele><time>2026-05-02T16:09:27.702Z</time></trkpt><trkpt lat="40.81467" lon="15.8916167"><ele>707.0</ele><time>2026-05-02T16:09:28.7Z</time></trkpt><trkpt lat="40.814715" lon="15.891735"><ele>705.2</ele><time>2026-05-02T16:09:29.701Z</time></trkpt><trkpt lat="40.8147633" lon="15.891855"><ele>703.4000000000001</ele><time>2026-05-02T16:09:30.7Z</time></trkpt><trkpt lat="40.8148133" lon="15.8919767"><ele>701.5999999999999</ele><time>2026-05-02T16:09:31.701Z</time></trkpt><trkpt lat="40.81486" lon="15.8921"><ele>699.8</ele><time>2026-05-02T16:09:32.701Z</time></trkpt><trkpt lat="40.8149083" lon="15.89222"><ele>698.0</ele><time>2026-05-02T16:09:33.701Z</time></trkpt><trkpt lat="40.8149567" lon="15.8923417"><ele>698.0</ele><time>2026-05-02T16:09:34.701Z</time></trkpt><trkpt lat="40.8150083" lon="15.8924633"><ele>698.0</ele><time>2026-05-02T16:09:35.701Z</time></trkpt><trkpt lat="40.815065" lon="15.8925817"><ele>698.0</ele><time>2026-05-02T16:09:36.7Z</time></trkpt><trkpt lat="40.8151283" lon="15.8927067"><ele>698.0</ele><time>2026-05-02T16:09:37.701Z</time></trkpt><trkpt lat="40.815195" lon="15.8928433"><ele>698.0</ele><time>2026-05-02T16:09:38.702Z</time></trkpt><trkpt lat="40.815265" lon="15.8929917"><ele>698.5</ele><time>2026-05-02T16:09:39.702Z</time></trkpt><trkpt lat="40.8153333" lon="15.89315"><ele>699.0</ele><time>2026-05-02T16:09:40.702Z</time></trkpt><trkpt lat="40.8153983" lon="15.8933133"><ele>699.5</ele><time>2026-05-02T16:09:41.7Z</time></trkpt><trkpt lat="40.8154583" lon="15.8934717"><ele>700.0</ele><time>2026-05-02T16:09:42.7Z</time></trkpt><trkpt lat="40.81551" lon="15.8936283"><ele>699.25</ele><time>2026-05-02T16:09:43.7Z</time></trkpt><trkpt lat="40.8155583" lon="15.8937883"><ele>698.5</ele><time>2026-05-02T16:09:44.702Z</time></trkpt><trkpt lat="40.8156" lon="15.893955"><ele>697.75</ele><time>2026-05-02T16:09:45.7Z</time></trkpt><trkpt lat="40.8156333" lon="15.8941267"><ele>697.0</ele><time>2026-05-02T16:09:46.7Z</time></trkpt><trkpt lat="40.815655" lon="15.8943017"><ele>697.0</ele><time>2026-05-02T16:09:47.701Z</time></trkpt><trkpt lat="40.8156667" lon="15.8944833"><ele>697.0</ele><time>2026-05-02T16:09:48.7Z</time></trkpt><trkpt lat="40.8156667" lon="15.8946717"><ele>697.0</ele><time>2026-05-02T16:09:49.701Z</time></trkpt><trkpt lat="40.8156517" lon="15.89486"><ele>697.0</ele><time>2026-05-02T16:09:50.7Z</time></trkpt><trkpt lat="40.8156267" lon="15.8950483"><ele>696.5</ele><time>2026-05-02T16:09:51.701Z</time></trkpt><trkpt lat="40.815585" lon="15.8952317"><ele>696.0</ele><time>2026-05-02T16:09:52.701Z</time></trkpt><trkpt lat="40.8155317" lon="15.8954067"><ele>695.5</ele><time>2026-05-02T16:09:53.7Z</time></trkpt><trkpt lat="40.815465" lon="15.8955767"><ele>695.0</ele><time>2026-05-02T16:09:54.7Z</time></trkpt><trkpt lat="40.8153883" lon="15.8957433"><ele>695.0</ele><time>2026-05-02T16:09:55.701Z</time></trkpt><trkpt lat="40.815305" lon="15.8959083"><ele>695.0</ele><time>2026-05-02T16:09:56.702Z</time></trkpt><trkpt lat="40.8152133" lon="15.8960733"><ele>695.0</ele><time>2026-05-02T16:09:57.701Z</time></trkpt><trkpt lat="40.81511" lon="15.89623"><ele>694.0</ele><time>2026-05-02T16:09:58.701Z</time></trkpt><trkpt lat="40.8150017" lon="15.89638"><ele>693.0</ele><time>2026-05-02T16:09:59.7Z</time></trkpt><trkpt lat="40.81489" lon="15.89652"><ele>692.0</ele><time>2026-05-02T16:10:00.701Z</time></trkpt><trkpt lat="40.8147717" lon="15.8966583"><ele>686.3333333333333</ele><time>2026-05-02T16:10:01.702Z</time></trkpt><trkpt lat="40.814655" lon="15.896795"><ele>680.6666666666666</ele><time>2026-05-02T16:10:02.702Z</time></trkpt><trkpt lat="40.8145467" lon="15.896935"><ele>675.0</ele><time>2026-05-02T16:10:03.701Z</time></trkpt><trkpt lat="40.8144483" lon="15.8970867"><ele>675.0</ele><time>2026-05-02T16:10:04.7Z</time></trkpt><trkpt lat="40.81436" lon="15.897245"><ele>675.0</ele><time>2026-05-02T16:10:05.701Z</time></trkpt><trkpt lat="40.8142767" lon="15.8974"><ele>675.0</ele><time>2026-05-02T16:10:06.701Z</time></trkpt><trkpt lat="40.8142017" lon="15.8975433"><ele>675.0</ele><time>2026-05-02T16:10:07.701Z</time></trkpt><trkpt lat="40.8141383" lon="15.8976867"><ele>676.0</ele><time>2026-05-02T16:10:08.701Z</time></trkpt><trkpt lat="40.8140783" lon="15.89785"><ele>677.0</ele><time>2026-05-02T16:10:09.7Z</time></trkpt><trkpt lat="40.814025" lon="15.8980217"><ele>678.0</ele><time>2026-05-02T16:10:10.702Z</time></trkpt><trkpt lat="40.81398" lon="15.8982067"><ele>679.0</ele><time>2026-05-02T16:10:11.701Z</time></trkpt><trkpt lat="40.8139433" lon="15.8983933"><ele>677.3333333333334</ele><time>2026-05-02T16:10:12.701Z</time></trkpt><trkpt lat="40.81391" lon="15.8985817"><ele>675.6666666666666</ele><time>2026-05-02T16:10:13.701Z</time></trkpt><trkpt lat="40.8138817" lon="15.8987767"><ele>674.0</ele><time>2026-05-02T16:10:14.703Z</time></trkpt><trkpt lat="40.813855" lon="15.8989817"><ele>674.0</ele><time>2026-05-02T16:10:15.702Z</time></trkpt><trkpt lat="40.81383" lon="15.8991917"><ele>674.0</ele><time>2026-05-02T16:10:16.701Z</time></trkpt><trkpt lat="40.8138067" lon="15.8994083"><ele>674.0</ele><time>2026-05-02T16:10:17.702Z</time></trkpt><trkpt lat="40.8137817" lon="15.8996217"><ele>673.0</ele><time>2026-05-02T16:10:18.7Z</time></trkpt><trkpt lat="40.8137533" lon="15.8998317"><ele>672.0</ele><time>2026-05-02T16:10:19.702Z</time></trkpt><trkpt lat="40.8137167" lon="15.9000417"><ele>671.0</ele><time>2026-05-02T16:10:20.702Z</time></trkpt><trkpt lat="40.81368" lon="15.9002517"><ele>669.0</ele><time>2026-05-02T16:10:21.701Z</time></trkpt><trkpt lat="40.8136417" lon="15.9004583"><ele>667.0</ele><time>2026-05-02T16:10:22.7Z</time></trkpt><trkpt lat="40.8136083" lon="15.900665"><ele>665.0</ele><time>2026-05-02T16:10:23.702Z</time></trkpt><trkpt lat="40.8135767" lon="15.9008783"><ele>664.3333333333333</ele><time>2026-05-02T16:10:24.701Z</time></trkpt><trkpt lat="40.813545" lon="15.9010933"><ele>663.6666666666666</ele><time>2026-05-02T16:10:25.702Z</time></trkpt><trkpt lat="40.81351" lon="15.9013133"><ele>663.0</ele><time>2026-05-02T16:10:26.701Z</time></trkpt><trkpt lat="40.8134767" lon="15.9015333"><ele>666.3333333333334</ele><time>2026-05-02T16:10:27.701Z</time></trkpt><trkpt lat="40.8134417" lon="15.90176"><ele>669.6666666666667</ele><time>2026-05-02T16:10:28.701Z</time></trkpt><trkpt lat="40.81341" lon="15.9019867"><ele>673.0</ele><time>2026-05-02T16:10:29.701Z</time></trkpt><trkpt lat="40.8133783" lon="15.9022117"><ele>673.0</ele><time>2026-05-02T16:10:30.701Z</time></trkpt><trkpt lat="40.813345" lon="15.9024333"><ele>673.0</ele><time>2026-05-02T16:10:31.7Z</time></trkpt><trkpt lat="40.81331" lon="15.9026533"><ele>673.0</ele><time>2026-05-02T16:10:32.702Z</time></trkpt><trkpt lat="40.8132767" lon="15.9028667"><ele>673.0</ele><time>2026-05-02T16:10:33.702Z</time></trkpt><trkpt lat="40.8132467" lon="15.9030767"><ele>673.0</ele><time>2026-05-02T16:10:34.7Z</time></trkpt><trkpt lat="40.8132183" lon="15.9032833"><ele>673.0</ele><time>2026-05-02T16:10:35.701Z</time></trkpt><trkpt lat="40.8131883" lon="15.9034917"><ele>673.0</ele><time>2026-05-02T16:10:36.701Z</time></trkpt><trkpt lat="40.8131567" lon="15.9036983"><ele>673.0</ele><time>2026-05-02T16:10:37.701Z</time></trkpt><trkpt lat="40.8131233" lon="15.903905"><ele>673.0</ele><time>2026-05-02T16:10:38.701Z</time></trkpt><trkpt lat="40.813085" lon="15.9041117"><ele>675.3333333333334</ele><time>2026-05-02T16:10:39.701Z</time></trkpt><trkpt lat="40.813035" lon="15.9043167"><ele>677.6666666666666</ele><time>2026-05-02T16:10:40.701Z</time></trkpt><trkpt lat="40.8129717" lon="15.9045133"><ele>680.0</ele><time>2026-05-02T16:10:41.7Z</time></trkpt><trkpt lat="40.812895" lon="15.9047"><ele>680.0</ele><time>2026-05-02T16:10:42.702Z</time></trkpt><trkpt lat="40.8128133" lon="15.9048833"><ele>680.0</ele><time>2026-05-02T16:10:43.701Z</time></trkpt><trkpt lat="40.81273" lon="15.905065"><ele>680.0</ele><time>2026-05-02T16:10:44.702Z</time></trkpt><trkpt lat="40.8126483" lon="15.9052433"><ele>681.0</ele><time>2026-05-02T16:10:45.7Z</time></trkpt><trkpt lat="40.8125667" lon="15.905425"><ele>682.0</ele><time>2026-05-02T16:10:46.706Z</time></trkpt><trkpt lat="40.8124833" lon="15.90561"><ele>683.0</ele><time>2026-05-02T16:10:47.702Z</time></trkpt><trkpt lat="40.8124017" lon="15.9057967"><ele>683.6666666666666</ele><time>2026-05-02T16:10:48.701Z</time></trkpt><trkpt lat="40.8123183" lon="15.9059867"><ele>684.3333333333334</ele><time>2026-05-02T16:10:49.701Z</time></trkpt><trkpt lat="40.8122333" lon="15.9061767"><ele>685.0</ele><time>2026-05-02T16:10:50.702Z</time></trkpt><trkpt lat="40.812145" lon="15.9063683"><ele>685.0</ele><time>2026-05-02T16:10:51.702Z</time></trkpt><trkpt lat="40.812055" lon="15.90656"><ele>685.0</ele><time>2026-05-02T16:10:52.701Z</time></trkpt><trkpt lat="40.811965" lon="15.9067533"><ele>685.0</ele><time>2026-05-02T16:10:53.702Z</time></trkpt><trkpt lat="40.8118733" lon="15.9069483"><ele>684.3333333333334</ele><time>2026-05-02T16:10:54.701Z</time></trkpt><trkpt lat="40.81178" lon="15.9071417"><ele>683.6666666666666</ele><time>2026-05-02T16:10:55.701Z</time></trkpt><trkpt lat="40.811685" lon="15.9073383"><ele>683.0</ele><time>2026-05-02T16:10:56.703Z</time></trkpt><trkpt lat="40.8115917" lon="15.9075383"><ele>682.6666666666666</ele><time>2026-05-02T16:10:57.701Z</time></trkpt><trkpt lat="40.8115033" lon="15.907735"><ele>682.3333333333334</ele><time>2026-05-02T16:10:58.7Z</time></trkpt><trkpt lat="40.81142" lon="15.907925"><ele>682.0</ele><time>2026-05-02T16:10:59.7Z</time></trkpt><trkpt lat="40.81134" lon="15.9081083"><ele>682.0</ele><time>2026-05-02T16:11:00.701Z</time></trkpt><trkpt lat="40.8112567" lon="15.90829"><ele>682.0</ele><time>2026-05-02T16:11:01.701Z</time></trkpt><trkpt lat="40.8111717" lon="15.9084717"><ele>682.0</ele><time>2026-05-02T16:11:02.7Z</time></trkpt><trkpt lat="40.8110867" lon="15.90866"><ele>679.3333333333334</ele><time>2026-05-02T16:11:03.701Z</time></trkpt><trkpt lat="40.8110017" lon="15.908845"><ele>676.6666666666666</ele><time>2026-05-02T16:11:04.702Z</time></trkpt><trkpt lat="40.81092" lon="15.90902"><ele>674.0</ele><time>2026-05-02T16:11:05.701Z</time></trkpt><trkpt lat="40.81084" lon="15.9091867"><ele>673.3333333333333</ele><time>2026-05-02T16:11:06.701Z</time></trkpt><trkpt lat="40.8107567" lon="15.9093483"><ele>672.6666666666666</ele><time>2026-05-02T16:11:07.701Z</time></trkpt><trkpt lat="40.8106617" lon="15.9095033"><ele>672.0</ele><time>2026-05-02T16:11:08.701Z</time></trkpt><trkpt lat="40.8105517" lon="15.9096467"><ele>672.0</ele><time>2026-05-02T16:11:09.701Z</time></trkpt><trkpt lat="40.8104267" lon="15.909775"><ele>672.0</ele><time>2026-05-02T16:11:10.703Z</time></trkpt><trkpt lat="40.8102883" lon="15.9098933"><ele>672.0</ele><time>2026-05-02T16:11:11.701Z</time></trkpt><trkpt lat="40.8101467" lon="15.9100083"><ele>668.6666666666666</ele><time>2026-05-02T16:11:12.701Z</time></trkpt><trkpt lat="40.810005" lon="15.910125"><ele>665.3333333333333</ele><time>2026-05-02T16:11:13.701Z</time></trkpt><trkpt lat="40.809865" lon="15.9102417"><ele>662.0</ele><time>2026-05-02T16:11:14.701Z</time></trkpt><trkpt lat="40.8097267" lon="15.9103567"><ele>662.0</ele><time>2026-05-02T16:11:15.701Z</time></trkpt><trkpt lat="40.8095883" lon="15.91047"><ele>662.0</ele><time>2026-05-02T16:11:16.702Z</time></trkpt><trkpt lat="40.80945" lon="15.9105817"><ele>662.0</ele><time>2026-05-02T16:11:17.702Z</time></trkpt><trkpt lat="40.809315" lon="15.9106867"><ele>663.5</ele><time>2026-05-02T16:11:18.701Z</time></trkpt><trkpt lat="40.8091833" lon="15.910775"><ele>665.0</ele><time>2026-05-02T16:11:19.701Z</time></trkpt><trkpt lat="40.8090567" lon="15.9108367"><ele>666.5</ele><time>2026-05-02T16:11:20.702Z</time></trkpt><trkpt lat="40.8089333" lon="15.9108617"><ele>668.0</ele><time>2026-05-02T16:11:21.702Z</time></trkpt><trkpt lat="40.8088167" lon="15.910845"><ele>668.0</ele><time>2026-05-02T16:11:22.703Z</time></trkpt><trkpt lat="40.80871" lon="15.91079"><ele>668.0</ele><time>2026-05-02T16:11:23.701Z</time></trkpt><trkpt lat="40.8086083" lon="15.9107"><ele>668.0</ele><time>2026-05-02T16:11:24.701Z</time></trkpt><trkpt lat="40.808515" lon="15.9105767"><ele>668.0</ele><time>2026-05-02T16:11:25.701Z</time></trkpt><trkpt lat="40.8084217" lon="15.91043"><ele>670.75</ele><time>2026-05-02T16:11:26.702Z</time></trkpt><trkpt lat="40.80833" lon="15.910275"><ele>673.5</ele><time>2026-05-02T16:11:27.701Z</time></trkpt><trkpt lat="40.8082383" lon="15.9101267"><ele>676.25</ele><time>2026-05-02T16:11:28.701Z</time></trkpt><trkpt lat="40.808145" lon="15.91"><ele>679.0</ele><time>2026-05-02T16:11:29.701Z</time></trkpt><trkpt lat="40.8080483" lon="15.909905"><ele>679.0</ele><time>2026-05-02T16:11:30.701Z</time></trkpt><trkpt lat="40.80795" lon="15.9098533"><ele>679.0</ele><time>2026-05-02T16:11:31.7Z</time></trkpt><trkpt lat="40.8078517" lon="15.90984"><ele>679.0</ele><time>2026-05-02T16:11:32.702Z</time></trkpt><trkpt lat="40.8077583" lon="15.90986"><ele>679.0</ele><time>2026-05-02T16:11:33.702Z</time></trkpt><trkpt lat="40.8076733" lon="15.909915"><ele>679.0</ele><time>2026-05-02T16:11:34.703Z</time></trkpt><trkpt lat="40.8076067" lon="15.91"><ele>681.8000000000001</ele><time>2026-05-02T16:11:35.702Z</time></trkpt><trkpt lat="40.8075583" lon="15.9100983"><ele>684.6</ele><time>2026-05-02T16:11:36.701Z</time></trkpt><trkpt lat="40.807525" lon="15.910205"><ele>687.4</ele><time>2026-05-02T16:11:37.701Z</time></trkpt><trkpt lat="40.8075033" lon="15.91032"><ele>690.2</ele><time>2026-05-02T16:11:38.701Z</time></trkpt><trkpt lat="40.8074917" lon="15.91045"><ele>693.0</ele><time>2026-05-02T16:11:39.702Z</time></trkpt><trkpt lat="40.8074917" lon="15.9105983"><ele>693.0</ele><time>2026-05-02T16:11:40.702Z</time></trkpt><trkpt lat="40.8074983" lon="15.9107567"><ele>693.0</ele><time>2026-05-02T16:11:41.7Z</time></trkpt><trkpt lat="40.8075083" lon="15.9109217"><ele>693.0</ele><time>2026-05-02T16:11:42.7Z</time></trkpt><trkpt lat="40.807515" lon="15.91109"><ele>693.0</ele><time>2026-05-02T16:11:43.701Z</time></trkpt><trkpt lat="40.8075217" lon="15.9112617"><ele>694.0</ele><time>2026-05-02T16:11:44.702Z</time></trkpt><trkpt lat="40.8075267" lon="15.911435"><ele>695.0</ele><time>2026-05-02T16:11:45.701Z</time></trkpt><trkpt lat="40.8075333" lon="15.9116117"><ele>696.0</ele><time>2026-05-02T16:11:46.7Z</time></trkpt><trkpt lat="40.80754" lon="15.91178"><ele>697.0</ele><time>2026-05-02T16:11:47.702Z</time></trkpt><trkpt lat="40.8075383" lon="15.9119367"><ele>697.8</ele><time>2026-05-02T16:11:48.702Z</time></trkpt><trkpt lat="40.80753" lon="15.9120833"><ele>698.6</ele><time>2026-05-02T16:11:49.702Z</time></trkpt><trkpt lat="40.8075033" lon="15.912215"><ele>699.4</ele><time>2026-05-02T16:11:50.702Z</time></trkpt><trkpt lat="40.807455" lon="15.91233"><ele>700.1999999999999</ele><time>2026-05-02T16:11:51.7Z</time></trkpt><trkpt lat="40.807385" lon="15.912425"><ele>701.0</ele><time>2026-05-02T16:11:52.701Z</time></trkpt><trkpt lat="40.8072983" lon="15.9124933"><ele>701.0</ele><time>2026-05-02T16:11:53.701Z</time></trkpt><trkpt lat="40.8072017" lon="15.9125367"><ele>701.0</ele><time>2026-05-02T16:11:54.701Z</time></trkpt><trkpt lat="40.8071033" lon="15.91254"><ele>701.0</ele><time>2026-05-02T16:11:55.702Z</time></trkpt><trkpt lat="40.8070117" lon="15.9125"><ele>701.0</ele><time>2026-05-02T16:11:56.701Z</time></trkpt><trkpt lat="40.8069217" lon="15.91243"><ele>701.0</ele><time>2026-05-02T16:11:57.701Z</time></trkpt><trkpt lat="40.80684" lon="15.91233"><ele>703.75</ele><time>2026-05-02T16:11:58.702Z</time></trkpt><trkpt lat="40.806765" lon="15.9121983"><ele>706.5</ele><time>2026-05-02T16:11:59.709Z</time></trkpt><trkpt lat="40.8066917" lon="15.91204"><ele>709.25</ele><time>2026-05-02T16:12:00.701Z</time></trkpt><trkpt lat="40.8066217" lon="15.9118633"><ele>712.0</ele><time>2026-05-02T16:12:01.701Z</time></trkpt><trkpt lat="40.8065533" lon="15.911685"><ele>712.0</ele><time>2026-05-02T16:12:02.701Z</time></trkpt><trkpt lat="40.8064883" lon="15.9115083"><ele>712.0</ele><time>2026-05-02T16:12:03.7Z</time></trkpt><trkpt lat="40.8064233" lon="15.9113333"><ele>712.0</ele><time>2026-05-02T16:12:04.702Z</time></trkpt><trkpt lat="40.8063633" lon="15.91117"><ele>712.0</ele><time>2026-05-02T16:12:05.701Z</time></trkpt><trkpt lat="40.806305" lon="15.9110167"><ele>711.8</ele><time>2026-05-02T16:12:06.7Z</time></trkpt><trkpt lat="40.8062517" lon="15.910875"><ele>711.6</ele><time>2026-05-02T16:12:07.701Z</time></trkpt><trkpt lat="40.8061917" lon="15.9107517"><ele>711.4</ele><time>2026-05-02T16:12:08.701Z</time></trkpt><trkpt lat="40.806125" lon="15.9106483"><ele>711.1999999999999</ele><time>2026-05-02T16:12:09.701Z</time></trkpt><trkpt lat="40.8060583" lon="15.9105683"><ele>711.0</ele><time>2026-05-02T16:12:10.702Z</time></trkpt><trkpt lat="40.8059917" lon="15.9105167"><ele>713.1666666666666</ele><time>2026-05-02T16:12:11.701Z</time></trkpt><trkpt lat="40.8059233" lon="15.9104917"><ele>715.3333333333334</ele><time>2026-05-02T16:12:12.7Z</time></trkpt><trkpt lat="40.805855" lon="15.910495"><ele>717.5</ele><time>2026-05-02T16:12:13.702Z</time></trkpt><trkpt lat="40.8057867" lon="15.9105283"><ele>719.6666666666667</ele><time>2026-05-02T16:12:14.702Z</time></trkpt><trkpt lat="40.8057183" lon="15.9105817"><ele>721.8333333333334</ele><time>2026-05-02T16:12:15.701Z</time></trkpt><trkpt lat="40.80566" lon="15.9106517"><ele>724.0</ele><time>2026-05-02T16:12:16.701Z</time></trkpt><trkpt lat="40.8056217" lon="15.910745"><ele>724.0</ele><time>2026-05-02T16:12:17.701Z</time></trkpt><trkpt lat="40.805605" lon="15.9108517"><ele>724.0</ele><time>2026-05-02T16:12:18.702Z</time></trkpt><trkpt lat="40.80561" lon="15.9109733"><ele>724.0</ele><time>2026-05-02T16:12:19.701Z</time></trkpt><trkpt lat="40.8056233" lon="15.9111117"><ele>724.0</ele><time>2026-05-02T16:12:20.702Z</time></trkpt><trkpt lat="40.8056383" lon="15.9112633"><ele>724.0</ele><time>2026-05-02T16:12:21.701Z</time></trkpt><trkpt lat="40.8056567" lon="15.9114333"><ele>725.0</ele><time>2026-05-02T16:12:22.701Z</time></trkpt><trkpt lat="40.8056767" lon="15.911615"><ele>726.0</ele><time>2026-05-02T16:12:23.702Z</time></trkpt><trkpt lat="40.805695" lon="15.9118033"><ele>727.0</ele><time>2026-05-02T16:12:24.701Z</time></trkpt><trkpt lat="40.8057083" lon="15.9119833"><ele>728.0</ele><time>2026-05-02T16:12:25.702Z</time></trkpt><trkpt lat="40.8057133" lon="15.9121367"><ele>727.4</ele><time>2026-05-02T16:12:26.703Z</time></trkpt><trkpt lat="40.8057017" lon="15.9122733"><ele>726.8</ele><time>2026-05-02T16:12:27.7Z</time></trkpt><trkpt lat="40.8056717" lon="15.9124"><ele>726.2</ele><time>2026-05-02T16:12:28.701Z</time></trkpt><trkpt lat="40.8056183" lon="15.912525"><ele>725.6</ele><time>2026-05-02T16:12:29.702Z</time></trkpt><trkpt lat="40.8055467" lon="15.9126467"><ele>725.0</ele><time>2026-05-02T16:12:30.701Z</time></trkpt><trkpt lat="40.80546" lon="15.9127617"><ele>725.0</ele><time>2026-05-02T16:12:31.702Z</time></trkpt><trkpt lat="40.8053617" lon="15.9128783"><ele>725.0</ele><time>2026-05-02T16:12:32.703Z</time></trkpt><trkpt lat="40.8052533" lon="15.9129883"><ele>725.0</ele><time>2026-05-02T16:12:33.701Z</time></trkpt><trkpt lat="40.80514" lon="15.9130767"><ele>725.0</ele><time>2026-05-02T16:12:34.701Z</time></trkpt><trkpt lat="40.8050233" lon="15.9131467"><ele>728.25</ele><time>2026-05-02T16:12:35.701Z</time></trkpt><trkpt lat="40.8049067" lon="15.91321"><ele>731.5</ele><time>2026-05-02T16:12:36.701Z</time></trkpt><trkpt lat="40.804805" lon="15.9132867"><ele>734.75</ele><time>2026-05-02T16:12:37.702Z</time></trkpt><trkpt lat="40.80471" lon="15.9133917"><ele>738.0</ele><time>2026-05-02T16:12:38.702Z</time></trkpt><trkpt lat="40.8046217" lon="15.913525"><ele>738.0</ele><time>2026-05-02T16:12:39.701Z</time></trkpt><trkpt lat="40.8045367" lon="15.9136783"><ele>738.0</ele><time>2026-05-02T16:12:40.7Z</time></trkpt><trkpt lat="40.80445" lon="15.9138383"><ele>738.0</ele><time>2026-05-02T16:12:41.701Z</time></trkpt><trkpt lat="40.8043667" lon="15.9139817"><ele>738.0</ele><time>2026-05-02T16:12:42.701Z</time></trkpt><trkpt lat="40.8042917" lon="15.9141133"><ele>742.0</ele><time>2026-05-02T16:12:43.7Z</time></trkpt><trkpt lat="40.80423" lon="15.9142333"><ele>746.0</ele><time>2026-05-02T16:12:44.702Z</time></trkpt><trkpt lat="40.8041917" lon="15.9143567"><ele>750.0</ele><time>2026-05-02T16:12:45.701Z</time></trkpt><trkpt lat="40.8041767" lon="15.9144917"><ele>754.0</ele><time>2026-05-02T16:12:46.702Z</time></trkpt><trkpt lat="40.8041833" lon="15.9146333"><ele>758.0</ele><time>2026-05-02T16:12:47.701Z</time></trkpt><trkpt lat="40.8042117" lon="15.91478"><ele>758.5</ele><time>2026-05-02T16:12:48.7Z</time></trkpt><trkpt lat="40.804265" lon="15.9149267"><ele>759.0</ele><time>2026-05-02T16:12:49.701Z</time></trkpt><trkpt lat="40.80433" lon="15.9150767"><ele>759.5</ele><time>2026-05-02T16:12:50.702Z</time></trkpt><trkpt lat="40.8043983" lon="15.91522"><ele>760.0</ele><time>2026-05-02T16:12:51.7Z</time></trkpt><trkpt lat="40.8044533" lon="15.9153517"><ele>758.6</ele><time>2026-05-02T16:12:52.702Z</time></trkpt><trkpt lat="40.8044933" lon="15.9154717"><ele>757.2</ele><time>2026-05-02T16:12:53.701Z</time></trkpt><trkpt lat="40.8045167" lon="15.91559"><ele>755.8</ele><time>2026-05-02T16:12:54.701Z</time></trkpt><trkpt lat="40.8045233" lon="15.91571"><ele>754.4</ele><time>2026-05-02T16:12:55.7Z</time></trkpt><trkpt lat="40.8045067" lon="15.915835"><ele>753.0</ele><time>2026-05-02T16:12:56.701Z</time></trkpt><trkpt lat="40.804475" lon="15.9159633"><ele>752.5999999999999</ele><time>2026-05-02T16:12:57.702Z</time></trkpt><trkpt lat="40.8044367" lon="15.916085"><ele>752.1999999999999</ele><time>2026-05-02T16:12:58.7Z</time></trkpt><trkpt lat="40.80439" lon="15.9161883"><ele>751.8</ele><time>2026-05-02T16:12:59.7Z</time></trkpt><trkpt lat="40.8043267" lon="15.9162817"><ele>751.4</ele><time>2026-05-02T16:13:00.701Z</time></trkpt><trkpt lat="40.80424" lon="15.916365"><ele>751.0</ele><time>2026-05-02T16:13:01.701Z</time></trkpt><trkpt lat="40.8041317" lon="15.9164483"><ele>752.75</ele><time>2026-05-02T16:13:02.702Z</time></trkpt><trkpt lat="40.8040083" lon="15.9165417"><ele>754.5</ele><time>2026-05-02T16:13:03.701Z</time></trkpt><trkpt lat="40.803885" lon="15.9166517"><ele>756.25</ele><time>2026-05-02T16:13:04.701Z</time></trkpt><trkpt lat="40.8037733" lon="15.9167767"><ele>758.0</ele><time>2026-05-02T16:13:05.702Z</time></trkpt><trkpt lat="40.8036733" lon="15.9169017"><ele>758.0</ele><time>2026-05-02T16:13:06.701Z</time></trkpt><trkpt lat="40.8035833" lon="15.9170167"><ele>758.0</ele><time>2026-05-02T16:13:07.702Z</time></trkpt><trkpt lat="40.8034833" lon="15.9171083"><ele>758.0</ele><time>2026-05-02T16:13:08.702Z</time></trkpt><trkpt lat="40.803375" lon="15.9171833"><ele>758.0</ele><time>2026-05-02T16:13:09.701Z</time></trkpt><trkpt lat="40.80326" lon="15.917245"><ele>759.5</ele><time>2026-05-02T16:13:10.702Z</time></trkpt><trkpt lat="40.8031383" lon="15.9173"><ele>761.0</ele><time>2026-05-02T16:13:11.701Z</time></trkpt><trkpt lat="40.803015" lon="15.9173567"><ele>762.5</ele><time>2026-05-02T16:13:12.702Z</time></trkpt><trkpt lat="40.8028933" lon="15.9174117"><ele>764.0</ele><time>2026-05-02T16:13:13.701Z</time></trkpt><trkpt lat="40.8027733" lon="15.9174583"><ele>762.75</ele><time>2026-05-02T16:13:14.701Z</time></trkpt><trkpt lat="40.802655" lon="15.9175"><ele>761.5</ele><time>2026-05-02T16:13:15.7Z</time></trkpt><trkpt lat="40.8025417" lon="15.9175433"><ele>760.25</ele><time>2026-05-02T16:13:16.701Z</time></trkpt><trkpt lat="40.802435" lon="15.9175867"><ele>759.0</ele><time>2026-05-02T16:13:17.702Z</time></trkpt><trkpt lat="40.8023317" lon="15.9176367"><ele>759.0</ele><time>2026-05-02T16:13:18.701Z</time></trkpt><trkpt lat="40.8022367" lon="15.9177033"><ele>759.0</ele><time>2026-05-02T16:13:19.702Z</time></trkpt><trkpt lat="40.80216" lon="15.9177883"><ele>759.0</ele><time>2026-05-02T16:13:20.702Z</time></trkpt><trkpt lat="40.802105" lon="15.9178917"><ele>759.0</ele><time>2026-05-02T16:13:21.7Z</time></trkpt><trkpt lat="40.8020683" lon="15.91801"><ele>759.0</ele><time>2026-05-02T16:13:22.702Z</time></trkpt><trkpt lat="40.802055" lon="15.91814"><ele>759.0</ele><time>2026-05-02T16:13:23.702Z</time></trkpt><trkpt lat="40.80206" lon="15.9182867"><ele>759.0</ele><time>2026-05-02T16:13:24.702Z</time></trkpt><trkpt lat="40.8020883" lon="15.9184483"><ele>759.0</ele><time>2026-05-02T16:13:25.701Z</time></trkpt><trkpt lat="40.802135" lon="15.9186367"><ele>759.0</ele><time>2026-05-02T16:13:26.702Z</time></trkpt><trkpt lat="40.80219" lon="15.9188333"><ele>761.0</ele><time>2026-05-02T16:13:27.7Z</time></trkpt><trkpt lat="40.80224" lon="15.919035"><ele>763.0</ele><time>2026-05-02T16:13:28.702Z</time></trkpt><trkpt lat="40.8022817" lon="15.919245"><ele>765.0</ele><time>2026-05-02T16:13:29.701Z</time></trkpt><trkpt lat="40.802315" lon="15.91946"><ele>767.0</ele><time>2026-05-02T16:13:30.701Z</time></trkpt><trkpt lat="40.802345" lon="15.91967"><ele>769.0</ele><time>2026-05-02T16:13:31.702Z</time></trkpt><trkpt lat="40.8023733" lon="15.9198717"><ele>771.0</ele><time>2026-05-02T16:13:32.701Z</time></trkpt><trkpt lat="40.8023983" lon="15.9200633"><ele>771.75</ele><time>2026-05-02T16:13:33.701Z</time></trkpt><trkpt lat="40.8024133" lon="15.9202333"><ele>772.5</ele><time>2026-05-02T16:13:34.701Z</time></trkpt><trkpt lat="40.8024217" lon="15.920395"><ele>773.25</ele><time>2026-05-02T16:13:35.701Z</time></trkpt><trkpt lat="40.8024183" lon="15.92056"><ele>774.0</ele><time>2026-05-02T16:13:36.7Z</time></trkpt><trkpt lat="40.8023983" lon="15.92074"><ele>768.3333333333334</ele><time>2026-05-02T16:13:37.7Z</time></trkpt><trkpt lat="40.8023633" lon="15.9209267"><ele>762.6666666666667</ele><time>2026-05-02T16:13:38.701Z</time></trkpt><trkpt lat="40.80231" lon="15.9211167"><ele>757.0</ele><time>2026-05-02T16:13:39.702Z</time></trkpt><trkpt lat="40.8022333" lon="15.9213117"><ele>757.0</ele><time>2026-05-02T16:13:40.7Z</time></trkpt><trkpt lat="40.8021433" lon="15.9215083"><ele>757.0</ele><time>2026-05-02T16:13:41.701Z</time></trkpt><trkpt lat="40.8020367" lon="15.9217117"><ele>757.0</ele><time>2026-05-02T16:13:42.7Z</time></trkpt><trkpt lat="40.8019183" lon="15.9219167"><ele>760.3333333333334</ele><time>2026-05-02T16:13:43.701Z</time></trkpt><trkpt lat="40.8018033" lon="15.9220883"><ele>763.6666666666666</ele><time>2026-05-02T16:13:44.701Z</time></trkpt><trkpt lat="40.8016867" lon="15.9222483"><ele>767.0</ele><time>2026-05-02T16:13:45.7Z</time></trkpt><trkpt lat="40.8015667" lon="15.9224"><ele>767.0</ele><time>2026-05-02T16:13:46.7Z</time></trkpt><trkpt lat="40.8014417" lon="15.9225433"><ele>767.0</ele><time>2026-05-02T16:13:47.701Z</time></trkpt><trkpt lat="40.8013067" lon="15.92268"><ele>767.0</ele><time>2026-05-02T16:13:48.701Z</time></trkpt><trkpt lat="40.80117" lon="15.9228133"><ele>768.6666666666666</ele><time>2026-05-02T16:13:49.701Z</time></trkpt><trkpt lat="40.801035" lon="15.922945"><ele>770.3333333333333</ele><time>2026-05-02T16:13:50.701Z</time></trkpt><trkpt lat="40.8009017" lon="15.92308"><ele>772.0</ele><time>2026-05-02T16:13:51.7Z</time></trkpt><trkpt lat="40.8007683" lon="15.9232167"><ele>772.0</ele><time>2026-05-02T16:13:52.702Z</time></trkpt><trkpt lat="40.800635" lon="15.92335"><ele>772.0</ele><time>2026-05-02T16:13:53.702Z</time></trkpt><trkpt lat="40.8004967" lon="15.9234767"><ele>772.0</ele><time>2026-05-02T16:13:54.701Z</time></trkpt><trkpt lat="40.8003633" lon="15.9235967"><ele>771.75</ele><time>2026-05-02T16:13:55.701Z</time></trkpt><trkpt lat="40.800235" lon="15.9237117"><ele>771.5</ele><time>2026-05-02T16:13:56.702Z</time></trkpt><trkpt lat="40.800115" lon="15.9238267"><ele>771.25</ele><time>2026-05-02T16:13:57.701Z</time></trkpt><trkpt lat="40.800005" lon="15.9239317"><ele>771.0</ele><time>2026-05-02T16:13:58.702Z</time></trkpt><trkpt lat="40.7998983" lon="15.9240267"><ele>771.5</ele><time>2026-05-02T16:13:59.702Z</time></trkpt><trkpt lat="40.7997967" lon="15.9241133"><ele>772.0</ele><time>2026-05-02T16:14:00.701Z</time></trkpt><trkpt lat="40.7996983" lon="15.9241933"><ele>772.5</ele><time>2026-05-02T16:14:01.701Z</time></trkpt><trkpt lat="40.7996033" lon="15.9242667"><ele>773.0</ele><time>2026-05-02T16:14:02.702Z</time></trkpt><trkpt lat="40.7995067" lon="15.92433"><ele>773.0</ele><time>2026-05-02T16:14:03.7Z</time></trkpt><trkpt lat="40.7994067" lon="15.92439"><ele>773.0</ele><time>2026-05-02T16:14:04.703Z</time></trkpt><trkpt lat="40.7993067" lon="15.9244467"><ele>773.0</ele><time>2026-05-02T16:14:05.701Z</time></trkpt><trkpt lat="40.7991983" lon="15.9245"><ele>773.0</ele><time>2026-05-02T16:14:06.702Z</time></trkpt><trkpt lat="40.7990817" lon="15.9245517"><ele>773.25</ele><time>2026-05-02T16:14:07.701Z</time></trkpt><trkpt lat="40.798955" lon="15.9246067"><ele>773.5</ele><time>2026-05-02T16:14:08.701Z</time></trkpt><trkpt lat="40.798825" lon="15.9246633"><ele>773.75</ele><time>2026-05-02T16:14:09.702Z</time></trkpt><trkpt lat="40.7987" lon="15.9247133"><ele>774.0</ele><time>2026-05-02T16:14:10.701Z</time></trkpt><trkpt lat="40.7985767" lon="15.9247583"><ele>773.25</ele><time>2026-05-02T16:14:11.702Z</time></trkpt><trkpt lat="40.7984517" lon="15.9248"><ele>772.5</ele><time>2026-05-02T16:14:12.701Z</time></trkpt><trkpt lat="40.7983267" lon="15.9248433"><ele>771.75</ele><time>2026-05-02T16:14:13.7Z</time></trkpt><trkpt lat="40.7982" lon="15.9248833"><ele>771.0</ele><time>2026-05-02T16:14:14.701Z</time></trkpt><trkpt lat="40.7980717" lon="15.92492"><ele>771.0</ele><time>2026-05-02T16:14:15.701Z</time></trkpt><trkpt lat="40.7979483" lon="15.924965"><ele>771.0</ele><time>2026-05-02T16:14:16.701Z</time></trkpt><trkpt lat="40.79783" lon="15.9250283"><ele>771.0</ele><time>2026-05-02T16:14:17.701Z</time></trkpt><trkpt lat="40.7977117" lon="15.9251183"><ele>771.0</ele><time>2026-05-02T16:14:18.7Z</time></trkpt><trkpt lat="40.7975967" lon="15.925225"><ele>769.0</ele><time>2026-05-02T16:14:19.702Z</time></trkpt><trkpt lat="40.7974883" lon="15.9253467"><ele>767.0</ele><time>2026-05-02T16:14:20.702Z</time></trkpt><trkpt lat="40.7973833" lon="15.9254767"><ele>765.0</ele><time>2026-05-02T16:14:21.701Z</time></trkpt><trkpt lat="40.7972783" lon="15.9256067"><ele>763.0</ele><time>2026-05-02T16:14:22.701Z</time></trkpt><trkpt lat="40.79718" lon="15.925735"><ele>763.0</ele><time>2026-05-02T16:14:23.7Z</time></trkpt><trkpt lat="40.7970883" lon="15.9258667"><ele>763.0</ele><time>2026-05-02T16:14:24.702Z</time></trkpt><trkpt lat="40.7969967" lon="15.9260017"><ele>763.0</ele><time>2026-05-02T16:14:25.701Z</time></trkpt><trkpt lat="40.796905" lon="15.926145"><ele>763.0</ele><time>2026-05-02T16:14:26.701Z</time></trkpt><trkpt lat="40.7968117" lon="15.9263"><ele>763.0</ele><time>2026-05-02T16:14:27.7Z</time></trkpt><trkpt lat="40.7967133" lon="15.9264617"><ele>763.0</ele><time>2026-05-02T16:14:28.7Z</time></trkpt><trkpt lat="40.7966133" lon="15.9266283"><ele>763.0</ele><time>2026-05-02T16:14:29.702Z</time></trkpt><trkpt lat="40.796515" lon="15.926795"><ele>763.0</ele><time>2026-05-02T16:14:30.702Z</time></trkpt><trkpt lat="40.79642" lon="15.926955"><ele>763.0</ele><time>2026-05-02T16:14:31.701Z</time></trkpt><trkpt lat="40.7963233" lon="15.9271067"><ele>763.0</ele><time>2026-05-02T16:14:32.702Z</time></trkpt><trkpt lat="40.7962267" lon="15.9272533"><ele>763.0</ele><time>2026-05-02T16:14:33.701Z</time></trkpt><trkpt lat="40.7961283" lon="15.927405"><ele>763.0</ele><time>2026-05-02T16:14:34.701Z</time></trkpt><trkpt lat="40.79603" lon="15.927565"><ele>763.0</ele><time>2026-05-02T16:14:35.701Z</time></trkpt><trkpt lat="40.79593" lon="15.9277233"><ele>765.0</ele><time>2026-05-02T16:14:36.701Z</time></trkpt><trkpt lat="40.79584" lon="15.9278817"><ele>767.0</ele><time>2026-05-02T16:14:37.701Z</time></trkpt><trkpt lat="40.7957633" lon="15.9280433"><ele>769.0</ele><time>2026-05-02T16:14:38.701Z</time></trkpt><trkpt lat="40.7957033" lon="15.9282033"><ele>771.0</ele><time>2026-05-02T16:14:39.702Z</time></trkpt><trkpt lat="40.7956583" lon="15.92835"><ele>771.4</ele><time>2026-05-02T16:14:40.7Z</time></trkpt><trkpt lat="40.7956233" lon="15.9284767"><ele>771.8</ele><time>2026-05-02T16:14:41.701Z</time></trkpt><trkpt lat="40.79559" lon="15.9285967"><ele>772.1999999999999</ele><time>2026-05-02T16:14:42.7Z</time></trkpt><trkpt lat="40.795555" lon="15.9287083"><ele>772.5999999999999</ele><time>2026-05-02T16:14:43.702Z</time></trkpt><trkpt lat="40.7955167" lon="15.928825"><ele>773.0</ele><time>2026-05-02T16:14:44.702Z</time></trkpt><trkpt lat="40.7954817" lon="15.9289483"><ele>773.0</ele><time>2026-05-02T16:14:45.7Z</time></trkpt><trkpt lat="40.7954517" lon="15.9290717"><ele>773.0</ele><time>2026-05-02T16:14:46.701Z</time></trkpt><trkpt lat="40.7954233" lon="15.92919"><ele>773.0</ele><time>2026-05-02T16:14:47.702Z</time></trkpt><trkpt lat="40.7953917" lon="15.9293117"><ele>773.0</ele><time>2026-05-02T16:14:48.7Z</time></trkpt><trkpt lat="40.7953583" lon="15.92944"><ele>773.0</ele><time>2026-05-02T16:14:49.702Z</time></trkpt><trkpt lat="40.79532" lon="15.92958"><ele>772.0</ele><time>2026-05-02T16:14:50.702Z</time></trkpt><trkpt lat="40.79528" lon="15.9297283"><ele>771.0</ele><time>2026-05-02T16:14:51.701Z</time></trkpt><trkpt lat="40.7952383" lon="15.92989"><ele>770.0</ele><time>2026-05-02T16:14:52.703Z</time></trkpt><trkpt lat="40.795195" lon="15.930065"><ele>769.0</ele><time>2026-05-02T16:14:53.701Z</time></trkpt><trkpt lat="40.7951483" lon="15.930255"><ele>768.0</ele><time>2026-05-02T16:14:54.7Z</time></trkpt><trkpt lat="40.7951" lon="15.9304583"><ele>767.0</ele><time>2026-05-02T16:14:55.701Z</time></trkpt><trkpt lat="40.7950517" lon="15.9306617"><ele>766.0</ele><time>2026-05-02T16:14:56.701Z</time></trkpt><trkpt lat="40.7950067" lon="15.9308467"><ele>766.0</ele><time>2026-05-02T16:14:57.7Z</time></trkpt><trkpt lat="40.794965" lon="15.9310033"><ele>766.0</ele><time>2026-05-02T16:14:58.702Z</time></trkpt><trkpt lat="40.79493" lon="15.93113"><ele>766.0</ele><time>2026-05-02T16:14:59.703Z</time></trkpt><trkpt lat="40.7948983" lon="15.9312483"><ele>766.0</ele><time>2026-05-02T16:15:00.7Z</time></trkpt><trkpt lat="40.7948683" lon="15.9313633"><ele>766.0</ele><time>2026-05-02T16:15:01.7Z</time></trkpt><trkpt lat="40.7948383" lon="15.93147"><ele>766.0</ele><time>2026-05-02T16:15:02.702Z</time></trkpt><trkpt lat="40.79481" lon="15.9315767"><ele>766.0</ele><time>2026-05-02T16:15:03.7Z</time></trkpt><trkpt lat="40.79478" lon="15.9316883"><ele>766.0</ele><time>2026-05-02T16:15:04.7Z</time></trkpt><trkpt lat="40.7947517" lon="15.9317967"><ele>766.0</ele><time>2026-05-02T16:15:05.701Z</time></trkpt><trkpt lat="40.7947233" lon="15.9319"><ele>766.0</ele><time>2026-05-02T16:15:06.701Z</time></trkpt><trkpt lat="40.7946983" lon="15.9319933"><ele>766.0</ele><time>2026-05-02T16:15:07.701Z</time></trkpt><trkpt lat="40.7946733" lon="15.932085"><ele>766.0</ele><time>2026-05-02T16:15:08.701Z</time></trkpt><trkpt lat="40.79465" lon="15.9321717"><ele>766.0</ele><time>2026-05-02T16:15:09.702Z</time></trkpt><trkpt lat="40.7946267" lon="15.9322583"><ele>766.0</ele><time>2026-05-02T16:15:10.702Z</time></trkpt><trkpt lat="40.794605" lon="15.9323417"><ele>766.0</ele><time>2026-05-02T16:15:11.701Z</time></trkpt><trkpt lat="40.7945833" lon="15.932425"><ele>766.0</ele><time>2026-05-02T16:15:12.703Z</time></trkpt><trkpt lat="40.79456" lon="15.9325233"><ele>766.0</ele><time>2026-05-02T16:15:13.701Z</time></trkpt><trkpt lat="40.7945267" lon="15.9326417"><ele>766.0</ele><time>2026-05-02T16:15:14.701Z</time></trkpt><trkpt lat="40.7944867" lon="15.932785"><ele>766.0</ele><time>2026-05-02T16:15:15.7Z</time></trkpt><trkpt lat="40.7944459" lon="15.9329341"><ele>766.0</ele><time>2026-05-02T16:15:16.7Z</time></trkpt><trkpt lat="40.7944117" lon="15.9330726"><ele>766.0</ele><time>2026-05-02T16:15:17.7Z</time></trkpt><trkpt lat="40.7943784" lon="15.9332151"><ele>766.0</ele><time>2026-05-02T16:15:18.7Z</time></trkpt><trkpt lat="40.7943426" lon="15.9333615"><ele>766.75</ele><time>2026-05-02T16:15:19.701Z</time></trkpt><trkpt lat="40.7943055" lon="15.9335109"><ele>767.5</ele><time>2026-05-02T16:15:20.702Z</time></trkpt><trkpt lat="40.7942657" lon="15.933669"><ele>768.25</ele><time>2026-05-02T16:15:21.701Z</time></trkpt><trkpt lat="40.7942268" lon="15.9338386"><ele>769.0</ele><time>2026-05-02T16:15:22.701Z</time></trkpt><trkpt lat="40.794184" lon="15.9340199"><ele>769.0</ele><time>2026-05-02T16:15:23.701Z</time></trkpt><trkpt lat="40.794137" lon="15.934207"><ele>769.0</ele><time>2026-05-02T16:15:24.7Z</time></trkpt><trkpt lat="40.7940917" lon="15.9343892"><ele>769.0</ele><time>2026-05-02T16:15:25.701Z</time></trkpt><trkpt lat="40.7940465" lon="15.9345727"><ele>769.0</ele><time>2026-05-02T16:15:26.702Z</time></trkpt><trkpt lat="40.7940067" lon="15.934758"><ele>769.25</ele><time>2026-05-02T16:15:27.701Z</time></trkpt><trkpt lat="40.7939758" lon="15.9349387"><ele>769.5</ele><time>2026-05-02T16:15:28.701Z</time></trkpt><trkpt lat="40.7939497" lon="15.9351141"><ele>769.75</ele><time>2026-05-02T16:15:29.702Z</time></trkpt><trkpt lat="40.7939241" lon="15.9352886"><ele>770.0</ele><time>2026-05-02T16:15:30.7Z</time></trkpt><trkpt lat="40.7938971" lon="15.9354656"><ele>770.0</ele><time>2026-05-02T16:15:31.701Z</time></trkpt><trkpt lat="40.7938702" lon="15.9356438"><ele>770.0</ele><time>2026-05-02T16:15:32.701Z</time></trkpt><trkpt lat="40.7938454" lon="15.9358206"><ele>770.0</ele><time>2026-05-02T16:15:33.7Z</time></trkpt><trkpt lat="40.7938206" lon="15.9359915"><ele>770.0</ele><time>2026-05-02T16:15:34.702Z</time></trkpt><trkpt lat="40.7938021" lon="15.9361494"><ele>770.2</ele><time>2026-05-02T16:15:35.701Z</time></trkpt><trkpt lat="40.7937859" lon="15.9363067"><ele>770.4</ele><time>2026-05-02T16:15:36.7Z</time></trkpt><trkpt lat="40.7937656" lon="15.936459"><ele>770.5999999999999</ele><time>2026-05-02T16:15:37.702Z</time></trkpt><trkpt lat="40.7937476" lon="15.9365984"><ele>770.8</ele><time>2026-05-02T16:15:38.701Z</time></trkpt><trkpt lat="40.7937297" lon="15.9367299"><ele>771.0</ele><time>2026-05-02T16:15:39.701Z</time></trkpt><trkpt lat="40.7937143" lon="15.936846"><ele>771.5</ele><time>2026-05-02T16:15:40.7Z</time></trkpt><trkpt lat="40.7936983" lon="15.9369448"><ele>772.0</ele><time>2026-05-02T16:15:41.701Z</time></trkpt><trkpt lat="40.7936881" lon="15.9370301"><ele>772.5</ele><time>2026-05-02T16:15:42.7Z</time></trkpt><trkpt lat="40.7936866" lon="15.9371513"><ele>773.0</ele><time>2026-05-02T16:15:44.702Z</time></trkpt><trkpt lat="40.7937212" lon="15.9372332"><ele>773.5</ele><time>2026-05-02T16:15:47.7Z</time></trkpt><trkpt lat="40.7937621" lon="15.9373307"><ele>774.0</ele><time>2026-05-02T16:31:10.701Z</time></trkpt><trkpt lat="40.7937862" lon="15.9374466"><ele>773.4285714285714</ele><time>2026-05-02T16:31:13.702Z</time></trkpt><trkpt lat="40.7938072" lon="15.9375601"><ele>772.8571428571429</ele><time>2026-05-02T16:31:15.702Z</time></trkpt><trkpt lat="40.7938199" lon="15.937655"><ele>772.2857142857142</ele><time>2026-05-02T16:31:17.702Z</time></trkpt><trkpt lat="40.793837" lon="15.9377425"><ele>771.7142857142858</ele><time>2026-05-02T16:31:19.702Z</time></trkpt><trkpt lat="40.7938435" lon="15.9378349"><ele>771.1428571428571</ele><time>2026-05-02T16:31:21.702Z</time></trkpt><trkpt lat="40.7938532" lon="15.9379267"><ele>770.5714285714286</ele><time>2026-05-02T16:31:23.702Z</time></trkpt><trkpt lat="40.7938703" lon="15.9380281"><ele>770.0</ele><time>2026-05-02T16:31:25.701Z</time></trkpt><trkpt lat="40.7938873" lon="15.9381218"><ele>770.0000000000001</ele><time>2026-05-02T16:31:27.703Z</time></trkpt><trkpt lat="40.7939002" lon="15.9382245"><ele>770.0</ele><time>2026-05-02T16:31:29.703Z</time></trkpt><trkpt lat="40.793918" lon="15.9383636"><ele>770.0</ele><time>2026-05-02T16:31:31.702Z</time></trkpt><trkpt lat="40.7939318" lon="15.9384492"><ele>770.0</ele><time>2026-05-02T16:31:32.702Z</time></trkpt><trkpt lat="40.7939463" lon="15.9385304"><ele>770.0000000000001</ele><time>2026-05-02T16:31:33.702Z</time></trkpt><trkpt lat="40.7939665" lon="15.9386535"><ele>770.0</ele><time>2026-05-02T16:31:35.701Z</time></trkpt><trkpt lat="40.7939828" lon="15.9387481"><ele>769.6666666666667</ele><time>2026-05-02T16:31:37.701Z</time></trkpt><trkpt lat="40.7939932" lon="15.9388387"><ele>769.3333333333334</ele><time>2026-05-02T16:31:39.702Z</time></trkpt><trkpt lat="40.7939889" lon="15.9389596"><ele>769.0</ele><time>2026-05-02T16:31:42.7Z</time></trkpt><trkpt lat="40.7939794" lon="15.9390591"><ele>768.6666666666667</ele><time>2026-05-02T16:31:44.702Z</time></trkpt><trkpt lat="40.7940151" lon="15.9391827"><ele>768.3333333333334</ele><time>2026-05-02T16:31:46.701Z</time></trkpt><trkpt lat="40.7940615" lon="15.9392435"><ele>768.0</ele><time>2026-05-02T16:31:47.701Z</time></trkpt><trkpt lat="40.7941267" lon="15.9393162"><ele>767.5</ele><time>2026-05-02T16:31:48.702Z</time></trkpt><trkpt lat="40.7942109" lon="15.9393974"><ele>767.0</ele><time>2026-05-02T16:31:49.701Z</time></trkpt><trkpt lat="40.7943101" lon="15.9394877"><ele>766.5</ele><time>2026-05-02T16:31:50.702Z</time></trkpt><trkpt lat="40.7944114" lon="15.9395851"><ele>766.0</ele><time>2026-05-02T16:31:51.701Z</time></trkpt><trkpt lat="40.7945146" lon="15.9396893"><ele>766.5999999999999</ele><time>2026-05-02T16:31:52.701Z</time></trkpt><trkpt lat="40.7946125" lon="15.9397854"><ele>767.2</ele><time>2026-05-02T16:31:53.702Z</time></trkpt><trkpt lat="40.7946977" lon="15.9398704"><ele>767.8</ele><time>2026-05-02T16:31:54.702Z</time></trkpt><trkpt lat="40.7947711" lon="15.9399466"><ele>768.4000000000001</ele><time>2026-05-02T16:31:55.701Z</time></trkpt><trkpt lat="40.7948368" lon="15.9400132"><ele>769.0</ele><time>2026-05-02T16:31:56.703Z</time></trkpt><trkpt lat="40.7949035" lon="15.9400795"><ele>768.9999999999999</ele><time>2026-05-02T16:31:57.702Z</time></trkpt><trkpt lat="40.7949732" lon="15.9401515"><ele>769.0</ele><time>2026-05-02T16:31:58.701Z</time></trkpt><trkpt lat="40.7950419" lon="15.9402242"><ele>769.0</ele><time>2026-05-02T16:31:59.701Z</time></trkpt><trkpt lat="40.7951086" lon="15.9402964"><ele>769.0</ele><time>2026-05-02T16:32:00.702Z</time></trkpt><trkpt lat="40.7951705" lon="15.9403714"><ele>768.9999999999999</ele><time>2026-05-02T16:32:01.702Z</time></trkpt><trkpt lat="40.7952346" lon="15.9404503"><ele>769.0</ele><time>2026-05-02T16:32:02.702Z</time></trkpt><trkpt lat="40.795297" lon="15.9405317"><ele>773.6666666666666</ele><time>2026-05-02T16:32:03.702Z</time></trkpt><trkpt lat="40.7953514" lon="15.9406049"><ele>778.3333333333333</ele><time>2026-05-02T16:32:04.702Z</time></trkpt><trkpt lat="40.7953981" lon="15.9406676"><ele>783.0</ele><time>2026-05-02T16:32:05.701Z</time></trkpt><trkpt lat="40.7954712" lon="15.9408001"><ele>787.6666666666667</ele><time>2026-05-02T16:32:07.703Z</time></trkpt><trkpt lat="40.7954999" lon="15.9408851"><ele>792.3333333333334</ele><time>2026-05-02T16:32:08.703Z</time></trkpt><trkpt lat="40.7955288" lon="15.9409848"><ele>797.0</ele><time>2026-05-02T16:32:09.702Z</time></trkpt><trkpt lat="40.7955596" lon="15.9410928"><ele>797.0</ele><time>2026-05-02T16:32:10.701Z</time></trkpt><trkpt lat="40.7955914" lon="15.9412079"><ele>797.0</ele><time>2026-05-02T16:32:11.702Z</time></trkpt><trkpt lat="40.7956223" lon="15.9413308"><ele>797.0</ele><time>2026-05-02T16:32:12.701Z</time></trkpt><trkpt lat="40.7956479" lon="15.9414597"><ele>797.0</ele><time>2026-05-02T16:32:13.702Z</time></trkpt><trkpt lat="40.7956693" lon="15.9415808"><ele>797.0</ele><time>2026-05-02T16:32:14.702Z</time></trkpt><trkpt lat="40.7956892" lon="15.9416876"><ele>795.0</ele><time>2026-05-02T16:32:15.701Z</time></trkpt><trkpt lat="40.7957086" lon="15.941793"><ele>793.0</ele><time>2026-05-02T16:32:16.701Z</time></trkpt><trkpt lat="40.7957275" lon="15.941908"><ele>791.0</ele><time>2026-05-02T16:32:17.703Z</time></trkpt><trkpt lat="40.7957502" lon="15.942035"><ele>789.0</ele><time>2026-05-02T16:32:18.702Z</time></trkpt><trkpt lat="40.7957736" lon="15.9421668"><ele>787.0</ele><time>2026-05-02T16:32:19.701Z</time></trkpt><trkpt lat="40.7957968" lon="15.9422979"><ele>787.0</ele><time>2026-05-02T16:32:20.707Z</time></trkpt><trkpt lat="40.7958225" lon="15.9424266"><ele>787.0</ele><time>2026-05-02T16:32:21.7Z</time></trkpt><trkpt lat="40.7958507" lon="15.9425577"><ele>787.0</ele><time>2026-05-02T16:32:22.7Z</time></trkpt><trkpt lat="40.7958818" lon="15.9426854"><ele>787.0</ele><time>2026-05-02T16:32:23.7Z</time></trkpt><trkpt lat="40.7959136" lon="15.9428028"><ele>787.0</ele><time>2026-05-02T16:32:24.703Z</time></trkpt><trkpt lat="40.7959476" lon="15.9429122"><ele>788.2</ele><time>2026-05-02T16:32:25.701Z</time></trkpt><trkpt lat="40.7959873" lon="15.9430139"><ele>789.4000000000001</ele><time>2026-05-02T16:32:26.703Z</time></trkpt><trkpt lat="40.7960334" lon="15.9431088"><ele>790.5999999999999</ele><time>2026-05-02T16:32:27.702Z</time></trkpt><trkpt lat="40.796088" lon="15.9431997"><ele>791.8</ele><time>2026-05-02T16:32:28.704Z</time></trkpt><trkpt lat="40.7961485" lon="15.9432948"><ele>793.0</ele><time>2026-05-02T16:32:29.703Z</time></trkpt><trkpt lat="40.7962117" lon="15.9433983"><ele>787.0</ele><time>2026-05-02T16:32:30.702Z</time></trkpt><trkpt lat="40.7962817" lon="15.9435133"><ele>781.0</ele><time>2026-05-02T16:32:31.783Z</time></trkpt><trkpt lat="40.7963567" lon="15.9436383"><ele>775.0</ele><time>2026-05-02T16:32:32.703Z</time></trkpt><trkpt lat="40.7964283" lon="15.9437567"><ele>769.0</ele><time>2026-05-02T16:32:33.703Z</time></trkpt><trkpt lat="40.796495" lon="15.9438667"><ele>769.0</ele><time>2026-05-02T16:32:34.703Z</time></trkpt><trkpt lat="40.7965533" lon="15.9439683"><ele>769.0</ele><time>2026-05-02T16:32:35.704Z</time></trkpt><trkpt lat="40.7966" lon="15.9440533"><ele>769.0</ele><time>2026-05-02T16:32:36.702Z</time></trkpt><trkpt lat="40.7966733" lon="15.944165"><ele>769.0</ele><time>2026-05-02T16:32:38.703Z</time></trkpt><trkpt lat="40.7967367" lon="15.94426"><ele>769.0</ele><time>2026-05-02T16:32:40.701Z</time></trkpt><trkpt lat="40.7967967" lon="15.94436"><ele>767.9999999999999</ele><time>2026-05-02T16:32:42.701Z</time></trkpt><trkpt lat="40.7968583" lon="15.944455"><ele>767.0</ele><time>2026-05-02T16:32:44.704Z</time></trkpt><trkpt lat="40.79693" lon="15.944545"><ele>766.0</ele><time>2026-05-02T16:32:46.702Z</time></trkpt><trkpt lat="40.7969783" lon="15.9446033"><ele>765.0</ele><time>2026-05-02T16:32:47.702Z</time></trkpt><trkpt lat="40.79704" lon="15.9446733"><ele>764.0</ele><time>2026-05-02T16:32:48.702Z</time></trkpt><trkpt lat="40.7971183" lon="15.9447633"><ele>763.0</ele><time>2026-05-02T16:32:49.702Z</time></trkpt><trkpt lat="40.7972083" lon="15.944865"><ele>763.0</ele><time>2026-05-02T16:32:50.703Z</time></trkpt><trkpt lat="40.797295" lon="15.94496"><ele>763.0</ele><time>2026-05-02T16:32:51.7Z</time></trkpt><trkpt lat="40.79738" lon="15.9450483"><ele>763.0</ele><time>2026-05-02T16:32:52.702Z</time></trkpt><trkpt lat="40.797465" lon="15.9451317"><ele>763.0</ele><time>2026-05-02T16:32:53.702Z</time></trkpt><trkpt lat="40.7975483" lon="15.9452033"><ele>763.0</ele><time>2026-05-02T16:32:54.7Z</time></trkpt><trkpt lat="40.7976417" lon="15.9452617"><ele>759.4</ele><time>2026-05-02T16:32:55.7Z</time></trkpt><trkpt lat="40.7977467" lon="15.9453067"><ele>755.8</ele><time>2026-05-02T16:32:56.702Z</time></trkpt><trkpt lat="40.7978533" lon="15.945335"><ele>752.2</ele><time>2026-05-02T16:32:57.702Z</time></trkpt><trkpt lat="40.7979617" lon="15.9453433"><ele>748.6</ele><time>2026-05-02T16:32:58.701Z</time></trkpt><trkpt lat="40.7980817" lon="15.945335"><ele>745.0</ele><time>2026-05-02T16:32:59.7Z</time></trkpt><trkpt lat="40.798215" lon="15.94531"><ele>745.0</ele><time>2026-05-02T16:33:00.701Z</time></trkpt><trkpt lat="40.7983517" lon="15.94528"><ele>745.0</ele><time>2026-05-02T16:33:01.701Z</time></trkpt><trkpt lat="40.79848" lon="15.9452533"><ele>745.0</ele><time>2026-05-02T16:33:02.703Z</time></trkpt><trkpt lat="40.798605" lon="15.94524"><ele>745.0</ele><time>2026-05-02T16:33:03.702Z</time></trkpt><trkpt lat="40.7987233" lon="15.9452383"><ele>745.3333333333334</ele><time>2026-05-02T16:33:04.701Z</time></trkpt><trkpt lat="40.7988283" lon="15.9452333"><ele>745.6666666666667</ele><time>2026-05-02T16:33:05.702Z</time></trkpt><trkpt lat="40.798915" lon="15.94522"><ele>746.0</ele><time>2026-05-02T16:33:06.701Z</time></trkpt><trkpt lat="40.7989867" lon="15.9451883"><ele>746.3333333333334</ele><time>2026-05-02T16:33:07.701Z</time></trkpt><trkpt lat="40.7990483" lon="15.94514"><ele>746.6666666666666</ele><time>2026-05-02T16:33:08.702Z</time></trkpt><trkpt lat="40.7991" lon="15.9450683"><ele>747.0</ele><time>2026-05-02T16:33:09.701Z</time></trkpt><trkpt lat="40.7991417" lon="15.94498"><ele>747.0</ele><time>2026-05-02T16:33:10.701Z</time></trkpt><trkpt lat="40.7991883" lon="15.944895"><ele>747.0</ele><time>2026-05-02T16:33:11.702Z</time></trkpt><trkpt lat="40.79924" lon="15.9448267"><ele>747.0</ele><time>2026-05-02T16:33:12.701Z</time></trkpt><trkpt lat="40.7993" lon="15.9447833"><ele>747.0</ele><time>2026-05-02T16:33:13.701Z</time></trkpt><trkpt lat="40.7993633" lon="15.94478"><ele>747.0</ele><time>2026-05-02T16:33:14.703Z</time></trkpt><trkpt lat="40.7994583" lon="15.9448883"><ele>747.0</ele><time>2026-05-02T16:33:16.702Z</time></trkpt><trkpt lat="40.7994717" lon="15.9449833"><ele>741.75</ele><time>2026-05-02T16:33:17.702Z</time></trkpt><trkpt lat="40.799465" lon="15.9451"><ele>736.5</ele><time>2026-05-02T16:33:18.701Z</time></trkpt><trkpt lat="40.7994433" lon="15.9452483"><ele>731.25</ele><time>2026-05-02T16:33:19.701Z</time></trkpt><trkpt lat="40.7994133" lon="15.9454233"><ele>726.0</ele><time>2026-05-02T16:33:20.703Z</time></trkpt><trkpt lat="40.7993817" lon="15.9455933"><ele>726.0</ele><time>2026-05-02T16:33:21.7Z</time></trkpt><trkpt lat="40.7993517" lon="15.945745"><ele>726.0</ele><time>2026-05-02T16:33:22.703Z</time></trkpt><trkpt lat="40.7993267" lon="15.9458717"><ele>726.0</ele><time>2026-05-02T16:33:23.702Z</time></trkpt><trkpt lat="40.7993133" lon="15.9459767"><ele>726.0</ele><time>2026-05-02T16:33:24.702Z</time></trkpt><trkpt lat="40.79931" lon="15.946075"><ele>726.0</ele><time>2026-05-02T16:33:25.701Z</time></trkpt><trkpt lat="40.7993167" lon="15.9461717"><ele>726.0</ele><time>2026-05-02T16:33:26.701Z</time></trkpt><trkpt lat="40.7993417" lon="15.9462633"><ele>725.6666666666666</ele><time>2026-05-02T16:33:27.702Z</time></trkpt><trkpt lat="40.799385" lon="15.9463483"><ele>725.3333333333334</ele><time>2026-05-02T16:33:28.703Z</time></trkpt><trkpt lat="40.7994433" lon="15.9464217"><ele>725.0</ele><time>2026-05-02T16:33:29.702Z</time></trkpt><trkpt lat="40.7995033" lon="15.9464917"><ele>724.6666666666667</ele><time>2026-05-02T16:33:30.702Z</time></trkpt><trkpt lat="40.7995583" lon="15.9465717"><ele>724.3333333333334</ele><time>2026-05-02T16:33:31.701Z</time></trkpt><trkpt lat="40.7996" lon="15.9466683"><ele>724.0</ele><time>2026-05-02T16:33:32.702Z</time></trkpt><trkpt lat="40.799625" lon="15.9467833"><ele>723.6</ele><time>2026-05-02T16:33:33.701Z</time></trkpt><trkpt lat="40.7996333" lon="15.9469017"><ele>723.2</ele><time>2026-05-02T16:33:34.701Z</time></trkpt><trkpt lat="40.79963" lon="15.947025"><ele>722.8000000000001</ele><time>2026-05-02T16:33:35.701Z</time></trkpt><trkpt lat="40.79964" lon="15.9471533"><ele>722.4000000000001</ele><time>2026-05-02T16:33:36.701Z</time></trkpt><trkpt lat="40.79967" lon="15.9472883"><ele>722.0</ele><time>2026-05-02T16:33:37.702Z</time></trkpt><trkpt lat="40.7997233" lon="15.9474233"><ele>722.5</ele><time>2026-05-02T16:33:38.701Z</time></trkpt><trkpt lat="40.7997967" lon="15.9475683"><ele>723.0</ele><time>2026-05-02T16:33:39.701Z</time></trkpt><trkpt lat="40.79988" lon="15.9477217"><ele>723.5</ele><time>2026-05-02T16:33:40.701Z</time></trkpt><trkpt lat="40.79997" lon="15.947885"><ele>724.0</ele><time>2026-05-02T16:33:41.701Z</time></trkpt><trkpt lat="40.80007" lon="15.948055"><ele>720.0</ele><time>2026-05-02T16:33:42.7Z</time></trkpt><trkpt lat="40.80017" lon="15.94822"><ele>716.0</ele><time>2026-05-02T16:33:43.701Z</time></trkpt><trkpt lat="40.8002717" lon="15.948375"><ele>712.0</ele><time>2026-05-02T16:33:44.702Z</time></trkpt><trkpt lat="40.8003817" lon="15.9485183"><ele>712.0</ele><time>2026-05-02T16:33:45.7Z</time></trkpt><trkpt lat="40.8004883" lon="15.9486617"><ele>712.0</ele><time>2026-05-02T16:33:46.702Z</time></trkpt><trkpt lat="40.8005933" lon="15.948815"><ele>712.0</ele><time>2026-05-02T16:33:47.701Z</time></trkpt><trkpt lat="40.8006983" lon="15.948965"><ele>712.0</ele><time>2026-05-02T16:33:48.701Z</time></trkpt><trkpt lat="40.8007983" lon="15.9491017"><ele>712.0</ele><time>2026-05-02T16:33:49.703Z</time></trkpt><trkpt lat="40.8008933" lon="15.9492283"><ele>712.0</ele><time>2026-05-02T16:33:50.703Z</time></trkpt><trkpt lat="40.8009833" lon="15.9493483"><ele>712.0</ele><time>2026-05-02T16:33:51.702Z</time></trkpt><trkpt lat="40.80106" lon="15.949465"><ele>710.1666666666667</ele><time>2026-05-02T16:33:52.701Z</time></trkpt><trkpt lat="40.8011133" lon="15.9495717"><ele>708.3333333333334</ele><time>2026-05-02T16:33:53.702Z</time></trkpt><trkpt lat="40.8011467" lon="15.9496767"><ele>706.5</ele><time>2026-05-02T16:33:54.701Z</time></trkpt><trkpt lat="40.80116" lon="15.9497867"><ele>704.6666666666666</ele><time>2026-05-02T16:33:55.701Z</time></trkpt><trkpt lat="40.8011517" lon="15.9498933"><ele>702.8333333333333</ele><time>2026-05-02T16:33:56.701Z</time></trkpt><trkpt lat="40.8011283" lon="15.94999"><ele>701.0</ele><time>2026-05-02T16:33:57.7Z</time></trkpt><trkpt lat="40.801085" lon="15.9500783"><ele>700.5999999999999</ele><time>2026-05-02T16:33:58.703Z</time></trkpt><trkpt lat="40.801015" lon="15.9501617"><ele>700.2</ele><time>2026-05-02T16:33:59.702Z</time></trkpt><trkpt lat="40.8009317" lon="15.95024"><ele>699.8</ele><time>2026-05-02T16:34:00.702Z</time></trkpt><trkpt lat="40.8008467" lon="15.9503267"><ele>699.4000000000001</ele><time>2026-05-02T16:34:01.701Z</time></trkpt><trkpt lat="40.8007767" lon="15.95043"><ele>699.0</ele><time>2026-05-02T16:34:02.702Z</time></trkpt><trkpt lat="40.8007183" lon="15.95055"><ele>699.0</ele><time>2026-05-02T16:34:03.703Z</time></trkpt><trkpt lat="40.800655" lon="15.95067"><ele>699.0</ele><time>2026-05-02T16:34:04.702Z</time></trkpt><trkpt lat="40.8005733" lon="15.9507767"><ele>699.0</ele><time>2026-05-02T16:34:05.701Z</time></trkpt><trkpt lat="40.8004733" lon="15.9508817"><ele>699.0</ele><time>2026-05-02T16:34:06.702Z</time></trkpt><trkpt lat="40.8003617" lon="15.9509867"><ele>697.75</ele><time>2026-05-02T16:34:07.7Z</time></trkpt><trkpt lat="40.8002567" lon="15.9510983"><ele>696.5</ele><time>2026-05-02T16:34:08.701Z</time></trkpt><trkpt lat="40.8001667" lon="15.9512117"><ele>695.25</ele><time>2026-05-02T16:34:09.701Z</time></trkpt><trkpt lat="40.8000817" lon="15.95132"><ele>694.0</ele><time>2026-05-02T16:34:10.7Z</time></trkpt><trkpt lat="40.79999" lon="15.9514217"><ele>694.0</ele><time>2026-05-02T16:34:11.701Z</time></trkpt><trkpt lat="40.7998933" lon="15.95151"><ele>694.0</ele><time>2026-05-02T16:34:12.702Z</time></trkpt><trkpt lat="40.7997883" lon="15.9515817"><ele>694.0</ele><time>2026-05-02T16:34:13.7Z</time></trkpt><trkpt lat="40.79968" lon="15.95163"><ele>694.0</ele><time>2026-05-02T16:34:14.702Z</time></trkpt><trkpt lat="40.7995733" lon="15.95166"><ele>694.0</ele><time>2026-05-02T16:34:15.7Z</time></trkpt><trkpt lat="40.799465" lon="15.951675"><ele>694.0</ele><time>2026-05-02T16:34:16.701Z</time></trkpt><trkpt lat="40.7993617" lon="15.9516767"><ele>694.0</ele><time>2026-05-02T16:34:17.701Z</time></trkpt><trkpt lat="40.7992667" lon="15.9516617"><ele>694.0</ele><time>2026-05-02T16:34:18.701Z</time></trkpt><trkpt lat="40.7991867" lon="15.95164"><ele>694.0</ele><time>2026-05-02T16:34:19.702Z</time></trkpt><trkpt lat="40.7990917" lon="15.95163"><ele>693.8333333333334</ele><time>2026-05-02T16:34:21.701Z</time></trkpt><trkpt lat="40.7990417" lon="15.95169"><ele>693.6666666666667</ele><time>2026-05-02T16:34:23.7Z</time></trkpt><trkpt lat="40.7990783" lon="15.951815"><ele>693.5</ele><time>2026-05-02T16:34:25.701Z</time></trkpt><trkpt lat="40.799125" lon="15.9518717"><ele>693.3333333333334</ele><time>2026-05-02T16:34:26.701Z</time></trkpt><trkpt lat="40.7991867" lon="15.95192"><ele>693.1666666666666</ele><time>2026-05-02T16:34:27.702Z</time></trkpt><trkpt lat="40.7992617" lon="15.9519567"><ele>693.0</ele><time>2026-05-02T16:34:28.7Z</time></trkpt><trkpt lat="40.799345" lon="15.9519883"><ele>691.8</ele><time>2026-05-02T16:34:29.701Z</time></trkpt><trkpt lat="40.7994383" lon="15.9520217"><ele>690.5999999999999</ele><time>2026-05-02T16:34:30.702Z</time></trkpt><trkpt lat="40.79954" lon="15.9520583"><ele>689.4000000000001</ele><time>2026-05-02T16:34:31.701Z</time></trkpt><trkpt lat="40.79965" lon="15.9520967"><ele>688.2</ele><time>2026-05-02T16:34:32.702Z</time></trkpt><trkpt lat="40.799765" lon="15.9521333"><ele>687.0</ele><time>2026-05-02T16:34:33.701Z</time></trkpt><trkpt lat="40.79988" lon="15.9521617"><ele>687.0</ele><time>2026-05-02T16:34:34.701Z</time></trkpt><trkpt lat="40.7999967" lon="15.9521733"><ele>687.0</ele><time>2026-05-02T16:34:35.702Z</time></trkpt><trkpt lat="40.8001217" lon="15.952165"><ele>687.0</ele><time>2026-05-02T16:34:36.703Z</time></trkpt><trkpt lat="40.8002467" lon="15.95215"><ele>687.0</ele><time>2026-05-02T16:34:37.702Z</time></trkpt><trkpt lat="40.8003667" lon="15.9521417"><ele>686.5</ele><time>2026-05-02T16:34:38.702Z</time></trkpt><trkpt lat="40.8004833" lon="15.95215"><ele>686.0</ele><time>2026-05-02T16:34:39.701Z</time></trkpt><trkpt lat="40.8006" lon="15.9521817"><ele>685.5</ele><time>2026-05-02T16:34:40.701Z</time></trkpt><trkpt lat="40.8007183" lon="15.95224"><ele>685.0</ele><time>2026-05-02T16:34:41.7Z</time></trkpt><trkpt lat="40.8008333" lon="15.9523233"><ele>685.0</ele><time>2026-05-02T16:34:42.701Z</time></trkpt><trkpt lat="40.8009467" lon="15.9524283"><ele>685.0</ele><time>2026-05-02T16:34:43.701Z</time></trkpt><trkpt lat="40.8010533" lon="15.9525517"><ele>685.0</ele><time>2026-05-02T16:34:44.703Z</time></trkpt><trkpt lat="40.8011533" lon="15.9526917"><ele>685.0</ele><time>2026-05-02T16:34:45.702Z</time></trkpt><trkpt lat="40.8012467" lon="15.95285"><ele>684.0</ele><time>2026-05-02T16:34:46.702Z</time></trkpt><trkpt lat="40.80133" lon="15.95303"><ele>683.0</ele><time>2026-05-02T16:34:47.702Z</time></trkpt><trkpt lat="40.801405" lon="15.953215"><ele>682.0</ele><time>2026-05-02T16:34:48.701Z</time></trkpt><trkpt lat="40.8014717" lon="15.9533967"><ele>679.25</ele><time>2026-05-02T16:34:49.702Z</time></trkpt><trkpt lat="40.8015333" lon="15.9535717"><ele>676.5</ele><time>2026-05-02T16:34:50.701Z</time></trkpt><trkpt lat="40.8015867" lon="15.9537333"><ele>673.75</ele><time>2026-05-02T16:34:51.702Z</time></trkpt><trkpt lat="40.8016333" lon="15.9538683"><ele>671.0</ele><time>2026-05-02T16:34:52.701Z</time></trkpt><trkpt lat="40.8016767" lon="15.9539767"><ele>671.0</ele><time>2026-05-02T16:34:53.702Z</time></trkpt><trkpt lat="40.80172" lon="15.95407"><ele>671.0</ele><time>2026-05-02T16:34:54.701Z</time></trkpt><trkpt lat="40.8017817" lon="15.954145"><ele>671.0</ele><time>2026-05-02T16:34:55.701Z</time></trkpt><trkpt lat="40.8018567" lon="15.954195"><ele>671.0</ele><time>2026-05-02T16:34:56.704Z</time></trkpt><trkpt lat="40.801935" lon="15.9542183"><ele>671.0</ele><time>2026-05-02T16:34:57.701Z</time></trkpt><trkpt lat="40.8020133" lon="15.9542083"><ele>671.0</ele><time>2026-05-02T16:34:58.702Z</time></trkpt><trkpt lat="40.8020917" lon="15.954155"><ele>668.5</ele><time>2026-05-02T16:34:59.702Z</time></trkpt><trkpt lat="40.8021733" lon="15.954065"><ele>666.0</ele><time>2026-05-02T16:35:00.7Z</time></trkpt><trkpt lat="40.8022567" lon="15.9539367"><ele>663.5</ele><time>2026-05-02T16:35:01.701Z</time></trkpt><trkpt lat="40.8023417" lon="15.9537817"><ele>661.0</ele><time>2026-05-02T16:35:02.701Z</time></trkpt><trkpt lat="40.8024333" lon="15.9536067"><ele>661.0</ele><time>2026-05-02T16:35:03.701Z</time></trkpt><trkpt lat="40.8025283" lon="15.9534267"><ele>661.0</ele><time>2026-05-02T16:35:04.701Z</time></trkpt><trkpt lat="40.8026183" lon="15.9532567"><ele>661.0</ele><time>2026-05-02T16:35:05.7Z</time></trkpt><trkpt lat="40.8027067" lon="15.9530967"><ele>659.75</ele><time>2026-05-02T16:35:06.702Z</time></trkpt><trkpt lat="40.80279" lon="15.95294"><ele>658.5</ele><time>2026-05-02T16:35:07.702Z</time></trkpt><trkpt lat="40.8028733" lon="15.9527917"><ele>657.25</ele><time>2026-05-02T16:35:08.701Z</time></trkpt><trkpt lat="40.8029517" lon="15.952655"><ele>656.0</ele><time>2026-05-02T16:35:09.7Z</time></trkpt><trkpt lat="40.8030217" lon="15.9525317"><ele>656.0</ele><time>2026-05-02T16:35:10.701Z</time></trkpt><trkpt lat="40.8030817" lon="15.9524117"><ele>656.0</ele><time>2026-05-02T16:35:11.702Z</time></trkpt><trkpt lat="40.803125" lon="15.95229"><ele>656.0</ele><time>2026-05-02T16:35:12.701Z</time></trkpt><trkpt lat="40.8031517" lon="15.9521667"><ele>656.0</ele><time>2026-05-02T16:35:13.701Z</time></trkpt><trkpt lat="40.8031783" lon="15.952045"><ele>656.0</ele><time>2026-05-02T16:35:14.703Z</time></trkpt><trkpt lat="40.8032133" lon="15.9519267"><ele>656.0</ele><time>2026-05-02T16:35:15.702Z</time></trkpt><trkpt lat="40.8032683" lon="15.9518133"><ele>656.0</ele><time>2026-05-02T16:35:16.702Z</time></trkpt><trkpt lat="40.8033383" lon="15.9517083"><ele>656.0</ele><time>2026-05-02T16:35:17.703Z</time></trkpt><trkpt lat="40.8034267" lon="15.9516133"><ele>656.0</ele><time>2026-05-02T16:35:18.702Z</time></trkpt><trkpt lat="40.8035317" lon="15.9515267"><ele>656.0</ele><time>2026-05-02T16:35:19.707Z</time></trkpt><trkpt lat="40.8036533" lon="15.951445"><ele>653.6666666666666</ele><time>2026-05-02T16:35:20.702Z</time></trkpt><trkpt lat="40.803795" lon="15.95137"><ele>651.3333333333334</ele><time>2026-05-02T16:35:21.701Z</time></trkpt><trkpt lat="40.8039517" lon="15.9512967"><ele>649.0</ele><time>2026-05-02T16:35:22.704Z</time></trkpt><trkpt lat="40.80412" lon="15.9512167"><ele>649.0</ele><time>2026-05-02T16:35:23.701Z</time></trkpt><trkpt lat="40.8042917" lon="15.951135"><ele>649.0</ele><time>2026-05-02T16:35:24.702Z</time></trkpt><trkpt lat="40.8044633" lon="15.9510483"><ele>649.0</ele><time>2026-05-02T16:35:25.7Z</time></trkpt><trkpt lat="40.8046333" lon="15.9509583"><ele>649.3333333333334</ele><time>2026-05-02T16:35:26.702Z</time></trkpt><trkpt lat="40.8048017" lon="15.950865"><ele>649.6666666666666</ele><time>2026-05-02T16:35:27.702Z</time></trkpt><trkpt lat="40.8049617" lon="15.9507783"><ele>650.0</ele><time>2026-05-02T16:35:28.701Z</time></trkpt><trkpt lat="40.8051133" lon="15.950695"><ele>646.75</ele><time>2026-05-02T16:35:29.701Z</time></trkpt><trkpt lat="40.805255" lon="15.9506183"><ele>643.5</ele><time>2026-05-02T16:35:30.702Z</time></trkpt><trkpt lat="40.80538" lon="15.95055"><ele>640.25</ele><time>2026-05-02T16:35:31.707Z</time></trkpt><trkpt lat="40.8054867" lon="15.9504867"><ele>637.0</ele><time>2026-05-02T16:35:32.702Z</time></trkpt><trkpt lat="40.8055733" lon="15.95043"><ele>637.0</ele><time>2026-05-02T16:35:33.702Z</time></trkpt><trkpt lat="40.80564" lon="15.950385"><ele>637.0</ele><time>2026-05-02T16:35:34.702Z</time></trkpt><trkpt lat="40.805725" lon="15.9503417"><ele>637.0</ele><time>2026-05-02T16:35:36.701Z</time></trkpt><trkpt lat="40.80576" lon="15.9504533"><ele>637.0</ele><time>2026-05-02T16:35:39.701Z</time></trkpt><trkpt lat="40.8056783" lon="15.9505467"><ele>637.0</ele><time>2026-05-02T16:35:41.701Z</time></trkpt><trkpt lat="40.8056083" lon="15.9505817"><ele>637.0</ele><time>2026-05-02T16:35:42.701Z</time></trkpt><trkpt lat="40.8055317" lon="15.95062"><ele>637.0</ele><time>2026-05-02T16:35:43.701Z</time></trkpt><trkpt lat="40.8054517" lon="15.9506717"><ele>637.0</ele><time>2026-05-02T16:35:44.703Z</time></trkpt><trkpt lat="40.8053617" lon="15.950745"><ele>637.0</ele><time>2026-05-02T16:35:45.702Z</time></trkpt><trkpt lat="40.8052617" lon="15.95083"><ele>637.0</ele><time>2026-05-02T16:35:46.703Z</time></trkpt><trkpt lat="40.8051633" lon="15.950915"><ele>637.0</ele><time>2026-05-02T16:35:47.701Z</time></trkpt><trkpt lat="40.8050683" lon="15.9510067"><ele>636.0</ele><time>2026-05-02T16:35:48.703Z</time></trkpt><trkpt lat="40.8049817" lon="15.951115"><ele>635.0</ele><time>2026-05-02T16:35:49.702Z</time></trkpt><trkpt lat="40.8049" lon="15.9512367"><ele>634.0</ele><time>2026-05-02T16:35:50.703Z</time></trkpt><trkpt lat="40.8048183" lon="15.9513683"><ele>633.0</ele><time>2026-05-02T16:35:51.702Z</time></trkpt><trkpt lat="40.80474" lon="15.9515067"><ele>633.0</ele><time>2026-05-02T16:35:52.704Z</time></trkpt><trkpt lat="40.8046667" lon="15.9516617"><ele>633.0</ele><time>2026-05-02T16:35:53.703Z</time></trkpt><trkpt lat="40.8046" lon="15.9518333"><ele>633.0</ele><time>2026-05-02T16:35:54.702Z</time></trkpt><trkpt lat="40.8045433" lon="15.9520067"><ele>633.0</ele><time>2026-05-02T16:35:55.703Z</time></trkpt><trkpt lat="40.8044917" lon="15.952175"><ele>632.0</ele><time>2026-05-02T16:35:56.703Z</time></trkpt><trkpt lat="40.80444" lon="15.9523483"><ele>631.0</ele><time>2026-05-02T16:35:57.701Z</time></trkpt><trkpt lat="40.8043833" lon="15.952535"><ele>630.0</ele><time>2026-05-02T16:35:58.702Z</time></trkpt><trkpt lat="40.8043217" lon="15.95273"><ele>630.0</ele><time>2026-05-02T16:35:59.702Z</time></trkpt><trkpt lat="40.8042533" lon="15.95293"><ele>630.0</ele><time>2026-05-02T16:36:00.702Z</time></trkpt><trkpt lat="40.80418" lon="15.9531267"><ele>630.0</ele><time>2026-05-02T16:36:01.701Z</time></trkpt><trkpt lat="40.804105" lon="15.9533167"><ele>627.5</ele><time>2026-05-02T16:36:02.702Z</time></trkpt><trkpt lat="40.8040283" lon="15.953495"><ele>625.0</ele><time>2026-05-02T16:36:03.7Z</time></trkpt><trkpt lat="40.803955" lon="15.9536633"><ele>622.5</ele><time>2026-05-02T16:36:04.701Z</time></trkpt><trkpt lat="40.803885" lon="15.9538317"><ele>620.0</ele><time>2026-05-02T16:36:05.701Z</time></trkpt><trkpt lat="40.8038233" lon="15.9540033"><ele>620.0</ele><time>2026-05-02T16:36:06.701Z</time></trkpt><trkpt lat="40.8037767" lon="15.954175"><ele>620.0</ele><time>2026-05-02T16:36:07.7Z</time></trkpt><trkpt lat="40.8037467" lon="15.95436"><ele>620.0</ele><time>2026-05-02T16:36:08.701Z</time></trkpt><trkpt lat="40.8037267" lon="15.9545667"><ele>620.0</ele><time>2026-05-02T16:36:09.701Z</time></trkpt><trkpt lat="40.8037133" lon="15.9547917"><ele>619.0</ele><time>2026-05-02T16:36:10.7Z</time></trkpt><trkpt lat="40.8037067" lon="15.955015"><ele>618.0</ele><time>2026-05-02T16:36:11.702Z</time></trkpt><trkpt lat="40.8037033" lon="15.95522"><ele>617.0</ele><time>2026-05-02T16:36:12.7Z</time></trkpt><trkpt lat="40.8037017" lon="15.9554083"><ele>615.75</ele><time>2026-05-02T16:36:13.703Z</time></trkpt><trkpt lat="40.8036967" lon="15.9555817"><ele>614.5</ele><time>2026-05-02T16:36:14.703Z</time></trkpt><trkpt lat="40.8036783" lon="15.9557533"><ele>613.25</ele><time>2026-05-02T16:36:15.702Z</time></trkpt><trkpt lat="40.8036383" lon="15.9559333"><ele>612.0</ele><time>2026-05-02T16:36:16.701Z</time></trkpt><trkpt lat="40.803585" lon="15.95612"><ele>612.25</ele><time>2026-05-02T16:36:17.702Z</time></trkpt><trkpt lat="40.803525" lon="15.9563033"><ele>612.5</ele><time>2026-05-02T16:36:18.701Z</time></trkpt><trkpt lat="40.80347" lon="15.9564783"><ele>612.75</ele><time>2026-05-02T16:36:19.702Z</time></trkpt><trkpt lat="40.80342" lon="15.9566383"><ele>613.0</ele><time>2026-05-02T16:36:20.702Z</time></trkpt><trkpt lat="40.8033767" lon="15.9567833"><ele>613.0</ele><time>2026-05-02T16:36:21.701Z</time></trkpt><trkpt lat="40.80334" lon="15.9569133"><ele>613.0</ele><time>2026-05-02T16:36:22.701Z</time></trkpt><trkpt lat="40.8033183" lon="15.9570333"><ele>613.0</ele><time>2026-05-02T16:36:23.701Z</time></trkpt><trkpt lat="40.803315" lon="15.9571517"><ele>613.0</ele><time>2026-05-02T16:36:24.701Z</time></trkpt><trkpt lat="40.803335" lon="15.957265"><ele>613.0</ele><time>2026-05-02T16:36:25.701Z</time></trkpt><trkpt lat="40.8033817" lon="15.9573717"><ele>613.0</ele><time>2026-05-02T16:36:26.701Z</time></trkpt><trkpt lat="40.8034533" lon="15.9574533"><ele>613.0</ele><time>2026-05-02T16:36:27.7Z</time></trkpt><trkpt lat="40.8035433" lon="15.9575167"><ele>613.0</ele><time>2026-05-02T16:36:28.702Z</time></trkpt><trkpt lat="40.8036417" lon="15.95758"><ele>613.0</ele><time>2026-05-02T16:36:29.701Z</time></trkpt><trkpt lat="40.8037367" lon="15.9576633"><ele>613.0</ele><time>2026-05-02T16:36:30.702Z</time></trkpt><trkpt lat="40.8038217" lon="15.9577733"><ele>610.5</ele><time>2026-05-02T16:36:31.701Z</time></trkpt><trkpt lat="40.80389" lon="15.9579017"><ele>608.0</ele><time>2026-05-02T16:36:32.701Z</time></trkpt><trkpt lat="40.8039467" lon="15.95804"><ele>605.5</ele><time>2026-05-02T16:36:33.7Z</time></trkpt><trkpt lat="40.80399" lon="15.958195"><ele>603.0</ele><time>2026-05-02T16:36:34.7Z</time></trkpt><trkpt lat="40.8040217" lon="15.9583667"><ele>602.0</ele><time>2026-05-02T16:36:35.7Z</time></trkpt><trkpt lat="40.8040367" lon="15.9585467"><ele>601.0</ele><time>2026-05-02T16:36:36.701Z</time></trkpt><trkpt lat="40.804035" lon="15.9587317"><ele>600.0</ele><time>2026-05-02T16:36:37.701Z</time></trkpt><trkpt lat="40.8040183" lon="15.958905"><ele>599.0</ele><time>2026-05-02T16:36:38.701Z</time></trkpt><trkpt lat="40.8039833" lon="15.9590533"><ele>599.0</ele><time>2026-05-02T16:36:39.7Z</time></trkpt><trkpt lat="40.8039283" lon="15.9591917"><ele>599.0</ele><time>2026-05-02T16:36:40.702Z</time></trkpt><trkpt lat="40.8038533" lon="15.9593317"><ele>599.0</ele><time>2026-05-02T16:36:41.701Z</time></trkpt><trkpt lat="40.8037567" lon="15.9594783"><ele>599.0</ele><time>2026-05-02T16:36:42.701Z</time></trkpt><trkpt lat="40.803655" lon="15.9596233"><ele>597.5</ele><time>2026-05-02T16:36:43.702Z</time></trkpt><trkpt lat="40.8035633" lon="15.9597617"><ele>596.0</ele><time>2026-05-02T16:36:44.702Z</time></trkpt><trkpt lat="40.80348" lon="15.9598967"><ele>594.5</ele><time>2026-05-02T16:36:45.701Z</time></trkpt><trkpt lat="40.8034033" lon="15.96003"><ele>593.0</ele><time>2026-05-02T16:36:46.702Z</time></trkpt><trkpt lat="40.803335" lon="15.9601683"><ele>591.5</ele><time>2026-05-02T16:36:47.701Z</time></trkpt><trkpt lat="40.8032733" lon="15.960325"><ele>590.0</ele><time>2026-05-02T16:36:48.701Z</time></trkpt><trkpt lat="40.8032167" lon="15.9605083"><ele>588.5</ele><time>2026-05-02T16:36:49.702Z</time></trkpt><trkpt lat="40.803165" lon="15.960715"><ele>587.0</ele><time>2026-05-02T16:36:50.701Z</time></trkpt><trkpt lat="40.8031217" lon="15.9609233"><ele>585.0</ele><time>2026-05-02T16:36:51.701Z</time></trkpt><trkpt lat="40.8030833" lon="15.9611217"><ele>583.0</ele><time>2026-05-02T16:36:52.7Z</time></trkpt><trkpt lat="40.80305" lon="15.961305"><ele>581.0</ele><time>2026-05-02T16:36:53.702Z</time></trkpt><trkpt lat="40.8030267" lon="15.9614733"><ele>579.0</ele><time>2026-05-02T16:36:54.701Z</time></trkpt><trkpt lat="40.8030167" lon="15.9616383"><ele>578.75</ele><time>2026-05-02T16:36:55.701Z</time></trkpt><trkpt lat="40.8030233" lon="15.9618017"><ele>578.5</ele><time>2026-05-02T16:36:56.702Z</time></trkpt><trkpt lat="40.8030533" lon="15.96196"><ele>578.25</ele><time>2026-05-02T16:36:57.7Z</time></trkpt><trkpt lat="40.8031033" lon="15.9621067"><ele>578.0</ele><time>2026-05-02T16:36:58.702Z</time></trkpt><trkpt lat="40.8031717" lon="15.96225"><ele>578.0</ele><time>2026-05-02T16:36:59.702Z</time></trkpt><trkpt lat="40.8032467" lon="15.962385"><ele>578.0</ele><time>2026-05-02T16:37:00.701Z</time></trkpt><trkpt lat="40.8033133" lon="15.962515"><ele>578.0</ele><time>2026-05-02T16:37:01.701Z</time></trkpt><trkpt lat="40.8033667" lon="15.962645"><ele>578.0</ele><time>2026-05-02T16:37:02.702Z</time></trkpt><trkpt lat="40.8034017" lon="15.96279"><ele>577.5</ele><time>2026-05-02T16:37:03.702Z</time></trkpt><trkpt lat="40.8034183" lon="15.9629517"><ele>577.0</ele><time>2026-05-02T16:37:04.701Z</time></trkpt><trkpt lat="40.8034167" lon="15.9631267"><ele>576.5</ele><time>2026-05-02T16:37:05.702Z</time></trkpt><trkpt lat="40.8034" lon="15.9633083"><ele>576.0</ele><time>2026-05-02T16:37:06.7Z</time></trkpt><trkpt lat="40.80337" lon="15.9634983"><ele>572.6666666666666</ele><time>2026-05-02T16:37:07.701Z</time></trkpt><trkpt lat="40.80333" lon="15.9636983"><ele>569.3333333333333</ele><time>2026-05-02T16:37:08.704Z</time></trkpt><trkpt lat="40.80328" lon="15.9639117"><ele>566.0</ele><time>2026-05-02T16:37:09.701Z</time></trkpt><trkpt lat="40.803225" lon="15.96413"><ele>563.6666666666666</ele><time>2026-05-02T16:37:10.701Z</time></trkpt><trkpt lat="40.80317" lon="15.9643433"><ele>561.3333333333334</ele><time>2026-05-02T16:37:11.701Z</time></trkpt><trkpt lat="40.8031183" lon="15.964545"><ele>559.0</ele><time>2026-05-02T16:37:12.701Z</time></trkpt><trkpt lat="40.8030717" lon="15.964735"><ele>559.0</ele><time>2026-05-02T16:37:13.703Z</time></trkpt><trkpt lat="40.8030267" lon="15.9649217"><ele>559.0</ele><time>2026-05-02T16:37:14.702Z</time></trkpt><trkpt lat="40.8029817" lon="15.96512"><ele>559.0</ele><time>2026-05-02T16:37:15.701Z</time></trkpt><trkpt lat="40.8029317" lon="15.96534"><ele>553.3333333333334</ele><time>2026-05-02T16:37:16.702Z</time></trkpt><trkpt lat="40.80288" lon="15.96557"><ele>547.6666666666666</ele><time>2026-05-02T16:37:17.702Z</time></trkpt><trkpt lat="40.80283" lon="15.9658"><ele>542.0</ele><time>2026-05-02T16:37:18.701Z</time></trkpt><trkpt lat="40.8027833" lon="15.9660183"><ele>545.6666666666666</ele><time>2026-05-02T16:37:19.702Z</time></trkpt><trkpt lat="40.8027367" lon="15.9662267"><ele>549.3333333333334</ele><time>2026-05-02T16:37:20.703Z</time></trkpt><trkpt lat="40.80269" lon="15.9664283"><ele>553.0</ele><time>2026-05-02T16:37:21.701Z</time></trkpt><trkpt lat="40.802635" lon="15.9666217"><ele>549.25</ele><time>2026-05-02T16:37:22.702Z</time></trkpt><trkpt lat="40.8025733" lon="15.9668033"><ele>545.5</ele><time>2026-05-02T16:37:23.701Z</time></trkpt><trkpt lat="40.802505" lon="15.96697"><ele>541.75</ele><time>2026-05-02T16:37:24.701Z</time></trkpt><trkpt lat="40.802435" lon="15.967115"><ele>538.0</ele><time>2026-05-02T16:37:25.7Z</time></trkpt><trkpt lat="40.8023567" lon="15.96724"><ele>538.0</ele><time>2026-05-02T16:37:26.703Z</time></trkpt><trkpt lat="40.8022617" lon="15.9673533"><ele>538.0</ele><time>2026-05-02T16:37:27.701Z</time></trkpt><trkpt lat="40.8021533" lon="15.9674517"><ele>538.0</ele><time>2026-05-02T16:37:28.7Z</time></trkpt><trkpt lat="40.8020417" lon="15.9675333"><ele>538.0</ele><time>2026-05-02T16:37:29.702Z</time></trkpt><trkpt lat="40.8019417" lon="15.9676133"><ele>535.75</ele><time>2026-05-02T16:37:30.701Z</time></trkpt><trkpt lat="40.801855" lon="15.9677067"><ele>533.5</ele><time>2026-05-02T16:37:31.7Z</time></trkpt><trkpt lat="40.8017817" lon="15.9678133"><ele>531.25</ele><time>2026-05-02T16:37:32.703Z</time></trkpt><trkpt lat="40.8017267" lon="15.96794"><ele>529.0</ele><time>2026-05-02T16:37:33.7Z</time></trkpt><trkpt lat="40.8016883" lon="15.9680883"><ele>529.0</ele><time>2026-05-02T16:37:34.7Z</time></trkpt><trkpt lat="40.801665" lon="15.9682633"><ele>529.0</ele><time>2026-05-02T16:37:35.7Z</time></trkpt><trkpt lat="40.80166" lon="15.9684683"><ele>529.0</ele><time>2026-05-02T16:37:36.7Z</time></trkpt><trkpt lat="40.801665" lon="15.9686967"><ele>526.6666666666667</ele><time>2026-05-02T16:37:37.701Z</time></trkpt><trkpt lat="40.8016733" lon="15.9689383"><ele>524.3333333333334</ele><time>2026-05-02T16:37:38.702Z</time></trkpt><trkpt lat="40.8016883" lon="15.9691833"><ele>522.0</ele><time>2026-05-02T16:37:39.701Z</time></trkpt><trkpt lat="40.801705" lon="15.96943"><ele>519.6666666666666</ele><time>2026-05-02T16:37:40.702Z</time></trkpt><trkpt lat="40.8017217" lon="15.9696783"><ele>517.3333333333333</ele><time>2026-05-02T16:37:41.7Z</time></trkpt><trkpt lat="40.8017383" lon="15.9699267"><ele>515.0</ele><time>2026-05-02T16:37:42.702Z</time></trkpt><trkpt lat="40.80175" lon="15.970175"><ele>513.3333333333333</ele><time>2026-05-02T16:37:43.701Z</time></trkpt><trkpt lat="40.801765" lon="15.9704267"><ele>511.66666666666663</ele><time>2026-05-02T16:37:44.702Z</time></trkpt><trkpt lat="40.8017783" lon="15.97068"><ele>510.0</ele><time>2026-05-02T16:37:45.7Z</time></trkpt><trkpt lat="40.8017917" lon="15.9709333"><ele>509.33333333333337</ele><time>2026-05-02T16:37:46.701Z</time></trkpt><trkpt lat="40.8018067" lon="15.9711883"><ele>508.6666666666667</ele><time>2026-05-02T16:37:47.703Z</time></trkpt><trkpt lat="40.8018233" lon="15.9714433"><ele>508.0</ele><time>2026-05-02T16:37:48.701Z</time></trkpt><trkpt lat="40.8018367" lon="15.9716933"><ele>499.6666666666667</ele><time>2026-05-02T16:37:49.702Z</time></trkpt><trkpt lat="40.80185" lon="15.9719383"><ele>491.33333333333337</ele><time>2026-05-02T16:37:50.701Z</time></trkpt><trkpt lat="40.8018617" lon="15.9721733"><ele>483.0</ele><time>2026-05-02T16:37:51.701Z</time></trkpt><trkpt lat="40.8018767" lon="15.9724033"><ele>481.33333333333337</ele><time>2026-05-02T16:37:52.7Z</time></trkpt><trkpt lat="40.8018917" lon="15.9726317"><ele>479.6666666666667</ele><time>2026-05-02T16:37:53.702Z</time></trkpt><trkpt lat="40.8019033" lon="15.97285"><ele>478.0</ele><time>2026-05-02T16:37:54.701Z</time></trkpt><trkpt lat="40.8019133" lon="15.97306"><ele>478.0</ele><time>2026-05-02T16:37:55.701Z</time></trkpt><trkpt lat="40.80192" lon="15.973265"><ele>478.0</ele><time>2026-05-02T16:37:56.702Z</time></trkpt><trkpt lat="40.8019267" lon="15.97346"><ele>478.0</ele><time>2026-05-02T16:37:57.701Z</time></trkpt><trkpt lat="40.801925" lon="15.9736367"><ele>478.0</ele><time>2026-05-02T16:37:58.701Z</time></trkpt><trkpt lat="40.8019183" lon="15.9737883"><ele>477.50000000000006</ele><time>2026-05-02T16:37:59.701Z</time></trkpt><trkpt lat="40.80191" lon="15.9739183"><ele>477.0</ele><time>2026-05-02T16:38:00.701Z</time></trkpt><trkpt lat="40.801905" lon="15.9740333"><ele>476.5</ele><time>2026-05-02T16:38:01.7Z</time></trkpt><trkpt lat="40.8019133" lon="15.97414"><ele>476.0</ele><time>2026-05-02T16:38:02.701Z</time></trkpt><trkpt lat="40.8019417" lon="15.97424"><ele>475.50000000000006</ele><time>2026-05-02T16:38:03.701Z</time></trkpt><trkpt lat="40.8019817" lon="15.9743217"><ele>475.0</ele><time>2026-05-02T16:38:04.7Z</time></trkpt><trkpt lat="40.8020333" lon="15.9743767"><ele>475.0</ele><time>2026-05-02T16:38:05.701Z</time></trkpt><trkpt lat="40.8021" lon="15.9743917"><ele>475.0</ele><time>2026-05-02T16:38:06.7Z</time></trkpt><trkpt lat="40.8021867" lon="15.9743283"><ele>475.0</ele><time>2026-05-02T16:38:07.701Z</time></trkpt><trkpt lat="40.8022667" lon="15.9742483"><ele>475.0</ele><time>2026-05-02T16:38:08.701Z</time></trkpt><trkpt lat="40.8023483" lon="15.9741367"><ele>475.0</ele><time>2026-05-02T16:38:09.701Z</time></trkpt><trkpt lat="40.8024383" lon="15.9740083"><ele>475.0</ele><time>2026-05-02T16:38:10.702Z</time></trkpt><trkpt lat="40.8025333" lon="15.9738783"><ele>475.0</ele><time>2026-05-02T16:38:11.7Z</time></trkpt><trkpt lat="40.8026333" lon="15.97375"><ele>475.0</ele><time>2026-05-02T16:38:12.701Z</time></trkpt><trkpt lat="40.802735" lon="15.9736217"><ele>475.0</ele><time>2026-05-02T16:38:13.701Z</time></trkpt><trkpt lat="40.8028367" lon="15.9734933"><ele>472.75</ele><time>2026-05-02T16:38:14.701Z</time></trkpt><trkpt lat="40.802935" lon="15.9733633"><ele>470.5</ele><time>2026-05-02T16:38:15.7Z</time></trkpt><trkpt lat="40.8030267" lon="15.9732283"><ele>468.25</ele><time>2026-05-02T16:38:16.701Z</time></trkpt><trkpt lat="40.8031083" lon="15.9730833"><ele>466.0</ele><time>2026-05-02T16:38:17.701Z</time></trkpt><trkpt lat="40.80318" lon="15.97292"><ele>466.0</ele><time>2026-05-02T16:38:18.702Z</time></trkpt><trkpt lat="40.8032417" lon="15.9727517"><ele>466.0</ele><time>2026-05-02T16:38:19.701Z</time></trkpt><trkpt lat="40.803295" lon="15.9725933"><ele>466.0</ele><time>2026-05-02T16:38:20.701Z</time></trkpt><trkpt lat="40.8033517" lon="15.9724517"><ele>466.0</ele><time>2026-05-02T16:38:21.701Z</time></trkpt><trkpt lat="40.803415" lon="15.9723267"><ele>466.25</ele><time>2026-05-02T16:38:22.702Z</time></trkpt><trkpt lat="40.803495" lon="15.97222"><ele>466.5</ele><time>2026-05-02T16:38:23.701Z</time></trkpt><trkpt lat="40.803595" lon="15.9721333"><ele>466.75</ele><time>2026-05-02T16:38:24.701Z</time></trkpt><trkpt lat="40.8037117" lon="15.972055"><ele>467.0</ele><time>2026-05-02T16:38:25.702Z</time></trkpt><trkpt lat="40.8038317" lon="15.9719633"><ele>465.25</ele><time>2026-05-02T16:38:26.702Z</time></trkpt><trkpt lat="40.8039517" lon="15.9718417"><ele>463.5</ele><time>2026-05-02T16:38:27.701Z</time></trkpt><trkpt lat="40.8040583" lon="15.9717083"><ele>461.75</ele><time>2026-05-02T16:38:28.7Z</time></trkpt><trkpt lat="40.80415" lon="15.9715817"><ele>460.0</ele><time>2026-05-02T16:38:29.702Z</time></trkpt><trkpt lat="40.8042367" lon="15.9714667"><ele>460.00000000000006</ele><time>2026-05-02T16:38:30.702Z</time></trkpt><trkpt lat="40.8043167" lon="15.9713683"><ele>460.0</ele><time>2026-05-02T16:38:31.702Z</time></trkpt><trkpt lat="40.8043883" lon="15.97129"><ele>460.0</ele><time>2026-05-02T16:38:32.702Z</time></trkpt><trkpt lat="40.8044483" lon="15.9712333"><ele>460.0</ele><time>2026-05-02T16:38:33.701Z</time></trkpt><trkpt lat="40.8045083" lon="15.9712"><ele>460.00000000000006</ele><time>2026-05-02T16:38:34.702Z</time></trkpt><trkpt lat="40.8045767" lon="15.9711983"><ele>460.0</ele><time>2026-05-02T16:38:35.701Z</time></trkpt><trkpt lat="40.8046483" lon="15.9712317"><ele>457.2</ele><time>2026-05-02T16:38:36.7Z</time></trkpt><trkpt lat="40.8047167" lon="15.9712983"><ele>454.4</ele><time>2026-05-02T16:38:37.7Z</time></trkpt><trkpt lat="40.8047733" lon="15.9713933"><ele>451.6</ele><time>2026-05-02T16:38:38.702Z</time></trkpt><trkpt lat="40.8048083" lon="15.9715183"><ele>448.8</ele><time>2026-05-02T16:38:39.701Z</time></trkpt><trkpt lat="40.8048333" lon="15.971665"><ele>446.0</ele><time>2026-05-02T16:38:40.702Z</time></trkpt><trkpt lat="40.8048583" lon="15.9718317"><ele>445.5</ele><time>2026-05-02T16:38:41.702Z</time></trkpt><trkpt lat="40.8048867" lon="15.972015"><ele>445.0</ele><time>2026-05-02T16:38:42.703Z</time></trkpt><trkpt lat="40.8049183" lon="15.972205"><ele>444.5</ele><time>2026-05-02T16:38:43.701Z</time></trkpt><trkpt lat="40.804945" lon="15.972385"><ele>444.0</ele><time>2026-05-02T16:38:44.702Z</time></trkpt><trkpt lat="40.804965" lon="15.97256"><ele>442.5</ele><time>2026-05-02T16:38:45.701Z</time></trkpt><trkpt lat="40.8049783" lon="15.9727417"><ele>441.0</ele><time>2026-05-02T16:38:46.702Z</time></trkpt><trkpt lat="40.80498" lon="15.9729267"><ele>439.5</ele><time>2026-05-02T16:38:47.703Z</time></trkpt><trkpt lat="40.804965" lon="15.9731083"><ele>438.0</ele><time>2026-05-02T16:38:48.702Z</time></trkpt><trkpt lat="40.80493" lon="15.973285"><ele>435.5</ele><time>2026-05-02T16:38:49.701Z</time></trkpt><trkpt lat="40.804875" lon="15.9734517"><ele>433.0</ele><time>2026-05-02T16:38:50.703Z</time></trkpt><trkpt lat="40.80481" lon="15.9736067"><ele>430.5</ele><time>2026-05-02T16:38:51.702Z</time></trkpt><trkpt lat="40.80475" lon="15.9737567"><ele>428.0</ele><time>2026-05-02T16:38:52.703Z</time></trkpt><trkpt lat="40.8047017" lon="15.973905"><ele>428.0</ele><time>2026-05-02T16:38:53.702Z</time></trkpt><trkpt lat="40.8046683" lon="15.9740533"><ele>428.0</ele><time>2026-05-02T16:38:54.701Z</time></trkpt><trkpt lat="40.8046567" lon="15.9742017"><ele>428.0</ele><time>2026-05-02T16:38:55.702Z</time></trkpt><trkpt lat="40.8046683" lon="15.9743533"><ele>428.0</ele><time>2026-05-02T16:38:56.702Z</time></trkpt><trkpt lat="40.804695" lon="15.97451"><ele>427.25</ele><time>2026-05-02T16:38:57.701Z</time></trkpt><trkpt lat="40.804725" lon="15.97468"><ele>426.5</ele><time>2026-05-02T16:38:58.701Z</time></trkpt><trkpt lat="40.804755" lon="15.9748633"><ele>425.75</ele><time>2026-05-02T16:38:59.702Z</time></trkpt><trkpt lat="40.8047883" lon="15.975055"><ele>425.0</ele><time>2026-05-02T16:39:00.701Z</time></trkpt><trkpt lat="40.804825" lon="15.9752567"><ele>425.0</ele><time>2026-05-02T16:39:01.701Z</time></trkpt><trkpt lat="40.8048633" lon="15.9754633"><ele>425.0</ele><time>2026-05-02T16:39:02.702Z</time></trkpt><trkpt lat="40.8049017" lon="15.9756767"><ele>425.0</ele><time>2026-05-02T16:39:03.702Z</time></trkpt><trkpt lat="40.8049417" lon="15.975895"><ele>423.0</ele><time>2026-05-02T16:39:04.701Z</time></trkpt><trkpt lat="40.8049833" lon="15.9761133"><ele>421.0</ele><time>2026-05-02T16:39:05.702Z</time></trkpt><trkpt lat="40.8050233" lon="15.9763317"><ele>419.0</ele><time>2026-05-02T16:39:06.702Z</time></trkpt><trkpt lat="40.805065" lon="15.9765483"><ele>418.0</ele><time>2026-05-02T16:39:07.702Z</time></trkpt><trkpt lat="40.8051067" lon="15.97676"><ele>417.0</ele><time>2026-05-02T16:39:08.703Z</time></trkpt><trkpt lat="40.8051483" lon="15.9769633"><ele>416.0</ele><time>2026-05-02T16:39:09.701Z</time></trkpt><trkpt lat="40.805185" lon="15.9771617"><ele>413.0</ele><time>2026-05-02T16:39:10.702Z</time></trkpt><trkpt lat="40.80522" lon="15.9773533"><ele>410.0</ele><time>2026-05-02T16:39:11.701Z</time></trkpt><trkpt lat="40.8052533" lon="15.9775333"><ele>407.0</ele><time>2026-05-02T16:39:12.701Z</time></trkpt><trkpt lat="40.805285" lon="15.9777017"><ele>404.0</ele><time>2026-05-02T16:39:13.702Z</time></trkpt><trkpt lat="40.8053117" lon="15.977855"><ele>402.99999999999994</ele><time>2026-05-02T16:39:14.704Z</time></trkpt><trkpt lat="40.8053383" lon="15.9779933"><ele>402.0</ele><time>2026-05-02T16:39:15.702Z</time></trkpt><trkpt lat="40.8053633" lon="15.9781183"><ele>401.0</ele><time>2026-05-02T16:39:16.702Z</time></trkpt><trkpt lat="40.8053917" lon="15.978225"><ele>400.0</ele><time>2026-05-02T16:39:17.702Z</time></trkpt><trkpt lat="40.805425" lon="15.9783117"><ele>398.99999999999994</ele><time>2026-05-02T16:39:18.701Z</time></trkpt><trkpt lat="40.8054783" lon="15.9783733"><ele>398.0</ele><time>2026-05-02T16:39:19.703Z</time></trkpt><trkpt lat="40.8055483" lon="15.978405"><ele>398.0</ele><time>2026-05-02T16:39:20.702Z</time></trkpt><trkpt lat="40.805625" lon="15.97841"><ele>398.0</ele><time>2026-05-02T16:39:21.702Z</time></trkpt><trkpt lat="40.8057133" lon="15.9783833"><ele>398.0</ele><time>2026-05-02T16:39:22.702Z</time></trkpt><trkpt lat="40.8058083" lon="15.978325"><ele>398.0</ele><time>2026-05-02T16:39:23.703Z</time></trkpt><trkpt lat="40.8059083" lon="15.978245"><ele>398.0</ele><time>2026-05-02T16:39:24.701Z</time></trkpt><trkpt lat="40.8060083" lon="15.97816"><ele>396.5</ele><time>2026-05-02T16:39:25.702Z</time></trkpt><trkpt lat="40.8061117" lon="15.9780783"><ele>395.0</ele><time>2026-05-02T16:39:26.703Z</time></trkpt><trkpt lat="40.8062233" lon="15.9780117"><ele>393.5</ele><time>2026-05-02T16:39:27.702Z</time></trkpt><trkpt lat="40.806345" lon="15.977965"><ele>392.0</ele><time>2026-05-02T16:39:28.702Z</time></trkpt><trkpt lat="40.8064833" lon="15.97794"><ele>392.0</ele><time>2026-05-02T16:39:29.702Z</time></trkpt><trkpt lat="40.8066333" lon="15.97794"><ele>392.0</ele><time>2026-05-02T16:39:30.701Z</time></trkpt><trkpt lat="40.8067917" lon="15.977965"><ele>392.0</ele><time>2026-05-02T16:39:31.703Z</time></trkpt><trkpt lat="40.8069517" lon="15.9780067"><ele>390.3333333333333</ele><time>2026-05-02T16:39:32.702Z</time></trkpt><trkpt lat="40.8071083" lon="15.9780583"><ele>388.66666666666663</ele><time>2026-05-02T16:39:33.703Z</time></trkpt><trkpt lat="40.8072583" lon="15.978115"><ele>387.0</ele><time>2026-05-02T16:39:34.701Z</time></trkpt><trkpt lat="40.8074" lon="15.97817"><ele>387.0</ele><time>2026-05-02T16:39:35.703Z</time></trkpt><trkpt lat="40.8075333" lon="15.97822"><ele>387.0</ele><time>2026-05-02T16:39:36.701Z</time></trkpt><trkpt lat="40.807655" lon="15.9782683"><ele>387.0</ele><time>2026-05-02T16:39:37.703Z</time></trkpt><trkpt lat="40.80776" lon="15.9783183"><ele>387.0</ele><time>2026-05-02T16:39:38.702Z</time></trkpt><trkpt lat="40.8078383" lon="15.9783817"><ele>385.8</ele><time>2026-05-02T16:39:39.701Z</time></trkpt><trkpt lat="40.807895" lon="15.9784633"><ele>384.6</ele><time>2026-05-02T16:39:40.702Z</time></trkpt><trkpt lat="40.8079317" lon="15.9785683"><ele>383.40000000000003</ele><time>2026-05-02T16:39:41.701Z</time></trkpt><trkpt lat="40.8079533" lon="15.9787083"><ele>382.20000000000005</ele><time>2026-05-02T16:39:42.704Z</time></trkpt><trkpt lat="40.807965" lon="15.9788733"><ele>381.0</ele><time>2026-05-02T16:39:43.701Z</time></trkpt><trkpt lat="40.8079833" lon="15.9790583"><ele>379.3333333333333</ele><time>2026-05-02T16:39:44.702Z</time></trkpt><trkpt lat="40.8080083" lon="15.9792633"><ele>377.66666666666663</ele><time>2026-05-02T16:39:45.701Z</time></trkpt><trkpt lat="40.808035" lon="15.979485"><ele>376.0</ele><time>2026-05-02T16:39:46.702Z</time></trkpt><trkpt lat="40.80806" lon="15.979705"><ele>376.0</ele><time>2026-05-02T16:39:47.701Z</time></trkpt><trkpt lat="40.8080833" lon="15.97992"><ele>376.0</ele><time>2026-05-02T16:39:48.701Z</time></trkpt><trkpt lat="40.8081117" lon="15.9801417"><ele>376.0</ele><time>2026-05-02T16:39:49.703Z</time></trkpt><trkpt lat="40.8081417" lon="15.98037"><ele>376.3333333333333</ele><time>2026-05-02T16:39:50.702Z</time></trkpt><trkpt lat="40.8081733" lon="15.980605"><ele>376.6666666666667</ele><time>2026-05-02T16:39:51.701Z</time></trkpt><trkpt lat="40.8082017" lon="15.9808433"><ele>377.0</ele><time>2026-05-02T16:39:52.703Z</time></trkpt><trkpt lat="40.8082333" lon="15.981085"><ele>375.6666666666667</ele><time>2026-05-02T16:39:53.703Z</time></trkpt><trkpt lat="40.808265" lon="15.9813283"><ele>374.3333333333333</ele><time>2026-05-02T16:39:54.702Z</time></trkpt><trkpt lat="40.8082983" lon="15.9815683"><ele>373.0</ele><time>2026-05-02T16:39:55.703Z</time></trkpt><trkpt lat="40.8083283" lon="15.9818"><ele>372.66666666666663</ele><time>2026-05-02T16:39:56.704Z</time></trkpt><trkpt lat="40.8083583" lon="15.98202"><ele>372.3333333333333</ele><time>2026-05-02T16:39:57.701Z</time></trkpt><trkpt lat="40.808385" lon="15.982235"><ele>372.0</ele><time>2026-05-02T16:39:58.701Z</time></trkpt><trkpt lat="40.8084117" lon="15.982445"><ele>372.0</ele><time>2026-05-02T16:39:59.701Z</time></trkpt><trkpt lat="40.80844" lon="15.98265"><ele>372.0</ele><time>2026-05-02T16:40:00.701Z</time></trkpt><trkpt lat="40.8084717" lon="15.982855"><ele>372.0</ele><time>2026-05-02T16:40:01.702Z</time></trkpt><trkpt lat="40.8085017" lon="15.98305"><ele>372.0</ele><time>2026-05-02T16:40:02.703Z</time></trkpt><trkpt lat="40.8085317" lon="15.98324"><ele>372.0</ele><time>2026-05-02T16:40:03.701Z</time></trkpt><trkpt lat="40.8085667" lon="15.98342"><ele>372.0</ele><time>2026-05-02T16:40:04.702Z</time></trkpt><trkpt lat="40.8086" lon="15.9835883"><ele>372.0</ele><time>2026-05-02T16:40:05.702Z</time></trkpt><trkpt lat="40.8086367" lon="15.9837467"><ele>372.0</ele><time>2026-05-02T16:40:06.701Z</time></trkpt><trkpt lat="40.808675" lon="15.9839017"><ele>372.0</ele><time>2026-05-02T16:40:07.701Z</time></trkpt><trkpt lat="40.808715" lon="15.984055"><ele>372.0</ele><time>2026-05-02T16:40:08.703Z</time></trkpt><trkpt lat="40.808755" lon="15.9842117"><ele>372.0</ele><time>2026-05-02T16:40:09.701Z</time></trkpt><trkpt lat="40.80879" lon="15.98437"><ele>372.5</ele><time>2026-05-02T16:40:10.702Z</time></trkpt><trkpt lat="40.8088233" lon="15.9845317"><ele>373.0</ele><time>2026-05-02T16:40:11.704Z</time></trkpt><trkpt lat="40.808855" lon="15.9846983"><ele>373.5</ele><time>2026-05-02T16:40:12.701Z</time></trkpt><trkpt lat="40.808885" lon="15.9848717"><ele>374.0</ele><time>2026-05-02T16:40:13.701Z</time></trkpt><trkpt lat="40.8089167" lon="15.98506"><ele>372.6666666666667</ele><time>2026-05-02T16:40:14.702Z</time></trkpt><trkpt lat="40.808955" lon="15.98526"><ele>371.3333333333333</ele><time>2026-05-02T16:40:15.702Z</time></trkpt><trkpt lat="40.808995" lon="15.985475"><ele>370.0</ele><time>2026-05-02T16:40:16.702Z</time></trkpt><trkpt lat="40.8090383" lon="15.9856967"><ele>369.25</ele><time>2026-05-02T16:40:17.701Z</time></trkpt><trkpt lat="40.8090817" lon="15.9859033"><ele>368.5</ele><time>2026-05-02T16:40:18.701Z</time></trkpt><trkpt lat="40.8091217" lon="15.9860883"><ele>367.75</ele><time>2026-05-02T16:40:19.702Z</time></trkpt><trkpt lat="40.8091667" lon="15.9862567"><ele>367.0</ele><time>2026-05-02T16:40:20.702Z</time></trkpt><trkpt lat="40.8092067" lon="15.9864067"><ele>367.0</ele><time>2026-05-02T16:40:21.701Z</time></trkpt><trkpt lat="40.80924" lon="15.9865333"><ele>367.0</ele><time>2026-05-02T16:40:22.701Z</time></trkpt><trkpt lat="40.8092667" lon="15.9866383"><ele>367.0</ele><time>2026-05-02T16:40:23.702Z</time></trkpt><trkpt lat="40.80928" lon="15.986775"><ele>367.0</ele><time>2026-05-02T16:40:25.702Z</time></trkpt><trkpt lat="40.8092233" lon="15.98685"><ele>367.0</ele><time>2026-05-02T16:40:27.702Z</time></trkpt><trkpt lat="40.809115" lon="15.98686"><ele>367.0</ele><time>2026-05-02T16:40:29.702Z</time></trkpt><trkpt lat="40.8090383" lon="15.9868333"><ele>367.0</ele><time>2026-05-02T16:40:30.701Z</time></trkpt><trkpt lat="40.80895" lon="15.9867867"><ele>367.0</ele><time>2026-05-02T16:40:31.703Z</time></trkpt><trkpt lat="40.8088433" lon="15.9867233"><ele>367.0</ele><time>2026-05-02T16:40:32.703Z</time></trkpt><trkpt lat="40.80872" lon="15.9866483"><ele>367.0</ele><time>2026-05-02T16:40:33.702Z</time></trkpt><trkpt lat="40.8085867" lon="15.986565"><ele>365.3333333333333</ele><time>2026-05-02T16:40:34.701Z</time></trkpt><trkpt lat="40.8084367" lon="15.9864733"><ele>363.6666666666667</ele><time>2026-05-02T16:40:35.702Z</time></trkpt><trkpt lat="40.8082767" lon="15.9863733"><ele>362.0</ele><time>2026-05-02T16:40:36.702Z</time></trkpt><trkpt lat="40.8081183" lon="15.9862767"><ele>362.0</ele><time>2026-05-02T16:40:37.702Z</time></trkpt><trkpt lat="40.8079717" lon="15.9861833"><ele>362.0</ele><time>2026-05-02T16:40:38.704Z</time></trkpt><trkpt lat="40.8078333" lon="15.986095"><ele>362.0</ele><time>2026-05-02T16:40:39.701Z</time></trkpt><trkpt lat="40.8077017" lon="15.9860117"><ele>362.0</ele><time>2026-05-02T16:40:40.701Z</time></trkpt><trkpt lat="40.807575" lon="15.985935"><ele>362.0</ele><time>2026-05-02T16:40:41.703Z</time></trkpt><trkpt lat="40.8074533" lon="15.9858633"><ele>362.0</ele><time>2026-05-02T16:40:42.701Z</time></trkpt><trkpt lat="40.8073367" lon="15.9858017"><ele>362.0</ele><time>2026-05-02T16:40:43.701Z</time></trkpt><trkpt lat="40.80722" lon="15.985765"><ele>362.0</ele><time>2026-05-02T16:40:44.703Z</time></trkpt><trkpt lat="40.8071017" lon="15.9857583"><ele>362.0</ele><time>2026-05-02T16:40:45.702Z</time></trkpt><trkpt lat="40.8069817" lon="15.9857783"><ele>362.0</ele><time>2026-05-02T16:40:46.703Z</time></trkpt><trkpt lat="40.806865" lon="15.9858217"><ele>362.0</ele><time>2026-05-02T16:40:47.702Z</time></trkpt><trkpt lat="40.8067517" lon="15.9858917"><ele>360.5</ele><time>2026-05-02T16:40:48.701Z</time></trkpt><trkpt lat="40.8066383" lon="15.9859883"><ele>359.0</ele><time>2026-05-02T16:40:49.702Z</time></trkpt><trkpt lat="40.806525" lon="15.9861033"><ele>357.5</ele><time>2026-05-02T16:40:50.702Z</time></trkpt><trkpt lat="40.806405" lon="15.9862267"><ele>356.0</ele><time>2026-05-02T16:40:51.702Z</time></trkpt><trkpt lat="40.80628" lon="15.9863517"><ele>356.0</ele><time>2026-05-02T16:40:52.703Z</time></trkpt><trkpt lat="40.8061517" lon="15.9864817"><ele>356.0</ele><time>2026-05-02T16:40:53.701Z</time></trkpt><trkpt lat="40.8060233" lon="15.9866167"><ele>356.0</ele><time>2026-05-02T16:40:54.701Z</time></trkpt><trkpt lat="40.805895" lon="15.9867483"><ele>354.6666666666667</ele><time>2026-05-02T16:40:55.703Z</time></trkpt><trkpt lat="40.80577" lon="15.9868783"><ele>353.3333333333333</ele><time>2026-05-02T16:40:56.702Z</time></trkpt><trkpt lat="40.8056483" lon="15.9870017"><ele>352.0</ele><time>2026-05-02T16:40:57.702Z</time></trkpt><trkpt lat="40.805525" lon="15.987125"><ele>352.0</ele><time>2026-05-02T16:40:58.703Z</time></trkpt><trkpt lat="40.805395" lon="15.9872483"><ele>352.0</ele><time>2026-05-02T16:40:59.702Z</time></trkpt><trkpt lat="40.8052567" lon="15.9873717"><ele>352.0</ele><time>2026-05-02T16:41:00.703Z</time></trkpt><trkpt lat="40.8051117" lon="15.9874917"><ele>351.3333333333333</ele><time>2026-05-02T16:41:01.701Z</time></trkpt><trkpt lat="40.8049583" lon="15.9876083"><ele>350.6666666666667</ele><time>2026-05-02T16:41:02.703Z</time></trkpt><trkpt lat="40.8048" lon="15.9877267"><ele>350.0</ele><time>2026-05-02T16:41:03.702Z</time></trkpt><trkpt lat="40.8046367" lon="15.9878467"><ele>350.0</ele><time>2026-05-02T16:41:04.702Z</time></trkpt><trkpt lat="40.8044733" lon="15.9879667"><ele>350.0</ele><time>2026-05-02T16:41:05.702Z</time></trkpt><trkpt lat="40.8043067" lon="15.9880883"><ele>350.0</ele><time>2026-05-02T16:41:06.701Z</time></trkpt><trkpt lat="40.80414" lon="15.9882133"><ele>350.6666666666667</ele><time>2026-05-02T16:41:07.702Z</time></trkpt><trkpt lat="40.803975" lon="15.9883367"><ele>351.3333333333333</ele><time>2026-05-02T16:41:08.703Z</time></trkpt><trkpt lat="40.8038133" lon="15.9884633"><ele>352.0</ele><time>2026-05-02T16:41:09.703Z</time></trkpt><trkpt lat="40.8036533" lon="15.9885867"><ele>350.66666666666663</ele><time>2026-05-02T16:41:10.703Z</time></trkpt><trkpt lat="40.8034917" lon="15.9887083"><ele>349.3333333333333</ele><time>2026-05-02T16:41:11.702Z</time></trkpt><trkpt lat="40.8033383" lon="15.988835"><ele>348.0</ele><time>2026-05-02T16:41:12.702Z</time></trkpt><trkpt lat="40.8031933" lon="15.9889683"><ele>348.0</ele><time>2026-05-02T16:41:13.701Z</time></trkpt><trkpt lat="40.8030483" lon="15.9891117"><ele>348.0</ele><time>2026-05-02T16:41:14.702Z</time></trkpt><trkpt lat="40.8029017" lon="15.9892517"><ele>348.0</ele><time>2026-05-02T16:41:15.701Z</time></trkpt><trkpt lat="40.8027517" lon="15.9893883"><ele>346.3333333333333</ele><time>2026-05-02T16:41:16.701Z</time></trkpt><trkpt lat="40.8025967" lon="15.9895167"><ele>344.66666666666663</ele><time>2026-05-02T16:41:17.701Z</time></trkpt><trkpt lat="40.802445" lon="15.9896333"><ele>343.0</ele><time>2026-05-02T16:41:18.702Z</time></trkpt><trkpt lat="40.8022917" lon="15.9897467"><ele>343.0</ele><time>2026-05-02T16:41:19.702Z</time></trkpt><trkpt lat="40.80214" lon="15.9898583"><ele>343.0</ele><time>2026-05-02T16:41:20.702Z</time></trkpt><trkpt lat="40.8019917" lon="15.989965"><ele>343.0</ele><time>2026-05-02T16:41:21.702Z</time></trkpt><trkpt lat="40.8018483" lon="15.9900683"><ele>341.0</ele><time>2026-05-02T16:41:22.703Z</time></trkpt><trkpt lat="40.8017083" lon="15.9901667"><ele>339.0</ele><time>2026-05-02T16:41:23.703Z</time></trkpt><trkpt lat="40.80157" lon="15.9902583"><ele>337.0</ele><time>2026-05-02T16:41:24.704Z</time></trkpt><trkpt lat="40.801425" lon="15.99034"><ele>337.0</ele><time>2026-05-02T16:41:25.703Z</time></trkpt><trkpt lat="40.80127" lon="15.99041"><ele>337.0</ele><time>2026-05-02T16:41:26.703Z</time></trkpt><trkpt lat="40.8011067" lon="15.990475"><ele>337.0</ele><time>2026-05-02T16:41:27.703Z</time></trkpt><trkpt lat="40.80094" lon="15.9905383"><ele>334.0</ele><time>2026-05-02T16:41:28.703Z</time></trkpt><trkpt lat="40.800775" lon="15.9906017"><ele>331.0</ele><time>2026-05-02T16:41:29.703Z</time></trkpt><trkpt lat="40.8006133" lon="15.990665"><ele>328.0</ele><time>2026-05-02T16:41:30.702Z</time></trkpt><trkpt lat="40.8004567" lon="15.9907267"><ele>328.0</ele><time>2026-05-02T16:41:31.701Z</time></trkpt><trkpt lat="40.8003083" lon="15.9907867"><ele>328.0</ele><time>2026-05-02T16:41:32.704Z</time></trkpt><trkpt lat="40.8001617" lon="15.990845"><ele>328.0</ele><time>2026-05-02T16:41:33.703Z</time></trkpt><trkpt lat="40.80002" lon="15.9909"><ele>327.25</ele><time>2026-05-02T16:41:34.701Z</time></trkpt><trkpt lat="40.79989" lon="15.990945"><ele>326.5</ele><time>2026-05-02T16:41:35.702Z</time></trkpt><trkpt lat="40.7997717" lon="15.9909883"><ele>325.75</ele><time>2026-05-02T16:41:36.701Z</time></trkpt><trkpt lat="40.7996617" lon="15.9910417"><ele>325.0</ele><time>2026-05-02T16:41:37.702Z</time></trkpt><trkpt lat="40.7995567" lon="15.9911067"><ele>325.0</ele><time>2026-05-02T16:41:38.702Z</time></trkpt><trkpt lat="40.7994583" lon="15.9911917"><ele>325.0</ele><time>2026-05-02T16:41:39.701Z</time></trkpt><trkpt lat="40.79937" lon="15.9912983"><ele>325.0</ele><time>2026-05-02T16:41:40.702Z</time></trkpt><trkpt lat="40.7992917" lon="15.9914267"><ele>325.0</ele><time>2026-05-02T16:41:41.702Z</time></trkpt><trkpt lat="40.7992217" lon="15.9915733"><ele>325.0</ele><time>2026-05-02T16:41:42.701Z</time></trkpt><trkpt lat="40.7991533" lon="15.99173"><ele>325.0</ele><time>2026-05-02T16:41:43.702Z</time></trkpt><trkpt lat="40.7990867" lon="15.991885"><ele>325.0</ele><time>2026-05-02T16:41:44.705Z</time></trkpt><trkpt lat="40.799015" lon="15.992045"><ele>325.0</ele><time>2026-05-02T16:41:45.702Z</time></trkpt><trkpt lat="40.7989433" lon="15.9922083"><ele>325.0</ele><time>2026-05-02T16:41:46.701Z</time></trkpt><trkpt lat="40.7988683" lon="15.9923717"><ele>325.0</ele><time>2026-05-02T16:41:47.702Z</time></trkpt><trkpt lat="40.7987967" lon="15.9925317"><ele>325.0</ele><time>2026-05-02T16:41:48.702Z</time></trkpt><trkpt lat="40.7987233" lon="15.992695"><ele>325.0</ele><time>2026-05-02T16:41:49.702Z</time></trkpt><trkpt lat="40.79865" lon="15.9928583"><ele>324.75</ele><time>2026-05-02T16:41:50.703Z</time></trkpt><trkpt lat="40.79858" lon="15.99302"><ele>324.5</ele><time>2026-05-02T16:41:51.701Z</time></trkpt><trkpt lat="40.79852" lon="15.9931883"><ele>324.25</ele><time>2026-05-02T16:41:52.702Z</time></trkpt><trkpt lat="40.798475" lon="15.9933667"><ele>324.0</ele><time>2026-05-02T16:41:53.703Z</time></trkpt><trkpt lat="40.79844" lon="15.993555"><ele>325.0</ele><time>2026-05-02T16:41:54.703Z</time></trkpt><trkpt lat="40.7984133" lon="15.99375"><ele>326.0</ele><time>2026-05-02T16:41:55.702Z</time></trkpt><trkpt lat="40.7983967" lon="15.9939517"><ele>327.0</ele><time>2026-05-02T16:41:56.702Z</time></trkpt><trkpt lat="40.7983867" lon="15.9941583"><ele>326.6666666666667</ele><time>2026-05-02T16:41:57.701Z</time></trkpt><trkpt lat="40.798375" lon="15.9943733"><ele>326.33333333333337</ele><time>2026-05-02T16:41:58.702Z</time></trkpt><trkpt lat="40.7983617" lon="15.9945917"><ele>326.0</ele><time>2026-05-02T16:41:59.702Z</time></trkpt><trkpt lat="40.798355" lon="15.9948117"><ele>325.0</ele><time>2026-05-02T16:42:00.701Z</time></trkpt><trkpt lat="40.7983483" lon="15.99503"><ele>324.0</ele><time>2026-05-02T16:42:01.701Z</time></trkpt><trkpt lat="40.7983383" lon="15.99525"><ele>323.0</ele><time>2026-05-02T16:42:02.703Z</time></trkpt><trkpt lat="40.7983283" lon="15.9954717"><ele>323.0</ele><time>2026-05-02T16:42:03.702Z</time></trkpt><trkpt lat="40.7983183" lon="15.995695"><ele>323.0</ele><time>2026-05-02T16:42:04.702Z</time></trkpt><trkpt lat="40.79831" lon="15.9959217"><ele>323.0</ele><time>2026-05-02T16:42:05.701Z</time></trkpt><trkpt lat="40.7983" lon="15.9961533"><ele>323.0</ele><time>2026-05-02T16:42:06.702Z</time></trkpt><trkpt lat="40.79829" lon="15.996385"><ele>323.0</ele><time>2026-05-02T16:42:07.701Z</time></trkpt><trkpt lat="40.79828" lon="15.9966217"><ele>323.0</ele><time>2026-05-02T16:42:08.702Z</time></trkpt><trkpt lat="40.79827" lon="15.9968633"><ele>322.33333333333337</ele><time>2026-05-02T16:42:09.701Z</time></trkpt><trkpt lat="40.79826" lon="15.9971067"><ele>321.6666666666667</ele><time>2026-05-02T16:42:10.703Z</time></trkpt><trkpt lat="40.7982483" lon="15.9973533"><ele>321.0</ele><time>2026-05-02T16:42:11.702Z</time></trkpt><trkpt lat="40.7982367" lon="15.997605"><ele>321.0</ele><time>2026-05-02T16:42:12.703Z</time></trkpt><trkpt lat="40.7982267" lon="15.99786"><ele>321.0</ele><time>2026-05-02T16:42:13.701Z</time></trkpt><trkpt lat="40.798215" lon="15.998115"><ele>321.0</ele><time>2026-05-02T16:42:14.702Z</time></trkpt><trkpt lat="40.798205" lon="15.99837"><ele>320.6666666666667</ele><time>2026-05-02T16:42:15.701Z</time></trkpt><trkpt lat="40.798195" lon="15.998625"><ele>320.33333333333337</ele><time>2026-05-02T16:42:16.701Z</time></trkpt><trkpt lat="40.7981867" lon="15.99888"><ele>320.0</ele><time>2026-05-02T16:42:17.702Z</time></trkpt><trkpt lat="40.7981767" lon="15.999135"><ele>319.33333333333337</ele><time>2026-05-02T16:42:18.702Z</time></trkpt><trkpt lat="40.7981667" lon="15.9993883"><ele>318.6666666666667</ele><time>2026-05-02T16:42:19.702Z</time></trkpt><trkpt lat="40.7981567" lon="15.99964"><ele>318.0</ele><time>2026-05-02T16:42:20.703Z</time></trkpt><trkpt lat="40.798145" lon="15.999885"><ele>318.0</ele><time>2026-05-02T16:42:21.702Z</time></trkpt><trkpt lat="40.7981283" lon="16.0001283"><ele>318.0</ele><time>2026-05-02T16:42:22.701Z</time></trkpt><trkpt lat="40.7981083" lon="16.00037"><ele>318.0</ele><time>2026-05-02T16:42:23.703Z</time></trkpt><trkpt lat="40.7980867" lon="16.000615"><ele>317.0</ele><time>2026-05-02T16:42:24.701Z</time></trkpt><trkpt lat="40.79806" lon="16.00086"><ele>316.0</ele><time>2026-05-02T16:42:25.701Z</time></trkpt><trkpt lat="40.7980317" lon="16.0011033"><ele>315.0</ele><time>2026-05-02T16:42:26.702Z</time></trkpt><trkpt lat="40.7980033" lon="16.0013483"><ele>315.0</ele><time>2026-05-02T16:42:27.701Z</time></trkpt><trkpt lat="40.7979767" lon="16.00159"><ele>315.0</ele><time>2026-05-02T16:42:28.701Z</time></trkpt><trkpt lat="40.7979533" lon="16.0018217"><ele>315.0</ele><time>2026-05-02T16:42:29.701Z</time></trkpt><trkpt lat="40.79793" lon="16.0020433"><ele>315.0</ele><time>2026-05-02T16:42:30.702Z</time></trkpt><trkpt lat="40.7979117" lon="16.0022583"><ele>315.0</ele><time>2026-05-02T16:42:31.701Z</time></trkpt><trkpt lat="40.7979" lon="16.0024633"><ele>315.0</ele><time>2026-05-02T16:42:32.702Z</time></trkpt><trkpt lat="40.7979" lon="16.0026683"><ele>314.0</ele><time>2026-05-02T16:42:33.702Z</time></trkpt><trkpt lat="40.797915" lon="16.0028733"><ele>313.0</ele><time>2026-05-02T16:42:34.701Z</time></trkpt><trkpt lat="40.79795" lon="16.00308"><ele>312.0</ele><time>2026-05-02T16:42:35.702Z</time></trkpt><trkpt lat="40.7980017" lon="16.0032817"><ele>313.0</ele><time>2026-05-02T16:42:36.701Z</time></trkpt><trkpt lat="40.7980617" lon="16.0034833"><ele>314.0</ele><time>2026-05-02T16:42:37.702Z</time></trkpt><trkpt lat="40.798125" lon="16.003685"><ele>315.0</ele><time>2026-05-02T16:42:38.702Z</time></trkpt><trkpt lat="40.7981817" lon="16.0038817"><ele>315.0</ele><time>2026-05-02T16:42:39.702Z</time></trkpt><trkpt lat="40.7982367" lon="16.0040667"><ele>315.0</ele><time>2026-05-02T16:42:40.702Z</time></trkpt><trkpt lat="40.7982883" lon="16.0042467"><ele>315.0</ele><time>2026-05-02T16:42:41.702Z</time></trkpt><trkpt lat="40.79833" lon="16.004425"><ele>315.0</ele><time>2026-05-02T16:42:42.701Z</time></trkpt><trkpt lat="40.798355" lon="16.0046"><ele>315.75</ele><time>2026-05-02T16:42:43.701Z</time></trkpt><trkpt lat="40.798355" lon="16.0047683"><ele>316.5</ele><time>2026-05-02T16:42:44.703Z</time></trkpt><trkpt lat="40.7983267" lon="16.004935"><ele>317.25</ele><time>2026-05-02T16:42:45.701Z</time></trkpt><trkpt lat="40.7982783" lon="16.0051017"><ele>318.0</ele><time>2026-05-02T16:42:46.701Z</time></trkpt><trkpt lat="40.7982233" lon="16.0052817"><ele>318.0</ele><time>2026-05-02T16:42:47.701Z</time></trkpt><trkpt lat="40.7981733" lon="16.0054733"><ele>318.0</ele><time>2026-05-02T16:42:48.701Z</time></trkpt><trkpt lat="40.7981367" lon="16.0056817"><ele>318.0</ele><time>2026-05-02T16:42:49.702Z</time></trkpt><trkpt lat="40.7981117" lon="16.0059017"><ele>317.6666666666667</ele><time>2026-05-02T16:42:50.703Z</time></trkpt><trkpt lat="40.7980917" lon="16.0061267"><ele>317.33333333333337</ele><time>2026-05-02T16:42:51.701Z</time></trkpt><trkpt lat="40.7980717" lon="16.0063483"><ele>317.0</ele><time>2026-05-02T16:42:52.701Z</time></trkpt><trkpt lat="40.7980533" lon="16.0065717"><ele>316.6666666666667</ele><time>2026-05-02T16:42:53.702Z</time></trkpt><trkpt lat="40.798035" lon="16.0067983"><ele>316.3333333333333</ele><time>2026-05-02T16:42:54.702Z</time></trkpt><trkpt lat="40.7980167" lon="16.007025"><ele>316.0</ele><time>2026-05-02T16:42:55.702Z</time></trkpt><trkpt lat="40.7979983" lon="16.00725"><ele>316.0</ele><time>2026-05-02T16:42:56.703Z</time></trkpt><trkpt lat="40.7979817" lon="16.007475"><ele>316.0</ele><time>2026-05-02T16:42:57.701Z</time></trkpt><trkpt lat="40.79796" lon="16.0076983"><ele>316.0</ele><time>2026-05-02T16:42:58.701Z</time></trkpt><trkpt lat="40.7979333" lon="16.007925"><ele>315.3333333333333</ele><time>2026-05-02T16:42:59.702Z</time></trkpt><trkpt lat="40.7978967" lon="16.008155"><ele>314.6666666666667</ele><time>2026-05-02T16:43:00.701Z</time></trkpt><trkpt lat="40.7978467" lon="16.0083917"><ele>314.0</ele><time>2026-05-02T16:43:01.7Z</time></trkpt><trkpt lat="40.7977833" lon="16.0086317"><ele>314.0</ele><time>2026-05-02T16:43:02.704Z</time></trkpt><trkpt lat="40.797715" lon="16.0088783"><ele>314.0</ele><time>2026-05-02T16:43:03.701Z</time></trkpt><trkpt lat="40.7976433" lon="16.00913"><ele>314.0</ele><time>2026-05-02T16:43:04.702Z</time></trkpt><trkpt lat="40.7975717" lon="16.0093767"><ele>314.0</ele><time>2026-05-02T16:43:05.701Z</time></trkpt><trkpt lat="40.7974983" lon="16.0096183"><ele>314.0</ele><time>2026-05-02T16:43:06.703Z</time></trkpt><trkpt lat="40.7974283" lon="16.0098567"><ele>314.0</ele><time>2026-05-02T16:43:07.702Z</time></trkpt><trkpt lat="40.7973567" lon="16.0100967"><ele>313.0</ele><time>2026-05-02T16:43:08.703Z</time></trkpt><trkpt lat="40.797285" lon="16.010335"><ele>312.0</ele><time>2026-05-02T16:43:09.701Z</time></trkpt><trkpt lat="40.7972117" lon="16.0105733"><ele>311.0</ele><time>2026-05-02T16:43:10.703Z</time></trkpt><trkpt lat="40.7971383" lon="16.0108117"><ele>310.33333333333337</ele><time>2026-05-02T16:43:11.701Z</time></trkpt><trkpt lat="40.7970667" lon="16.0110467"><ele>309.6666666666667</ele><time>2026-05-02T16:43:12.702Z</time></trkpt><trkpt lat="40.7970017" lon="16.0112833"><ele>309.0</ele><time>2026-05-02T16:43:13.701Z</time></trkpt><trkpt lat="40.7969417" lon="16.0115233"><ele>308.3333333333333</ele><time>2026-05-02T16:43:14.702Z</time></trkpt><trkpt lat="40.7968933" lon="16.01177"><ele>307.66666666666663</ele><time>2026-05-02T16:43:15.701Z</time></trkpt><trkpt lat="40.7968583" lon="16.0120233"><ele>307.0</ele><time>2026-05-02T16:43:16.701Z</time></trkpt><trkpt lat="40.7968333" lon="16.0122817"><ele>306.66666666666663</ele><time>2026-05-02T16:43:17.701Z</time></trkpt><trkpt lat="40.7968167" lon="16.0125483"><ele>306.3333333333333</ele><time>2026-05-02T16:43:18.702Z</time></trkpt><trkpt lat="40.7968033" lon="16.012815"><ele>306.0</ele><time>2026-05-02T16:43:19.702Z</time></trkpt><trkpt lat="40.7967883" lon="16.0130833"><ele>306.0</ele><time>2026-05-02T16:43:20.702Z</time></trkpt><trkpt lat="40.7967733" lon="16.0133533"><ele>306.0</ele><time>2026-05-02T16:43:21.701Z</time></trkpt><trkpt lat="40.7967617" lon="16.0136267"><ele>306.0</ele><time>2026-05-02T16:43:22.702Z</time></trkpt><trkpt lat="40.7967517" lon="16.0139"><ele>306.0</ele><time>2026-05-02T16:43:23.701Z</time></trkpt><trkpt lat="40.79674" lon="16.0141717"><ele>306.0</ele><time>2026-05-02T16:43:24.701Z</time></trkpt><trkpt lat="40.7967267" lon="16.0144417"><ele>306.0</ele><time>2026-05-02T16:43:25.7Z</time></trkpt><trkpt lat="40.7967133" lon="16.01471"><ele>306.0</ele><time>2026-05-02T16:43:26.702Z</time></trkpt><trkpt lat="40.7966983" lon="16.0149783"><ele>306.0</ele><time>2026-05-02T16:43:27.702Z</time></trkpt><trkpt lat="40.796685" lon="16.0152483"><ele>306.0</ele><time>2026-05-02T16:43:28.701Z</time></trkpt><trkpt lat="40.7966717" lon="16.0155167"><ele>305.3333333333333</ele><time>2026-05-02T16:43:29.702Z</time></trkpt><trkpt lat="40.7966567" lon="16.0157833"><ele>304.66666666666663</ele><time>2026-05-02T16:43:30.701Z</time></trkpt><trkpt lat="40.7966433" lon="16.01605"><ele>304.0</ele><time>2026-05-02T16:43:31.704Z</time></trkpt><trkpt lat="40.79663" lon="16.0163167"><ele>304.0</ele><time>2026-05-02T16:43:32.705Z</time></trkpt><trkpt lat="40.7966183" lon="16.0165867"><ele>304.0</ele><time>2026-05-02T16:43:33.702Z</time></trkpt><trkpt lat="40.79661" lon="16.016855"><ele>304.0</ele><time>2026-05-02T16:43:34.702Z</time></trkpt><trkpt lat="40.7966067" lon="16.0171217"><ele>303.66666666666663</ele><time>2026-05-02T16:43:35.701Z</time></trkpt><trkpt lat="40.7966083" lon="16.0173883"><ele>303.3333333333333</ele><time>2026-05-02T16:43:36.702Z</time></trkpt><trkpt lat="40.7966133" lon="16.0176567"><ele>303.0</ele><time>2026-05-02T16:43:37.701Z</time></trkpt><trkpt lat="40.79662" lon="16.017925"><ele>302.3333333333333</ele><time>2026-05-02T16:43:38.702Z</time></trkpt><trkpt lat="40.7966279" lon="16.0181963"><ele>301.66666666666663</ele><time>2026-05-02T16:43:39.702Z</time></trkpt><trkpt lat="40.7966373" lon="16.0184669"><ele>301.0</ele><time>2026-05-02T16:43:40.701Z</time></trkpt><trkpt lat="40.7966437" lon="16.0187382"><ele>300.66666666666663</ele><time>2026-05-02T16:43:41.702Z</time></trkpt><trkpt lat="40.7966503" lon="16.0190089"><ele>300.3333333333333</ele><time>2026-05-02T16:43:42.702Z</time></trkpt><trkpt lat="40.7966591" lon="16.0192787"><ele>300.0</ele><time>2026-05-02T16:43:43.702Z</time></trkpt><trkpt lat="40.7966666" lon="16.0195486"><ele>300.0</ele><time>2026-05-02T16:43:44.703Z</time></trkpt><trkpt lat="40.7966745" lon="16.0198115"><ele>300.0</ele><time>2026-05-02T16:43:45.701Z</time></trkpt><trkpt lat="40.7966827" lon="16.0200711"><ele>300.0</ele><time>2026-05-02T16:43:46.701Z</time></trkpt><trkpt lat="40.7966898" lon="16.0203294"><ele>299.6666666666667</ele><time>2026-05-02T16:43:47.702Z</time></trkpt><trkpt lat="40.7966976" lon="16.0205869"><ele>299.33333333333337</ele><time>2026-05-02T16:43:48.701Z</time></trkpt><trkpt lat="40.7967061" lon="16.0208436"><ele>299.0</ele><time>2026-05-02T16:43:49.701Z</time></trkpt><trkpt lat="40.7967165" lon="16.0211004"><ele>299.0</ele><time>2026-05-02T16:43:50.702Z</time></trkpt><trkpt lat="40.7967256" lon="16.0213596"><ele>299.0</ele><time>2026-05-02T16:43:51.701Z</time></trkpt><trkpt lat="40.7967341" lon="16.0216213"><ele>299.0</ele><time>2026-05-02T16:43:52.702Z</time></trkpt><trkpt lat="40.7967426" lon="16.0218841"><ele>298.6666666666667</ele><time>2026-05-02T16:43:53.702Z</time></trkpt><trkpt lat="40.7967509" lon="16.0221452"><ele>298.3333333333333</ele><time>2026-05-02T16:43:54.702Z</time></trkpt><trkpt lat="40.7967616" lon="16.0224065"><ele>298.0</ele><time>2026-05-02T16:43:55.702Z</time></trkpt><trkpt lat="40.7967728" lon="16.0226674"><ele>298.0</ele><time>2026-05-02T16:43:56.702Z</time></trkpt><trkpt lat="40.7967787" lon="16.022919"><ele>298.0</ele><time>2026-05-02T16:43:57.702Z</time></trkpt><trkpt lat="40.7967772" lon="16.0231577"><ele>298.0</ele><time>2026-05-02T16:43:58.702Z</time></trkpt><trkpt lat="40.7967666" lon="16.0233848"><ele>297.66666666666663</ele><time>2026-05-02T16:43:59.701Z</time></trkpt><trkpt lat="40.7967386" lon="16.0235989"><ele>297.3333333333333</ele><time>2026-05-02T16:44:00.701Z</time></trkpt><trkpt lat="40.7966956" lon="16.0238105"><ele>297.0</ele><time>2026-05-02T16:44:01.701Z</time></trkpt><trkpt lat="40.7966361" lon="16.0240256"><ele>297.3333333333333</ele><time>2026-05-02T16:44:02.703Z</time></trkpt><trkpt lat="40.796562" lon="16.0242437"><ele>297.66666666666663</ele><time>2026-05-02T16:44:03.702Z</time></trkpt><trkpt lat="40.7964799" lon="16.0244694"><ele>298.0</ele><time>2026-05-02T16:44:04.702Z</time></trkpt><trkpt lat="40.7963915" lon="16.0247013"><ele>298.0</ele><time>2026-05-02T16:44:05.702Z</time></trkpt><trkpt lat="40.7963002" lon="16.0249394"><ele>298.0</ele><time>2026-05-02T16:44:06.703Z</time></trkpt><trkpt lat="40.7962069" lon="16.0251825"><ele>298.0</ele><time>2026-05-02T16:44:07.701Z</time></trkpt><trkpt lat="40.7961144" lon="16.0254279"><ele>298.0</ele><time>2026-05-02T16:44:08.704Z</time></trkpt><trkpt lat="40.7960244" lon="16.0256751"><ele>298.0</ele><time>2026-05-02T16:44:09.701Z</time></trkpt><trkpt lat="40.7959344" lon="16.0259221"><ele>298.0</ele><time>2026-05-02T16:44:10.702Z</time></trkpt><trkpt lat="40.7958447" lon="16.0261634"><ele>298.66666666666663</ele><time>2026-05-02T16:44:11.704Z</time></trkpt><trkpt lat="40.795755" lon="16.026395"><ele>299.3333333333333</ele><time>2026-05-02T16:44:12.701Z</time></trkpt><trkpt lat="40.7956683" lon="16.0266283"><ele>300.0</ele><time>2026-05-02T16:44:13.701Z</time></trkpt><trkpt lat="40.795585" lon="16.0268567"><ele>300.3333333333333</ele><time>2026-05-02T16:44:14.703Z</time></trkpt><trkpt lat="40.7955017" lon="16.02708"><ele>300.66666666666663</ele><time>2026-05-02T16:44:15.702Z</time></trkpt><trkpt lat="40.79542" lon="16.0273017"><ele>301.0</ele><time>2026-05-02T16:44:16.701Z</time></trkpt><trkpt lat="40.7953367" lon="16.0275267"><ele>301.3333333333333</ele><time>2026-05-02T16:44:17.7Z</time></trkpt><trkpt lat="40.7952533" lon="16.0277517"><ele>301.6666666666667</ele><time>2026-05-02T16:44:18.702Z</time></trkpt><trkpt lat="40.79517" lon="16.0279767"><ele>302.0</ele><time>2026-05-02T16:44:19.701Z</time></trkpt><trkpt lat="40.7950867" lon="16.028205"><ele>301.0</ele><time>2026-05-02T16:44:20.703Z</time></trkpt><trkpt lat="40.7949983" lon="16.0284367"><ele>300.0</ele><time>2026-05-02T16:44:21.704Z</time></trkpt><trkpt lat="40.79491" lon="16.0286717"><ele>299.0</ele><time>2026-05-02T16:44:22.702Z</time></trkpt><trkpt lat="40.7948217" lon="16.02891"><ele>298.0</ele><time>2026-05-02T16:44:23.702Z</time></trkpt><trkpt lat="40.79473" lon="16.02915"><ele>297.0</ele><time>2026-05-02T16:44:24.702Z</time></trkpt><trkpt lat="40.7946383" lon="16.0293933"><ele>296.0</ele><time>2026-05-02T16:44:25.702Z</time></trkpt><trkpt lat="40.7945483" lon="16.02964"><ele>296.0</ele><time>2026-05-02T16:44:26.702Z</time></trkpt><trkpt lat="40.7944583" lon="16.0298883"><ele>296.0</ele><time>2026-05-02T16:44:27.701Z</time></trkpt><trkpt lat="40.79437" lon="16.0301317"><ele>296.0</ele><time>2026-05-02T16:44:28.701Z</time></trkpt><trkpt lat="40.7942817" lon="16.0303733"><ele>295.6666666666667</ele><time>2026-05-02T16:44:29.703Z</time></trkpt><trkpt lat="40.794195" lon="16.0306133"><ele>295.3333333333333</ele><time>2026-05-02T16:44:30.701Z</time></trkpt><trkpt lat="40.794105" lon="16.0308533"><ele>295.0</ele><time>2026-05-02T16:44:31.701Z</time></trkpt><trkpt lat="40.794015" lon="16.0310933"><ele>295.0</ele><time>2026-05-02T16:44:32.704Z</time></trkpt><trkpt lat="40.7939283" lon="16.0313333"><ele>295.0</ele><time>2026-05-02T16:44:33.701Z</time></trkpt><trkpt lat="40.79384" lon="16.0315717"><ele>295.0</ele><time>2026-05-02T16:44:34.701Z</time></trkpt><trkpt lat="40.7937533" lon="16.031805"><ele>294.3333333333333</ele><time>2026-05-02T16:44:35.703Z</time></trkpt><trkpt lat="40.79367" lon="16.03203"><ele>293.6666666666667</ele><time>2026-05-02T16:44:36.702Z</time></trkpt><trkpt lat="40.7935917" lon="16.0322433"><ele>293.0</ele><time>2026-05-02T16:44:37.7Z</time></trkpt><trkpt lat="40.7935167" lon="16.0324483"><ele>294.0</ele><time>2026-05-02T16:44:38.702Z</time></trkpt><trkpt lat="40.7934433" lon="16.0326483"><ele>295.0</ele><time>2026-05-02T16:44:39.701Z</time></trkpt><trkpt lat="40.7933683" lon="16.032855"><ele>296.0</ele><time>2026-05-02T16:44:40.701Z</time></trkpt><trkpt lat="40.7932917" lon="16.03307"><ele>296.0</ele><time>2026-05-02T16:44:41.701Z</time></trkpt><trkpt lat="40.7932133" lon="16.03328"><ele>296.0</ele><time>2026-05-02T16:44:42.701Z</time></trkpt><trkpt lat="40.7931383" lon="16.0334767"><ele>296.0</ele><time>2026-05-02T16:44:43.701Z</time></trkpt><trkpt lat="40.7930667" lon="16.0336617"><ele>295.75</ele><time>2026-05-02T16:44:44.702Z</time></trkpt><trkpt lat="40.7930017" lon="16.0338317"><ele>295.5</ele><time>2026-05-02T16:44:45.701Z</time></trkpt><trkpt lat="40.7929417" lon="16.0339983"><ele>295.25</ele><time>2026-05-02T16:44:46.702Z</time></trkpt><trkpt lat="40.7928833" lon="16.03416"><ele>295.0</ele><time>2026-05-02T16:44:47.703Z</time></trkpt><trkpt lat="40.79283" lon="16.03431"><ele>294.4</ele><time>2026-05-02T16:44:48.703Z</time></trkpt><trkpt lat="40.79278" lon="16.0344417"><ele>293.8</ele><time>2026-05-02T16:44:49.701Z</time></trkpt><trkpt lat="40.792735" lon="16.0345633"><ele>293.2</ele><time>2026-05-02T16:44:50.703Z</time></trkpt><trkpt lat="40.7926933" lon="16.0346717"><ele>292.6</ele><time>2026-05-02T16:44:51.701Z</time></trkpt><trkpt lat="40.7926517" lon="16.0347683"><ele>292.0</ele><time>2026-05-02T16:44:52.702Z</time></trkpt><trkpt lat="40.7926133" lon="16.03485"><ele>293.3333333333333</ele><time>2026-05-02T16:44:53.701Z</time></trkpt><trkpt lat="40.7925517" lon="16.03495"><ele>294.66666666666663</ele><time>2026-05-02T16:44:55.701Z</time></trkpt><trkpt lat="40.7924883" lon="16.0349833"><ele>296.0</ele><time>2026-05-02T16:44:57.701Z</time></trkpt><trkpt lat="40.79241" lon="16.0349433"><ele>297.3333333333333</ele><time>2026-05-02T16:44:59.702Z</time></trkpt><trkpt lat="40.79235" lon="16.0348067"><ele>298.6666666666667</ele><time>2026-05-02T16:45:01.702Z</time></trkpt><trkpt lat="40.7923233" lon="16.0347167"><ele>300.0</ele><time>2026-05-02T16:45:02.703Z</time></trkpt><trkpt lat="40.7922967" lon="16.0346233"><ele>300.4</ele><time>2026-05-02T16:45:03.702Z</time></trkpt><trkpt lat="40.792265" lon="16.034545"><ele>300.8</ele><time>2026-05-02T16:45:04.701Z</time></trkpt><trkpt lat="40.792175" lon="16.0344433"><ele>301.2</ele><time>2026-05-02T16:45:06.701Z</time></trkpt><trkpt lat="40.79206" lon="16.0344467"><ele>301.6</ele><time>2026-05-02T16:45:08.701Z</time></trkpt><trkpt lat="40.792005" lon="16.0345017"><ele>302.0</ele><time>2026-05-02T16:45:09.701Z</time></trkpt><trkpt lat="40.791955" lon="16.034585"><ele>302.0</ele><time>2026-05-02T16:45:10.702Z</time></trkpt><trkpt lat="40.7919" lon="16.0346833"><ele>302.0</ele><time>2026-05-02T16:45:11.702Z</time></trkpt><trkpt lat="40.7918417" lon="16.0347783"><ele>302.0</ele><time>2026-05-02T16:45:12.701Z</time></trkpt><trkpt lat="40.7917767" lon="16.0348583"><ele>302.0</ele><time>2026-05-02T16:45:13.701Z</time></trkpt><trkpt lat="40.7916983" lon="16.0349283"><ele>302.0</ele><time>2026-05-02T16:45:14.703Z</time></trkpt><trkpt lat="40.7916133" lon="16.0349867"><ele>303.25</ele><time>2026-05-02T16:45:15.7Z</time></trkpt><trkpt lat="40.7915133" lon="16.0350367"><ele>304.5</ele><time>2026-05-02T16:45:16.701Z</time></trkpt><trkpt lat="40.7913967" lon="16.0350883"><ele>305.75</ele><time>2026-05-02T16:45:17.701Z</time></trkpt><trkpt lat="40.7912667" lon="16.035145"><ele>307.0</ele><time>2026-05-02T16:45:18.702Z</time></trkpt><trkpt lat="40.7911217" lon="16.0352067"><ele>306.66666666666663</ele><time>2026-05-02T16:45:19.701Z</time></trkpt><trkpt lat="40.7909683" lon="16.03527"><ele>306.3333333333333</ele><time>2026-05-02T16:45:20.702Z</time></trkpt><trkpt lat="40.7908117" lon="16.0353383"><ele>306.0</ele><time>2026-05-02T16:45:21.702Z</time></trkpt><trkpt lat="40.7906467" lon="16.0354083"><ele>306.0</ele><time>2026-05-02T16:45:22.702Z</time></trkpt><trkpt lat="40.7904783" lon="16.035475"><ele>306.0</ele><time>2026-05-02T16:45:23.701Z</time></trkpt><trkpt lat="40.7903083" lon="16.0355433"><ele>306.0</ele><time>2026-05-02T16:45:24.701Z</time></trkpt><trkpt lat="40.7901367" lon="16.035615"><ele>306.0</ele><time>2026-05-02T16:45:25.702Z</time></trkpt><trkpt lat="40.789965" lon="16.0356833"><ele>306.0</ele><time>2026-05-02T16:45:26.703Z</time></trkpt><trkpt lat="40.7897883" lon="16.0357533"><ele>306.0</ele><time>2026-05-02T16:45:27.7Z</time></trkpt><trkpt lat="40.7896083" lon="16.0358283"><ele>306.0</ele><time>2026-05-02T16:45:28.702Z</time></trkpt><trkpt lat="40.7894267" lon="16.035905"><ele>306.0</ele><time>2026-05-02T16:45:29.702Z</time></trkpt><trkpt lat="40.789245" lon="16.03598"><ele>306.0</ele><time>2026-05-02T16:45:30.701Z</time></trkpt><trkpt lat="40.78906" lon="16.03606"><ele>306.0</ele><time>2026-05-02T16:45:31.701Z</time></trkpt><trkpt lat="40.788875" lon="16.03614"><ele>306.0</ele><time>2026-05-02T16:45:32.703Z</time></trkpt><trkpt lat="40.7886883" lon="16.0362217"><ele>306.0</ele><time>2026-05-02T16:45:33.701Z</time></trkpt><trkpt lat="40.7885033" lon="16.0363033"><ele>306.3333333333333</ele><time>2026-05-02T16:45:34.701Z</time></trkpt><trkpt lat="40.7883183" lon="16.0363817"><ele>306.66666666666663</ele><time>2026-05-02T16:45:35.702Z</time></trkpt><trkpt lat="40.788135" lon="16.0364567"><ele>307.0</ele><time>2026-05-02T16:45:36.702Z</time></trkpt><trkpt lat="40.7879517" lon="16.03653"><ele>307.0</ele><time>2026-05-02T16:45:37.701Z</time></trkpt><trkpt lat="40.7877667" lon="16.0366083"><ele>307.0</ele><time>2026-05-02T16:45:38.702Z</time></trkpt><trkpt lat="40.787585" lon="16.03669"><ele>307.0</ele><time>2026-05-02T16:45:39.702Z</time></trkpt><trkpt lat="40.7874117" lon="16.036765"><ele>307.3333333333333</ele><time>2026-05-02T16:45:40.701Z</time></trkpt><trkpt lat="40.7872467" lon="16.0368383"><ele>307.6666666666667</ele><time>2026-05-02T16:45:41.701Z</time></trkpt><trkpt lat="40.7870933" lon="16.0369067"><ele>308.0</ele><time>2026-05-02T16:45:42.7Z</time></trkpt><trkpt lat="40.7869517" lon="16.0369633"><ele>309.0</ele><time>2026-05-02T16:45:43.701Z</time></trkpt><trkpt lat="40.786815" lon="16.0370167"><ele>310.0</ele><time>2026-05-02T16:45:44.702Z</time></trkpt><trkpt lat="40.7866767" lon="16.037065"><ele>311.0</ele><time>2026-05-02T16:45:45.702Z</time></trkpt><trkpt lat="40.78654" lon="16.037105"><ele>312.0</ele><time>2026-05-02T16:45:46.701Z</time></trkpt><trkpt lat="40.7864033" lon="16.0371317"><ele>312.0</ele><time>2026-05-02T16:45:47.703Z</time></trkpt><trkpt lat="40.7862667" lon="16.0371383"><ele>312.0</ele><time>2026-05-02T16:45:48.702Z</time></trkpt><trkpt lat="40.7861217" lon="16.0371167"><ele>312.0</ele><time>2026-05-02T16:45:49.702Z</time></trkpt><trkpt lat="40.78597" lon="16.03708"><ele>312.0</ele><time>2026-05-02T16:45:50.702Z</time></trkpt><trkpt lat="40.7858083" lon="16.0370367"><ele>312.3333333333333</ele><time>2026-05-02T16:45:51.702Z</time></trkpt><trkpt lat="40.785645" lon="16.0369883"><ele>312.66666666666663</ele><time>2026-05-02T16:45:52.701Z</time></trkpt><trkpt lat="40.785475" lon="16.0369383"><ele>313.0</ele><time>2026-05-02T16:45:53.701Z</time></trkpt><trkpt lat="40.7853083" lon="16.0368917"><ele>312.66666666666663</ele><time>2026-05-02T16:45:54.702Z</time></trkpt><trkpt lat="40.7851433" lon="16.03685"><ele>312.3333333333333</ele><time>2026-05-02T16:45:55.702Z</time></trkpt><trkpt lat="40.7849767" lon="16.0368067"><ele>312.0</ele><time>2026-05-02T16:45:56.702Z</time></trkpt><trkpt lat="40.78481" lon="16.0367617"><ele>312.0</ele><time>2026-05-02T16:45:57.7Z</time></trkpt><trkpt lat="40.7846433" lon="16.0367167"><ele>312.0</ele><time>2026-05-02T16:45:58.702Z</time></trkpt><trkpt lat="40.7844783" lon="16.0366683"><ele>312.0</ele><time>2026-05-02T16:45:59.7Z</time></trkpt><trkpt lat="40.7843117" lon="16.0366217"><ele>313.3333333333333</ele><time>2026-05-02T16:46:00.701Z</time></trkpt><trkpt lat="40.784145" lon="16.036575"><ele>314.66666666666663</ele><time>2026-05-02T16:46:01.703Z</time></trkpt><trkpt lat="40.7839767" lon="16.03653"><ele>316.0</ele><time>2026-05-02T16:46:02.702Z</time></trkpt><trkpt lat="40.7838083" lon="16.0364867"><ele>316.0</ele><time>2026-05-02T16:46:03.701Z</time></trkpt><trkpt lat="40.7836417" lon="16.0364433"><ele>316.0</ele><time>2026-05-02T16:46:04.702Z</time></trkpt><trkpt lat="40.7834717" lon="16.0364017"><ele>316.0</ele><time>2026-05-02T16:46:05.701Z</time></trkpt><trkpt lat="40.7833" lon="16.0363683"><ele>316.66666666666663</ele><time>2026-05-02T16:46:06.701Z</time></trkpt><trkpt lat="40.783125" lon="16.03635"><ele>317.3333333333333</ele><time>2026-05-02T16:46:07.701Z</time></trkpt><trkpt lat="40.782945" lon="16.03634"><ele>318.0</ele><time>2026-05-02T16:46:08.702Z</time></trkpt><trkpt lat="40.7827633" lon="16.0363283"><ele>319.3333333333333</ele><time>2026-05-02T16:46:09.702Z</time></trkpt><trkpt lat="40.7825817" lon="16.03631"><ele>320.66666666666663</ele><time>2026-05-02T16:46:10.702Z</time></trkpt><trkpt lat="40.78241" lon="16.0362817"><ele>322.0</ele><time>2026-05-02T16:46:11.701Z</time></trkpt><trkpt lat="40.7822567" lon="16.03624"><ele>322.0</ele><time>2026-05-02T16:46:12.702Z</time></trkpt><trkpt lat="40.7821183" lon="16.036185"><ele>322.0</ele><time>2026-05-02T16:46:13.701Z</time></trkpt><trkpt lat="40.7819933" lon="16.03611"><ele>322.0</ele><time>2026-05-02T16:46:14.703Z</time></trkpt><trkpt lat="40.781875" lon="16.0360167"><ele>322.0</ele><time>2026-05-02T16:46:15.701Z</time></trkpt><trkpt lat="40.7817583" lon="16.0359083"><ele>323.66666666666663</ele><time>2026-05-02T16:46:16.703Z</time></trkpt><trkpt lat="40.7816333" lon="16.0358"><ele>325.3333333333333</ele><time>2026-05-02T16:46:17.701Z</time></trkpt><trkpt lat="40.7815033" lon="16.0357017"><ele>327.0</ele><time>2026-05-02T16:46:18.702Z</time></trkpt><trkpt lat="40.7813633" lon="16.0356183"><ele>327.0</ele><time>2026-05-02T16:46:19.702Z</time></trkpt><trkpt lat="40.7812117" lon="16.0355517"><ele>327.0</ele><time>2026-05-02T16:46:20.702Z</time></trkpt><trkpt lat="40.7810467" lon="16.0354933"><ele>327.0</ele><time>2026-05-02T16:46:21.702Z</time></trkpt><trkpt lat="40.7808717" lon="16.035435"><ele>327.3333333333333</ele><time>2026-05-02T16:46:22.702Z</time></trkpt><trkpt lat="40.7806883" lon="16.0353717"><ele>327.66666666666663</ele><time>2026-05-02T16:46:23.7Z</time></trkpt><trkpt lat="40.7805" lon="16.0353067"><ele>328.0</ele><time>2026-05-02T16:46:24.701Z</time></trkpt><trkpt lat="40.7803067" lon="16.0352367"><ele>328.3333333333333</ele><time>2026-05-02T16:46:25.701Z</time></trkpt><trkpt lat="40.78011" lon="16.0351633"><ele>328.6666666666667</ele><time>2026-05-02T16:46:26.701Z</time></trkpt><trkpt lat="40.7799117" lon="16.0350883"><ele>329.0</ele><time>2026-05-02T16:46:27.701Z</time></trkpt><trkpt lat="40.7797117" lon="16.0350133"><ele>329.6666666666667</ele><time>2026-05-02T16:46:28.701Z</time></trkpt><trkpt lat="40.7795133" lon="16.03494"><ele>330.3333333333333</ele><time>2026-05-02T16:46:29.702Z</time></trkpt><trkpt lat="40.7793133" lon="16.0348683"><ele>331.0</ele><time>2026-05-02T16:46:30.701Z</time></trkpt><trkpt lat="40.779115" lon="16.0347983"><ele>333.3333333333333</ele><time>2026-05-02T16:46:31.703Z</time></trkpt><trkpt lat="40.77892" lon="16.03474"><ele>335.6666666666667</ele><time>2026-05-02T16:46:32.702Z</time></trkpt><trkpt lat="40.7787367" lon="16.0346967"><ele>338.0</ele><time>2026-05-02T16:46:33.701Z</time></trkpt><trkpt lat="40.778565" lon="16.0346633"><ele>339.33333333333337</ele><time>2026-05-02T16:46:34.702Z</time></trkpt><trkpt lat="40.7784017" lon="16.0346383"><ele>340.6666666666667</ele><time>2026-05-02T16:46:35.701Z</time></trkpt><trkpt lat="40.7782417" lon="16.0346117"><ele>342.0</ele><time>2026-05-02T16:46:36.701Z</time></trkpt><trkpt lat="40.77809" lon="16.03457"><ele>342.0</ele><time>2026-05-02T16:46:37.701Z</time></trkpt><trkpt lat="40.7779483" lon="16.0345067"><ele>342.0</ele><time>2026-05-02T16:46:38.702Z</time></trkpt><trkpt lat="40.7778217" lon="16.0344217"><ele>342.0</ele><time>2026-05-02T16:46:39.7Z</time></trkpt><trkpt lat="40.7777067" lon="16.034315"><ele>342.0</ele><time>2026-05-02T16:46:40.701Z</time></trkpt><trkpt lat="40.7776117" lon="16.0341883"><ele>343.75</ele><time>2026-05-02T16:46:41.701Z</time></trkpt><trkpt lat="40.7775367" lon="16.0340433"><ele>345.5</ele><time>2026-05-02T16:46:42.702Z</time></trkpt><trkpt lat="40.7774783" lon="16.03389"><ele>347.25</ele><time>2026-05-02T16:46:43.702Z</time></trkpt><trkpt lat="40.7774283" lon="16.0337467"><ele>349.0</ele><time>2026-05-02T16:46:44.702Z</time></trkpt><trkpt lat="40.77738" lon="16.0336183"><ele>349.0</ele><time>2026-05-02T16:46:45.701Z</time></trkpt><trkpt lat="40.77732" lon="16.03351"><ele>349.0</ele><time>2026-05-02T16:46:46.7Z</time></trkpt><trkpt lat="40.7772383" lon="16.0334233"><ele>349.0</ele><time>2026-05-02T16:46:47.701Z</time></trkpt><trkpt lat="40.777135" lon="16.0333617"><ele>349.0</ele><time>2026-05-02T16:46:48.702Z</time></trkpt><trkpt lat="40.7770133" lon="16.0333333"><ele>349.0</ele><time>2026-05-02T16:46:49.702Z</time></trkpt><trkpt lat="40.7768717" lon="16.03334"><ele>349.66666666666663</ele><time>2026-05-02T16:46:50.701Z</time></trkpt><trkpt lat="40.7767133" lon="16.0333633"><ele>350.3333333333333</ele><time>2026-05-02T16:46:51.702Z</time></trkpt><trkpt lat="40.7765467" lon="16.03339"><ele>351.0</ele><time>2026-05-02T16:46:52.702Z</time></trkpt><trkpt lat="40.7763883" lon="16.0334117"><ele>351.0</ele><time>2026-05-02T16:46:53.703Z</time></trkpt><trkpt lat="40.77624" lon="16.0334283"><ele>351.0</ele><time>2026-05-02T16:46:54.702Z</time></trkpt><trkpt lat="40.776105" lon="16.0334383"><ele>351.0</ele><time>2026-05-02T16:46:55.702Z</time></trkpt><trkpt lat="40.7759767" lon="16.03344"><ele>351.0</ele><time>2026-05-02T16:46:56.703Z</time></trkpt><trkpt lat="40.7758533" lon="16.0334317"><ele>352.0</ele><time>2026-05-02T16:46:57.7Z</time></trkpt><trkpt lat="40.7757333" lon="16.0334067"><ele>353.0</ele><time>2026-05-02T16:46:58.7Z</time></trkpt><trkpt lat="40.7756183" lon="16.0333617"><ele>354.0</ele><time>2026-05-02T16:46:59.702Z</time></trkpt><trkpt lat="40.7755083" lon="16.0333"><ele>355.0</ele><time>2026-05-02T16:47:00.702Z</time></trkpt><trkpt lat="40.7754017" lon="16.03323"><ele>358.5</ele><time>2026-05-02T16:47:01.703Z</time></trkpt><trkpt lat="40.7752967" lon="16.0331567"><ele>362.0</ele><time>2026-05-02T16:47:02.702Z</time></trkpt><trkpt lat="40.77519" lon="16.0330983"><ele>365.5</ele><time>2026-05-02T16:47:03.701Z</time></trkpt><trkpt lat="40.7750767" lon="16.0330683"><ele>369.0</ele><time>2026-05-02T16:47:04.701Z</time></trkpt><trkpt lat="40.7749617" lon="16.0330667"><ele>369.0</ele><time>2026-05-02T16:47:05.701Z</time></trkpt><trkpt lat="40.7748433" lon="16.0331"><ele>369.0</ele><time>2026-05-02T16:47:06.701Z</time></trkpt><trkpt lat="40.7747283" lon="16.0331483"><ele>369.0</ele><time>2026-05-02T16:47:07.702Z</time></trkpt><trkpt lat="40.7746117" lon="16.0331917"><ele>369.0</ele><time>2026-05-02T16:47:08.704Z</time></trkpt><trkpt lat="40.7744917" lon="16.0332117"><ele>369.0</ele><time>2026-05-02T16:47:09.702Z</time></trkpt><trkpt lat="40.7743683" lon="16.0332033"><ele>369.0</ele><time>2026-05-02T16:47:10.7Z</time></trkpt><trkpt lat="40.77424" lon="16.0331633"><ele>369.0</ele><time>2026-05-02T16:47:11.701Z</time></trkpt><trkpt lat="40.7741017" lon="16.0330917"><ele>369.0</ele><time>2026-05-02T16:47:12.7Z</time></trkpt><trkpt lat="40.773955" lon="16.033"><ele>369.6666666666667</ele><time>2026-05-02T16:47:13.702Z</time></trkpt><trkpt lat="40.7738033" lon="16.0328917"><ele>370.33333333333337</ele><time>2026-05-02T16:47:14.703Z</time></trkpt><trkpt lat="40.7736533" lon="16.032775"><ele>371.0</ele><time>2026-05-02T16:47:15.702Z</time></trkpt><trkpt lat="40.7735067" lon="16.0326683"><ele>370.0</ele><time>2026-05-02T16:47:16.703Z</time></trkpt><trkpt lat="40.7733733" lon="16.03257"><ele>369.0</ele><time>2026-05-02T16:47:17.702Z</time></trkpt><trkpt lat="40.7732583" lon="16.0324683"><ele>368.0</ele><time>2026-05-02T16:47:18.701Z</time></trkpt><trkpt lat="40.77316" lon="16.0323633"><ele>367.0</ele><time>2026-05-02T16:47:19.702Z</time></trkpt><trkpt lat="40.773075" lon="16.0322733"><ele>369.0</ele><time>2026-05-02T16:47:20.702Z</time></trkpt><trkpt lat="40.77299" lon="16.032205"><ele>371.0</ele><time>2026-05-02T16:47:21.701Z</time></trkpt><trkpt lat="40.77289" lon="16.03216"><ele>373.0</ele><time>2026-05-02T16:47:22.702Z</time></trkpt><trkpt lat="40.7727717" lon="16.0321333"><ele>375.0</ele><time>2026-05-02T16:47:23.704Z</time></trkpt><trkpt lat="40.77264" lon="16.032115"><ele>375.6666666666667</ele><time>2026-05-02T16:47:24.701Z</time></trkpt><trkpt lat="40.7724967" lon="16.0320967"><ele>376.33333333333337</ele><time>2026-05-02T16:47:25.702Z</time></trkpt><trkpt lat="40.7723433" lon="16.0320717"><ele>377.0</ele><time>2026-05-02T16:47:26.703Z</time></trkpt><trkpt lat="40.7721917" lon="16.032045"><ele>377.0</ele><time>2026-05-02T16:47:27.7Z</time></trkpt><trkpt lat="40.7720467" lon="16.032025"><ele>377.0</ele><time>2026-05-02T16:47:28.701Z</time></trkpt><trkpt lat="40.7719017" lon="16.0320167"><ele>377.0</ele><time>2026-05-02T16:47:29.702Z</time></trkpt><trkpt lat="40.77176" lon="16.03203"><ele>377.0</ele><time>2026-05-02T16:47:30.7Z</time></trkpt><trkpt lat="40.7716267" lon="16.0320683"><ele>377.5</ele><time>2026-05-02T16:47:31.702Z</time></trkpt><trkpt lat="40.7715" lon="16.03214"><ele>378.0</ele><time>2026-05-02T16:47:32.703Z</time></trkpt><trkpt lat="40.7713783" lon="16.03224"><ele>378.5</ele><time>2026-05-02T16:47:33.7Z</time></trkpt><trkpt lat="40.7712583" lon="16.0323433"><ele>379.0</ele><time>2026-05-02T16:47:34.701Z</time></trkpt><trkpt lat="40.7711367" lon="16.0324283"><ele>379.3333333333333</ele><time>2026-05-02T16:47:35.7Z</time></trkpt><trkpt lat="40.7710017" lon="16.0324883"><ele>379.6666666666667</ele><time>2026-05-02T16:47:36.702Z</time></trkpt><trkpt lat="40.77085" lon="16.0325317"><ele>380.0</ele><time>2026-05-02T16:47:37.7Z</time></trkpt><trkpt lat="40.77069" lon="16.0325633"><ele>380.0</ele><time>2026-05-02T16:47:38.702Z</time></trkpt><trkpt lat="40.7705217" lon="16.0325933"><ele>380.0</ele><time>2026-05-02T16:47:39.703Z</time></trkpt><trkpt lat="40.770345" lon="16.0326267"><ele>380.0</ele><time>2026-05-02T16:47:40.702Z</time></trkpt><trkpt lat="40.7701633" lon="16.0326583"><ele>381.0</ele><time>2026-05-02T16:47:41.701Z</time></trkpt><trkpt lat="40.7699783" lon="16.03269"><ele>382.0</ele><time>2026-05-02T16:47:42.701Z</time></trkpt><trkpt lat="40.76979" lon="16.0327267"><ele>383.0</ele><time>2026-05-02T16:47:43.701Z</time></trkpt><trkpt lat="40.7695983" lon="16.0327633"><ele>383.0</ele><time>2026-05-02T16:47:44.701Z</time></trkpt><trkpt lat="40.7694067" lon="16.0327983"><ele>383.0</ele><time>2026-05-02T16:47:45.7Z</time></trkpt><trkpt lat="40.7692133" lon="16.032835"><ele>383.0</ele><time>2026-05-02T16:47:46.702Z</time></trkpt><trkpt lat="40.7690217" lon="16.03287"><ele>383.33333333333337</ele><time>2026-05-02T16:47:47.701Z</time></trkpt><trkpt lat="40.7688317" lon="16.0329067"><ele>383.6666666666667</ele><time>2026-05-02T16:47:48.7Z</time></trkpt><trkpt lat="40.7686417" lon="16.0329433"><ele>384.0</ele><time>2026-05-02T16:47:49.701Z</time></trkpt><trkpt lat="40.7684483" lon="16.0329783"><ele>385.0</ele><time>2026-05-02T16:47:50.701Z</time></trkpt><trkpt lat="40.7682567" lon="16.0330117"><ele>386.0</ele><time>2026-05-02T16:47:51.702Z</time></trkpt><trkpt lat="40.768065" lon="16.0330483"><ele>387.0</ele><time>2026-05-02T16:47:52.701Z</time></trkpt><trkpt lat="40.7678733" lon="16.033085"><ele>388.66666666666663</ele><time>2026-05-02T16:47:53.702Z</time></trkpt><trkpt lat="40.76768" lon="16.0331233"><ele>390.3333333333333</ele><time>2026-05-02T16:47:54.702Z</time></trkpt><trkpt lat="40.7674883" lon="16.03316"><ele>392.0</ele><time>2026-05-02T16:47:55.701Z</time></trkpt><trkpt lat="40.7672967" lon="16.0332"><ele>392.0</ele><time>2026-05-02T16:47:56.701Z</time></trkpt><trkpt lat="40.767105" lon="16.0332367"><ele>392.0</ele><time>2026-05-02T16:47:57.701Z</time></trkpt><trkpt lat="40.766915" lon="16.03327"><ele>392.0</ele><time>2026-05-02T16:47:58.701Z</time></trkpt><trkpt lat="40.7667283" lon="16.0333033"><ele>391.3333333333333</ele><time>2026-05-02T16:47:59.7Z</time></trkpt><trkpt lat="40.7665533" lon="16.0333367"><ele>390.66666666666663</ele><time>2026-05-02T16:48:00.702Z</time></trkpt><trkpt lat="40.7663933" lon="16.0333667"><ele>390.0</ele><time>2026-05-02T16:48:01.702Z</time></trkpt><trkpt lat="40.76625" lon="16.0333917"><ele>390.0</ele><time>2026-05-02T16:48:02.702Z</time></trkpt><trkpt lat="40.7661183" lon="16.0334117"><ele>390.0</ele><time>2026-05-02T16:48:03.702Z</time></trkpt><trkpt lat="40.7659983" lon="16.03344"><ele>390.0</ele><time>2026-05-02T16:48:04.702Z</time></trkpt><trkpt lat="40.7658917" lon="16.0334433"><ele>390.0</ele><time>2026-05-02T16:48:05.701Z</time></trkpt><trkpt lat="40.7658017" lon="16.0334167"><ele>390.0</ele><time>2026-05-02T16:48:06.701Z</time></trkpt><trkpt lat="40.7657233" lon="16.0333633"><ele>390.0</ele><time>2026-05-02T16:48:07.7Z</time></trkpt><trkpt lat="40.76566" lon="16.033285"><ele>390.0</ele><time>2026-05-02T16:48:08.701Z</time></trkpt><trkpt lat="40.7656117" lon="16.0331883"><ele>390.0</ele><time>2026-05-02T16:48:09.702Z</time></trkpt><trkpt lat="40.7655917" lon="16.0330733"><ele>390.0</ele><time>2026-05-02T16:48:10.701Z</time></trkpt><trkpt lat="40.7655917" lon="16.032955"><ele>390.0</ele><time>2026-05-02T16:48:11.7Z</time></trkpt><trkpt lat="40.7656133" lon="16.0328417"><ele>390.8333333333333</ele><time>2026-05-02T16:48:12.702Z</time></trkpt><trkpt lat="40.7656533" lon="16.0327333"><ele>391.66666666666663</ele><time>2026-05-02T16:48:13.701Z</time></trkpt><trkpt lat="40.76571" lon="16.0326467"><ele>392.5</ele><time>2026-05-02T16:48:14.702Z</time></trkpt><trkpt lat="40.7657817" lon="16.0325883"><ele>393.3333333333333</ele><time>2026-05-02T16:48:15.701Z</time></trkpt><trkpt lat="40.7658633" lon="16.03256"><ele>394.16666666666663</ele><time>2026-05-02T16:48:16.7Z</time></trkpt><trkpt lat="40.7659483" lon="16.03255"><ele>395.0</ele><time>2026-05-02T16:48:17.701Z</time></trkpt><trkpt lat="40.7660367" lon="16.0325617"><ele>395.16666666666663</ele><time>2026-05-02T16:48:18.701Z</time></trkpt><trkpt lat="40.76612" lon="16.0325983"><ele>395.3333333333333</ele><time>2026-05-02T16:48:19.701Z</time></trkpt><trkpt lat="40.7661983" lon="16.03266"><ele>395.5</ele><time>2026-05-02T16:48:20.701Z</time></trkpt><trkpt lat="40.7662533" lon="16.032745"><ele>395.66666666666663</ele><time>2026-05-02T16:48:21.7Z</time></trkpt><trkpt lat="40.7662817" lon="16.0328417"><ele>395.8333333333333</ele><time>2026-05-02T16:48:22.7Z</time></trkpt><trkpt lat="40.766295" lon="16.032945"><ele>396.0</ele><time>2026-05-02T16:48:23.702Z</time></trkpt><trkpt lat="40.766285" lon="16.0330533"><ele>396.0</ele><time>2026-05-02T16:48:24.702Z</time></trkpt><trkpt lat="40.7662567" lon="16.0331567"><ele>396.0</ele><time>2026-05-02T16:48:25.701Z</time></trkpt><trkpt lat="40.7662067" lon="16.0332717"><ele>396.0</ele><time>2026-05-02T16:48:26.703Z</time></trkpt><trkpt lat="40.7661417" lon="16.0333983"><ele>396.0</ele><time>2026-05-02T16:48:27.7Z</time></trkpt><trkpt lat="40.7660683" lon="16.03354"><ele>396.0</ele><time>2026-05-02T16:48:28.701Z</time></trkpt><trkpt lat="40.76598" lon="16.0337067"><ele>394.0</ele><time>2026-05-02T16:48:29.702Z</time></trkpt><trkpt lat="40.7658783" lon="16.0338983"><ele>392.0</ele><time>2026-05-02T16:48:30.701Z</time></trkpt><trkpt lat="40.76577" lon="16.0341"><ele>390.0</ele><time>2026-05-02T16:48:31.701Z</time></trkpt><trkpt lat="40.7656517" lon="16.034315"><ele>389.33333333333337</ele><time>2026-05-02T16:48:32.701Z</time></trkpt><trkpt lat="40.7655283" lon="16.03454"><ele>388.6666666666667</ele><time>2026-05-02T16:48:33.7Z</time></trkpt><trkpt lat="40.7654033" lon="16.03477"><ele>388.0</ele><time>2026-05-02T16:48:34.701Z</time></trkpt><trkpt lat="40.76528" lon="16.0349983"><ele>388.6666666666667</ele><time>2026-05-02T16:48:35.701Z</time></trkpt><trkpt lat="40.7651617" lon="16.0352117"><ele>389.33333333333337</ele><time>2026-05-02T16:48:36.702Z</time></trkpt><trkpt lat="40.765045" lon="16.035425"><ele>390.0</ele><time>2026-05-02T16:48:37.7Z</time></trkpt><trkpt lat="40.7649267" lon="16.03564"><ele>389.33333333333337</ele><time>2026-05-02T16:48:38.702Z</time></trkpt><trkpt lat="40.7648117" lon="16.03586"><ele>388.6666666666667</ele><time>2026-05-02T16:48:39.701Z</time></trkpt><trkpt lat="40.7647017" lon="16.0360867"><ele>388.0</ele><time>2026-05-02T16:48:40.701Z</time></trkpt><trkpt lat="40.7646033" lon="16.03632"><ele>388.0</ele><time>2026-05-02T16:48:41.701Z</time></trkpt><trkpt lat="40.76452" lon="16.03656"><ele>388.0</ele><time>2026-05-02T16:48:42.702Z</time></trkpt><trkpt lat="40.7644533" lon="16.0368083"><ele>388.0</ele><time>2026-05-02T16:48:43.701Z</time></trkpt><trkpt lat="40.7644033" lon="16.037065"><ele>386.33333333333337</ele><time>2026-05-02T16:48:44.703Z</time></trkpt><trkpt lat="40.7643683" lon="16.0373267"><ele>384.6666666666667</ele><time>2026-05-02T16:48:45.701Z</time></trkpt><trkpt lat="40.764345" lon="16.0375933"><ele>383.0</ele><time>2026-05-02T16:48:46.701Z</time></trkpt><trkpt lat="40.76434" lon="16.0378633"><ele>382.6666666666667</ele><time>2026-05-02T16:48:47.701Z</time></trkpt><trkpt lat="40.7643483" lon="16.038135"><ele>382.3333333333333</ele><time>2026-05-02T16:48:48.701Z</time></trkpt><trkpt lat="40.7643683" lon="16.0384067"><ele>382.0</ele><time>2026-05-02T16:48:49.7Z</time></trkpt><trkpt lat="40.7644033" lon="16.0386767"><ele>381.3333333333333</ele><time>2026-05-02T16:48:50.702Z</time></trkpt><trkpt lat="40.764455" lon="16.0389417"><ele>380.6666666666667</ele><time>2026-05-02T16:48:51.701Z</time></trkpt><trkpt lat="40.76452" lon="16.0392"><ele>380.0</ele><time>2026-05-02T16:48:52.702Z</time></trkpt><trkpt lat="40.76459" lon="16.03945"><ele>379.33333333333337</ele><time>2026-05-02T16:48:53.702Z</time></trkpt><trkpt lat="40.7646583" lon="16.0396933"><ele>378.6666666666667</ele><time>2026-05-02T16:48:54.702Z</time></trkpt><trkpt lat="40.7647233" lon="16.0399283"><ele>378.0</ele><time>2026-05-02T16:48:55.701Z</time></trkpt><trkpt lat="40.7647883" lon="16.0401567"><ele>377.6666666666667</ele><time>2026-05-02T16:48:56.703Z</time></trkpt><trkpt lat="40.764855" lon="16.0403867"><ele>377.33333333333337</ele><time>2026-05-02T16:48:57.7Z</time></trkpt><trkpt lat="40.76492" lon="16.04062"><ele>377.0</ele><time>2026-05-02T16:48:58.701Z</time></trkpt><trkpt lat="40.7649867" lon="16.0408533"><ele>377.0</ele><time>2026-05-02T16:48:59.701Z</time></trkpt><trkpt lat="40.76505" lon="16.0410867"><ele>377.0</ele><time>2026-05-02T16:49:00.705Z</time></trkpt><trkpt lat="40.76511" lon="16.04132"><ele>377.0</ele><time>2026-05-02T16:49:01.7Z</time></trkpt><trkpt lat="40.7651617" lon="16.0415583"><ele>376.0</ele><time>2026-05-02T16:49:02.702Z</time></trkpt><trkpt lat="40.7652017" lon="16.0417983"><ele>375.0</ele><time>2026-05-02T16:49:03.701Z</time></trkpt><trkpt lat="40.7652283" lon="16.0420433"><ele>374.0</ele><time>2026-05-02T16:49:04.7Z</time></trkpt><trkpt lat="40.76524" lon="16.0422917"><ele>373.6666666666667</ele><time>2026-05-02T16:49:05.701Z</time></trkpt><trkpt lat="40.7652417" lon="16.0425417"><ele>373.3333333333333</ele><time>2026-05-02T16:49:06.702Z</time></trkpt><trkpt lat="40.7652333" lon="16.04279"><ele>373.0</ele><time>2026-05-02T16:49:07.7Z</time></trkpt><trkpt lat="40.7652117" lon="16.043035"><ele>373.0</ele><time>2026-05-02T16:49:08.702Z</time></trkpt><trkpt lat="40.7651767" lon="16.0432733"><ele>373.0</ele><time>2026-05-02T16:49:09.701Z</time></trkpt><trkpt lat="40.765125" lon="16.0435083"><ele>373.0</ele><time>2026-05-02T16:49:10.702Z</time></trkpt><trkpt lat="40.7650617" lon="16.04374"><ele>373.0</ele><time>2026-05-02T16:49:11.702Z</time></trkpt><trkpt lat="40.7649833" lon="16.043965"><ele>373.0</ele><time>2026-05-02T16:49:12.7Z</time></trkpt><trkpt lat="40.7648933" lon="16.0441833"><ele>373.0</ele><time>2026-05-02T16:49:13.701Z</time></trkpt><trkpt lat="40.7647933" lon="16.0443967"><ele>372.3333333333333</ele><time>2026-05-02T16:49:14.701Z</time></trkpt><trkpt lat="40.764685" lon="16.0446"><ele>371.6666666666667</ele><time>2026-05-02T16:49:15.701Z</time></trkpt><trkpt lat="40.7645683" lon="16.0447933"><ele>371.0</ele><time>2026-05-02T16:49:16.7Z</time></trkpt><trkpt lat="40.7644467" lon="16.0449833"><ele>369.33333333333337</ele><time>2026-05-02T16:49:17.702Z</time></trkpt><trkpt lat="40.764325" lon="16.0451733"><ele>367.6666666666667</ele><time>2026-05-02T16:49:18.7Z</time></trkpt><trkpt lat="40.7642033" lon="16.0453667"><ele>366.0</ele><time>2026-05-02T16:49:19.702Z</time></trkpt><trkpt lat="40.7640783" lon="16.0455683"><ele>366.0</ele><time>2026-05-02T16:49:20.701Z</time></trkpt><trkpt lat="40.7639483" lon="16.0457783"><ele>366.0</ele><time>2026-05-02T16:49:21.7Z</time></trkpt><trkpt lat="40.7638133" lon="16.0459933"><ele>366.0</ele><time>2026-05-02T16:49:22.702Z</time></trkpt><trkpt lat="40.763675" lon="16.046215"><ele>366.0</ele><time>2026-05-02T16:49:23.7Z</time></trkpt><trkpt lat="40.7635367" lon="16.0464367"><ele>366.0</ele><time>2026-05-02T16:49:24.701Z</time></trkpt><trkpt lat="40.763395" lon="16.0466617"><ele>366.0</ele><time>2026-05-02T16:49:25.701Z</time></trkpt><trkpt lat="40.7632533" lon="16.046885"><ele>364.6666666666667</ele><time>2026-05-02T16:49:26.701Z</time></trkpt><trkpt lat="40.7631117" lon="16.0471083"><ele>363.33333333333337</ele><time>2026-05-02T16:49:27.701Z</time></trkpt><trkpt lat="40.7629717" lon="16.04733"><ele>362.0</ele><time>2026-05-02T16:49:28.703Z</time></trkpt><trkpt lat="40.762835" lon="16.0475483"><ele>360.6666666666667</ele><time>2026-05-02T16:49:29.702Z</time></trkpt><trkpt lat="40.7627017" lon="16.047765"><ele>359.3333333333333</ele><time>2026-05-02T16:49:30.701Z</time></trkpt><trkpt lat="40.7625717" lon="16.0479817"><ele>358.0</ele><time>2026-05-02T16:49:31.703Z</time></trkpt><trkpt lat="40.7624433" lon="16.0481983"><ele>356.0</ele><time>2026-05-02T16:49:32.703Z</time></trkpt><trkpt lat="40.7623217" lon="16.0484183"><ele>354.0</ele><time>2026-05-02T16:49:33.701Z</time></trkpt><trkpt lat="40.7622083" lon="16.0486417"><ele>352.0</ele><time>2026-05-02T16:49:34.702Z</time></trkpt><trkpt lat="40.762105" lon="16.0488733"><ele>352.0</ele><time>2026-05-02T16:49:35.702Z</time></trkpt><trkpt lat="40.7620117" lon="16.0491117"><ele>352.0</ele><time>2026-05-02T16:49:36.702Z</time></trkpt><trkpt lat="40.7619283" lon="16.0493583"><ele>352.0</ele><time>2026-05-02T16:49:37.702Z</time></trkpt><trkpt lat="40.7618567" lon="16.04961"><ele>351.3333333333333</ele><time>2026-05-02T16:49:38.705Z</time></trkpt><trkpt lat="40.7617933" lon="16.04987"><ele>350.6666666666667</ele><time>2026-05-02T16:49:39.702Z</time></trkpt><trkpt lat="40.7617433" lon="16.0501367"><ele>350.0</ele><time>2026-05-02T16:49:40.702Z</time></trkpt><trkpt lat="40.7617017" lon="16.0504083"><ele>350.0</ele><time>2026-05-02T16:49:41.703Z</time></trkpt><trkpt lat="40.7616717" lon="16.050685"><ele>350.0</ele><time>2026-05-02T16:49:42.701Z</time></trkpt><trkpt lat="40.7616517" lon="16.0509683"><ele>350.0</ele><time>2026-05-02T16:49:43.702Z</time></trkpt><trkpt lat="40.7616483" lon="16.051255"><ele>349.6666666666667</ele><time>2026-05-02T16:49:44.704Z</time></trkpt><trkpt lat="40.7616567" lon="16.0515417"><ele>349.3333333333333</ele><time>2026-05-02T16:49:45.703Z</time></trkpt><trkpt lat="40.7616783" lon="16.051825"><ele>349.0</ele><time>2026-05-02T16:49:46.702Z</time></trkpt><trkpt lat="40.761715" lon="16.0521083"><ele>349.0</ele><time>2026-05-02T16:49:47.702Z</time></trkpt><trkpt lat="40.7617617" lon="16.05239"><ele>349.0</ele><time>2026-05-02T16:49:48.703Z</time></trkpt><trkpt lat="40.7618233" lon="16.0526683"><ele>349.0</ele><time>2026-05-02T16:49:49.703Z</time></trkpt><trkpt lat="40.7618933" lon="16.0529433"><ele>347.0</ele><time>2026-05-02T16:49:50.704Z</time></trkpt><trkpt lat="40.76197" lon="16.053215"><ele>345.0</ele><time>2026-05-02T16:49:51.701Z</time></trkpt><trkpt lat="40.762045" lon="16.0534867"><ele>343.0</ele><time>2026-05-02T16:49:52.701Z</time></trkpt><trkpt lat="40.76212" lon="16.053755"><ele>342.66666666666663</ele><time>2026-05-02T16:49:53.701Z</time></trkpt><trkpt lat="40.7621917" lon="16.054025"><ele>342.3333333333333</ele><time>2026-05-02T16:49:54.702Z</time></trkpt><trkpt lat="40.76226" lon="16.0542933"><ele>342.0</ele><time>2026-05-02T16:49:55.703Z</time></trkpt><trkpt lat="40.7623217" lon="16.0545633"><ele>341.6666666666667</ele><time>2026-05-02T16:49:56.703Z</time></trkpt><trkpt lat="40.7623767" lon="16.0548367"><ele>341.33333333333337</ele><time>2026-05-02T16:49:57.701Z</time></trkpt><trkpt lat="40.7624217" lon="16.0551133"><ele>341.0</ele><time>2026-05-02T16:49:58.702Z</time></trkpt><trkpt lat="40.7624583" lon="16.055395"><ele>341.0</ele><time>2026-05-02T16:49:59.701Z</time></trkpt><trkpt lat="40.7624867" lon="16.0556783"><ele>341.0</ele><time>2026-05-02T16:50:00.702Z</time></trkpt><trkpt lat="40.7625083" lon="16.0559633"><ele>341.0</ele><time>2026-05-02T16:50:01.702Z</time></trkpt><trkpt lat="40.7625233" lon="16.0562517"><ele>340.6666666666667</ele><time>2026-05-02T16:50:02.703Z</time></trkpt><trkpt lat="40.7625333" lon="16.0565383"><ele>340.3333333333333</ele><time>2026-05-02T16:50:03.701Z</time></trkpt><trkpt lat="40.7625417" lon="16.056825"><ele>340.0</ele><time>2026-05-02T16:50:04.702Z</time></trkpt><trkpt lat="40.7625483" lon="16.0571133"><ele>339.3333333333333</ele><time>2026-05-02T16:50:05.701Z</time></trkpt><trkpt lat="40.7625567" lon="16.0574"><ele>338.6666666666667</ele><time>2026-05-02T16:50:06.702Z</time></trkpt><trkpt lat="40.76257" lon="16.0576817"><ele>338.0</ele><time>2026-05-02T16:50:07.705Z</time></trkpt><trkpt lat="40.76258" lon="16.0579617"><ele>337.33333333333337</ele><time>2026-05-02T16:50:08.703Z</time></trkpt><trkpt lat="40.76259" lon="16.0582383"><ele>336.6666666666667</ele><time>2026-05-02T16:50:09.702Z</time></trkpt><trkpt lat="40.7625983" lon="16.05851"><ele>336.0</ele><time>2026-05-02T16:50:10.702Z</time></trkpt><trkpt lat="40.7626067" lon="16.05878"><ele>335.0</ele><time>2026-05-02T16:50:11.701Z</time></trkpt><trkpt lat="40.7626133" lon="16.0590467"><ele>334.0</ele><time>2026-05-02T16:50:12.701Z</time></trkpt><trkpt lat="40.762625" lon="16.05931"><ele>333.0</ele><time>2026-05-02T16:50:13.703Z</time></trkpt><trkpt lat="40.7626367" lon="16.0595733"><ele>332.6666666666667</ele><time>2026-05-02T16:50:14.703Z</time></trkpt><trkpt lat="40.7626467" lon="16.0598383"><ele>332.33333333333337</ele><time>2026-05-02T16:50:15.701Z</time></trkpt><trkpt lat="40.7626567" lon="16.0601067"><ele>332.0</ele><time>2026-05-02T16:50:16.701Z</time></trkpt><trkpt lat="40.762665" lon="16.0603683"><ele>331.33333333333337</ele><time>2026-05-02T16:50:17.702Z</time></trkpt><trkpt lat="40.762675" lon="16.060615"><ele>330.6666666666667</ele><time>2026-05-02T16:50:18.702Z</time></trkpt><trkpt lat="40.7626833" lon="16.06085"><ele>330.0</ele><time>2026-05-02T16:50:19.701Z</time></trkpt><trkpt lat="40.7626917" lon="16.0610767"><ele>330.3333333333333</ele><time>2026-05-02T16:50:20.703Z</time></trkpt><trkpt lat="40.7626983" lon="16.061295"><ele>330.66666666666663</ele><time>2026-05-02T16:50:21.701Z</time></trkpt><trkpt lat="40.762705" lon="16.0615033"><ele>331.0</ele><time>2026-05-02T16:50:22.703Z</time></trkpt><trkpt lat="40.7627117" lon="16.0616967"><ele>330.0</ele><time>2026-05-02T16:50:23.702Z</time></trkpt><trkpt lat="40.762715" lon="16.061875"><ele>329.0</ele><time>2026-05-02T16:50:24.701Z</time></trkpt><trkpt lat="40.7627217" lon="16.06204"><ele>328.0</ele><time>2026-05-02T16:50:25.702Z</time></trkpt><trkpt lat="40.762725" lon="16.0621867"><ele>327.0</ele><time>2026-05-02T16:50:26.703Z</time></trkpt><trkpt lat="40.7627267" lon="16.062315"><ele>327.0</ele><time>2026-05-02T16:50:27.703Z</time></trkpt><trkpt lat="40.7627233" lon="16.0624183"><ele>327.0</ele><time>2026-05-02T16:50:28.702Z</time></trkpt><trkpt lat="40.7627117" lon="16.0625"><ele>327.0</ele><time>2026-05-02T16:50:29.702Z</time></trkpt><trkpt lat="40.7626633" lon="16.0625933"><ele>327.0</ele><time>2026-05-02T16:50:31.702Z</time></trkpt><trkpt lat="40.7625767" lon="16.062575"><ele>327.0</ele><time>2026-05-02T16:50:34.702Z</time></trkpt><trkpt lat="40.76252" lon="16.0624683"><ele>327.0</ele><time>2026-05-02T16:50:36.701Z</time></trkpt><trkpt lat="40.7624633" lon="16.06234"><ele>327.20000000000005</ele><time>2026-05-02T16:50:38.703Z</time></trkpt><trkpt lat="40.7624117" lon="16.062225"><ele>327.4</ele><time>2026-05-02T16:50:40.703Z</time></trkpt><trkpt lat="40.7623333" lon="16.0621617"><ele>327.6</ele><time>2026-05-02T16:50:42.703Z</time></trkpt><trkpt lat="40.76218" lon="16.0621283"><ele>327.79999999999995</ele><time>2026-05-02T17:06:34.703Z</time></trkpt><trkpt lat="40.7622133" lon="16.06221"><ele>328.0</ele><time>2026-05-02T17:06:37.702Z</time></trkpt><trkpt lat="40.7623017" lon="16.0622333"><ele>328.0</ele><time>2026-05-02T17:06:40.703Z</time></trkpt><trkpt lat="40.7623883" lon="16.06226"><ele>328.0</ele><time>2026-05-02T17:06:43.701Z</time></trkpt><trkpt lat="40.7624383" lon="16.062315"><ele>328.0</ele><time>2026-05-02T17:06:45.702Z</time></trkpt><trkpt lat="40.7624983" lon="16.0624083"><ele>328.0</ele><time>2026-05-02T17:06:48.708Z</time></trkpt><trkpt lat="40.7625317" lon="16.0624917"><ele>328.0</ele><time>2026-05-02T17:06:50.703Z</time></trkpt><trkpt lat="40.762575" lon="16.062595"><ele>328.0</ele><time>2026-05-02T17:06:52.702Z</time></trkpt><trkpt lat="40.7626083" lon="16.0627317"><ele>327.79999999999995</ele><time>2026-05-02T17:06:54.702Z</time></trkpt><trkpt lat="40.7626317" lon="16.0628783"><ele>327.6</ele><time>2026-05-02T17:06:56.702Z</time></trkpt><trkpt lat="40.7626717" lon="16.06302"><ele>327.4</ele><time>2026-05-02T17:06:58.703Z</time></trkpt><trkpt lat="40.7627117" lon="16.0631433"><ele>327.20000000000005</ele><time>2026-05-02T17:07:00.701Z</time></trkpt><trkpt lat="40.762745" lon="16.0632817"><ele>327.0</ele><time>2026-05-02T17:07:02.704Z</time></trkpt><trkpt lat="40.7627583" lon="16.0633717"><ele>326.0</ele><time>2026-05-02T17:07:03.702Z</time></trkpt><trkpt lat="40.7627717" lon="16.063495"><ele>325.0</ele><time>2026-05-02T17:07:04.701Z</time></trkpt><trkpt lat="40.7627783" lon="16.06366"><ele>324.0</ele><time>2026-05-02T17:07:05.702Z</time></trkpt><trkpt lat="40.762785" lon="16.0638333"><ele>323.0</ele><time>2026-05-02T17:07:06.702Z</time></trkpt><trkpt lat="40.7627917" lon="16.0640167"><ele>322.33333333333337</ele><time>2026-05-02T17:07:07.702Z</time></trkpt><trkpt lat="40.762795" lon="16.0642183"><ele>321.6666666666667</ele><time>2026-05-02T17:07:08.703Z</time></trkpt><trkpt lat="40.7628017" lon="16.0644333"><ele>321.0</ele><time>2026-05-02T17:07:09.702Z</time></trkpt><trkpt lat="40.76281" lon="16.0646467"><ele>321.0</ele><time>2026-05-02T17:07:10.702Z</time></trkpt><trkpt lat="40.762815" lon="16.0648583"><ele>321.0</ele><time>2026-05-02T17:07:11.701Z</time></trkpt><trkpt lat="40.76282" lon="16.0650683"><ele>321.0</ele><time>2026-05-02T17:07:12.703Z</time></trkpt><trkpt lat="40.762825" lon="16.06528"><ele>320.3333333333333</ele><time>2026-05-02T17:07:13.702Z</time></trkpt><trkpt lat="40.76283" lon="16.0655"><ele>319.66666666666663</ele><time>2026-05-02T17:07:14.702Z</time></trkpt><trkpt lat="40.7628367" lon="16.0657267"><ele>319.0</ele><time>2026-05-02T17:07:15.701Z</time></trkpt><trkpt lat="40.7628417" lon="16.065955"><ele>319.0</ele><time>2026-05-02T17:07:16.701Z</time></trkpt><trkpt lat="40.7628483" lon="16.0661833"><ele>319.0</ele><time>2026-05-02T17:07:17.701Z</time></trkpt><trkpt lat="40.7628483" lon="16.066415"><ele>319.0</ele><time>2026-05-02T17:07:18.702Z</time></trkpt><trkpt lat="40.7628483" lon="16.06665"><ele>318.66666666666663</ele><time>2026-05-02T17:07:19.701Z</time></trkpt><trkpt lat="40.7628467" lon="16.0668867"><ele>318.3333333333333</ele><time>2026-05-02T17:07:20.703Z</time></trkpt><trkpt lat="40.7628417" lon="16.0671267"><ele>318.0</ele><time>2026-05-02T17:07:21.701Z</time></trkpt><trkpt lat="40.762835" lon="16.0673667"><ele>318.3333333333333</ele><time>2026-05-02T17:07:22.702Z</time></trkpt><trkpt lat="40.7628267" lon="16.0676067"><ele>318.66666666666663</ele><time>2026-05-02T17:07:23.702Z</time></trkpt><trkpt lat="40.762815" lon="16.06785"><ele>319.0</ele><time>2026-05-02T17:07:24.702Z</time></trkpt><trkpt lat="40.762805" lon="16.0680933"><ele>318.3333333333333</ele><time>2026-05-02T17:07:25.701Z</time></trkpt><trkpt lat="40.762795" lon="16.0683383"><ele>317.6666666666667</ele><time>2026-05-02T17:07:26.702Z</time></trkpt><trkpt lat="40.7627867" lon="16.0685833"><ele>317.0</ele><time>2026-05-02T17:07:27.705Z</time></trkpt><trkpt lat="40.7627767" lon="16.0688283"><ele>317.0</ele><time>2026-05-02T17:07:28.701Z</time></trkpt><trkpt lat="40.7627667" lon="16.069075"><ele>317.0</ele><time>2026-05-02T17:07:29.702Z</time></trkpt><trkpt lat="40.7627567" lon="16.0693217"><ele>317.0</ele><time>2026-05-02T17:07:30.702Z</time></trkpt><trkpt lat="40.7627467" lon="16.0695683"><ele>316.33333333333337</ele><time>2026-05-02T17:07:31.704Z</time></trkpt><trkpt lat="40.7627367" lon="16.069815"><ele>315.6666666666667</ele><time>2026-05-02T17:07:32.704Z</time></trkpt><trkpt lat="40.7627267" lon="16.0700617"><ele>315.0</ele><time>2026-05-02T17:07:33.702Z</time></trkpt><trkpt lat="40.7627183" lon="16.0703083"><ele>314.3333333333333</ele><time>2026-05-02T17:07:34.703Z</time></trkpt><trkpt lat="40.76271" lon="16.070555"><ele>313.66666666666663</ele><time>2026-05-02T17:07:35.702Z</time></trkpt><trkpt lat="40.7626983" lon="16.0708033"><ele>313.0</ele><time>2026-05-02T17:07:36.701Z</time></trkpt><trkpt lat="40.76269" lon="16.0710517"><ele>312.66666666666663</ele><time>2026-05-02T17:07:37.702Z</time></trkpt><trkpt lat="40.7626817" lon="16.0713"><ele>312.3333333333333</ele><time>2026-05-02T17:07:38.702Z</time></trkpt><trkpt lat="40.7626717" lon="16.07155"><ele>312.0</ele><time>2026-05-02T17:07:39.701Z</time></trkpt><trkpt lat="40.7626617" lon="16.0718067"><ele>312.0</ele><time>2026-05-02T17:07:40.702Z</time></trkpt><trkpt lat="40.7626533" lon="16.0720667"><ele>312.0</ele><time>2026-05-02T17:07:41.702Z</time></trkpt><trkpt lat="40.76264" lon="16.07233"><ele>312.0</ele><time>2026-05-02T17:07:42.702Z</time></trkpt><trkpt lat="40.7626267" lon="16.0725967"><ele>312.3333333333333</ele><time>2026-05-02T17:07:43.701Z</time></trkpt><trkpt lat="40.762615" lon="16.0728667"><ele>312.66666666666663</ele><time>2026-05-02T17:07:44.702Z</time></trkpt><trkpt lat="40.7626033" lon="16.0731367"><ele>313.0</ele><time>2026-05-02T17:07:45.702Z</time></trkpt><trkpt lat="40.7625917" lon="16.0734067"><ele>312.3333333333333</ele><time>2026-05-02T17:07:46.702Z</time></trkpt><trkpt lat="40.76258" lon="16.0736767"><ele>311.6666666666667</ele><time>2026-05-02T17:07:47.707Z</time></trkpt><trkpt lat="40.7625683" lon="16.0739467"><ele>311.0</ele><time>2026-05-02T17:07:48.701Z</time></trkpt><trkpt lat="40.7625567" lon="16.0742167"><ele>311.0</ele><time>2026-05-02T17:07:49.703Z</time></trkpt><trkpt lat="40.762545" lon="16.0744883"><ele>311.0</ele><time>2026-05-02T17:07:50.703Z</time></trkpt><trkpt lat="40.7625317" lon="16.0747667"><ele>311.0</ele><time>2026-05-02T17:07:51.702Z</time></trkpt><trkpt lat="40.76252" lon="16.0750467"><ele>311.0</ele><time>2026-05-02T17:07:52.702Z</time></trkpt><trkpt lat="40.7625067" lon="16.0753317"><ele>311.0</ele><time>2026-05-02T17:07:53.703Z</time></trkpt><trkpt lat="40.7624967" lon="16.0756117"><ele>311.0</ele><time>2026-05-02T17:07:54.702Z</time></trkpt><trkpt lat="40.7624867" lon="16.0758867"><ele>311.0</ele><time>2026-05-02T17:07:55.701Z</time></trkpt><trkpt lat="40.7624733" lon="16.0761583"><ele>311.0</ele><time>2026-05-02T17:07:56.703Z</time></trkpt><trkpt lat="40.76246" lon="16.0764333"><ele>311.0</ele><time>2026-05-02T17:07:57.701Z</time></trkpt><trkpt lat="40.7624467" lon="16.07671"><ele>311.0</ele><time>2026-05-02T17:07:58.701Z</time></trkpt><trkpt lat="40.762435" lon="16.07699"><ele>311.0</ele><time>2026-05-02T17:07:59.701Z</time></trkpt><trkpt lat="40.7624233" lon="16.0772667"><ele>311.0</ele><time>2026-05-02T17:08:00.702Z</time></trkpt><trkpt lat="40.7624117" lon="16.077545"><ele>311.33333333333337</ele><time>2026-05-02T17:08:01.703Z</time></trkpt><trkpt lat="40.7624" lon="16.0778267"><ele>311.6666666666667</ele><time>2026-05-02T17:08:02.702Z</time></trkpt><trkpt lat="40.7623917" lon="16.07811"><ele>312.0</ele><time>2026-05-02T17:08:03.701Z</time></trkpt><trkpt lat="40.76238" lon="16.0783933"><ele>311.3333333333333</ele><time>2026-05-02T17:08:04.701Z</time></trkpt><trkpt lat="40.76237" lon="16.078675"><ele>310.66666666666663</ele><time>2026-05-02T17:08:05.702Z</time></trkpt><trkpt lat="40.7623583" lon="16.0789583"><ele>310.0</ele><time>2026-05-02T17:08:06.702Z</time></trkpt><trkpt lat="40.7623467" lon="16.0792433"><ele>310.0</ele><time>2026-05-02T17:08:07.703Z</time></trkpt><trkpt lat="40.762335" lon="16.0795317"><ele>310.0</ele><time>2026-05-02T17:08:08.701Z</time></trkpt><trkpt lat="40.7623233" lon="16.0798217"><ele>310.0</ele><time>2026-05-02T17:08:09.701Z</time></trkpt><trkpt lat="40.7623117" lon="16.080115"><ele>310.5</ele><time>2026-05-02T17:08:10.702Z</time></trkpt><trkpt lat="40.7623" lon="16.0804133"><ele>311.0</ele><time>2026-05-02T17:08:11.702Z</time></trkpt><trkpt lat="40.7622883" lon="16.080715"><ele>310.5</ele><time>2026-05-02T17:08:12.701Z</time></trkpt><trkpt lat="40.7622717" lon="16.0810183"><ele>310.0</ele><time>2026-05-02T17:08:13.701Z</time></trkpt><trkpt lat="40.76225" lon="16.081325"><ele>310.5</ele><time>2026-05-02T17:08:14.702Z</time></trkpt><trkpt lat="40.7622267" lon="16.0816333"><ele>311.0</ele><time>2026-05-02T17:08:15.701Z</time></trkpt><trkpt lat="40.7622033" lon="16.081945"><ele>311.0</ele><time>2026-05-02T17:08:16.701Z</time></trkpt><trkpt lat="40.76218" lon="16.0822567"><ele>311.0</ele><time>2026-05-02T17:08:17.701Z</time></trkpt><trkpt lat="40.7621583" lon="16.0825683"><ele>311.0</ele><time>2026-05-02T17:08:18.701Z</time></trkpt><trkpt lat="40.7621367" lon="16.0828817"><ele>311.0</ele><time>2026-05-02T17:08:19.701Z</time></trkpt><trkpt lat="40.7621133" lon="16.083195"><ele>312.5</ele><time>2026-05-02T17:08:20.703Z</time></trkpt><trkpt lat="40.76209" lon="16.0835067"><ele>314.0</ele><time>2026-05-02T17:08:21.702Z</time></trkpt><trkpt lat="40.7620667" lon="16.0838183"><ele>315.5</ele><time>2026-05-02T17:08:22.701Z</time></trkpt><trkpt lat="40.762045" lon="16.084125"><ele>317.0</ele><time>2026-05-02T17:08:23.701Z</time></trkpt><trkpt lat="40.7620233" lon="16.0844317"><ele>317.0</ele><time>2026-05-02T17:08:24.703Z</time></trkpt><trkpt lat="40.762" lon="16.0847367"><ele>317.0</ele><time>2026-05-02T17:08:25.702Z</time></trkpt><trkpt lat="40.76198" lon="16.08504"><ele>320.0</ele><time>2026-05-02T17:08:26.706Z</time></trkpt><trkpt lat="40.761965" lon="16.0853417"><ele>323.0</ele><time>2026-05-02T17:08:27.702Z</time></trkpt><trkpt lat="40.7619583" lon="16.0856433"><ele>325.0</ele><time>2026-05-02T17:08:28.703Z</time></trkpt><trkpt lat="40.7619633" lon="16.08594"><ele>327.0</ele><time>2026-05-02T17:08:29.701Z</time></trkpt><trkpt lat="40.7619767" lon="16.086235"><ele>329.0</ele><time>2026-05-02T17:08:30.702Z</time></trkpt><trkpt lat="40.762" lon="16.08653"><ele>329.6666666666667</ele><time>2026-05-02T17:08:31.701Z</time></trkpt><trkpt lat="40.76203" lon="16.08682"><ele>330.3333333333333</ele><time>2026-05-02T17:08:32.702Z</time></trkpt><trkpt lat="40.7620633" lon="16.0871117"><ele>331.0</ele><time>2026-05-02T17:08:33.701Z</time></trkpt><trkpt lat="40.7620983" lon="16.087405"><ele>329.0</ele><time>2026-05-02T17:08:34.702Z</time></trkpt><trkpt lat="40.762135" lon="16.0876983"><ele>327.0</ele><time>2026-05-02T17:08:35.702Z</time></trkpt><trkpt lat="40.7621733" lon="16.0879933"><ele>328.0</ele><time>2026-05-02T17:08:36.702Z</time></trkpt><trkpt lat="40.7622083" lon="16.0882883"><ele>329.0</ele><time>2026-05-02T17:08:37.701Z</time></trkpt><trkpt lat="40.7622467" lon="16.0885867"><ele>329.0</ele><time>2026-05-02T17:08:38.703Z</time></trkpt><trkpt lat="40.7622833" lon="16.0888883"><ele>329.0</ele><time>2026-05-02T17:08:39.702Z</time></trkpt><trkpt lat="40.76232" lon="16.089195"><ele>331.5</ele><time>2026-05-02T17:08:40.702Z</time></trkpt><trkpt lat="40.762355" lon="16.0895083"><ele>334.0</ele><time>2026-05-02T17:08:41.701Z</time></trkpt><trkpt lat="40.7623933" lon="16.0898233"><ele>334.0</ele><time>2026-05-02T17:08:42.701Z</time></trkpt><trkpt lat="40.7624317" lon="16.09014"><ele>334.0</ele><time>2026-05-02T17:08:43.701Z</time></trkpt><trkpt lat="40.7624683" lon="16.0904583"><ele>333.0</ele><time>2026-05-02T17:08:44.703Z</time></trkpt><trkpt lat="40.7625067" lon="16.0907767"><ele>332.0</ele><time>2026-05-02T17:08:45.702Z</time></trkpt><trkpt lat="40.762545" lon="16.0910967"><ele>332.0</ele><time>2026-05-02T17:08:46.702Z</time></trkpt><trkpt lat="40.762585" lon="16.0914167"><ele>332.0</ele><time>2026-05-02T17:08:47.702Z</time></trkpt><trkpt lat="40.7626233" lon="16.0917383"><ele>330.5</ele><time>2026-05-02T17:08:48.702Z</time></trkpt><trkpt lat="40.7626617" lon="16.09206"><ele>329.0</ele><time>2026-05-02T17:08:49.702Z</time></trkpt><trkpt lat="40.7627033" lon="16.0923817"><ele>326.0</ele><time>2026-05-02T17:08:50.702Z</time></trkpt><trkpt lat="40.7627433" lon="16.0927017"><ele>323.0</ele><time>2026-05-02T17:08:51.702Z</time></trkpt><trkpt lat="40.762785" lon="16.0930217"><ele>321.5</ele><time>2026-05-02T17:08:52.701Z</time></trkpt><trkpt lat="40.762825" lon="16.0933417"><ele>320.0</ele><time>2026-05-02T17:08:53.702Z</time></trkpt><trkpt lat="40.7628633" lon="16.09366"><ele>320.0</ele><time>2026-05-02T17:08:54.702Z</time></trkpt><trkpt lat="40.7628983" lon="16.0939767"><ele>320.0</ele><time>2026-05-02T17:08:55.702Z</time></trkpt><trkpt lat="40.762935" lon="16.0942883"><ele>318.5</ele><time>2026-05-02T17:08:56.702Z</time></trkpt><trkpt lat="40.7629717" lon="16.0945933"><ele>317.0</ele><time>2026-05-02T17:08:57.7Z</time></trkpt><trkpt lat="40.7630133" lon="16.0948933"><ele>316.5</ele><time>2026-05-02T17:08:58.702Z</time></trkpt><trkpt lat="40.7630583" lon="16.0951917"><ele>316.0</ele><time>2026-05-02T17:08:59.702Z</time></trkpt><trkpt lat="40.7631133" lon="16.0954867"><ele>313.5</ele><time>2026-05-02T17:09:00.701Z</time></trkpt><trkpt lat="40.7631767" lon="16.095775"><ele>311.0</ele><time>2026-05-02T17:09:01.701Z</time></trkpt><trkpt lat="40.76325" lon="16.0960617"><ele>311.0</ele><time>2026-05-02T17:09:02.702Z</time></trkpt><trkpt lat="40.7633317" lon="16.0963417"><ele>311.0</ele><time>2026-05-02T17:09:03.701Z</time></trkpt><trkpt lat="40.76342" lon="16.0966167"><ele>308.0</ele><time>2026-05-02T17:09:04.702Z</time></trkpt><trkpt lat="40.7635133" lon="16.0968917"><ele>305.0</ele><time>2026-05-02T17:09:05.701Z</time></trkpt><trkpt lat="40.7636167" lon="16.097165"><ele>299.0</ele><time>2026-05-02T17:09:06.702Z</time></trkpt><trkpt lat="40.7637317" lon="16.0974333"><ele>293.0</ele><time>2026-05-02T17:09:07.701Z</time></trkpt><trkpt lat="40.7638517" lon="16.0977017"><ele>293.0</ele><time>2026-05-02T17:09:08.702Z</time></trkpt><trkpt lat="40.763975" lon="16.09797"><ele>293.0</ele><time>2026-05-02T17:09:09.7Z</time></trkpt><trkpt lat="40.7641" lon="16.0982433"><ele>295.5</ele><time>2026-05-02T17:09:10.703Z</time></trkpt><trkpt lat="40.7642267" lon="16.0985183"><ele>298.0</ele><time>2026-05-02T17:09:11.702Z</time></trkpt><trkpt lat="40.7643517" lon="16.09879"><ele>293.0</ele><time>2026-05-02T17:09:12.701Z</time></trkpt><trkpt lat="40.7644783" lon="16.0990617"><ele>288.0</ele><time>2026-05-02T17:09:13.701Z</time></trkpt><trkpt lat="40.7646067" lon="16.0993333"><ele>287.0</ele><time>2026-05-02T17:09:14.702Z</time></trkpt><trkpt lat="40.764735" lon="16.0996067"><ele>286.0</ele><time>2026-05-02T17:09:15.702Z</time></trkpt><trkpt lat="40.76486" lon="16.0998833"><ele>284.0</ele><time>2026-05-02T17:09:16.701Z</time></trkpt><trkpt lat="40.7649833" lon="16.1001583"><ele>282.0</ele><time>2026-05-02T17:09:17.701Z</time></trkpt><trkpt lat="40.7651083" lon="16.1004317"><ele>278.0</ele><time>2026-05-02T17:09:18.701Z</time></trkpt><trkpt lat="40.7652317" lon="16.1007033"><ele>274.0</ele><time>2026-05-02T17:09:19.702Z</time></trkpt><trkpt lat="40.7653567" lon="16.1009733"><ele>272.0</ele><time>2026-05-02T17:09:20.704Z</time></trkpt><trkpt lat="40.7654817" lon="16.1012417"><ele>270.0</ele><time>2026-05-02T17:09:21.701Z</time></trkpt><trkpt lat="40.7656067" lon="16.1015083"><ele>269.0</ele><time>2026-05-02T17:09:22.702Z</time></trkpt><trkpt lat="40.7657283" lon="16.1017733"><ele>268.0</ele><time>2026-05-02T17:09:23.701Z</time></trkpt><trkpt lat="40.7658483" lon="16.1020367"><ele>268.0</ele><time>2026-05-02T17:09:24.701Z</time></trkpt><trkpt lat="40.7659683" lon="16.1022983"><ele>268.0</ele><time>2026-05-02T17:09:25.7Z</time></trkpt><trkpt lat="40.7660867" lon="16.1025583"><ele>266.0</ele><time>2026-05-02T17:09:26.701Z</time></trkpt><trkpt lat="40.7662083" lon="16.1028183"><ele>264.0</ele><time>2026-05-02T17:09:27.701Z</time></trkpt><trkpt lat="40.7663283" lon="16.1030817"><ele>264.5</ele><time>2026-05-02T17:09:28.703Z</time></trkpt><trkpt lat="40.7664517" lon="16.103345"><ele>265.0</ele><time>2026-05-02T17:09:29.702Z</time></trkpt><trkpt lat="40.7665733" lon="16.1036083"><ele>265.0</ele><time>2026-05-02T17:09:30.7Z</time></trkpt><trkpt lat="40.7666967" lon="16.1038733"><ele>265.0</ele><time>2026-05-02T17:09:31.702Z</time></trkpt><trkpt lat="40.76682" lon="16.1041383"><ele>263.5</ele><time>2026-05-02T17:09:32.701Z</time></trkpt><trkpt lat="40.766945" lon="16.1044067"><ele>262.0</ele><time>2026-05-02T17:09:33.702Z</time></trkpt><trkpt lat="40.7670683" lon="16.104675"><ele>262.0</ele><time>2026-05-02T17:09:34.7Z</time></trkpt><trkpt lat="40.7671933" lon="16.104945"><ele>262.0</ele><time>2026-05-02T17:09:35.7Z</time></trkpt><trkpt lat="40.7673167" lon="16.1052167"><ele>262.0</ele><time>2026-05-02T17:09:36.702Z</time></trkpt><trkpt lat="40.7674417" lon="16.105485"><ele>262.0</ele><time>2026-05-02T17:09:37.702Z</time></trkpt><trkpt lat="40.7675667" lon="16.1057517"><ele>262.0</ele><time>2026-05-02T17:09:38.702Z</time></trkpt><trkpt lat="40.7676917" lon="16.106015"><ele>262.0</ele><time>2026-05-02T17:09:39.7Z</time></trkpt><trkpt lat="40.7678167" lon="16.1062767"><ele>257.0</ele><time>2026-05-02T17:09:40.702Z</time></trkpt><trkpt lat="40.76794" lon="16.1065367"><ele>252.0</ele><time>2026-05-02T17:09:41.7Z</time></trkpt><trkpt lat="40.7680633" lon="16.1067983"><ele>251.5</ele><time>2026-05-02T17:09:42.701Z</time></trkpt><trkpt lat="40.7681917" lon="16.1070617"><ele>251.0</ele><time>2026-05-02T17:09:43.701Z</time></trkpt><trkpt lat="40.768315" lon="16.107325"><ele>247.5</ele><time>2026-05-02T17:09:44.703Z</time></trkpt><trkpt lat="40.7684367" lon="16.10759"><ele>244.0</ele><time>2026-05-02T17:09:45.702Z</time></trkpt><trkpt lat="40.7685583" lon="16.1078567"><ele>242.5</ele><time>2026-05-02T17:09:46.702Z</time></trkpt><trkpt lat="40.7686817" lon="16.108125"><ele>241.0</ele><time>2026-05-02T17:09:47.701Z</time></trkpt><trkpt lat="40.768805" lon="16.10839"><ele>241.0</ele><time>2026-05-02T17:09:48.7Z</time></trkpt><trkpt lat="40.7689283" lon="16.10866"><ele>241.0</ele><time>2026-05-02T17:09:49.703Z</time></trkpt><trkpt lat="40.7690533" lon="16.10893"><ele>241.0</ele><time>2026-05-02T17:09:50.702Z</time></trkpt><trkpt lat="40.7691767" lon="16.1092"><ele>241.0</ele><time>2026-05-02T17:09:51.703Z</time></trkpt><trkpt lat="40.7693017" lon="16.10947"><ele>240.5</ele><time>2026-05-02T17:09:52.701Z</time></trkpt><trkpt lat="40.7694267" lon="16.10974"><ele>240.0</ele><time>2026-05-02T17:09:53.701Z</time></trkpt><trkpt lat="40.76955" lon="16.1100083"><ele>240.0</ele><time>2026-05-02T17:09:54.702Z</time></trkpt><trkpt lat="40.7696733" lon="16.1102767"><ele>240.0</ele><time>2026-05-02T17:09:55.701Z</time></trkpt><trkpt lat="40.7697933" lon="16.110545"><ele>240.5</ele><time>2026-05-02T17:09:56.701Z</time></trkpt><trkpt lat="40.76991" lon="16.1108183"><ele>241.0</ele><time>2026-05-02T17:09:57.701Z</time></trkpt><trkpt lat="40.77002" lon="16.1110967"><ele>241.0</ele><time>2026-05-02T17:09:58.701Z</time></trkpt><trkpt lat="40.770125" lon="16.11138"><ele>241.0</ele><time>2026-05-02T17:09:59.7Z</time></trkpt><trkpt lat="40.7702233" lon="16.1116683"><ele>240.5</ele><time>2026-05-02T17:10:00.702Z</time></trkpt><trkpt lat="40.7703167" lon="16.1119583"><ele>240.0</ele><time>2026-05-02T17:10:01.702Z</time></trkpt><trkpt lat="40.770405" lon="16.1122517"><ele>239.5</ele><time>2026-05-02T17:10:02.701Z</time></trkpt><trkpt lat="40.7704883" lon="16.1125483"><ele>239.0</ele><time>2026-05-02T17:10:03.7Z</time></trkpt><trkpt lat="40.7705667" lon="16.11285"><ele>239.0</ele><time>2026-05-02T17:10:04.703Z</time></trkpt><trkpt lat="40.7706367" lon="16.1131533"><ele>239.0</ele><time>2026-05-02T17:10:05.701Z</time></trkpt><trkpt lat="40.7707033" lon="16.1134617"><ele>239.5</ele><time>2026-05-02T17:10:06.701Z</time></trkpt><trkpt lat="40.7707633" lon="16.1137733"><ele>240.0</ele><time>2026-05-02T17:10:07.701Z</time></trkpt><trkpt lat="40.7708167" lon="16.1140867"><ele>240.5</ele><time>2026-05-02T17:10:08.703Z</time></trkpt><trkpt lat="40.77087" lon="16.1144017"><ele>241.0</ele><time>2026-05-02T17:10:09.702Z</time></trkpt><trkpt lat="40.7709233" lon="16.114715"><ele>241.5</ele><time>2026-05-02T17:10:10.702Z</time></trkpt><trkpt lat="40.7709767" lon="16.11503"><ele>242.0</ele><time>2026-05-02T17:10:11.701Z</time></trkpt><trkpt lat="40.7710283" lon="16.115345"><ele>242.0</ele><time>2026-05-02T17:10:12.702Z</time></trkpt><trkpt lat="40.7710817" lon="16.11566"><ele>242.0</ele><time>2026-05-02T17:10:13.701Z</time></trkpt><trkpt lat="40.7711333" lon="16.1159767"><ele>242.0</ele><time>2026-05-02T17:10:14.701Z</time></trkpt><trkpt lat="40.7711833" lon="16.1162883"><ele>242.0</ele><time>2026-05-02T17:10:15.703Z</time></trkpt><trkpt lat="40.771235" lon="16.1165983"><ele>242.5</ele><time>2026-05-02T17:10:16.7Z</time></trkpt><trkpt lat="40.7712867" lon="16.1169067"><ele>243.0</ele><time>2026-05-02T17:10:17.702Z</time></trkpt><trkpt lat="40.7713367" lon="16.1172167"><ele>244.0</ele><time>2026-05-02T17:10:18.702Z</time></trkpt><trkpt lat="40.7713867" lon="16.1175267"><ele>245.0</ele><time>2026-05-02T17:10:19.702Z</time></trkpt><trkpt lat="40.7714367" lon="16.1178333"><ele>245.0</ele><time>2026-05-02T17:10:20.701Z</time></trkpt><trkpt lat="40.7714917" lon="16.1181383"><ele>245.0</ele><time>2026-05-02T17:10:21.702Z</time></trkpt><trkpt lat="40.77155" lon="16.11844"><ele>245.0</ele><time>2026-05-02T17:10:22.7Z</time></trkpt><trkpt lat="40.7716217" lon="16.118735"><ele>245.0</ele><time>2026-05-02T17:10:23.701Z</time></trkpt><trkpt lat="40.7717083" lon="16.1190233"><ele>245.0</ele><time>2026-05-02T17:10:24.702Z</time></trkpt><trkpt lat="40.7718117" lon="16.1192983"><ele>245.0</ele><time>2026-05-02T17:10:25.702Z</time></trkpt><trkpt lat="40.7719283" lon="16.11956"><ele>245.0</ele><time>2026-05-02T17:10:26.702Z</time></trkpt><trkpt lat="40.7720583" lon="16.11981"><ele>245.0</ele><time>2026-05-02T17:10:27.701Z</time></trkpt><trkpt lat="40.7722033" lon="16.120045"><ele>245.0</ele><time>2026-05-02T17:10:28.701Z</time></trkpt><trkpt lat="40.7723567" lon="16.1202683"><ele>245.0</ele><time>2026-05-02T17:10:29.702Z</time></trkpt><trkpt lat="40.772515" lon="16.120485"><ele>245.0</ele><time>2026-05-02T17:10:30.702Z</time></trkpt><trkpt lat="40.7726783" lon="16.1206983"><ele>245.0</ele><time>2026-05-02T17:10:31.701Z</time></trkpt><trkpt lat="40.77284" lon="16.12091"><ele>245.5</ele><time>2026-05-02T17:10:32.703Z</time></trkpt><trkpt lat="40.7730017" lon="16.1211217"><ele>246.0</ele><time>2026-05-02T17:10:33.701Z</time></trkpt><trkpt lat="40.77316" lon="16.1213367"><ele>246.0</ele><time>2026-05-02T17:10:34.702Z</time></trkpt><trkpt lat="40.7733117" lon="16.1215567"><ele>246.0</ele><time>2026-05-02T17:10:35.702Z</time></trkpt><trkpt lat="40.77346" lon="16.12178"><ele>247.5</ele><time>2026-05-02T17:10:36.702Z</time></trkpt><trkpt lat="40.7736" lon="16.1220117"><ele>249.0</ele><time>2026-05-02T17:10:37.701Z</time></trkpt><trkpt lat="40.773731" lon="16.1222557"><ele>250.5</ele><time>2026-05-02T17:10:38.702Z</time></trkpt><trkpt lat="40.773847" lon="16.122515"><ele>252.0</ele><time>2026-05-02T17:10:39.702Z</time></trkpt><trkpt lat="40.7739467" lon="16.1227852"><ele>252.0</ele><time>2026-05-02T17:10:40.701Z</time></trkpt><trkpt lat="40.7740341" lon="16.1230651"><ele>252.0</ele><time>2026-05-02T17:10:41.702Z</time></trkpt><trkpt lat="40.7741062" lon="16.123351"><ele>254.5</ele><time>2026-05-02T17:10:42.701Z</time></trkpt><trkpt lat="40.7741653" lon="16.1236432"><ele>257.0</ele><time>2026-05-02T17:10:43.7Z</time></trkpt><trkpt lat="40.7742124" lon="16.1239396"><ele>259.0</ele><time>2026-05-02T17:10:44.702Z</time></trkpt><trkpt lat="40.774252" lon="16.1242388"><ele>261.0</ele><time>2026-05-02T17:10:45.701Z</time></trkpt><trkpt lat="40.7742895" lon="16.1245385"><ele>261.0</ele><time>2026-05-02T17:10:46.706Z</time></trkpt><trkpt lat="40.77433" lon="16.1248401"><ele>261.0</ele><time>2026-05-02T17:10:47.702Z</time></trkpt><trkpt lat="40.774369" lon="16.1251421"><ele>259.0</ele><time>2026-05-02T17:10:48.701Z</time></trkpt><trkpt lat="40.7744087" lon="16.1254442"><ele>257.0</ele><time>2026-05-02T17:10:49.702Z</time></trkpt><trkpt lat="40.7744475" lon="16.1257443"><ele>257.0</ele><time>2026-05-02T17:10:50.703Z</time></trkpt><trkpt lat="40.7744835" lon="16.1260423"><ele>257.0</ele><time>2026-05-02T17:10:51.703Z</time></trkpt><trkpt lat="40.7745199" lon="16.1263391"><ele>259.5</ele><time>2026-05-02T17:10:52.702Z</time></trkpt><trkpt lat="40.7745541" lon="16.1266345"><ele>262.0</ele><time>2026-05-02T17:10:53.703Z</time></trkpt><trkpt lat="40.7745922" lon="16.1269287"><ele>262.0</ele><time>2026-05-02T17:10:54.702Z</time></trkpt><trkpt lat="40.7746293" lon="16.127221"><ele>262.0</ele><time>2026-05-02T17:10:55.701Z</time></trkpt><trkpt lat="40.7746674" lon="16.1275154"><ele>262.5</ele><time>2026-05-02T17:10:56.702Z</time></trkpt><trkpt lat="40.7747102" lon="16.1278087"><ele>263.0</ele><time>2026-05-02T17:10:57.702Z</time></trkpt><trkpt lat="40.7747605" lon="16.1281021"><ele>265.0</ele><time>2026-05-02T17:10:58.701Z</time></trkpt><trkpt lat="40.7748222" lon="16.1283922"><ele>267.0</ele><time>2026-05-02T17:10:59.702Z</time></trkpt><trkpt lat="40.7749012" lon="16.1286707"><ele>267.0</ele><time>2026-05-02T17:11:00.701Z</time></trkpt><trkpt lat="40.7749964" lon="16.1289359"><ele>267.0</ele><time>2026-05-02T17:11:01.701Z</time></trkpt><trkpt lat="40.775108" lon="16.1291874"><ele>267.0</ele><time>2026-05-02T17:11:02.702Z</time></trkpt><trkpt lat="40.7752316" lon="16.1294271"><ele>266.6666666666667</ele><time>2026-05-02T17:11:03.702Z</time></trkpt><trkpt lat="40.775368" lon="16.1296573"><ele>266.33333333333337</ele><time>2026-05-02T17:11:04.701Z</time></trkpt><trkpt lat="40.7755163" lon="16.1298707"><ele>266.0</ele><time>2026-05-02T17:11:05.702Z</time></trkpt><trkpt lat="40.775677" lon="16.1300638"><ele>266.0</ele><time>2026-05-02T17:11:06.706Z</time></trkpt><trkpt lat="40.7758466" lon="16.1302325"><ele>266.0</ele><time>2026-05-02T17:11:07.702Z</time></trkpt><trkpt lat="40.7760277" lon="16.1303796"><ele>266.0</ele><time>2026-05-02T17:11:08.702Z</time></trkpt><trkpt lat="40.7762165" lon="16.1305049"><ele>266.0</ele><time>2026-05-02T17:11:09.701Z</time></trkpt><trkpt lat="40.7764094" lon="16.1306165"><ele>266.0</ele><time>2026-05-02T17:11:10.701Z</time></trkpt><trkpt lat="40.7766067" lon="16.1307133"><ele>266.0</ele><time>2026-05-02T17:11:11.701Z</time></trkpt><trkpt lat="40.7768083" lon="16.1308017"><ele>265.6666666666667</ele><time>2026-05-02T17:11:12.701Z</time></trkpt><trkpt lat="40.7770117" lon="16.130885"><ele>265.3333333333333</ele><time>2026-05-02T17:11:13.702Z</time></trkpt><trkpt lat="40.7772133" lon="16.1309717"><ele>265.0</ele><time>2026-05-02T17:11:14.702Z</time></trkpt><trkpt lat="40.7774133" lon="16.1310583"><ele>265.0</ele><time>2026-05-02T17:11:15.701Z</time></trkpt><trkpt lat="40.777615" lon="16.1311467"><ele>265.0</ele><time>2026-05-02T17:11:16.701Z</time></trkpt><trkpt lat="40.77782" lon="16.131235"><ele>265.0</ele><time>2026-05-02T17:11:17.701Z</time></trkpt><trkpt lat="40.7780233" lon="16.1313233"><ele>265.3333333333333</ele><time>2026-05-02T17:11:18.702Z</time></trkpt><trkpt lat="40.7782283" lon="16.1314117"><ele>265.6666666666667</ele><time>2026-05-02T17:11:19.702Z</time></trkpt><trkpt lat="40.778435" lon="16.1315017"><ele>266.0</ele><time>2026-05-02T17:11:20.703Z</time></trkpt><trkpt lat="40.7786417" lon="16.13159"><ele>266.0</ele><time>2026-05-02T17:11:21.701Z</time></trkpt><trkpt lat="40.7788483" lon="16.1316783"><ele>266.0</ele><time>2026-05-02T17:11:22.701Z</time></trkpt><trkpt lat="40.7790567" lon="16.1317667"><ele>266.0</ele><time>2026-05-02T17:11:23.703Z</time></trkpt><trkpt lat="40.779265" lon="16.1318567"><ele>268.0</ele><time>2026-05-02T17:11:24.702Z</time></trkpt><trkpt lat="40.779475" lon="16.131945"><ele>270.0</ele><time>2026-05-02T17:11:25.702Z</time></trkpt><trkpt lat="40.7796833" lon="16.1320367"><ele>272.0</ele><time>2026-05-02T17:11:26.701Z</time></trkpt><trkpt lat="40.77989" lon="16.13214"><ele>272.0</ele><time>2026-05-02T17:11:27.701Z</time></trkpt><trkpt lat="40.7800917" lon="16.1322533"><ele>272.0</ele><time>2026-05-02T17:11:28.701Z</time></trkpt><trkpt lat="40.780285" lon="16.13238"><ele>272.0</ele><time>2026-05-02T17:11:29.7Z</time></trkpt><trkpt lat="40.7804717" lon="16.1325217"><ele>271.33333333333337</ele><time>2026-05-02T17:11:30.7Z</time></trkpt><trkpt lat="40.78065" lon="16.13268"><ele>270.6666666666667</ele><time>2026-05-02T17:11:31.701Z</time></trkpt><trkpt lat="40.7808183" lon="16.13286"><ele>270.0</ele><time>2026-05-02T17:11:32.702Z</time></trkpt><trkpt lat="40.7809767" lon="16.1330567"><ele>271.3333333333333</ele><time>2026-05-02T17:11:33.701Z</time></trkpt><trkpt lat="40.781125" lon="16.13327"><ele>272.66666666666663</ele><time>2026-05-02T17:11:34.701Z</time></trkpt><trkpt lat="40.7812617" lon="16.1335033"><ele>274.0</ele><time>2026-05-02T17:11:35.701Z</time></trkpt><trkpt lat="40.78139" lon="16.1337483"><ele>274.0</ele><time>2026-05-02T17:11:36.702Z</time></trkpt><trkpt lat="40.7815067" lon="16.1340067"><ele>274.0</ele><time>2026-05-02T17:11:37.7Z</time></trkpt><trkpt lat="40.78162" lon="16.13427"><ele>271.0</ele><time>2026-05-02T17:11:38.701Z</time></trkpt><trkpt lat="40.78173" lon="16.1345317"><ele>268.0</ele><time>2026-05-02T17:11:39.701Z</time></trkpt><trkpt lat="40.78184" lon="16.1347917"><ele>269.3333333333333</ele><time>2026-05-02T17:11:40.702Z</time></trkpt><trkpt lat="40.7819533" lon="16.1350467"><ele>270.6666666666667</ele><time>2026-05-02T17:11:41.701Z</time></trkpt><trkpt lat="40.7820633" lon="16.1353033"><ele>272.0</ele><time>2026-05-02T17:11:42.7Z</time></trkpt><trkpt lat="40.7821717" lon="16.1355633"><ele>273.0</ele><time>2026-05-02T17:11:43.7Z</time></trkpt><trkpt lat="40.7822783" lon="16.1358233"><ele>274.0</ele><time>2026-05-02T17:11:44.702Z</time></trkpt><trkpt lat="40.7823867" lon="16.13608"><ele>275.0</ele><time>2026-05-02T17:11:45.702Z</time></trkpt><trkpt lat="40.7824935" lon="16.1363362"><ele>275.33333333333337</ele><time>2026-05-02T17:11:46.7Z</time></trkpt><trkpt lat="40.7826003" lon="16.1365905"><ele>275.6666666666667</ele><time>2026-05-02T17:11:47.701Z</time></trkpt><trkpt lat="40.782709" lon="16.1368433"><ele>276.0</ele><time>2026-05-02T17:11:48.702Z</time></trkpt><trkpt lat="40.7828174" lon="16.137095"><ele>277.3333333333333</ele><time>2026-05-02T17:11:49.702Z</time></trkpt><trkpt lat="40.7829269" lon="16.1373453"><ele>278.66666666666663</ele><time>2026-05-02T17:11:50.702Z</time></trkpt><trkpt lat="40.7830412" lon="16.1375938"><ele>280.0</ele><time>2026-05-02T17:11:51.702Z</time></trkpt><trkpt lat="40.7831561" lon="16.1378422"><ele>280.3333333333333</ele><time>2026-05-02T17:11:52.702Z</time></trkpt><trkpt lat="40.7832721" lon="16.13809"><ele>280.6666666666667</ele><time>2026-05-02T17:11:53.703Z</time></trkpt><trkpt lat="40.7833885" lon="16.1383368"><ele>281.0</ele><time>2026-05-02T17:11:54.702Z</time></trkpt><trkpt lat="40.7835054" lon="16.1385876"><ele>282.33333333333337</ele><time>2026-05-02T17:11:55.702Z</time></trkpt><trkpt lat="40.7836234" lon="16.1388392"><ele>283.6666666666667</ele><time>2026-05-02T17:11:56.701Z</time></trkpt><trkpt lat="40.7837391" lon="16.139088"><ele>285.0</ele><time>2026-05-02T17:11:57.701Z</time></trkpt><trkpt lat="40.7838542" lon="16.1393352"><ele>285.6666666666667</ele><time>2026-05-02T17:11:58.701Z</time></trkpt><trkpt lat="40.7839707" lon="16.1395835"><ele>286.33333333333337</ele><time>2026-05-02T17:11:59.701Z</time></trkpt><trkpt lat="40.7840894" lon="16.1398313"><ele>287.0</ele><time>2026-05-02T17:12:00.701Z</time></trkpt><trkpt lat="40.7842084" lon="16.140083"><ele>288.5</ele><time>2026-05-02T17:12:01.7Z</time></trkpt><trkpt lat="40.7843272" lon="16.1403367"><ele>290.0</ele><time>2026-05-02T17:12:02.701Z</time></trkpt><trkpt lat="40.7844472" lon="16.140593"><ele>289.5</ele><time>2026-05-02T17:12:03.702Z</time></trkpt><trkpt lat="40.7845674" lon="16.1408523"><ele>289.0</ele><time>2026-05-02T17:12:04.701Z</time></trkpt><trkpt lat="40.7846876" lon="16.1411124"><ele>289.0</ele><time>2026-05-02T17:12:05.7Z</time></trkpt><trkpt lat="40.7848103" lon="16.1413732"><ele>289.0</ele><time>2026-05-02T17:12:06.701Z</time></trkpt><trkpt lat="40.7849334" lon="16.1416347"><ele>289.0</ele><time>2026-05-02T17:12:07.7Z</time></trkpt><trkpt lat="40.7850558" lon="16.1418967"><ele>289.0</ele><time>2026-05-02T17:12:08.701Z</time></trkpt><trkpt lat="40.7851788" lon="16.1421598"><ele>286.0</ele><time>2026-05-02T17:12:09.702Z</time></trkpt><trkpt lat="40.7853023" lon="16.1424233"><ele>283.0</ele><time>2026-05-02T17:12:10.7Z</time></trkpt><trkpt lat="40.785428" lon="16.1426893"><ele>283.0</ele><time>2026-05-02T17:12:11.7Z</time></trkpt><trkpt lat="40.785555" lon="16.142958"><ele>283.0</ele><time>2026-05-02T17:12:12.701Z</time></trkpt><trkpt lat="40.7856792" lon="16.1432262"><ele>282.5</ele><time>2026-05-02T17:12:13.702Z</time></trkpt><trkpt lat="40.785803" lon="16.1434982"><ele>282.0</ele><time>2026-05-02T17:12:14.702Z</time></trkpt><trkpt lat="40.7859257" lon="16.1437712"><ele>282.5</ele><time>2026-05-02T17:12:15.7Z</time></trkpt><trkpt lat="40.7860485" lon="16.1440417"><ele>283.0</ele><time>2026-05-02T17:12:16.701Z</time></trkpt><trkpt lat="40.7861727" lon="16.1443087"><ele>283.0</ele><time>2026-05-02T17:12:17.701Z</time></trkpt><trkpt lat="40.786296" lon="16.1445724"><ele>283.0</ele><time>2026-05-02T17:12:18.702Z</time></trkpt><trkpt lat="40.7864204" lon="16.1448356"><ele>280.5</ele><time>2026-05-02T17:12:19.701Z</time></trkpt><trkpt lat="40.786545" lon="16.1450974"><ele>278.0</ele><time>2026-05-02T17:12:20.702Z</time></trkpt><trkpt lat="40.7866686" lon="16.1453546"><ele>278.0</ele><time>2026-05-02T17:12:21.701Z</time></trkpt><trkpt lat="40.7867908" lon="16.1456062"><ele>278.0</ele><time>2026-05-02T17:12:22.701Z</time></trkpt><trkpt lat="40.7869138" lon="16.1458532"><ele>278.0</ele><time>2026-05-02T17:12:23.703Z</time></trkpt><trkpt lat="40.7870445" lon="16.1460907"><ele>278.0</ele><time>2026-05-02T17:12:24.702Z</time></trkpt><trkpt lat="40.787183" lon="16.146315"><ele>278.0</ele><time>2026-05-02T17:12:25.701Z</time></trkpt><trkpt lat="40.787334" lon="16.1465201"><ele>276.6666666666667</ele><time>2026-05-02T17:12:26.702Z</time></trkpt><trkpt lat="40.7874957" lon="16.1467093"><ele>275.3333333333333</ele><time>2026-05-02T17:12:27.701Z</time></trkpt><trkpt lat="40.7876699" lon="16.1468795"><ele>274.0</ele><time>2026-05-02T17:12:28.704Z</time></trkpt><trkpt lat="40.7878572" lon="16.1470303"><ele>273.66666666666663</ele><time>2026-05-02T17:12:29.703Z</time></trkpt><trkpt lat="40.7880542" lon="16.1471674"><ele>273.3333333333333</ele><time>2026-05-02T17:12:30.701Z</time></trkpt><trkpt lat="40.7882596" lon="16.1472908"><ele>273.0</ele><time>2026-05-02T17:12:31.702Z</time></trkpt><trkpt lat="40.7884688" lon="16.1474059"><ele>271.0</ele><time>2026-05-02T17:12:32.702Z</time></trkpt><trkpt lat="40.7886793" lon="16.1475172"><ele>269.0</ele><time>2026-05-02T17:12:33.701Z</time></trkpt><trkpt lat="40.788891" lon="16.1476298"><ele>269.0</ele><time>2026-05-02T17:12:34.701Z</time></trkpt><trkpt lat="40.7891017" lon="16.1477443"><ele>269.0</ele><time>2026-05-02T17:12:35.703Z</time></trkpt><trkpt lat="40.7893118" lon="16.1478591"><ele>268.5</ele><time>2026-05-02T17:12:36.703Z</time></trkpt><trkpt lat="40.7895217" lon="16.1479727"><ele>268.0</ele><time>2026-05-02T17:12:37.702Z</time></trkpt><trkpt lat="40.7897329" lon="16.1480849"><ele>268.0</ele><time>2026-05-02T17:12:38.703Z</time></trkpt><trkpt lat="40.7899444" lon="16.148198"><ele>268.0</ele><time>2026-05-02T17:12:39.703Z</time></trkpt><trkpt lat="40.7901548" lon="16.14831"><ele>270.0</ele><time>2026-05-02T17:12:40.702Z</time></trkpt><trkpt lat="40.7903662" lon="16.1484229"><ele>272.0</ele><time>2026-05-02T17:12:41.701Z</time></trkpt><trkpt lat="40.7905767" lon="16.1485387"><ele>272.0</ele><time>2026-05-02T17:12:42.702Z</time></trkpt><trkpt lat="40.7907856" lon="16.1486551"><ele>272.0</ele><time>2026-05-02T17:12:43.702Z</time></trkpt><trkpt lat="40.7909953" lon="16.1487705"><ele>275.0</ele><time>2026-05-02T17:12:44.703Z</time></trkpt><trkpt lat="40.7912039" lon="16.1488856"><ele>278.0</ele><time>2026-05-02T17:12:45.702Z</time></trkpt><trkpt lat="40.7914123" lon="16.1489993"><ele>276.0</ele><time>2026-05-02T17:12:46.701Z</time></trkpt><trkpt lat="40.7916221" lon="16.1491129"><ele>274.0</ele><time>2026-05-02T17:12:47.702Z</time></trkpt><trkpt lat="40.7918305" lon="16.1492262"><ele>275.0</ele><time>2026-05-02T17:12:48.701Z</time></trkpt><trkpt lat="40.7920344" lon="16.1493405"><ele>276.0</ele><time>2026-05-02T17:12:49.702Z</time></trkpt><trkpt lat="40.7922275" lon="16.1494595"><ele>277.0</ele><time>2026-05-02T17:12:50.703Z</time></trkpt><trkpt lat="40.7924066" lon="16.1495884"><ele>277.0</ele><time>2026-05-02T17:12:51.702Z</time></trkpt><trkpt lat="40.7925767" lon="16.1497367"><ele>277.0</ele><time>2026-05-02T17:12:52.704Z</time></trkpt><trkpt lat="40.7927417" lon="16.1499017"><ele>277.0</ele><time>2026-05-02T17:12:53.706Z</time></trkpt><trkpt lat="40.7928983" lon="16.1500883"><ele>276.0</ele><time>2026-05-02T17:12:54.702Z</time></trkpt><trkpt lat="40.7930433" lon="16.1502883"><ele>275.0</ele><time>2026-05-02T17:12:55.702Z</time></trkpt><trkpt lat="40.793175" lon="16.1504983"><ele>274.0</ele><time>2026-05-02T17:12:56.703Z</time></trkpt><trkpt lat="40.79329" lon="16.1507217"><ele>274.3333333333333</ele><time>2026-05-02T17:12:57.701Z</time></trkpt><trkpt lat="40.7933917" lon="16.150955"><ele>274.6666666666667</ele><time>2026-05-02T17:12:58.701Z</time></trkpt><trkpt lat="40.7934767" lon="16.1512017"><ele>275.0</ele><time>2026-05-02T17:12:59.702Z</time></trkpt><trkpt lat="40.79355" lon="16.15146"><ele>274.0</ele><time>2026-05-02T17:13:00.703Z</time></trkpt><trkpt lat="40.7936083" lon="16.1517317"><ele>273.0</ele><time>2026-05-02T17:13:01.701Z</time></trkpt><trkpt lat="40.7936533" lon="16.15201"><ele>272.0</ele><time>2026-05-02T17:13:02.704Z</time></trkpt><trkpt lat="40.7936783" lon="16.1522967"><ele>270.6666666666667</ele><time>2026-05-02T17:13:03.701Z</time></trkpt><trkpt lat="40.79369" lon="16.1525867"><ele>269.3333333333333</ele><time>2026-05-02T17:13:04.701Z</time></trkpt><trkpt lat="40.7936883" lon="16.1528817"><ele>268.0</ele><time>2026-05-02T17:13:05.701Z</time></trkpt><trkpt lat="40.7936767" lon="16.1531783"><ele>266.5</ele><time>2026-05-02T17:13:06.701Z</time></trkpt><trkpt lat="40.7936633" lon="16.1534783"><ele>265.0</ele><time>2026-05-02T17:13:07.703Z</time></trkpt><trkpt lat="40.79365" lon="16.15378"><ele>265.5</ele><time>2026-05-02T17:13:08.703Z</time></trkpt><trkpt lat="40.793635" lon="16.1540817"><ele>266.0</ele><time>2026-05-02T17:13:09.703Z</time></trkpt><trkpt lat="40.7936217" lon="16.154385"><ele>266.0</ele><time>2026-05-02T17:13:10.702Z</time></trkpt><trkpt lat="40.7936117" lon="16.1546883"><ele>266.0</ele><time>2026-05-02T17:13:11.702Z</time></trkpt><trkpt lat="40.7936067" lon="16.1549917"><ele>266.5</ele><time>2026-05-02T17:13:12.701Z</time></trkpt><trkpt lat="40.7936133" lon="16.1552967"><ele>267.0</ele><time>2026-05-02T17:13:13.703Z</time></trkpt><trkpt lat="40.7936317" lon="16.1555983"><ele>266.0</ele><time>2026-05-02T17:13:14.703Z</time></trkpt><trkpt lat="40.7936667" lon="16.1558967"><ele>265.0</ele><time>2026-05-02T17:13:15.701Z</time></trkpt><trkpt lat="40.7937183" lon="16.1561917"><ele>265.0</ele><time>2026-05-02T17:13:16.701Z</time></trkpt><trkpt lat="40.7937817" lon="16.1564833"><ele>265.0</ele><time>2026-05-02T17:13:17.702Z</time></trkpt><trkpt lat="40.793855" lon="16.1567683"><ele>264.0</ele><time>2026-05-02T17:13:18.701Z</time></trkpt><trkpt lat="40.7939433" lon="16.1570433"><ele>263.0</ele><time>2026-05-02T17:13:19.702Z</time></trkpt><trkpt lat="40.79405" lon="16.15731"><ele>257.5</ele><time>2026-05-02T17:13:20.702Z</time></trkpt><trkpt lat="40.79417" lon="16.1575683"><ele>252.0</ele><time>2026-05-02T17:13:21.702Z</time></trkpt><trkpt lat="40.794295" lon="16.15782"><ele>252.0</ele><time>2026-05-02T17:13:22.703Z</time></trkpt><trkpt lat="40.7944167" lon="16.15806"><ele>252.0</ele><time>2026-05-02T17:13:23.703Z</time></trkpt><trkpt lat="40.794535" lon="16.1582917"><ele>252.0</ele><time>2026-05-02T17:13:24.702Z</time></trkpt><trkpt lat="40.7946417" lon="16.158525"><ele>251.66666666666669</ele><time>2026-05-02T17:13:25.702Z</time></trkpt><trkpt lat="40.79474" lon="16.1587633"><ele>251.33333333333334</ele><time>2026-05-02T17:13:26.703Z</time></trkpt><trkpt lat="40.7948283" lon="16.1590117"><ele>251.0</ele><time>2026-05-02T17:13:27.702Z</time></trkpt><trkpt lat="40.7948983" lon="16.15927"><ele>250.66666666666669</ele><time>2026-05-02T17:13:28.701Z</time></trkpt><trkpt lat="40.794955" lon="16.1595367"><ele>250.33333333333331</ele><time>2026-05-02T17:13:29.702Z</time></trkpt><trkpt lat="40.7949967" lon="16.15981"><ele>250.0</ele><time>2026-05-02T17:13:30.703Z</time></trkpt><trkpt lat="40.7950233" lon="16.1600933"><ele>250.0</ele><time>2026-05-02T17:13:31.701Z</time></trkpt><trkpt lat="40.795035" lon="16.1603833"><ele>250.0</ele><time>2026-05-02T17:13:32.702Z</time></trkpt><trkpt lat="40.7950233" lon="16.160675"><ele>250.0</ele><time>2026-05-02T17:13:33.701Z</time></trkpt><trkpt lat="40.7949967" lon="16.1609733"><ele>249.5</ele><time>2026-05-02T17:13:34.702Z</time></trkpt><trkpt lat="40.7949567" lon="16.1612733"><ele>249.0</ele><time>2026-05-02T17:13:35.702Z</time></trkpt><trkpt lat="40.794915" lon="16.161565"><ele>249.66666666666669</ele><time>2026-05-02T17:13:36.702Z</time></trkpt><trkpt lat="40.7948717" lon="16.1618517"><ele>250.33333333333334</ele><time>2026-05-02T17:13:37.702Z</time></trkpt><trkpt lat="40.7948267" lon="16.1621333"><ele>251.0</ele><time>2026-05-02T17:13:38.703Z</time></trkpt><trkpt lat="40.7947683" lon="16.16241"><ele>251.33333333333334</ele><time>2026-05-02T17:13:39.702Z</time></trkpt><trkpt lat="40.7946983" lon="16.1626833"><ele>251.66666666666669</ele><time>2026-05-02T17:13:40.701Z</time></trkpt><trkpt lat="40.7946167" lon="16.1629517"><ele>252.0</ele><time>2026-05-02T17:13:41.701Z</time></trkpt><trkpt lat="40.7945217" lon="16.1632183"><ele>251.0</ele><time>2026-05-02T17:13:42.702Z</time></trkpt><trkpt lat="40.7944133" lon="16.1634817"><ele>250.0</ele><time>2026-05-02T17:13:43.701Z</time></trkpt><trkpt lat="40.7942967" lon="16.1637433"><ele>250.0</ele><time>2026-05-02T17:13:44.702Z</time></trkpt><trkpt lat="40.79418" lon="16.1640067"><ele>250.0</ele><time>2026-05-02T17:13:45.701Z</time></trkpt><trkpt lat="40.794065" lon="16.16427"><ele>249.5</ele><time>2026-05-02T17:13:46.701Z</time></trkpt><trkpt lat="40.7939517" lon="16.1645333"><ele>249.0</ele><time>2026-05-02T17:13:47.702Z</time></trkpt><trkpt lat="40.79384" lon="16.1647933"><ele>250.0</ele><time>2026-05-02T17:13:48.702Z</time></trkpt><trkpt lat="40.79373" lon="16.1650483"><ele>251.0</ele><time>2026-05-02T17:13:49.704Z</time></trkpt><trkpt lat="40.7936217" lon="16.1652967"><ele>252.0</ele><time>2026-05-02T17:13:50.703Z</time></trkpt><trkpt lat="40.793515" lon="16.165535"><ele>251.66666666666669</ele><time>2026-05-02T17:13:51.703Z</time></trkpt><trkpt lat="40.7934133" lon="16.1657633"><ele>251.33333333333334</ele><time>2026-05-02T17:13:52.703Z</time></trkpt><trkpt lat="40.793315" lon="16.1659833"><ele>251.0</ele><time>2026-05-02T17:13:53.702Z</time></trkpt><trkpt lat="40.7932133" lon="16.1662083"><ele>251.0</ele><time>2026-05-02T17:13:54.701Z</time></trkpt><trkpt lat="40.7931083" lon="16.16644"><ele>251.0</ele><time>2026-05-02T17:13:55.703Z</time></trkpt><trkpt lat="40.793005" lon="16.1666783"><ele>251.0</ele><time>2026-05-02T17:13:56.703Z</time></trkpt><trkpt lat="40.7928967" lon="16.16692"><ele>252.66666666666669</ele><time>2026-05-02T17:13:57.702Z</time></trkpt><trkpt lat="40.79279" lon="16.167165"><ele>254.33333333333331</ele><time>2026-05-02T17:13:58.702Z</time></trkpt><trkpt lat="40.7926817" lon="16.1674117"><ele>256.0</ele><time>2026-05-02T17:13:59.702Z</time></trkpt><trkpt lat="40.7925717" lon="16.1676583"><ele>256.66666666666663</ele><time>2026-05-02T17:14:00.701Z</time></trkpt><trkpt lat="40.7924633" lon="16.1679083"><ele>257.3333333333333</ele><time>2026-05-02T17:14:01.702Z</time></trkpt><trkpt lat="40.7923567" lon="16.1681533"><ele>258.0</ele><time>2026-05-02T17:14:02.703Z</time></trkpt><trkpt lat="40.79225" lon="16.1683983"><ele>259.3333333333333</ele><time>2026-05-02T17:14:03.702Z</time></trkpt><trkpt lat="40.7921433" lon="16.1686483"><ele>260.66666666666663</ele><time>2026-05-02T17:14:04.702Z</time></trkpt><trkpt lat="40.7920367" lon="16.1688983"><ele>262.0</ele><time>2026-05-02T17:14:05.705Z</time></trkpt><trkpt lat="40.79193" lon="16.16914"><ele>261.3333333333333</ele><time>2026-05-02T17:14:06.702Z</time></trkpt><trkpt lat="40.7918233" lon="16.1693767"><ele>260.6666666666667</ele><time>2026-05-02T17:14:07.702Z</time></trkpt><trkpt lat="40.7917167" lon="16.169615"><ele>260.0</ele><time>2026-05-02T17:14:08.703Z</time></trkpt><trkpt lat="40.7916083" lon="16.169855"><ele>262.6666666666667</ele><time>2026-05-02T17:14:09.701Z</time></trkpt><trkpt lat="40.791495" lon="16.1700983"><ele>265.3333333333333</ele><time>2026-05-02T17:14:10.701Z</time></trkpt><trkpt lat="40.79138" lon="16.170335"><ele>268.0</ele><time>2026-05-02T17:14:11.702Z</time></trkpt><trkpt lat="40.79126" lon="16.17056"><ele>267.0</ele><time>2026-05-02T17:14:12.701Z</time></trkpt><trkpt lat="40.79114" lon="16.1707767"><ele>266.0</ele><time>2026-05-02T17:14:13.702Z</time></trkpt><trkpt lat="40.791015" lon="16.1709933"><ele>265.0</ele><time>2026-05-02T17:14:14.702Z</time></trkpt><trkpt lat="40.7908883" lon="16.171215"><ele>265.0</ele><time>2026-05-02T17:14:15.701Z</time></trkpt><trkpt lat="40.79076" lon="16.17144"><ele>265.0</ele><time>2026-05-02T17:14:16.701Z</time></trkpt><trkpt lat="40.7906317" lon="16.1716667"><ele>265.0</ele><time>2026-05-02T17:14:17.701Z</time></trkpt><trkpt lat="40.7905067" lon="16.17189"><ele>268.66666666666663</ele><time>2026-05-02T17:14:18.701Z</time></trkpt><trkpt lat="40.7903817" lon="16.1721167"><ele>272.3333333333333</ele><time>2026-05-02T17:14:19.702Z</time></trkpt><trkpt lat="40.7902567" lon="16.1723433"><ele>276.0</ele><time>2026-05-02T17:14:20.702Z</time></trkpt><trkpt lat="40.79013" lon="16.1725667"><ele>276.0</ele><time>2026-05-02T17:14:21.702Z</time></trkpt><trkpt lat="40.7900033" lon="16.1727917"><ele>276.0</ele><time>2026-05-02T17:14:22.702Z</time></trkpt><trkpt lat="40.789875" lon="16.1730217"><ele>276.0</ele><time>2026-05-02T17:14:23.701Z</time></trkpt><trkpt lat="40.789745" lon="16.17325"><ele>275.6666666666667</ele><time>2026-05-02T17:14:24.701Z</time></trkpt><trkpt lat="40.789615" lon="16.1734767"><ele>275.33333333333337</ele><time>2026-05-02T17:14:25.703Z</time></trkpt><trkpt lat="40.7894867" lon="16.1737017"><ele>275.0</ele><time>2026-05-02T17:14:26.702Z</time></trkpt><trkpt lat="40.7893617" lon="16.1739233"><ele>274.0</ele><time>2026-05-02T17:14:27.703Z</time></trkpt><trkpt lat="40.7892367" lon="16.1741467"><ele>273.0</ele><time>2026-05-02T17:14:28.701Z</time></trkpt><trkpt lat="40.7891117" lon="16.1743717"><ele>272.0</ele><time>2026-05-02T17:14:29.702Z</time></trkpt><trkpt lat="40.7889833" lon="16.1745983"><ele>272.0</ele><time>2026-05-02T17:14:30.701Z</time></trkpt><trkpt lat="40.7888517" lon="16.1748267"><ele>272.0</ele><time>2026-05-02T17:14:31.703Z</time></trkpt><trkpt lat="40.7887233" lon="16.1750517"><ele>272.0</ele><time>2026-05-02T17:14:32.702Z</time></trkpt><trkpt lat="40.7885917" lon="16.17528"><ele>270.6666666666667</ele><time>2026-05-02T17:14:33.701Z</time></trkpt><trkpt lat="40.7884633" lon="16.1755083"><ele>269.3333333333333</ele><time>2026-05-02T17:14:34.702Z</time></trkpt><trkpt lat="40.7883317" lon="16.1757383"><ele>268.0</ele><time>2026-05-02T17:14:35.702Z</time></trkpt><trkpt lat="40.788195" lon="16.175965"><ele>267.66666666666663</ele><time>2026-05-02T17:14:36.701Z</time></trkpt><trkpt lat="40.788055" lon="16.1761833"><ele>267.3333333333333</ele><time>2026-05-02T17:14:37.703Z</time></trkpt><trkpt lat="40.7879117" lon="16.1763883"><ele>267.0</ele><time>2026-05-02T17:14:38.703Z</time></trkpt><trkpt lat="40.7877633" lon="16.1765717"><ele>265.6666666666667</ele><time>2026-05-02T17:14:39.702Z</time></trkpt><trkpt lat="40.7876133" lon="16.1767383"><ele>264.33333333333337</ele><time>2026-05-02T17:14:40.701Z</time></trkpt><trkpt lat="40.78746" lon="16.1768883"><ele>263.0</ele><time>2026-05-02T17:14:41.702Z</time></trkpt><trkpt lat="40.787305" lon="16.1770217"><ele>263.0</ele><time>2026-05-02T17:14:42.701Z</time></trkpt><trkpt lat="40.78715" lon="16.177135"><ele>263.0</ele><time>2026-05-02T17:14:43.703Z</time></trkpt><trkpt lat="40.7869917" lon="16.1772333"><ele>263.0</ele><time>2026-05-02T17:14:44.702Z</time></trkpt><trkpt lat="40.7868383" lon="16.1773167"><ele>261.6666666666667</ele><time>2026-05-02T17:14:45.701Z</time></trkpt><trkpt lat="40.7866883" lon="16.17739"><ele>260.3333333333333</ele><time>2026-05-02T17:14:46.702Z</time></trkpt><trkpt lat="40.78654" lon="16.17745"><ele>259.0</ele><time>2026-05-02T17:14:47.701Z</time></trkpt><trkpt lat="40.786395" lon="16.1775"><ele>259.0</ele><time>2026-05-02T17:14:48.701Z</time></trkpt><trkpt lat="40.7862467" lon="16.1775417"><ele>259.0</ele><time>2026-05-02T17:14:49.702Z</time></trkpt><trkpt lat="40.7861017" lon="16.177575"><ele>259.0</ele><time>2026-05-02T17:14:50.704Z</time></trkpt><trkpt lat="40.7859567" lon="16.1776"><ele>259.0</ele><time>2026-05-02T17:14:51.702Z</time></trkpt><trkpt lat="40.7858133" lon="16.1776183"><ele>258.0</ele><time>2026-05-02T17:14:52.701Z</time></trkpt><trkpt lat="40.78567" lon="16.1776283"><ele>257.0</ele><time>2026-05-02T17:14:53.702Z</time></trkpt><trkpt lat="40.7855183" lon="16.177625"><ele>256.0</ele><time>2026-05-02T17:14:54.702Z</time></trkpt><trkpt lat="40.7853533" lon="16.1776083"><ele>254.33333333333331</ele><time>2026-05-02T17:14:55.702Z</time></trkpt><trkpt lat="40.785175" lon="16.1775817"><ele>252.66666666666669</ele><time>2026-05-02T17:14:56.702Z</time></trkpt><trkpt lat="40.784985" lon="16.17755"><ele>251.0</ele><time>2026-05-02T17:14:57.701Z</time></trkpt><trkpt lat="40.7847833" lon="16.1775133"><ele>251.0</ele><time>2026-05-02T17:14:58.702Z</time></trkpt><trkpt lat="40.7845717" lon="16.1774767"><ele>251.0</ele><time>2026-05-02T17:14:59.701Z</time></trkpt><trkpt lat="40.784355" lon="16.1774433"><ele>251.0</ele><time>2026-05-02T17:15:00.702Z</time></trkpt><trkpt lat="40.7841367" lon="16.1774117"><ele>247.66666666666669</ele><time>2026-05-02T17:15:01.7Z</time></trkpt><trkpt lat="40.783915" lon="16.1773817"><ele>244.33333333333331</ele><time>2026-05-02T17:15:02.702Z</time></trkpt><trkpt lat="40.78369" lon="16.1773533"><ele>241.0</ele><time>2026-05-02T17:15:03.701Z</time></trkpt><trkpt lat="40.783465" lon="16.177345"><ele>240.5</ele><time>2026-05-02T17:15:04.702Z</time></trkpt><trkpt lat="40.7832383" lon="16.1773567"><ele>240.0</ele><time>2026-05-02T17:15:05.702Z</time></trkpt><trkpt lat="40.7830117" lon="16.1773883"><ele>240.0</ele><time>2026-05-02T17:15:06.702Z</time></trkpt><trkpt lat="40.78279" lon="16.17744"><ele>240.0</ele><time>2026-05-02T17:15:07.702Z</time></trkpt><trkpt lat="40.7825733" lon="16.1775117"><ele>240.0</ele><time>2026-05-02T17:15:08.704Z</time></trkpt><trkpt lat="40.782363" lon="16.1775995"><ele>239.66666666666669</ele><time>2026-05-02T17:15:09.701Z</time></trkpt><trkpt lat="40.7821578" lon="16.1777044"><ele>239.33333333333334</ele><time>2026-05-02T17:15:10.701Z</time></trkpt><trkpt lat="40.781959" lon="16.1778327"><ele>239.0</ele><time>2026-05-02T17:15:11.701Z</time></trkpt><trkpt lat="40.7817671" lon="16.1779818"><ele>239.0</ele><time>2026-05-02T17:15:12.702Z</time></trkpt><trkpt lat="40.781582" lon="16.1781511"><ele>239.0</ele><time>2026-05-02T17:15:13.702Z</time></trkpt><trkpt lat="40.7814039" lon="16.1783395"><ele>241.5</ele><time>2026-05-02T17:15:14.702Z</time></trkpt><trkpt lat="40.7812368" lon="16.1785456"><ele>244.0</ele><time>2026-05-02T17:15:15.701Z</time></trkpt><trkpt lat="40.781077" lon="16.1787628"><ele>242.0</ele><time>2026-05-02T17:15:16.702Z</time></trkpt><trkpt lat="40.7809179" lon="16.1789826"><ele>240.0</ele><time>2026-05-02T17:15:17.701Z</time></trkpt><trkpt lat="40.7807591" lon="16.1792022"><ele>240.0</ele><time>2026-05-02T17:15:18.701Z</time></trkpt><trkpt lat="40.7805952" lon="16.1794175"><ele>240.0</ele><time>2026-05-02T17:15:19.703Z</time></trkpt><trkpt lat="40.7804305" lon="16.1796336"><ele>238.0</ele><time>2026-05-02T17:15:20.702Z</time></trkpt><trkpt lat="40.7802687" lon="16.1798511"><ele>236.0</ele><time>2026-05-02T17:15:21.702Z</time></trkpt><trkpt lat="40.7801074" lon="16.1800676"><ele>236.0</ele><time>2026-05-02T17:15:22.702Z</time></trkpt><trkpt lat="40.7799459" lon="16.1802841"><ele>236.0</ele><time>2026-05-02T17:15:23.702Z</time></trkpt><trkpt lat="40.7797856" lon="16.1805029"><ele>237.5</ele><time>2026-05-02T17:15:24.701Z</time></trkpt><trkpt lat="40.7796285" lon="16.1807274"><ele>239.0</ele><time>2026-05-02T17:15:25.702Z</time></trkpt><trkpt lat="40.7794744" lon="16.1809556"><ele>237.0</ele><time>2026-05-02T17:15:26.703Z</time></trkpt><trkpt lat="40.779321" lon="16.1811828"><ele>235.0</ele><time>2026-05-02T17:15:27.701Z</time></trkpt><trkpt lat="40.7791676" lon="16.181412"><ele>239.0</ele><time>2026-05-02T17:15:28.702Z</time></trkpt><trkpt lat="40.7790138" lon="16.1816438"><ele>243.0</ele><time>2026-05-02T17:15:29.702Z</time></trkpt><trkpt lat="40.7788625" lon="16.1818762"><ele>243.0</ele><time>2026-05-02T17:15:30.702Z</time></trkpt><trkpt lat="40.7787108" lon="16.1821104"><ele>243.0</ele><time>2026-05-02T17:15:31.702Z</time></trkpt><trkpt lat="40.778557" lon="16.1823424"><ele>241.5</ele><time>2026-05-02T17:15:32.702Z</time></trkpt><trkpt lat="40.7784033" lon="16.1825741"><ele>240.0</ele><time>2026-05-02T17:15:33.702Z</time></trkpt><trkpt lat="40.7782513" lon="16.1828069"><ele>240.0</ele><time>2026-05-02T17:15:34.703Z</time></trkpt><trkpt lat="40.7780991" lon="16.1830398"><ele>240.0</ele><time>2026-05-02T17:15:35.702Z</time></trkpt><trkpt lat="40.7779489" lon="16.1832701"><ele>239.33333333333331</ele><time>2026-05-02T17:15:36.701Z</time></trkpt><trkpt lat="40.7778014" lon="16.1835"><ele>238.66666666666666</ele><time>2026-05-02T17:15:37.701Z</time></trkpt><trkpt lat="40.777665" lon="16.1837252"><ele>238.0</ele><time>2026-05-02T17:15:38.703Z</time></trkpt><trkpt lat="40.7775384" lon="16.1839511"><ele>239.0</ele><time>2026-05-02T17:15:39.701Z</time></trkpt><trkpt lat="40.7774231" lon="16.1841826"><ele>240.0</ele><time>2026-05-02T17:15:40.702Z</time></trkpt><trkpt lat="40.7773229" lon="16.1844232"><ele>241.0</ele><time>2026-05-02T17:15:41.702Z</time></trkpt><trkpt lat="40.7772403" lon="16.1846759"><ele>243.33333333333331</ele><time>2026-05-02T17:15:42.702Z</time></trkpt><trkpt lat="40.7771724" lon="16.1849434"><ele>245.66666666666669</ele><time>2026-05-02T17:15:43.701Z</time></trkpt><trkpt lat="40.7771163" lon="16.1852203"><ele>248.0</ele><time>2026-05-02T17:15:44.702Z</time></trkpt><trkpt lat="40.777076" lon="16.185505"><ele>249.0</ele><time>2026-05-02T17:15:45.702Z</time></trkpt><trkpt lat="40.777051" lon="16.185794"><ele>250.0</ele><time>2026-05-02T17:15:46.701Z</time></trkpt><trkpt lat="40.7770435" lon="16.1860848"><ele>251.0</ele><time>2026-05-02T17:15:47.701Z</time></trkpt><trkpt lat="40.7770562" lon="16.1863778"><ele>251.33333333333334</ele><time>2026-05-02T17:15:48.701Z</time></trkpt><trkpt lat="40.7770879" lon="16.1866688"><ele>251.66666666666669</ele><time>2026-05-02T17:15:49.701Z</time></trkpt><trkpt lat="40.7771368" lon="16.1869574"><ele>252.0</ele><time>2026-05-02T17:15:50.703Z</time></trkpt><trkpt lat="40.7772043" lon="16.1872398"><ele>250.33333333333331</ele><time>2026-05-02T17:15:51.702Z</time></trkpt><trkpt lat="40.7772882" lon="16.1875151"><ele>248.66666666666666</ele><time>2026-05-02T17:15:52.701Z</time></trkpt><trkpt lat="40.7773897" lon="16.1877794"><ele>247.0</ele><time>2026-05-02T17:15:53.703Z</time></trkpt><trkpt lat="40.777508" lon="16.1880326"><ele>244.0</ele><time>2026-05-02T17:15:54.702Z</time></trkpt><trkpt lat="40.7776445" lon="16.1882713"><ele>241.0</ele><time>2026-05-02T17:15:55.703Z</time></trkpt><trkpt lat="40.7777976" lon="16.1884934"><ele>241.0</ele><time>2026-05-02T17:15:56.702Z</time></trkpt><trkpt lat="40.777963" lon="16.1887014"><ele>241.0</ele><time>2026-05-02T17:15:57.703Z</time></trkpt><trkpt lat="40.7781357" lon="16.1888974"><ele>239.5</ele><time>2026-05-02T17:15:58.702Z</time></trkpt><trkpt lat="40.7783131" lon="16.1890852"><ele>238.0</ele><time>2026-05-02T17:15:59.701Z</time></trkpt><trkpt lat="40.7784936" lon="16.1892663"><ele>241.0</ele><time>2026-05-02T17:16:00.702Z</time></trkpt><trkpt lat="40.778673" lon="16.189444"><ele>244.0</ele><time>2026-05-02T17:16:01.701Z</time></trkpt><trkpt lat="40.778853" lon="16.1896244"><ele>244.0</ele><time>2026-05-02T17:16:02.702Z</time></trkpt><trkpt lat="40.7790307" lon="16.1898057"><ele>244.0</ele><time>2026-05-02T17:16:03.701Z</time></trkpt><trkpt lat="40.7792088" lon="16.1899861"><ele>244.0</ele><time>2026-05-02T17:16:04.701Z</time></trkpt><trkpt lat="40.7793884" lon="16.1901647"><ele>244.33333333333331</ele><time>2026-05-02T17:16:05.701Z</time></trkpt><trkpt lat="40.7795686" lon="16.1903414"><ele>244.66666666666669</ele><time>2026-05-02T17:16:06.701Z</time></trkpt><trkpt lat="40.779747" lon="16.1905197"><ele>245.0</ele><time>2026-05-02T17:16:07.702Z</time></trkpt><trkpt lat="40.7799226" lon="16.190702"><ele>245.0</ele><time>2026-05-02T17:16:08.702Z</time></trkpt><trkpt lat="40.7800928" lon="16.190893"><ele>245.0</ele><time>2026-05-02T17:16:09.702Z</time></trkpt><trkpt lat="40.7802536" lon="16.1910958"><ele>245.0</ele><time>2026-05-02T17:16:10.701Z</time></trkpt><trkpt lat="40.7804014" lon="16.1913135"><ele>246.33333333333334</ele><time>2026-05-02T17:16:11.702Z</time></trkpt><trkpt lat="40.7805369" lon="16.1915475"><ele>247.66666666666669</ele><time>2026-05-02T17:16:12.701Z</time></trkpt><trkpt lat="40.7806601" lon="16.1917956"><ele>249.0</ele><time>2026-05-02T17:16:13.702Z</time></trkpt><trkpt lat="40.7807688" lon="16.192056"><ele>249.0</ele><time>2026-05-02T17:16:14.701Z</time></trkpt><trkpt lat="40.7808586" lon="16.1923304"><ele>249.0</ele><time>2026-05-02T17:16:15.701Z</time></trkpt><trkpt lat="40.7809266" lon="16.1926189"><ele>248.0</ele><time>2026-05-02T17:16:16.7Z</time></trkpt><trkpt lat="40.7809762" lon="16.1929164"><ele>247.0</ele><time>2026-05-02T17:16:17.701Z</time></trkpt><trkpt lat="40.7810112" lon="16.1932177"><ele>255.0</ele><time>2026-05-02T17:16:18.703Z</time></trkpt><trkpt lat="40.7810423" lon="16.1935162"><ele>263.0</ele><time>2026-05-02T17:16:19.702Z</time></trkpt><trkpt lat="40.7810771" lon="16.1938132"><ele>262.5</ele><time>2026-05-02T17:16:20.703Z</time></trkpt><trkpt lat="40.7811179" lon="16.1941088"><ele>262.0</ele><time>2026-05-02T17:16:21.703Z</time></trkpt><trkpt lat="40.781171" lon="16.1944022"><ele>262.0</ele><time>2026-05-02T17:16:22.702Z</time></trkpt><trkpt lat="40.781237" lon="16.1946937"><ele>262.0</ele><time>2026-05-02T17:16:23.702Z</time></trkpt><trkpt lat="40.7813119" lon="16.1949851"><ele>260.0</ele><time>2026-05-02T17:16:24.701Z</time></trkpt><trkpt lat="40.7813989" lon="16.1952743"><ele>258.0</ele><time>2026-05-02T17:16:25.703Z</time></trkpt><trkpt lat="40.7814926" lon="16.1955608"><ele>255.5</ele><time>2026-05-02T17:16:26.703Z</time></trkpt><trkpt lat="40.7815898" lon="16.1958471"><ele>253.0</ele><time>2026-05-02T17:16:27.703Z</time></trkpt><trkpt lat="40.7816914" lon="16.196132"><ele>253.0</ele><time>2026-05-02T17:16:28.702Z</time></trkpt><trkpt lat="40.7817941" lon="16.1964152"><ele>253.0</ele><time>2026-05-02T17:16:29.703Z</time></trkpt><trkpt lat="40.781895" lon="16.1966961"><ele>255.0</ele><time>2026-05-02T17:16:30.706Z</time></trkpt><trkpt lat="40.7819897" lon="16.1969718"><ele>257.0</ele><time>2026-05-02T17:16:31.702Z</time></trkpt><trkpt lat="40.7820843" lon="16.1972454"><ele>256.6666666666667</ele><time>2026-05-02T17:16:32.702Z</time></trkpt><trkpt lat="40.7821778" lon="16.1975144"><ele>256.3333333333333</ele><time>2026-05-02T17:16:33.701Z</time></trkpt><trkpt lat="40.7822678" lon="16.1977707"><ele>256.0</ele><time>2026-05-02T17:16:34.701Z</time></trkpt><trkpt lat="40.7823553" lon="16.1980168"><ele>256.66666666666663</ele><time>2026-05-02T17:16:35.7Z</time></trkpt><trkpt lat="40.7824444" lon="16.1982675"><ele>257.3333333333333</ele><time>2026-05-02T17:16:36.702Z</time></trkpt><trkpt lat="40.7825348" lon="16.198524"><ele>258.0</ele><time>2026-05-02T17:16:37.701Z</time></trkpt><trkpt lat="40.7826301" lon="16.1987854"><ele>262.0</ele><time>2026-05-02T17:16:38.702Z</time></trkpt><trkpt lat="40.7827244" lon="16.1990503"><ele>266.0</ele><time>2026-05-02T17:16:39.701Z</time></trkpt><trkpt lat="40.7828194" lon="16.1993182"><ele>270.0</ele><time>2026-05-02T17:16:40.701Z</time></trkpt><trkpt lat="40.7829161" lon="16.1995887"><ele>267.0</ele><time>2026-05-02T17:16:41.701Z</time></trkpt><trkpt lat="40.7830124" lon="16.1998558"><ele>264.0</ele><time>2026-05-02T17:16:42.701Z</time></trkpt><trkpt lat="40.7831058" lon="16.2001285"><ele>264.0</ele><time>2026-05-02T17:16:43.702Z</time></trkpt><trkpt lat="40.7832023" lon="16.2004062"><ele>264.0</ele><time>2026-05-02T17:16:44.703Z</time></trkpt><trkpt lat="40.7832977" lon="16.2006831"><ele>261.0</ele><time>2026-05-02T17:16:45.701Z</time></trkpt><trkpt lat="40.7833939" lon="16.2009584"><ele>258.0</ele><time>2026-05-02T17:16:46.701Z</time></trkpt><trkpt lat="40.7834915" lon="16.2012294"><ele>260.5</ele><time>2026-05-02T17:16:47.702Z</time></trkpt><trkpt lat="40.7835879" lon="16.2014982"><ele>263.0</ele><time>2026-05-02T17:16:48.702Z</time></trkpt><trkpt lat="40.7836834" lon="16.2017668"><ele>263.0</ele><time>2026-05-02T17:16:49.704Z</time></trkpt><trkpt lat="40.7837785" lon="16.2020377"><ele>263.0</ele><time>2026-05-02T17:16:50.702Z</time></trkpt><trkpt lat="40.7838737" lon="16.2023111"><ele>262.5</ele><time>2026-05-02T17:16:51.702Z</time></trkpt><trkpt lat="40.7839677" lon="16.2025847"><ele>262.0</ele><time>2026-05-02T17:16:52.702Z</time></trkpt><trkpt lat="40.784058" lon="16.2028599"><ele>262.0</ele><time>2026-05-02T17:16:53.702Z</time></trkpt><trkpt lat="40.7841456" lon="16.2031375"><ele>262.0</ele><time>2026-05-02T17:16:54.701Z</time></trkpt><trkpt lat="40.7842257" lon="16.2034163"><ele>262.3333333333333</ele><time>2026-05-02T17:16:55.703Z</time></trkpt><trkpt lat="40.7843009" lon="16.2036963"><ele>262.6666666666667</ele><time>2026-05-02T17:16:56.703Z</time></trkpt><trkpt lat="40.7843702" lon="16.2039767"><ele>263.0</ele><time>2026-05-02T17:16:57.702Z</time></trkpt><trkpt lat="40.7844352" lon="16.2042572"><ele>263.33333333333337</ele><time>2026-05-02T17:16:58.703Z</time></trkpt><trkpt lat="40.784492" lon="16.2045394"><ele>263.6666666666667</ele><time>2026-05-02T17:16:59.701Z</time></trkpt><trkpt lat="40.7845406" lon="16.2048232"><ele>264.0</ele><time>2026-05-02T17:17:00.702Z</time></trkpt><trkpt lat="40.7845821" lon="16.2051084"><ele>264.0</ele><time>2026-05-02T17:17:01.701Z</time></trkpt><trkpt lat="40.7846203" lon="16.2053965"><ele>264.0</ele><time>2026-05-02T17:17:02.705Z</time></trkpt><trkpt lat="40.7846597" lon="16.2056862"><ele>264.0</ele><time>2026-05-02T17:17:03.701Z</time></trkpt><trkpt lat="40.7847008" lon="16.205978"><ele>264.5</ele><time>2026-05-02T17:17:04.701Z</time></trkpt><trkpt lat="40.7847413" lon="16.2062715"><ele>265.0</ele><time>2026-05-02T17:17:05.701Z</time></trkpt><trkpt lat="40.7847814" lon="16.2065651"><ele>266.5</ele><time>2026-05-02T17:17:06.702Z</time></trkpt><trkpt lat="40.7848215" lon="16.2068585"><ele>268.0</ele><time>2026-05-02T17:17:07.702Z</time></trkpt><trkpt lat="40.7848614" lon="16.2071502"><ele>268.0</ele><time>2026-05-02T17:17:08.702Z</time></trkpt><trkpt lat="40.7849025" lon="16.2074389"><ele>268.0</ele><time>2026-05-02T17:17:09.701Z</time></trkpt><trkpt lat="40.7849438" lon="16.2077269"><ele>268.0</ele><time>2026-05-02T17:17:10.701Z</time></trkpt><trkpt lat="40.7849854" lon="16.2080137"><ele>268.0</ele><time>2026-05-02T17:17:11.703Z</time></trkpt><trkpt lat="40.7850257" lon="16.2082947"><ele>268.0</ele><time>2026-05-02T17:17:12.702Z</time></trkpt><trkpt lat="40.7850656" lon="16.2085754"><ele>268.0</ele><time>2026-05-02T17:17:13.702Z</time></trkpt><trkpt lat="40.7851081" lon="16.2088602"><ele>269.3333333333333</ele><time>2026-05-02T17:17:14.702Z</time></trkpt><trkpt lat="40.7851535" lon="16.2091439"><ele>270.6666666666667</ele><time>2026-05-02T17:17:15.702Z</time></trkpt><trkpt lat="40.7852058" lon="16.2094287"><ele>272.0</ele><time>2026-05-02T17:17:16.702Z</time></trkpt><trkpt lat="40.7852678" lon="16.2097078"><ele>274.6666666666667</ele><time>2026-05-02T17:17:17.702Z</time></trkpt><trkpt lat="40.78534" lon="16.2099842"><ele>277.3333333333333</ele><time>2026-05-02T17:17:18.701Z</time></trkpt><trkpt lat="40.7854236" lon="16.2102605"><ele>280.0</ele><time>2026-05-02T17:17:19.702Z</time></trkpt><trkpt lat="40.7855138" lon="16.2105324"><ele>279.5</ele><time>2026-05-02T17:17:20.703Z</time></trkpt><trkpt lat="40.7856121" lon="16.2107994"><ele>279.0</ele><time>2026-05-02T17:17:21.702Z</time></trkpt><trkpt lat="40.7857204" lon="16.2110595"><ele>279.0</ele><time>2026-05-02T17:17:22.701Z</time></trkpt><trkpt lat="40.7858387" lon="16.2113167"><ele>279.0</ele><time>2026-05-02T17:17:23.703Z</time></trkpt><trkpt lat="40.7859642" lon="16.2115686"><ele>280.5</ele><time>2026-05-02T17:17:24.701Z</time></trkpt><trkpt lat="40.7860959" lon="16.2118122"><ele>282.0</ele><time>2026-05-02T17:17:25.701Z</time></trkpt><trkpt lat="40.7862337" lon="16.2120473"><ele>282.0</ele><time>2026-05-02T17:17:26.702Z</time></trkpt><trkpt lat="40.7863787" lon="16.2122801"><ele>282.0</ele><time>2026-05-02T17:17:27.7Z</time></trkpt><trkpt lat="40.7865261" lon="16.2125145"><ele>279.5</ele><time>2026-05-02T17:17:28.701Z</time></trkpt><trkpt lat="40.7866717" lon="16.2127526"><ele>277.0</ele><time>2026-05-02T17:17:29.702Z</time></trkpt><trkpt lat="40.7868141" lon="16.2129971"><ele>278.0</ele><time>2026-05-02T17:17:30.7Z</time></trkpt><trkpt lat="40.7869506" lon="16.2132504"><ele>279.0</ele><time>2026-05-02T17:17:31.701Z</time></trkpt><trkpt lat="40.7870783" lon="16.2135077"><ele>279.0</ele><time>2026-05-02T17:17:32.703Z</time></trkpt><trkpt lat="40.787204" lon="16.2137704"><ele>279.0</ele><time>2026-05-02T17:17:33.702Z</time></trkpt><trkpt lat="40.7873291" lon="16.2140461"><ele>279.0</ele><time>2026-05-02T17:17:34.701Z</time></trkpt><trkpt lat="40.7874498" lon="16.2143313"><ele>279.0</ele><time>2026-05-02T17:17:35.703Z</time></trkpt><trkpt lat="40.7875594" lon="16.2146112"><ele>280.5</ele><time>2026-05-02T17:17:36.701Z</time></trkpt><trkpt lat="40.7876607" lon="16.2148856"><ele>282.0</ele><time>2026-05-02T17:17:37.701Z</time></trkpt><trkpt lat="40.7877584" lon="16.2151573"><ele>282.0</ele><time>2026-05-02T17:17:38.701Z</time></trkpt><trkpt lat="40.7878547" lon="16.2154256"><ele>282.0</ele><time>2026-05-02T17:17:39.701Z</time></trkpt><trkpt lat="40.7879499" lon="16.215695"><ele>282.0</ele><time>2026-05-02T17:17:40.703Z</time></trkpt><trkpt lat="40.788046" lon="16.2159618"><ele>282.0</ele><time>2026-05-02T17:17:41.7Z</time></trkpt><trkpt lat="40.7881397" lon="16.2162239"><ele>282.0</ele><time>2026-05-02T17:17:42.7Z</time></trkpt><trkpt lat="40.7882327" lon="16.2164811"><ele>283.0</ele><time>2026-05-02T17:17:43.7Z</time></trkpt><trkpt lat="40.7883273" lon="16.2167324"><ele>284.0</ele><time>2026-05-02T17:17:44.702Z</time></trkpt><trkpt lat="40.788421" lon="16.2169825"><ele>285.0</ele><time>2026-05-02T17:17:45.7Z</time></trkpt><trkpt lat="40.7885156" lon="16.2172307"><ele>287.6666666666667</ele><time>2026-05-02T17:17:46.7Z</time></trkpt><trkpt lat="40.7886079" lon="16.2174802"><ele>290.33333333333337</ele><time>2026-05-02T17:17:47.702Z</time></trkpt><trkpt lat="40.7886978" lon="16.2177329"><ele>293.0</ele><time>2026-05-02T17:17:48.702Z</time></trkpt><trkpt lat="40.7887857" lon="16.2179921"><ele>295.0</ele><time>2026-05-02T17:17:49.702Z</time></trkpt><trkpt lat="40.7888692" lon="16.2182602"><ele>297.0</ele><time>2026-05-02T17:17:50.703Z</time></trkpt><trkpt lat="40.7889509" lon="16.2185351"><ele>299.0</ele><time>2026-05-02T17:17:51.701Z</time></trkpt><trkpt lat="40.7890339" lon="16.2188167"><ele>300.0</ele><time>2026-05-02T17:17:52.702Z</time></trkpt><trkpt lat="40.7891154" lon="16.2190967"><ele>301.0</ele><time>2026-05-02T17:17:53.701Z</time></trkpt><trkpt lat="40.7891965" lon="16.2193709"><ele>301.0</ele><time>2026-05-02T17:17:54.702Z</time></trkpt><trkpt lat="40.7892795" lon="16.2196471"><ele>301.0</ele><time>2026-05-02T17:17:55.7Z</time></trkpt><trkpt lat="40.7893629" lon="16.2199284"><ele>297.5</ele><time>2026-05-02T17:17:56.701Z</time></trkpt><trkpt lat="40.7894467" lon="16.220215"><ele>294.0</ele><time>2026-05-02T17:17:57.701Z</time></trkpt><trkpt lat="40.7895267" lon="16.2205033"><ele>292.0</ele><time>2026-05-02T17:17:58.701Z</time></trkpt><trkpt lat="40.7896017" lon="16.2207933"><ele>290.0</ele><time>2026-05-02T17:17:59.7Z</time></trkpt><trkpt lat="40.7896767" lon="16.2210867"><ele>290.0</ele><time>2026-05-02T17:18:00.701Z</time></trkpt><trkpt lat="40.7897433" lon="16.221385"><ele>290.0</ele><time>2026-05-02T17:18:01.701Z</time></trkpt><trkpt lat="40.7898017" lon="16.2216867"><ele>288.5</ele><time>2026-05-02T17:18:02.701Z</time></trkpt><trkpt lat="40.7898533" lon="16.2219883"><ele>287.0</ele><time>2026-05-02T17:18:03.702Z</time></trkpt><trkpt lat="40.7898983" lon="16.2222883"><ele>284.0</ele><time>2026-05-02T17:18:04.702Z</time></trkpt><trkpt lat="40.7899383" lon="16.22259"><ele>281.0</ele><time>2026-05-02T17:18:05.7Z</time></trkpt><trkpt lat="40.789975" lon="16.222895"><ele>280.0</ele><time>2026-05-02T17:18:06.701Z</time></trkpt><trkpt lat="40.79001" lon="16.2231983"><ele>279.0</ele><time>2026-05-02T17:18:07.701Z</time></trkpt><trkpt lat="40.7900467" lon="16.2235"><ele>279.0</ele><time>2026-05-02T17:18:08.701Z</time></trkpt><trkpt lat="40.7900833" lon="16.2238017"><ele>279.0</ele><time>2026-05-02T17:18:09.701Z</time></trkpt><trkpt lat="40.7901183" lon="16.2241033"><ele>279.0</ele><time>2026-05-02T17:18:10.702Z</time></trkpt><trkpt lat="40.7901517" lon="16.22441"><ele>279.0</ele><time>2026-05-02T17:18:11.702Z</time></trkpt><trkpt lat="40.790185" lon="16.2247167"><ele>276.0</ele><time>2026-05-02T17:18:12.7Z</time></trkpt><trkpt lat="40.7902183" lon="16.2250233"><ele>273.0</ele><time>2026-05-02T17:18:13.701Z</time></trkpt><trkpt lat="40.7902517" lon="16.22533"><ele>273.0</ele><time>2026-05-02T17:18:14.703Z</time></trkpt><trkpt lat="40.790285" lon="16.225635"><ele>273.0</ele><time>2026-05-02T17:18:15.702Z</time></trkpt><trkpt lat="40.7903183" lon="16.2259367"><ele>272.0</ele><time>2026-05-02T17:18:16.701Z</time></trkpt><trkpt lat="40.7903517" lon="16.22624"><ele>271.0</ele><time>2026-05-02T17:18:17.7Z</time></trkpt><trkpt lat="40.7903883" lon="16.2265417"><ele>270.0</ele><time>2026-05-02T17:18:18.7Z</time></trkpt><trkpt lat="40.790425" lon="16.2268433"><ele>269.0</ele><time>2026-05-02T17:18:19.701Z</time></trkpt><trkpt lat="40.79046" lon="16.227145"><ele>269.0</ele><time>2026-05-02T17:18:20.702Z</time></trkpt><trkpt lat="40.790495" lon="16.2274467"><ele>269.0</ele><time>2026-05-02T17:18:21.7Z</time></trkpt><trkpt lat="40.7905283" lon="16.2277467"><ele>269.0</ele><time>2026-05-02T17:18:22.701Z</time></trkpt><trkpt lat="40.7905583" lon="16.2280483"><ele>269.0</ele><time>2026-05-02T17:18:23.701Z</time></trkpt><trkpt lat="40.790585" lon="16.22835"><ele>268.5</ele><time>2026-05-02T17:18:24.7Z</time></trkpt><trkpt lat="40.790605" lon="16.2286517"><ele>268.0</ele><time>2026-05-02T17:18:25.702Z</time></trkpt><trkpt lat="40.7906133" lon="16.228955"><ele>267.0</ele><time>2026-05-02T17:18:26.702Z</time></trkpt><trkpt lat="40.7906033" lon="16.22926"><ele>266.0</ele><time>2026-05-02T17:18:27.701Z</time></trkpt><trkpt lat="40.7905717" lon="16.2295633"><ele>266.0</ele><time>2026-05-02T17:18:28.703Z</time></trkpt><trkpt lat="40.79052" lon="16.2298633"><ele>266.0</ele><time>2026-05-02T17:18:29.702Z</time></trkpt><trkpt lat="40.79045" lon="16.230155"><ele>266.0</ele><time>2026-05-02T17:18:30.7Z</time></trkpt><trkpt lat="40.7903617" lon="16.230435"><ele>266.0</ele><time>2026-05-02T17:18:31.701Z</time></trkpt><trkpt lat="40.790265" lon="16.2307133"><ele>265.5</ele><time>2026-05-02T17:18:32.702Z</time></trkpt><trkpt lat="40.79016" lon="16.2309917"><ele>265.0</ele><time>2026-05-02T17:18:33.701Z</time></trkpt><trkpt lat="40.790055" lon="16.2312683"><ele>264.5</ele><time>2026-05-02T17:18:34.701Z</time></trkpt><trkpt lat="40.7899517" lon="16.2315483"><ele>264.0</ele><time>2026-05-02T17:18:35.701Z</time></trkpt><trkpt lat="40.7898533" lon="16.2318317"><ele>264.0</ele><time>2026-05-02T17:18:36.701Z</time></trkpt><trkpt lat="40.7897533" lon="16.232115"><ele>264.0</ele><time>2026-05-02T17:18:37.702Z</time></trkpt><trkpt lat="40.7896517" lon="16.2323967"><ele>263.5</ele><time>2026-05-02T17:18:38.702Z</time></trkpt><trkpt lat="40.7895483" lon="16.2326817"><ele>263.0</ele><time>2026-05-02T17:18:39.701Z</time></trkpt><trkpt lat="40.7894433" lon="16.2329667"><ele>263.5</ele><time>2026-05-02T17:18:40.701Z</time></trkpt><trkpt lat="40.78934" lon="16.2332517"><ele>264.0</ele><time>2026-05-02T17:18:41.701Z</time></trkpt><trkpt lat="40.7892433" lon="16.2335367"><ele>264.0</ele><time>2026-05-02T17:18:42.701Z</time></trkpt><trkpt lat="40.7891583" lon="16.2338183"><ele>264.0</ele><time>2026-05-02T17:18:43.7Z</time></trkpt><trkpt lat="40.7890917" lon="16.2341017"><ele>262.5</ele><time>2026-05-02T17:18:44.701Z</time></trkpt><trkpt lat="40.7890433" lon="16.2343933"><ele>261.0</ele><time>2026-05-02T17:18:45.701Z</time></trkpt><trkpt lat="40.7890117" lon="16.2346917"><ele>260.3333333333333</ele><time>2026-05-02T17:18:46.702Z</time></trkpt><trkpt lat="40.7890017" lon="16.2349883"><ele>259.66666666666663</ele><time>2026-05-02T17:18:47.701Z</time></trkpt><trkpt lat="40.7890067" lon="16.235285"><ele>259.0</ele><time>2026-05-02T17:18:48.702Z</time></trkpt><trkpt lat="40.7890317" lon="16.2355833"><ele>259.0</ele><time>2026-05-02T17:18:49.702Z</time></trkpt><trkpt lat="40.7890717" lon="16.2358783"><ele>259.0</ele><time>2026-05-02T17:18:50.702Z</time></trkpt><trkpt lat="40.78913" lon="16.2361683"><ele>259.0</ele><time>2026-05-02T17:18:51.702Z</time></trkpt><trkpt lat="40.7892083" lon="16.2364517"><ele>259.0</ele><time>2026-05-02T17:18:52.702Z</time></trkpt><trkpt lat="40.7893083" lon="16.2367233"><ele>259.5</ele><time>2026-05-02T17:18:53.703Z</time></trkpt><trkpt lat="40.789425" lon="16.2369833"><ele>260.0</ele><time>2026-05-02T17:18:54.702Z</time></trkpt><trkpt lat="40.789555" lon="16.2372283"><ele>259.0</ele><time>2026-05-02T17:18:55.701Z</time></trkpt><trkpt lat="40.78969" lon="16.237465"><ele>258.0</ele><time>2026-05-02T17:18:56.701Z</time></trkpt><trkpt lat="40.7898267" lon="16.2376983"><ele>257.0</ele><time>2026-05-02T17:18:57.702Z</time></trkpt><trkpt lat="40.7899617" lon="16.2379333"><ele>257.33333333333337</ele><time>2026-05-02T17:18:58.702Z</time></trkpt><trkpt lat="40.790095" lon="16.2381683"><ele>257.6666666666667</ele><time>2026-05-02T17:18:59.701Z</time></trkpt><trkpt lat="40.7902283" lon="16.2384033"><ele>258.0</ele><time>2026-05-02T17:19:00.702Z</time></trkpt><trkpt lat="40.7903583" lon="16.2386417"><ele>258.0</ele><time>2026-05-02T17:19:01.7Z</time></trkpt><trkpt lat="40.7904767" lon="16.2388867"><ele>258.0</ele><time>2026-05-02T17:19:02.701Z</time></trkpt><trkpt lat="40.7905833" lon="16.2391417"><ele>258.0</ele><time>2026-05-02T17:19:03.7Z</time></trkpt><trkpt lat="40.790675" lon="16.239405"><ele>257.0</ele><time>2026-05-02T17:19:04.7Z</time></trkpt><trkpt lat="40.79075" lon="16.2396783"><ele>256.0</ele><time>2026-05-02T17:19:05.701Z</time></trkpt><trkpt lat="40.7908083" lon="16.23996"><ele>255.0</ele><time>2026-05-02T17:19:06.7Z</time></trkpt><trkpt lat="40.7908483" lon="16.2402467"><ele>255.0</ele><time>2026-05-02T17:19:07.701Z</time></trkpt><trkpt lat="40.7908717" lon="16.2405367"><ele>255.0</ele><time>2026-05-02T17:19:08.702Z</time></trkpt><trkpt lat="40.79088" lon="16.2408267"><ele>255.0</ele><time>2026-05-02T17:19:09.702Z</time></trkpt><trkpt lat="40.7908683" lon="16.2411167"><ele>255.0</ele><time>2026-05-02T17:19:10.702Z</time></trkpt><trkpt lat="40.7908367" lon="16.2414083"><ele>255.0</ele><time>2026-05-02T17:19:11.702Z</time></trkpt><trkpt lat="40.79079" lon="16.2416983"><ele>255.0</ele><time>2026-05-02T17:19:12.702Z</time></trkpt><trkpt lat="40.7907333" lon="16.2419883"><ele>253.5</ele><time>2026-05-02T17:19:13.7Z</time></trkpt><trkpt lat="40.7906717" lon="16.24228"><ele>252.0</ele><time>2026-05-02T17:19:14.701Z</time></trkpt><trkpt lat="40.7906083" lon="16.2425717"><ele>251.0</ele><time>2026-05-02T17:19:15.701Z</time></trkpt><trkpt lat="40.79055" lon="16.2428633"><ele>250.0</ele><time>2026-05-02T17:19:16.701Z</time></trkpt><trkpt lat="40.7904933" lon="16.243155"><ele>252.0</ele><time>2026-05-02T17:19:17.701Z</time></trkpt><trkpt lat="40.7904367" lon="16.2434483"><ele>254.0</ele><time>2026-05-02T17:19:18.7Z</time></trkpt><trkpt lat="40.7903767" lon="16.2437433"><ele>253.0</ele><time>2026-05-02T17:19:19.701Z</time></trkpt><trkpt lat="40.7903183" lon="16.2440383"><ele>252.0</ele><time>2026-05-02T17:19:20.702Z</time></trkpt><trkpt lat="40.79026" lon="16.244335"><ele>252.0</ele><time>2026-05-02T17:19:21.701Z</time></trkpt><trkpt lat="40.7902" lon="16.2446317"><ele>252.0</ele><time>2026-05-02T17:19:22.701Z</time></trkpt><trkpt lat="40.79014" lon="16.2449317"><ele>252.0</ele><time>2026-05-02T17:19:23.701Z</time></trkpt><trkpt lat="40.79008" lon="16.24523"><ele>252.0</ele><time>2026-05-02T17:19:24.704Z</time></trkpt><trkpt lat="40.7900183" lon="16.24553"><ele>252.0</ele><time>2026-05-02T17:19:25.7Z</time></trkpt><trkpt lat="40.7899533" lon="16.2458333"><ele>252.0</ele><time>2026-05-02T17:19:26.701Z</time></trkpt><trkpt lat="40.7898867" lon="16.2461367"><ele>252.0</ele><time>2026-05-02T17:19:27.701Z</time></trkpt><trkpt lat="40.7898217" lon="16.2464417"><ele>252.0</ele><time>2026-05-02T17:19:28.701Z</time></trkpt><trkpt lat="40.78976" lon="16.2467433"><ele>251.0</ele><time>2026-05-02T17:19:29.7Z</time></trkpt><trkpt lat="40.789695" lon="16.2470467"><ele>250.0</ele><time>2026-05-02T17:19:30.701Z</time></trkpt><trkpt lat="40.7896283" lon="16.247345"><ele>249.5</ele><time>2026-05-02T17:19:31.701Z</time></trkpt><trkpt lat="40.7895633" lon="16.2476433"><ele>249.0</ele><time>2026-05-02T17:19:32.702Z</time></trkpt><trkpt lat="40.7895033" lon="16.2479383"><ele>249.5</ele><time>2026-05-02T17:19:33.702Z</time></trkpt><trkpt lat="40.7894417" lon="16.2482317"><ele>250.0</ele><time>2026-05-02T17:19:34.701Z</time></trkpt><trkpt lat="40.7893783" lon="16.2485233"><ele>250.0</ele><time>2026-05-02T17:19:35.7Z</time></trkpt><trkpt lat="40.7893117" lon="16.2488117"><ele>250.0</ele><time>2026-05-02T17:19:36.702Z</time></trkpt><trkpt lat="40.789245" lon="16.2491"><ele>250.0</ele><time>2026-05-02T17:19:37.701Z</time></trkpt><trkpt lat="40.78918" lon="16.2493883"><ele>250.0</ele><time>2026-05-02T17:19:38.703Z</time></trkpt><trkpt lat="40.78912" lon="16.2496767"><ele>249.0</ele><time>2026-05-02T17:19:39.7Z</time></trkpt><trkpt lat="40.78906" lon="16.2499633"><ele>248.0</ele><time>2026-05-02T17:19:40.701Z</time></trkpt><trkpt lat="40.7889983" lon="16.2502517"><ele>248.0</ele><time>2026-05-02T17:19:41.701Z</time></trkpt><trkpt lat="40.788935" lon="16.250545"><ele>248.0</ele><time>2026-05-02T17:19:42.701Z</time></trkpt><trkpt lat="40.7888683" lon="16.2508417"><ele>245.5</ele><time>2026-05-02T17:19:43.701Z</time></trkpt><trkpt lat="40.7888" lon="16.2511417"><ele>243.0</ele><time>2026-05-02T17:19:44.702Z</time></trkpt><trkpt lat="40.7887317" lon="16.2514433"><ele>242.0</ele><time>2026-05-02T17:19:45.701Z</time></trkpt><trkpt lat="40.78866" lon="16.2517467"><ele>241.0</ele><time>2026-05-02T17:19:46.703Z</time></trkpt><trkpt lat="40.7885933" lon="16.2520517"><ele>241.0</ele><time>2026-05-02T17:19:47.7Z</time></trkpt><trkpt lat="40.7885283" lon="16.2523533"><ele>241.0</ele><time>2026-05-02T17:19:48.7Z</time></trkpt><trkpt lat="40.788465" lon="16.25265"><ele>242.5</ele><time>2026-05-02T17:19:49.702Z</time></trkpt><trkpt lat="40.7884017" lon="16.2529433"><ele>244.0</ele><time>2026-05-02T17:19:50.704Z</time></trkpt><trkpt lat="40.78834" lon="16.2532333"><ele>244.0</ele><time>2026-05-02T17:19:51.7Z</time></trkpt><trkpt lat="40.78828" lon="16.2535233"><ele>244.0</ele><time>2026-05-02T17:19:52.701Z</time></trkpt><trkpt lat="40.78822" lon="16.2538117"><ele>243.0</ele><time>2026-05-02T17:19:53.701Z</time></trkpt><trkpt lat="40.7881583" lon="16.2541"><ele>242.0</ele><time>2026-05-02T17:19:54.701Z</time></trkpt><trkpt lat="40.7880933" lon="16.2543883"><ele>242.0</ele><time>2026-05-02T17:19:55.706Z</time></trkpt><trkpt lat="40.788025" lon="16.254675"><ele>242.0</ele><time>2026-05-02T17:19:56.702Z</time></trkpt><trkpt lat="40.787955" lon="16.25496"><ele>241.5</ele><time>2026-05-02T17:19:57.701Z</time></trkpt><trkpt lat="40.7878717" lon="16.2552383"><ele>241.0</ele><time>2026-05-02T17:19:58.7Z</time></trkpt><trkpt lat="40.7877767" lon="16.2555067"><ele>240.0</ele><time>2026-05-02T17:19:59.7Z</time></trkpt><trkpt lat="40.78766" lon="16.2557633"><ele>239.0</ele><time>2026-05-02T17:20:00.701Z</time></trkpt><trkpt lat="40.7875283" lon="16.2560083"><ele>239.0</ele><time>2026-05-02T17:20:01.701Z</time></trkpt><trkpt lat="40.7873833" lon="16.2562383"><ele>239.0</ele><time>2026-05-02T17:20:02.703Z</time></trkpt><trkpt lat="40.7872333" lon="16.2564617"><ele>239.0</ele><time>2026-05-02T17:20:03.702Z</time></trkpt><trkpt lat="40.7870867" lon="16.2566883"><ele>239.0</ele><time>2026-05-02T17:20:04.702Z</time></trkpt><trkpt lat="40.786945" lon="16.2569217"><ele>239.0</ele><time>2026-05-02T17:20:05.702Z</time></trkpt><trkpt lat="40.786815" lon="16.257165"><ele>239.0</ele><time>2026-05-02T17:20:06.701Z</time></trkpt><trkpt lat="40.7867" lon="16.2574167"><ele>239.0</ele><time>2026-05-02T17:20:07.701Z</time></trkpt><trkpt lat="40.7866017" lon="16.25768"><ele>239.0</ele><time>2026-05-02T17:20:08.702Z</time></trkpt><trkpt lat="40.7865233" lon="16.2579533"><ele>239.0</ele><time>2026-05-02T17:20:09.701Z</time></trkpt><trkpt lat="40.78646" lon="16.2582333"><ele>239.0</ele><time>2026-05-02T17:20:10.709Z</time></trkpt><trkpt lat="40.786415" lon="16.2585217"><ele>238.33333333333334</ele><time>2026-05-02T17:20:11.702Z</time></trkpt><trkpt lat="40.7863883" lon="16.2588117"><ele>237.66666666666669</ele><time>2026-05-02T17:20:12.703Z</time></trkpt><trkpt lat="40.78638" lon="16.2591067"><ele>237.0</ele><time>2026-05-02T17:20:13.703Z</time></trkpt><trkpt lat="40.7863883" lon="16.2594017"><ele>236.66666666666669</ele><time>2026-05-02T17:20:14.703Z</time></trkpt><trkpt lat="40.7864117" lon="16.259695"><ele>236.33333333333334</ele><time>2026-05-02T17:20:15.702Z</time></trkpt><trkpt lat="40.78645" lon="16.2599817"><ele>236.0</ele><time>2026-05-02T17:20:16.703Z</time></trkpt><trkpt lat="40.7864917" lon="16.260265"><ele>236.0</ele><time>2026-05-02T17:20:17.702Z</time></trkpt><trkpt lat="40.7865333" lon="16.2605533"><ele>236.0</ele><time>2026-05-02T17:20:18.702Z</time></trkpt><trkpt lat="40.7865717" lon="16.2608433"><ele>236.0</ele><time>2026-05-02T17:20:19.702Z</time></trkpt><trkpt lat="40.78661" lon="16.261135"><ele>235.33333333333334</ele><time>2026-05-02T17:20:20.702Z</time></trkpt><trkpt lat="40.78665" lon="16.261425"><ele>234.66666666666669</ele><time>2026-05-02T17:20:21.701Z</time></trkpt><trkpt lat="40.7866917" lon="16.2617167"><ele>234.0</ele><time>2026-05-02T17:20:22.702Z</time></trkpt><trkpt lat="40.7867317" lon="16.262005"><ele>234.0</ele><time>2026-05-02T17:20:23.701Z</time></trkpt><trkpt lat="40.78677" lon="16.2623"><ele>234.0</ele><time>2026-05-02T17:20:24.703Z</time></trkpt><trkpt lat="40.7868083" lon="16.2626017"><ele>234.5</ele><time>2026-05-02T17:20:25.702Z</time></trkpt><trkpt lat="40.78685" lon="16.2629033"><ele>235.0</ele><time>2026-05-02T17:20:26.703Z</time></trkpt><trkpt lat="40.78689" lon="16.2632083"><ele>235.0</ele><time>2026-05-02T17:20:27.702Z</time></trkpt><trkpt lat="40.7869333" lon="16.263515"><ele>235.0</ele><time>2026-05-02T17:20:28.702Z</time></trkpt><trkpt lat="40.7869783" lon="16.2638183"><ele>235.0</ele><time>2026-05-02T17:20:29.702Z</time></trkpt><trkpt lat="40.7870217" lon="16.264115"><ele>235.0</ele><time>2026-05-02T17:20:30.702Z</time></trkpt><trkpt lat="40.7870633" lon="16.2643967"><ele>235.0</ele><time>2026-05-02T17:20:31.701Z</time></trkpt><trkpt lat="40.7871067" lon="16.2646633"><ele>234.0</ele><time>2026-05-02T17:20:32.703Z</time></trkpt><trkpt lat="40.7871517" lon="16.264925"><ele>233.0</ele><time>2026-05-02T17:20:33.703Z</time></trkpt><trkpt lat="40.7871967" lon="16.2651867"><ele>232.0</ele><time>2026-05-02T17:20:34.708Z</time></trkpt><trkpt lat="40.7872433" lon="16.2654483"><ele>231.33333333333331</ele><time>2026-05-02T17:20:35.703Z</time></trkpt><trkpt lat="40.78729" lon="16.2657117"><ele>230.66666666666669</ele><time>2026-05-02T17:20:36.701Z</time></trkpt><trkpt lat="40.7873417" lon="16.2659767"><ele>230.0</ele><time>2026-05-02T17:20:37.702Z</time></trkpt><trkpt lat="40.7873967" lon="16.2662483"><ele>230.0</ele><time>2026-05-02T17:20:38.702Z</time></trkpt><trkpt lat="40.78745" lon="16.2665183"><ele>230.0</ele><time>2026-05-02T17:20:39.701Z</time></trkpt><trkpt lat="40.7875033" lon="16.2667817"><ele>230.0</ele><time>2026-05-02T17:20:40.701Z</time></trkpt><trkpt lat="40.7875567" lon="16.2670467"><ele>229.66666666666669</ele><time>2026-05-02T17:20:41.702Z</time></trkpt><trkpt lat="40.78761" lon="16.2673167"><ele>229.33333333333331</ele><time>2026-05-02T17:20:42.701Z</time></trkpt><trkpt lat="40.787665" lon="16.267585"><ele>229.0</ele><time>2026-05-02T17:20:43.703Z</time></trkpt><trkpt lat="40.7877217" lon="16.267855"><ele>229.0</ele><time>2026-05-02T17:20:44.703Z</time></trkpt><trkpt lat="40.78778" lon="16.2681267"><ele>229.0</ele><time>2026-05-02T17:20:45.703Z</time></trkpt><trkpt lat="40.7878367" lon="16.2683983"><ele>229.0</ele><time>2026-05-02T17:20:46.702Z</time></trkpt><trkpt lat="40.787895" lon="16.2686683"><ele>229.0</ele><time>2026-05-02T17:20:47.702Z</time></trkpt><trkpt lat="40.7879533" lon="16.26894"><ele>229.0</ele><time>2026-05-02T17:20:48.702Z</time></trkpt><trkpt lat="40.7880117" lon="16.269215"><ele>229.0</ele><time>2026-05-02T17:20:49.702Z</time></trkpt><trkpt lat="40.7880733" lon="16.2694933"><ele>228.33333333333331</ele><time>2026-05-02T17:20:50.703Z</time></trkpt><trkpt lat="40.7881333" lon="16.2697717"><ele>227.66666666666669</ele><time>2026-05-02T17:20:51.701Z</time></trkpt><trkpt lat="40.788195" lon="16.2700517"><ele>227.0</ele><time>2026-05-02T17:20:52.702Z</time></trkpt><trkpt lat="40.7882533" lon="16.2703317"><ele>226.0</ele><time>2026-05-02T17:20:53.701Z</time></trkpt><trkpt lat="40.7883083" lon="16.2706117"><ele>225.0</ele><time>2026-05-02T17:20:54.703Z</time></trkpt><trkpt lat="40.7883633" lon="16.2708883"><ele>224.0</ele><time>2026-05-02T17:20:55.701Z</time></trkpt><trkpt lat="40.7884217" lon="16.2711667"><ele>224.0</ele><time>2026-05-02T17:20:56.703Z</time></trkpt><trkpt lat="40.78848" lon="16.2714467"><ele>224.0</ele><time>2026-05-02T17:20:57.702Z</time></trkpt><trkpt lat="40.7885383" lon="16.27173"><ele>224.0</ele><time>2026-05-02T17:20:58.703Z</time></trkpt><trkpt lat="40.7885967" lon="16.2720117"><ele>223.0</ele><time>2026-05-02T17:20:59.702Z</time></trkpt><trkpt lat="40.7886483" lon="16.2722967"><ele>222.0</ele><time>2026-05-02T17:21:00.701Z</time></trkpt><trkpt lat="40.788695" lon="16.2725817"><ele>221.0</ele><time>2026-05-02T17:21:01.701Z</time></trkpt><trkpt lat="40.78874" lon="16.27287"><ele>219.5</ele><time>2026-05-02T17:21:02.703Z</time></trkpt><trkpt lat="40.7887817" lon="16.2731617"><ele>218.0</ele><time>2026-05-02T17:21:03.701Z</time></trkpt><trkpt lat="40.788825" lon="16.2734567"><ele>218.0</ele><time>2026-05-02T17:21:04.701Z</time></trkpt><trkpt lat="40.7888667" lon="16.273755"><ele>218.0</ele><time>2026-05-02T17:21:05.703Z</time></trkpt><trkpt lat="40.78891" lon="16.2740533"><ele>217.5</ele><time>2026-05-02T17:21:06.703Z</time></trkpt><trkpt lat="40.788955" lon="16.2743467"><ele>217.0</ele><time>2026-05-02T17:21:07.702Z</time></trkpt><trkpt lat="40.789" lon="16.2746383"><ele>217.5</ele><time>2026-05-02T17:21:08.702Z</time></trkpt><trkpt lat="40.7890417" lon="16.2749317"><ele>218.0</ele><time>2026-05-02T17:21:09.701Z</time></trkpt><trkpt lat="40.7890867" lon="16.2752333"><ele>218.0</ele><time>2026-05-02T17:21:10.701Z</time></trkpt><trkpt lat="40.7891317" lon="16.2755367"><ele>218.0</ele><time>2026-05-02T17:21:11.702Z</time></trkpt><trkpt lat="40.789175" lon="16.2758333"><ele>219.33333333333334</ele><time>2026-05-02T17:21:12.702Z</time></trkpt><trkpt lat="40.7892183" lon="16.2761283"><ele>220.66666666666669</ele><time>2026-05-02T17:21:13.703Z</time></trkpt><trkpt lat="40.7892583" lon="16.2764167"><ele>222.0</ele><time>2026-05-02T17:21:14.703Z</time></trkpt><trkpt lat="40.7893" lon="16.2766933"><ele>222.66666666666669</ele><time>2026-05-02T17:21:15.702Z</time></trkpt><trkpt lat="40.78934" lon="16.2769567"><ele>223.33333333333334</ele><time>2026-05-02T17:21:16.702Z</time></trkpt><trkpt lat="40.7893817" lon="16.2772167"><ele>224.0</ele><time>2026-05-02T17:21:17.702Z</time></trkpt><trkpt lat="40.7894233" lon="16.2774817"><ele>221.0</ele><time>2026-05-02T17:21:18.702Z</time></trkpt><trkpt lat="40.7894633" lon="16.2777567"><ele>218.0</ele><time>2026-05-02T17:21:19.702Z</time></trkpt><trkpt lat="40.789505" lon="16.2780417"><ele>215.0</ele><time>2026-05-02T17:21:20.703Z</time></trkpt><trkpt lat="40.789545" lon="16.27833"><ele>215.0</ele><time>2026-05-02T17:21:21.701Z</time></trkpt><trkpt lat="40.789585" lon="16.2786217"><ele>215.0</ele><time>2026-05-02T17:21:22.703Z</time></trkpt><trkpt lat="40.7896283" lon="16.2789133"><ele>215.0</ele><time>2026-05-02T17:21:23.702Z</time></trkpt><trkpt lat="40.7896667" lon="16.2792033"><ele>215.0</ele><time>2026-05-02T17:21:24.701Z</time></trkpt><trkpt lat="40.7897017" lon="16.2794917"><ele>215.0</ele><time>2026-05-02T17:21:25.702Z</time></trkpt><trkpt lat="40.7897333" lon="16.2797767"><ele>215.0</ele><time>2026-05-02T17:21:26.703Z</time></trkpt><trkpt lat="40.78976" lon="16.28006"><ele>214.66666666666669</ele><time>2026-05-02T17:21:27.701Z</time></trkpt><trkpt lat="40.7897817" lon="16.28034"><ele>214.33333333333331</ele><time>2026-05-02T17:21:28.702Z</time></trkpt><trkpt lat="40.7897967" lon="16.2806217"><ele>214.0</ele><time>2026-05-02T17:21:29.702Z</time></trkpt><trkpt lat="40.7898083" lon="16.2809033"><ele>214.0</ele><time>2026-05-02T17:21:30.702Z</time></trkpt><trkpt lat="40.7898133" lon="16.2811817"><ele>214.0</ele><time>2026-05-02T17:21:31.702Z</time></trkpt><trkpt lat="40.78981" lon="16.28146"><ele>214.0</ele><time>2026-05-02T17:21:32.702Z</time></trkpt><trkpt lat="40.7898" lon="16.2817383"><ele>214.33333333333331</ele><time>2026-05-02T17:21:33.702Z</time></trkpt><trkpt lat="40.7897867" lon="16.2820167"><ele>214.66666666666669</ele><time>2026-05-02T17:21:34.702Z</time></trkpt><trkpt lat="40.789775" lon="16.282295"><ele>215.0</ele><time>2026-05-02T17:21:35.702Z</time></trkpt><trkpt lat="40.7897617" lon="16.28256"><ele>214.33333333333334</ele><time>2026-05-02T17:21:36.702Z</time></trkpt><trkpt lat="40.7897483" lon="16.2828117"><ele>213.66666666666669</ele><time>2026-05-02T17:21:37.702Z</time></trkpt><trkpt lat="40.7897367" lon="16.28306"><ele>213.0</ele><time>2026-05-02T17:21:38.706Z</time></trkpt><trkpt lat="40.7897267" lon="16.2833067"><ele>213.0</ele><time>2026-05-02T17:21:39.701Z</time></trkpt><trkpt lat="40.7897167" lon="16.2835417"><ele>213.0</ele><time>2026-05-02T17:21:40.702Z</time></trkpt><trkpt lat="40.789705" lon="16.2837617"><ele>213.0</ele><time>2026-05-02T17:21:41.703Z</time></trkpt><trkpt lat="40.7896917" lon="16.2839617"><ele>212.60000000000002</ele><time>2026-05-02T17:21:42.703Z</time></trkpt><trkpt lat="40.78967" lon="16.2841367"><ele>212.20000000000002</ele><time>2026-05-02T17:21:43.703Z</time></trkpt><trkpt lat="40.7896367" lon="16.2842833"><ele>211.8</ele><time>2026-05-02T17:21:44.703Z</time></trkpt><trkpt lat="40.7895917" lon="16.284405"><ele>211.4</ele><time>2026-05-02T17:21:45.702Z</time></trkpt><trkpt lat="40.7895367" lon="16.28451"><ele>211.0</ele><time>2026-05-02T17:21:46.701Z</time></trkpt><trkpt lat="40.789485" lon="16.2846017"><ele>210.99999999999997</ele><time>2026-05-02T17:21:47.702Z</time></trkpt><trkpt lat="40.7894533" lon="16.2846917"><ele>211.0</ele><time>2026-05-02T17:21:48.702Z</time></trkpt><trkpt lat="40.789445" lon="16.28479"><ele>211.0</ele><time>2026-05-02T17:21:49.701Z</time></trkpt><trkpt lat="40.7894617" lon="16.2848917"><ele>211.0</ele><time>2026-05-02T17:21:50.705Z</time></trkpt><trkpt lat="40.7895067" lon="16.2849933"><ele>210.99999999999997</ele><time>2026-05-02T17:21:51.701Z</time></trkpt><trkpt lat="40.7895567" lon="16.2850983"><ele>211.0</ele><time>2026-05-02T17:21:52.701Z</time></trkpt><trkpt lat="40.7896" lon="16.2852117"><ele>211.0</ele><time>2026-05-02T17:21:53.703Z</time></trkpt><trkpt lat="40.7896233" lon="16.2853383"><ele>211.0</ele><time>2026-05-02T17:21:54.701Z</time></trkpt><trkpt lat="40.7896267" lon="16.2854867"><ele>211.0</ele><time>2026-05-02T17:21:55.702Z</time></trkpt><trkpt lat="40.7896183" lon="16.2856633"><ele>211.0</ele><time>2026-05-02T17:21:56.703Z</time></trkpt><trkpt lat="40.789605" lon="16.285855"><ele>211.0</ele><time>2026-05-02T17:21:57.702Z</time></trkpt><trkpt lat="40.7895917" lon="16.2860517"><ele>211.0</ele><time>2026-05-02T17:21:58.701Z</time></trkpt><trkpt lat="40.78958" lon="16.2862533"><ele>211.0</ele><time>2026-05-02T17:21:59.701Z</time></trkpt><trkpt lat="40.78957" lon="16.286455"><ele>210.0</ele><time>2026-05-02T17:22:00.701Z</time></trkpt><trkpt lat="40.7895517" lon="16.28666"><ele>209.0</ele><time>2026-05-02T17:22:01.701Z</time></trkpt><trkpt lat="40.7895233" lon="16.2868583"><ele>208.0</ele><time>2026-05-02T17:22:02.702Z</time></trkpt><trkpt lat="40.789495" lon="16.287045"><ele>208.0</ele><time>2026-05-02T17:22:03.702Z</time></trkpt><trkpt lat="40.7894617" lon="16.2872267"><ele>208.0</ele><time>2026-05-02T17:22:04.702Z</time></trkpt><trkpt lat="40.7894233" lon="16.2874083"><ele>208.0</ele><time>2026-05-02T17:22:05.702Z</time></trkpt><trkpt lat="40.7893833" lon="16.2875917"><ele>208.0</ele><time>2026-05-02T17:22:06.701Z</time></trkpt><trkpt lat="40.7893417" lon="16.287775"><ele>208.25</ele><time>2026-05-02T17:22:07.701Z</time></trkpt><trkpt lat="40.7892983" lon="16.28796"><ele>208.5</ele><time>2026-05-02T17:22:08.704Z</time></trkpt><trkpt lat="40.7892517" lon="16.288145"><ele>208.75</ele><time>2026-05-02T17:22:09.703Z</time></trkpt><trkpt lat="40.7892017" lon="16.28833"><ele>209.0</ele><time>2026-05-02T17:22:10.701Z</time></trkpt><trkpt lat="40.78915" lon="16.288515"><ele>209.0</ele><time>2026-05-02T17:22:11.702Z</time></trkpt><trkpt lat="40.7890967" lon="16.288705"><ele>209.0</ele><time>2026-05-02T17:22:12.701Z</time></trkpt><trkpt lat="40.7890433" lon="16.2889"><ele>209.0</ele><time>2026-05-02T17:22:13.702Z</time></trkpt><trkpt lat="40.7889933" lon="16.2890983"><ele>209.0</ele><time>2026-05-02T17:22:14.703Z</time></trkpt><trkpt lat="40.78894" lon="16.2892983"><ele>209.0</ele><time>2026-05-02T17:22:15.702Z</time></trkpt><trkpt lat="40.788885" lon="16.28951"><ele>209.0</ele><time>2026-05-02T17:22:16.701Z</time></trkpt><trkpt lat="40.7888283" lon="16.2897283"><ele>208.66666666666669</ele><time>2026-05-02T17:22:17.702Z</time></trkpt><trkpt lat="40.78877" lon="16.2899467"><ele>208.33333333333331</ele><time>2026-05-02T17:22:18.702Z</time></trkpt><trkpt lat="40.78871" lon="16.29017"><ele>208.0</ele><time>2026-05-02T17:22:19.701Z</time></trkpt><trkpt lat="40.788645" lon="16.2904017"><ele>208.66666666666666</ele><time>2026-05-02T17:22:20.702Z</time></trkpt><trkpt lat="40.7885783" lon="16.29064"><ele>209.33333333333331</ele><time>2026-05-02T17:22:21.702Z</time></trkpt><trkpt lat="40.7885117" lon="16.290885"><ele>210.0</ele><time>2026-05-02T17:22:22.701Z</time></trkpt><trkpt lat="40.7884467" lon="16.2911433"><ele>210.0</ele><time>2026-05-02T17:22:23.706Z</time></trkpt><trkpt lat="40.7883783" lon="16.2914133"><ele>210.0</ele><time>2026-05-02T17:22:24.703Z</time></trkpt><trkpt lat="40.7883083" lon="16.2916917"><ele>210.0</ele><time>2026-05-02T17:22:25.702Z</time></trkpt><trkpt lat="40.788235" lon="16.2919717"><ele>210.0</ele><time>2026-05-02T17:22:26.702Z</time></trkpt><trkpt lat="40.78816" lon="16.2922517"><ele>210.0</ele><time>2026-05-02T17:22:27.702Z</time></trkpt><trkpt lat="40.7880833" lon="16.2925383"><ele>210.0</ele><time>2026-05-02T17:22:28.702Z</time></trkpt><trkpt lat="40.788005" lon="16.2928367"><ele>210.0</ele><time>2026-05-02T17:22:29.702Z</time></trkpt><trkpt lat="40.787925" lon="16.293135"><ele>209.0</ele><time>2026-05-02T17:22:30.702Z</time></trkpt><trkpt lat="40.7878483" lon="16.2934383"><ele>208.0</ele><time>2026-05-02T17:22:31.701Z</time></trkpt><trkpt lat="40.78777" lon="16.2937367"><ele>207.5</ele><time>2026-05-02T17:22:32.702Z</time></trkpt><trkpt lat="40.7876933" lon="16.2940333"><ele>207.0</ele><time>2026-05-02T17:22:33.701Z</time></trkpt><trkpt lat="40.7876167" lon="16.2943183"><ele>207.0</ele><time>2026-05-02T17:22:34.703Z</time></trkpt><trkpt lat="40.787545" lon="16.2945967"><ele>207.0</ele><time>2026-05-02T17:22:35.701Z</time></trkpt><trkpt lat="40.78747" lon="16.2948767"><ele>207.0</ele><time>2026-05-02T17:22:36.701Z</time></trkpt><trkpt lat="40.787395" lon="16.295155"><ele>207.0</ele><time>2026-05-02T17:22:37.701Z</time></trkpt><trkpt lat="40.7873133" lon="16.2954367"><ele>207.0</ele><time>2026-05-02T17:22:38.703Z</time></trkpt><trkpt lat="40.7872217" lon="16.2957183"><ele>206.5</ele><time>2026-05-02T17:22:39.702Z</time></trkpt><trkpt lat="40.7871233" lon="16.296"><ele>206.0</ele><time>2026-05-02T17:22:40.701Z</time></trkpt><trkpt lat="40.7870167" lon="16.296275"><ele>204.5</ele><time>2026-05-02T17:22:41.701Z</time></trkpt><trkpt lat="40.7869" lon="16.2965383"><ele>203.0</ele><time>2026-05-02T17:22:42.701Z</time></trkpt><trkpt lat="40.7892017" lon="16.28833"><ele>205.0</ele><time>2026-05-02T17:22:10.701Z</time></trkpt><trkpt lat="40.78915" lon="16.288515"><ele>207.0</ele><time>2026-05-02T17:22:11.702Z</time></trkpt><trkpt lat="40.7890967" lon="16.288705"><ele>209.0</ele><time>2026-05-02T17:22:12.701Z</time></trkpt><trkpt lat="40.7890433" lon="16.2889"><ele>209.0</ele><time>2026-05-02T17:22:13.702Z</time></trkpt><trkpt lat="40.7889933" lon="16.2890983"><ele>209.0</ele><time>2026-05-02T17:22:14.703Z</time></trkpt><trkpt lat="40.78894" lon="16.2892983"><ele>209.0</ele><time>2026-05-02T17:22:15.702Z</time></trkpt><trkpt lat="40.788885" lon="16.28951"><ele>209.0</ele><time>2026-05-02T17:22:16.701Z</time></trkpt><trkpt lat="40.7888283" lon="16.2897283"><ele>209.0</ele><time>2026-05-02T17:22:17.702Z</time></trkpt><trkpt lat="40.78877" lon="16.2899467"><ele>209.0</ele><time>2026-05-02T17:22:18.702Z</time></trkpt><trkpt lat="40.78871" lon="16.29017"><ele>208.66666666666669</ele><time>2026-05-02T17:22:19.701Z</time></trkpt><trkpt lat="40.788645" lon="16.2904017"><ele>208.33333333333331</ele><time>2026-05-02T17:22:20.702Z</time></trkpt><trkpt lat="40.7885783" lon="16.29064"><ele>208.0</ele><time>2026-05-02T17:22:21.702Z</time></trkpt><trkpt lat="40.7885117" lon="16.290885"><ele>208.66666666666666</ele><time>2026-05-02T17:22:22.701Z</time></trkpt><trkpt lat="40.7884467" lon="16.2911433"><ele>209.33333333333331</ele><time>2026-05-02T17:22:23.706Z</time></trkpt><trkpt lat="40.7883783" lon="16.2914133"><ele>210.0</ele><time>2026-05-02T17:22:24.703Z</time></trkpt><trkpt lat="40.7883083" lon="16.2916917"><ele>210.0</ele><time>2026-05-02T17:22:25.702Z</time></trkpt><trkpt lat="40.788235" lon="16.2919717"><ele>210.0</ele><time>2026-05-02T17:22:26.702Z</time></trkpt><trkpt lat="40.78816" lon="16.2922517"><ele>210.0</ele><time>2026-05-02T17:22:27.702Z</time></trkpt><trkpt lat="40.7880833" lon="16.2925383"><ele>210.0</ele><time>2026-05-02T17:22:28.702Z</time></trkpt><trkpt lat="40.788005" lon="16.2928367"><ele>210.0</ele><time>2026-05-02T17:22:29.702Z</time></trkpt><trkpt lat="40.787925" lon="16.293135"><ele>209.0</ele><time>2026-05-02T17:22:30.702Z</time></trkpt><trkpt lat="40.7878483" lon="16.2934383"><ele>208.0</ele><time>2026-05-02T17:22:31.701Z</time></trkpt><trkpt lat="40.78777" lon="16.2937367"><ele>207.5</ele><time>2026-05-02T17:22:32.702Z</time></trkpt><trkpt lat="40.7876933" lon="16.2940333"><ele>207.0</ele><time>2026-05-02T17:22:33.701Z</time></trkpt><trkpt lat="40.7876167" lon="16.2943183"><ele>207.0</ele><time>2026-05-02T17:22:34.703Z</time></trkpt><trkpt lat="40.787545" lon="16.2945967"><ele>207.0</ele><time>2026-05-02T17:22:35.701Z</time></trkpt><trkpt lat="40.78747" lon="16.2948767"><ele>207.0</ele><time>2026-05-02T17:22:36.701Z</time></trkpt><trkpt lat="40.787395" lon="16.295155"><ele>207.0</ele><time>2026-05-02T17:22:37.701Z</time></trkpt><trkpt lat="40.7873133" lon="16.2954367"><ele>207.0</ele><time>2026-05-02T17:22:38.703Z</time></trkpt><trkpt lat="40.7872217" lon="16.2957183"><ele>206.5</ele><time>2026-05-02T17:22:39.702Z</time></trkpt><trkpt lat="40.7871233" lon="16.296"><ele>206.0</ele><time>2026-05-02T17:22:40.701Z</time></trkpt><trkpt lat="40.7870167" lon="16.296275"><ele>204.5</ele><time>2026-05-02T17:22:41.701Z</time></trkpt><trkpt lat="40.7869" lon="16.2965383"><ele>203.0</ele><time>2026-05-02T17:22:42.701Z</time></trkpt><trkpt lat="40.7867783" lon="16.296785"><ele>203.33333333333334</ele><time>2026-05-02T17:22:43.702Z</time></trkpt><trkpt lat="40.7866533" lon="16.297015"><ele>203.66666666666669</ele><time>2026-05-02T17:22:44.702Z</time></trkpt><trkpt lat="40.7865233" lon="16.2972367"><ele>204.0</ele><time>2026-05-02T17:22:45.702Z</time></trkpt><trkpt lat="40.78639" lon="16.29746"><ele>204.0</ele><time>2026-05-02T17:22:46.701Z</time></trkpt><trkpt lat="40.7862583" lon="16.29769"><ele>204.0</ele><time>2026-05-02T17:22:47.702Z</time></trkpt><trkpt lat="40.7861317" lon="16.2979333"><ele>204.0</ele><time>2026-05-02T17:22:48.702Z</time></trkpt><trkpt lat="40.7860133" lon="16.2981867"><ele>205.5</ele><time>2026-05-02T17:22:49.704Z</time></trkpt><trkpt lat="40.7859083" lon="16.2984517"><ele>207.0</ele><time>2026-05-02T17:22:50.702Z</time></trkpt><trkpt lat="40.7858133" lon="16.2987267"><ele>206.0</ele><time>2026-05-02T17:22:51.702Z</time></trkpt><trkpt lat="40.7857317" lon="16.2990083"><ele>205.0</ele><time>2026-05-02T17:22:52.702Z</time></trkpt><trkpt lat="40.7856633" lon="16.2992933"><ele>205.0</ele><time>2026-05-02T17:22:53.703Z</time></trkpt><trkpt lat="40.78561" lon="16.299585"><ele>205.0</ele><time>2026-05-02T17:22:54.703Z</time></trkpt><trkpt lat="40.7855717" lon="16.29988"><ele>204.0</ele><time>2026-05-02T17:22:55.701Z</time></trkpt><trkpt lat="40.785545" lon="16.300175"><ele>203.0</ele><time>2026-05-02T17:22:56.702Z</time></trkpt><trkpt lat="40.7855317" lon="16.3004717"><ele>202.0</ele><time>2026-05-02T17:22:57.702Z</time></trkpt><trkpt lat="40.78553" lon="16.3007683"><ele>201.0</ele><time>2026-05-02T17:22:58.702Z</time></trkpt><trkpt lat="40.7855333" lon="16.3010667"><ele>201.0</ele><time>2026-05-02T17:22:59.702Z</time></trkpt><trkpt lat="40.7855333" lon="16.3013617"><ele>201.0</ele><time>2026-05-02T17:23:00.701Z</time></trkpt><trkpt lat="40.785535" lon="16.3016617"><ele>200.5</ele><time>2026-05-02T17:23:01.7Z</time></trkpt><trkpt lat="40.7855376" lon="16.3019639"><ele>200.0</ele><time>2026-05-02T17:23:02.701Z</time></trkpt><trkpt lat="40.7855405" lon="16.3022685"><ele>200.0</ele><time>2026-05-02T17:23:03.701Z</time></trkpt><trkpt lat="40.7855402" lon="16.3025754"><ele>200.0</ele><time>2026-05-02T17:23:04.702Z</time></trkpt><trkpt lat="40.7855368" lon="16.3028831"><ele>200.0</ele><time>2026-05-02T17:23:05.703Z</time></trkpt><trkpt lat="40.7855344" lon="16.3031877"><ele>200.0</ele><time>2026-05-02T17:23:06.701Z</time></trkpt><trkpt lat="40.7855349" lon="16.3034935"><ele>200.0</ele><time>2026-05-02T17:23:07.701Z</time></trkpt><trkpt lat="40.7855362" lon="16.3038007"><ele>200.0</ele><time>2026-05-02T17:23:08.702Z</time></trkpt><trkpt lat="40.7855366" lon="16.3041055"><ele>200.0</ele><time>2026-05-02T17:23:09.701Z</time></trkpt><trkpt lat="40.7855356" lon="16.3044091"><ele>200.0</ele><time>2026-05-02T17:23:10.701Z</time></trkpt><trkpt lat="40.7855376" lon="16.304715"><ele>200.0</ele><time>2026-05-02T17:23:11.702Z</time></trkpt><trkpt lat="40.7855394" lon="16.305022"><ele>200.0</ele><time>2026-05-02T17:23:12.702Z</time></trkpt><trkpt lat="40.7855399" lon="16.3053305"><ele>200.0</ele><time>2026-05-02T17:23:13.702Z</time></trkpt><trkpt lat="40.7855388" lon="16.3056372"><ele>200.0</ele><time>2026-05-02T17:23:14.703Z</time></trkpt><trkpt lat="40.7855385" lon="16.3059455"><ele>200.0</ele><time>2026-05-02T17:23:15.702Z</time></trkpt><trkpt lat="40.7855408" lon="16.30625"><ele>200.0</ele><time>2026-05-02T17:23:16.703Z</time></trkpt><trkpt lat="40.7855427" lon="16.3065497"><ele>200.0</ele><time>2026-05-02T17:23:17.704Z</time></trkpt><trkpt lat="40.7855455" lon="16.3068488"><ele>200.0</ele><time>2026-05-02T17:23:18.703Z</time></trkpt><trkpt lat="40.7855476" lon="16.3071485"><ele>199.66666666666669</ele><time>2026-05-02T17:23:19.702Z</time></trkpt><trkpt lat="40.7855493" lon="16.3074456"><ele>199.33333333333331</ele><time>2026-05-02T17:23:20.703Z</time></trkpt><trkpt lat="40.7855486" lon="16.3077402"><ele>199.0</ele><time>2026-05-02T17:23:21.702Z</time></trkpt><trkpt lat="40.7855484" lon="16.3080322"><ele>199.33333333333331</ele><time>2026-05-02T17:23:22.703Z</time></trkpt><trkpt lat="40.7855495" lon="16.3083208"><ele>199.66666666666669</ele><time>2026-05-02T17:23:23.704Z</time></trkpt><trkpt lat="40.7855522" lon="16.3086058"><ele>200.0</ele><time>2026-05-02T17:23:24.702Z</time></trkpt><trkpt lat="40.7855553" lon="16.3088882"><ele>199.33333333333334</ele><time>2026-05-02T17:23:25.702Z</time></trkpt><trkpt lat="40.7855585" lon="16.3091688"><ele>198.66666666666669</ele><time>2026-05-02T17:23:26.702Z</time></trkpt><trkpt lat="40.7855595" lon="16.3094532"><ele>198.0</ele><time>2026-05-02T17:23:27.701Z</time></trkpt><trkpt lat="40.7855564" lon="16.3097403"><ele>198.33333333333331</ele><time>2026-05-02T17:23:28.701Z</time></trkpt><trkpt lat="40.7855521" lon="16.3100301"><ele>198.66666666666666</ele><time>2026-05-02T17:23:29.701Z</time></trkpt><trkpt lat="40.7855495" lon="16.3103202"><ele>199.0</ele><time>2026-05-02T17:23:30.701Z</time></trkpt><trkpt lat="40.7855429" lon="16.3106114"><ele>199.0</ele><time>2026-05-02T17:23:31.702Z</time></trkpt><trkpt lat="40.7855304" lon="16.3109036"><ele>199.0</ele><time>2026-05-02T17:23:32.703Z</time></trkpt><trkpt lat="40.7855104" lon="16.3111972"><ele>199.0</ele><time>2026-05-02T17:23:33.701Z</time></trkpt><trkpt lat="40.7854834" lon="16.3114891"><ele>200.0</ele><time>2026-05-02T17:23:34.702Z</time></trkpt><trkpt lat="40.7854491" lon="16.3117778"><ele>201.0</ele><time>2026-05-02T17:23:35.701Z</time></trkpt><trkpt lat="40.7854078" lon="16.3120634"><ele>202.0</ele><time>2026-05-02T17:23:36.703Z</time></trkpt><trkpt lat="40.7853638" lon="16.3123494"><ele>202.0</ele><time>2026-05-02T17:23:37.703Z</time></trkpt><trkpt lat="40.7853168" lon="16.3126357"><ele>202.0</ele><time>2026-05-02T17:23:38.701Z</time></trkpt><trkpt lat="40.7852629" lon="16.3129194"><ele>202.0</ele><time>2026-05-02T17:23:39.7Z</time></trkpt><trkpt lat="40.7852026" lon="16.3131997"><ele>202.0</ele><time>2026-05-02T17:23:40.702Z</time></trkpt><trkpt lat="40.7851384" lon="16.3134735"><ele>202.0</ele><time>2026-05-02T17:23:41.702Z</time></trkpt><trkpt lat="40.785074" lon="16.313742"><ele>202.0</ele><time>2026-05-02T17:23:42.702Z</time></trkpt><trkpt lat="40.7850105" lon="16.3140083"><ele>202.0</ele><time>2026-05-02T17:23:43.702Z</time></trkpt><trkpt lat="40.7849483" lon="16.3142742"><ele>202.0</ele><time>2026-05-02T17:23:44.701Z</time></trkpt><trkpt lat="40.7848843" lon="16.3145378"><ele>202.0</ele><time>2026-05-02T17:23:45.701Z</time></trkpt><trkpt lat="40.7848207" lon="16.3148011"><ele>203.66666666666666</ele><time>2026-05-02T17:23:46.702Z</time></trkpt><trkpt lat="40.7847586" lon="16.3150629"><ele>205.33333333333331</ele><time>2026-05-02T17:23:47.703Z</time></trkpt><trkpt lat="40.784697" lon="16.3153271"><ele>207.0</ele><time>2026-05-02T17:23:48.702Z</time></trkpt><trkpt lat="40.7846358" lon="16.3155938"><ele>208.33333333333331</ele><time>2026-05-02T17:23:49.702Z</time></trkpt><trkpt lat="40.7845723" lon="16.3158633"><ele>209.66666666666666</ele><time>2026-05-02T17:23:50.703Z</time></trkpt><trkpt lat="40.784506" lon="16.3161366"><ele>211.0</ele><time>2026-05-02T17:23:51.702Z</time></trkpt><trkpt lat="40.7844399" lon="16.3164125"><ele>211.33333333333331</ele><time>2026-05-02T17:23:52.701Z</time></trkpt><trkpt lat="40.7843777" lon="16.3166799"><ele>211.66666666666669</ele><time>2026-05-02T17:23:53.702Z</time></trkpt><trkpt lat="40.7843193" lon="16.3169329"><ele>212.0</ele><time>2026-05-02T17:23:54.702Z</time></trkpt><trkpt lat="40.7842654" lon="16.3171738"><ele>215.0</ele><time>2026-05-02T17:23:55.701Z</time></trkpt><trkpt lat="40.7842145" lon="16.3174028"><ele>218.0</ele><time>2026-05-02T17:23:56.701Z</time></trkpt><trkpt lat="40.7841615" lon="16.3176319"><ele>221.0</ele><time>2026-05-02T17:23:57.702Z</time></trkpt><trkpt lat="40.7841109" lon="16.3178652"><ele>222.66666666666669</ele><time>2026-05-02T17:23:58.701Z</time></trkpt><trkpt lat="40.7840715" lon="16.318103"><ele>224.33333333333331</ele><time>2026-05-02T17:23:59.702Z</time></trkpt><trkpt lat="40.7840432" lon="16.318349"><ele>226.0</ele><time>2026-05-02T17:24:00.701Z</time></trkpt><trkpt lat="40.7840293" lon="16.3186051"><ele>226.0</ele><time>2026-05-02T17:24:01.701Z</time></trkpt><trkpt lat="40.7840299" lon="16.3188714"><ele>226.0</ele><time>2026-05-02T17:24:02.702Z</time></trkpt><trkpt lat="40.7840436" lon="16.3191445"><ele>226.0</ele><time>2026-05-02T17:24:03.702Z</time></trkpt><trkpt lat="40.7840725" lon="16.3194201"><ele>227.33333333333331</ele><time>2026-05-02T17:24:04.701Z</time></trkpt><trkpt lat="40.7841177" lon="16.3196943"><ele>228.66666666666669</ele><time>2026-05-02T17:24:05.702Z</time></trkpt><trkpt lat="40.7841792" lon="16.3199637"><ele>230.0</ele><time>2026-05-02T17:24:06.701Z</time></trkpt><trkpt lat="40.7842587" lon="16.3202247"><ele>231.0</ele><time>2026-05-02T17:24:07.702Z</time></trkpt><trkpt lat="40.784354" lon="16.3204767"><ele>232.0</ele><time>2026-05-02T17:24:08.701Z</time></trkpt><trkpt lat="40.7844667" lon="16.3207133"><ele>233.0</ele><time>2026-05-02T17:24:09.701Z</time></trkpt><trkpt lat="40.7845883" lon="16.3209417"><ele>233.66666666666669</ele><time>2026-05-02T17:24:10.701Z</time></trkpt><trkpt lat="40.784725" lon="16.3211533"><ele>234.33333333333331</ele><time>2026-05-02T17:24:11.701Z</time></trkpt><trkpt lat="40.784875" lon="16.32135"><ele>235.0</ele><time>2026-05-02T17:24:12.7Z</time></trkpt><trkpt lat="40.785035" lon="16.3215267"><ele>237.0</ele><time>2026-05-02T17:24:13.703Z</time></trkpt><trkpt lat="40.7852067" lon="16.3216867"><ele>239.0</ele><time>2026-05-02T17:24:14.702Z</time></trkpt><trkpt lat="40.7853867" lon="16.3218317"><ele>241.0</ele><time>2026-05-02T17:24:15.701Z</time></trkpt><trkpt lat="40.78557" lon="16.3219667"><ele>241.0</ele><time>2026-05-02T17:24:16.702Z</time></trkpt><trkpt lat="40.7857583" lon="16.3220967"><ele>241.0</ele><time>2026-05-02T17:24:17.703Z</time></trkpt><trkpt lat="40.7859467" lon="16.3222267"><ele>241.0</ele><time>2026-05-02T17:24:18.701Z</time></trkpt><trkpt lat="40.786135" lon="16.3223667"><ele>241.0</ele><time>2026-05-02T17:24:19.702Z</time></trkpt><trkpt lat="40.7863183" lon="16.3225217"><ele>241.0</ele><time>2026-05-02T17:24:20.702Z</time></trkpt><trkpt lat="40.7864967" lon="16.3226867"><ele>241.0</ele><time>2026-05-02T17:24:21.701Z</time></trkpt><trkpt lat="40.7866717" lon="16.3228583"><ele>241.0</ele><time>2026-05-02T17:24:22.702Z</time></trkpt><trkpt lat="40.7868433" lon="16.323035"><ele>241.0</ele><time>2026-05-02T17:24:23.702Z</time></trkpt><trkpt lat="40.7870117" lon="16.32322"><ele>241.0</ele><time>2026-05-02T17:24:24.702Z</time></trkpt><trkpt lat="40.78717" lon="16.3234167"><ele>240.66666666666666</ele><time>2026-05-02T17:24:25.702Z</time></trkpt><trkpt lat="40.78732" lon="16.3236267"><ele>240.33333333333331</ele><time>2026-05-02T17:24:26.702Z</time></trkpt><trkpt lat="40.78746" lon="16.3238483"><ele>240.0</ele><time>2026-05-02T17:24:27.701Z</time></trkpt><trkpt lat="40.7875883" lon="16.3240833"><ele>240.33333333333331</ele><time>2026-05-02T17:24:28.701Z</time></trkpt><trkpt lat="40.7877083" lon="16.32433"><ele>240.66666666666666</ele><time>2026-05-02T17:24:29.701Z</time></trkpt><trkpt lat="40.7878217" lon="16.3245817"><ele>241.0</ele><time>2026-05-02T17:24:30.702Z</time></trkpt><trkpt lat="40.78793" lon="16.3248417"><ele>241.0</ele><time>2026-05-02T17:24:31.701Z</time></trkpt><trkpt lat="40.788035" lon="16.325105"><ele>241.0</ele><time>2026-05-02T17:24:32.702Z</time></trkpt><trkpt lat="40.7881383" lon="16.32537"><ele>240.5</ele><time>2026-05-02T17:24:33.701Z</time></trkpt><trkpt lat="40.7882417" lon="16.3256383"><ele>240.0</ele><time>2026-05-02T17:24:34.7Z</time></trkpt><trkpt lat="40.7883467" lon="16.3259083"><ele>240.0</ele><time>2026-05-02T17:24:35.702Z</time></trkpt><trkpt lat="40.7884517" lon="16.326175"><ele>240.0</ele><time>2026-05-02T17:24:36.702Z</time></trkpt><trkpt lat="40.7885617" lon="16.3264383"><ele>238.5</ele><time>2026-05-02T17:24:37.702Z</time></trkpt><trkpt lat="40.7886783" lon="16.3266967"><ele>237.0</ele><time>2026-05-02T17:24:38.703Z</time></trkpt><trkpt lat="40.7887983" lon="16.3269483"><ele>237.0</ele><time>2026-05-02T17:24:39.701Z</time></trkpt><trkpt lat="40.788925" lon="16.3271933"><ele>237.0</ele><time>2026-05-02T17:24:40.703Z</time></trkpt><trkpt lat="40.78906" lon="16.3274283"><ele>237.0</ele><time>2026-05-02T17:24:41.701Z</time></trkpt><trkpt lat="40.7892017" lon="16.3276583"><ele>236.33333333333331</ele><time>2026-05-02T17:24:42.792Z</time></trkpt><trkpt lat="40.7893483" lon="16.3278833"><ele>235.66666666666666</ele><time>2026-05-02T17:24:43.701Z</time></trkpt><trkpt lat="40.7894983" lon="16.3281022"><ele>235.0</ele><time>2026-05-02T17:24:44.703Z</time></trkpt><trkpt lat="40.7896535" lon="16.3283144"><ele>235.0</ele><time>2026-05-02T17:24:45.7Z</time></trkpt><trkpt lat="40.7898146" lon="16.3285189"><ele>235.0</ele><time>2026-05-02T17:24:46.702Z</time></trkpt><trkpt lat="40.7899804" lon="16.3287163"><ele>235.0</ele><time>2026-05-02T17:24:47.701Z</time></trkpt><trkpt lat="40.7901506" lon="16.3289051"><ele>237.33333333333331</ele><time>2026-05-02T17:24:48.701Z</time></trkpt><trkpt lat="40.7903253" lon="16.3290849"><ele>239.66666666666669</ele><time>2026-05-02T17:24:49.701Z</time></trkpt><trkpt lat="40.7905082" lon="16.3292558"><ele>242.0</ele><time>2026-05-02T17:24:50.702Z</time></trkpt><trkpt lat="40.7906938" lon="16.3294215"><ele>242.0</ele><time>2026-05-02T17:24:51.702Z</time></trkpt><trkpt lat="40.7908839" lon="16.3295796"><ele>242.0</ele><time>2026-05-02T17:24:52.702Z</time></trkpt><trkpt lat="40.7910776" lon="16.3297319"><ele>242.0</ele><time>2026-05-02T17:24:53.702Z</time></trkpt><trkpt lat="40.7912727" lon="16.3298764"><ele>242.0</ele><time>2026-05-02T17:24:54.701Z</time></trkpt><trkpt lat="40.7914697" lon="16.3300114"><ele>242.0</ele><time>2026-05-02T17:24:55.702Z</time></trkpt><trkpt lat="40.7916707" lon="16.3301365"><ele>244.0</ele><time>2026-05-02T17:24:56.702Z</time></trkpt><trkpt lat="40.7918732" lon="16.3302603"><ele>246.0</ele><time>2026-05-02T17:24:57.701Z</time></trkpt><trkpt lat="40.7920799" lon="16.3303841"><ele>246.0</ele><time>2026-05-02T17:24:58.704Z</time></trkpt><trkpt lat="40.7922868" lon="16.3305116"><ele>246.0</ele><time>2026-05-02T17:24:59.704Z</time></trkpt><trkpt lat="40.7924938" lon="16.3306382"><ele>243.5</ele><time>2026-05-02T17:25:00.702Z</time></trkpt><trkpt lat="40.7927016" lon="16.3307745"><ele>241.0</ele><time>2026-05-02T17:25:01.702Z</time></trkpt><trkpt lat="40.7929106" lon="16.3309233"><ele>241.0</ele><time>2026-05-02T17:25:02.702Z</time></trkpt><trkpt lat="40.7931185" lon="16.3310756"><ele>241.0</ele><time>2026-05-02T17:25:03.701Z</time></trkpt><trkpt lat="40.7933198" lon="16.3312386"><ele>242.0</ele><time>2026-05-02T17:25:04.701Z</time></trkpt><trkpt lat="40.793516" lon="16.331414"><ele>243.0</ele><time>2026-05-02T17:25:05.7Z</time></trkpt><trkpt lat="40.7937059" lon="16.3316006"><ele>243.0</ele><time>2026-05-02T17:25:06.701Z</time></trkpt><trkpt lat="40.7938892" lon="16.3317917"><ele>243.0</ele><time>2026-05-02T17:25:07.7Z</time></trkpt><trkpt lat="40.7940675" lon="16.3319862"><ele>243.0</ele><time>2026-05-02T17:25:08.702Z</time></trkpt><trkpt lat="40.7942401" lon="16.3321863"><ele>243.0</ele><time>2026-05-02T17:25:09.702Z</time></trkpt><trkpt lat="40.794407" lon="16.3323921"><ele>246.5</ele><time>2026-05-02T17:25:10.7Z</time></trkpt><trkpt lat="40.7945738" lon="16.3325994"><ele>250.0</ele><time>2026-05-02T17:25:11.701Z</time></trkpt><trkpt lat="40.7947405" lon="16.3328053"><ele>250.0</ele><time>2026-05-02T17:25:12.707Z</time></trkpt><trkpt lat="40.7949064" lon="16.3330072"><ele>250.0</ele><time>2026-05-02T17:25:13.701Z</time></trkpt><trkpt lat="40.7950749" lon="16.3332046"><ele>253.33333333333331</ele><time>2026-05-02T17:25:14.702Z</time></trkpt><trkpt lat="40.7952462" lon="16.3333952"><ele>256.6666666666667</ele><time>2026-05-02T17:25:15.701Z</time></trkpt><trkpt lat="40.7954241" lon="16.3335722"><ele>260.0</ele><time>2026-05-02T17:25:16.701Z</time></trkpt><trkpt lat="40.7956103" lon="16.3337394"><ele>257.5</ele><time>2026-05-02T17:25:17.701Z</time></trkpt><trkpt lat="40.7958018" lon="16.3338968"><ele>255.0</ele><time>2026-05-02T17:25:18.701Z</time></trkpt><trkpt lat="40.7960002" lon="16.3340396"><ele>256.0</ele><time>2026-05-02T17:25:19.701Z</time></trkpt><trkpt lat="40.7962023" lon="16.3341666"><ele>257.0</ele><time>2026-05-02T17:25:20.701Z</time></trkpt><trkpt lat="40.7964106" lon="16.3342796"><ele>258.0</ele><time>2026-05-02T17:25:21.701Z</time></trkpt><trkpt lat="40.7966213" lon="16.3343844"><ele>258.0</ele><time>2026-05-02T17:25:22.702Z</time></trkpt><trkpt lat="40.7968315" lon="16.3344839"><ele>258.0</ele><time>2026-05-02T17:25:23.702Z</time></trkpt><trkpt lat="40.7970407" lon="16.3345823"><ele>258.0</ele><time>2026-05-02T17:25:24.704Z</time></trkpt><trkpt lat="40.7972488" lon="16.3346831"><ele>258.3333333333333</ele><time>2026-05-02T17:25:25.701Z</time></trkpt><trkpt lat="40.7974582" lon="16.3347846"><ele>258.66666666666663</ele><time>2026-05-02T17:25:26.702Z</time></trkpt><trkpt lat="40.7976657" lon="16.3348884"><ele>259.0</ele><time>2026-05-02T17:25:27.702Z</time></trkpt><trkpt lat="40.7978728" lon="16.3349955"><ele>259.0</ele><time>2026-05-02T17:25:28.701Z</time></trkpt><trkpt lat="40.7980793" lon="16.3351072"><ele>259.0</ele><time>2026-05-02T17:25:29.703Z</time></trkpt><trkpt lat="40.798284" lon="16.3352277"><ele>259.0</ele><time>2026-05-02T17:25:30.701Z</time></trkpt><trkpt lat="40.7984875" lon="16.3353529"><ele>260.0</ele><time>2026-05-02T17:25:31.701Z</time></trkpt><trkpt lat="40.7986881" lon="16.3354841"><ele>261.0</ele><time>2026-05-02T17:25:32.701Z</time></trkpt><trkpt lat="40.7988846" lon="16.3356216"><ele>262.0</ele><time>2026-05-02T17:25:33.702Z</time></trkpt><trkpt lat="40.7990782" lon="16.3357657"><ele>262.0</ele><time>2026-05-02T17:25:34.7Z</time></trkpt><trkpt lat="40.7992667" lon="16.3359175"><ele>262.0</ele><time>2026-05-02T17:25:35.7Z</time></trkpt><trkpt lat="40.7994511" lon="16.3360773"><ele>262.0</ele><time>2026-05-02T17:25:36.7Z</time></trkpt><trkpt lat="40.7996345" lon="16.3362424"><ele>263.3333333333333</ele><time>2026-05-02T17:25:37.701Z</time></trkpt><trkpt lat="40.7998163" lon="16.3364124"><ele>264.6666666666667</ele><time>2026-05-02T17:25:38.702Z</time></trkpt><trkpt lat="40.7999949" lon="16.336586"><ele>266.0</ele><time>2026-05-02T17:25:39.702Z</time></trkpt><trkpt lat="40.8001709" lon="16.3367665"><ele>269.0</ele><time>2026-05-02T17:25:40.702Z</time></trkpt><trkpt lat="40.8003444" lon="16.3369541"><ele>272.0</ele><time>2026-05-02T17:25:41.7Z</time></trkpt><trkpt lat="40.8005145" lon="16.3371497"><ele>269.0</ele><time>2026-05-02T17:25:42.7Z</time></trkpt><trkpt lat="40.8006816" lon="16.3373487"><ele>266.0</ele><time>2026-05-02T17:25:43.7Z</time></trkpt><trkpt lat="40.8008449" lon="16.3375576"><ele>269.0</ele><time>2026-05-02T17:25:44.701Z</time></trkpt><trkpt lat="40.8010048" lon="16.3377698"><ele>272.0</ele><time>2026-05-02T17:25:45.7Z</time></trkpt><trkpt lat="40.8011618" lon="16.3379876"><ele>272.33333333333337</ele><time>2026-05-02T17:25:46.701Z</time></trkpt><trkpt lat="40.8013139" lon="16.3382077"><ele>272.6666666666667</ele><time>2026-05-02T17:25:47.703Z</time></trkpt><trkpt lat="40.8014589" lon="16.3384315"><ele>273.0</ele><time>2026-05-02T17:25:48.701Z</time></trkpt><trkpt lat="40.8015984" lon="16.338659"><ele>272.3333333333333</ele><time>2026-05-02T17:25:49.702Z</time></trkpt><trkpt lat="40.8017301" lon="16.3388905"><ele>271.66666666666663</ele><time>2026-05-02T17:25:50.703Z</time></trkpt><trkpt lat="40.8018567" lon="16.3391219"><ele>271.0</ele><time>2026-05-02T17:25:51.701Z</time></trkpt><trkpt lat="40.801981" lon="16.3393518"><ele>274.66666666666663</ele><time>2026-05-02T17:25:52.701Z</time></trkpt><trkpt lat="40.8021047" lon="16.3395822"><ele>278.3333333333333</ele><time>2026-05-02T17:25:53.701Z</time></trkpt><trkpt lat="40.8022243" lon="16.3398117"><ele>282.0</ele><time>2026-05-02T17:25:54.701Z</time></trkpt><trkpt lat="40.8023424" lon="16.3400358"><ele>282.0</ele><time>2026-05-02T17:25:55.701Z</time></trkpt><trkpt lat="40.802459" lon="16.340256"><ele>282.0</ele><time>2026-05-02T17:25:56.701Z</time></trkpt><trkpt lat="40.8025747" lon="16.3404682"><ele>282.0</ele><time>2026-05-02T17:25:57.702Z</time></trkpt><trkpt lat="40.8026925" lon="16.3406747"><ele>283.3333333333333</ele><time>2026-05-02T17:25:58.708Z</time></trkpt><trkpt lat="40.8028152" lon="16.340874"><ele>284.66666666666663</ele><time>2026-05-02T17:25:59.7Z</time></trkpt><trkpt lat="40.8029425" lon="16.341069"><ele>286.0</ele><time>2026-05-02T17:26:00.702Z</time></trkpt><trkpt lat="40.8030725" lon="16.3412606"><ele>284.3333333333333</ele><time>2026-05-02T17:26:01.701Z</time></trkpt><trkpt lat="40.8032098" lon="16.3414494"><ele>282.6666666666667</ele><time>2026-05-02T17:26:02.702Z</time></trkpt><trkpt lat="40.8033542" lon="16.3416369"><ele>281.0</ele><time>2026-05-02T17:26:03.701Z</time></trkpt><trkpt lat="40.803507" lon="16.3418194"><ele>282.0</ele><time>2026-05-02T17:26:04.702Z</time></trkpt><trkpt lat="40.8036659" lon="16.342"><ele>283.0</ele><time>2026-05-02T17:26:05.701Z</time></trkpt><trkpt lat="40.8038308" lon="16.3421789"><ele>284.0</ele><time>2026-05-02T17:26:06.702Z</time></trkpt><trkpt lat="40.8039998" lon="16.3423522"><ele>284.0</ele><time>2026-05-02T17:26:07.702Z</time></trkpt><trkpt lat="40.8041689" lon="16.3425206"><ele>284.0</ele><time>2026-05-02T17:26:08.703Z</time></trkpt><trkpt lat="40.804339" lon="16.3426829"><ele>284.0</ele><time>2026-05-02T17:26:09.701Z</time></trkpt><trkpt lat="40.8045041" lon="16.3428409"><ele>283.33333333333337</ele><time>2026-05-02T17:26:10.701Z</time></trkpt><trkpt lat="40.8046677" lon="16.3430001"><ele>282.6666666666667</ele><time>2026-05-02T17:26:11.701Z</time></trkpt><trkpt lat="40.8048304" lon="16.3431643"><ele>282.0</ele><time>2026-05-02T17:26:12.701Z</time></trkpt><trkpt lat="40.8049952" lon="16.3433331"><ele>282.0</ele><time>2026-05-02T17:26:13.701Z</time></trkpt><trkpt lat="40.8051594" lon="16.3435096"><ele>282.0</ele><time>2026-05-02T17:26:14.702Z</time></trkpt><trkpt lat="40.8053216" lon="16.3436925"><ele>282.0</ele><time>2026-05-02T17:26:15.702Z</time></trkpt><trkpt lat="40.8054811" lon="16.3438828"><ele>282.3333333333333</ele><time>2026-05-02T17:26:16.702Z</time></trkpt><trkpt lat="40.8056381" lon="16.3440744"><ele>282.66666666666663</ele><time>2026-05-02T17:26:17.701Z</time></trkpt><trkpt lat="40.8057895" lon="16.3442659"><ele>283.0</ele><time>2026-05-02T17:26:18.702Z</time></trkpt><trkpt lat="40.8059344" lon="16.3444636"><ele>285.66666666666663</ele><time>2026-05-02T17:26:19.702Z</time></trkpt><trkpt lat="40.8060749" lon="16.3446691"><ele>288.3333333333333</ele><time>2026-05-02T17:26:20.701Z</time></trkpt><trkpt lat="40.8062144" lon="16.3448791"><ele>291.0</ele><time>2026-05-02T17:26:21.701Z</time></trkpt><trkpt lat="40.8063496" lon="16.3450897"><ele>291.0</ele><time>2026-05-02T17:26:22.701Z</time></trkpt><trkpt lat="40.8064815" lon="16.3453019"><ele>291.0</ele><time>2026-05-02T17:26:23.701Z</time></trkpt><trkpt lat="40.8066033" lon="16.3455133"><ele>291.0</ele><time>2026-05-02T17:26:24.702Z</time></trkpt><trkpt lat="40.8067233" lon="16.3457283"><ele>292.0</ele><time>2026-05-02T17:26:25.701Z</time></trkpt><trkpt lat="40.80684" lon="16.3459483"><ele>293.0</ele><time>2026-05-02T17:26:26.702Z</time></trkpt><trkpt lat="40.8069533" lon="16.3461733"><ele>294.0</ele><time>2026-05-02T17:26:27.701Z</time></trkpt><trkpt lat="40.8070633" lon="16.3464"><ele>294.0</ele><time>2026-05-02T17:26:28.701Z</time></trkpt><trkpt lat="40.8071683" lon="16.3466333"><ele>294.0</ele><time>2026-05-02T17:26:29.701Z</time></trkpt><trkpt lat="40.80727" lon="16.3468617"><ele>294.0</ele><time>2026-05-02T17:26:30.702Z</time></trkpt><trkpt lat="40.8073667" lon="16.3470867"><ele>294.6666666666667</ele><time>2026-05-02T17:26:31.702Z</time></trkpt><trkpt lat="40.80746" lon="16.3473233"><ele>295.33333333333337</ele><time>2026-05-02T17:26:32.704Z</time></trkpt><trkpt lat="40.80755" lon="16.34757"><ele>296.0</ele><time>2026-05-02T17:26:33.701Z</time></trkpt><trkpt lat="40.8076333" lon="16.34782"><ele>302.33333333333337</ele><time>2026-05-02T17:26:34.702Z</time></trkpt><trkpt lat="40.8077133" lon="16.34807"><ele>308.6666666666667</ele><time>2026-05-02T17:26:35.702Z</time></trkpt><trkpt lat="40.8077883" lon="16.348315"><ele>315.0</ele><time>2026-05-02T17:26:36.702Z</time></trkpt><trkpt lat="40.8078617" lon="16.348555"><ele>315.0</ele><time>2026-05-02T17:26:37.701Z</time></trkpt><trkpt lat="40.8079267" lon="16.348795"><ele>315.0</ele><time>2026-05-02T17:26:38.702Z</time></trkpt><trkpt lat="40.8079867" lon="16.34904"><ele>315.0</ele><time>2026-05-02T17:26:39.701Z</time></trkpt><trkpt lat="40.8080417" lon="16.3492917"><ele>314.6666666666667</ele><time>2026-05-02T17:26:40.702Z</time></trkpt><trkpt lat="40.8080933" lon="16.3495483"><ele>314.33333333333337</ele><time>2026-05-02T17:26:41.702Z</time></trkpt><trkpt lat="40.8081417" lon="16.3498083"><ele>314.0</ele><time>2026-05-02T17:26:42.7Z</time></trkpt><trkpt lat="40.8081883" lon="16.3500717"><ele>314.0</ele><time>2026-05-02T17:26:43.701Z</time></trkpt><trkpt lat="40.8082317" lon="16.350335"><ele>314.0</ele><time>2026-05-02T17:26:44.702Z</time></trkpt><trkpt lat="40.8082683" lon="16.3506"><ele>314.0</ele><time>2026-05-02T17:26:45.7Z</time></trkpt><trkpt lat="40.8082983" lon="16.35086"><ele>313.6666666666667</ele><time>2026-05-02T17:26:46.7Z</time></trkpt><trkpt lat="40.8083267" lon="16.3511233"><ele>313.3333333333333</ele><time>2026-05-02T17:26:47.7Z</time></trkpt><trkpt lat="40.8083483" lon="16.3513917"><ele>313.0</ele><time>2026-05-02T17:26:48.702Z</time></trkpt><trkpt lat="40.808365" lon="16.351665"><ele>313.0</ele><time>2026-05-02T17:26:49.7Z</time></trkpt><trkpt lat="40.80838" lon="16.35194"><ele>313.0</ele><time>2026-05-02T17:26:50.701Z</time></trkpt><trkpt lat="40.8083917" lon="16.3522167"><ele>313.0</ele><time>2026-05-02T17:26:51.701Z</time></trkpt><trkpt lat="40.8083967" lon="16.35249"><ele>313.0</ele><time>2026-05-02T17:26:52.7Z</time></trkpt><trkpt lat="40.8083967" lon="16.3527567"><ele>313.0</ele><time>2026-05-02T17:26:53.701Z</time></trkpt><trkpt lat="40.8083917" lon="16.3530233"><ele>313.0</ele><time>2026-05-02T17:26:54.702Z</time></trkpt><trkpt lat="40.8083817" lon="16.3532917"><ele>315.0</ele><time>2026-05-02T17:26:55.702Z</time></trkpt><trkpt lat="40.8083683" lon="16.3535617"><ele>317.0</ele><time>2026-05-02T17:26:56.702Z</time></trkpt><trkpt lat="40.8083483" lon="16.3538333"><ele>319.0</ele><time>2026-05-02T17:26:57.702Z</time></trkpt><trkpt lat="40.8083233" lon="16.3541033"><ele>320.66666666666663</ele><time>2026-05-02T17:26:58.701Z</time></trkpt><trkpt lat="40.808295" lon="16.3543667"><ele>322.3333333333333</ele><time>2026-05-02T17:26:59.701Z</time></trkpt><trkpt lat="40.808265" lon="16.35463"><ele>324.0</ele><time>2026-05-02T17:27:00.7Z</time></trkpt><trkpt lat="40.808235" lon="16.3548933"><ele>327.3333333333333</ele><time>2026-05-02T17:27:01.702Z</time></trkpt><trkpt lat="40.8082017" lon="16.3551567"><ele>330.66666666666663</ele><time>2026-05-02T17:27:02.703Z</time></trkpt><trkpt lat="40.8081667" lon="16.3554183"><ele>334.0</ele><time>2026-05-02T17:27:03.702Z</time></trkpt><trkpt lat="40.8081317" lon="16.35568"><ele>337.3333333333333</ele><time>2026-05-02T17:27:04.701Z</time></trkpt><trkpt lat="40.8080967" lon="16.3559433"><ele>340.6666666666667</ele><time>2026-05-02T17:27:05.703Z</time></trkpt><trkpt lat="40.808065" lon="16.3562067"><ele>344.0</ele><time>2026-05-02T17:27:06.7Z</time></trkpt><trkpt lat="40.8080367" lon="16.35647"><ele>346.6666666666667</ele><time>2026-05-02T17:27:07.701Z</time></trkpt><trkpt lat="40.8080133" lon="16.3567383"><ele>349.3333333333333</ele><time>2026-05-02T17:27:08.703Z</time></trkpt><trkpt lat="40.8079933" lon="16.35701"><ele>352.0</ele><time>2026-05-02T17:27:09.701Z</time></trkpt><trkpt lat="40.8079767" lon="16.3572867"><ele>354.3333333333333</ele><time>2026-05-02T17:27:10.702Z</time></trkpt><trkpt lat="40.8079633" lon="16.357565"><ele>356.6666666666667</ele><time>2026-05-02T17:27:11.702Z</time></trkpt><trkpt lat="40.8079483" lon="16.35785"><ele>359.0</ele><time>2026-05-02T17:27:12.703Z</time></trkpt><trkpt lat="40.8079317" lon="16.3581383"><ele>359.0</ele><time>2026-05-02T17:27:13.703Z</time></trkpt><trkpt lat="40.8079133" lon="16.3584267"><ele>359.0</ele><time>2026-05-02T17:27:14.701Z</time></trkpt><trkpt lat="40.8078967" lon="16.3587167"><ele>359.0</ele><time>2026-05-02T17:27:15.7Z</time></trkpt><trkpt lat="40.80789" lon="16.3590183"><ele>359.0</ele><time>2026-05-02T17:27:16.701Z</time></trkpt><trkpt lat="40.807975" lon="16.3592767"><ele>359.0</ele><time>2026-05-02T17:27:17.701Z</time></trkpt><trkpt lat="40.8080233" lon="16.35956"><ele>359.0</ele><time>2026-05-02T17:27:18.703Z</time></trkpt><trkpt lat="40.80807" lon="16.35985"><ele>358.0</ele><time>2026-05-02T17:27:19.703Z</time></trkpt><trkpt lat="40.8081117" lon="16.36014"><ele>357.0</ele><time>2026-05-02T17:27:20.702Z</time></trkpt><trkpt lat="40.808155" lon="16.360425"><ele>356.0</ele><time>2026-05-02T17:27:21.702Z</time></trkpt><trkpt lat="40.8082017" lon="16.3607133"><ele>356.0</ele><time>2026-05-02T17:27:22.702Z</time></trkpt><trkpt lat="40.8082517" lon="16.3610017"><ele>356.0</ele><time>2026-05-02T17:27:23.703Z</time></trkpt><trkpt lat="40.8083083" lon="16.36129"><ele>356.0</ele><time>2026-05-02T17:27:24.703Z</time></trkpt><trkpt lat="40.80837" lon="16.3615833"><ele>358.0</ele><time>2026-05-02T17:27:25.703Z</time></trkpt><trkpt lat="40.8084333" lon="16.3618767"><ele>360.0</ele><time>2026-05-02T17:27:26.702Z</time></trkpt><trkpt lat="40.8084967" lon="16.3621633"><ele>357.6666666666667</ele><time>2026-05-02T17:27:27.702Z</time></trkpt><trkpt lat="40.8085567" lon="16.3624417"><ele>355.33333333333337</ele><time>2026-05-02T17:27:28.701Z</time></trkpt><trkpt lat="40.8086133" lon="16.36272"><ele>353.0</ele><time>2026-05-02T17:27:29.703Z</time></trkpt><trkpt lat="40.80867" lon="16.363"><ele>352.6666666666667</ele><time>2026-05-02T17:27:30.702Z</time></trkpt><trkpt lat="40.8087233" lon="16.3632867"><ele>352.3333333333333</ele><time>2026-05-02T17:27:31.701Z</time></trkpt><trkpt lat="40.8087717" lon="16.3635767"><ele>352.0</ele><time>2026-05-02T17:27:32.702Z</time></trkpt><trkpt lat="40.808815" lon="16.3638733"><ele>352.0</ele><time>2026-05-02T17:27:33.701Z</time></trkpt><trkpt lat="40.80885" lon="16.3641733"><ele>352.0</ele><time>2026-05-02T17:27:34.7Z</time></trkpt><trkpt lat="40.80888" lon="16.3644717"><ele>352.5</ele><time>2026-05-02T17:27:35.701Z</time></trkpt><trkpt lat="40.808905" lon="16.3647717"><ele>353.0</ele><time>2026-05-02T17:27:36.703Z</time></trkpt><trkpt lat="40.8089217" lon="16.36507"><ele>353.0</ele><time>2026-05-02T17:27:37.701Z</time></trkpt><trkpt lat="40.8089333" lon="16.3653667"><ele>353.0</ele><time>2026-05-02T17:27:38.702Z</time></trkpt><trkpt lat="40.8089383" lon="16.365665"><ele>352.5</ele><time>2026-05-02T17:27:39.702Z</time></trkpt><trkpt lat="40.8089383" lon="16.3659633"><ele>352.0</ele><time>2026-05-02T17:27:40.7Z</time></trkpt><trkpt lat="40.808935" lon="16.36626"><ele>351.3333333333333</ele><time>2026-05-02T17:27:41.701Z</time></trkpt><trkpt lat="40.8089283" lon="16.3665533"><ele>350.6666666666667</ele><time>2026-05-02T17:27:42.701Z</time></trkpt><trkpt lat="40.80892" lon="16.3668483"><ele>350.0</ele><time>2026-05-02T17:27:43.702Z</time></trkpt><trkpt lat="40.80891" lon="16.36714"><ele>349.6666666666667</ele><time>2026-05-02T17:27:44.702Z</time></trkpt><trkpt lat="40.8089" lon="16.3674317"><ele>349.3333333333333</ele><time>2026-05-02T17:27:45.702Z</time></trkpt><trkpt lat="40.8088883" lon="16.3677233"><ele>349.0</ele><time>2026-05-02T17:27:46.7Z</time></trkpt><trkpt lat="40.8088767" lon="16.3680183"><ele>348.0</ele><time>2026-05-02T17:27:47.7Z</time></trkpt><trkpt lat="40.808865" lon="16.3683133"><ele>347.0</ele><time>2026-05-02T17:27:48.701Z</time></trkpt><trkpt lat="40.8088583" lon="16.3686133"><ele>347.0</ele><time>2026-05-02T17:27:49.703Z</time></trkpt><trkpt lat="40.8088583" lon="16.3689117"><ele>347.0</ele><time>2026-05-02T17:27:50.702Z</time></trkpt><trkpt lat="40.8088617" lon="16.3692117"><ele>347.0</ele><time>2026-05-02T17:27:51.701Z</time></trkpt><trkpt lat="40.8088667" lon="16.3695117"><ele>347.0</ele><time>2026-05-02T17:27:52.704Z</time></trkpt><trkpt lat="40.8088717" lon="16.3698117"><ele>346.0</ele><time>2026-05-02T17:27:53.703Z</time></trkpt><trkpt lat="40.8088817" lon="16.3701117"><ele>345.0</ele><time>2026-05-02T17:27:54.702Z</time></trkpt><trkpt lat="40.808895" lon="16.37041"><ele>344.5</ele><time>2026-05-02T17:27:55.703Z</time></trkpt><trkpt lat="40.8089117" lon="16.37071"><ele>344.0</ele><time>2026-05-02T17:27:56.702Z</time></trkpt><trkpt lat="40.80893" lon="16.3710133"><ele>344.0</ele><time>2026-05-02T17:27:57.702Z</time></trkpt><trkpt lat="40.8089483" lon="16.3713133"><ele>344.0</ele><time>2026-05-02T17:27:58.701Z</time></trkpt><trkpt lat="40.8089683" lon="16.3716133"><ele>343.5</ele><time>2026-05-02T17:27:59.702Z</time></trkpt><trkpt lat="40.8089867" lon="16.3719133"><ele>343.0</ele><time>2026-05-02T17:28:00.702Z</time></trkpt><trkpt lat="40.8090067" lon="16.3722117"><ele>341.5</ele><time>2026-05-02T17:28:01.703Z</time></trkpt><trkpt lat="40.8090267" lon="16.3725133"><ele>340.0</ele><time>2026-05-02T17:28:02.703Z</time></trkpt><trkpt lat="40.8090467" lon="16.37282"><ele>339.0</ele><time>2026-05-02T17:28:03.701Z</time></trkpt><trkpt lat="40.8090683" lon="16.3731283"><ele>338.0</ele><time>2026-05-02T17:28:04.702Z</time></trkpt><trkpt lat="40.8090883" lon="16.3734367"><ele>338.0</ele><time>2026-05-02T17:28:05.701Z</time></trkpt><trkpt lat="40.8091083" lon="16.3737433"><ele>338.0</ele><time>2026-05-02T17:28:06.701Z</time></trkpt><trkpt lat="40.80913" lon="16.3740517"><ele>336.5</ele><time>2026-05-02T17:28:07.701Z</time></trkpt><trkpt lat="40.80915" lon="16.3743583"><ele>335.0</ele><time>2026-05-02T17:28:08.703Z</time></trkpt><trkpt lat="40.80917" lon="16.37467"><ele>336.0</ele><time>2026-05-02T17:28:09.702Z</time></trkpt><trkpt lat="40.80919" lon="16.3749917"><ele>337.0</ele><time>2026-05-02T17:28:10.701Z</time></trkpt><trkpt lat="40.8092117" lon="16.3753117"><ele>336.5</ele><time>2026-05-02T17:28:11.702Z</time></trkpt><trkpt lat="40.80923" lon="16.3756283"><ele>336.0</ele><time>2026-05-02T17:28:12.701Z</time></trkpt><trkpt lat="40.80925" lon="16.3759433"><ele>336.0</ele><time>2026-05-02T17:28:13.702Z</time></trkpt><trkpt lat="40.80927" lon="16.3762583"><ele>336.0</ele><time>2026-05-02T17:28:14.702Z</time></trkpt><trkpt lat="40.80929" lon="16.3765733"><ele>335.0</ele><time>2026-05-02T17:28:15.702Z</time></trkpt><trkpt lat="40.8093117" lon="16.376885"><ele>334.0</ele><time>2026-05-02T17:28:16.702Z</time></trkpt><trkpt lat="40.8093317" lon="16.3771983"><ele>330.0</ele><time>2026-05-02T17:28:17.703Z</time></trkpt><trkpt lat="40.8093517" lon="16.3775133"><ele>326.0</ele><time>2026-05-02T17:28:18.702Z</time></trkpt><trkpt lat="40.8093717" lon="16.37783"><ele>324.5</ele><time>2026-05-02T17:28:19.702Z</time></trkpt><trkpt lat="40.8093917" lon="16.378145"><ele>323.0</ele><time>2026-05-02T17:28:20.702Z</time></trkpt><trkpt lat="40.8094117" lon="16.3784583"><ele>323.0</ele><time>2026-05-02T17:28:21.7Z</time></trkpt><trkpt lat="40.8094333" lon="16.37877"><ele>323.0</ele><time>2026-05-02T17:28:22.701Z</time></trkpt><trkpt lat="40.8094517" lon="16.3790817"><ele>323.0</ele><time>2026-05-02T17:28:23.701Z</time></trkpt><trkpt lat="40.80947" lon="16.37939"><ele>323.0</ele><time>2026-05-02T17:28:24.702Z</time></trkpt><trkpt lat="40.80949" lon="16.3796983"><ele>322.0</ele><time>2026-05-02T17:28:25.703Z</time></trkpt><trkpt lat="40.8095117" lon="16.380005"><ele>321.0</ele><time>2026-05-02T17:28:26.703Z</time></trkpt><trkpt lat="40.8095317" lon="16.3803117"><ele>320.0</ele><time>2026-05-02T17:28:27.702Z</time></trkpt><trkpt lat="40.8095517" lon="16.380615"><ele>319.0</ele><time>2026-05-02T17:28:28.702Z</time></trkpt><trkpt lat="40.8095733" lon="16.3809167"><ele>319.0</ele><time>2026-05-02T17:28:29.701Z</time></trkpt><trkpt lat="40.8095933" lon="16.38122"><ele>319.0</ele><time>2026-05-02T17:28:30.703Z</time></trkpt><trkpt lat="40.8096133" lon="16.3815233"><ele>318.5</ele><time>2026-05-02T17:28:31.701Z</time></trkpt><trkpt lat="40.8096333" lon="16.3818283"><ele>318.0</ele><time>2026-05-02T17:28:32.703Z</time></trkpt><trkpt lat="40.8096567" lon="16.3821317"><ele>318.0</ele><time>2026-05-02T17:28:33.701Z</time></trkpt><trkpt lat="40.8096817" lon="16.3824367"><ele>318.0</ele><time>2026-05-02T17:28:34.703Z</time></trkpt><trkpt lat="40.8097083" lon="16.38274"><ele>318.0</ele><time>2026-05-02T17:28:35.701Z</time></trkpt><trkpt lat="40.8097367" lon="16.383045"><ele>318.0</ele><time>2026-05-02T17:28:36.704Z</time></trkpt><trkpt lat="40.8097617" lon="16.3833467"><ele>318.0</ele><time>2026-05-02T17:28:37.701Z</time></trkpt><trkpt lat="40.8097883" lon="16.3836467"><ele>318.0</ele><time>2026-05-02T17:28:38.703Z</time></trkpt><trkpt lat="40.8098167" lon="16.3839433"><ele>317.0</ele><time>2026-05-02T17:28:39.704Z</time></trkpt><trkpt lat="40.8098463" lon="16.3842424"><ele>316.0</ele><time>2026-05-02T17:28:40.701Z</time></trkpt><trkpt lat="40.8098761" lon="16.3845443"><ele>315.5</ele><time>2026-05-02T17:28:41.703Z</time></trkpt><trkpt lat="40.8099072" lon="16.3848479"><ele>315.0</ele><time>2026-05-02T17:28:42.702Z</time></trkpt><trkpt lat="40.8099388" lon="16.3851545"><ele>315.0</ele><time>2026-05-02T17:28:43.702Z</time></trkpt><trkpt lat="40.8099682" lon="16.3854642"><ele>315.0</ele><time>2026-05-02T17:28:44.703Z</time></trkpt><trkpt lat="40.8099982" lon="16.3857828"><ele>315.0</ele><time>2026-05-02T17:28:45.703Z</time></trkpt><trkpt lat="40.8100309" lon="16.3861105"><ele>315.0</ele><time>2026-05-02T17:28:46.701Z</time></trkpt><trkpt lat="40.810063" lon="16.3864384"><ele>315.5</ele><time>2026-05-02T17:28:47.703Z</time></trkpt><trkpt lat="40.8100936" lon="16.3867635"><ele>316.0</ele><time>2026-05-02T17:28:48.703Z</time></trkpt><trkpt lat="40.8101261" lon="16.3870916"><ele>316.0</ele><time>2026-05-02T17:28:49.705Z</time></trkpt><trkpt lat="40.8101592" lon="16.3874199"><ele>316.0</ele><time>2026-05-02T17:28:50.702Z</time></trkpt><trkpt lat="40.8101913" lon="16.3877484"><ele>315.5</ele><time>2026-05-02T17:28:51.701Z</time></trkpt><trkpt lat="40.8102243" lon="16.3880769"><ele>315.0</ele><time>2026-05-02T17:28:52.703Z</time></trkpt><trkpt lat="40.8102574" lon="16.3884023"><ele>315.0</ele><time>2026-05-02T17:28:53.702Z</time></trkpt><trkpt lat="40.8102894" lon="16.388724"><ele>315.0</ele><time>2026-05-02T17:28:54.702Z</time></trkpt><trkpt lat="40.8103212" lon="16.3890429"><ele>315.5</ele><time>2026-05-02T17:28:55.702Z</time></trkpt><trkpt lat="40.8103515" lon="16.3893564"><ele>316.0</ele><time>2026-05-02T17:28:56.703Z</time></trkpt><trkpt lat="40.8103815" lon="16.3896674"><ele>316.5</ele><time>2026-05-02T17:28:57.702Z</time></trkpt><trkpt lat="40.8104114" lon="16.3899757"><ele>317.0</ele><time>2026-05-02T17:28:58.703Z</time></trkpt><trkpt lat="40.8104413" lon="16.3902798"><ele>317.0</ele><time>2026-05-02T17:28:59.702Z</time></trkpt><trkpt lat="40.8104711" lon="16.3905783"><ele>317.0</ele><time>2026-05-02T17:29:00.703Z</time></trkpt><trkpt lat="40.8104998" lon="16.3908746"><ele>317.0</ele><time>2026-05-02T17:29:01.702Z</time></trkpt><trkpt lat="40.8105292" lon="16.3911703"><ele>317.0</ele><time>2026-05-02T17:29:02.702Z</time></trkpt><trkpt lat="40.8105591" lon="16.3914653"><ele>317.0</ele><time>2026-05-02T17:29:03.703Z</time></trkpt><trkpt lat="40.8105878" lon="16.3917572"><ele>317.0</ele><time>2026-05-02T17:29:04.702Z</time></trkpt><trkpt lat="40.810615" lon="16.3920444"><ele>317.0</ele><time>2026-05-02T17:29:05.701Z</time></trkpt><trkpt lat="40.8106393" lon="16.392326"><ele>317.0</ele><time>2026-05-02T17:29:06.702Z</time></trkpt><trkpt lat="40.8106675" lon="16.3926072"><ele>317.0</ele><time>2026-05-02T17:29:07.702Z</time></trkpt><trkpt lat="40.8106958" lon="16.3928883"><ele>317.0</ele><time>2026-05-02T17:29:08.702Z</time></trkpt><trkpt lat="40.8107253" lon="16.3931714"><ele>317.6666666666667</ele><time>2026-05-02T17:29:09.702Z</time></trkpt><trkpt lat="40.810754" lon="16.3934579"><ele>318.3333333333333</ele><time>2026-05-02T17:29:10.703Z</time></trkpt><trkpt lat="40.8107815" lon="16.3937478"><ele>319.0</ele><time>2026-05-02T17:29:11.702Z</time></trkpt><trkpt lat="40.8108096" lon="16.3940384"><ele>319.3333333333333</ele><time>2026-05-02T17:29:12.701Z</time></trkpt><trkpt lat="40.8108379" lon="16.3943316"><ele>319.6666666666667</ele><time>2026-05-02T17:29:13.704Z</time></trkpt><trkpt lat="40.8108661" lon="16.3946233"><ele>320.0</ele><time>2026-05-02T17:29:14.702Z</time></trkpt><trkpt lat="40.8108944" lon="16.3949164"><ele>321.0</ele><time>2026-05-02T17:29:15.702Z</time></trkpt><trkpt lat="40.8109228" lon="16.3952085"><ele>322.0</ele><time>2026-05-02T17:29:16.701Z</time></trkpt><trkpt lat="40.8109511" lon="16.3955003"><ele>323.0</ele><time>2026-05-02T17:29:17.702Z</time></trkpt><trkpt lat="40.8109792" lon="16.3957905"><ele>325.0</ele><time>2026-05-02T17:29:18.702Z</time></trkpt><trkpt lat="40.8110043" lon="16.3960774"><ele>327.0</ele><time>2026-05-02T17:29:19.702Z</time></trkpt><trkpt lat="40.811029" lon="16.3963582"><ele>329.0</ele><time>2026-05-02T17:29:20.702Z</time></trkpt><trkpt lat="40.8110552" lon="16.3966335"><ele>329.6666666666667</ele><time>2026-05-02T17:29:21.703Z</time></trkpt><trkpt lat="40.811082" lon="16.3969061"><ele>330.3333333333333</ele><time>2026-05-02T17:29:22.701Z</time></trkpt><trkpt lat="40.8111084" lon="16.3971745"><ele>331.0</ele><time>2026-05-02T17:29:23.703Z</time></trkpt><trkpt lat="40.8111342" lon="16.3974394"><ele>331.3333333333333</ele><time>2026-05-02T17:29:24.703Z</time></trkpt><trkpt lat="40.8111606" lon="16.3977012"><ele>331.6666666666667</ele><time>2026-05-02T17:29:25.701Z</time></trkpt><trkpt lat="40.8111872" lon="16.3979625"><ele>332.0</ele><time>2026-05-02T17:29:26.703Z</time></trkpt><trkpt lat="40.8112138" lon="16.3982226"><ele>332.6666666666667</ele><time>2026-05-02T17:29:27.702Z</time></trkpt><trkpt lat="40.8112418" lon="16.3984872"><ele>333.3333333333333</ele><time>2026-05-02T17:29:28.702Z</time></trkpt><trkpt lat="40.8112689" lon="16.3987552"><ele>334.0</ele><time>2026-05-02T17:29:29.701Z</time></trkpt><trkpt lat="40.8112958" lon="16.399028"><ele>335.0</ele><time>2026-05-02T17:29:30.703Z</time></trkpt><trkpt lat="40.8113226" lon="16.3993044"><ele>336.0</ele><time>2026-05-02T17:29:31.702Z</time></trkpt><trkpt lat="40.8113507" lon="16.3995901"><ele>337.0</ele><time>2026-05-02T17:29:32.702Z</time></trkpt><trkpt lat="40.8113805" lon="16.3998864"><ele>338.5</ele><time>2026-05-02T17:29:33.702Z</time></trkpt><trkpt lat="40.8114107" lon="16.4001872"><ele>340.0</ele><time>2026-05-02T17:29:34.702Z</time></trkpt><trkpt lat="40.8114408" lon="16.4004918"><ele>340.5</ele><time>2026-05-02T17:29:35.701Z</time></trkpt><trkpt lat="40.8114697" lon="16.4007978"><ele>341.0</ele><time>2026-05-02T17:29:36.702Z</time></trkpt><trkpt lat="40.8115362" lon="16.4014029"><ele>340.0</ele><time>2026-05-02T17:29:38.703Z</time></trkpt><trkpt lat="40.8115727" lon="16.4017082"><ele>339.0</ele><time>2026-05-02T17:29:39.702Z</time></trkpt><trkpt lat="40.8115859" lon="16.4020377"><ele>335.0</ele><time>2026-05-02T17:29:40.703Z</time></trkpt><trkpt lat="40.8115804" lon="16.402366"><ele>331.0</ele><time>2026-05-02T17:29:41.703Z</time></trkpt><trkpt lat="40.8115673" lon="16.4026848"><ele>331.0</ele><time>2026-05-02T17:29:42.701Z</time></trkpt><trkpt lat="40.8115451" lon="16.402997"><ele>331.0</ele><time>2026-05-02T17:29:43.701Z</time></trkpt><trkpt lat="40.8115142" lon="16.4033019"><ele>326.5</ele><time>2026-05-02T17:29:44.703Z</time></trkpt><trkpt lat="40.8114747" lon="16.4035994"><ele>322.0</ele><time>2026-05-02T17:29:45.701Z</time></trkpt><trkpt lat="40.8114233" lon="16.4038939"><ele>320.5</ele><time>2026-05-02T17:29:46.702Z</time></trkpt><trkpt lat="40.8113644" lon="16.4041842"><ele>319.0</ele><time>2026-05-02T17:29:47.703Z</time></trkpt><trkpt lat="40.8112958" lon="16.4044716"><ele>314.0</ele><time>2026-05-02T17:29:48.701Z</time></trkpt><trkpt lat="40.8112179" lon="16.4047525"><ele>309.0</ele><time>2026-05-02T17:29:49.702Z</time></trkpt><trkpt lat="40.8111283" lon="16.4050299"><ele>309.0</ele><time>2026-05-02T17:29:50.702Z</time></trkpt><trkpt lat="40.8110281" lon="16.4053002"><ele>309.0</ele><time>2026-05-02T17:29:51.701Z</time></trkpt><trkpt lat="40.8109203" lon="16.4055651"><ele>311.5</ele><time>2026-05-02T17:29:52.702Z</time></trkpt><trkpt lat="40.8108052" lon="16.405825"><ele>314.0</ele><time>2026-05-02T17:29:53.703Z</time></trkpt><trkpt lat="40.8106797" lon="16.4060785"><ele>314.0</ele><time>2026-05-02T17:29:54.701Z</time></trkpt><trkpt lat="40.8105447" lon="16.4063267"><ele>314.0</ele><time>2026-05-02T17:29:55.703Z</time></trkpt><trkpt lat="40.8103999" lon="16.4065688"><ele>312.5</ele><time>2026-05-02T17:29:56.703Z</time></trkpt><trkpt lat="40.8102451" lon="16.4067993"><ele>311.0</ele><time>2026-05-02T17:29:57.701Z</time></trkpt><trkpt lat="40.8100799" lon="16.4070192"><ele>306.0</ele><time>2026-05-02T17:29:58.703Z</time></trkpt><trkpt lat="40.8099066" lon="16.4072296"><ele>301.0</ele><time>2026-05-02T17:29:59.702Z</time></trkpt><trkpt lat="40.8097274" lon="16.4074308"><ele>301.0</ele><time>2026-05-02T17:30:00.702Z</time></trkpt><trkpt lat="40.8095407" lon="16.4076242"><ele>301.0</ele><time>2026-05-02T17:30:01.703Z</time></trkpt><trkpt lat="40.8093414" lon="16.4078131"><ele>299.0</ele><time>2026-05-02T17:30:02.702Z</time></trkpt><trkpt lat="40.8091323" lon="16.4080012"><ele>297.0</ele><time>2026-05-02T17:30:03.703Z</time></trkpt><trkpt lat="40.8089225" lon="16.4081821"><ele>297.0</ele><time>2026-05-02T17:30:04.703Z</time></trkpt><trkpt lat="40.8087151" lon="16.4083567"><ele>297.0</ele><time>2026-05-02T17:30:05.703Z</time></trkpt><trkpt lat="40.8085111" lon="16.4085338"><ele>297.5</ele><time>2026-05-02T17:30:06.702Z</time></trkpt><trkpt lat="40.808311" lon="16.4087225"><ele>298.0</ele><time>2026-05-02T17:30:07.703Z</time></trkpt><trkpt lat="40.808117" lon="16.4089247"><ele>296.5</ele><time>2026-05-02T17:30:08.703Z</time></trkpt><trkpt lat="40.8079304" lon="16.4091397"><ele>295.0</ele><time>2026-05-02T17:30:09.703Z</time></trkpt><trkpt lat="40.8077549" lon="16.4093665"><ele>295.5</ele><time>2026-05-02T17:30:10.702Z</time></trkpt><trkpt lat="40.8075929" lon="16.4096037"><ele>296.0</ele><time>2026-05-02T17:30:11.702Z</time></trkpt><trkpt lat="40.8074418" lon="16.409846"><ele>294.5</ele><time>2026-05-02T17:30:12.701Z</time></trkpt><trkpt lat="40.8073003" lon="16.4100942"><ele>293.0</ele><time>2026-05-02T17:30:13.702Z</time></trkpt><trkpt lat="40.8071745" lon="16.4103492"><ele>291.33333333333337</ele><time>2026-05-02T17:30:14.703Z</time></trkpt><trkpt lat="40.8070613" lon="16.4106091"><ele>289.6666666666667</ele><time>2026-05-02T17:30:15.702Z</time></trkpt><trkpt lat="40.8069598" lon="16.4108684"><ele>288.0</ele><time>2026-05-02T17:30:16.702Z</time></trkpt><trkpt lat="40.8068671" lon="16.4111286"><ele>288.6666666666667</ele><time>2026-05-02T17:30:17.702Z</time></trkpt><trkpt lat="40.8067853" lon="16.4113934"><ele>289.33333333333337</ele><time>2026-05-02T17:30:18.701Z</time></trkpt><trkpt lat="40.8067109" lon="16.411662"><ele>290.0</ele><time>2026-05-02T17:30:19.704Z</time></trkpt><trkpt lat="40.8066366" lon="16.4119334"><ele>289.6666666666667</ele><time>2026-05-02T17:30:20.703Z</time></trkpt><trkpt lat="40.8065636" lon="16.4122082"><ele>289.3333333333333</ele><time>2026-05-02T17:30:21.703Z</time></trkpt><trkpt lat="40.8064918" lon="16.4124767"><ele>289.0</ele><time>2026-05-02T17:30:22.703Z</time></trkpt><trkpt lat="40.806422" lon="16.4127343"><ele>289.0</ele><time>2026-05-02T17:30:23.702Z</time></trkpt><trkpt lat="40.8063541" lon="16.4129837"><ele>289.0</ele><time>2026-05-02T17:30:24.701Z</time></trkpt><trkpt lat="40.8062874" lon="16.4132314"><ele>289.0</ele><time>2026-05-02T17:30:25.703Z</time></trkpt><trkpt lat="40.8062192" lon="16.4134837"><ele>288.0</ele><time>2026-05-02T17:30:26.704Z</time></trkpt><trkpt lat="40.8061506" lon="16.4137413"><ele>287.0</ele><time>2026-05-02T17:30:27.701Z</time></trkpt><trkpt lat="40.8060795" lon="16.4140043"><ele>286.0</ele><time>2026-05-02T17:30:28.702Z</time></trkpt><trkpt lat="40.8060077" lon="16.4142685"><ele>285.66666666666663</ele><time>2026-05-02T17:30:29.701Z</time></trkpt><trkpt lat="40.8059374" lon="16.4145266"><ele>285.3333333333333</ele><time>2026-05-02T17:30:30.701Z</time></trkpt><trkpt lat="40.8058691" lon="16.4147769"><ele>285.0</ele><time>2026-05-02T17:30:31.702Z</time></trkpt><trkpt lat="40.8058008" lon="16.4150292"><ele>285.0</ele><time>2026-05-02T17:30:32.702Z</time></trkpt><trkpt lat="40.8057322" lon="16.4152881"><ele>285.0</ele><time>2026-05-02T17:30:33.703Z</time></trkpt><trkpt lat="40.8056622" lon="16.415554"><ele>285.0</ele><time>2026-05-02T17:30:34.702Z</time></trkpt><trkpt lat="40.8055889" lon="16.4158282"><ele>285.0</ele><time>2026-05-02T17:30:35.792Z</time></trkpt><trkpt lat="40.8055203" lon="16.4160836"><ele>285.0</ele><time>2026-05-02T17:30:36.701Z</time></trkpt><trkpt lat="40.8054463" lon="16.4163553"><ele>285.0</ele><time>2026-05-02T17:30:37.703Z</time></trkpt><trkpt lat="40.805371" lon="16.416623"><ele>285.0</ele><time>2026-05-02T17:30:38.703Z</time></trkpt><trkpt lat="40.8052985" lon="16.4168884"><ele>285.0</ele><time>2026-05-02T17:30:39.701Z</time></trkpt><trkpt lat="40.8052332" lon="16.4171551"><ele>285.0</ele><time>2026-05-02T17:30:40.703Z</time></trkpt><trkpt lat="40.8051761" lon="16.4174247"><ele>285.6666666666667</ele><time>2026-05-02T17:30:41.702Z</time></trkpt><trkpt lat="40.8051274" lon="16.4177009"><ele>286.33333333333337</ele><time>2026-05-02T17:30:42.702Z</time></trkpt><trkpt lat="40.8050876" lon="16.4179798"><ele>287.0</ele><time>2026-05-02T17:30:43.702Z</time></trkpt><trkpt lat="40.8050546" lon="16.4182618"><ele>288.6666666666667</ele><time>2026-05-02T17:30:44.704Z</time></trkpt><trkpt lat="40.8050306" lon="16.4185454"><ele>290.3333333333333</ele><time>2026-05-02T17:30:45.702Z</time></trkpt><trkpt lat="40.8050155" lon="16.418826"><ele>292.0</ele><time>2026-05-02T17:30:46.702Z</time></trkpt><trkpt lat="40.8050107" lon="16.4191046"><ele>293.3333333333333</ele><time>2026-05-02T17:30:47.702Z</time></trkpt><trkpt lat="40.8050159" lon="16.4193871"><ele>294.6666666666667</ele><time>2026-05-02T17:30:48.702Z</time></trkpt><trkpt lat="40.805028" lon="16.4196707"><ele>296.0</ele><time>2026-05-02T17:30:49.702Z</time></trkpt><trkpt lat="40.8050478" lon="16.419951"><ele>297.33333333333337</ele><time>2026-05-02T17:30:50.702Z</time></trkpt><trkpt lat="40.8050734" lon="16.4202279"><ele>298.6666666666667</ele><time>2026-05-02T17:30:51.701Z</time></trkpt><trkpt lat="40.8051066" lon="16.4205054"><ele>300.0</ele><time>2026-05-02T17:30:52.702Z</time></trkpt><trkpt lat="40.8051433" lon="16.4207804"><ele>302.3333333333333</ele><time>2026-05-02T17:30:53.701Z</time></trkpt><trkpt lat="40.8051846" lon="16.421055"><ele>304.66666666666663</ele><time>2026-05-02T17:30:54.701Z</time></trkpt><trkpt lat="40.8052272" lon="16.4213299"><ele>307.0</ele><time>2026-05-02T17:30:55.701Z</time></trkpt><trkpt lat="40.8052691" lon="16.4215939"><ele>309.0</ele><time>2026-05-02T17:30:56.703Z</time></trkpt><trkpt lat="40.8053122" lon="16.4218415"><ele>311.0</ele><time>2026-05-02T17:30:57.701Z</time></trkpt><trkpt lat="40.8053557" lon="16.4220793"><ele>313.0</ele><time>2026-05-02T17:30:58.701Z</time></trkpt><trkpt lat="40.8053949" lon="16.4223133"><ele>314.3333333333333</ele><time>2026-05-02T17:30:59.702Z</time></trkpt><trkpt lat="40.8054276" lon="16.4225492"><ele>315.6666666666667</ele><time>2026-05-02T17:31:00.703Z</time></trkpt><trkpt lat="40.8054542" lon="16.4227901"><ele>317.0</ele><time>2026-05-02T17:31:01.702Z</time></trkpt><trkpt lat="40.8054744" lon="16.4230321"><ele>319.33333333333337</ele><time>2026-05-02T17:31:02.701Z</time></trkpt><trkpt lat="40.8054924" lon="16.4232706"><ele>321.6666666666667</ele><time>2026-05-02T17:31:03.702Z</time></trkpt><trkpt lat="40.8055109" lon="16.4235063"><ele>324.0</ele><time>2026-05-02T17:31:04.703Z</time></trkpt><trkpt lat="40.8055248" lon="16.4237481"><ele>325.6666666666667</ele><time>2026-05-02T17:31:05.702Z</time></trkpt><trkpt lat="40.8055301" lon="16.4239946"><ele>327.33333333333337</ele><time>2026-05-02T17:31:06.702Z</time></trkpt><trkpt lat="40.8055286" lon="16.4242432"><ele>329.0</ele><time>2026-05-02T17:31:07.702Z</time></trkpt><trkpt lat="40.8055191" lon="16.4244961"><ele>330.33333333333337</ele><time>2026-05-02T17:31:08.703Z</time></trkpt><trkpt lat="40.8055039" lon="16.4247513"><ele>331.6666666666667</ele><time>2026-05-02T17:31:09.701Z</time></trkpt><trkpt lat="40.8054853" lon="16.4250068"><ele>333.0</ele><time>2026-05-02T17:31:10.702Z</time></trkpt><trkpt lat="40.8054635" lon="16.4252633"><ele>334.3333333333333</ele><time>2026-05-02T17:31:11.701Z</time></trkpt><trkpt lat="40.8054339" lon="16.425523"><ele>335.66666666666663</ele><time>2026-05-02T17:31:12.701Z</time></trkpt><trkpt lat="40.8054004" lon="16.425782"><ele>337.0</ele><time>2026-05-02T17:31:13.701Z</time></trkpt><trkpt lat="40.8053617" lon="16.4260418"><ele>337.0</ele><time>2026-05-02T17:31:14.703Z</time></trkpt><trkpt lat="40.8053161" lon="16.426299"><ele>337.0</ele><time>2026-05-02T17:31:15.701Z</time></trkpt><trkpt lat="40.8052643" lon="16.4265569"><ele>337.0</ele><time>2026-05-02T17:31:16.702Z</time></trkpt><trkpt lat="40.8052071" lon="16.4268165"><ele>336.3333333333333</ele><time>2026-05-02T17:31:17.701Z</time></trkpt><trkpt lat="40.8051453" lon="16.4270764"><ele>335.6666666666667</ele><time>2026-05-02T17:31:18.702Z</time></trkpt><trkpt lat="40.8050795" lon="16.4273349"><ele>335.0</ele><time>2026-05-02T17:31:19.701Z</time></trkpt><trkpt lat="40.8050095" lon="16.4275906"><ele>338.6666666666667</ele><time>2026-05-02T17:31:20.701Z</time></trkpt><trkpt lat="40.8049376" lon="16.4278442"><ele>342.3333333333333</ele><time>2026-05-02T17:31:21.702Z</time></trkpt><trkpt lat="40.8048631" lon="16.4280989"><ele>346.0</ele><time>2026-05-02T17:31:22.702Z</time></trkpt><trkpt lat="40.8047863" lon="16.4283567"><ele>348.66666666666663</ele><time>2026-05-02T17:31:23.701Z</time></trkpt><trkpt lat="40.8047111" lon="16.4286167"><ele>351.3333333333333</ele><time>2026-05-02T17:31:24.702Z</time></trkpt><trkpt lat="40.8046359" lon="16.4288755"><ele>354.0</ele><time>2026-05-02T17:31:25.701Z</time></trkpt><trkpt lat="40.8045591" lon="16.4291338"><ele>356.3333333333333</ele><time>2026-05-02T17:31:26.702Z</time></trkpt><trkpt lat="40.804485" lon="16.4293893"><ele>358.66666666666663</ele><time>2026-05-02T17:31:27.701Z</time></trkpt><trkpt lat="40.8044123" lon="16.4296417"><ele>361.0</ele><time>2026-05-02T17:31:28.702Z</time></trkpt><trkpt lat="40.8043417" lon="16.42989"><ele>359.66666666666663</ele><time>2026-05-02T17:31:29.702Z</time></trkpt><trkpt lat="40.80427" lon="16.4301367"><ele>358.3333333333333</ele><time>2026-05-02T17:31:30.702Z</time></trkpt><trkpt lat="40.8041967" lon="16.4303817"><ele>357.0</ele><time>2026-05-02T17:31:31.701Z</time></trkpt><trkpt lat="40.8041233" lon="16.43063"><ele>360.0</ele><time>2026-05-02T17:31:32.702Z</time></trkpt><trkpt lat="40.8040533" lon="16.4308817"><ele>363.0</ele><time>2026-05-02T17:31:33.702Z</time></trkpt><trkpt lat="40.8039833" lon="16.4311333"><ele>366.0</ele><time>2026-05-02T17:31:34.702Z</time></trkpt><trkpt lat="40.8039133" lon="16.4313833"><ele>368.3333333333333</ele><time>2026-05-02T17:31:35.702Z</time></trkpt><trkpt lat="40.80384" lon="16.431635"><ele>370.66666666666663</ele><time>2026-05-02T17:31:36.7Z</time></trkpt><trkpt lat="40.80377" lon="16.4318833"><ele>373.0</ele><time>2026-05-02T17:31:37.701Z</time></trkpt><trkpt lat="40.8037" lon="16.43213"><ele>374.3333333333333</ele><time>2026-05-02T17:31:38.702Z</time></trkpt><trkpt lat="40.8036367" lon="16.43238"><ele>375.6666666666667</ele><time>2026-05-02T17:31:39.702Z</time></trkpt><trkpt lat="40.8035767" lon="16.432635"><ele>377.0</ele><time>2026-05-02T17:31:40.702Z</time></trkpt><trkpt lat="40.8035217" lon="16.4328917"><ele>372.33333333333337</ele><time>2026-05-02T17:31:41.701Z</time></trkpt><trkpt lat="40.8034733" lon="16.43315"><ele>367.6666666666667</ele><time>2026-05-02T17:31:42.701Z</time></trkpt><trkpt lat="40.8034317" lon="16.4334067"><ele>363.0</ele><time>2026-05-02T17:31:43.701Z</time></trkpt><trkpt lat="40.803395" lon="16.4336633"><ele>364.0</ele><time>2026-05-02T17:31:44.702Z</time></trkpt><trkpt lat="40.80337" lon="16.4339183"><ele>365.0</ele><time>2026-05-02T17:31:45.701Z</time></trkpt><trkpt lat="40.8033467" lon="16.434175"><ele>366.0</ele><time>2026-05-02T17:31:46.702Z</time></trkpt><trkpt lat="40.8033317" lon="16.4344367"><ele>367.3333333333333</ele><time>2026-05-02T17:31:47.701Z</time></trkpt><trkpt lat="40.8033217" lon="16.4347033"><ele>368.66666666666663</ele><time>2026-05-02T17:31:48.702Z</time></trkpt><trkpt lat="40.8033167" lon="16.4349767"><ele>370.0</ele><time>2026-05-02T17:31:49.702Z</time></trkpt><trkpt lat="40.803315" lon="16.4352517"><ele>371.66666666666663</ele><time>2026-05-02T17:31:50.702Z</time></trkpt><trkpt lat="40.80332" lon="16.4355283"><ele>373.3333333333333</ele><time>2026-05-02T17:31:51.702Z</time></trkpt><trkpt lat="40.803335" lon="16.4358083"><ele>375.0</ele><time>2026-05-02T17:31:52.703Z</time></trkpt><trkpt lat="40.803355" lon="16.4360917"><ele>376.0</ele><time>2026-05-02T17:31:53.701Z</time></trkpt><trkpt lat="40.8033783" lon="16.4363717"><ele>377.0</ele><time>2026-05-02T17:31:54.701Z</time></trkpt><trkpt lat="40.8034083" lon="16.43665"><ele>378.0</ele><time>2026-05-02T17:31:55.702Z</time></trkpt><trkpt lat="40.80344" lon="16.4369167"><ele>380.0</ele><time>2026-05-02T17:31:56.702Z</time></trkpt><trkpt lat="40.8034817" lon="16.4371783"><ele>382.0</ele><time>2026-05-02T17:31:57.701Z</time></trkpt><trkpt lat="40.80353" lon="16.43744"><ele>384.0</ele><time>2026-05-02T17:31:58.702Z</time></trkpt><trkpt lat="40.8035883" lon="16.4377067"><ele>386.66666666666663</ele><time>2026-05-02T17:31:59.702Z</time></trkpt><trkpt lat="40.8036483" lon="16.4379667"><ele>389.3333333333333</ele><time>2026-05-02T17:32:00.702Z</time></trkpt><trkpt lat="40.8037083" lon="16.4382267"><ele>392.0</ele><time>2026-05-02T17:32:01.701Z</time></trkpt><trkpt lat="40.80377" lon="16.438485"><ele>396.66666666666663</ele><time>2026-05-02T17:32:02.701Z</time></trkpt><trkpt lat="40.8038367" lon="16.438745"><ele>401.33333333333337</ele><time>2026-05-02T17:32:03.701Z</time></trkpt><trkpt lat="40.8037633" lon="16.4385502"><ele>406.0</ele><time>2026-05-02T17:32:15.944Z</time></trkpt><trkpt lat="40.8069678" lon="16.4445103"><ele>418.0</ele><time>2026-05-02T17:32:28.834Z</time></trkpt><trkpt lat="40.8073917" lon="16.4453283"><ele>417.6666666666667</ele><time>2026-05-02T17:32:32.702Z</time></trkpt><trkpt lat="40.8075283" lon="16.4455467"><ele>417.33333333333337</ele><time>2026-05-02T17:32:33.702Z</time></trkpt><trkpt lat="40.8076583" lon="16.445785"><ele>417.0</ele><time>2026-05-02T17:32:34.703Z</time></trkpt><trkpt lat="40.80779" lon="16.4460167"><ele>417.66666666666663</ele><time>2026-05-02T17:32:35.702Z</time></trkpt><trkpt lat="40.8079217" lon="16.44625"><ele>418.3333333333333</ele><time>2026-05-02T17:32:36.702Z</time></trkpt><trkpt lat="40.808055" lon="16.4464833"><ele>419.0</ele><time>2026-05-02T17:32:37.702Z</time></trkpt><trkpt lat="40.8081917" lon="16.4467133"><ele>419.0</ele><time>2026-05-02T17:32:38.704Z</time></trkpt><trkpt lat="40.8083283" lon="16.4469417"><ele>419.0</ele><time>2026-05-02T17:32:39.703Z</time></trkpt><trkpt lat="40.80847" lon="16.447165"><ele>419.0</ele><time>2026-05-02T17:32:40.701Z</time></trkpt><trkpt lat="40.8086167" lon="16.4473833"><ele>419.0</ele><time>2026-05-02T17:32:41.701Z</time></trkpt><trkpt lat="40.8087683" lon="16.447595"><ele>419.0</ele><time>2026-05-02T17:32:42.701Z</time></trkpt><trkpt lat="40.8089267" lon="16.4477967"><ele>419.0</ele><time>2026-05-02T17:32:43.701Z</time></trkpt><trkpt lat="40.8090867" lon="16.4479933"><ele>418.66666666666663</ele><time>2026-05-02T17:32:44.702Z</time></trkpt><trkpt lat="40.8092483" lon="16.4481817"><ele>418.33333333333337</ele><time>2026-05-02T17:32:45.702Z</time></trkpt><trkpt lat="40.8094133" lon="16.4483617"><ele>418.0</ele><time>2026-05-02T17:32:46.701Z</time></trkpt><trkpt lat="40.809585" lon="16.4485383"><ele>418.6666666666667</ele><time>2026-05-02T17:32:47.701Z</time></trkpt><trkpt lat="40.80976" lon="16.4487067"><ele>419.33333333333337</ele><time>2026-05-02T17:32:48.701Z</time></trkpt><trkpt lat="40.809935" lon="16.448865"><ele>420.0</ele><time>2026-05-02T17:32:49.701Z</time></trkpt><trkpt lat="40.810115" lon="16.4490167"><ele>420.0</ele><time>2026-05-02T17:32:50.703Z</time></trkpt><trkpt lat="40.8102983" lon="16.4491617"><ele>420.0</ele><time>2026-05-02T17:32:51.702Z</time></trkpt><trkpt lat="40.8104833" lon="16.4493017"><ele>420.0</ele><time>2026-05-02T17:32:52.702Z</time></trkpt><trkpt lat="40.81067" lon="16.4494367"><ele>420.0</ele><time>2026-05-02T17:32:53.7Z</time></trkpt><trkpt lat="40.8108583" lon="16.4495717"><ele>420.0</ele><time>2026-05-02T17:32:54.7Z</time></trkpt><trkpt lat="40.811045" lon="16.4497117"><ele>420.0</ele><time>2026-05-02T17:32:55.701Z</time></trkpt><trkpt lat="40.8112333" lon="16.4498533"><ele>420.0</ele><time>2026-05-02T17:32:56.702Z</time></trkpt><trkpt lat="40.8114217" lon="16.449995"><ele>420.0</ele><time>2026-05-02T17:32:57.702Z</time></trkpt><trkpt lat="40.8116133" lon="16.4501383"><ele>420.0</ele><time>2026-05-02T17:32:58.702Z</time></trkpt><trkpt lat="40.8118067" lon="16.4502833"><ele>419.0</ele><time>2026-05-02T17:32:59.701Z</time></trkpt><trkpt lat="40.8119983" lon="16.4504267"><ele>418.0</ele><time>2026-05-02T17:33:00.7Z</time></trkpt><trkpt lat="40.81219" lon="16.4505717"><ele>417.0</ele><time>2026-05-02T17:33:01.702Z</time></trkpt><trkpt lat="40.812385" lon="16.4507167"><ele>416.33333333333337</ele><time>2026-05-02T17:33:02.702Z</time></trkpt><trkpt lat="40.81258" lon="16.4508617"><ele>415.6666666666667</ele><time>2026-05-02T17:33:03.701Z</time></trkpt><trkpt lat="40.8127733" lon="16.4510083"><ele>415.0</ele><time>2026-05-02T17:33:04.7Z</time></trkpt><trkpt lat="40.8129683" lon="16.451155"><ele>413.33333333333337</ele><time>2026-05-02T17:33:05.701Z</time></trkpt><trkpt lat="40.813165" lon="16.4513017"><ele>411.66666666666663</ele><time>2026-05-02T17:33:06.702Z</time></trkpt><trkpt lat="40.81336" lon="16.451445"><ele>410.0</ele><time>2026-05-02T17:33:07.701Z</time></trkpt><trkpt lat="40.8135583" lon="16.4515883"><ele>410.0</ele><time>2026-05-02T17:33:08.702Z</time></trkpt><trkpt lat="40.8137533" lon="16.4517333"><ele>410.0</ele><time>2026-05-02T17:33:09.702Z</time></trkpt><trkpt lat="40.8139533" lon="16.4518767"><ele>410.0</ele><time>2026-05-02T17:33:10.702Z</time></trkpt><trkpt lat="40.8141533" lon="16.45202"><ele>410.0</ele><time>2026-05-02T17:33:11.701Z</time></trkpt><trkpt lat="40.8143517" lon="16.45216"><ele>409.5</ele><time>2026-05-02T17:33:12.702Z</time></trkpt><trkpt lat="40.8145533" lon="16.4523"><ele>409.0</ele><time>2026-05-02T17:33:13.702Z</time></trkpt><trkpt lat="40.8147533" lon="16.45244"><ele>409.0</ele><time>2026-05-02T17:33:14.702Z</time></trkpt><trkpt lat="40.814955" lon="16.4525817"><ele>409.0</ele><time>2026-05-02T17:33:15.701Z</time></trkpt><trkpt lat="40.8151567" lon="16.452725"><ele>408.0</ele><time>2026-05-02T17:33:16.702Z</time></trkpt><trkpt lat="40.8153583" lon="16.4528667"><ele>407.0</ele><time>2026-05-02T17:33:17.701Z</time></trkpt><trkpt lat="40.81556" lon="16.4530083"><ele>406.0</ele><time>2026-05-02T17:33:18.703Z</time></trkpt><trkpt lat="40.8157617" lon="16.45315"><ele>405.0</ele><time>2026-05-02T17:33:19.702Z</time></trkpt><trkpt lat="40.81596" lon="16.45329"><ele>404.66666666666663</ele><time>2026-05-02T17:33:20.703Z</time></trkpt><trkpt lat="40.8161567" lon="16.4534283"><ele>404.3333333333333</ele><time>2026-05-02T17:33:21.701Z</time></trkpt><trkpt lat="40.8163548" lon="16.4535626"><ele>404.0</ele><time>2026-05-02T17:33:22.701Z</time></trkpt><trkpt lat="40.816552" lon="16.4536986"><ele>403.66666666666663</ele><time>2026-05-02T17:33:23.701Z</time></trkpt><trkpt lat="40.8167451" lon="16.4538339"><ele>403.33333333333337</ele><time>2026-05-02T17:33:24.702Z</time></trkpt><trkpt lat="40.816932" lon="16.4539643"><ele>403.0</ele><time>2026-05-02T17:33:25.701Z</time></trkpt><trkpt lat="40.8171115" lon="16.4540918"><ele>402.6666666666667</ele><time>2026-05-02T17:33:26.701Z</time></trkpt><trkpt lat="40.8172864" lon="16.4542118"><ele>402.33333333333337</ele><time>2026-05-02T17:33:27.701Z</time></trkpt><trkpt lat="40.8174548" lon="16.454333"><ele>402.0</ele><time>2026-05-02T17:33:28.702Z</time></trkpt><trkpt lat="40.8176208" lon="16.4544502"><ele>401.66666666666663</ele><time>2026-05-02T17:33:29.702Z</time></trkpt><trkpt lat="40.8177842" lon="16.4545666"><ele>401.3333333333333</ele><time>2026-05-02T17:33:30.701Z</time></trkpt><trkpt lat="40.8179479" lon="16.4546803"><ele>401.0</ele><time>2026-05-02T17:33:31.701Z</time></trkpt><trkpt lat="40.8181141" lon="16.4547963"><ele>401.0</ele><time>2026-05-02T17:33:32.703Z</time></trkpt><trkpt lat="40.8182874" lon="16.4549152"><ele>401.0</ele><time>2026-05-02T17:33:33.704Z</time></trkpt><trkpt lat="40.8184643" lon="16.4550406"><ele>401.0</ele><time>2026-05-02T17:33:34.701Z</time></trkpt><trkpt lat="40.8186448" lon="16.4551691"><ele>400.66666666666663</ele><time>2026-05-02T17:33:35.702Z</time></trkpt><trkpt lat="40.8188255" lon="16.4553002"><ele>400.33333333333337</ele><time>2026-05-02T17:33:36.701Z</time></trkpt><trkpt lat="40.8190026" lon="16.4554397"><ele>400.0</ele><time>2026-05-02T17:33:37.7Z</time></trkpt><trkpt lat="40.8191761" lon="16.4555941"><ele>399.6666666666667</ele><time>2026-05-02T17:33:38.702Z</time></trkpt><trkpt lat="40.8193448" lon="16.4557625"><ele>399.33333333333337</ele><time>2026-05-02T17:33:39.702Z</time></trkpt><trkpt lat="40.8195108" lon="16.4559496"><ele>399.0</ele><time>2026-05-02T17:33:40.702Z</time></trkpt><trkpt lat="40.8196652" lon="16.4561476"><ele>398.66666666666663</ele><time>2026-05-02T17:33:41.7Z</time></trkpt><trkpt lat="40.8198052" lon="16.4563455"><ele>398.3333333333333</ele><time>2026-05-02T17:33:42.7Z</time></trkpt><trkpt lat="40.8199324" lon="16.4565497"><ele>398.0</ele><time>2026-05-02T17:33:43.699Z</time></trkpt><trkpt lat="40.8200525" lon="16.4567668"><ele>398.0</ele><time>2026-05-02T17:33:44.702Z</time></trkpt><trkpt lat="40.8201714" lon="16.4570041"><ele>398.0</ele><time>2026-05-02T17:33:45.702Z</time></trkpt><trkpt lat="40.820281" lon="16.4572589"><ele>398.0</ele><time>2026-05-02T17:33:46.703Z</time></trkpt><trkpt lat="40.8203769" lon="16.4575273"><ele>398.0</ele><time>2026-05-02T17:33:47.702Z</time></trkpt><trkpt lat="40.8204566" lon="16.4577964"><ele>398.0</ele><time>2026-05-02T17:33:48.701Z</time></trkpt><trkpt lat="40.8205215" lon="16.4580553"><ele>398.0</ele><time>2026-05-02T17:33:49.701Z</time></trkpt><trkpt lat="40.8205736" lon="16.4583092"><ele>397.66666666666663</ele><time>2026-05-02T17:33:50.703Z</time></trkpt><trkpt lat="40.8206182" lon="16.4585698"><ele>397.33333333333337</ele><time>2026-05-02T17:33:51.701Z</time></trkpt><trkpt lat="40.8206538" lon="16.4588513"><ele>397.0</ele><time>2026-05-02T17:33:52.702Z</time></trkpt><trkpt lat="40.8206816" lon="16.459148"><ele>396.6666666666667</ele><time>2026-05-02T17:33:53.701Z</time></trkpt><trkpt lat="40.8207044" lon="16.4594483"><ele>396.33333333333337</ele><time>2026-05-02T17:33:54.702Z</time></trkpt><trkpt lat="40.8207267" lon="16.4597267"><ele>396.0</ele><time>2026-05-02T17:33:55.701Z</time></trkpt><trkpt lat="40.8207517" lon="16.45998"><ele>395.33333333333337</ele><time>2026-05-02T17:33:56.701Z</time></trkpt><trkpt lat="40.8207767" lon="16.4602267"><ele>394.6666666666667</ele><time>2026-05-02T17:33:57.702Z</time></trkpt><trkpt lat="40.8208017" lon="16.4604717"><ele>394.0</ele><time>2026-05-02T17:33:58.701Z</time></trkpt><trkpt lat="40.8208233" lon="16.4607"><ele>394.0</ele><time>2026-05-02T17:33:59.703Z</time></trkpt><trkpt lat="40.8208417" lon="16.4609083"><ele>394.0</ele><time>2026-05-02T17:34:00.702Z</time></trkpt><trkpt lat="40.8208583" lon="16.46111"><ele>394.0</ele><time>2026-05-02T17:34:01.701Z</time></trkpt><trkpt lat="40.820875" lon="16.4612933"><ele>394.0</ele><time>2026-05-02T17:34:02.703Z</time></trkpt><trkpt lat="40.8208917" lon="16.4614517"><ele>394.0</ele><time>2026-05-02T17:34:03.702Z</time></trkpt><trkpt lat="40.82091" lon="16.4616"><ele>394.0</ele><time>2026-05-02T17:34:04.701Z</time></trkpt><trkpt lat="40.8209267" lon="16.4617367"><ele>394.0</ele><time>2026-05-02T17:34:05.7Z</time></trkpt><trkpt lat="40.8209383" lon="16.4618633"><ele>394.0</ele><time>2026-05-02T17:34:06.701Z</time></trkpt><trkpt lat="40.8209483" lon="16.4619783"><ele>394.00000000000006</ele><time>2026-05-02T17:34:07.702Z</time></trkpt><trkpt lat="40.82096" lon="16.4620867"><ele>394.0</ele><time>2026-05-02T17:34:08.701Z</time></trkpt><trkpt lat="40.8209717" lon="16.4621867"><ele>394.0</ele><time>2026-05-02T17:34:09.702Z</time></trkpt><trkpt lat="40.82098" lon="16.4622833"><ele>394.0</ele><time>2026-05-02T17:34:10.703Z</time></trkpt><trkpt lat="40.8209867" lon="16.4623717"><ele>394.00000000000006</ele><time>2026-05-02T17:34:11.703Z</time></trkpt><trkpt lat="40.820995" lon="16.4624567"><ele>394.0</ele><time>2026-05-02T17:34:12.701Z</time></trkpt><trkpt lat="40.8210067" lon="16.4626133"><ele>394.0</ele><time>2026-05-02T17:34:14.702Z</time></trkpt><trkpt lat="40.8210217" lon="16.4627683"><ele>394.0</ele><time>2026-05-02T17:34:16.701Z</time></trkpt><trkpt lat="40.8210333" lon="16.4629383"><ele>394.0</ele><time>2026-05-02T17:34:18.702Z</time></trkpt><trkpt lat="40.8210433" lon="16.4630383"><ele>394.0</ele><time>2026-05-02T17:34:19.704Z</time></trkpt><trkpt lat="40.821055" lon="16.463175"><ele>394.0</ele><time>2026-05-02T17:34:20.702Z</time></trkpt><trkpt lat="40.8210717" lon="16.463355"><ele>393.6666666666667</ele><time>2026-05-02T17:34:21.7Z</time></trkpt><trkpt lat="40.8210917" lon="16.463565"><ele>393.33333333333337</ele><time>2026-05-02T17:34:22.701Z</time></trkpt><trkpt lat="40.8211117" lon="16.463795"><ele>393.0</ele><time>2026-05-02T17:34:23.702Z</time></trkpt><trkpt lat="40.821135" lon="16.46404"><ele>393.0</ele><time>2026-05-02T17:34:24.701Z</time></trkpt><trkpt lat="40.82116" lon="16.4643033"><ele>393.0</ele><time>2026-05-02T17:34:25.702Z</time></trkpt><trkpt lat="40.8211833" lon="16.4645767"><ele>393.0</ele><time>2026-05-02T17:34:26.702Z</time></trkpt><trkpt lat="40.82121" lon="16.4648583"><ele>392.66666666666663</ele><time>2026-05-02T17:34:27.701Z</time></trkpt><trkpt lat="40.8212367" lon="16.4651383"><ele>392.3333333333333</ele><time>2026-05-02T17:34:28.701Z</time></trkpt><trkpt lat="40.8212617" lon="16.4654167"><ele>392.0</ele><time>2026-05-02T17:34:29.701Z</time></trkpt><trkpt lat="40.821285" lon="16.4656817"><ele>391.3333333333333</ele><time>2026-05-02T17:34:30.702Z</time></trkpt><trkpt lat="40.82131" lon="16.4659333"><ele>390.66666666666663</ele><time>2026-05-02T17:34:31.701Z</time></trkpt><trkpt lat="40.821335" lon="16.4661783"><ele>390.0</ele><time>2026-05-02T17:34:32.703Z</time></trkpt><trkpt lat="40.8213567" lon="16.4664183"><ele>390.0</ele><time>2026-05-02T17:34:33.701Z</time></trkpt><trkpt lat="40.8213767" lon="16.4666633"><ele>390.0</ele><time>2026-05-02T17:34:34.701Z</time></trkpt><trkpt lat="40.8214" lon="16.4669083"><ele>390.0</ele><time>2026-05-02T17:34:35.701Z</time></trkpt><trkpt lat="40.8214217" lon="16.4671417"><ele>390.0</ele><time>2026-05-02T17:34:36.7Z</time></trkpt><trkpt lat="40.821445" lon="16.46737"><ele>390.0</ele><time>2026-05-02T17:34:37.701Z</time></trkpt><trkpt lat="40.821465" lon="16.467595"><ele>390.0</ele><time>2026-05-02T17:34:38.703Z</time></trkpt><trkpt lat="40.821485" lon="16.4678117"><ele>390.25</ele><time>2026-05-02T17:34:39.701Z</time></trkpt><trkpt lat="40.8215033" lon="16.4680217"><ele>390.5</ele><time>2026-05-02T17:34:40.702Z</time></trkpt><trkpt lat="40.82152" lon="16.468215"><ele>390.75</ele><time>2026-05-02T17:34:41.702Z</time></trkpt><trkpt lat="40.821535" lon="16.4683967"><ele>391.0</ele><time>2026-05-02T17:34:42.708Z</time></trkpt><trkpt lat="40.8215533" lon="16.4685667"><ele>391.0</ele><time>2026-05-02T17:34:43.702Z</time></trkpt><trkpt lat="40.8215683" lon="16.4687283"><ele>391.0</ele><time>2026-05-02T17:34:44.702Z</time></trkpt><trkpt lat="40.8215833" lon="16.4688883"><ele>391.0</ele><time>2026-05-02T17:34:45.702Z</time></trkpt><trkpt lat="40.8215983" lon="16.4690533"><ele>391.0</ele><time>2026-05-02T17:34:46.703Z</time></trkpt><trkpt lat="40.8216133" lon="16.4692283"><ele>391.25</ele><time>2026-05-02T17:34:47.701Z</time></trkpt><trkpt lat="40.8216317" lon="16.4694067"><ele>391.5</ele><time>2026-05-02T17:34:48.702Z</time></trkpt><trkpt lat="40.8216467" lon="16.4695767"><ele>391.75</ele><time>2026-05-02T17:34:49.703Z</time></trkpt><trkpt lat="40.8216617" lon="16.4697433"><ele>392.0</ele><time>2026-05-02T17:34:50.701Z</time></trkpt><trkpt lat="40.8216817" lon="16.469915"><ele>391.5</ele><time>2026-05-02T17:34:51.702Z</time></trkpt><trkpt lat="40.8216983" lon="16.4700967"><ele>391.0</ele><time>2026-05-02T17:34:52.701Z</time></trkpt><trkpt lat="40.8217167" lon="16.4702783"><ele>390.5</ele><time>2026-05-02T17:34:53.703Z</time></trkpt><trkpt lat="40.821735" lon="16.4704583"><ele>390.0</ele><time>2026-05-02T17:34:54.701Z</time></trkpt><trkpt lat="40.821755" lon="16.4706483"><ele>390.0</ele><time>2026-05-02T17:34:55.702Z</time></trkpt><trkpt lat="40.8217767" lon="16.4708517"><ele>390.0</ele><time>2026-05-02T17:34:56.701Z</time></trkpt><trkpt lat="40.8218033" lon="16.4710783"><ele>390.0</ele><time>2026-05-02T17:34:57.7Z</time></trkpt><trkpt lat="40.8218317" lon="16.4713333"><ele>390.0</ele><time>2026-05-02T17:34:58.701Z</time></trkpt><trkpt lat="40.8218583" lon="16.471615"><ele>390.0</ele><time>2026-05-02T17:34:59.703Z</time></trkpt><trkpt lat="40.8218867" lon="16.4719117"><ele>390.0</ele><time>2026-05-02T17:35:00.702Z</time></trkpt><trkpt lat="40.8219133" lon="16.4722167"><ele>390.5</ele><time>2026-05-02T17:35:01.702Z</time></trkpt><trkpt lat="40.8219417" lon="16.4725267"><ele>391.0</ele><time>2026-05-02T17:35:02.702Z</time></trkpt><trkpt lat="40.8219683" lon="16.472835"><ele>390.0</ele><time>2026-05-02T17:35:03.7Z</time></trkpt><trkpt lat="40.8219933" lon="16.473145"><ele>389.0</ele><time>2026-05-02T17:35:04.7Z</time></trkpt><trkpt lat="40.82202" lon="16.4734583"><ele>388.0</ele><time>2026-05-02T17:35:05.702Z</time></trkpt><trkpt lat="40.82205" lon="16.4737783"><ele>387.0</ele><time>2026-05-02T17:35:06.701Z</time></trkpt><trkpt lat="40.82208" lon="16.4740983"><ele>387.0</ele><time>2026-05-02T17:35:07.701Z</time></trkpt><trkpt lat="40.8221083" lon="16.47442"><ele>387.0</ele><time>2026-05-02T17:35:08.702Z</time></trkpt><trkpt lat="40.8221333" lon="16.4747433"><ele>387.5</ele><time>2026-05-02T17:35:09.701Z</time></trkpt><trkpt lat="40.8221633" lon="16.475065"><ele>388.0</ele><time>2026-05-02T17:35:10.703Z</time></trkpt><trkpt lat="40.8221933" lon="16.475385"><ele>387.5</ele><time>2026-05-02T17:35:11.702Z</time></trkpt><trkpt lat="40.822225" lon="16.475705"><ele>387.0</ele><time>2026-05-02T17:35:12.7Z</time></trkpt><trkpt lat="40.822255" lon="16.476025"><ele>388.5</ele><time>2026-05-02T17:35:13.701Z</time></trkpt><trkpt lat="40.8222817" lon="16.4763433"><ele>390.0</ele><time>2026-05-02T17:35:14.702Z</time></trkpt><trkpt lat="40.8223117" lon="16.476655"><ele>390.0</ele><time>2026-05-02T17:35:15.702Z</time></trkpt><trkpt lat="40.8223417" lon="16.4769617"><ele>390.0</ele><time>2026-05-02T17:35:16.703Z</time></trkpt><trkpt lat="40.8223733" lon="16.4772733"><ele>391.0</ele><time>2026-05-02T17:35:17.702Z</time></trkpt><trkpt lat="40.8224067" lon="16.477585"><ele>392.0</ele><time>2026-05-02T17:35:18.701Z</time></trkpt><trkpt lat="40.8224467" lon="16.4778983"><ele>392.5</ele><time>2026-05-02T17:35:19.702Z</time></trkpt><trkpt lat="40.822495" lon="16.47821"><ele>393.0</ele><time>2026-05-02T17:35:20.701Z</time></trkpt><trkpt lat="40.8225483" lon="16.47852"><ele>393.5</ele><time>2026-05-02T17:35:21.702Z</time></trkpt><trkpt lat="40.8226067" lon="16.4788283"><ele>394.0</ele><time>2026-05-02T17:35:22.702Z</time></trkpt><trkpt lat="40.8226667" lon="16.479135"><ele>396.0</ele><time>2026-05-02T17:35:23.703Z</time></trkpt><trkpt lat="40.8227267" lon="16.47944"><ele>398.0</ele><time>2026-05-02T17:35:24.701Z</time></trkpt><trkpt lat="40.82279" lon="16.4797433"><ele>399.0</ele><time>2026-05-02T17:35:25.703Z</time></trkpt><trkpt lat="40.8228533" lon="16.4800483"><ele>400.0</ele><time>2026-05-02T17:35:26.702Z</time></trkpt><trkpt lat="40.8229183" lon="16.480355"><ele>399.0</ele><time>2026-05-02T17:35:27.702Z</time></trkpt><trkpt lat="40.822985" lon="16.4806633"><ele>398.0</ele><time>2026-05-02T17:35:28.701Z</time></trkpt><trkpt lat="40.8230517" lon="16.4809767"><ele>395.5</ele><time>2026-05-02T17:35:29.702Z</time></trkpt><trkpt lat="40.8231167" lon="16.48129"><ele>393.0</ele><time>2026-05-02T17:35:30.701Z</time></trkpt><trkpt lat="40.823185" lon="16.4816067"><ele>393.0</ele><time>2026-05-02T17:35:31.701Z</time></trkpt><trkpt lat="40.8232533" lon="16.4819233"><ele>393.0</ele><time>2026-05-02T17:35:32.702Z</time></trkpt><trkpt lat="40.82332" lon="16.4822417"><ele>392.0</ele><time>2026-05-02T17:35:33.705Z</time></trkpt><trkpt lat="40.8233833" lon="16.4825617"><ele>391.0</ele><time>2026-05-02T17:35:34.701Z</time></trkpt><trkpt lat="40.8234467" lon="16.48288"><ele>391.5</ele><time>2026-05-02T17:35:35.702Z</time></trkpt><trkpt lat="40.8235133" lon="16.483185"><ele>392.0</ele><time>2026-05-02T17:35:36.701Z</time></trkpt><trkpt lat="40.8235783" lon="16.483485"><ele>390.0</ele><time>2026-05-02T17:35:37.701Z</time></trkpt><trkpt lat="40.8236417" lon="16.4837783"><ele>388.0</ele><time>2026-05-02T17:35:38.702Z</time></trkpt><trkpt lat="40.8237017" lon="16.4840667"><ele>388.0</ele><time>2026-05-02T17:35:39.7Z</time></trkpt><trkpt lat="40.8237617" lon="16.4843483"><ele>388.0</ele><time>2026-05-02T17:35:40.701Z</time></trkpt><trkpt lat="40.82382" lon="16.484625"><ele>388.0</ele><time>2026-05-02T17:35:41.702Z</time></trkpt><trkpt lat="40.8238767" lon="16.4849"><ele>387.0</ele><time>2026-05-02T17:35:42.702Z</time></trkpt><trkpt lat="40.823935" lon="16.485165"><ele>386.0</ele><time>2026-05-02T17:35:43.701Z</time></trkpt><trkpt lat="40.82399" lon="16.4854217"><ele>385.0</ele><time>2026-05-02T17:35:44.701Z</time></trkpt><trkpt lat="40.824045" lon="16.4856717"><ele>384.33333333333337</ele><time>2026-05-02T17:35:45.7Z</time></trkpt><trkpt lat="40.8240983" lon="16.485915"><ele>383.6666666666667</ele><time>2026-05-02T17:35:46.7Z</time></trkpt><trkpt lat="40.8241483" lon="16.4861567"><ele>383.0</ele><time>2026-05-02T17:35:47.7Z</time></trkpt><trkpt lat="40.8241967" lon="16.4863967"><ele>383.0</ele><time>2026-05-02T17:35:48.701Z</time></trkpt><trkpt lat="40.824245" lon="16.4866317"><ele>383.0</ele><time>2026-05-02T17:35:49.703Z</time></trkpt><trkpt lat="40.82429" lon="16.4868633"><ele>383.0</ele><time>2026-05-02T17:35:50.701Z</time></trkpt><trkpt lat="40.8243367" lon="16.487095"><ele>384.0</ele><time>2026-05-02T17:35:51.702Z</time></trkpt><trkpt lat="40.824385" lon="16.48732"><ele>385.0</ele><time>2026-05-02T17:35:52.702Z</time></trkpt><trkpt lat="40.8244333" lon="16.4875417"><ele>386.0</ele><time>2026-05-02T17:35:53.701Z</time></trkpt><trkpt lat="40.82448" lon="16.4877667"><ele>386.66666666666663</ele><time>2026-05-02T17:35:54.702Z</time></trkpt><trkpt lat="40.8245267" lon="16.4879933"><ele>387.33333333333337</ele><time>2026-05-02T17:35:55.701Z</time></trkpt><trkpt lat="40.8245717" lon="16.488225"><ele>388.0</ele><time>2026-05-02T17:35:56.701Z</time></trkpt><trkpt lat="40.8246183" lon="16.4884533"><ele>388.0</ele><time>2026-05-02T17:35:57.7Z</time></trkpt><trkpt lat="40.8246667" lon="16.48868"><ele>388.0</ele><time>2026-05-02T17:35:58.702Z</time></trkpt><trkpt lat="40.8247167" lon="16.488915"><ele>388.0</ele><time>2026-05-02T17:35:59.702Z</time></trkpt><trkpt lat="40.8247683" lon="16.4891583"><ele>388.6666666666667</ele><time>2026-05-02T17:36:00.7Z</time></trkpt><trkpt lat="40.8248233" lon="16.4894133"><ele>389.33333333333337</ele><time>2026-05-02T17:36:01.7Z</time></trkpt><trkpt lat="40.8248817" lon="16.489685"><ele>390.0</ele><time>2026-05-02T17:36:02.702Z</time></trkpt><trkpt lat="40.8249433" lon="16.489975"><ele>390.5</ele><time>2026-05-02T17:36:03.7Z</time></trkpt><trkpt lat="40.825005" lon="16.4902717"><ele>391.0</ele><time>2026-05-02T17:36:04.701Z</time></trkpt><trkpt lat="40.8250683" lon="16.49057"><ele>391.5</ele><time>2026-05-02T17:36:05.701Z</time></trkpt><trkpt lat="40.82513" lon="16.4908667"><ele>392.0</ele><time>2026-05-02T17:36:06.7Z</time></trkpt><trkpt lat="40.8251917" lon="16.4911617"><ele>391.0</ele><time>2026-05-02T17:36:07.701Z</time></trkpt><trkpt lat="40.8252533" lon="16.491455"><ele>390.0</ele><time>2026-05-02T17:36:08.701Z</time></trkpt><trkpt lat="40.8253167" lon="16.4917467"><ele>390.0</ele><time>2026-05-02T17:36:09.702Z</time></trkpt><trkpt lat="40.8253767" lon="16.4920383"><ele>390.0</ele><time>2026-05-02T17:36:10.702Z</time></trkpt><trkpt lat="40.825435" lon="16.4923267"><ele>390.5</ele><time>2026-05-02T17:36:11.703Z</time></trkpt><trkpt lat="40.8254933" lon="16.4926133"><ele>391.0</ele><time>2026-05-02T17:36:12.703Z</time></trkpt><trkpt lat="40.8255517" lon="16.4929067"><ele>391.0</ele><time>2026-05-02T17:36:13.704Z</time></trkpt><trkpt lat="40.8256117" lon="16.4932017"><ele>391.0</ele><time>2026-05-02T17:36:14.704Z</time></trkpt><trkpt lat="40.8256717" lon="16.4934983"><ele>391.0</ele><time>2026-05-02T17:36:15.701Z</time></trkpt><trkpt lat="40.8257333" lon="16.493795"><ele>391.0</ele><time>2026-05-02T17:36:16.702Z</time></trkpt><trkpt lat="40.8257967" lon="16.494095"><ele>391.0</ele><time>2026-05-02T17:36:17.703Z</time></trkpt><trkpt lat="40.82586" lon="16.4943933"><ele>391.0</ele><time>2026-05-02T17:36:18.702Z</time></trkpt><trkpt lat="40.8259233" lon="16.494695"><ele>391.0</ele><time>2026-05-02T17:36:19.702Z</time></trkpt><trkpt lat="40.8259883" lon="16.4949983"><ele>391.0</ele><time>2026-05-02T17:36:20.702Z</time></trkpt><trkpt lat="40.8260533" lon="16.4953033"><ele>391.0</ele><time>2026-05-02T17:36:21.701Z</time></trkpt><trkpt lat="40.82612" lon="16.4956067"><ele>391.0</ele><time>2026-05-02T17:36:22.702Z</time></trkpt><trkpt lat="40.8261833" lon="16.4959117"><ele>391.0</ele><time>2026-05-02T17:36:23.701Z</time></trkpt><trkpt lat="40.8262483" lon="16.4962183"><ele>391.0</ele><time>2026-05-02T17:36:24.703Z</time></trkpt><trkpt lat="40.8263133" lon="16.4965233"><ele>390.5</ele><time>2026-05-02T17:36:25.703Z</time></trkpt><trkpt lat="40.8263783" lon="16.4968283"><ele>390.0</ele><time>2026-05-02T17:36:26.703Z</time></trkpt><trkpt lat="40.8264417" lon="16.49713"><ele>389.5</ele><time>2026-05-02T17:36:27.702Z</time></trkpt><trkpt lat="40.8265067" lon="16.4974317"><ele>389.0</ele><time>2026-05-02T17:36:28.702Z</time></trkpt><trkpt lat="40.8265683" lon="16.4977333"><ele>389.0</ele><time>2026-05-02T17:36:29.703Z</time></trkpt><trkpt lat="40.82663" lon="16.498035"><ele>389.0</ele><time>2026-05-02T17:36:30.701Z</time></trkpt><trkpt lat="40.8266933" lon="16.4983367"><ele>389.0</ele><time>2026-05-02T17:36:31.701Z</time></trkpt><trkpt lat="40.826755" lon="16.4986383"><ele>389.0</ele><time>2026-05-02T17:36:32.705Z</time></trkpt><trkpt lat="40.8268183" lon="16.49894"><ele>388.0</ele><time>2026-05-02T17:36:33.701Z</time></trkpt><trkpt lat="40.8268833" lon="16.4992417"><ele>387.0</ele><time>2026-05-02T17:36:34.703Z</time></trkpt><trkpt lat="40.8269483" lon="16.4995417"><ele>388.0</ele><time>2026-05-02T17:36:35.702Z</time></trkpt><trkpt lat="40.8270117" lon="16.499845"><ele>389.0</ele><time>2026-05-02T17:36:36.702Z</time></trkpt><trkpt lat="40.8270767" lon="16.500145"><ele>388.5</ele><time>2026-05-02T17:36:37.701Z</time></trkpt><trkpt lat="40.82714" lon="16.5004417"><ele>388.0</ele><time>2026-05-02T17:36:38.702Z</time></trkpt><trkpt lat="40.8272033" lon="16.50074"><ele>388.0</ele><time>2026-05-02T17:36:39.702Z</time></trkpt><trkpt lat="40.827265" lon="16.501035"><ele>388.0</ele><time>2026-05-02T17:36:40.702Z</time></trkpt><trkpt lat="40.8273267" lon="16.5013283"><ele>388.5</ele><time>2026-05-02T17:36:41.703Z</time></trkpt><trkpt lat="40.8273883" lon="16.50162"><ele>389.0</ele><time>2026-05-02T17:36:42.703Z</time></trkpt><trkpt lat="40.82745" lon="16.5019117"><ele>389.0</ele><time>2026-05-02T17:36:43.703Z</time></trkpt><trkpt lat="40.82751" lon="16.5022017"><ele>389.0</ele><time>2026-05-02T17:36:44.702Z</time></trkpt><trkpt lat="40.8275721" lon="16.5024902"><ele>389.0</ele><time>2026-05-02T17:36:45.703Z</time></trkpt><trkpt lat="40.8276327" lon="16.502781"><ele>389.0</ele><time>2026-05-02T17:36:46.702Z</time></trkpt><trkpt lat="40.8276943" lon="16.5030771"><ele>389.5</ele><time>2026-05-02T17:36:47.702Z</time></trkpt><trkpt lat="40.827757" lon="16.5033746"><ele>390.0</ele><time>2026-05-02T17:36:48.702Z</time></trkpt><trkpt lat="40.8278205" lon="16.5036768"><ele>390.5</ele><time>2026-05-02T17:36:49.703Z</time></trkpt><trkpt lat="40.8278819" lon="16.5039812"><ele>391.0</ele><time>2026-05-02T17:36:50.706Z</time></trkpt><trkpt lat="40.8279399" lon="16.5042863"><ele>390.5</ele><time>2026-05-02T17:36:51.702Z</time></trkpt><trkpt lat="40.8279936" lon="16.5045947"><ele>390.0</ele><time>2026-05-02T17:36:52.702Z</time></trkpt><trkpt lat="40.8280377" lon="16.5049077"><ele>390.0</ele><time>2026-05-02T17:36:53.704Z</time></trkpt><trkpt lat="40.8280707" lon="16.5052244"><ele>390.0</ele><time>2026-05-02T17:36:54.702Z</time></trkpt><trkpt lat="40.8280992" lon="16.5055418"><ele>390.0</ele><time>2026-05-02T17:36:55.704Z</time></trkpt><trkpt lat="40.8281205" lon="16.5058604"><ele>390.0</ele><time>2026-05-02T17:36:56.702Z</time></trkpt><trkpt lat="40.8281349" lon="16.5061807"><ele>389.5</ele><time>2026-05-02T17:36:57.706Z</time></trkpt><trkpt lat="40.828146" lon="16.5065007"><ele>389.0</ele><time>2026-05-02T17:36:58.704Z</time></trkpt><trkpt lat="40.8281492" lon="16.5068203"><ele>388.5</ele><time>2026-05-02T17:36:59.702Z</time></trkpt><trkpt lat="40.8281454" lon="16.5071374"><ele>388.0</ele><time>2026-05-02T17:37:00.702Z</time></trkpt><trkpt lat="40.8281348" lon="16.5074513"><ele>388.0</ele><time>2026-05-02T17:37:01.703Z</time></trkpt><trkpt lat="40.8281174" lon="16.507764"><ele>388.0</ele><time>2026-05-02T17:37:02.702Z</time></trkpt><trkpt lat="40.8280899" lon="16.5080729"><ele>388.0</ele><time>2026-05-02T17:37:03.703Z</time></trkpt><trkpt lat="40.8280594" lon="16.5083823"><ele>388.0</ele><time>2026-05-02T17:37:04.701Z</time></trkpt><trkpt lat="40.8280221" lon="16.5086918"><ele>390.0</ele><time>2026-05-02T17:37:05.702Z</time></trkpt><trkpt lat="40.8279828" lon="16.5089993"><ele>392.0</ele><time>2026-05-02T17:37:06.701Z</time></trkpt><trkpt lat="40.8279348" lon="16.5093072"><ele>392.5</ele><time>2026-05-02T17:37:07.701Z</time></trkpt><trkpt lat="40.8278794" lon="16.5096168"><ele>393.0</ele><time>2026-05-02T17:37:08.701Z</time></trkpt><trkpt lat="40.8278217" lon="16.509924"><ele>393.0</ele><time>2026-05-02T17:37:09.701Z</time></trkpt><trkpt lat="40.8277636" lon="16.5102291"><ele>393.0</ele><time>2026-05-02T17:37:10.702Z</time></trkpt><trkpt lat="40.8277088" lon="16.5105304"><ele>393.5</ele><time>2026-05-02T17:37:11.703Z</time></trkpt><trkpt lat="40.8276542" lon="16.5108281"><ele>394.0</ele><time>2026-05-02T17:37:12.703Z</time></trkpt><trkpt lat="40.8276007" lon="16.5111232"><ele>396.0</ele><time>2026-05-02T17:37:13.703Z</time></trkpt><trkpt lat="40.8275462" lon="16.5114153"><ele>398.0</ele><time>2026-05-02T17:37:14.704Z</time></trkpt><trkpt lat="40.8274916" lon="16.5117046"><ele>398.0</ele><time>2026-05-02T17:37:15.701Z</time></trkpt><trkpt lat="40.8274367" lon="16.5119957"><ele>398.0</ele><time>2026-05-02T17:37:16.702Z</time></trkpt><trkpt lat="40.8273828" lon="16.5122913"><ele>399.5</ele><time>2026-05-02T17:37:17.703Z</time></trkpt><trkpt lat="40.8273279" lon="16.5125912"><ele>401.0</ele><time>2026-05-02T17:37:18.703Z</time></trkpt><trkpt lat="40.8272713" lon="16.5128978"><ele>401.5</ele><time>2026-05-02T17:37:19.704Z</time></trkpt><trkpt lat="40.8272107" lon="16.5132139"><ele>402.0</ele><time>2026-05-02T17:37:20.702Z</time></trkpt><trkpt lat="40.8271502" lon="16.5135343"><ele>403.0</ele><time>2026-05-02T17:37:21.702Z</time></trkpt><trkpt lat="40.8270898" lon="16.5138593"><ele>404.0</ele><time>2026-05-02T17:37:22.702Z</time></trkpt><trkpt lat="40.8270308" lon="16.5141853"><ele>404.0</ele><time>2026-05-02T17:37:23.704Z</time></trkpt><trkpt lat="40.82697" lon="16.5145119"><ele>404.0</ele><time>2026-05-02T17:37:24.702Z</time></trkpt><trkpt lat="40.8269096" lon="16.5148407"><ele>404.5</ele><time>2026-05-02T17:37:25.703Z</time></trkpt><trkpt lat="40.8268483" lon="16.5151693"><ele>405.0</ele><time>2026-05-02T17:37:26.703Z</time></trkpt><trkpt lat="40.8267867" lon="16.5154989"><ele>409.5</ele><time>2026-05-02T17:37:27.702Z</time></trkpt><trkpt lat="40.8267237" lon="16.5158261"><ele>414.0</ele><time>2026-05-02T17:37:28.702Z</time></trkpt><trkpt lat="40.826662" lon="16.5161442"><ele>417.5</ele><time>2026-05-02T17:37:29.703Z</time></trkpt><trkpt lat="40.8266023" lon="16.516448"><ele>421.0</ele><time>2026-05-02T17:37:30.703Z</time></trkpt><trkpt lat="40.8265452" lon="16.5167444"><ele>421.0</ele><time>2026-05-02T17:37:31.701Z</time></trkpt><trkpt lat="40.8264909" lon="16.5170398"><ele>421.0</ele><time>2026-05-02T17:37:32.702Z</time></trkpt><trkpt lat="40.8264351" lon="16.5173359"><ele>423.0</ele><time>2026-05-02T17:37:33.701Z</time></trkpt><trkpt lat="40.8263787" lon="16.5176297"><ele>425.0</ele><time>2026-05-02T17:37:34.702Z</time></trkpt><trkpt lat="40.8263209" lon="16.5179255"><ele>427.5</ele><time>2026-05-02T17:37:35.703Z</time></trkpt><trkpt lat="40.8262615" lon="16.5182224"><ele>430.0</ele><time>2026-05-02T17:37:36.701Z</time></trkpt><trkpt lat="40.8262028" lon="16.5185182"><ele>430.5</ele><time>2026-05-02T17:37:37.702Z</time></trkpt><trkpt lat="40.8261431" lon="16.5188145"><ele>431.0</ele><time>2026-05-02T17:37:38.703Z</time></trkpt><trkpt lat="40.826081" lon="16.5191106"><ele>431.0</ele><time>2026-05-02T17:37:39.701Z</time></trkpt><trkpt lat="40.8260178" lon="16.5194077"><ele>431.0</ele><time>2026-05-02T17:37:40.703Z</time></trkpt><trkpt lat="40.8259498" lon="16.5197059"><ele>432.5</ele><time>2026-05-02T17:37:41.703Z</time></trkpt><trkpt lat="40.8258802" lon="16.5200057"><ele>434.0</ele><time>2026-05-02T17:37:42.702Z</time></trkpt><trkpt lat="40.8258079" lon="16.520306"><ele>434.0</ele><time>2026-05-02T17:37:43.702Z</time></trkpt><trkpt lat="40.8257345" lon="16.5206102"><ele>434.0</ele><time>2026-05-02T17:37:44.703Z</time></trkpt><trkpt lat="40.8256577" lon="16.520909"><ele>434.0</ele><time>2026-05-02T17:37:45.701Z</time></trkpt><trkpt lat="40.8255829" lon="16.5211924"><ele>434.0</ele><time>2026-05-02T17:37:46.703Z</time></trkpt><trkpt lat="40.8255105" lon="16.5214554"><ele>434.0</ele><time>2026-05-02T17:37:47.703Z</time></trkpt><trkpt lat="40.8254425" lon="16.5216943"><ele>433.66666666666663</ele><time>2026-05-02T17:37:48.702Z</time></trkpt><trkpt lat="40.8253791" lon="16.5219093"><ele>433.33333333333337</ele><time>2026-05-02T17:37:49.703Z</time></trkpt><trkpt lat="40.8253228" lon="16.5221042"><ele>433.0</ele><time>2026-05-02T17:37:50.702Z</time></trkpt><trkpt lat="40.8252727" lon="16.5222791"><ele>433.0</ele><time>2026-05-02T17:37:51.701Z</time></trkpt><trkpt lat="40.825226" lon="16.5224366"><ele>432.99999999999994</ele><time>2026-05-02T17:37:52.701Z</time></trkpt><trkpt lat="40.8251829" lon="16.5225766"><ele>432.99999999999994</ele><time>2026-05-02T17:37:53.703Z</time></trkpt><trkpt lat="40.8251446" lon="16.5227037"><ele>433.0</ele><time>2026-05-02T17:37:54.701Z</time></trkpt><trkpt lat="40.8251084" lon="16.5228174"><ele>433.0</ele><time>2026-05-02T17:37:55.702Z</time></trkpt><trkpt lat="40.8250775" lon="16.5229133"><ele>433.33333333333337</ele><time>2026-05-02T17:37:56.704Z</time></trkpt><trkpt lat="40.82504" lon="16.5230278"><ele>433.6666666666667</ele><time>2026-05-02T17:37:58.702Z</time></trkpt><trkpt lat="40.8250005" lon="16.5231254"><ele>434.0</ele><time>2026-05-02T17:38:00.703Z</time></trkpt><trkpt lat="40.8249746" lon="16.5232036"><ele>434.33333333333337</ele><time>2026-05-02T17:38:01.702Z</time></trkpt><trkpt lat="40.8249462" lon="16.5232941"><ele>434.6666666666667</ele><time>2026-05-02T17:38:02.701Z</time></trkpt><trkpt lat="40.824916" lon="16.5233901"><ele>435.0</ele><time>2026-05-02T17:38:03.702Z</time></trkpt><trkpt lat="40.8248814" lon="16.5235001"><ele>435.0</ele><time>2026-05-02T17:38:04.702Z</time></trkpt><trkpt lat="40.8248388" lon="16.5236361"><ele>435.0</ele><time>2026-05-02T17:38:05.704Z</time></trkpt><trkpt lat="40.8247935" lon="16.5237797"><ele>435.0</ele><time>2026-05-02T17:38:06.702Z</time></trkpt><trkpt lat="40.8247535" lon="16.5239132"><ele>435.0</ele><time>2026-05-02T17:38:07.702Z</time></trkpt><trkpt lat="40.8247166" lon="16.5240379"><ele>435.0</ele><time>2026-05-02T17:38:08.703Z</time></trkpt><trkpt lat="40.8246828" lon="16.524154"><ele>435.0</ele><time>2026-05-02T17:38:09.701Z</time></trkpt><trkpt lat="40.8246514" lon="16.5242706"><ele>435.0</ele><time>2026-05-02T17:38:10.701Z</time></trkpt><trkpt lat="40.8246184" lon="16.5243961"><ele>435.0</ele><time>2026-05-02T17:38:11.703Z</time></trkpt><trkpt lat="40.8245806" lon="16.5245292"><ele>435.0</ele><time>2026-05-02T17:38:12.701Z</time></trkpt><trkpt lat="40.8245377" lon="16.5246704"><ele>435.0</ele><time>2026-05-02T17:38:13.703Z</time></trkpt><trkpt lat="40.8244885" lon="16.5248229"><ele>435.0</ele><time>2026-05-02T17:38:14.702Z</time></trkpt><trkpt lat="40.8244335" lon="16.5249946"><ele>435.0</ele><time>2026-05-02T17:38:15.701Z</time></trkpt><trkpt lat="40.8243731" lon="16.5251815"><ele>435.0</ele><time>2026-05-02T17:38:16.703Z</time></trkpt><trkpt lat="40.8243125" lon="16.5253757"><ele>435.33333333333337</ele><time>2026-05-02T17:38:17.703Z</time></trkpt><trkpt lat="40.8242522" lon="16.5255691"><ele>435.6666666666667</ele><time>2026-05-02T17:38:18.701Z</time></trkpt><trkpt lat="40.8241923" lon="16.5257586"><ele>436.0</ele><time>2026-05-02T17:38:19.703Z</time></trkpt><trkpt lat="40.8241324" lon="16.525951"><ele>436.0</ele><time>2026-05-02T17:38:20.703Z</time></trkpt><trkpt lat="40.8240708" lon="16.5261531"><ele>436.0</ele><time>2026-05-02T17:38:21.702Z</time></trkpt><trkpt lat="40.8240062" lon="16.5263703"><ele>436.0</ele><time>2026-05-02T17:38:22.702Z</time></trkpt><trkpt lat="40.8239349" lon="16.5266059"><ele>436.33333333333337</ele><time>2026-05-02T17:38:23.702Z</time></trkpt><trkpt lat="40.823857" lon="16.5268531"><ele>436.66666666666663</ele><time>2026-05-02T17:38:24.701Z</time></trkpt><trkpt lat="40.8237733" lon="16.5271167"><ele>437.0</ele><time>2026-05-02T17:38:25.703Z</time></trkpt><trkpt lat="40.823685" lon="16.5273817"><ele>437.66666666666663</ele><time>2026-05-02T17:38:26.703Z</time></trkpt><trkpt lat="40.823595" lon="16.5276483"><ele>438.33333333333337</ele><time>2026-05-02T17:38:27.703Z</time></trkpt><trkpt lat="40.823505" lon="16.5279133"><ele>439.0</ele><time>2026-05-02T17:38:28.701Z</time></trkpt><trkpt lat="40.8234183" lon="16.5281783"><ele>439.0</ele><time>2026-05-02T17:38:29.702Z</time></trkpt><trkpt lat="40.8233317" lon="16.5284433"><ele>439.0</ele><time>2026-05-02T17:38:30.701Z</time></trkpt><trkpt lat="40.8232467" lon="16.5287083"><ele>439.0</ele><time>2026-05-02T17:38:31.701Z</time></trkpt><trkpt lat="40.8231617" lon="16.5289733"><ele>439.0</ele><time>2026-05-02T17:38:32.702Z</time></trkpt><trkpt lat="40.8230767" lon="16.52924"><ele>439.0</ele><time>2026-05-02T17:38:33.702Z</time></trkpt><trkpt lat="40.8229917" lon="16.5295067"><ele>439.0</ele><time>2026-05-02T17:38:34.702Z</time></trkpt><trkpt lat="40.8229067" lon="16.52977"><ele>439.5</ele><time>2026-05-02T17:38:35.701Z</time></trkpt><trkpt lat="40.8228217" lon="16.5300417"><ele>440.0</ele><time>2026-05-02T17:38:36.701Z</time></trkpt><trkpt lat="40.8227317" lon="16.5303333"><ele>439.5</ele><time>2026-05-02T17:38:37.701Z</time></trkpt><trkpt lat="40.82264" lon="16.5306283"><ele>439.0</ele><time>2026-05-02T17:38:38.703Z</time></trkpt><trkpt lat="40.8225517" lon="16.5309117"><ele>439.0</ele><time>2026-05-02T17:38:39.702Z</time></trkpt><trkpt lat="40.8224667" lon="16.5311783"><ele>439.0</ele><time>2026-05-02T17:38:40.701Z</time></trkpt><trkpt lat="40.822385" lon="16.5314383"><ele>439.0</ele><time>2026-05-02T17:38:41.703Z</time></trkpt><trkpt lat="40.822305" lon="16.5316983"><ele>439.0</ele><time>2026-05-02T17:38:42.702Z</time></trkpt><trkpt lat="40.8222217" lon="16.531965"><ele>439.0</ele><time>2026-05-02T17:38:43.702Z</time></trkpt><trkpt lat="40.8221383" lon="16.5322333"><ele>439.0</ele><time>2026-05-02T17:38:44.702Z</time></trkpt><trkpt lat="40.8220517" lon="16.5325033"><ele>439.0</ele><time>2026-05-02T17:38:45.701Z</time></trkpt><trkpt lat="40.821965" lon="16.5327733"><ele>439.0</ele><time>2026-05-02T17:38:46.703Z</time></trkpt><trkpt lat="40.8218767" lon="16.5330467"><ele>439.0</ele><time>2026-05-02T17:38:47.703Z</time></trkpt><trkpt lat="40.8217883" lon="16.5333217"><ele>439.5</ele><time>2026-05-02T17:38:48.702Z</time></trkpt><trkpt lat="40.8217" lon="16.5336"><ele>440.0</ele><time>2026-05-02T17:38:49.703Z</time></trkpt><trkpt lat="40.82161" lon="16.5338783"><ele>440.0</ele><time>2026-05-02T17:38:50.704Z</time></trkpt><trkpt lat="40.8215233" lon="16.534145"><ele>440.0</ele><time>2026-05-02T17:38:51.701Z</time></trkpt><trkpt lat="40.821445" lon="16.5343967"><ele>440.0</ele><time>2026-05-02T17:38:52.703Z</time></trkpt><trkpt lat="40.8213683" lon="16.5346433"><ele>440.66666666666663</ele><time>2026-05-02T17:38:53.703Z</time></trkpt><trkpt lat="40.8212917" lon="16.5348917"><ele>441.33333333333337</ele><time>2026-05-02T17:38:54.702Z</time></trkpt><trkpt lat="40.82121" lon="16.5351483"><ele>442.0</ele><time>2026-05-02T17:38:55.701Z</time></trkpt><trkpt lat="40.821125" lon="16.5354133"><ele>442.0</ele><time>2026-05-02T17:38:56.703Z</time></trkpt><trkpt lat="40.8210383" lon="16.535685"><ele>442.0</ele><time>2026-05-02T17:38:57.701Z</time></trkpt><trkpt lat="40.8209483" lon="16.5359633"><ele>440.5</ele><time>2026-05-02T17:38:58.701Z</time></trkpt><trkpt lat="40.8208583" lon="16.5362467"><ele>439.0</ele><time>2026-05-02T17:38:59.702Z</time></trkpt><trkpt lat="40.8207683" lon="16.5365367"><ele>439.0</ele><time>2026-05-02T17:39:00.702Z</time></trkpt><trkpt lat="40.8206783" lon="16.536825"><ele>439.0</ele><time>2026-05-02T17:39:01.702Z</time></trkpt><trkpt lat="40.820585" lon="16.53712"><ele>438.5</ele><time>2026-05-02T17:39:02.703Z</time></trkpt><trkpt lat="40.8204883" lon="16.5374167"><ele>438.0</ele><time>2026-05-02T17:39:03.7Z</time></trkpt><trkpt lat="40.82039" lon="16.5377117"><ele>438.0</ele><time>2026-05-02T17:39:04.702Z</time></trkpt><trkpt lat="40.820295" lon="16.5380083"><ele>438.0</ele><time>2026-05-02T17:39:05.702Z</time></trkpt><trkpt lat="40.8202" lon="16.538305"><ele>438.0</ele><time>2026-05-02T17:39:06.701Z</time></trkpt><trkpt lat="40.820105" lon="16.5386033"><ele>438.0</ele><time>2026-05-02T17:39:07.703Z</time></trkpt><trkpt lat="40.8200117" lon="16.5388983"><ele>437.5</ele><time>2026-05-02T17:39:08.702Z</time></trkpt><trkpt lat="40.8199233" lon="16.539185"><ele>437.0</ele><time>2026-05-02T17:39:09.702Z</time></trkpt><trkpt lat="40.8198333" lon="16.539465"><ele>437.5</ele><time>2026-05-02T17:39:10.701Z</time></trkpt><trkpt lat="40.819745" lon="16.5397417"><ele>438.0</ele><time>2026-05-02T17:39:11.704Z</time></trkpt><trkpt lat="40.81966" lon="16.540015"><ele>438.0</ele><time>2026-05-02T17:39:12.701Z</time></trkpt><trkpt lat="40.819575" lon="16.5402867"><ele>438.0</ele><time>2026-05-02T17:39:13.702Z</time></trkpt><trkpt lat="40.81949" lon="16.5405583"><ele>438.0</ele><time>2026-05-02T17:39:14.703Z</time></trkpt><trkpt lat="40.8194083" lon="16.5408233"><ele>438.0</ele><time>2026-05-02T17:39:15.701Z</time></trkpt><trkpt lat="40.8193333" lon="16.541075"><ele>438.0</ele><time>2026-05-02T17:39:16.703Z</time></trkpt><trkpt lat="40.81926" lon="16.5413133"><ele>438.0</ele><time>2026-05-02T17:39:17.702Z</time></trkpt><trkpt lat="40.8191867" lon="16.5415417"><ele>438.0</ele><time>2026-05-02T17:39:18.702Z</time></trkpt><trkpt lat="40.819115" lon="16.54176"><ele>438.0</ele><time>2026-05-02T17:39:19.703Z</time></trkpt><trkpt lat="40.8190483" lon="16.5419667"><ele>438.0</ele><time>2026-05-02T17:39:20.702Z</time></trkpt><trkpt lat="40.818985" lon="16.5421633"><ele>438.25</ele><time>2026-05-02T17:39:21.703Z</time></trkpt><trkpt lat="40.8189233" lon="16.5423517"><ele>438.5</ele><time>2026-05-02T17:39:22.702Z</time></trkpt><trkpt lat="40.8188667" lon="16.54253"><ele>438.75</ele><time>2026-05-02T17:39:23.702Z</time></trkpt><trkpt lat="40.8188133" lon="16.54269"><ele>439.0</ele><time>2026-05-02T17:39:24.702Z</time></trkpt><trkpt lat="40.8187683" lon="16.5428283"><ele>439.1666666666667</ele><time>2026-05-02T17:39:25.701Z</time></trkpt><trkpt lat="40.8187317" lon="16.5429367"><ele>439.33333333333337</ele><time>2026-05-02T17:39:26.703Z</time></trkpt><trkpt lat="40.818705" lon="16.543015"><ele>439.5</ele><time>2026-05-02T17:39:27.701Z</time></trkpt><trkpt lat="40.81867" lon="16.5431"><ele>439.66666666666663</ele><time>2026-05-02T17:39:29.701Z</time></trkpt><trkpt lat="40.8185883" lon="16.5432317"><ele>439.8333333333333</ele><time>2026-05-02T17:40:14.704Z</time></trkpt><trkpt lat="40.818525" lon="16.5432633"><ele>440.0</ele><time>2026-05-02T17:40:19.701Z</time></trkpt><trkpt lat="40.8184567" lon="16.5432933"><ele>439.6</ele><time>2026-05-02T17:40:23.704Z</time></trkpt><trkpt lat="40.818395" lon="16.5433217"><ele>439.2</ele><time>2026-05-02T17:40:26.702Z</time></trkpt><trkpt lat="40.818305" lon="16.54331"><ele>438.79999999999995</ele><time>2026-05-02T17:40:29.702Z</time></trkpt><trkpt lat="40.8181983" lon="16.5432583"><ele>438.4</ele><time>2026-05-02T17:40:31.702Z</time></trkpt><trkpt lat="40.81814" lon="16.5432183"><ele>438.0</ele><time>2026-05-02T17:40:32.703Z</time></trkpt><trkpt lat="40.8180317" lon="16.5431367"><ele>438.0</ele><time>2026-05-02T17:40:34.701Z</time></trkpt><trkpt lat="40.8179667" lon="16.5430917"><ele>438.0</ele><time>2026-05-02T17:40:35.702Z</time></trkpt><trkpt lat="40.8178917" lon="16.5430433"><ele>438.0</ele><time>2026-05-02T17:40:36.7Z</time></trkpt><trkpt lat="40.8178067" lon="16.5429917"><ele>438.0</ele><time>2026-05-02T17:40:37.701Z</time></trkpt><trkpt lat="40.8177183" lon="16.5429417"><ele>438.0</ele><time>2026-05-02T17:40:38.705Z</time></trkpt><trkpt lat="40.8176294" lon="16.5428882"><ele>438.0</ele><time>2026-05-02T17:40:39.702Z</time></trkpt><trkpt lat="40.8175317" lon="16.5428236"><ele>437.25</ele><time>2026-05-02T17:40:40.701Z</time></trkpt><trkpt lat="40.8174283" lon="16.5427563"><ele>436.5</ele><time>2026-05-02T17:40:41.701Z</time></trkpt><trkpt lat="40.8173208" lon="16.5426871"><ele>435.75</ele><time>2026-05-02T17:40:42.7Z</time></trkpt><trkpt lat="40.8172167" lon="16.5426211"><ele>435.0</ele><time>2026-05-02T17:40:43.702Z</time></trkpt><trkpt lat="40.8171169" lon="16.5425579"><ele>435.0</ele><time>2026-05-02T17:40:44.702Z</time></trkpt><trkpt lat="40.8170169" lon="16.5424924"><ele>435.0</ele><time>2026-05-02T17:40:45.701Z</time></trkpt><trkpt lat="40.8169149" lon="16.5424266"><ele>435.0</ele><time>2026-05-02T17:40:46.701Z</time></trkpt><trkpt lat="40.8168142" lon="16.5423653"><ele>435.0</ele><time>2026-05-02T17:40:47.701Z</time></trkpt><trkpt lat="40.8167078" lon="16.5422981"><ele>434.25</ele><time>2026-05-02T17:40:48.702Z</time></trkpt><trkpt lat="40.8165974" lon="16.5422315"><ele>433.5</ele><time>2026-05-02T17:40:49.702Z</time></trkpt><trkpt lat="40.8164858" lon="16.5421656"><ele>432.75</ele><time>2026-05-02T17:40:50.702Z</time></trkpt><trkpt lat="40.8163717" lon="16.5420967"><ele>432.0</ele><time>2026-05-02T17:40:51.702Z</time></trkpt><trkpt lat="40.81626" lon="16.5420275"><ele>431.75</ele><time>2026-05-02T17:40:52.703Z</time></trkpt><trkpt lat="40.8161482" lon="16.5419612"><ele>431.5</ele><time>2026-05-02T17:40:53.701Z</time></trkpt><trkpt lat="40.8160392" lon="16.5418965"><ele>431.25</ele><time>2026-05-02T17:40:54.701Z</time></trkpt><trkpt lat="40.8159356" lon="16.5418343"><ele>431.0</ele><time>2026-05-02T17:40:55.703Z</time></trkpt><trkpt lat="40.815834" lon="16.5417722"><ele>430.5</ele><time>2026-05-02T17:40:56.703Z</time></trkpt><trkpt lat="40.8157328" lon="16.541712"><ele>430.0</ele><time>2026-05-02T17:40:57.703Z</time></trkpt><trkpt lat="40.8156258" lon="16.5416498"><ele>429.5</ele><time>2026-05-02T17:40:58.701Z</time></trkpt><trkpt lat="40.8155161" lon="16.5415845"><ele>429.0</ele><time>2026-05-02T17:40:59.703Z</time></trkpt><trkpt lat="40.8154146" lon="16.5415212"><ele>429.0</ele><time>2026-05-02T17:41:00.701Z</time></trkpt><trkpt lat="40.8153284" lon="16.5414584"><ele>429.0</ele><time>2026-05-02T17:41:01.701Z</time></trkpt><trkpt lat="40.8152567" lon="16.5413996"><ele>429.0</ele><time>2026-05-02T17:41:02.702Z</time></trkpt><trkpt lat="40.8152009" lon="16.5413501"><ele>429.0</ele><time>2026-05-02T17:41:03.701Z</time></trkpt><trkpt lat="40.8151321" lon="16.5412919"><ele>429.0</ele><time>2026-05-02T17:41:05.702Z</time></trkpt><trkpt lat="40.8150533" lon="16.5413441"><ele>429.0</ele><time>2026-05-02T17:41:08.701Z</time></trkpt><trkpt lat="40.8149875" lon="16.5415105"><ele>428.75</ele><time>2026-05-02T17:41:10.7Z</time></trkpt><trkpt lat="40.8149395" lon="16.5416277"><ele>428.5</ele><time>2026-05-02T17:41:11.702Z</time></trkpt><trkpt lat="40.81488" lon="16.5417733"><ele>428.25</ele><time>2026-05-02T17:41:12.702Z</time></trkpt><trkpt lat="40.8148167" lon="16.5419267"><ele>428.0</ele><time>2026-05-02T17:41:13.701Z</time></trkpt><trkpt lat="40.8147517" lon="16.5420833"><ele>428.3333333333333</ele><time>2026-05-02T17:41:14.703Z</time></trkpt><trkpt lat="40.8146933" lon="16.5422217"><ele>428.66666666666663</ele><time>2026-05-02T17:41:15.702Z</time></trkpt><trkpt lat="40.8146483" lon="16.54233"><ele>429.0</ele><time>2026-05-02T17:41:16.701Z</time></trkpt><trkpt lat="40.81461" lon="16.54242"><ele>429.33333333333337</ele><time>2026-05-02T17:41:17.701Z</time></trkpt><trkpt lat="40.8145717" lon="16.5424867"><ele>429.6666666666667</ele><time>2026-05-02T17:41:18.701Z</time></trkpt><trkpt lat="40.8144817" lon="16.542525"><ele>430.0</ele><time>2026-05-02T17:41:20.703Z</time></trkpt><trkpt lat="40.814365" lon="16.5424583"><ele>430.00000000000006</ele><time>2026-05-02T17:41:22.702Z</time></trkpt><trkpt lat="40.8142867" lon="16.542405"><ele>430.0</ele><time>2026-05-02T17:41:23.703Z</time></trkpt><trkpt lat="40.8142" lon="16.5423533"><ele>430.0</ele><time>2026-05-02T17:41:24.7Z</time></trkpt><trkpt lat="40.814115" lon="16.5423067"><ele>430.0</ele><time>2026-05-02T17:41:25.702Z</time></trkpt><trkpt lat="40.814035" lon="16.5422583"><ele>430.00000000000006</ele><time>2026-05-02T17:41:26.701Z</time></trkpt><trkpt lat="40.8139583" lon="16.5422133"><ele>430.0</ele><time>2026-05-02T17:41:27.701Z</time></trkpt><trkpt lat="40.813895" lon="16.5421783"><ele>430.0</ele><time>2026-05-02T17:41:28.701Z</time></trkpt><trkpt lat="40.81379" lon="16.5421683"><ele>430.0</ele><time>2026-05-02T17:41:30.701Z</time></trkpt><trkpt lat="40.81371" lon="16.5422617"><ele>430.0</ele><time>2026-05-02T17:41:32.702Z</time></trkpt><trkpt lat="40.8136817" lon="16.542345"><ele>430.0</ele><time>2026-05-02T17:41:33.702Z</time></trkpt><trkpt lat="40.8136483" lon="16.5424567"><ele>430.0</ele><time>2026-05-02T17:41:34.701Z</time></trkpt><trkpt lat="40.81361" lon="16.5425883"><ele>430.0</ele><time>2026-05-02T17:41:35.7Z</time></trkpt><trkpt lat="40.813565" lon="16.5427367"><ele>430.0</ele><time>2026-05-02T17:41:36.701Z</time></trkpt><trkpt lat="40.8135167" lon="16.542885"><ele>430.0</ele><time>2026-05-02T17:41:37.701Z</time></trkpt><trkpt lat="40.8134667" lon="16.5430283"><ele>430.0</ele><time>2026-05-02T17:41:38.702Z</time></trkpt><trkpt lat="40.8134217" lon="16.54317"><ele>429.50000000000006</ele><time>2026-05-02T17:41:39.701Z</time></trkpt><trkpt lat="40.81338" lon="16.5432967"><ele>429.0</ele><time>2026-05-02T17:41:40.7Z</time></trkpt><trkpt lat="40.8133417" lon="16.5433967"><ele>428.5</ele><time>2026-05-02T17:41:41.701Z</time></trkpt><trkpt lat="40.8133083" lon="16.5434767"><ele>428.0</ele><time>2026-05-02T17:41:42.7Z</time></trkpt><trkpt lat="40.81326" lon="16.5435867"><ele>427.50000000000006</ele><time>2026-05-02T17:41:44.703Z</time></trkpt><trkpt lat="40.813185" lon="16.54361"><ele>427.0</ele><time>2026-05-02T17:41:47.702Z</time></trkpt><trkpt lat="40.8131433" lon="16.5436817"><ele>427.14285714285717</ele><time>2026-05-02T17:49:21.706Z</time></trkpt><trkpt lat="40.8131267" lon="16.5438017"><ele>427.2857142857143</ele><time>2026-05-02T17:49:34.705Z</time></trkpt><trkpt lat="40.813095" lon="16.5438883"><ele>427.42857142857144</ele><time>2026-05-02T17:49:41.701Z</time></trkpt><trkpt lat="40.813055" lon="16.5439667"><ele>427.57142857142856</ele><time>2026-05-02T17:49:48.702Z</time></trkpt><trkpt lat="40.8130017" lon="16.5440217"><ele>427.7142857142857</ele><time>2026-05-02T17:49:54.702Z</time></trkpt><trkpt lat="40.8129567" lon="16.5440883"><ele>427.8571428571429</ele><time>2026-05-02T17:50:00.703Z</time></trkpt><trkpt lat="40.8129" lon="16.5441383"><ele>428.0</ele><time>2026-05-02T17:50:06.702Z</time></trkpt><trkpt lat="40.8128483" lon="16.5442067"><ele>428.0</ele><time>2026-05-02T17:50:12.702Z</time></trkpt></trkseg></trk></gpx>